<?xml version="1.0" encoding="UTF-8" standalone="no" ?>
<gpx xmlns="http://www.topografix.com/GPX/1/1" xmlns:xsi="http://www.w3.org/2001/XMLSchema-instance" xsi:schemaLocation="http://www.topografix.com/GPX/1/1 http://www.topografix.com/GPX/1/1/gpx.xsd" version="1.1" creator="VisuGPX - https://www.visugpx.com">
  <metadata>
    <name>VOLTA AL SOBREPUNY</name>
    <desc><![CDATA[VOLTA AL SOBREPUNY--------------]]></desc>
  </metadata>
  <trk>
    <name><![CDATA[Move]]></name>
    <trkseg>
      <trkpt lat="42.16651" lon="1.88441">
        <ele>869.09997558594</ele>
        <time>2018-11-13T06:55:59.000Z</time>
      </trkpt>
      <trkpt lat="42.16651" lon="1.88444">
        <ele>887</ele>
        <time>2018-11-13T06:56:02.000Z</time>
      </trkpt>
      <trkpt lat="42.16651" lon="1.88447">
        <ele>887</ele>
        <time>2018-11-13T06:56:04.000Z</time>
      </trkpt>
      <trkpt lat="42.1665" lon="1.88451">
        <ele>887</ele>
        <time>2018-11-13T06:56:06.000Z</time>
      </trkpt>
      <trkpt lat="42.16649" lon="1.88454">
        <ele>887</ele>
        <time>2018-11-13T06:56:08.000Z</time>
      </trkpt>
      <trkpt lat="42.16648" lon="1.88458">
        <ele>887</ele>
        <time>2018-11-13T06:56:10.000Z</time>
      </trkpt>
      <trkpt lat="42.16647" lon="1.88461">
        <ele>887</ele>
        <time>2018-11-13T06:56:12.000Z</time>
      </trkpt>
      <trkpt lat="42.16646" lon="1.88465">
        <ele>887</ele>
        <time>2018-11-13T06:56:14.000Z</time>
      </trkpt>
      <trkpt lat="42.16645" lon="1.88468">
        <ele>887</ele>
        <time>2018-11-13T06:56:16.000Z</time>
      </trkpt>
      <trkpt lat="42.16644" lon="1.88471">
        <ele>887</ele>
        <time>2018-11-13T06:56:18.000Z</time>
      </trkpt>
      <trkpt lat="42.16642" lon="1.88475">
        <ele>887</ele>
        <time>2018-11-13T06:56:20.000Z</time>
      </trkpt>
      <trkpt lat="42.16641" lon="1.88478">
        <ele>887</ele>
        <time>2018-11-13T06:56:22.000Z</time>
      </trkpt>
      <trkpt lat="42.1664" lon="1.88482">
        <ele>887</ele>
        <time>2018-11-13T06:56:24.000Z</time>
      </trkpt>
      <trkpt lat="42.16639" lon="1.88485">
        <ele>887</ele>
        <time>2018-11-13T06:56:26.000Z</time>
      </trkpt>
      <trkpt lat="42.1664" lon="1.88487">
        <ele>887</ele>
        <time>2018-11-13T06:56:29.000Z</time>
      </trkpt>
      <trkpt lat="42.16639" lon="1.8849">
        <ele>887</ele>
        <time>2018-11-13T06:56:31.000Z</time>
      </trkpt>
      <trkpt lat="42.16636" lon="1.88492">
        <ele>887</ele>
        <time>2018-11-13T06:56:33.000Z</time>
      </trkpt>
      <trkpt lat="42.16634" lon="1.88492">
        <ele>887</ele>
        <time>2018-11-13T06:56:35.000Z</time>
      </trkpt>
      <trkpt lat="42.16631" lon="1.88493">
        <ele>887</ele>
        <time>2018-11-13T06:56:37.000Z</time>
      </trkpt>
      <trkpt lat="42.16628" lon="1.88494">
        <ele>887</ele>
        <time>2018-11-13T06:56:39.000Z</time>
      </trkpt>
      <trkpt lat="42.16624" lon="1.88495">
        <ele>887</ele>
        <time>2018-11-13T06:56:41.000Z</time>
      </trkpt>
      <trkpt lat="42.16621" lon="1.88497">
        <ele>887</ele>
        <time>2018-11-13T06:56:43.000Z</time>
      </trkpt>
      <trkpt lat="42.16619" lon="1.88498">
        <ele>887</ele>
        <time>2018-11-13T06:56:45.000Z</time>
      </trkpt>
      <trkpt lat="42.16616" lon="1.88499">
        <ele>887</ele>
        <time>2018-11-13T06:56:47.000Z</time>
      </trkpt>
      <trkpt lat="42.16614" lon="1.88501">
        <ele>887</ele>
        <time>2018-11-13T06:56:49.000Z</time>
      </trkpt>
      <trkpt lat="42.16611" lon="1.88504">
        <ele>887</ele>
        <time>2018-11-13T06:56:51.000Z</time>
      </trkpt>
      <trkpt lat="42.16609" lon="1.88507">
        <ele>887</ele>
        <time>2018-11-13T06:56:53.000Z</time>
      </trkpt>
      <trkpt lat="42.16608" lon="1.8851">
        <ele>887</ele>
        <time>2018-11-13T06:56:55.000Z</time>
      </trkpt>
      <trkpt lat="42.16606" lon="1.88513">
        <ele>887</ele>
        <time>2018-11-13T06:56:57.000Z</time>
      </trkpt>
      <trkpt lat="42.16605" lon="1.88517">
        <ele>887</ele>
        <time>2018-11-13T06:56:59.000Z</time>
      </trkpt>
      <trkpt lat="42.16605" lon="1.88521">
        <ele>887</ele>
        <time>2018-11-13T06:57:01.000Z</time>
      </trkpt>
      <trkpt lat="42.16605" lon="1.88525">
        <ele>887</ele>
        <time>2018-11-13T06:57:03.000Z</time>
      </trkpt>
      <trkpt lat="42.16606" lon="1.88528">
        <ele>887</ele>
        <time>2018-11-13T06:57:05.000Z</time>
      </trkpt>
      <trkpt lat="42.16607" lon="1.88531">
        <ele>887</ele>
        <time>2018-11-13T06:57:07.000Z</time>
      </trkpt>
      <trkpt lat="42.16608" lon="1.88534">
        <ele>887</ele>
        <time>2018-11-13T06:57:09.000Z</time>
      </trkpt>
      <trkpt lat="42.16609" lon="1.88538">
        <ele>887</ele>
        <time>2018-11-13T06:57:11.000Z</time>
      </trkpt>
      <trkpt lat="42.1661" lon="1.88542">
        <ele>887</ele>
        <time>2018-11-13T06:57:13.000Z</time>
      </trkpt>
      <trkpt lat="42.1661" lon="1.88545">
        <ele>887</ele>
        <time>2018-11-13T06:57:15.000Z</time>
      </trkpt>
      <trkpt lat="42.16611" lon="1.88549">
        <ele>887</ele>
        <time>2018-11-13T06:57:17.000Z</time>
      </trkpt>
      <trkpt lat="42.16612" lon="1.88553">
        <ele>887</ele>
        <time>2018-11-13T06:57:19.000Z</time>
      </trkpt>
      <trkpt lat="42.16613" lon="1.88557">
        <ele>887</ele>
        <time>2018-11-13T06:57:21.000Z</time>
      </trkpt>
      <trkpt lat="42.16613" lon="1.8856">
        <ele>887</ele>
        <time>2018-11-13T06:57:23.000Z</time>
      </trkpt>
      <trkpt lat="42.16614" lon="1.88564">
        <ele>887</ele>
        <time>2018-11-13T06:57:25.000Z</time>
      </trkpt>
      <trkpt lat="42.16614" lon="1.88568">
        <ele>887</ele>
        <time>2018-11-13T06:57:27.000Z</time>
      </trkpt>
      <trkpt lat="42.16614" lon="1.88571">
        <ele>887</ele>
        <time>2018-11-13T06:57:28.000Z</time>
      </trkpt>
      <trkpt lat="42.16614" lon="1.88573">
        <ele>887</ele>
        <time>2018-11-13T06:57:29.000Z</time>
      </trkpt>
      <trkpt lat="42.16615" lon="1.88575">
        <ele>887</ele>
        <time>2018-11-13T06:57:30.000Z</time>
      </trkpt>
      <trkpt lat="42.16616" lon="1.8858">
        <ele>887</ele>
        <time>2018-11-13T06:57:32.000Z</time>
      </trkpt>
      <trkpt lat="42.16616" lon="1.88583">
        <ele>887</ele>
        <time>2018-11-13T06:57:33.000Z</time>
      </trkpt>
      <trkpt lat="42.16617" lon="1.88586">
        <ele>887</ele>
        <time>2018-11-13T06:57:34.000Z</time>
      </trkpt>
      <trkpt lat="42.16618" lon="1.88589">
        <ele>887</ele>
        <time>2018-11-13T06:57:35.000Z</time>
      </trkpt>
      <trkpt lat="42.16618" lon="1.88591">
        <ele>887</ele>
        <time>2018-11-13T06:57:36.000Z</time>
      </trkpt>
      <trkpt lat="42.16618" lon="1.88594">
        <ele>887</ele>
        <time>2018-11-13T06:57:37.000Z</time>
      </trkpt>
      <trkpt lat="42.16618" lon="1.88597">
        <ele>887</ele>
        <time>2018-11-13T06:57:38.000Z</time>
      </trkpt>
      <trkpt lat="42.16618" lon="1.88599">
        <ele>887</ele>
        <time>2018-11-13T06:57:39.000Z</time>
      </trkpt>
      <trkpt lat="42.16619" lon="1.88602">
        <ele>887</ele>
        <time>2018-11-13T06:57:40.000Z</time>
      </trkpt>
      <trkpt lat="42.16618" lon="1.88606">
        <ele>887</ele>
        <time>2018-11-13T06:57:41.000Z</time>
      </trkpt>
      <trkpt lat="42.16617" lon="1.88609">
        <ele>887</ele>
        <time>2018-11-13T06:57:42.000Z</time>
      </trkpt>
      <trkpt lat="42.16617" lon="1.88612">
        <ele>887</ele>
        <time>2018-11-13T06:57:43.000Z</time>
      </trkpt>
      <trkpt lat="42.16616" lon="1.88615">
        <ele>887</ele>
        <time>2018-11-13T06:57:44.000Z</time>
      </trkpt>
      <trkpt lat="42.16616" lon="1.88618">
        <ele>887</ele>
        <time>2018-11-13T06:57:45.000Z</time>
      </trkpt>
      <trkpt lat="42.16616" lon="1.88622">
        <ele>887</ele>
        <time>2018-11-13T06:57:46.000Z</time>
      </trkpt>
      <trkpt lat="42.16616" lon="1.88625">
        <ele>887</ele>
        <time>2018-11-13T06:57:47.000Z</time>
      </trkpt>
      <trkpt lat="42.16616" lon="1.88627">
        <ele>887</ele>
        <time>2018-11-13T06:57:48.000Z</time>
      </trkpt>
      <trkpt lat="42.16617" lon="1.8863">
        <ele>887</ele>
        <time>2018-11-13T06:57:49.000Z</time>
      </trkpt>
      <trkpt lat="42.16617" lon="1.88634">
        <ele>887</ele>
        <time>2018-11-13T06:57:50.000Z</time>
      </trkpt>
      <trkpt lat="42.16617" lon="1.88637">
        <ele>887</ele>
        <time>2018-11-13T06:57:51.000Z</time>
      </trkpt>
      <trkpt lat="42.16618" lon="1.88641">
        <ele>887</ele>
        <time>2018-11-13T06:57:52.000Z</time>
      </trkpt>
      <trkpt lat="42.16618" lon="1.88644">
        <ele>887</ele>
        <time>2018-11-13T06:57:53.000Z</time>
      </trkpt>
      <trkpt lat="42.16619" lon="1.88647">
        <ele>887</ele>
        <time>2018-11-13T06:57:54.000Z</time>
      </trkpt>
      <trkpt lat="42.16619" lon="1.8865">
        <ele>887</ele>
        <time>2018-11-13T06:57:55.000Z</time>
      </trkpt>
      <trkpt lat="42.1662" lon="1.88655">
        <ele>887</ele>
        <time>2018-11-13T06:57:57.000Z</time>
      </trkpt>
      <trkpt lat="42.16621" lon="1.88657">
        <ele>887</ele>
        <time>2018-11-13T06:57:58.000Z</time>
      </trkpt>
      <trkpt lat="42.16622" lon="1.8866">
        <ele>887</ele>
        <time>2018-11-13T06:57:59.000Z</time>
      </trkpt>
      <trkpt lat="42.16622" lon="1.88663">
        <ele>887</ele>
        <time>2018-11-13T06:58:00.000Z</time>
      </trkpt>
      <trkpt lat="42.16623" lon="1.88666">
        <ele>887</ele>
        <time>2018-11-13T06:58:01.000Z</time>
      </trkpt>
      <trkpt lat="42.16624" lon="1.88668">
        <ele>887</ele>
        <time>2018-11-13T06:58:02.000Z</time>
      </trkpt>
      <trkpt lat="42.16625" lon="1.88671">
        <ele>887</ele>
        <time>2018-11-13T06:58:03.000Z</time>
      </trkpt>
      <trkpt lat="42.16626" lon="1.88674">
        <ele>887</ele>
        <time>2018-11-13T06:58:04.000Z</time>
      </trkpt>
      <trkpt lat="42.16627" lon="1.88676">
        <ele>887</ele>
        <time>2018-11-13T06:58:05.000Z</time>
      </trkpt>
      <trkpt lat="42.16628" lon="1.88679">
        <ele>887</ele>
        <time>2018-11-13T06:58:06.000Z</time>
      </trkpt>
      <trkpt lat="42.16629" lon="1.88681">
        <ele>887</ele>
        <time>2018-11-13T06:58:07.000Z</time>
      </trkpt>
      <trkpt lat="42.1663" lon="1.88684">
        <ele>887</ele>
        <time>2018-11-13T06:58:09.000Z</time>
      </trkpt>
      <trkpt lat="42.16631" lon="1.88688">
        <ele>887</ele>
        <time>2018-11-13T06:58:11.000Z</time>
      </trkpt>
      <trkpt lat="42.16632" lon="1.8869">
        <ele>887</ele>
        <time>2018-11-13T06:58:13.000Z</time>
      </trkpt>
      <trkpt lat="42.16634" lon="1.88694">
        <ele>887</ele>
        <time>2018-11-13T06:58:15.000Z</time>
      </trkpt>
      <trkpt lat="42.16635" lon="1.88698">
        <ele>887</ele>
        <time>2018-11-13T06:58:17.000Z</time>
      </trkpt>
      <trkpt lat="42.16636" lon="1.88701">
        <ele>887</ele>
        <time>2018-11-13T06:58:19.000Z</time>
      </trkpt>
      <trkpt lat="42.16638" lon="1.88704">
        <ele>887</ele>
        <time>2018-11-13T06:58:21.000Z</time>
      </trkpt>
      <trkpt lat="42.1664" lon="1.88706">
        <ele>887</ele>
        <time>2018-11-13T06:58:24.000Z</time>
      </trkpt>
      <trkpt lat="42.16643" lon="1.88707">
        <ele>887</ele>
        <time>2018-11-13T06:58:26.000Z</time>
      </trkpt>
      <trkpt lat="42.16644" lon="1.88709">
        <ele>882.26880092491</ele>
        <time>2018-11-13T06:58:28.000Z</time>
      </trkpt>
      <trkpt lat="42.16647" lon="1.8871">
        <ele>882</ele>
        <time>2018-11-13T06:58:30.000Z</time>
      </trkpt>
      <trkpt lat="42.1665" lon="1.88712">
        <ele>881</ele>
        <time>2018-11-13T06:58:32.000Z</time>
      </trkpt>
      <trkpt lat="42.16652" lon="1.88714">
        <ele>881</ele>
        <time>2018-11-13T06:58:34.000Z</time>
      </trkpt>
      <trkpt lat="42.16655" lon="1.88716">
        <ele>881</ele>
        <time>2018-11-13T06:58:36.000Z</time>
      </trkpt>
      <trkpt lat="42.16657" lon="1.88719">
        <ele>881</ele>
        <time>2018-11-13T06:58:38.000Z</time>
      </trkpt>
      <trkpt lat="42.1666" lon="1.88722">
        <ele>881</ele>
        <time>2018-11-13T06:58:40.000Z</time>
      </trkpt>
      <trkpt lat="42.16662" lon="1.88725">
        <ele>881</ele>
        <time>2018-11-13T06:58:42.000Z</time>
      </trkpt>
      <trkpt lat="42.16664" lon="1.88729">
        <ele>881</ele>
        <time>2018-11-13T06:58:44.000Z</time>
      </trkpt>
      <trkpt lat="42.16666" lon="1.88732">
        <ele>881</ele>
        <time>2018-11-13T06:58:46.000Z</time>
      </trkpt>
      <trkpt lat="42.16668" lon="1.88734">
        <ele>881</ele>
        <time>2018-11-13T06:58:48.000Z</time>
      </trkpt>
      <trkpt lat="42.16671" lon="1.88736">
        <ele>881</ele>
        <time>2018-11-13T06:58:50.000Z</time>
      </trkpt>
      <trkpt lat="42.16673" lon="1.88737">
        <ele>881</ele>
        <time>2018-11-13T06:58:52.000Z</time>
      </trkpt>
      <trkpt lat="42.16676" lon="1.88739">
        <ele>880</ele>
        <time>2018-11-13T06:58:54.000Z</time>
      </trkpt>
      <trkpt lat="42.16678" lon="1.8874">
        <ele>880</ele>
        <time>2018-11-13T06:58:55.000Z</time>
      </trkpt>
      <trkpt lat="42.1668" lon="1.88741">
        <ele>880</ele>
        <time>2018-11-13T06:58:59.000Z</time>
      </trkpt>
      <trkpt lat="42.16682" lon="1.88742">
        <ele>879.13580481021</ele>
        <time>2018-11-13T06:59:00.000Z</time>
      </trkpt>
      <trkpt lat="42.16684" lon="1.88742">
        <ele>879</ele>
        <time>2018-11-13T06:59:01.000Z</time>
      </trkpt>
      <trkpt lat="42.16687" lon="1.88744">
        <ele>879</ele>
        <time>2018-11-13T06:59:03.000Z</time>
      </trkpt>
      <trkpt lat="42.16688" lon="1.88744">
        <ele>879</ele>
        <time>2018-11-13T06:59:04.000Z</time>
      </trkpt>
      <trkpt lat="42.1669" lon="1.88745">
        <ele>879</ele>
        <time>2018-11-13T06:59:05.000Z</time>
      </trkpt>
      <trkpt lat="42.16692" lon="1.88745">
        <ele>879</ele>
        <time>2018-11-13T06:59:06.000Z</time>
      </trkpt>
      <trkpt lat="42.16695" lon="1.88746">
        <ele>879</ele>
        <time>2018-11-13T06:59:08.000Z</time>
      </trkpt>
      <trkpt lat="42.16698" lon="1.88747">
        <ele>879</ele>
        <time>2018-11-13T06:59:12.000Z</time>
      </trkpt>
      <trkpt lat="42.16701" lon="1.88748">
        <ele>879</ele>
        <time>2018-11-13T06:59:14.000Z</time>
      </trkpt>
      <trkpt lat="42.16704" lon="1.88748">
        <ele>879</ele>
        <time>2018-11-13T06:59:16.000Z</time>
      </trkpt>
      <trkpt lat="42.16706" lon="1.88748">
        <ele>879</ele>
        <time>2018-11-13T06:59:41.000Z</time>
      </trkpt>
      <trkpt lat="42.16708" lon="1.88748">
        <ele>879</ele>
        <time>2018-11-13T06:59:44.000Z</time>
      </trkpt>
      <trkpt lat="42.16711" lon="1.88749">
        <ele>879</ele>
        <time>2018-11-13T06:59:46.000Z</time>
      </trkpt>
      <trkpt lat="42.16714" lon="1.8875">
        <ele>879</ele>
        <time>2018-11-13T06:59:48.000Z</time>
      </trkpt>
      <trkpt lat="42.16717" lon="1.88752">
        <ele>878.13393142857</ele>
        <time>2018-11-13T06:59:50.000Z</time>
      </trkpt>
      <trkpt lat="42.16719" lon="1.88754">
        <ele>878</ele>
        <time>2018-11-13T06:59:52.000Z</time>
      </trkpt>
      <trkpt lat="42.16721" lon="1.88757">
        <ele>878</ele>
        <time>2018-11-13T06:59:54.000Z</time>
      </trkpt>
      <trkpt lat="42.16723" lon="1.8876">
        <ele>878</ele>
        <time>2018-11-13T06:59:56.000Z</time>
      </trkpt>
      <trkpt lat="42.16724" lon="1.88764">
        <ele>878</ele>
        <time>2018-11-13T06:59:58.000Z</time>
      </trkpt>
      <trkpt lat="42.16726" lon="1.88768">
        <ele>878</ele>
        <time>2018-11-13T07:00:00.000Z</time>
      </trkpt>
      <trkpt lat="42.16727" lon="1.88771">
        <ele>876.07229658874</ele>
        <time>2018-11-13T07:00:02.000Z</time>
      </trkpt>
      <trkpt lat="42.16728" lon="1.88775">
        <ele>876</ele>
        <time>2018-11-13T07:00:04.000Z</time>
      </trkpt>
      <trkpt lat="42.16729" lon="1.88778">
        <ele>876</ele>
        <time>2018-11-13T07:00:06.000Z</time>
      </trkpt>
      <trkpt lat="42.1673" lon="1.88782">
        <ele>876</ele>
        <time>2018-11-13T07:00:08.000Z</time>
      </trkpt>
      <trkpt lat="42.16731" lon="1.88784">
        <ele>875</ele>
        <time>2018-11-13T07:00:12.000Z</time>
      </trkpt>
      <trkpt lat="42.16733" lon="1.88786">
        <ele>875</ele>
        <time>2018-11-13T07:00:14.000Z</time>
      </trkpt>
      <trkpt lat="42.16735" lon="1.88789">
        <ele>875</ele>
        <time>2018-11-13T07:00:16.000Z</time>
      </trkpt>
      <trkpt lat="42.16738" lon="1.88791">
        <ele>875</ele>
        <time>2018-11-13T07:00:18.000Z</time>
      </trkpt>
      <trkpt lat="42.1674" lon="1.88794">
        <ele>874</ele>
        <time>2018-11-13T07:00:20.000Z</time>
      </trkpt>
      <trkpt lat="42.1674" lon="1.88796">
        <ele>874</ele>
        <time>2018-11-13T07:00:22.000Z</time>
      </trkpt>
      <trkpt lat="42.16742" lon="1.88798">
        <ele>874</ele>
        <time>2018-11-13T07:00:24.000Z</time>
      </trkpt>
      <trkpt lat="42.16742" lon="1.88801">
        <ele>874</ele>
        <time>2018-11-13T07:00:27.000Z</time>
      </trkpt>
      <trkpt lat="42.16742" lon="1.88804">
        <ele>875</ele>
        <time>2018-11-13T07:00:30.000Z</time>
      </trkpt>
      <trkpt lat="42.16743" lon="1.88806">
        <ele>875</ele>
        <time>2018-11-13T07:00:33.000Z</time>
      </trkpt>
      <trkpt lat="42.16744" lon="1.88808">
        <ele>874</ele>
        <time>2018-11-13T07:00:37.000Z</time>
      </trkpt>
      <trkpt lat="42.16744" lon="1.88806">
        <ele>873.0300032</ele>
        <time>2018-11-13T07:00:58.000Z</time>
      </trkpt>
      <trkpt lat="42.16742" lon="1.88807">
        <ele>874</ele>
        <time>2018-11-13T07:01:04.000Z</time>
      </trkpt>
      <trkpt lat="42.1674" lon="1.88809">
        <ele>874</ele>
        <time>2018-11-13T07:01:11.000Z</time>
      </trkpt>
      <trkpt lat="42.16739" lon="1.88811">
        <ele>874</ele>
        <time>2018-11-13T07:01:14.000Z</time>
      </trkpt>
      <trkpt lat="42.16736" lon="1.88812">
        <ele>874</ele>
        <time>2018-11-13T07:01:17.000Z</time>
      </trkpt>
      <trkpt lat="42.16734" lon="1.88813">
        <ele>874.96969383533</ele>
        <time>2018-11-13T07:01:19.000Z</time>
      </trkpt>
      <trkpt lat="42.16732" lon="1.88814">
        <ele>875.9699968</ele>
        <time>2018-11-13T07:01:21.000Z</time>
      </trkpt>
      <trkpt lat="42.1673" lon="1.88815">
        <ele>876</ele>
        <time>2018-11-13T07:01:23.000Z</time>
      </trkpt>
      <trkpt lat="42.16728" lon="1.88816">
        <ele>876</ele>
        <time>2018-11-13T07:01:25.000Z</time>
      </trkpt>
      <trkpt lat="42.16727" lon="1.88818">
        <ele>875.9699968</ele>
        <time>2018-11-13T07:01:27.000Z</time>
      </trkpt>
      <trkpt lat="42.16726" lon="1.88821">
        <ele>876</ele>
        <time>2018-11-13T07:01:29.000Z</time>
      </trkpt>
      <trkpt lat="42.16724" lon="1.88823">
        <ele>877</ele>
        <time>2018-11-13T07:01:32.000Z</time>
      </trkpt>
      <trkpt lat="42.16723" lon="1.88825">
        <ele>878</ele>
        <time>2018-11-13T07:01:34.000Z</time>
      </trkpt>
      <trkpt lat="42.16721" lon="1.88826">
        <ele>878</ele>
        <time>2018-11-13T07:01:36.000Z</time>
      </trkpt>
      <trkpt lat="42.16719" lon="1.88828">
        <ele>879</ele>
        <time>2018-11-13T07:01:39.000Z</time>
      </trkpt>
      <trkpt lat="42.16717" lon="1.88828">
        <ele>879</ele>
        <time>2018-11-13T07:01:43.000Z</time>
      </trkpt>
      <trkpt lat="42.16714" lon="1.88829">
        <ele>880</ele>
        <time>2018-11-13T07:01:46.000Z</time>
      </trkpt>
      <trkpt lat="42.16713" lon="1.88831">
        <ele>880.92380929161</ele>
        <time>2018-11-13T07:01:50.000Z</time>
      </trkpt>
      <trkpt lat="42.16711" lon="1.88833">
        <ele>881</ele>
        <time>2018-11-13T07:01:53.000Z</time>
      </trkpt>
      <trkpt lat="42.16709" lon="1.88834">
        <ele>881</ele>
        <time>2018-11-13T07:01:57.000Z</time>
      </trkpt>
      <trkpt lat="42.16711" lon="1.88836">
        <ele>881</ele>
        <time>2018-11-13T07:02:08.000Z</time>
      </trkpt>
      <trkpt lat="42.16713" lon="1.88838">
        <ele>881</ele>
        <time>2018-11-13T07:02:10.000Z</time>
      </trkpt>
      <trkpt lat="42.16714" lon="1.8884">
        <ele>881.93268923077</ele>
        <time>2018-11-13T07:02:12.000Z</time>
      </trkpt>
      <trkpt lat="42.16716" lon="1.88842">
        <ele>882</ele>
        <time>2018-11-13T07:02:14.000Z</time>
      </trkpt>
      <trkpt lat="42.16717" lon="1.88845">
        <ele>882.96874666667</ele>
        <time>2018-11-13T07:02:16.000Z</time>
      </trkpt>
      <trkpt lat="42.16717" lon="1.88848">
        <ele>883</ele>
        <time>2018-11-13T07:02:19.000Z</time>
      </trkpt>
      <trkpt lat="42.16716" lon="1.8885">
        <ele>883</ele>
        <time>2018-11-13T07:02:21.000Z</time>
      </trkpt>
      <trkpt lat="42.16715" lon="1.88853">
        <ele>883.96773882764</ele>
        <time>2018-11-13T07:02:23.000Z</time>
      </trkpt>
      <trkpt lat="42.16713" lon="1.88855">
        <ele>884</ele>
        <time>2018-11-13T07:02:25.000Z</time>
      </trkpt>
      <trkpt lat="42.16712" lon="1.88857">
        <ele>885</ele>
        <time>2018-11-13T07:02:28.000Z</time>
      </trkpt>
      <trkpt lat="42.16711" lon="1.8886">
        <ele>885.90653635428</ele>
        <time>2018-11-13T07:02:31.000Z</time>
      </trkpt>
      <trkpt lat="42.1671" lon="1.88862">
        <ele>886</ele>
        <time>2018-11-13T07:02:33.000Z</time>
      </trkpt>
      <trkpt lat="42.1671" lon="1.88865">
        <ele>887</ele>
        <time>2018-11-13T07:02:35.000Z</time>
      </trkpt>
      <trkpt lat="42.16708" lon="1.88867">
        <ele>887</ele>
        <time>2018-11-13T07:02:37.000Z</time>
      </trkpt>
      <trkpt lat="42.16707" lon="1.8887">
        <ele>887</ele>
        <time>2018-11-13T07:02:39.000Z</time>
      </trkpt>
      <trkpt lat="42.16705" lon="1.88873">
        <ele>887</ele>
        <time>2018-11-13T07:02:41.000Z</time>
      </trkpt>
      <trkpt lat="42.16703" lon="1.88876">
        <ele>886.95384100352</ele>
        <time>2018-11-13T07:02:43.000Z</time>
      </trkpt>
      <trkpt lat="42.16702" lon="1.88879">
        <ele>888</ele>
        <time>2018-11-13T07:02:45.000Z</time>
      </trkpt>
      <trkpt lat="42.16701" lon="1.88883">
        <ele>888</ele>
        <time>2018-11-13T07:02:47.000Z</time>
      </trkpt>
      <trkpt lat="42.167" lon="1.88887">
        <ele>888</ele>
        <time>2018-11-13T07:02:49.000Z</time>
      </trkpt>
      <trkpt lat="42.16701" lon="1.88891">
        <ele>887.11817959668</ele>
        <time>2018-11-13T07:02:51.000Z</time>
      </trkpt>
      <trkpt lat="42.16701" lon="1.88894">
        <ele>887</ele>
        <time>2018-11-13T07:02:53.000Z</time>
      </trkpt>
      <trkpt lat="42.16701" lon="1.88898">
        <ele>886.03297043351</ele>
        <time>2018-11-13T07:02:55.000Z</time>
      </trkpt>
      <trkpt lat="42.16701" lon="1.88902">
        <ele>886</ele>
        <time>2018-11-13T07:02:57.000Z</time>
      </trkpt>
      <trkpt lat="42.16702" lon="1.88905">
        <ele>885</ele>
        <time>2018-11-13T07:02:59.000Z</time>
      </trkpt>
      <trkpt lat="42.16703" lon="1.88909">
        <ele>884.06731076923</ele>
        <time>2018-11-13T07:03:01.000Z</time>
      </trkpt>
      <trkpt lat="42.16703" lon="1.88912">
        <ele>883.0300032</ele>
        <time>2018-11-13T07:03:03.000Z</time>
      </trkpt>
      <trkpt lat="42.16703" lon="1.88915">
        <ele>883</ele>
        <time>2018-11-13T07:03:05.000Z</time>
      </trkpt>
      <trkpt lat="42.16703" lon="1.88918">
        <ele>883</ele>
        <time>2018-11-13T07:03:07.000Z</time>
      </trkpt>
      <trkpt lat="42.16702" lon="1.88921">
        <ele>883</ele>
        <time>2018-11-13T07:03:09.000Z</time>
      </trkpt>
      <trkpt lat="42.16699" lon="1.88922">
        <ele>883</ele>
        <time>2018-11-13T07:03:11.000Z</time>
      </trkpt>
      <trkpt lat="42.16697" lon="1.88922">
        <ele>883</ele>
        <time>2018-11-13T07:03:13.000Z</time>
      </trkpt>
      <trkpt lat="42.16695" lon="1.88921">
        <ele>883</ele>
        <time>2018-11-13T07:03:15.000Z</time>
      </trkpt>
      <trkpt lat="42.16692" lon="1.88921">
        <ele>883</ele>
        <time>2018-11-13T07:03:17.000Z</time>
      </trkpt>
      <trkpt lat="42.1669" lon="1.88921">
        <ele>883</ele>
        <time>2018-11-13T07:03:20.000Z</time>
      </trkpt>
      <trkpt lat="42.16688" lon="1.88922">
        <ele>885</ele>
        <time>2018-11-13T07:03:23.000Z</time>
      </trkpt>
      <trkpt lat="42.16686" lon="1.88923">
        <ele>885</ele>
        <time>2018-11-13T07:03:25.000Z</time>
      </trkpt>
      <trkpt lat="42.16684" lon="1.88923">
        <ele>885</ele>
        <time>2018-11-13T07:03:27.000Z</time>
      </trkpt>
      <trkpt lat="42.16682" lon="1.88923">
        <ele>886</ele>
        <time>2018-11-13T07:03:29.000Z</time>
      </trkpt>
      <trkpt lat="42.1668" lon="1.88923">
        <ele>886</ele>
        <time>2018-11-13T07:03:31.000Z</time>
      </trkpt>
      <trkpt lat="42.16678" lon="1.88921">
        <ele>888</ele>
        <time>2018-11-13T07:03:35.000Z</time>
      </trkpt>
      <trkpt lat="42.16676" lon="1.88919">
        <ele>888</ele>
        <time>2018-11-13T07:03:37.000Z</time>
      </trkpt>
      <trkpt lat="42.16674" lon="1.88917">
        <ele>888</ele>
        <time>2018-11-13T07:03:39.000Z</time>
      </trkpt>
      <trkpt lat="42.16672" lon="1.88915">
        <ele>889</ele>
        <time>2018-11-13T07:03:41.000Z</time>
      </trkpt>
      <trkpt lat="42.16669" lon="1.88914">
        <ele>889</ele>
        <time>2018-11-13T07:03:43.000Z</time>
      </trkpt>
      <trkpt lat="42.16667" lon="1.88912">
        <ele>889</ele>
        <time>2018-11-13T07:03:45.000Z</time>
      </trkpt>
      <trkpt lat="42.16664" lon="1.88913">
        <ele>890</ele>
        <time>2018-11-13T07:03:48.000Z</time>
      </trkpt>
      <trkpt lat="42.16662" lon="1.88914">
        <ele>891</ele>
        <time>2018-11-13T07:03:50.000Z</time>
      </trkpt>
      <trkpt lat="42.16659" lon="1.88915">
        <ele>891</ele>
        <time>2018-11-13T07:03:52.000Z</time>
      </trkpt>
      <trkpt lat="42.16657" lon="1.88915">
        <ele>891</ele>
        <time>2018-11-13T07:03:54.000Z</time>
      </trkpt>
      <trkpt lat="42.16655" lon="1.88916">
        <ele>892</ele>
        <time>2018-11-13T07:03:56.000Z</time>
      </trkpt>
      <trkpt lat="42.16653" lon="1.88917">
        <ele>892</ele>
        <time>2018-11-13T07:03:59.000Z</time>
      </trkpt>
      <trkpt lat="42.16651" lon="1.88917">
        <ele>892</ele>
        <time>2018-11-13T07:04:01.000Z</time>
      </trkpt>
      <trkpt lat="42.16649" lon="1.88917">
        <ele>893</ele>
        <time>2018-11-13T07:04:04.000Z</time>
      </trkpt>
      <trkpt lat="42.16647" lon="1.88915">
        <ele>893.9699968</ele>
        <time>2018-11-13T07:04:08.000Z</time>
      </trkpt>
      <trkpt lat="42.16646" lon="1.88914">
        <ele>895</ele>
        <time>2018-11-13T07:04:10.000Z</time>
      </trkpt>
      <trkpt lat="42.16644" lon="1.88912">
        <ele>895</ele>
        <time>2018-11-13T07:04:12.000Z</time>
      </trkpt>
      <trkpt lat="42.16642" lon="1.88911">
        <ele>896</ele>
        <time>2018-11-13T07:04:14.000Z</time>
      </trkpt>
      <trkpt lat="42.1664" lon="1.8891">
        <ele>896</ele>
        <time>2018-11-13T07:04:17.000Z</time>
      </trkpt>
      <trkpt lat="42.16638" lon="1.8891">
        <ele>897</ele>
        <time>2018-11-13T07:04:20.000Z</time>
      </trkpt>
      <trkpt lat="42.16636" lon="1.88912">
        <ele>898</ele>
        <time>2018-11-13T07:04:22.000Z</time>
      </trkpt>
      <trkpt lat="42.16636" lon="1.88916">
        <ele>898</ele>
        <time>2018-11-13T07:04:25.000Z</time>
      </trkpt>
      <trkpt lat="42.16636" lon="1.88919">
        <ele>899</ele>
        <time>2018-11-13T07:04:28.000Z</time>
      </trkpt>
      <trkpt lat="42.16638" lon="1.88921">
        <ele>899</ele>
        <time>2018-11-13T07:04:32.000Z</time>
      </trkpt>
      <trkpt lat="42.16639" lon="1.88923">
        <ele>900.88182040332</ele>
        <time>2018-11-13T07:04:35.000Z</time>
      </trkpt>
      <trkpt lat="42.1664" lon="1.88926">
        <ele>901</ele>
        <time>2018-11-13T07:04:37.000Z</time>
      </trkpt>
      <trkpt lat="42.16641" lon="1.88929">
        <ele>901</ele>
        <time>2018-11-13T07:04:40.000Z</time>
      </trkpt>
      <trkpt lat="42.16642" lon="1.88931">
        <ele>901</ele>
        <time>2018-11-13T07:04:43.000Z</time>
      </trkpt>
      <trkpt lat="42.16641" lon="1.88934">
        <ele>903</ele>
        <time>2018-11-13T07:04:46.000Z</time>
      </trkpt>
      <trkpt lat="42.16639" lon="1.88935">
        <ele>903</ele>
        <time>2018-11-13T07:04:49.000Z</time>
      </trkpt>
      <trkpt lat="42.16637" lon="1.88936">
        <ele>904</ele>
        <time>2018-11-13T07:04:53.000Z</time>
      </trkpt>
      <trkpt lat="42.16635" lon="1.88937">
        <ele>905</ele>
        <time>2018-11-13T07:04:57.000Z</time>
      </trkpt>
      <trkpt lat="42.16633" lon="1.88938">
        <ele>906.90654719893</ele>
        <time>2018-11-13T07:05:00.000Z</time>
      </trkpt>
      <trkpt lat="42.16631" lon="1.88938">
        <ele>907</ele>
        <time>2018-11-13T07:05:05.000Z</time>
      </trkpt>
      <trkpt lat="42.16628" lon="1.88938">
        <ele>907</ele>
        <time>2018-11-13T07:05:08.000Z</time>
      </trkpt>
      <trkpt lat="42.16627" lon="1.88936">
        <ele>908</ele>
        <time>2018-11-13T07:05:11.000Z</time>
      </trkpt>
      <trkpt lat="42.16626" lon="1.88935">
        <ele>909</ele>
        <time>2018-11-13T07:05:14.000Z</time>
      </trkpt>
      <trkpt lat="42.16625" lon="1.88933">
        <ele>909</ele>
        <time>2018-11-13T07:05:16.000Z</time>
      </trkpt>
      <trkpt lat="42.16624" lon="1.88931">
        <ele>909</ele>
        <time>2018-11-13T07:05:18.000Z</time>
      </trkpt>
      <trkpt lat="42.16622" lon="1.88929">
        <ele>909</ele>
        <time>2018-11-13T07:05:20.000Z</time>
      </trkpt>
      <trkpt lat="42.1662" lon="1.88928">
        <ele>910</ele>
        <time>2018-11-13T07:05:22.000Z</time>
      </trkpt>
      <trkpt lat="42.16618" lon="1.88926">
        <ele>910.93548453693</ele>
        <time>2018-11-13T07:05:25.000Z</time>
      </trkpt>
      <trkpt lat="42.16616" lon="1.88925">
        <ele>911</ele>
        <time>2018-11-13T07:05:27.000Z</time>
      </trkpt>
      <trkpt lat="42.16614" lon="1.88924">
        <ele>911</ele>
        <time>2018-11-13T07:05:29.000Z</time>
      </trkpt>
      <trkpt lat="42.16612" lon="1.88924">
        <ele>912</ele>
        <time>2018-11-13T07:05:32.000Z</time>
      </trkpt>
      <trkpt lat="42.1661" lon="1.88923">
        <ele>912</ele>
        <time>2018-11-13T07:05:36.000Z</time>
      </trkpt>
      <trkpt lat="42.16607" lon="1.88922">
        <ele>913</ele>
        <time>2018-11-13T07:05:39.000Z</time>
      </trkpt>
      <trkpt lat="42.16606" lon="1.88921">
        <ele>914</ele>
        <time>2018-11-13T07:05:41.000Z</time>
      </trkpt>
      <trkpt lat="42.16603" lon="1.88919">
        <ele>914</ele>
        <time>2018-11-13T07:05:44.000Z</time>
      </trkpt>
      <trkpt lat="42.16601" lon="1.88919">
        <ele>914.9699968</ele>
        <time>2018-11-13T07:05:46.000Z</time>
      </trkpt>
      <trkpt lat="42.16599" lon="1.88918">
        <ele>915</ele>
        <time>2018-11-13T07:05:48.000Z</time>
      </trkpt>
      <trkpt lat="42.16597" lon="1.88919">
        <ele>915</ele>
        <time>2018-11-13T07:05:50.000Z</time>
      </trkpt>
      <trkpt lat="42.16596" lon="1.88918">
        <ele>915.96773838362</ele>
        <time>2018-11-13T07:05:52.000Z</time>
      </trkpt>
      <trkpt lat="42.16594" lon="1.88917">
        <ele>916</ele>
        <time>2018-11-13T07:05:54.000Z</time>
      </trkpt>
      <trkpt lat="42.16592" lon="1.88917">
        <ele>916</ele>
        <time>2018-11-13T07:05:56.000Z</time>
      </trkpt>
      <trkpt lat="42.16589" lon="1.88917">
        <ele>916</ele>
        <time>2018-11-13T07:05:58.000Z</time>
      </trkpt>
      <trkpt lat="42.16587" lon="1.88918">
        <ele>917</ele>
        <time>2018-11-13T07:06:00.000Z</time>
      </trkpt>
      <trkpt lat="42.16585" lon="1.88918">
        <ele>917.91509684587</ele>
        <time>2018-11-13T07:06:03.000Z</time>
      </trkpt>
      <trkpt lat="42.16583" lon="1.88919">
        <ele>918</ele>
        <time>2018-11-13T07:06:05.000Z</time>
      </trkpt>
      <trkpt lat="42.16581" lon="1.88919">
        <ele>919</ele>
        <time>2018-11-13T07:06:07.000Z</time>
      </trkpt>
      <trkpt lat="42.16578" lon="1.8892">
        <ele>919</ele>
        <time>2018-11-13T07:06:14.000Z</time>
      </trkpt>
      <trkpt lat="42.16576" lon="1.8892">
        <ele>919</ele>
        <time>2018-11-13T07:06:16.000Z</time>
      </trkpt>
      <trkpt lat="42.16574" lon="1.88921">
        <ele>919</ele>
        <time>2018-11-13T07:06:18.000Z</time>
      </trkpt>
      <trkpt lat="42.16573" lon="1.88923">
        <ele>919</ele>
        <time>2018-11-13T07:06:20.000Z</time>
      </trkpt>
      <trkpt lat="42.16573" lon="1.88926">
        <ele>919</ele>
        <time>2018-11-13T07:06:23.000Z</time>
      </trkpt>
      <trkpt lat="42.16573" lon="1.88929">
        <ele>919.70833066667</ele>
        <time>2018-11-13T07:06:26.000Z</time>
      </trkpt>
      <trkpt lat="42.16574" lon="1.88932">
        <ele>921</ele>
        <time>2018-11-13T07:06:29.000Z</time>
      </trkpt>
      <trkpt lat="42.16573" lon="1.88935">
        <ele>921</ele>
        <time>2018-11-13T07:06:32.000Z</time>
      </trkpt>
      <trkpt lat="42.16573" lon="1.88938">
        <ele>922</ele>
        <time>2018-11-13T07:06:35.000Z</time>
      </trkpt>
      <trkpt lat="42.16573" lon="1.88941">
        <ele>923</ele>
        <time>2018-11-13T07:06:39.000Z</time>
      </trkpt>
      <trkpt lat="42.16573" lon="1.88944">
        <ele>924</ele>
        <time>2018-11-13T07:06:41.000Z</time>
      </trkpt>
      <trkpt lat="42.16573" lon="1.88946">
        <ele>924</ele>
        <time>2018-11-13T07:06:43.000Z</time>
      </trkpt>
      <trkpt lat="42.16574" lon="1.88949">
        <ele>925</ele>
        <time>2018-11-13T07:06:47.000Z</time>
      </trkpt>
      <trkpt lat="42.16576" lon="1.88949">
        <ele>926</ele>
        <time>2018-11-13T07:06:51.000Z</time>
      </trkpt>
      <trkpt lat="42.16578" lon="1.8895">
        <ele>926</ele>
        <time>2018-11-13T07:06:53.000Z</time>
      </trkpt>
      <trkpt lat="42.16581" lon="1.88951">
        <ele>927</ele>
        <time>2018-11-13T07:06:56.000Z</time>
      </trkpt>
      <trkpt lat="42.16582" lon="1.88952">
        <ele>927</ele>
        <time>2018-11-13T07:06:58.000Z</time>
      </trkpt>
      <trkpt lat="42.16584" lon="1.88953">
        <ele>928</ele>
        <time>2018-11-13T07:07:00.000Z</time>
      </trkpt>
      <trkpt lat="42.16586" lon="1.88954">
        <ele>928</ele>
        <time>2018-11-13T07:07:02.000Z</time>
      </trkpt>
      <trkpt lat="42.16586" lon="1.88958">
        <ele>928</ele>
        <time>2018-11-13T07:07:05.000Z</time>
      </trkpt>
      <trkpt lat="42.16586" lon="1.8896">
        <ele>929</ele>
        <time>2018-11-13T07:07:08.000Z</time>
      </trkpt>
      <trkpt lat="42.16584" lon="1.88962">
        <ele>930</ele>
        <time>2018-11-13T07:07:13.000Z</time>
      </trkpt>
      <trkpt lat="42.16582" lon="1.88963">
        <ele>931</ele>
        <time>2018-11-13T07:07:16.000Z</time>
      </trkpt>
      <trkpt lat="42.1658" lon="1.88965">
        <ele>931</ele>
        <time>2018-11-13T07:07:19.000Z</time>
      </trkpt>
      <trkpt lat="42.16579" lon="1.88968">
        <ele>931.9699968</ele>
        <time>2018-11-13T07:07:21.000Z</time>
      </trkpt>
      <trkpt lat="42.16578" lon="1.8897">
        <ele>932</ele>
        <time>2018-11-13T07:07:23.000Z</time>
      </trkpt>
      <trkpt lat="42.16577" lon="1.88973">
        <ele>932</ele>
        <time>2018-11-13T07:07:25.000Z</time>
      </trkpt>
      <trkpt lat="42.16576" lon="1.88975">
        <ele>933</ele>
        <time>2018-11-13T07:07:27.000Z</time>
      </trkpt>
      <trkpt lat="42.16575" lon="1.88977">
        <ele>934</ele>
        <time>2018-11-13T07:07:30.000Z</time>
      </trkpt>
      <trkpt lat="42.16575" lon="1.88981">
        <ele>935</ele>
        <time>2018-11-13T07:07:33.000Z</time>
      </trkpt>
      <trkpt lat="42.16574" lon="1.88984">
        <ele>935</ele>
        <time>2018-11-13T07:07:35.000Z</time>
      </trkpt>
      <trkpt lat="42.16574" lon="1.88987">
        <ele>935.9699968</ele>
        <time>2018-11-13T07:07:38.000Z</time>
      </trkpt>
      <trkpt lat="42.16574" lon="1.8899">
        <ele>937</ele>
        <time>2018-11-13T07:07:40.000Z</time>
      </trkpt>
      <trkpt lat="42.16575" lon="1.88993">
        <ele>936.7926852112</ele>
        <time>2018-11-13T07:07:43.000Z</time>
      </trkpt>
      <trkpt lat="42.16574" lon="1.88996">
        <ele>937</ele>
        <time>2018-11-13T07:07:46.000Z</time>
      </trkpt>
      <trkpt lat="42.16573" lon="1.88998">
        <ele>938</ele>
        <time>2018-11-13T07:07:48.000Z</time>
      </trkpt>
      <trkpt lat="42.16572" lon="1.89001">
        <ele>938</ele>
        <time>2018-11-13T07:07:50.000Z</time>
      </trkpt>
      <trkpt lat="42.1657" lon="1.89003">
        <ele>938</ele>
        <time>2018-11-13T07:07:52.000Z</time>
      </trkpt>
      <trkpt lat="42.16568" lon="1.89006">
        <ele>938</ele>
        <time>2018-11-13T07:07:54.000Z</time>
      </trkpt>
      <trkpt lat="42.16566" lon="1.89008">
        <ele>938</ele>
        <time>2018-11-13T07:07:56.000Z</time>
      </trkpt>
      <trkpt lat="42.16564" lon="1.8901">
        <ele>939</ele>
        <time>2018-11-13T07:07:58.000Z</time>
      </trkpt>
      <trkpt lat="42.16563" lon="1.89012">
        <ele>939</ele>
        <time>2018-11-13T07:08:00.000Z</time>
      </trkpt>
      <trkpt lat="42.16561" lon="1.89014">
        <ele>939.79999658668</ele>
        <time>2018-11-13T07:08:02.000Z</time>
      </trkpt>
      <trkpt lat="42.16559" lon="1.89015">
        <ele>940</ele>
        <time>2018-11-13T07:08:04.000Z</time>
      </trkpt>
      <trkpt lat="42.16558" lon="1.89017">
        <ele>940</ele>
        <time>2018-11-13T07:08:07.000Z</time>
      </trkpt>
      <trkpt lat="42.1656" lon="1.89019">
        <ele>940.9699968</ele>
        <time>2018-11-13T07:08:10.000Z</time>
      </trkpt>
      <trkpt lat="42.16561" lon="1.89021">
        <ele>941.96969383533</ele>
        <time>2018-11-13T07:08:12.000Z</time>
      </trkpt>
      <trkpt lat="42.16562" lon="1.89023">
        <ele>942</ele>
        <time>2018-11-13T07:08:14.000Z</time>
      </trkpt>
      <trkpt lat="42.16561" lon="1.89027">
        <ele>942.9699968</ele>
        <time>2018-11-13T07:08:17.000Z</time>
      </trkpt>
      <trkpt lat="42.16561" lon="1.8903">
        <ele>943</ele>
        <time>2018-11-13T07:08:20.000Z</time>
      </trkpt>
      <trkpt lat="42.16561" lon="1.89032">
        <ele>943</ele>
        <time>2018-11-13T07:08:22.000Z</time>
      </trkpt>
      <trkpt lat="42.1656" lon="1.89035">
        <ele>943</ele>
        <time>2018-11-13T07:08:24.000Z</time>
      </trkpt>
      <trkpt lat="42.16559" lon="1.89039">
        <ele>944</ele>
        <time>2018-11-13T07:08:26.000Z</time>
      </trkpt>
      <trkpt lat="42.16559" lon="1.89042">
        <ele>944</ele>
        <time>2018-11-13T07:08:28.000Z</time>
      </trkpt>
      <trkpt lat="42.16558" lon="1.89046">
        <ele>944</ele>
        <time>2018-11-13T07:08:30.000Z</time>
      </trkpt>
      <trkpt lat="42.16557" lon="1.89049">
        <ele>944</ele>
        <time>2018-11-13T07:08:32.000Z</time>
      </trkpt>
      <trkpt lat="42.16555" lon="1.89052">
        <ele>944</ele>
        <time>2018-11-13T07:08:34.000Z</time>
      </trkpt>
      <trkpt lat="42.16554" lon="1.89055">
        <ele>945</ele>
        <time>2018-11-13T07:08:36.000Z</time>
      </trkpt>
      <trkpt lat="42.16552" lon="1.89058">
        <ele>945</ele>
        <time>2018-11-13T07:08:38.000Z</time>
      </trkpt>
      <trkpt lat="42.16551" lon="1.89061">
        <ele>945</ele>
        <time>2018-11-13T07:08:40.000Z</time>
      </trkpt>
      <trkpt lat="42.16549" lon="1.89064">
        <ele>945</ele>
        <time>2018-11-13T07:08:42.000Z</time>
      </trkpt>
      <trkpt lat="42.16548" lon="1.89065">
        <ele>945.9699968</ele>
        <time>2018-11-13T07:08:44.000Z</time>
      </trkpt>
      <trkpt lat="42.16545" lon="1.89067">
        <ele>947</ele>
        <time>2018-11-13T07:08:46.000Z</time>
      </trkpt>
      <trkpt lat="42.16543" lon="1.8907">
        <ele>947</ele>
        <time>2018-11-13T07:08:48.000Z</time>
      </trkpt>
      <trkpt lat="42.1654" lon="1.89072">
        <ele>947</ele>
        <time>2018-11-13T07:08:50.000Z</time>
      </trkpt>
      <trkpt lat="42.16538" lon="1.89074">
        <ele>947</ele>
        <time>2018-11-13T07:08:52.000Z</time>
      </trkpt>
      <trkpt lat="42.16537" lon="1.89077">
        <ele>947</ele>
        <time>2018-11-13T07:08:54.000Z</time>
      </trkpt>
      <trkpt lat="42.16534" lon="1.89079">
        <ele>947</ele>
        <time>2018-11-13T07:08:56.000Z</time>
      </trkpt>
      <trkpt lat="42.16531" lon="1.89081">
        <ele>947</ele>
        <time>2018-11-13T07:08:58.000Z</time>
      </trkpt>
      <trkpt lat="42.16529" lon="1.89082">
        <ele>947</ele>
        <time>2018-11-13T07:09:00.000Z</time>
      </trkpt>
      <trkpt lat="42.16526" lon="1.89083">
        <ele>948</ele>
        <time>2018-11-13T07:09:04.000Z</time>
      </trkpt>
      <trkpt lat="42.16524" lon="1.89083">
        <ele>949.9699968</ele>
        <time>2018-11-13T07:09:06.000Z</time>
      </trkpt>
      <trkpt lat="42.16522" lon="1.89083">
        <ele>950</ele>
        <time>2018-11-13T07:09:08.000Z</time>
      </trkpt>
      <trkpt lat="42.1652" lon="1.89083">
        <ele>950</ele>
        <time>2018-11-13T07:09:10.000Z</time>
      </trkpt>
      <trkpt lat="42.16518" lon="1.89084">
        <ele>951</ele>
        <time>2018-11-13T07:09:13.000Z</time>
      </trkpt>
      <trkpt lat="42.16516" lon="1.89085">
        <ele>952</ele>
        <time>2018-11-13T07:09:16.000Z</time>
      </trkpt>
      <trkpt lat="42.16513" lon="1.89087">
        <ele>952</ele>
        <time>2018-11-13T07:09:19.000Z</time>
      </trkpt>
      <trkpt lat="42.16511" lon="1.89087">
        <ele>953.96666334817</ele>
        <time>2018-11-13T07:09:21.000Z</time>
      </trkpt>
      <trkpt lat="42.16509" lon="1.89088">
        <ele>954</ele>
        <time>2018-11-13T07:09:23.000Z</time>
      </trkpt>
      <trkpt lat="42.16507" lon="1.8909">
        <ele>954</ele>
        <time>2018-11-13T07:09:26.000Z</time>
      </trkpt>
      <trkpt lat="42.16505" lon="1.89091">
        <ele>955</ele>
        <time>2018-11-13T07:09:30.000Z</time>
      </trkpt>
      <trkpt lat="42.16503" lon="1.89093">
        <ele>956</ele>
        <time>2018-11-13T07:09:34.000Z</time>
      </trkpt>
      <trkpt lat="42.16494" lon="1.89096">
        <ele>960</ele>
        <time>2018-11-13T07:09:50.000Z</time>
      </trkpt>
      <trkpt lat="42.16484" lon="1.89098">
        <ele>963</ele>
        <time>2018-11-13T07:10:09.000Z</time>
      </trkpt>
      <trkpt lat="42.1648" lon="1.891">
        <ele>964</ele>
        <time>2018-11-13T07:10:15.000Z</time>
      </trkpt>
      <trkpt lat="42.16478" lon="1.89099">
        <ele>964</ele>
        <time>2018-11-13T07:10:17.000Z</time>
      </trkpt>
      <trkpt lat="42.16477" lon="1.89098">
        <ele>965</ele>
        <time>2018-11-13T07:10:20.000Z</time>
      </trkpt>
      <trkpt lat="42.16476" lon="1.89101">
        <ele>967</ele>
        <time>2018-11-13T07:10:28.000Z</time>
      </trkpt>
      <trkpt lat="42.16475" lon="1.89103">
        <ele>967.96969383533</ele>
        <time>2018-11-13T07:10:31.000Z</time>
      </trkpt>
      <trkpt lat="42.16473" lon="1.89104">
        <ele>968</ele>
        <time>2018-11-13T07:10:35.000Z</time>
      </trkpt>
      <trkpt lat="42.1647" lon="1.89105">
        <ele>969.88182040332</ele>
        <time>2018-11-13T07:10:39.000Z</time>
      </trkpt>
      <trkpt lat="42.16467" lon="1.89106">
        <ele>970</ele>
        <time>2018-11-13T07:10:41.000Z</time>
      </trkpt>
      <trkpt lat="42.16464" lon="1.89107">
        <ele>970</ele>
        <time>2018-11-13T07:10:43.000Z</time>
      </trkpt>
      <trkpt lat="42.16461" lon="1.89106">
        <ele>970.89814518518</ele>
        <time>2018-11-13T07:10:45.000Z</time>
      </trkpt>
      <trkpt lat="42.16459" lon="1.89107">
        <ele>971.9699968</ele>
        <time>2018-11-13T07:10:47.000Z</time>
      </trkpt>
      <trkpt lat="42.16457" lon="1.89107">
        <ele>972</ele>
        <time>2018-11-13T07:10:49.000Z</time>
      </trkpt>
      <trkpt lat="42.16455" lon="1.89108">
        <ele>973</ele>
        <time>2018-11-13T07:10:51.000Z</time>
      </trkpt>
      <trkpt lat="42.16453" lon="1.89109">
        <ele>973</ele>
        <time>2018-11-13T07:10:53.000Z</time>
      </trkpt>
      <trkpt lat="42.16453" lon="1.89111">
        <ele>973</ele>
        <time>2018-11-13T07:10:56.000Z</time>
      </trkpt>
      <trkpt lat="42.16454" lon="1.89114">
        <ele>973.89814518518</ele>
        <time>2018-11-13T07:10:58.000Z</time>
      </trkpt>
      <trkpt lat="42.16455" lon="1.89116">
        <ele>974</ele>
        <time>2018-11-13T07:11:00.000Z</time>
      </trkpt>
      <trkpt lat="42.16454" lon="1.89119">
        <ele>974</ele>
        <time>2018-11-13T07:11:02.000Z</time>
      </trkpt>
      <trkpt lat="42.16454" lon="1.89122">
        <ele>974</ele>
        <time>2018-11-13T07:11:04.000Z</time>
      </trkpt>
      <trkpt lat="42.16454" lon="1.89125">
        <ele>974</ele>
        <time>2018-11-13T07:11:07.000Z</time>
      </trkpt>
      <trkpt lat="42.16451" lon="1.89127">
        <ele>975</ele>
        <time>2018-11-13T07:11:20.000Z</time>
      </trkpt>
      <trkpt lat="42.16448" lon="1.89129">
        <ele>975.90654719893</ele>
        <time>2018-11-13T07:11:22.000Z</time>
      </trkpt>
      <trkpt lat="42.16446" lon="1.89132">
        <ele>975.0300032</ele>
        <time>2018-11-13T07:11:24.000Z</time>
      </trkpt>
      <trkpt lat="42.16444" lon="1.89134">
        <ele>975</ele>
        <time>2018-11-13T07:11:26.000Z</time>
      </trkpt>
      <trkpt lat="42.16442" lon="1.89135">
        <ele>973.08490315413</ele>
        <time>2018-11-13T07:11:28.000Z</time>
      </trkpt>
      <trkpt lat="42.16439" lon="1.89138">
        <ele>973</ele>
        <time>2018-11-13T07:11:30.000Z</time>
      </trkpt>
      <trkpt lat="42.16437" lon="1.89142">
        <ele>973</ele>
        <time>2018-11-13T07:11:32.000Z</time>
      </trkpt>
      <trkpt lat="42.16438" lon="1.89144">
        <ele>973</ele>
        <time>2018-11-13T07:11:34.000Z</time>
      </trkpt>
      <trkpt lat="42.16439" lon="1.89147">
        <ele>973.87386847173</ele>
        <time>2018-11-13T07:11:36.000Z</time>
      </trkpt>
      <trkpt lat="42.16439" lon="1.8915">
        <ele>974.9699968</ele>
        <time>2018-11-13T07:11:38.000Z</time>
      </trkpt>
      <trkpt lat="42.1644" lon="1.89154">
        <ele>975</ele>
        <time>2018-11-13T07:11:40.000Z</time>
      </trkpt>
      <trkpt lat="42.16439" lon="1.89158">
        <ele>975</ele>
        <time>2018-11-13T07:11:42.000Z</time>
      </trkpt>
      <trkpt lat="42.1644" lon="1.89162">
        <ele>975</ele>
        <time>2018-11-13T07:11:44.000Z</time>
      </trkpt>
      <trkpt lat="42.1644" lon="1.89166">
        <ele>975</ele>
        <time>2018-11-13T07:11:46.000Z</time>
      </trkpt>
      <trkpt lat="42.16439" lon="1.89169">
        <ele>975</ele>
        <time>2018-11-13T07:11:48.000Z</time>
      </trkpt>
      <trkpt lat="42.16439" lon="1.89172">
        <ele>976</ele>
        <time>2018-11-13T07:11:50.000Z</time>
      </trkpt>
      <trkpt lat="42.16438" lon="1.89175">
        <ele>976.88990793367</ele>
        <time>2018-11-13T07:11:52.000Z</time>
      </trkpt>
      <trkpt lat="42.16438" lon="1.89178">
        <ele>977</ele>
        <time>2018-11-13T07:11:54.000Z</time>
      </trkpt>
      <trkpt lat="42.16437" lon="1.89181">
        <ele>977</ele>
        <time>2018-11-13T07:11:56.000Z</time>
      </trkpt>
      <trkpt lat="42.16437" lon="1.89184">
        <ele>977.95587764706</ele>
        <time>2018-11-13T07:11:58.000Z</time>
      </trkpt>
      <trkpt lat="42.16439" lon="1.89187">
        <ele>978.96738782609</ele>
        <time>2018-11-13T07:12:01.000Z</time>
      </trkpt>
      <trkpt lat="42.1644" lon="1.8919">
        <ele>979</ele>
        <time>2018-11-13T07:12:03.000Z</time>
      </trkpt>
      <trkpt lat="42.16441" lon="1.89192">
        <ele>979</ele>
        <time>2018-11-13T07:12:05.000Z</time>
      </trkpt>
      <trkpt lat="42.16441" lon="1.89195">
        <ele>980</ele>
        <time>2018-11-13T07:12:07.000Z</time>
      </trkpt>
      <trkpt lat="42.16441" lon="1.89198">
        <ele>980</ele>
        <time>2018-11-13T07:12:09.000Z</time>
      </trkpt>
      <trkpt lat="42.16441" lon="1.89202">
        <ele>980</ele>
        <time>2018-11-13T07:12:11.000Z</time>
      </trkpt>
      <trkpt lat="42.1644" lon="1.89205">
        <ele>980</ele>
        <time>2018-11-13T07:12:13.000Z</time>
      </trkpt>
      <trkpt lat="42.1644" lon="1.89208">
        <ele>980</ele>
        <time>2018-11-13T07:12:15.000Z</time>
      </trkpt>
      <trkpt lat="42.1644" lon="1.89212">
        <ele>981</ele>
        <time>2018-11-13T07:12:17.000Z</time>
      </trkpt>
      <trkpt lat="42.16438" lon="1.89215">
        <ele>981</ele>
        <time>2018-11-13T07:12:19.000Z</time>
      </trkpt>
      <trkpt lat="42.16436" lon="1.89218">
        <ele>981</ele>
        <time>2018-11-13T07:12:21.000Z</time>
      </trkpt>
      <trkpt lat="42.16435" lon="1.89222">
        <ele>980</ele>
        <time>2018-11-13T07:12:23.000Z</time>
      </trkpt>
      <trkpt lat="42.16434" lon="1.89225">
        <ele>980</ele>
        <time>2018-11-13T07:12:25.000Z</time>
      </trkpt>
      <trkpt lat="42.16432" lon="1.89228">
        <ele>980</ele>
        <time>2018-11-13T07:12:27.000Z</time>
      </trkpt>
      <trkpt lat="42.1643" lon="1.89232">
        <ele>980</ele>
        <time>2018-11-13T07:12:29.000Z</time>
      </trkpt>
      <trkpt lat="42.16429" lon="1.89235">
        <ele>980</ele>
        <time>2018-11-13T07:12:31.000Z</time>
      </trkpt>
      <trkpt lat="42.16427" lon="1.89238">
        <ele>980</ele>
        <time>2018-11-13T07:12:33.000Z</time>
      </trkpt>
      <trkpt lat="42.16425" lon="1.89241">
        <ele>980.9699968</ele>
        <time>2018-11-13T07:12:35.000Z</time>
      </trkpt>
      <trkpt lat="42.16424" lon="1.89243">
        <ele>981</ele>
        <time>2018-11-13T07:12:37.000Z</time>
      </trkpt>
      <trkpt lat="42.16422" lon="1.89246">
        <ele>982</ele>
        <time>2018-11-13T07:12:39.000Z</time>
      </trkpt>
      <trkpt lat="42.16422" lon="1.89248">
        <ele>982</ele>
        <time>2018-11-13T07:12:41.000Z</time>
      </trkpt>
      <trkpt lat="42.16419" lon="1.8925">
        <ele>982</ele>
        <time>2018-11-13T07:12:43.000Z</time>
      </trkpt>
      <trkpt lat="42.16417" lon="1.89252">
        <ele>982</ele>
        <time>2018-11-13T07:12:45.000Z</time>
      </trkpt>
      <trkpt lat="42.16415" lon="1.89255">
        <ele>983</ele>
        <time>2018-11-13T07:12:47.000Z</time>
      </trkpt>
      <trkpt lat="42.16414" lon="1.89258">
        <ele>983</ele>
        <time>2018-11-13T07:12:49.000Z</time>
      </trkpt>
      <trkpt lat="42.16412" lon="1.89261">
        <ele>983</ele>
        <time>2018-11-13T07:12:51.000Z</time>
      </trkpt>
      <trkpt lat="42.1641" lon="1.89264">
        <ele>983</ele>
        <time>2018-11-13T07:12:53.000Z</time>
      </trkpt>
      <trkpt lat="42.16408" lon="1.89267">
        <ele>983</ele>
        <time>2018-11-13T07:12:55.000Z</time>
      </trkpt>
      <trkpt lat="42.16406" lon="1.8927">
        <ele>983</ele>
        <time>2018-11-13T07:12:57.000Z</time>
      </trkpt>
      <trkpt lat="42.16404" lon="1.89272">
        <ele>983</ele>
        <time>2018-11-13T07:12:59.000Z</time>
      </trkpt>
      <trkpt lat="42.16401" lon="1.89273">
        <ele>983</ele>
        <time>2018-11-13T07:13:01.000Z</time>
      </trkpt>
      <trkpt lat="42.16399" lon="1.89276">
        <ele>983</ele>
        <time>2018-11-13T07:13:03.000Z</time>
      </trkpt>
      <trkpt lat="42.16398" lon="1.89278">
        <ele>983</ele>
        <time>2018-11-13T07:13:05.000Z</time>
      </trkpt>
      <trkpt lat="42.16397" lon="1.8928">
        <ele>983</ele>
        <time>2018-11-13T07:13:07.000Z</time>
      </trkpt>
      <trkpt lat="42.16395" lon="1.89282">
        <ele>984.96777342407</ele>
        <time>2018-11-13T07:13:09.000Z</time>
      </trkpt>
      <trkpt lat="42.16394" lon="1.89284">
        <ele>985</ele>
        <time>2018-11-13T07:13:11.000Z</time>
      </trkpt>
      <trkpt lat="42.16393" lon="1.89286">
        <ele>985.9699968</ele>
        <time>2018-11-13T07:13:13.000Z</time>
      </trkpt>
      <trkpt lat="42.16391" lon="1.89289">
        <ele>987</ele>
        <time>2018-11-13T07:13:16.000Z</time>
      </trkpt>
      <trkpt lat="42.1639" lon="1.89291">
        <ele>987</ele>
        <time>2018-11-13T07:13:18.000Z</time>
      </trkpt>
      <trkpt lat="42.16388" lon="1.89293">
        <ele>988</ele>
        <time>2018-11-13T07:13:20.000Z</time>
      </trkpt>
      <trkpt lat="42.16386" lon="1.89295">
        <ele>988</ele>
        <time>2018-11-13T07:13:23.000Z</time>
      </trkpt>
      <trkpt lat="42.16385" lon="1.89297">
        <ele>988</ele>
        <time>2018-11-13T07:13:25.000Z</time>
      </trkpt>
      <trkpt lat="42.16384" lon="1.893">
        <ele>989</ele>
        <time>2018-11-13T07:13:28.000Z</time>
      </trkpt>
      <trkpt lat="42.16383" lon="1.89302">
        <ele>989</ele>
        <time>2018-11-13T07:13:30.000Z</time>
      </trkpt>
      <trkpt lat="42.16381" lon="1.89305">
        <ele>990.86606857143</ele>
        <time>2018-11-13T07:13:33.000Z</time>
      </trkpt>
      <trkpt lat="42.1638" lon="1.89308">
        <ele>991</ele>
        <time>2018-11-13T07:13:36.000Z</time>
      </trkpt>
      <trkpt lat="42.16379" lon="1.89311">
        <ele>991.87387854886</ele>
        <time>2018-11-13T07:13:39.000Z</time>
      </trkpt>
      <trkpt lat="42.16377" lon="1.89314">
        <ele>992</ele>
        <time>2018-11-13T07:13:42.000Z</time>
      </trkpt>
      <trkpt lat="42.16376" lon="1.89316">
        <ele>993</ele>
        <time>2018-11-13T07:13:44.000Z</time>
      </trkpt>
      <trkpt lat="42.16375" lon="1.89319">
        <ele>993</ele>
        <time>2018-11-13T07:13:47.000Z</time>
      </trkpt>
      <trkpt lat="42.16375" lon="1.89322">
        <ele>994</ele>
        <time>2018-11-13T07:13:49.000Z</time>
      </trkpt>
      <trkpt lat="42.16375" lon="1.89325">
        <ele>994</ele>
        <time>2018-11-13T07:13:52.000Z</time>
      </trkpt>
      <trkpt lat="42.16374" lon="1.89327">
        <ele>994</ele>
        <time>2018-11-13T07:13:54.000Z</time>
      </trkpt>
      <trkpt lat="42.16374" lon="1.89331">
        <ele>994.96702956649</ele>
        <time>2018-11-13T07:13:56.000Z</time>
      </trkpt>
      <trkpt lat="42.16373" lon="1.89333">
        <ele>995</ele>
        <time>2018-11-13T07:13:58.000Z</time>
      </trkpt>
      <trkpt lat="42.16373" lon="1.89335">
        <ele>995.9699968</ele>
        <time>2018-11-13T07:14:00.000Z</time>
      </trkpt>
      <trkpt lat="42.16372" lon="1.89338">
        <ele>996.71773935484</ele>
        <time>2018-11-13T07:14:02.000Z</time>
      </trkpt>
      <trkpt lat="42.16371" lon="1.8934">
        <ele>997</ele>
        <time>2018-11-13T07:14:04.000Z</time>
      </trkpt>
      <trkpt lat="42.1637" lon="1.89343">
        <ele>997</ele>
        <time>2018-11-13T07:14:07.000Z</time>
      </trkpt>
      <trkpt lat="42.16369" lon="1.89345">
        <ele>997</ele>
        <time>2018-11-13T07:14:09.000Z</time>
      </trkpt>
      <trkpt lat="42.16367" lon="1.89347">
        <ele>998</ele>
        <time>2018-11-13T07:14:12.000Z</time>
      </trkpt>
      <trkpt lat="42.16365" lon="1.89349">
        <ele>999</ele>
        <time>2018-11-13T07:14:14.000Z</time>
      </trkpt>
      <trkpt lat="42.16364" lon="1.89351">
        <ele>999</ele>
        <time>2018-11-13T07:14:16.000Z</time>
      </trkpt>
      <trkpt lat="42.16362" lon="1.89353">
        <ele>999</ele>
        <time>2018-11-13T07:14:18.000Z</time>
      </trkpt>
      <trkpt lat="42.16361" lon="1.89355">
        <ele>1000</ele>
        <time>2018-11-13T07:14:20.000Z</time>
      </trkpt>
      <trkpt lat="42.1636" lon="1.89357">
        <ele>1000</ele>
        <time>2018-11-13T07:14:22.000Z</time>
      </trkpt>
      <trkpt lat="42.16358" lon="1.89359">
        <ele>1000</ele>
        <time>2018-11-13T07:14:24.000Z</time>
      </trkpt>
      <trkpt lat="42.16357" lon="1.89361">
        <ele>1001</ele>
        <time>2018-11-13T07:14:26.000Z</time>
      </trkpt>
      <trkpt lat="42.16355" lon="1.89363">
        <ele>1001</ele>
        <time>2018-11-13T07:14:28.000Z</time>
      </trkpt>
      <trkpt lat="42.16353" lon="1.89365">
        <ele>1001.8981451852</ele>
        <time>2018-11-13T07:14:30.000Z</time>
      </trkpt>
      <trkpt lat="42.16352" lon="1.89368">
        <ele>1002</ele>
        <time>2018-11-13T07:14:32.000Z</time>
      </trkpt>
      <trkpt lat="42.16351" lon="1.89371">
        <ele>1002</ele>
        <time>2018-11-13T07:14:34.000Z</time>
      </trkpt>
      <trkpt lat="42.16351" lon="1.89375">
        <ele>1002</ele>
        <time>2018-11-13T07:14:36.000Z</time>
      </trkpt>
      <trkpt lat="42.16351" lon="1.89379">
        <ele>1002</ele>
        <time>2018-11-13T07:14:38.000Z</time>
      </trkpt>
      <trkpt lat="42.16351" lon="1.89383">
        <ele>1002</ele>
        <time>2018-11-13T07:14:40.000Z</time>
      </trkpt>
      <trkpt lat="42.16351" lon="1.89387">
        <ele>1002</ele>
        <time>2018-11-13T07:14:42.000Z</time>
      </trkpt>
      <trkpt lat="42.16351" lon="1.89391">
        <ele>1002</ele>
        <time>2018-11-13T07:14:44.000Z</time>
      </trkpt>
      <trkpt lat="42.16352" lon="1.89395">
        <ele>1002.9238092916</ele>
        <time>2018-11-13T07:14:46.000Z</time>
      </trkpt>
      <trkpt lat="42.16353" lon="1.89399">
        <ele>1003</ele>
        <time>2018-11-13T07:14:48.000Z</time>
      </trkpt>
      <trkpt lat="42.16353" lon="1.89403">
        <ele>1003</ele>
        <time>2018-11-13T07:14:50.000Z</time>
      </trkpt>
      <trkpt lat="42.16352" lon="1.89407">
        <ele>1003</ele>
        <time>2018-11-13T07:14:52.000Z</time>
      </trkpt>
      <trkpt lat="42.16352" lon="1.89411">
        <ele>1003</ele>
        <time>2018-11-13T07:14:54.000Z</time>
      </trkpt>
      <trkpt lat="42.16351" lon="1.89414">
        <ele>1003</ele>
        <time>2018-11-13T07:14:56.000Z</time>
      </trkpt>
      <trkpt lat="42.16351" lon="1.89418">
        <ele>1004</ele>
        <time>2018-11-13T07:14:58.000Z</time>
      </trkpt>
      <trkpt lat="42.16351" lon="1.89421">
        <ele>1004</ele>
        <time>2018-11-13T07:15:00.000Z</time>
      </trkpt>
      <trkpt lat="42.16351" lon="1.89425">
        <ele>1004</ele>
        <time>2018-11-13T07:15:02.000Z</time>
      </trkpt>
      <trkpt lat="42.1635" lon="1.89428">
        <ele>1004</ele>
        <time>2018-11-13T07:15:04.000Z</time>
      </trkpt>
      <trkpt lat="42.16351" lon="1.89431">
        <ele>1005</ele>
        <time>2018-11-13T07:15:06.000Z</time>
      </trkpt>
      <trkpt lat="42.1635" lon="1.89434">
        <ele>1005</ele>
        <time>2018-11-13T07:15:10.000Z</time>
      </trkpt>
      <trkpt lat="42.16351" lon="1.89437">
        <ele>1006</ele>
        <time>2018-11-13T07:15:12.000Z</time>
      </trkpt>
      <trkpt lat="42.16351" lon="1.8944">
        <ele>1006</ele>
        <time>2018-11-13T07:15:14.000Z</time>
      </trkpt>
      <trkpt lat="42.16351" lon="1.89443">
        <ele>1006</ele>
        <time>2018-11-13T07:15:16.000Z</time>
      </trkpt>
      <trkpt lat="42.16351" lon="1.89446">
        <ele>1006</ele>
        <time>2018-11-13T07:15:18.000Z</time>
      </trkpt>
      <trkpt lat="42.1635" lon="1.89451">
        <ele>1006.9065363543</ele>
        <time>2018-11-13T07:15:21.000Z</time>
      </trkpt>
      <trkpt lat="42.1635" lon="1.89454">
        <ele>1007</ele>
        <time>2018-11-13T07:15:23.000Z</time>
      </trkpt>
      <trkpt lat="42.16349" lon="1.89456">
        <ele>1007</ele>
        <time>2018-11-13T07:15:25.000Z</time>
      </trkpt>
      <trkpt lat="42.16349" lon="1.8946">
        <ele>1008</ele>
        <time>2018-11-13T07:15:27.000Z</time>
      </trkpt>
      <trkpt lat="42.1635" lon="1.89466">
        <ele>1008</ele>
        <time>2018-11-13T07:15:30.000Z</time>
      </trkpt>
      <trkpt lat="42.1635" lon="1.89469">
        <ele>1009</ele>
        <time>2018-11-13T07:15:32.000Z</time>
      </trkpt>
      <trkpt lat="42.1635" lon="1.89472">
        <ele>1010</ele>
        <time>2018-11-13T07:15:35.000Z</time>
      </trkpt>
      <trkpt lat="42.16349" lon="1.89475">
        <ele>1011</ele>
        <time>2018-11-13T07:15:37.000Z</time>
      </trkpt>
      <trkpt lat="42.16348" lon="1.89478">
        <ele>1011</ele>
        <time>2018-11-13T07:15:40.000Z</time>
      </trkpt>
      <trkpt lat="42.16347" lon="1.89481">
        <ele>1012</ele>
        <time>2018-11-13T07:15:42.000Z</time>
      </trkpt>
      <trkpt lat="42.16346" lon="1.89484">
        <ele>1012</ele>
        <time>2018-11-13T07:15:45.000Z</time>
      </trkpt>
      <trkpt lat="42.16345" lon="1.89485">
        <ele>1013</ele>
        <time>2018-11-13T07:15:47.000Z</time>
      </trkpt>
      <trkpt lat="42.16343" lon="1.89488">
        <ele>1013</ele>
        <time>2018-11-13T07:15:50.000Z</time>
      </trkpt>
      <trkpt lat="42.16341" lon="1.8949">
        <ele>1014.8818204033</ele>
        <time>2018-11-13T07:15:52.000Z</time>
      </trkpt>
      <trkpt lat="42.1634" lon="1.89492">
        <ele>1015</ele>
        <time>2018-11-13T07:15:54.000Z</time>
      </trkpt>
      <trkpt lat="42.16338" lon="1.89493">
        <ele>1015</ele>
        <time>2018-11-13T07:15:56.000Z</time>
      </trkpt>
      <trkpt lat="42.16336" lon="1.89495">
        <ele>1015</ele>
        <time>2018-11-13T07:15:59.000Z</time>
      </trkpt>
      <trkpt lat="42.16334" lon="1.89497">
        <ele>1015</ele>
        <time>2018-11-13T07:16:02.000Z</time>
      </trkpt>
      <trkpt lat="42.16332" lon="1.89498">
        <ele>1015</ele>
        <time>2018-11-13T07:16:04.000Z</time>
      </trkpt>
      <trkpt lat="42.16331" lon="1.895">
        <ele>1015.9687466667</ele>
        <time>2018-11-13T07:16:06.000Z</time>
      </trkpt>
      <trkpt lat="42.1633" lon="1.89503">
        <ele>1016</ele>
        <time>2018-11-13T07:16:09.000Z</time>
      </trkpt>
      <trkpt lat="42.16328" lon="1.89506">
        <ele>1016</ele>
        <time>2018-11-13T07:16:12.000Z</time>
      </trkpt>
      <trkpt lat="42.16328" lon="1.89509">
        <ele>1017</ele>
        <time>2018-11-13T07:16:14.000Z</time>
      </trkpt>
      <trkpt lat="42.16328" lon="1.89512">
        <ele>1018</ele>
        <time>2018-11-13T07:16:16.000Z</time>
      </trkpt>
      <trkpt lat="42.16329" lon="1.89514">
        <ele>1018</ele>
        <time>2018-11-13T07:16:18.000Z</time>
      </trkpt>
      <trkpt lat="42.16329" lon="1.89517">
        <ele>1018</ele>
        <time>2018-11-13T07:16:20.000Z</time>
      </trkpt>
      <trkpt lat="42.16329" lon="1.89519">
        <ele>1019.9680819194</ele>
        <time>2018-11-13T07:16:23.000Z</time>
      </trkpt>
      <trkpt lat="42.1633" lon="1.89523">
        <ele>1020</ele>
        <time>2018-11-13T07:16:26.000Z</time>
      </trkpt>
      <trkpt lat="42.16329" lon="1.89525">
        <ele>1020.9687466667</ele>
        <time>2018-11-13T07:16:29.000Z</time>
      </trkpt>
      <trkpt lat="42.1633" lon="1.89528">
        <ele>1021</ele>
        <time>2018-11-13T07:16:32.000Z</time>
      </trkpt>
      <trkpt lat="42.1633" lon="1.89531">
        <ele>1022</ele>
        <time>2018-11-13T07:16:35.000Z</time>
      </trkpt>
      <trkpt lat="42.1633" lon="1.89534">
        <ele>1023</ele>
        <time>2018-11-13T07:16:38.000Z</time>
      </trkpt>
      <trkpt lat="42.16329" lon="1.89537">
        <ele>1023.9509832219</ele>
        <time>2018-11-13T07:16:41.000Z</time>
      </trkpt>
      <trkpt lat="42.16329" lon="1.8954">
        <ele>1024</ele>
        <time>2018-11-13T07:16:44.000Z</time>
      </trkpt>
      <trkpt lat="42.16329" lon="1.89543">
        <ele>1024</ele>
        <time>2018-11-13T07:16:47.000Z</time>
      </trkpt>
      <trkpt lat="42.16329" lon="1.89545">
        <ele>1024.9065471989</ele>
        <time>2018-11-13T07:16:50.000Z</time>
      </trkpt>
      <trkpt lat="42.1633" lon="1.89548">
        <ele>1026</ele>
        <time>2018-11-13T07:16:53.000Z</time>
      </trkpt>
      <trkpt lat="42.1633" lon="1.89551">
        <ele>1026</ele>
        <time>2018-11-13T07:16:59.000Z</time>
      </trkpt>
      <trkpt lat="42.16332" lon="1.89552">
        <ele>1028</ele>
        <time>2018-11-13T07:17:03.000Z</time>
      </trkpt>
      <trkpt lat="42.16334" lon="1.89553">
        <ele>1029</ele>
        <time>2018-11-13T07:17:07.000Z</time>
      </trkpt>
      <trkpt lat="42.16335" lon="1.89555">
        <ele>1031</ele>
        <time>2018-11-13T07:17:12.000Z</time>
      </trkpt>
      <trkpt lat="42.16334" lon="1.89557">
        <ele>1032</ele>
        <time>2018-11-13T07:17:17.000Z</time>
      </trkpt>
      <trkpt lat="42.16334" lon="1.8956">
        <ele>1033</ele>
        <time>2018-11-13T07:17:21.000Z</time>
      </trkpt>
      <trkpt lat="42.16335" lon="1.89563">
        <ele>1033</ele>
        <time>2018-11-13T07:17:24.000Z</time>
      </trkpt>
      <trkpt lat="42.16337" lon="1.89565">
        <ele>1032</ele>
        <time>2018-11-13T07:17:27.000Z</time>
      </trkpt>
      <trkpt lat="42.16338" lon="1.89567">
        <ele>1032.9699968</ele>
        <time>2018-11-13T07:17:29.000Z</time>
      </trkpt>
      <trkpt lat="42.16339" lon="1.89569">
        <ele>1033</ele>
        <time>2018-11-13T07:17:31.000Z</time>
      </trkpt>
      <trkpt lat="42.16341" lon="1.89571">
        <ele>1033</ele>
        <time>2018-11-13T07:17:33.000Z</time>
      </trkpt>
      <trkpt lat="42.16342" lon="1.89574">
        <ele>1032.0319180806</ele>
        <time>2018-11-13T07:17:35.000Z</time>
      </trkpt>
      <trkpt lat="42.16343" lon="1.89576">
        <ele>1033</ele>
        <time>2018-11-13T07:17:37.000Z</time>
      </trkpt>
      <trkpt lat="42.16344" lon="1.89578">
        <ele>1034</ele>
        <time>2018-11-13T07:17:39.000Z</time>
      </trkpt>
      <trkpt lat="42.16345" lon="1.8958">
        <ele>1034</ele>
        <time>2018-11-13T07:17:41.000Z</time>
      </trkpt>
      <trkpt lat="42.16345" lon="1.89583">
        <ele>1034</ele>
        <time>2018-11-13T07:17:43.000Z</time>
      </trkpt>
      <trkpt lat="42.16346" lon="1.89586">
        <ele>1034</ele>
        <time>2018-11-13T07:17:45.000Z</time>
      </trkpt>
      <trkpt lat="42.16346" lon="1.89588">
        <ele>1035</ele>
        <time>2018-11-13T07:17:47.000Z</time>
      </trkpt>
      <trkpt lat="42.16348" lon="1.8959">
        <ele>1035.7348460606</ele>
        <time>2018-11-13T07:17:50.000Z</time>
      </trkpt>
      <trkpt lat="42.1635" lon="1.89592">
        <ele>1036.9150968459</ele>
        <time>2018-11-13T07:17:53.000Z</time>
      </trkpt>
      <trkpt lat="42.16352" lon="1.89594">
        <ele>1037.9238092916</ele>
        <time>2018-11-13T07:17:56.000Z</time>
      </trkpt>
      <trkpt lat="42.16354" lon="1.89596">
        <ele>1038</ele>
        <time>2018-11-13T07:17:59.000Z</time>
      </trkpt>
      <trkpt lat="42.16356" lon="1.89597">
        <ele>1039</ele>
        <time>2018-11-13T07:18:02.000Z</time>
      </trkpt>
      <trkpt lat="42.16358" lon="1.89597">
        <ele>1040</ele>
        <time>2018-11-13T07:18:05.000Z</time>
      </trkpt>
      <trkpt lat="42.1636" lon="1.89598">
        <ele>1041</ele>
        <time>2018-11-13T07:18:08.000Z</time>
      </trkpt>
      <trkpt lat="42.16361" lon="1.896">
        <ele>1042</ele>
        <time>2018-11-13T07:18:11.000Z</time>
      </trkpt>
      <trkpt lat="42.16363" lon="1.89601">
        <ele>1042.9699968</ele>
        <time>2018-11-13T07:18:14.000Z</time>
      </trkpt>
      <trkpt lat="42.16365" lon="1.89603">
        <ele>1043</ele>
        <time>2018-11-13T07:18:16.000Z</time>
      </trkpt>
      <trkpt lat="42.16367" lon="1.89605">
        <ele>1043</ele>
        <time>2018-11-13T07:18:18.000Z</time>
      </trkpt>
      <trkpt lat="42.16368" lon="1.89608">
        <ele>1042</ele>
        <time>2018-11-13T07:18:23.000Z</time>
      </trkpt>
      <trkpt lat="42.16369" lon="1.89611">
        <ele>1043</ele>
        <time>2018-11-13T07:18:25.000Z</time>
      </trkpt>
      <trkpt lat="42.16371" lon="1.89614">
        <ele>1044</ele>
        <time>2018-11-13T07:18:27.000Z</time>
      </trkpt>
      <trkpt lat="42.16372" lon="1.89616">
        <ele>1044.6372557632</ele>
        <time>2018-11-13T07:18:29.000Z</time>
      </trkpt>
      <trkpt lat="42.16373" lon="1.89618">
        <ele>1045</ele>
        <time>2018-11-13T07:18:31.000Z</time>
      </trkpt>
      <trkpt lat="42.16375" lon="1.8962">
        <ele>1045</ele>
        <time>2018-11-13T07:18:33.000Z</time>
      </trkpt>
      <trkpt lat="42.16376" lon="1.89621">
        <ele>1045</ele>
        <time>2018-11-13T07:18:35.000Z</time>
      </trkpt>
      <trkpt lat="42.16377" lon="1.89623">
        <ele>1045.9666633482</ele>
        <time>2018-11-13T07:18:37.000Z</time>
      </trkpt>
      <trkpt lat="42.16379" lon="1.89626">
        <ele>1046</ele>
        <time>2018-11-13T07:18:40.000Z</time>
      </trkpt>
      <trkpt lat="42.1638" lon="1.89628">
        <ele>1046</ele>
        <time>2018-11-13T07:18:42.000Z</time>
      </trkpt>
      <trkpt lat="42.16382" lon="1.8963">
        <ele>1046.9065471989</ele>
        <time>2018-11-13T07:18:44.000Z</time>
      </trkpt>
      <trkpt lat="42.16383" lon="1.89631">
        <ele>1048</ele>
        <time>2018-11-13T07:18:46.000Z</time>
      </trkpt>
      <trkpt lat="42.16386" lon="1.89633">
        <ele>1048</ele>
        <time>2018-11-13T07:18:49.000Z</time>
      </trkpt>
      <trkpt lat="42.16388" lon="1.89634">
        <ele>1049</ele>
        <time>2018-11-13T07:18:51.000Z</time>
      </trkpt>
      <trkpt lat="42.16389" lon="1.89636">
        <ele>1049</ele>
        <time>2018-11-13T07:18:53.000Z</time>
      </trkpt>
      <trkpt lat="42.16391" lon="1.89638">
        <ele>1050</ele>
        <time>2018-11-13T07:18:56.000Z</time>
      </trkpt>
      <trkpt lat="42.16392" lon="1.8964">
        <ele>1050</ele>
        <time>2018-11-13T07:18:59.000Z</time>
      </trkpt>
      <trkpt lat="42.16395" lon="1.89642">
        <ele>1051</ele>
        <time>2018-11-13T07:19:02.000Z</time>
      </trkpt>
      <trkpt lat="42.16397" lon="1.89644">
        <ele>1052</ele>
        <time>2018-11-13T07:19:05.000Z</time>
      </trkpt>
      <trkpt lat="42.16398" lon="1.89645">
        <ele>1053</ele>
        <time>2018-11-13T07:19:08.000Z</time>
      </trkpt>
      <trkpt lat="42.164" lon="1.89647">
        <ele>1053</ele>
        <time>2018-11-13T07:19:11.000Z</time>
      </trkpt>
      <trkpt lat="42.16402" lon="1.89648">
        <ele>1053</ele>
        <time>2018-11-13T07:19:14.000Z</time>
      </trkpt>
      <trkpt lat="42.16404" lon="1.8965">
        <ele>1054</ele>
        <time>2018-11-13T07:19:17.000Z</time>
      </trkpt>
      <trkpt lat="42.16405" lon="1.89652">
        <ele>1054</ele>
        <time>2018-11-13T07:19:19.000Z</time>
      </trkpt>
      <trkpt lat="42.16407" lon="1.89654">
        <ele>1055</ele>
        <time>2018-11-13T07:19:22.000Z</time>
      </trkpt>
      <trkpt lat="42.16412" lon="1.89664">
        <ele>1058</ele>
        <time>2018-11-13T07:19:33.000Z</time>
      </trkpt>
      <trkpt lat="42.16419" lon="1.89672">
        <ele>1061</ele>
        <time>2018-11-13T07:19:48.000Z</time>
      </trkpt>
      <trkpt lat="42.16422" lon="1.89675">
        <ele>1061.9659054546</ele>
        <time>2018-11-13T07:19:51.000Z</time>
      </trkpt>
      <trkpt lat="42.16424" lon="1.89676">
        <ele>1062</ele>
        <time>2018-11-13T07:19:53.000Z</time>
      </trkpt>
      <trkpt lat="42.16427" lon="1.89687">
        <ele>1064</ele>
        <time>2018-11-13T07:20:03.000Z</time>
      </trkpt>
      <trkpt lat="42.16429" lon="1.89688">
        <ele>1065</ele>
        <time>2018-11-13T07:20:07.000Z</time>
      </trkpt>
      <trkpt lat="42.16431" lon="1.89691">
        <ele>1066</ele>
        <time>2018-11-13T07:20:12.000Z</time>
      </trkpt>
      <trkpt lat="42.16434" lon="1.89695">
        <ele>1067</ele>
        <time>2018-11-13T07:20:17.000Z</time>
      </trkpt>
      <trkpt lat="42.16438" lon="1.89706">
        <ele>1069.9150968459</ele>
        <time>2018-11-13T07:20:31.000Z</time>
      </trkpt>
      <trkpt lat="42.16439" lon="1.89708">
        <ele>1070</ele>
        <time>2018-11-13T07:20:34.000Z</time>
      </trkpt>
      <trkpt lat="42.16441" lon="1.89711">
        <ele>1071</ele>
        <time>2018-11-13T07:20:37.000Z</time>
      </trkpt>
      <trkpt lat="42.16447" lon="1.8972">
        <ele>1073</ele>
        <time>2018-11-13T07:20:50.000Z</time>
      </trkpt>
      <trkpt lat="42.16453" lon="1.89729">
        <ele>1076</ele>
        <time>2018-11-13T07:21:04.000Z</time>
      </trkpt>
      <trkpt lat="42.16455" lon="1.89735">
        <ele>1078</ele>
        <time>2018-11-13T07:21:10.000Z</time>
      </trkpt>
      <trkpt lat="42.16456" lon="1.89738">
        <ele>1079</ele>
        <time>2018-11-13T07:21:14.000Z</time>
      </trkpt>
      <trkpt lat="42.16459" lon="1.89742">
        <ele>1081</ele>
        <time>2018-11-13T07:21:21.000Z</time>
      </trkpt>
      <trkpt lat="42.1646" lon="1.89745">
        <ele>1082</ele>
        <time>2018-11-13T07:21:23.000Z</time>
      </trkpt>
      <trkpt lat="42.16461" lon="1.89748">
        <ele>1083</ele>
        <time>2018-11-13T07:21:26.000Z</time>
      </trkpt>
      <trkpt lat="42.16463" lon="1.8975">
        <ele>1083</ele>
        <time>2018-11-13T07:21:30.000Z</time>
      </trkpt>
      <trkpt lat="42.16466" lon="1.89753">
        <ele>1084</ele>
        <time>2018-11-13T07:21:35.000Z</time>
      </trkpt>
      <trkpt lat="42.16467" lon="1.89757">
        <ele>1084.9428576653</ele>
        <time>2018-11-13T07:21:39.000Z</time>
      </trkpt>
      <trkpt lat="42.16469" lon="1.89759">
        <ele>1085.9699968</ele>
        <time>2018-11-13T07:21:43.000Z</time>
      </trkpt>
      <trkpt lat="42.16476" lon="1.89768">
        <ele>1089</ele>
        <time>2018-11-13T07:21:57.000Z</time>
      </trkpt>
      <trkpt lat="42.16477" lon="1.8977">
        <ele>1089</ele>
        <time>2018-11-13T07:21:59.000Z</time>
      </trkpt>
      <trkpt lat="42.16478" lon="1.89774">
        <ele>1091</ele>
        <time>2018-11-13T07:22:04.000Z</time>
      </trkpt>
      <trkpt lat="42.16479" lon="1.89776">
        <ele>1091</ele>
        <time>2018-11-13T07:22:07.000Z</time>
      </trkpt>
      <trkpt lat="42.1648" lon="1.89778">
        <ele>1092</ele>
        <time>2018-11-13T07:22:10.000Z</time>
      </trkpt>
      <trkpt lat="42.16481" lon="1.89781">
        <ele>1094</ele>
        <time>2018-11-13T07:22:16.000Z</time>
      </trkpt>
      <trkpt lat="42.16482" lon="1.89784">
        <ele>1094.9673878261</ele>
        <time>2018-11-13T07:22:20.000Z</time>
      </trkpt>
      <trkpt lat="42.16483" lon="1.89786">
        <ele>1095</ele>
        <time>2018-11-13T07:22:23.000Z</time>
      </trkpt>
      <trkpt lat="42.16487" lon="1.89794">
        <ele>1097</ele>
        <time>2018-11-13T07:22:31.000Z</time>
      </trkpt>
      <trkpt lat="42.16487" lon="1.89797">
        <ele>1097.9238092916</ele>
        <time>2018-11-13T07:22:34.000Z</time>
      </trkpt>
      <trkpt lat="42.16487" lon="1.898">
        <ele>1098</ele>
        <time>2018-11-13T07:22:37.000Z</time>
      </trkpt>
      <trkpt lat="42.16487" lon="1.89803">
        <ele>1099</ele>
        <time>2018-11-13T07:22:41.000Z</time>
      </trkpt>
      <trkpt lat="42.16488" lon="1.89806">
        <ele>1100</ele>
        <time>2018-11-13T07:22:44.000Z</time>
      </trkpt>
      <trkpt lat="42.16487" lon="1.89808">
        <ele>1100</ele>
        <time>2018-11-13T07:22:49.000Z</time>
      </trkpt>
      <trkpt lat="42.16485" lon="1.8981">
        <ele>1100</ele>
        <time>2018-11-13T07:22:53.000Z</time>
      </trkpt>
      <trkpt lat="42.16484" lon="1.89814">
        <ele>1100.8899079337</ele>
        <time>2018-11-13T07:22:57.000Z</time>
      </trkpt>
      <trkpt lat="42.16485" lon="1.89816">
        <ele>1102</ele>
        <time>2018-11-13T07:23:00.000Z</time>
      </trkpt>
      <trkpt lat="42.16485" lon="1.89829">
        <ele>1106.9699968</ele>
        <time>2018-11-13T07:23:18.000Z</time>
      </trkpt>
      <trkpt lat="42.16492" lon="1.89838">
        <ele>1110.4666552886</ele>
        <time>2018-11-13T07:23:33.000Z</time>
      </trkpt>
      <trkpt lat="42.16495" lon="1.8984">
        <ele>1112</ele>
        <time>2018-11-13T07:23:41.000Z</time>
      </trkpt>
      <trkpt lat="42.16499" lon="1.89839">
        <ele>1114</ele>
        <time>2018-11-13T07:23:49.000Z</time>
      </trkpt>
      <trkpt lat="42.16503" lon="1.8984">
        <ele>1116</ele>
        <time>2018-11-13T07:23:55.000Z</time>
      </trkpt>
      <trkpt lat="42.16511" lon="1.89845">
        <ele>1116.8818204033</ele>
        <time>2018-11-13T07:24:06.000Z</time>
      </trkpt>
      <trkpt lat="42.16521" lon="1.89847">
        <ele>1120</ele>
        <time>2018-11-13T07:24:21.000Z</time>
      </trkpt>
      <trkpt lat="42.16529" lon="1.89852">
        <ele>1123.9699968</ele>
        <time>2018-11-13T07:24:34.000Z</time>
      </trkpt>
      <trkpt lat="42.16539" lon="1.89857">
        <ele>1125.9558776471</ele>
        <time>2018-11-13T07:24:44.000Z</time>
      </trkpt>
      <trkpt lat="42.16543" lon="1.89868">
        <ele>1129</ele>
        <time>2018-11-13T07:24:58.000Z</time>
      </trkpt>
      <trkpt lat="42.16537" lon="1.89877">
        <ele>1131.9699968</ele>
        <time>2018-11-13T07:25:12.000Z</time>
      </trkpt>
      <trkpt lat="42.16533" lon="1.89888">
        <ele>1134</ele>
        <time>2018-11-13T07:25:24.000Z</time>
      </trkpt>
      <trkpt lat="42.16534" lon="1.89901">
        <ele>1137</ele>
        <time>2018-11-13T07:25:38.000Z</time>
      </trkpt>
      <trkpt lat="42.16538" lon="1.899">
        <ele>1139</ele>
        <time>2018-11-13T07:25:48.000Z</time>
      </trkpt>
      <trkpt lat="42.16542" lon="1.89905">
        <ele>1142</ele>
        <time>2018-11-13T07:26:00.000Z</time>
      </trkpt>
      <trkpt lat="42.16549" lon="1.89903">
        <ele>1146</ele>
        <time>2018-11-13T07:26:12.000Z</time>
      </trkpt>
      <trkpt lat="42.1655" lon="1.89903">
        <ele>1146.9065471989</ele>
        <time>2018-11-13T07:26:16.000Z</time>
      </trkpt>
      <trkpt lat="42.16558" lon="1.89904">
        <ele>1149</ele>
        <time>2018-11-13T07:26:30.000Z</time>
      </trkpt>
      <trkpt lat="42.16559" lon="1.89907">
        <ele>1149.9680819194</ele>
        <time>2018-11-13T07:26:33.000Z</time>
      </trkpt>
      <trkpt lat="42.16558" lon="1.8991">
        <ele>1151</ele>
        <time>2018-11-13T07:26:36.000Z</time>
      </trkpt>
      <trkpt lat="42.16558" lon="1.89913">
        <ele>1152.7244076235</ele>
        <time>2018-11-13T07:26:42.000Z</time>
      </trkpt>
      <trkpt lat="42.16566" lon="1.89916">
        <ele>1158</ele>
        <time>2018-11-13T07:27:06.000Z</time>
      </trkpt>
      <trkpt lat="42.16569" lon="1.89918">
        <ele>1159.9680819194</ele>
        <time>2018-11-13T07:27:11.000Z</time>
      </trkpt>
      <trkpt lat="42.16572" lon="1.89918">
        <ele>1160</ele>
        <time>2018-11-13T07:27:15.000Z</time>
      </trkpt>
      <trkpt lat="42.16581" lon="1.8992">
        <ele>1163</ele>
        <time>2018-11-13T07:27:28.000Z</time>
      </trkpt>
      <trkpt lat="42.1659" lon="1.89927">
        <ele>1165</ele>
        <time>2018-11-13T07:27:42.000Z</time>
      </trkpt>
      <trkpt lat="42.16594" lon="1.89931">
        <ele>1168</ele>
        <time>2018-11-13T07:27:51.000Z</time>
      </trkpt>
      <trkpt lat="42.16601" lon="1.89935">
        <ele>1171</ele>
        <time>2018-11-13T07:28:03.000Z</time>
      </trkpt>
      <trkpt lat="42.16607" lon="1.89926">
        <ele>1173</ele>
        <time>2018-11-13T07:28:15.000Z</time>
      </trkpt>
      <trkpt lat="42.16606" lon="1.89921">
        <ele>1173</ele>
        <time>2018-11-13T07:28:19.000Z</time>
      </trkpt>
      <trkpt lat="42.16606" lon="1.89917">
        <ele>1174</ele>
        <time>2018-11-13T07:28:22.000Z</time>
      </trkpt>
      <trkpt lat="42.16607" lon="1.89914">
        <ele>1174.9659054546</ele>
        <time>2018-11-13T07:28:24.000Z</time>
      </trkpt>
      <trkpt lat="42.16607" lon="1.8991">
        <ele>1175.9699968</ele>
        <time>2018-11-13T07:28:28.000Z</time>
      </trkpt>
      <trkpt lat="42.16608" lon="1.89906">
        <ele>1176.8738684717</ele>
        <time>2018-11-13T07:28:32.000Z</time>
      </trkpt>
      <trkpt lat="42.16609" lon="1.89904">
        <ele>1177</ele>
        <time>2018-11-13T07:28:34.000Z</time>
      </trkpt>
      <trkpt lat="42.1661" lon="1.899">
        <ele>1177</ele>
        <time>2018-11-13T07:28:37.000Z</time>
      </trkpt>
      <trkpt lat="42.16609" lon="1.89897">
        <ele>1178</ele>
        <time>2018-11-13T07:28:40.000Z</time>
      </trkpt>
      <trkpt lat="42.16609" lon="1.89894">
        <ele>1178</ele>
        <time>2018-11-13T07:28:43.000Z</time>
      </trkpt>
      <trkpt lat="42.16609" lon="1.89891">
        <ele>1178</ele>
        <time>2018-11-13T07:28:45.000Z</time>
      </trkpt>
      <trkpt lat="42.16611" lon="1.89888">
        <ele>1179</ele>
        <time>2018-11-13T07:28:50.000Z</time>
      </trkpt>
      <trkpt lat="42.16611" lon="1.89886">
        <ele>1180.9673878261</ele>
        <time>2018-11-13T07:28:52.000Z</time>
      </trkpt>
      <trkpt lat="42.16613" lon="1.89883">
        <ele>1181</ele>
        <time>2018-11-13T07:28:54.000Z</time>
      </trkpt>
      <trkpt lat="42.16614" lon="1.89881">
        <ele>1181</ele>
        <time>2018-11-13T07:28:57.000Z</time>
      </trkpt>
      <trkpt lat="42.16615" lon="1.89878">
        <ele>1181.9699968</ele>
        <time>2018-11-13T07:29:00.000Z</time>
      </trkpt>
      <trkpt lat="42.16617" lon="1.89878">
        <ele>1183</ele>
        <time>2018-11-13T07:29:03.000Z</time>
      </trkpt>
      <trkpt lat="42.16618" lon="1.89881">
        <ele>1185</ele>
        <time>2018-11-13T07:29:12.000Z</time>
      </trkpt>
      <trkpt lat="42.16618" lon="1.89883">
        <ele>1186.9420287166</ele>
        <time>2018-11-13T07:29:15.000Z</time>
      </trkpt>
      <trkpt lat="42.16619" lon="1.89885">
        <ele>1188</ele>
        <time>2018-11-13T07:29:19.000Z</time>
      </trkpt>
      <trkpt lat="42.16621" lon="1.89887">
        <ele>1188</ele>
        <time>2018-11-13T07:29:23.000Z</time>
      </trkpt>
      <trkpt lat="42.16622" lon="1.8989">
        <ele>1188.9680819194</ele>
        <time>2018-11-13T07:29:27.000Z</time>
      </trkpt>
      <trkpt lat="42.16623" lon="1.89892">
        <ele>1190.9238092916</ele>
        <time>2018-11-13T07:29:32.000Z</time>
      </trkpt>
      <trkpt lat="42.16625" lon="1.8989">
        <ele>1192</ele>
        <time>2018-11-13T07:29:40.000Z</time>
      </trkpt>
      <trkpt lat="42.16627" lon="1.89889">
        <ele>1193.9699968</ele>
        <time>2018-11-13T07:29:44.000Z</time>
      </trkpt>
      <trkpt lat="42.16629" lon="1.89887">
        <ele>1194</ele>
        <time>2018-11-13T07:29:47.000Z</time>
      </trkpt>
      <trkpt lat="42.1663" lon="1.89889">
        <ele>1194.9065363543</ele>
        <time>2018-11-13T07:29:55.000Z</time>
      </trkpt>
      <trkpt lat="42.16631" lon="1.89892">
        <ele>1196.9680819194</ele>
        <time>2018-11-13T07:29:59.000Z</time>
      </trkpt>
      <trkpt lat="42.16632" lon="1.89893">
        <ele>1197</ele>
        <time>2018-11-13T07:30:03.000Z</time>
      </trkpt>
      <trkpt lat="42.16634" lon="1.89896">
        <ele>1198.9558776471</ele>
        <time>2018-11-13T07:30:07.000Z</time>
      </trkpt>
      <trkpt lat="42.16634" lon="1.89898">
        <ele>1199.9680819194</ele>
        <time>2018-11-13T07:30:10.000Z</time>
      </trkpt>
      <trkpt lat="42.16635" lon="1.89901">
        <ele>1200</ele>
        <time>2018-11-13T07:30:13.000Z</time>
      </trkpt>
      <trkpt lat="42.16635" lon="1.89905">
        <ele>1201</ele>
        <time>2018-11-13T07:30:16.000Z</time>
      </trkpt>
      <trkpt lat="42.16636" lon="1.89908">
        <ele>1201.9699968</ele>
        <time>2018-11-13T07:30:19.000Z</time>
      </trkpt>
      <trkpt lat="42.16636" lon="1.89911">
        <ele>1203</ele>
        <time>2018-11-13T07:30:24.000Z</time>
      </trkpt>
      <trkpt lat="42.16638" lon="1.89911">
        <ele>1204</ele>
        <time>2018-11-13T07:30:30.000Z</time>
      </trkpt>
      <trkpt lat="42.16639" lon="1.89913">
        <ele>1204.9065363543</ele>
        <time>2018-11-13T07:30:33.000Z</time>
      </trkpt>
      <trkpt lat="42.1664" lon="1.89916">
        <ele>1206</ele>
        <time>2018-11-13T07:30:36.000Z</time>
      </trkpt>
      <trkpt lat="42.16641" lon="1.89918">
        <ele>1206.9065363543</ele>
        <time>2018-11-13T07:30:39.000Z</time>
      </trkpt>
      <trkpt lat="42.16642" lon="1.89921">
        <ele>1207</ele>
        <time>2018-11-13T07:30:41.000Z</time>
      </trkpt>
      <trkpt lat="42.16643" lon="1.89923">
        <ele>1207.9677388276</ele>
        <time>2018-11-13T07:30:43.000Z</time>
      </trkpt>
      <trkpt lat="42.16645" lon="1.89925">
        <ele>1208</ele>
        <time>2018-11-13T07:30:46.000Z</time>
      </trkpt>
      <trkpt lat="42.16647" lon="1.89926">
        <ele>1208</ele>
        <time>2018-11-13T07:30:48.000Z</time>
      </trkpt>
      <trkpt lat="42.16649" lon="1.89928">
        <ele>1208</ele>
        <time>2018-11-13T07:30:51.000Z</time>
      </trkpt>
      <trkpt lat="42.16651" lon="1.89929">
        <ele>1208</ele>
        <time>2018-11-13T07:30:54.000Z</time>
      </trkpt>
      <trkpt lat="42.16653" lon="1.89931">
        <ele>1208</ele>
        <time>2018-11-13T07:30:57.000Z</time>
      </trkpt>
      <trkpt lat="42.16655" lon="1.89932">
        <ele>1209</ele>
        <time>2018-11-13T07:30:59.000Z</time>
      </trkpt>
      <trkpt lat="42.16656" lon="1.89934">
        <ele>1210</ele>
        <time>2018-11-13T07:31:01.000Z</time>
      </trkpt>
      <trkpt lat="42.16658" lon="1.89936">
        <ele>1211</ele>
        <time>2018-11-13T07:31:04.000Z</time>
      </trkpt>
      <trkpt lat="42.16659" lon="1.89937">
        <ele>1211</ele>
        <time>2018-11-13T07:31:06.000Z</time>
      </trkpt>
      <trkpt lat="42.16661" lon="1.89939">
        <ele>1212</ele>
        <time>2018-11-13T07:31:09.000Z</time>
      </trkpt>
      <trkpt lat="42.16663" lon="1.89941">
        <ele>1212</ele>
        <time>2018-11-13T07:31:12.000Z</time>
      </trkpt>
      <trkpt lat="42.16665" lon="1.89944">
        <ele>1214</ele>
        <time>2018-11-13T07:31:15.000Z</time>
      </trkpt>
      <trkpt lat="42.16667" lon="1.89946">
        <ele>1214</ele>
        <time>2018-11-13T07:31:18.000Z</time>
      </trkpt>
      <trkpt lat="42.16669" lon="1.89949">
        <ele>1215</ele>
        <time>2018-11-13T07:31:21.000Z</time>
      </trkpt>
      <trkpt lat="42.1667" lon="1.89951">
        <ele>1215</ele>
        <time>2018-11-13T07:31:24.000Z</time>
      </trkpt>
      <trkpt lat="42.16673" lon="1.89953">
        <ele>1215.710740392</ele>
        <time>2018-11-13T07:31:27.000Z</time>
      </trkpt>
      <trkpt lat="42.16674" lon="1.89954">
        <ele>1216</ele>
        <time>2018-11-13T07:31:30.000Z</time>
      </trkpt>
      <trkpt lat="42.16676" lon="1.89957">
        <ele>1217.9673878261</ele>
        <time>2018-11-13T07:31:34.000Z</time>
      </trkpt>
      <trkpt lat="42.16677" lon="1.89958">
        <ele>1218.9699968</ele>
        <time>2018-11-13T07:31:38.000Z</time>
      </trkpt>
      <trkpt lat="42.16679" lon="1.8996">
        <ele>1219</ele>
        <time>2018-11-13T07:31:43.000Z</time>
      </trkpt>
      <trkpt lat="42.16679" lon="1.89963">
        <ele>1221</ele>
        <time>2018-11-13T07:31:48.000Z</time>
      </trkpt>
      <trkpt lat="42.16681" lon="1.89963">
        <ele>1222</ele>
        <time>2018-11-13T07:31:53.000Z</time>
      </trkpt>
      <trkpt lat="42.16683" lon="1.89965">
        <ele>1223.9684177906</ele>
        <time>2018-11-13T07:31:59.000Z</time>
      </trkpt>
      <trkpt lat="42.16684" lon="1.89967">
        <ele>1225</ele>
        <time>2018-11-13T07:32:04.000Z</time>
      </trkpt>
      <trkpt lat="42.16686" lon="1.89968">
        <ele>1225</ele>
        <time>2018-11-13T07:32:08.000Z</time>
      </trkpt>
      <trkpt lat="42.16688" lon="1.89969">
        <ele>1226</ele>
        <time>2018-11-13T07:32:12.000Z</time>
      </trkpt>
      <trkpt lat="42.16689" lon="1.89972">
        <ele>1227</ele>
        <time>2018-11-13T07:32:15.000Z</time>
      </trkpt>
      <trkpt lat="42.16689" lon="1.89974">
        <ele>1227.9687466667</ele>
        <time>2018-11-13T07:32:18.000Z</time>
      </trkpt>
      <trkpt lat="42.1669" lon="1.89972">
        <ele>1229</ele>
        <time>2018-11-13T07:32:25.000Z</time>
      </trkpt>
      <trkpt lat="42.16693" lon="1.89971">
        <ele>1230</ele>
        <time>2018-11-13T07:32:29.000Z</time>
      </trkpt>
      <trkpt lat="42.167" lon="1.89964">
        <ele>1231</ele>
        <time>2018-11-13T07:32:40.000Z</time>
      </trkpt>
      <trkpt lat="42.167" lon="1.89961">
        <ele>1231.6021526096</ele>
        <time>2018-11-13T07:32:43.000Z</time>
      </trkpt>
      <trkpt lat="42.167" lon="1.89959">
        <ele>1232</ele>
        <time>2018-11-13T07:32:45.000Z</time>
      </trkpt>
      <trkpt lat="42.167" lon="1.89956">
        <ele>1233</ele>
        <time>2018-11-13T07:32:48.000Z</time>
      </trkpt>
      <trkpt lat="42.16702" lon="1.89949">
        <ele>1235</ele>
        <time>2018-11-13T07:32:55.000Z</time>
      </trkpt>
      <trkpt lat="42.16703" lon="1.89947">
        <ele>1235</ele>
        <time>2018-11-13T07:32:58.000Z</time>
      </trkpt>
      <trkpt lat="42.16703" lon="1.89943">
        <ele>1236</ele>
        <time>2018-11-13T07:33:02.000Z</time>
      </trkpt>
      <trkpt lat="42.16702" lon="1.8994">
        <ele>1237</ele>
        <time>2018-11-13T07:33:04.000Z</time>
      </trkpt>
      <trkpt lat="42.16701" lon="1.89938">
        <ele>1237</ele>
        <time>2018-11-13T07:33:06.000Z</time>
      </trkpt>
      <trkpt lat="42.16699" lon="1.89936">
        <ele>1237</ele>
        <time>2018-11-13T07:33:07.000Z</time>
      </trkpt>
      <trkpt lat="42.16698" lon="1.89932">
        <ele>1237.9693846897</ele>
        <time>2018-11-13T07:33:09.000Z</time>
      </trkpt>
      <trkpt lat="42.16697" lon="1.8993">
        <ele>1238</ele>
        <time>2018-11-13T07:33:11.000Z</time>
      </trkpt>
      <trkpt lat="42.16696" lon="1.89927">
        <ele>1238</ele>
        <time>2018-11-13T07:33:14.000Z</time>
      </trkpt>
      <trkpt lat="42.16696" lon="1.89924">
        <ele>1239</ele>
        <time>2018-11-13T07:33:17.000Z</time>
      </trkpt>
      <trkpt lat="42.16694" lon="1.89921">
        <ele>1240</ele>
        <time>2018-11-13T07:33:21.000Z</time>
      </trkpt>
      <trkpt lat="42.16693" lon="1.89918">
        <ele>1240</ele>
        <time>2018-11-13T07:33:23.000Z</time>
      </trkpt>
      <trkpt lat="42.16693" lon="1.89915">
        <ele>1241</ele>
        <time>2018-11-13T07:33:25.000Z</time>
      </trkpt>
      <trkpt lat="42.16695" lon="1.89913">
        <ele>1241</ele>
        <time>2018-11-13T07:33:28.000Z</time>
      </trkpt>
      <trkpt lat="42.16697" lon="1.89912">
        <ele>1241.9684177906</ele>
        <time>2018-11-13T07:33:31.000Z</time>
      </trkpt>
      <trkpt lat="42.167" lon="1.89914">
        <ele>1242</ele>
        <time>2018-11-13T07:33:34.000Z</time>
      </trkpt>
      <trkpt lat="42.16701" lon="1.89915">
        <ele>1242</ele>
        <time>2018-11-13T07:33:36.000Z</time>
      </trkpt>
      <trkpt lat="42.16702" lon="1.89917">
        <ele>1242</ele>
        <time>2018-11-13T07:33:38.000Z</time>
      </trkpt>
      <trkpt lat="42.16704" lon="1.89918">
        <ele>1242</ele>
        <time>2018-11-13T07:33:40.000Z</time>
      </trkpt>
      <trkpt lat="42.16706" lon="1.89919">
        <ele>1242</ele>
        <time>2018-11-13T07:33:42.000Z</time>
      </trkpt>
      <trkpt lat="42.16708" lon="1.8992">
        <ele>1242.9684177906</ele>
        <time>2018-11-13T07:33:44.000Z</time>
      </trkpt>
      <trkpt lat="42.1671" lon="1.89921">
        <ele>1244</ele>
        <time>2018-11-13T07:33:47.000Z</time>
      </trkpt>
      <trkpt lat="42.16712" lon="1.89923">
        <ele>1244</ele>
        <time>2018-11-13T07:33:49.000Z</time>
      </trkpt>
      <trkpt lat="42.16714" lon="1.89925">
        <ele>1244</ele>
        <time>2018-11-13T07:33:51.000Z</time>
      </trkpt>
      <trkpt lat="42.16716" lon="1.89926">
        <ele>1245</ele>
        <time>2018-11-13T07:33:53.000Z</time>
      </trkpt>
      <trkpt lat="42.16717" lon="1.89928">
        <ele>1245</ele>
        <time>2018-11-13T07:33:55.000Z</time>
      </trkpt>
      <trkpt lat="42.16718" lon="1.89931">
        <ele>1246</ele>
        <time>2018-11-13T07:33:58.000Z</time>
      </trkpt>
      <trkpt lat="42.16719" lon="1.89934">
        <ele>1246</ele>
        <time>2018-11-13T07:34:00.000Z</time>
      </trkpt>
      <trkpt lat="42.1672" lon="1.89936">
        <ele>1246</ele>
        <time>2018-11-13T07:34:02.000Z</time>
      </trkpt>
      <trkpt lat="42.16722" lon="1.89937">
        <ele>1247</ele>
        <time>2018-11-13T07:34:04.000Z</time>
      </trkpt>
      <trkpt lat="42.16723" lon="1.89939">
        <ele>1247</ele>
        <time>2018-11-13T07:34:06.000Z</time>
      </trkpt>
      <trkpt lat="42.16724" lon="1.89943">
        <ele>1247.9659054546</ele>
        <time>2018-11-13T07:34:09.000Z</time>
      </trkpt>
      <trkpt lat="42.16725" lon="1.89945">
        <ele>1248.8660685714</ele>
        <time>2018-11-13T07:34:11.000Z</time>
      </trkpt>
      <trkpt lat="42.16726" lon="1.89947">
        <ele>1249.9699968</ele>
        <time>2018-11-13T07:34:13.000Z</time>
      </trkpt>
      <trkpt lat="42.16727" lon="1.8995">
        <ele>1250</ele>
        <time>2018-11-13T07:34:15.000Z</time>
      </trkpt>
      <trkpt lat="42.16728" lon="1.89952">
        <ele>1249</ele>
        <time>2018-11-13T07:34:17.000Z</time>
      </trkpt>
      <trkpt lat="42.1673" lon="1.89955">
        <ele>1250</ele>
        <time>2018-11-13T07:34:20.000Z</time>
      </trkpt>
      <trkpt lat="42.1673" lon="1.89958">
        <ele>1250</ele>
        <time>2018-11-13T07:34:22.000Z</time>
      </trkpt>
      <trkpt lat="42.16731" lon="1.89962">
        <ele>1250</ele>
        <time>2018-11-13T07:34:24.000Z</time>
      </trkpt>
      <trkpt lat="42.16731" lon="1.89965">
        <ele>1250</ele>
        <time>2018-11-13T07:34:26.000Z</time>
      </trkpt>
      <trkpt lat="42.16731" lon="1.89967">
        <ele>1250</ele>
        <time>2018-11-13T07:34:28.000Z</time>
      </trkpt>
      <trkpt lat="42.16731" lon="1.8997">
        <ele>1251</ele>
        <time>2018-11-13T07:34:30.000Z</time>
      </trkpt>
      <trkpt lat="42.16732" lon="1.89973">
        <ele>1251</ele>
        <time>2018-11-13T07:34:32.000Z</time>
      </trkpt>
      <trkpt lat="42.16732" lon="1.89975">
        <ele>1251.9699968</ele>
        <time>2018-11-13T07:34:34.000Z</time>
      </trkpt>
      <trkpt lat="42.16733" lon="1.89978">
        <ele>1252</ele>
        <time>2018-11-13T07:34:36.000Z</time>
      </trkpt>
      <trkpt lat="42.16735" lon="1.89981">
        <ele>1252</ele>
        <time>2018-11-13T07:34:38.000Z</time>
      </trkpt>
      <trkpt lat="42.16735" lon="1.89984">
        <ele>1252</ele>
        <time>2018-11-13T07:34:41.000Z</time>
      </trkpt>
      <trkpt lat="42.16735" lon="1.89987">
        <ele>1253</ele>
        <time>2018-11-13T07:34:43.000Z</time>
      </trkpt>
      <trkpt lat="42.16735" lon="1.89991">
        <ele>1253</ele>
        <time>2018-11-13T07:34:46.000Z</time>
      </trkpt>
      <trkpt lat="42.16736" lon="1.89993">
        <ele>1254</ele>
        <time>2018-11-13T07:34:49.000Z</time>
      </trkpt>
      <trkpt lat="42.16737" lon="1.89996">
        <ele>1254</ele>
        <time>2018-11-13T07:34:52.000Z</time>
      </trkpt>
      <trkpt lat="42.16738" lon="1.89998">
        <ele>1256</ele>
        <time>2018-11-13T07:34:57.000Z</time>
      </trkpt>
      <trkpt lat="42.1674" lon="1.9">
        <ele>1256.9651128178</ele>
        <time>2018-11-13T07:35:00.000Z</time>
      </trkpt>
      <trkpt lat="42.16741" lon="1.90002">
        <ele>1257</ele>
        <time>2018-11-13T07:35:03.000Z</time>
      </trkpt>
      <trkpt lat="42.16742" lon="1.90005">
        <ele>1258</ele>
        <time>2018-11-13T07:35:06.000Z</time>
      </trkpt>
      <trkpt lat="42.16744" lon="1.90007">
        <ele>1259</ele>
        <time>2018-11-13T07:35:09.000Z</time>
      </trkpt>
      <trkpt lat="42.16745" lon="1.9001">
        <ele>1259</ele>
        <time>2018-11-13T07:35:12.000Z</time>
      </trkpt>
      <trkpt lat="42.16745" lon="1.90013">
        <ele>1260</ele>
        <time>2018-11-13T07:35:15.000Z</time>
      </trkpt>
      <trkpt lat="42.16746" lon="1.90016">
        <ele>1260</ele>
        <time>2018-11-13T07:35:18.000Z</time>
      </trkpt>
      <trkpt lat="42.16747" lon="1.90018">
        <ele>1259.0312533333</ele>
        <time>2018-11-13T07:35:20.000Z</time>
      </trkpt>
      <trkpt lat="42.16749" lon="1.90021">
        <ele>1260</ele>
        <time>2018-11-13T07:35:22.000Z</time>
      </trkpt>
      <trkpt lat="42.1675" lon="1.90023">
        <ele>1260.8899079337</ele>
        <time>2018-11-13T07:35:24.000Z</time>
      </trkpt>
      <trkpt lat="42.16751" lon="1.90026">
        <ele>1261.8981451852</ele>
        <time>2018-11-13T07:35:27.000Z</time>
      </trkpt>
      <trkpt lat="42.16752" lon="1.90028">
        <ele>1263</ele>
        <time>2018-11-13T07:35:30.000Z</time>
      </trkpt>
      <trkpt lat="42.16753" lon="1.90032">
        <ele>1264</ele>
        <time>2018-11-13T07:35:34.000Z</time>
      </trkpt>
      <trkpt lat="42.16753" lon="1.90034">
        <ele>1264</ele>
        <time>2018-11-13T07:35:37.000Z</time>
      </trkpt>
      <trkpt lat="42.16753" lon="1.90037">
        <ele>1265</ele>
        <time>2018-11-13T07:35:41.000Z</time>
      </trkpt>
      <trkpt lat="42.16753" lon="1.90041">
        <ele>1266</ele>
        <time>2018-11-13T07:35:45.000Z</time>
      </trkpt>
      <trkpt lat="42.16753" lon="1.90044">
        <ele>1266.9699968</ele>
        <time>2018-11-13T07:35:48.000Z</time>
      </trkpt>
      <trkpt lat="42.16755" lon="1.90046">
        <ele>1268</ele>
        <time>2018-11-13T07:35:52.000Z</time>
      </trkpt>
      <trkpt lat="42.16755" lon="1.90049">
        <ele>1269</ele>
        <time>2018-11-13T07:35:56.000Z</time>
      </trkpt>
      <trkpt lat="42.16757" lon="1.90051">
        <ele>1269</ele>
        <time>2018-11-13T07:35:59.000Z</time>
      </trkpt>
      <trkpt lat="42.16757" lon="1.90053">
        <ele>1270</ele>
        <time>2018-11-13T07:36:03.000Z</time>
      </trkpt>
      <trkpt lat="42.16757" lon="1.90057">
        <ele>1271</ele>
        <time>2018-11-13T07:36:06.000Z</time>
      </trkpt>
      <trkpt lat="42.16756" lon="1.90059">
        <ele>1271.9699968</ele>
        <time>2018-11-13T07:36:10.000Z</time>
      </trkpt>
      <trkpt lat="42.16758" lon="1.90062">
        <ele>1273</ele>
        <time>2018-11-13T07:36:13.000Z</time>
      </trkpt>
      <trkpt lat="42.1676" lon="1.90063">
        <ele>1273</ele>
        <time>2018-11-13T07:36:15.000Z</time>
      </trkpt>
      <trkpt lat="42.16762" lon="1.90065">
        <ele>1274.9677388276</ele>
        <time>2018-11-13T07:36:19.000Z</time>
      </trkpt>
      <trkpt lat="42.16764" lon="1.90066">
        <ele>1275</ele>
        <time>2018-11-13T07:36:22.000Z</time>
      </trkpt>
      <trkpt lat="42.16765" lon="1.90068">
        <ele>1276</ele>
        <time>2018-11-13T07:36:25.000Z</time>
      </trkpt>
      <trkpt lat="42.16767" lon="1.90071">
        <ele>1277</ele>
        <time>2018-11-13T07:36:29.000Z</time>
      </trkpt>
      <trkpt lat="42.16768" lon="1.90072">
        <ele>1278</ele>
        <time>2018-11-13T07:36:33.000Z</time>
      </trkpt>
      <trkpt lat="42.1677" lon="1.90073">
        <ele>1278</ele>
        <time>2018-11-13T07:36:36.000Z</time>
      </trkpt>
      <trkpt lat="42.16771" lon="1.90076">
        <ele>1279</ele>
        <time>2018-11-13T07:36:40.000Z</time>
      </trkpt>
      <trkpt lat="42.16772" lon="1.90078">
        <ele>1281</ele>
        <time>2018-11-13T07:36:46.000Z</time>
      </trkpt>
      <trkpt lat="42.16772" lon="1.90081">
        <ele>1281</ele>
        <time>2018-11-13T07:36:50.000Z</time>
      </trkpt>
      <trkpt lat="42.16773" lon="1.90083">
        <ele>1281</ele>
        <time>2018-11-13T07:36:53.000Z</time>
      </trkpt>
      <trkpt lat="42.16775" lon="1.90085">
        <ele>1282.9150968459</ele>
        <time>2018-11-13T07:36:58.000Z</time>
      </trkpt>
      <trkpt lat="42.16776" lon="1.90087">
        <ele>1283</ele>
        <time>2018-11-13T07:37:01.000Z</time>
      </trkpt>
      <trkpt lat="42.16777" lon="1.90089">
        <ele>1284</ele>
        <time>2018-11-13T07:37:04.000Z</time>
      </trkpt>
      <trkpt lat="42.16778" lon="1.90092">
        <ele>1285</ele>
        <time>2018-11-13T07:37:08.000Z</time>
      </trkpt>
      <trkpt lat="42.16779" lon="1.90095">
        <ele>1286</ele>
        <time>2018-11-13T07:37:12.000Z</time>
      </trkpt>
      <trkpt lat="42.16779" lon="1.90097">
        <ele>1286.9680819194</ele>
        <time>2018-11-13T07:37:16.000Z</time>
      </trkpt>
      <trkpt lat="42.16779" lon="1.901">
        <ele>1287</ele>
        <time>2018-11-13T07:37:18.000Z</time>
      </trkpt>
      <trkpt lat="42.1678" lon="1.90102">
        <ele>1286.0300032</ele>
        <time>2018-11-13T07:37:20.000Z</time>
      </trkpt>
      <trkpt lat="42.16781" lon="1.90105">
        <ele>1287.9699968</ele>
        <time>2018-11-13T07:37:23.000Z</time>
      </trkpt>
      <trkpt lat="42.1678" lon="1.90108">
        <ele>1288</ele>
        <time>2018-11-13T07:37:26.000Z</time>
      </trkpt>
      <trkpt lat="42.1678" lon="1.90112">
        <ele>1289</ele>
        <time>2018-11-13T07:37:29.000Z</time>
      </trkpt>
      <trkpt lat="42.1678" lon="1.90114">
        <ele>1289</ele>
        <time>2018-11-13T07:37:31.000Z</time>
      </trkpt>
      <trkpt lat="42.1678" lon="1.90118">
        <ele>1290</ele>
        <time>2018-11-13T07:37:34.000Z</time>
      </trkpt>
      <trkpt lat="42.16778" lon="1.9012">
        <ele>1290.9238092916</ele>
        <time>2018-11-13T07:37:37.000Z</time>
      </trkpt>
      <trkpt lat="42.16777" lon="1.90123">
        <ele>1291</ele>
        <time>2018-11-13T07:37:40.000Z</time>
      </trkpt>
      <trkpt lat="42.16777" lon="1.90127">
        <ele>1292</ele>
        <time>2018-11-13T07:37:43.000Z</time>
      </trkpt>
      <trkpt lat="42.16776" lon="1.9013">
        <ele>1292.9326892308</ele>
        <time>2018-11-13T07:37:46.000Z</time>
      </trkpt>
      <trkpt lat="42.16776" lon="1.90132">
        <ele>1294</ele>
        <time>2018-11-13T07:37:49.000Z</time>
      </trkpt>
      <trkpt lat="42.16776" lon="1.90135">
        <ele>1295</ele>
        <time>2018-11-13T07:37:52.000Z</time>
      </trkpt>
      <trkpt lat="42.16776" lon="1.90139">
        <ele>1296</ele>
        <time>2018-11-13T07:37:56.000Z</time>
      </trkpt>
      <trkpt lat="42.16775" lon="1.90141">
        <ele>1297</ele>
        <time>2018-11-13T07:38:00.000Z</time>
      </trkpt>
      <trkpt lat="42.16775" lon="1.90145">
        <ele>1296.9690687639</ele>
        <time>2018-11-13T07:38:03.000Z</time>
      </trkpt>
      <trkpt lat="42.16776" lon="1.90146">
        <ele>1298</ele>
        <time>2018-11-13T07:38:10.000Z</time>
      </trkpt>
      <trkpt lat="42.16778" lon="1.90145">
        <ele>1298.9699968</ele>
        <time>2018-11-13T07:38:13.000Z</time>
      </trkpt>
      <trkpt lat="42.1678" lon="1.90145">
        <ele>1299</ele>
        <time>2018-11-13T07:38:17.000Z</time>
      </trkpt>
      <trkpt lat="42.16782" lon="1.90144">
        <ele>1300.9699968</ele>
        <time>2018-11-13T07:38:20.000Z</time>
      </trkpt>
      <trkpt lat="42.16784" lon="1.90144">
        <ele>1301.9699968</ele>
        <time>2018-11-13T07:38:23.000Z</time>
      </trkpt>
      <trkpt lat="42.16784" lon="1.90149">
        <ele>1304</ele>
        <time>2018-11-13T07:38:34.000Z</time>
      </trkpt>
      <trkpt lat="42.16786" lon="1.90149">
        <ele>1304</ele>
        <time>2018-11-13T07:38:37.000Z</time>
      </trkpt>
      <trkpt lat="42.16788" lon="1.90151">
        <ele>1305</ele>
        <time>2018-11-13T07:38:40.000Z</time>
      </trkpt>
      <trkpt lat="42.16791" lon="1.90154">
        <ele>1306</ele>
        <time>2018-11-13T07:38:44.000Z</time>
      </trkpt>
      <trkpt lat="42.16793" lon="1.90155">
        <ele>1306</ele>
        <time>2018-11-13T07:38:48.000Z</time>
      </trkpt>
      <trkpt lat="42.16795" lon="1.90156">
        <ele>1307</ele>
        <time>2018-11-13T07:38:52.000Z</time>
      </trkpt>
      <trkpt lat="42.16797" lon="1.90156">
        <ele>1307.9326892308</ele>
        <time>2018-11-13T07:38:56.000Z</time>
      </trkpt>
      <trkpt lat="42.16799" lon="1.90158">
        <ele>1309</ele>
        <time>2018-11-13T07:39:01.000Z</time>
      </trkpt>
      <trkpt lat="42.168" lon="1.90159">
        <ele>1309</ele>
        <time>2018-11-13T07:39:05.000Z</time>
      </trkpt>
      <trkpt lat="42.16802" lon="1.90161">
        <ele>1311</ele>
        <time>2018-11-13T07:39:08.000Z</time>
      </trkpt>
      <trkpt lat="42.16803" lon="1.90163">
        <ele>1312</ele>
        <time>2018-11-13T07:39:12.000Z</time>
      </trkpt>
      <trkpt lat="42.16804" lon="1.90166">
        <ele>1312.9687466667</ele>
        <time>2018-11-13T07:39:16.000Z</time>
      </trkpt>
      <trkpt lat="42.16806" lon="1.90168">
        <ele>1314</ele>
        <time>2018-11-13T07:39:22.000Z</time>
      </trkpt>
      <trkpt lat="42.16808" lon="1.90168">
        <ele>1315</ele>
        <time>2018-11-13T07:39:27.000Z</time>
      </trkpt>
      <trkpt lat="42.1681" lon="1.90169">
        <ele>1316</ele>
        <time>2018-11-13T07:39:30.000Z</time>
      </trkpt>
      <trkpt lat="42.16812" lon="1.9017">
        <ele>1316.9699968</ele>
        <time>2018-11-13T07:39:33.000Z</time>
      </trkpt>
      <trkpt lat="42.16814" lon="1.90171">
        <ele>1317</ele>
        <time>2018-11-13T07:39:36.000Z</time>
      </trkpt>
      <trkpt lat="42.16815" lon="1.90173">
        <ele>1318</ele>
        <time>2018-11-13T07:39:39.000Z</time>
      </trkpt>
      <trkpt lat="42.16817" lon="1.90175">
        <ele>1319</ele>
        <time>2018-11-13T07:39:43.000Z</time>
      </trkpt>
      <trkpt lat="42.16819" lon="1.90177">
        <ele>1319</ele>
        <time>2018-11-13T07:39:46.000Z</time>
      </trkpt>
      <trkpt lat="42.1682" lon="1.90179">
        <ele>1319.9699968</ele>
        <time>2018-11-13T07:39:49.000Z</time>
      </trkpt>
      <trkpt lat="42.16821" lon="1.90181">
        <ele>1320</ele>
        <time>2018-11-13T07:39:52.000Z</time>
      </trkpt>
      <trkpt lat="42.16822" lon="1.90184">
        <ele>1321.9699968</ele>
        <time>2018-11-13T07:39:55.000Z</time>
      </trkpt>
      <trkpt lat="42.16824" lon="1.90186">
        <ele>1322</ele>
        <time>2018-11-13T07:39:58.000Z</time>
      </trkpt>
      <trkpt lat="42.16825" lon="1.90188">
        <ele>1322</ele>
        <time>2018-11-13T07:40:02.000Z</time>
      </trkpt>
      <trkpt lat="42.16827" lon="1.9019">
        <ele>1324</ele>
        <time>2018-11-13T07:40:06.000Z</time>
      </trkpt>
      <trkpt lat="42.16829" lon="1.90193">
        <ele>1324</ele>
        <time>2018-11-13T07:40:09.000Z</time>
      </trkpt>
      <trkpt lat="42.16831" lon="1.90196">
        <ele>1325</ele>
        <time>2018-11-13T07:40:12.000Z</time>
      </trkpt>
      <trkpt lat="42.16832" lon="1.90198">
        <ele>1325</ele>
        <time>2018-11-13T07:40:15.000Z</time>
      </trkpt>
      <trkpt lat="42.16832" lon="1.902">
        <ele>1326</ele>
        <time>2018-11-13T07:40:19.000Z</time>
      </trkpt>
      <trkpt lat="42.16833" lon="1.90203">
        <ele>1327</ele>
        <time>2018-11-13T07:40:23.000Z</time>
      </trkpt>
      <trkpt lat="42.16834" lon="1.90205">
        <ele>1327</ele>
        <time>2018-11-13T07:40:26.000Z</time>
      </trkpt>
      <trkpt lat="42.16835" lon="1.90208">
        <ele>1328.9684177906</ele>
        <time>2018-11-13T07:40:29.000Z</time>
      </trkpt>
      <trkpt lat="42.16836" lon="1.90211">
        <ele>1329</ele>
        <time>2018-11-13T07:40:31.000Z</time>
      </trkpt>
      <trkpt lat="42.16837" lon="1.90214">
        <ele>1329.9699968</ele>
        <time>2018-11-13T07:40:33.000Z</time>
      </trkpt>
      <trkpt lat="42.16839" lon="1.90216">
        <ele>1330</ele>
        <time>2018-11-13T07:40:35.000Z</time>
      </trkpt>
      <trkpt lat="42.16841" lon="1.90219">
        <ele>1330.8333360684</ele>
        <time>2018-11-13T07:40:39.000Z</time>
      </trkpt>
      <trkpt lat="42.16843" lon="1.90221">
        <ele>1331</ele>
        <time>2018-11-13T07:40:43.000Z</time>
      </trkpt>
      <trkpt lat="42.16844" lon="1.90223">
        <ele>1331</ele>
        <time>2018-11-13T07:40:46.000Z</time>
      </trkpt>
      <trkpt lat="42.16845" lon="1.90225">
        <ele>1331.9565168998</ele>
        <time>2018-11-13T07:40:50.000Z</time>
      </trkpt>
      <trkpt lat="42.16846" lon="1.90228">
        <ele>1333</ele>
        <time>2018-11-13T07:40:53.000Z</time>
      </trkpt>
      <trkpt lat="42.16848" lon="1.90228">
        <ele>1336</ele>
        <time>2018-11-13T07:41:02.000Z</time>
      </trkpt>
      <trkpt lat="42.16851" lon="1.9023">
        <ele>1336</ele>
        <time>2018-11-13T07:41:05.000Z</time>
      </trkpt>
      <trkpt lat="42.16853" lon="1.9023">
        <ele>1336.9699968</ele>
        <time>2018-11-13T07:41:08.000Z</time>
      </trkpt>
      <trkpt lat="42.16855" lon="1.90232">
        <ele>1337</ele>
        <time>2018-11-13T07:41:11.000Z</time>
      </trkpt>
      <trkpt lat="42.16857" lon="1.9023">
        <ele>1338</ele>
        <time>2018-11-13T07:41:17.000Z</time>
      </trkpt>
      <trkpt lat="42.16857" lon="1.9023">
        <ele>1338</ele>
        <time>2018-11-13T07:41:19.000Z</time>
      </trkpt>
      <trkpt lat="42.16859" lon="1.90229">
        <ele>1338.4696972635</ele>
        <time>2018-11-13T07:42:58.000Z</time>
      </trkpt>
      <trkpt lat="42.1686" lon="1.90231">
        <ele>1338.1261214511</ele>
        <time>2018-11-13T07:43:01.000Z</time>
      </trkpt>
      <trkpt lat="42.16862" lon="1.90233">
        <ele>1338</ele>
        <time>2018-11-13T07:43:03.000Z</time>
      </trkpt>
      <trkpt lat="42.16863" lon="1.90235">
        <ele>1338.9666633482</ele>
        <time>2018-11-13T07:43:05.000Z</time>
      </trkpt>
      <trkpt lat="42.16865" lon="1.90237">
        <ele>1339.8899079337</ele>
        <time>2018-11-13T07:43:07.000Z</time>
      </trkpt>
      <trkpt lat="42.16866" lon="1.90239">
        <ele>1340</ele>
        <time>2018-11-13T07:43:10.000Z</time>
      </trkpt>
      <trkpt lat="42.16867" lon="1.90241">
        <ele>1341</ele>
        <time>2018-11-13T07:43:12.000Z</time>
      </trkpt>
      <trkpt lat="42.16868" lon="1.90243">
        <ele>1341.9696938353</ele>
        <time>2018-11-13T07:43:15.000Z</time>
      </trkpt>
      <trkpt lat="42.1687" lon="1.90245">
        <ele>1342</ele>
        <time>2018-11-13T07:43:21.000Z</time>
      </trkpt>
      <trkpt lat="42.16872" lon="1.90247">
        <ele>1343</ele>
        <time>2018-11-13T07:43:24.000Z</time>
      </trkpt>
      <trkpt lat="42.16873" lon="1.90249">
        <ele>1343</ele>
        <time>2018-11-13T07:43:28.000Z</time>
      </trkpt>
      <trkpt lat="42.16874" lon="1.90251">
        <ele>1343</ele>
        <time>2018-11-13T07:43:30.000Z</time>
      </trkpt>
      <trkpt lat="42.16876" lon="1.90254">
        <ele>1344.9684177906</ele>
        <time>2018-11-13T07:43:33.000Z</time>
      </trkpt>
      <trkpt lat="42.16877" lon="1.90256">
        <ele>1345</ele>
        <time>2018-11-13T07:43:36.000Z</time>
      </trkpt>
      <trkpt lat="42.16879" lon="1.90257">
        <ele>1345</ele>
        <time>2018-11-13T07:43:42.000Z</time>
      </trkpt>
      <trkpt lat="42.1688" lon="1.9026">
        <ele>1346.9150968459</ele>
        <time>2018-11-13T07:43:45.000Z</time>
      </trkpt>
      <trkpt lat="42.16881" lon="1.90262">
        <ele>1347</ele>
        <time>2018-11-13T07:43:48.000Z</time>
      </trkpt>
      <trkpt lat="42.16883" lon="1.90263">
        <ele>1348</ele>
        <time>2018-11-13T07:43:51.000Z</time>
      </trkpt>
      <trkpt lat="42.16885" lon="1.90265">
        <ele>1349</ele>
        <time>2018-11-13T07:43:53.000Z</time>
      </trkpt>
      <trkpt lat="42.16886" lon="1.90267">
        <ele>1349</ele>
        <time>2018-11-13T07:43:55.000Z</time>
      </trkpt>
      <trkpt lat="42.16887" lon="1.90269">
        <ele>1349</ele>
        <time>2018-11-13T07:43:58.000Z</time>
      </trkpt>
      <trkpt lat="42.16888" lon="1.90272">
        <ele>1350</ele>
        <time>2018-11-13T07:44:01.000Z</time>
      </trkpt>
      <trkpt lat="42.1689" lon="1.90274">
        <ele>1350.9699968</ele>
        <time>2018-11-13T07:44:03.000Z</time>
      </trkpt>
      <trkpt lat="42.16892" lon="1.90276">
        <ele>1351.9699968</ele>
        <time>2018-11-13T07:44:06.000Z</time>
      </trkpt>
      <trkpt lat="42.16894" lon="1.90277">
        <ele>1353</ele>
        <time>2018-11-13T07:44:10.000Z</time>
      </trkpt>
      <trkpt lat="42.16894" lon="1.9028">
        <ele>1353</ele>
        <time>2018-11-13T07:44:13.000Z</time>
      </trkpt>
      <trkpt lat="42.16896" lon="1.90282">
        <ele>1353</ele>
        <time>2018-11-13T07:44:16.000Z</time>
      </trkpt>
      <trkpt lat="42.16898" lon="1.90284">
        <ele>1353.9677383836</ele>
        <time>2018-11-13T07:44:18.000Z</time>
      </trkpt>
      <trkpt lat="42.169" lon="1.90286">
        <ele>1354</ele>
        <time>2018-11-13T07:44:20.000Z</time>
      </trkpt>
      <trkpt lat="42.16902" lon="1.90289">
        <ele>1355</ele>
        <time>2018-11-13T07:44:24.000Z</time>
      </trkpt>
      <trkpt lat="42.16904" lon="1.9029">
        <ele>1355</ele>
        <time>2018-11-13T07:44:26.000Z</time>
      </trkpt>
      <trkpt lat="42.16906" lon="1.90292">
        <ele>1356.9326892308</ele>
        <time>2018-11-13T07:44:29.000Z</time>
      </trkpt>
      <trkpt lat="42.16908" lon="1.90295">
        <ele>1357</ele>
        <time>2018-11-13T07:44:32.000Z</time>
      </trkpt>
      <trkpt lat="42.16909" lon="1.90296">
        <ele>1357</ele>
        <time>2018-11-13T07:44:34.000Z</time>
      </trkpt>
      <trkpt lat="42.16911" lon="1.90299">
        <ele>1358</ele>
        <time>2018-11-13T07:44:37.000Z</time>
      </trkpt>
      <trkpt lat="42.16913" lon="1.903">
        <ele>1358.9670295665</ele>
        <time>2018-11-13T07:44:40.000Z</time>
      </trkpt>
      <trkpt lat="42.16914" lon="1.90303">
        <ele>1359.8981451852</ele>
        <time>2018-11-13T07:44:42.000Z</time>
      </trkpt>
      <trkpt lat="42.16916" lon="1.90305">
        <ele>1360</ele>
        <time>2018-11-13T07:44:44.000Z</time>
      </trkpt>
      <trkpt lat="42.16918" lon="1.90307">
        <ele>1360</ele>
        <time>2018-11-13T07:44:46.000Z</time>
      </trkpt>
      <trkpt lat="42.16919" lon="1.90308">
        <ele>1360</ele>
        <time>2018-11-13T07:44:48.000Z</time>
      </trkpt>
      <trkpt lat="42.16921" lon="1.9031">
        <ele>1360</ele>
        <time>2018-11-13T07:44:50.000Z</time>
      </trkpt>
      <trkpt lat="42.16923" lon="1.90312">
        <ele>1361</ele>
        <time>2018-11-13T07:44:52.000Z</time>
      </trkpt>
      <trkpt lat="42.16925" lon="1.90313">
        <ele>1361</ele>
        <time>2018-11-13T07:44:55.000Z</time>
      </trkpt>
      <trkpt lat="42.16927" lon="1.90315">
        <ele>1361.9699968</ele>
        <time>2018-11-13T07:44:58.000Z</time>
      </trkpt>
      <trkpt lat="42.16928" lon="1.90318">
        <ele>1362</ele>
        <time>2018-11-13T07:45:01.000Z</time>
      </trkpt>
      <trkpt lat="42.16929" lon="1.90319">
        <ele>1362.9699968</ele>
        <time>2018-11-13T07:45:03.000Z</time>
      </trkpt>
      <trkpt lat="42.16931" lon="1.90322">
        <ele>1364</ele>
        <time>2018-11-13T07:45:06.000Z</time>
      </trkpt>
      <trkpt lat="42.16932" lon="1.90324">
        <ele>1364</ele>
        <time>2018-11-13T07:45:08.000Z</time>
      </trkpt>
      <trkpt lat="42.16933" lon="1.90326">
        <ele>1365</ele>
        <time>2018-11-13T07:45:10.000Z</time>
      </trkpt>
      <trkpt lat="42.16934" lon="1.90329">
        <ele>1365</ele>
        <time>2018-11-13T07:45:13.000Z</time>
      </trkpt>
      <trkpt lat="42.16934" lon="1.90332">
        <ele>1366</ele>
        <time>2018-11-13T07:45:16.000Z</time>
      </trkpt>
      <trkpt lat="42.16935" lon="1.90334">
        <ele>1368</ele>
        <time>2018-11-13T07:45:22.000Z</time>
      </trkpt>
      <trkpt lat="42.16937" lon="1.90337">
        <ele>1368.9687466667</ele>
        <time>2018-11-13T07:45:24.000Z</time>
      </trkpt>
      <trkpt lat="42.16938" lon="1.9034">
        <ele>1369</ele>
        <time>2018-11-13T07:45:26.000Z</time>
      </trkpt>
      <trkpt lat="42.16938" lon="1.90344">
        <ele>1369</ele>
        <time>2018-11-13T07:45:28.000Z</time>
      </trkpt>
      <trkpt lat="42.16938" lon="1.90347">
        <ele>1369</ele>
        <time>2018-11-13T07:45:30.000Z</time>
      </trkpt>
      <trkpt lat="42.1694" lon="1.90359">
        <ele>1369</ele>
        <time>2018-11-13T07:45:38.000Z</time>
      </trkpt>
      <trkpt lat="42.16945" lon="1.90369">
        <ele>1372</ele>
        <time>2018-11-13T07:45:48.000Z</time>
      </trkpt>
      <trkpt lat="42.16949" lon="1.9038">
        <ele>1374</ele>
        <time>2018-11-13T07:45:59.000Z</time>
      </trkpt>
      <trkpt lat="42.16957" lon="1.90387">
        <ele>1377</ele>
        <time>2018-11-13T07:46:10.000Z</time>
      </trkpt>
      <trkpt lat="42.16964" lon="1.90394">
        <ele>1378.9699968</ele>
        <time>2018-11-13T07:46:19.000Z</time>
      </trkpt>
      <trkpt lat="42.16967" lon="1.90395">
        <ele>1380</ele>
        <time>2018-11-13T07:46:22.000Z</time>
      </trkpt>
      <trkpt lat="42.16968" lon="1.90396">
        <ele>1380</ele>
        <time>2018-11-13T07:46:25.000Z</time>
      </trkpt>
      <trkpt lat="42.1697" lon="1.90395">
        <ele>1380.8918909569</ele>
        <time>2018-11-13T07:46:28.000Z</time>
      </trkpt>
      <trkpt lat="42.16973" lon="1.90395">
        <ele>1382.8738785489</ele>
        <time>2018-11-13T07:46:33.000Z</time>
      </trkpt>
      <trkpt lat="42.16975" lon="1.90396">
        <ele>1383</ele>
        <time>2018-11-13T07:46:35.000Z</time>
      </trkpt>
      <trkpt lat="42.16976" lon="1.90396">
        <ele>1383</ele>
        <time>2018-11-13T07:46:37.000Z</time>
      </trkpt>
      <trkpt lat="42.16978" lon="1.90396">
        <ele>1383.9666633482</ele>
        <time>2018-11-13T07:46:40.000Z</time>
      </trkpt>
      <trkpt lat="42.16981" lon="1.90397">
        <ele>1384</ele>
        <time>2018-11-13T07:46:43.000Z</time>
      </trkpt>
      <trkpt lat="42.16983" lon="1.90398">
        <ele>1385</ele>
        <time>2018-11-13T07:46:47.000Z</time>
      </trkpt>
      <trkpt lat="42.16985" lon="1.90398">
        <ele>1386.9516082415</ele>
        <time>2018-11-13T07:46:50.000Z</time>
      </trkpt>
      <trkpt lat="42.16986" lon="1.90399">
        <ele>1387.9659054546</ele>
        <time>2018-11-13T07:46:53.000Z</time>
      </trkpt>
      <trkpt lat="42.16989" lon="1.904">
        <ele>1388.9659054546</ele>
        <time>2018-11-13T07:46:59.000Z</time>
      </trkpt>
      <trkpt lat="42.1699" lon="1.90402">
        <ele>1389</ele>
        <time>2018-11-13T07:47:02.000Z</time>
      </trkpt>
      <trkpt lat="42.16992" lon="1.90404">
        <ele>1391</ele>
        <time>2018-11-13T07:47:07.000Z</time>
      </trkpt>
      <trkpt lat="42.16993" lon="1.90406">
        <ele>1391</ele>
        <time>2018-11-13T07:47:10.000Z</time>
      </trkpt>
      <trkpt lat="42.16995" lon="1.90408">
        <ele>1391</ele>
        <time>2018-11-13T07:47:13.000Z</time>
      </trkpt>
      <trkpt lat="42.16996" lon="1.9041">
        <ele>1391</ele>
        <time>2018-11-13T07:47:16.000Z</time>
      </trkpt>
      <trkpt lat="42.16997" lon="1.90412">
        <ele>1392</ele>
        <time>2018-11-13T07:47:19.000Z</time>
      </trkpt>
      <trkpt lat="42.16998" lon="1.90415">
        <ele>1392.9699968</ele>
        <time>2018-11-13T07:47:22.000Z</time>
      </trkpt>
      <trkpt lat="42.16999" lon="1.90417">
        <ele>1393</ele>
        <time>2018-11-13T07:47:25.000Z</time>
      </trkpt>
      <trkpt lat="42.17" lon="1.90421">
        <ele>1393</ele>
        <time>2018-11-13T07:47:28.000Z</time>
      </trkpt>
      <trkpt lat="42.17001" lon="1.90423">
        <ele>1394</ele>
        <time>2018-11-13T07:47:30.000Z</time>
      </trkpt>
      <trkpt lat="42.17003" lon="1.90427">
        <ele>1395</ele>
        <time>2018-11-13T07:47:34.000Z</time>
      </trkpt>
      <trkpt lat="42.17007" lon="1.90429">
        <ele>1398</ele>
        <time>2018-11-13T07:47:44.000Z</time>
      </trkpt>
      <trkpt lat="42.17008" lon="1.90431">
        <ele>1399</ele>
        <time>2018-11-13T07:47:53.000Z</time>
      </trkpt>
      <trkpt lat="42.17009" lon="1.90434">
        <ele>1399.0309312361</ele>
        <time>2018-11-13T07:47:57.000Z</time>
      </trkpt>
      <trkpt lat="42.17011" lon="1.90435">
        <ele>1400</ele>
        <time>2018-11-13T07:48:00.000Z</time>
      </trkpt>
      <trkpt lat="42.17012" lon="1.90435">
        <ele>1401</ele>
        <time>2018-11-13T07:48:04.000Z</time>
      </trkpt>
      <trkpt lat="42.17015" lon="1.90435">
        <ele>1402</ele>
        <time>2018-11-13T07:48:09.000Z</time>
      </trkpt>
      <trkpt lat="42.17017" lon="1.90436">
        <ele>1402</ele>
        <time>2018-11-13T07:48:12.000Z</time>
      </trkpt>
      <trkpt lat="42.17019" lon="1.90437">
        <ele>1403</ele>
        <time>2018-11-13T07:48:15.000Z</time>
      </trkpt>
      <trkpt lat="42.1702" lon="1.90439">
        <ele>1403</ele>
        <time>2018-11-13T07:48:18.000Z</time>
      </trkpt>
      <trkpt lat="42.17021" lon="1.90442">
        <ele>1403.710740392</ele>
        <time>2018-11-13T07:48:21.000Z</time>
      </trkpt>
      <trkpt lat="42.17021" lon="1.90445">
        <ele>1404</ele>
        <time>2018-11-13T07:48:24.000Z</time>
      </trkpt>
      <trkpt lat="42.17021" lon="1.90448">
        <ele>1404</ele>
        <time>2018-11-13T07:48:26.000Z</time>
      </trkpt>
      <trkpt lat="42.17021" lon="1.90451">
        <ele>1404</ele>
        <time>2018-11-13T07:48:28.000Z</time>
      </trkpt>
      <trkpt lat="42.17022" lon="1.90454">
        <ele>1405</ele>
        <time>2018-11-13T07:48:30.000Z</time>
      </trkpt>
      <trkpt lat="42.17022" lon="1.90457">
        <ele>1405.9699968</ele>
        <time>2018-11-13T07:48:32.000Z</time>
      </trkpt>
      <trkpt lat="42.17023" lon="1.9046">
        <ele>1406</ele>
        <time>2018-11-13T07:48:34.000Z</time>
      </trkpt>
      <trkpt lat="42.17024" lon="1.90462">
        <ele>1406</ele>
        <time>2018-11-13T07:48:36.000Z</time>
      </trkpt>
      <trkpt lat="42.17026" lon="1.90464">
        <ele>1407.9150968459</ele>
        <time>2018-11-13T07:48:39.000Z</time>
      </trkpt>
      <trkpt lat="42.17027" lon="1.90466">
        <ele>1408</ele>
        <time>2018-11-13T07:48:43.000Z</time>
      </trkpt>
      <trkpt lat="42.17029" lon="1.90466">
        <ele>1409</ele>
        <time>2018-11-13T07:48:45.000Z</time>
      </trkpt>
      <trkpt lat="42.17026" lon="1.90461">
        <ele>1408</ele>
        <time>2018-11-13T07:49:12.000Z</time>
      </trkpt>
      <trkpt lat="42.17027" lon="1.90464">
        <ele>1408</ele>
        <time>2018-11-13T07:49:16.000Z</time>
      </trkpt>
      <trkpt lat="42.17028" lon="1.90467">
        <ele>1409</ele>
        <time>2018-11-13T07:49:19.000Z</time>
      </trkpt>
      <trkpt lat="42.17029" lon="1.90469">
        <ele>1411</ele>
        <time>2018-11-13T07:49:25.000Z</time>
      </trkpt>
      <trkpt lat="42.17029" lon="1.90471">
        <ele>1411</ele>
        <time>2018-11-13T07:49:28.000Z</time>
      </trkpt>
      <trkpt lat="42.17027" lon="1.9047">
        <ele>1410.1415933213</ele>
        <time>2018-11-13T07:49:51.000Z</time>
      </trkpt>
      <trkpt lat="42.17025" lon="1.90469">
        <ele>1409.9699968</ele>
        <time>2018-11-13T07:49:53.000Z</time>
      </trkpt>
      <trkpt lat="42.17023" lon="1.90468">
        <ele>1411</ele>
        <time>2018-11-13T07:49:56.000Z</time>
      </trkpt>
      <trkpt lat="42.1702" lon="1.90468">
        <ele>1411</ele>
        <time>2018-11-13T07:49:59.000Z</time>
      </trkpt>
      <trkpt lat="42.17019" lon="1.90466">
        <ele>1411</ele>
        <time>2018-11-13T07:50:01.000Z</time>
      </trkpt>
      <trkpt lat="42.17017" lon="1.90466">
        <ele>1411</ele>
        <time>2018-11-13T07:50:03.000Z</time>
      </trkpt>
      <trkpt lat="42.17016" lon="1.9047">
        <ele>1412.9603959141</ele>
        <time>2018-11-13T07:50:07.000Z</time>
      </trkpt>
      <trkpt lat="42.17017" lon="1.90473">
        <ele>1413</ele>
        <time>2018-11-13T07:50:09.000Z</time>
      </trkpt>
      <trkpt lat="42.17017" lon="1.90476">
        <ele>1414</ele>
        <time>2018-11-13T07:50:14.000Z</time>
      </trkpt>
      <trkpt lat="42.17017" lon="1.90479">
        <ele>1415</ele>
        <time>2018-11-13T07:50:19.000Z</time>
      </trkpt>
      <trkpt lat="42.17018" lon="1.9048">
        <ele>1415</ele>
        <time>2018-11-13T07:50:22.000Z</time>
      </trkpt>
      <trkpt lat="42.1702" lon="1.9048">
        <ele>1418</ele>
        <time>2018-11-13T07:50:29.000Z</time>
      </trkpt>
      <trkpt lat="42.17022" lon="1.90482">
        <ele>1419</ele>
        <time>2018-11-13T07:50:33.000Z</time>
      </trkpt>
      <trkpt lat="42.17023" lon="1.90484">
        <ele>1419</ele>
        <time>2018-11-13T07:50:36.000Z</time>
      </trkpt>
      <trkpt lat="42.17025" lon="1.90486">
        <ele>1420</ele>
        <time>2018-11-13T07:50:39.000Z</time>
      </trkpt>
      <trkpt lat="42.17027" lon="1.90488">
        <ele>1421.9670295665</ele>
        <time>2018-11-13T07:50:44.000Z</time>
      </trkpt>
      <trkpt lat="42.17028" lon="1.9049">
        <ele>1422</ele>
        <time>2018-11-13T07:50:47.000Z</time>
      </trkpt>
      <trkpt lat="42.17029" lon="1.90493">
        <ele>1422.9699968</ele>
        <time>2018-11-13T07:50:51.000Z</time>
      </trkpt>
      <trkpt lat="42.17031" lon="1.90495">
        <ele>1424</ele>
        <time>2018-11-13T07:50:54.000Z</time>
      </trkpt>
      <trkpt lat="42.17032" lon="1.90496">
        <ele>1424</ele>
        <time>2018-11-13T07:50:56.000Z</time>
      </trkpt>
      <trkpt lat="42.17034" lon="1.90498">
        <ele>1424</ele>
        <time>2018-11-13T07:50:58.000Z</time>
      </trkpt>
      <trkpt lat="42.17034" lon="1.905">
        <ele>1425</ele>
        <time>2018-11-13T07:51:01.000Z</time>
      </trkpt>
      <trkpt lat="42.17036" lon="1.90502">
        <ele>1425</ele>
        <time>2018-11-13T07:51:04.000Z</time>
      </trkpt>
      <trkpt lat="42.17037" lon="1.90504">
        <ele>1426.9677383836</ele>
        <time>2018-11-13T07:51:06.000Z</time>
      </trkpt>
      <trkpt lat="42.17039" lon="1.90507">
        <ele>1427</ele>
        <time>2018-11-13T07:51:08.000Z</time>
      </trkpt>
      <trkpt lat="42.1704" lon="1.90509">
        <ele>1427</ele>
        <time>2018-11-13T07:51:10.000Z</time>
      </trkpt>
      <trkpt lat="42.1704" lon="1.90512">
        <ele>1427.7280044237</ele>
        <time>2018-11-13T07:51:12.000Z</time>
      </trkpt>
      <trkpt lat="42.17042" lon="1.90514">
        <ele>1428</ele>
        <time>2018-11-13T07:51:14.000Z</time>
      </trkpt>
      <trkpt lat="42.17042" lon="1.90516">
        <ele>1429</ele>
        <time>2018-11-13T07:51:17.000Z</time>
      </trkpt>
      <trkpt lat="42.17045" lon="1.90518">
        <ele>1429</ele>
        <time>2018-11-13T07:51:20.000Z</time>
      </trkpt>
      <trkpt lat="42.17047" lon="1.90519">
        <ele>1429</ele>
        <time>2018-11-13T07:51:22.000Z</time>
      </trkpt>
      <trkpt lat="42.17049" lon="1.90522">
        <ele>1429.9699968</ele>
        <time>2018-11-13T07:51:24.000Z</time>
      </trkpt>
      <trkpt lat="42.1705" lon="1.90524">
        <ele>1430</ele>
        <time>2018-11-13T07:51:26.000Z</time>
      </trkpt>
      <trkpt lat="42.17049" lon="1.90527">
        <ele>1430.0319180806</ele>
        <time>2018-11-13T07:51:29.000Z</time>
      </trkpt>
      <trkpt lat="42.17049" lon="1.9053">
        <ele>1431</ele>
        <time>2018-11-13T07:51:32.000Z</time>
      </trkpt>
      <trkpt lat="42.17048" lon="1.90533">
        <ele>1432</ele>
        <time>2018-11-13T07:51:35.000Z</time>
      </trkpt>
      <trkpt lat="42.17047" lon="1.90535">
        <ele>1433</ele>
        <time>2018-11-13T07:51:38.000Z</time>
      </trkpt>
      <trkpt lat="42.17047" lon="1.90538">
        <ele>1433.8738684717</ele>
        <time>2018-11-13T07:51:40.000Z</time>
      </trkpt>
      <trkpt lat="42.17045" lon="1.9054">
        <ele>1434</ele>
        <time>2018-11-13T07:51:43.000Z</time>
      </trkpt>
      <trkpt lat="42.17045" lon="1.90542">
        <ele>1435</ele>
        <time>2018-11-13T07:51:46.000Z</time>
      </trkpt>
      <trkpt lat="42.17045" lon="1.90545">
        <ele>1435.8899079337</ele>
        <time>2018-11-13T07:51:49.000Z</time>
      </trkpt>
      <trkpt lat="42.17045" lon="1.90548">
        <ele>1436</ele>
        <time>2018-11-13T07:51:53.000Z</time>
      </trkpt>
      <trkpt lat="42.17043" lon="1.9055">
        <ele>1436.9699968</ele>
        <time>2018-11-13T07:51:55.000Z</time>
      </trkpt>
      <trkpt lat="42.17042" lon="1.90552">
        <ele>1438</ele>
        <time>2018-11-13T07:51:59.000Z</time>
      </trkpt>
      <trkpt lat="42.17043" lon="1.90555">
        <ele>1439</ele>
        <time>2018-11-13T07:52:02.000Z</time>
      </trkpt>
      <trkpt lat="42.17044" lon="1.90557">
        <ele>1439</ele>
        <time>2018-11-13T07:52:05.000Z</time>
      </trkpt>
      <trkpt lat="42.17044" lon="1.9056">
        <ele>1440</ele>
        <time>2018-11-13T07:52:11.000Z</time>
      </trkpt>
      <trkpt lat="42.17043" lon="1.90562">
        <ele>1441</ele>
        <time>2018-11-13T07:52:16.000Z</time>
      </trkpt>
      <trkpt lat="42.17041" lon="1.90562">
        <ele>1442</ele>
        <time>2018-11-13T07:52:19.000Z</time>
      </trkpt>
      <trkpt lat="42.17039" lon="1.90563">
        <ele>1443</ele>
        <time>2018-11-13T07:52:21.000Z</time>
      </trkpt>
      <trkpt lat="42.17037" lon="1.90564">
        <ele>1443</ele>
        <time>2018-11-13T07:52:24.000Z</time>
      </trkpt>
      <trkpt lat="42.17037" lon="1.90567">
        <ele>1444</ele>
        <time>2018-11-13T07:52:28.000Z</time>
      </trkpt>
      <trkpt lat="42.17035" lon="1.90568">
        <ele>1445</ele>
        <time>2018-11-13T07:52:31.000Z</time>
      </trkpt>
      <trkpt lat="42.17035" lon="1.90571">
        <ele>1446</ele>
        <time>2018-11-13T07:52:36.000Z</time>
      </trkpt>
      <trkpt lat="42.17037" lon="1.90573">
        <ele>1446</ele>
        <time>2018-11-13T07:52:39.000Z</time>
      </trkpt>
      <trkpt lat="42.17037" lon="1.90576">
        <ele>1447</ele>
        <time>2018-11-13T07:52:42.000Z</time>
      </trkpt>
      <trkpt lat="42.17037" lon="1.90578">
        <ele>1447</ele>
        <time>2018-11-13T07:52:46.000Z</time>
      </trkpt>
      <trkpt lat="42.17036" lon="1.90581">
        <ele>1449</ele>
        <time>2018-11-13T07:52:51.000Z</time>
      </trkpt>
      <trkpt lat="42.17037" lon="1.90583">
        <ele>1449</ele>
        <time>2018-11-13T07:52:54.000Z</time>
      </trkpt>
      <trkpt lat="42.17036" lon="1.90586">
        <ele>1450.9680819194</ele>
        <time>2018-11-13T07:53:00.000Z</time>
      </trkpt>
      <trkpt lat="42.17035" lon="1.90588">
        <ele>1451</ele>
        <time>2018-11-13T07:53:04.000Z</time>
      </trkpt>
      <trkpt lat="42.17032" lon="1.90588">
        <ele>1452.7322864803</ele>
        <time>2018-11-13T07:53:06.000Z</time>
      </trkpt>
      <trkpt lat="42.17029" lon="1.90589">
        <ele>1453</ele>
        <time>2018-11-13T07:53:08.000Z</time>
      </trkpt>
      <trkpt lat="42.17027" lon="1.9059">
        <ele>1453</ele>
        <time>2018-11-13T07:53:12.000Z</time>
      </trkpt>
      <trkpt lat="42.17025" lon="1.90591">
        <ele>1453</ele>
        <time>2018-11-13T07:53:15.000Z</time>
      </trkpt>
      <trkpt lat="42.17023" lon="1.90592">
        <ele>1454</ele>
        <time>2018-11-13T07:53:18.000Z</time>
      </trkpt>
      <trkpt lat="42.17021" lon="1.90593">
        <ele>1454.9699968</ele>
        <time>2018-11-13T07:53:20.000Z</time>
      </trkpt>
      <trkpt lat="42.17019" lon="1.90594">
        <ele>1455.9699968</ele>
        <time>2018-11-13T07:53:23.000Z</time>
      </trkpt>
      <trkpt lat="42.17017" lon="1.90594">
        <ele>1456</ele>
        <time>2018-11-13T07:53:26.000Z</time>
      </trkpt>
      <trkpt lat="42.17015" lon="1.90596">
        <ele>1457</ele>
        <time>2018-11-13T07:53:30.000Z</time>
      </trkpt>
      <trkpt lat="42.17007" lon="1.90599">
        <ele>1459</ele>
        <time>2018-11-13T07:53:39.000Z</time>
      </trkpt>
      <trkpt lat="42.17005" lon="1.90601">
        <ele>1459.9699968</ele>
        <time>2018-11-13T07:53:42.000Z</time>
      </trkpt>
      <trkpt lat="42.17004" lon="1.90602">
        <ele>1460</ele>
        <time>2018-11-13T07:53:44.000Z</time>
      </trkpt>
      <trkpt lat="42.17001" lon="1.90602">
        <ele>1461</ele>
        <time>2018-11-13T07:53:46.000Z</time>
      </trkpt>
      <trkpt lat="42.16999" lon="1.90604">
        <ele>1462</ele>
        <time>2018-11-13T07:53:49.000Z</time>
      </trkpt>
      <trkpt lat="42.16997" lon="1.90606">
        <ele>1462</ele>
        <time>2018-11-13T07:53:51.000Z</time>
      </trkpt>
      <trkpt lat="42.16995" lon="1.90608">
        <ele>1462</ele>
        <time>2018-11-13T07:53:53.000Z</time>
      </trkpt>
      <trkpt lat="42.16994" lon="1.9061">
        <ele>1462.9699968</ele>
        <time>2018-11-13T07:53:55.000Z</time>
      </trkpt>
      <trkpt lat="42.16993" lon="1.90613">
        <ele>1463.9699968</ele>
        <time>2018-11-13T07:53:58.000Z</time>
      </trkpt>
      <trkpt lat="42.16992" lon="1.90615">
        <ele>1464</ele>
        <time>2018-11-13T07:54:01.000Z</time>
      </trkpt>
      <trkpt lat="42.16991" lon="1.90618">
        <ele>1464.9166577778</ele>
        <time>2018-11-13T07:54:04.000Z</time>
      </trkpt>
      <trkpt lat="42.16989" lon="1.9062">
        <ele>1466</ele>
        <time>2018-11-13T07:54:08.000Z</time>
      </trkpt>
      <trkpt lat="42.16988" lon="1.90618">
        <ele>1467</ele>
        <time>2018-11-13T07:54:18.000Z</time>
      </trkpt>
      <trkpt lat="42.16987" lon="1.90616">
        <ele>1467.8584066787</ele>
        <time>2018-11-13T07:54:21.000Z</time>
      </trkpt>
      <trkpt lat="42.16988" lon="1.90613">
        <ele>1469</ele>
        <time>2018-11-13T07:54:24.000Z</time>
      </trkpt>
      <trkpt lat="42.16988" lon="1.9061">
        <ele>1469</ele>
        <time>2018-11-13T07:54:26.000Z</time>
      </trkpt>
      <trkpt lat="42.16988" lon="1.90608">
        <ele>1470</ele>
        <time>2018-11-13T07:54:30.000Z</time>
      </trkpt>
      <trkpt lat="42.16988" lon="1.90605">
        <ele>1472</ele>
        <time>2018-11-13T07:54:34.000Z</time>
      </trkpt>
      <trkpt lat="42.16988" lon="1.90602">
        <ele>1472.9699968</ele>
        <time>2018-11-13T07:54:38.000Z</time>
      </trkpt>
      <trkpt lat="42.16987" lon="1.90599">
        <ele>1474</ele>
        <time>2018-11-13T07:54:43.000Z</time>
      </trkpt>
      <trkpt lat="42.16986" lon="1.90597">
        <ele>1475</ele>
        <time>2018-11-13T07:54:46.000Z</time>
      </trkpt>
      <trkpt lat="42.16984" lon="1.90596">
        <ele>1475.9687466667</ele>
        <time>2018-11-13T07:54:51.000Z</time>
      </trkpt>
      <trkpt lat="42.16983" lon="1.90594">
        <ele>1477</ele>
        <time>2018-11-13T07:54:54.000Z</time>
      </trkpt>
      <trkpt lat="42.16982" lon="1.90591">
        <ele>1477.9690687639</ele>
        <time>2018-11-13T07:54:57.000Z</time>
      </trkpt>
      <trkpt lat="42.16982" lon="1.90589">
        <ele>1478</ele>
        <time>2018-11-13T07:55:00.000Z</time>
      </trkpt>
      <trkpt lat="42.16981" lon="1.90586">
        <ele>1479</ele>
        <time>2018-11-13T07:55:02.000Z</time>
      </trkpt>
      <trkpt lat="42.16979" lon="1.90584">
        <ele>1479</ele>
        <time>2018-11-13T07:55:05.000Z</time>
      </trkpt>
      <trkpt lat="42.16977" lon="1.90583">
        <ele>1479.9677383836</ele>
        <time>2018-11-13T07:55:08.000Z</time>
      </trkpt>
      <trkpt lat="42.16975" lon="1.90583">
        <ele>1480</ele>
        <time>2018-11-13T07:55:10.000Z</time>
      </trkpt>
      <trkpt lat="42.16973" lon="1.90583">
        <ele>1481</ele>
        <time>2018-11-13T07:55:13.000Z</time>
      </trkpt>
      <trkpt lat="42.16971" lon="1.90582">
        <ele>1481.9509832219</ele>
        <time>2018-11-13T07:55:16.000Z</time>
      </trkpt>
      <trkpt lat="42.16969" lon="1.90583">
        <ele>1482</ele>
        <time>2018-11-13T07:55:19.000Z</time>
      </trkpt>
      <trkpt lat="42.16967" lon="1.90583">
        <ele>1482.9693846897</ele>
        <time>2018-11-13T07:55:22.000Z</time>
      </trkpt>
      <trkpt lat="42.16965" lon="1.90583">
        <ele>1484</ele>
        <time>2018-11-13T07:55:25.000Z</time>
      </trkpt>
      <trkpt lat="42.16963" lon="1.90584">
        <ele>1484.9699968</ele>
        <time>2018-11-13T07:55:28.000Z</time>
      </trkpt>
      <trkpt lat="42.16961" lon="1.90585">
        <ele>1485</ele>
        <time>2018-11-13T07:55:31.000Z</time>
      </trkpt>
      <trkpt lat="42.16958" lon="1.90586">
        <ele>1485.9699968</ele>
        <time>2018-11-13T07:55:34.000Z</time>
      </trkpt>
      <trkpt lat="42.16956" lon="1.90586">
        <ele>1486.9333266963</ele>
        <time>2018-11-13T07:55:36.000Z</time>
      </trkpt>
      <trkpt lat="42.16955" lon="1.90587">
        <ele>1487</ele>
        <time>2018-11-13T07:55:39.000Z</time>
      </trkpt>
      <trkpt lat="42.16952" lon="1.90587">
        <ele>1488</ele>
        <time>2018-11-13T07:55:43.000Z</time>
      </trkpt>
      <trkpt lat="42.1695" lon="1.90586">
        <ele>1488</ele>
        <time>2018-11-13T07:55:46.000Z</time>
      </trkpt>
      <trkpt lat="42.16947" lon="1.90585">
        <ele>1489</ele>
        <time>2018-11-13T07:55:49.000Z</time>
      </trkpt>
      <trkpt lat="42.16945" lon="1.90585">
        <ele>1490</ele>
        <time>2018-11-13T07:55:52.000Z</time>
      </trkpt>
      <trkpt lat="42.16943" lon="1.90585">
        <ele>1490</ele>
        <time>2018-11-13T07:55:54.000Z</time>
      </trkpt>
      <trkpt lat="42.16941" lon="1.90585">
        <ele>1490</ele>
        <time>2018-11-13T07:55:56.000Z</time>
      </trkpt>
      <trkpt lat="42.16939" lon="1.90585">
        <ele>1491</ele>
        <time>2018-11-13T07:55:59.000Z</time>
      </trkpt>
      <trkpt lat="42.16938" lon="1.90588">
        <ele>1491</ele>
        <time>2018-11-13T07:56:02.000Z</time>
      </trkpt>
      <trkpt lat="42.16938" lon="1.90591">
        <ele>1492</ele>
        <time>2018-11-13T07:56:05.000Z</time>
      </trkpt>
      <trkpt lat="42.16936" lon="1.90594">
        <ele>1492.9558776471</ele>
        <time>2018-11-13T07:56:08.000Z</time>
      </trkpt>
      <trkpt lat="42.16933" lon="1.90594">
        <ele>1493</ele>
        <time>2018-11-13T07:56:11.000Z</time>
      </trkpt>
      <trkpt lat="42.16932" lon="1.90592">
        <ele>1493</ele>
        <time>2018-11-13T07:56:13.000Z</time>
      </trkpt>
      <trkpt lat="42.1693" lon="1.90591">
        <ele>1494</ele>
        <time>2018-11-13T07:56:15.000Z</time>
      </trkpt>
      <trkpt lat="42.16928" lon="1.90589">
        <ele>1494</ele>
        <time>2018-11-13T07:56:17.000Z</time>
      </trkpt>
      <trkpt lat="42.16926" lon="1.90588">
        <ele>1494</ele>
        <time>2018-11-13T07:56:19.000Z</time>
      </trkpt>
      <trkpt lat="42.16923" lon="1.90587">
        <ele>1495</ele>
        <time>2018-11-13T07:56:22.000Z</time>
      </trkpt>
      <trkpt lat="42.16921" lon="1.90587">
        <ele>1495.8660685714</ele>
        <time>2018-11-13T07:56:25.000Z</time>
      </trkpt>
      <trkpt lat="42.16919" lon="1.90588">
        <ele>1496</ele>
        <time>2018-11-13T07:56:28.000Z</time>
      </trkpt>
      <trkpt lat="42.16917" lon="1.90589">
        <ele>1498</ele>
        <time>2018-11-13T07:56:32.000Z</time>
      </trkpt>
      <trkpt lat="42.16914" lon="1.9059">
        <ele>1498</ele>
        <time>2018-11-13T07:56:35.000Z</time>
      </trkpt>
      <trkpt lat="42.16913" lon="1.90591">
        <ele>1499.9150968459</ele>
        <time>2018-11-13T07:56:38.000Z</time>
      </trkpt>
      <trkpt lat="42.16911" lon="1.90592">
        <ele>1500.9150968459</ele>
        <time>2018-11-13T07:56:41.000Z</time>
      </trkpt>
      <trkpt lat="42.16909" lon="1.90594">
        <ele>1501</ele>
        <time>2018-11-13T07:56:43.000Z</time>
      </trkpt>
      <trkpt lat="42.16908" lon="1.90596">
        <ele>1501</ele>
        <time>2018-11-13T07:56:46.000Z</time>
      </trkpt>
      <trkpt lat="42.16906" lon="1.90597">
        <ele>1502</ele>
        <time>2018-11-13T07:56:49.000Z</time>
      </trkpt>
      <trkpt lat="42.16904" lon="1.90598">
        <ele>1503</ele>
        <time>2018-11-13T07:56:52.000Z</time>
      </trkpt>
      <trkpt lat="42.16901" lon="1.90598">
        <ele>1504</ele>
        <time>2018-11-13T07:56:55.000Z</time>
      </trkpt>
      <trkpt lat="42.16898" lon="1.90598">
        <ele>1504.966288903</ele>
        <time>2018-11-13T07:56:58.000Z</time>
      </trkpt>
      <trkpt lat="42.16896" lon="1.90597">
        <ele>1505.9662884181</ele>
        <time>2018-11-13T07:57:01.000Z</time>
      </trkpt>
      <trkpt lat="42.16894" lon="1.90597">
        <ele>1506.966288903</ele>
        <time>2018-11-13T07:57:04.000Z</time>
      </trkpt>
      <trkpt lat="42.16892" lon="1.90598">
        <ele>1507</ele>
        <time>2018-11-13T07:57:06.000Z</time>
      </trkpt>
      <trkpt lat="42.1689" lon="1.90598">
        <ele>1507</ele>
        <time>2018-11-13T07:57:09.000Z</time>
      </trkpt>
      <trkpt lat="42.16888" lon="1.90598">
        <ele>1508.9680819194</ele>
        <time>2018-11-13T07:57:12.000Z</time>
      </trkpt>
      <trkpt lat="42.16886" lon="1.90597">
        <ele>1509.8904104785</ele>
        <time>2018-11-13T07:57:14.000Z</time>
      </trkpt>
      <trkpt lat="42.16884" lon="1.90596">
        <ele>1510</ele>
        <time>2018-11-13T07:57:16.000Z</time>
      </trkpt>
      <trkpt lat="42.16882" lon="1.90595">
        <ele>1510</ele>
        <time>2018-11-13T07:57:19.000Z</time>
      </trkpt>
      <trkpt lat="42.1688" lon="1.90595">
        <ele>1511</ele>
        <time>2018-11-13T07:57:23.000Z</time>
      </trkpt>
      <trkpt lat="42.16878" lon="1.90595">
        <ele>1511.8899079337</ele>
        <time>2018-11-13T07:57:25.000Z</time>
      </trkpt>
      <trkpt lat="42.16875" lon="1.90596">
        <ele>1512</ele>
        <time>2018-11-13T07:57:28.000Z</time>
      </trkpt>
      <trkpt lat="42.16874" lon="1.90596">
        <ele>1512</ele>
        <time>2018-11-13T07:57:30.000Z</time>
      </trkpt>
      <trkpt lat="42.16871" lon="1.90596">
        <ele>1512.8783816509</ele>
        <time>2018-11-13T07:57:33.000Z</time>
      </trkpt>
      <trkpt lat="42.16869" lon="1.90598">
        <ele>1513.9659054546</ele>
        <time>2018-11-13T07:57:36.000Z</time>
      </trkpt>
      <trkpt lat="42.16867" lon="1.90599">
        <ele>1514.9662884181</ele>
        <time>2018-11-13T07:57:39.000Z</time>
      </trkpt>
      <trkpt lat="42.16865" lon="1.90599">
        <ele>1515</ele>
        <time>2018-11-13T07:57:42.000Z</time>
      </trkpt>
      <trkpt lat="42.16863" lon="1.90599">
        <ele>1515</ele>
        <time>2018-11-13T07:57:44.000Z</time>
      </trkpt>
      <trkpt lat="42.1686" lon="1.90599">
        <ele>1516</ele>
        <time>2018-11-13T07:57:47.000Z</time>
      </trkpt>
      <trkpt lat="42.16858" lon="1.906">
        <ele>1516</ele>
        <time>2018-11-13T07:57:49.000Z</time>
      </trkpt>
      <trkpt lat="42.16856" lon="1.90601">
        <ele>1517</ele>
        <time>2018-11-13T07:57:52.000Z</time>
      </trkpt>
      <trkpt lat="42.16854" lon="1.90601">
        <ele>1517.9666633482</ele>
        <time>2018-11-13T07:57:55.000Z</time>
      </trkpt>
      <trkpt lat="42.16851" lon="1.90601">
        <ele>1518</ele>
        <time>2018-11-13T07:57:58.000Z</time>
      </trkpt>
      <trkpt lat="42.16849" lon="1.90601">
        <ele>1518</ele>
        <time>2018-11-13T07:58:00.000Z</time>
      </trkpt>
      <trkpt lat="42.16847" lon="1.90602">
        <ele>1519</ele>
        <time>2018-11-13T07:58:02.000Z</time>
      </trkpt>
      <trkpt lat="42.16845" lon="1.90603">
        <ele>1519.9670295665</ele>
        <time>2018-11-13T07:58:04.000Z</time>
      </trkpt>
      <trkpt lat="42.16843" lon="1.90603">
        <ele>1520</ele>
        <time>2018-11-13T07:58:07.000Z</time>
      </trkpt>
      <trkpt lat="42.1684" lon="1.90603">
        <ele>1521</ele>
        <time>2018-11-13T07:58:10.000Z</time>
      </trkpt>
      <trkpt lat="42.16838" lon="1.90604">
        <ele>1521</ele>
        <time>2018-11-13T07:58:12.000Z</time>
      </trkpt>
      <trkpt lat="42.16836" lon="1.90604">
        <ele>1522</ele>
        <time>2018-11-13T07:58:14.000Z</time>
      </trkpt>
      <trkpt lat="42.16834" lon="1.90605">
        <ele>1522</ele>
        <time>2018-11-13T07:58:16.000Z</time>
      </trkpt>
      <trkpt lat="42.16832" lon="1.90605">
        <ele>1522</ele>
        <time>2018-11-13T07:58:18.000Z</time>
      </trkpt>
      <trkpt lat="42.1683" lon="1.90606">
        <ele>1522</ele>
        <time>2018-11-13T07:58:20.000Z</time>
      </trkpt>
      <trkpt lat="42.16828" lon="1.90606">
        <ele>1523</ele>
        <time>2018-11-13T07:58:22.000Z</time>
      </trkpt>
      <trkpt lat="42.16826" lon="1.90608">
        <ele>1523</ele>
        <time>2018-11-13T07:58:24.000Z</time>
      </trkpt>
      <trkpt lat="42.16825" lon="1.90609">
        <ele>1524</ele>
        <time>2018-11-13T07:58:26.000Z</time>
      </trkpt>
      <trkpt lat="42.16823" lon="1.9061">
        <ele>1524</ele>
        <time>2018-11-13T07:58:28.000Z</time>
      </trkpt>
      <trkpt lat="42.16821" lon="1.90611">
        <ele>1524.917800533</ele>
        <time>2018-11-13T07:58:30.000Z</time>
      </trkpt>
      <trkpt lat="42.16819" lon="1.90611">
        <ele>1525</ele>
        <time>2018-11-13T07:58:32.000Z</time>
      </trkpt>
      <trkpt lat="42.16817" lon="1.90611">
        <ele>1525.9699968</ele>
        <time>2018-11-13T07:58:34.000Z</time>
      </trkpt>
      <trkpt lat="42.16815" lon="1.90611">
        <ele>1526</ele>
        <time>2018-11-13T07:58:37.000Z</time>
      </trkpt>
      <trkpt lat="42.16813" lon="1.90612">
        <ele>1527</ele>
        <time>2018-11-13T07:58:40.000Z</time>
      </trkpt>
      <trkpt lat="42.16812" lon="1.90614">
        <ele>1527</ele>
        <time>2018-11-13T07:58:44.000Z</time>
      </trkpt>
      <trkpt lat="42.1681" lon="1.90616">
        <ele>1528.9150968459</ele>
        <time>2018-11-13T07:58:47.000Z</time>
      </trkpt>
      <trkpt lat="42.16808" lon="1.90616">
        <ele>1529</ele>
        <time>2018-11-13T07:58:50.000Z</time>
      </trkpt>
      <trkpt lat="42.16805" lon="1.90615">
        <ele>1529.9699968</ele>
        <time>2018-11-13T07:58:53.000Z</time>
      </trkpt>
      <trkpt lat="42.16803" lon="1.90616">
        <ele>1530</ele>
        <time>2018-11-13T07:58:56.000Z</time>
      </trkpt>
      <trkpt lat="42.16801" lon="1.90615">
        <ele>1530.9696938353</ele>
        <time>2018-11-13T07:58:58.000Z</time>
      </trkpt>
      <trkpt lat="42.16799" lon="1.90614">
        <ele>1531</ele>
        <time>2018-11-13T07:59:00.000Z</time>
      </trkpt>
      <trkpt lat="42.16796" lon="1.90613">
        <ele>1532</ele>
        <time>2018-11-13T07:59:03.000Z</time>
      </trkpt>
      <trkpt lat="42.16794" lon="1.90612">
        <ele>1532.9571386776</ele>
        <time>2018-11-13T07:59:06.000Z</time>
      </trkpt>
      <trkpt lat="42.16792" lon="1.90612">
        <ele>1533</ele>
        <time>2018-11-13T07:59:08.000Z</time>
      </trkpt>
      <trkpt lat="42.1679" lon="1.90611">
        <ele>1533</ele>
        <time>2018-11-13T07:59:10.000Z</time>
      </trkpt>
      <trkpt lat="42.16788" lon="1.9061">
        <ele>1532.9699968</ele>
        <time>2018-11-13T07:59:12.000Z</time>
      </trkpt>
      <trkpt lat="42.16786" lon="1.90611">
        <ele>1534</ele>
        <time>2018-11-13T07:59:17.000Z</time>
      </trkpt>
      <trkpt lat="42.16784" lon="1.90612">
        <ele>1534.9687466667</ele>
        <time>2018-11-13T07:59:20.000Z</time>
      </trkpt>
      <trkpt lat="42.16782" lon="1.90611">
        <ele>1535</ele>
        <time>2018-11-13T07:59:22.000Z</time>
      </trkpt>
      <trkpt lat="42.1678" lon="1.90612">
        <ele>1535</ele>
        <time>2018-11-13T07:59:24.000Z</time>
      </trkpt>
      <trkpt lat="42.16778" lon="1.90614">
        <ele>1536</ele>
        <time>2018-11-13T07:59:29.000Z</time>
      </trkpt>
      <trkpt lat="42.16776" lon="1.90615">
        <ele>1536.9693846897</ele>
        <time>2018-11-13T07:59:33.000Z</time>
      </trkpt>
      <trkpt lat="42.16774" lon="1.90617">
        <ele>1537</ele>
        <time>2018-11-13T07:59:36.000Z</time>
      </trkpt>
      <trkpt lat="42.16772" lon="1.90619">
        <ele>1538</ele>
        <time>2018-11-13T07:59:39.000Z</time>
      </trkpt>
      <trkpt lat="42.1677" lon="1.90621">
        <ele>1539</ele>
        <time>2018-11-13T07:59:43.000Z</time>
      </trkpt>
      <trkpt lat="42.16768" lon="1.90622">
        <ele>1539.9571386776</ele>
        <time>2018-11-13T07:59:46.000Z</time>
      </trkpt>
      <trkpt lat="42.16766" lon="1.90624">
        <ele>1540</ele>
        <time>2018-11-13T07:59:49.000Z</time>
      </trkpt>
      <trkpt lat="42.16764" lon="1.90625">
        <ele>1541.9680819194</ele>
        <time>2018-11-13T07:59:52.000Z</time>
      </trkpt>
      <trkpt lat="42.16762" lon="1.90623">
        <ele>1541</ele>
        <time>2018-11-13T08:00:19.000Z</time>
      </trkpt>
      <trkpt lat="42.1676" lon="1.90621">
        <ele>1541</ele>
        <time>2018-11-13T08:00:21.000Z</time>
      </trkpt>
      <trkpt lat="42.16758" lon="1.90618">
        <ele>1541</ele>
        <time>2018-11-13T08:00:23.000Z</time>
      </trkpt>
      <trkpt lat="42.16758" lon="1.90616">
        <ele>1542</ele>
        <time>2018-11-13T08:00:25.000Z</time>
      </trkpt>
      <trkpt lat="42.16756" lon="1.90614">
        <ele>1542.9699968</ele>
        <time>2018-11-13T08:00:28.000Z</time>
      </trkpt>
      <trkpt lat="42.16754" lon="1.90612">
        <ele>1543.9699968</ele>
        <time>2018-11-13T08:00:31.000Z</time>
      </trkpt>
      <trkpt lat="42.16752" lon="1.90609">
        <ele>1544.9571386776</ele>
        <time>2018-11-13T08:00:34.000Z</time>
      </trkpt>
      <trkpt lat="42.1675" lon="1.90607">
        <ele>1545</ele>
        <time>2018-11-13T08:00:36.000Z</time>
      </trkpt>
      <trkpt lat="42.16749" lon="1.90605">
        <ele>1545.9699968</ele>
        <time>2018-11-13T08:00:38.000Z</time>
      </trkpt>
      <trkpt lat="42.16747" lon="1.90603">
        <ele>1546</ele>
        <time>2018-11-13T08:00:40.000Z</time>
      </trkpt>
      <trkpt lat="42.16746" lon="1.90601">
        <ele>1546</ele>
        <time>2018-11-13T08:00:42.000Z</time>
      </trkpt>
      <trkpt lat="42.16745" lon="1.90598">
        <ele>1546</ele>
        <time>2018-11-13T08:00:45.000Z</time>
      </trkpt>
      <trkpt lat="42.16743" lon="1.90597">
        <ele>1547</ele>
        <time>2018-11-13T08:00:48.000Z</time>
      </trkpt>
      <trkpt lat="42.16742" lon="1.90595">
        <ele>1548</ele>
        <time>2018-11-13T08:00:51.000Z</time>
      </trkpt>
      <trkpt lat="42.16741" lon="1.90593">
        <ele>1549</ele>
        <time>2018-11-13T08:00:54.000Z</time>
      </trkpt>
      <trkpt lat="42.16741" lon="1.9059">
        <ele>1550</ele>
        <time>2018-11-13T08:00:57.000Z</time>
      </trkpt>
      <trkpt lat="42.16741" lon="1.90587">
        <ele>1550</ele>
        <time>2018-11-13T08:01:01.000Z</time>
      </trkpt>
      <trkpt lat="42.1674" lon="1.90584">
        <ele>1550</ele>
        <time>2018-11-13T08:01:04.000Z</time>
      </trkpt>
      <trkpt lat="42.16738" lon="1.90583">
        <ele>1551.9693846897</ele>
        <time>2018-11-13T08:01:08.000Z</time>
      </trkpt>
      <trkpt lat="42.16736" lon="1.90582">
        <ele>1552.9696938353</ele>
        <time>2018-11-13T08:01:11.000Z</time>
      </trkpt>
      <trkpt lat="42.16735" lon="1.9058">
        <ele>1554</ele>
        <time>2018-11-13T08:01:14.000Z</time>
      </trkpt>
      <trkpt lat="42.16733" lon="1.90578">
        <ele>1554</ele>
        <time>2018-11-13T08:01:23.000Z</time>
      </trkpt>
      <trkpt lat="42.16731" lon="1.90576">
        <ele>1556</ele>
        <time>2018-11-13T08:01:27.000Z</time>
      </trkpt>
      <trkpt lat="42.16729" lon="1.90574">
        <ele>1556</ele>
        <time>2018-11-13T08:01:30.000Z</time>
      </trkpt>
      <trkpt lat="42.16728" lon="1.90573">
        <ele>1556</ele>
        <time>2018-11-13T08:01:33.000Z</time>
      </trkpt>
      <trkpt lat="42.16727" lon="1.9057">
        <ele>1557</ele>
        <time>2018-11-13T08:01:36.000Z</time>
      </trkpt>
      <trkpt lat="42.16725" lon="1.90568">
        <ele>1558.9571386776</ele>
        <time>2018-11-13T08:01:40.000Z</time>
      </trkpt>
      <trkpt lat="42.16725" lon="1.90565">
        <ele>1560</ele>
        <time>2018-11-13T08:01:48.000Z</time>
      </trkpt>
      <trkpt lat="42.16725" lon="1.90563">
        <ele>1561</ele>
        <time>2018-11-13T08:01:55.000Z</time>
      </trkpt>
      <trkpt lat="42.16725" lon="1.9056">
        <ele>1561</ele>
        <time>2018-11-13T08:01:59.000Z</time>
      </trkpt>
      <trkpt lat="42.16724" lon="1.90557">
        <ele>1560.9677383836</ele>
        <time>2018-11-13T08:02:02.000Z</time>
      </trkpt>
      <trkpt lat="42.16724" lon="1.90554">
        <ele>1561</ele>
        <time>2018-11-13T08:02:04.000Z</time>
      </trkpt>
      <trkpt lat="42.16723" lon="1.90551">
        <ele>1561</ele>
        <time>2018-11-13T08:02:07.000Z</time>
      </trkpt>
      <trkpt lat="42.16723" lon="1.90548">
        <ele>1561</ele>
        <time>2018-11-13T08:02:10.000Z</time>
      </trkpt>
      <trkpt lat="42.16723" lon="1.90545">
        <ele>1560.0761907084</ele>
        <time>2018-11-13T08:02:13.000Z</time>
      </trkpt>
      <trkpt lat="42.16722" lon="1.90542">
        <ele>1560</ele>
        <time>2018-11-13T08:02:16.000Z</time>
      </trkpt>
      <trkpt lat="42.16722" lon="1.90539">
        <ele>1560</ele>
        <time>2018-11-13T08:02:18.000Z</time>
      </trkpt>
      <trkpt lat="42.16721" lon="1.90536">
        <ele>1559.0322611724</ele>
        <time>2018-11-13T08:02:21.000Z</time>
      </trkpt>
      <trkpt lat="42.1672" lon="1.90533">
        <ele>1559</ele>
        <time>2018-11-13T08:02:23.000Z</time>
      </trkpt>
      <trkpt lat="42.16721" lon="1.9053">
        <ele>1559</ele>
        <time>2018-11-13T08:02:26.000Z</time>
      </trkpt>
      <trkpt lat="42.16719" lon="1.90528">
        <ele>1560</ele>
        <time>2018-11-13T08:02:29.000Z</time>
      </trkpt>
      <trkpt lat="42.16718" lon="1.90526">
        <ele>1560</ele>
        <time>2018-11-13T08:02:32.000Z</time>
      </trkpt>
      <trkpt lat="42.16717" lon="1.90522">
        <ele>1559.0673107692</ele>
        <time>2018-11-13T08:02:35.000Z</time>
      </trkpt>
      <trkpt lat="42.16716" lon="1.90519">
        <ele>1560</ele>
        <time>2018-11-13T08:02:46.000Z</time>
      </trkpt>
      <trkpt lat="42.16715" lon="1.90517">
        <ele>1561</ele>
        <time>2018-11-13T08:02:48.000Z</time>
      </trkpt>
      <trkpt lat="42.16714" lon="1.90515">
        <ele>1560</ele>
        <time>2018-11-13T08:02:50.000Z</time>
      </trkpt>
      <trkpt lat="42.16713" lon="1.90512">
        <ele>1561.9699968</ele>
        <time>2018-11-13T08:02:53.000Z</time>
      </trkpt>
      <trkpt lat="42.16712" lon="1.90509">
        <ele>1562.9571386776</ele>
        <time>2018-11-13T08:02:56.000Z</time>
      </trkpt>
      <trkpt lat="42.16712" lon="1.90507">
        <ele>1563</ele>
        <time>2018-11-13T08:02:58.000Z</time>
      </trkpt>
      <trkpt lat="42.16712" lon="1.90504">
        <ele>1563</ele>
        <time>2018-11-13T08:03:00.000Z</time>
      </trkpt>
      <trkpt lat="42.16711" lon="1.90502">
        <ele>1563</ele>
        <time>2018-11-13T08:03:02.000Z</time>
      </trkpt>
      <trkpt lat="42.16711" lon="1.90499">
        <ele>1563</ele>
        <time>2018-11-13T08:03:04.000Z</time>
      </trkpt>
      <trkpt lat="42.16709" lon="1.90496">
        <ele>1563</ele>
        <time>2018-11-13T08:03:07.000Z</time>
      </trkpt>
      <trkpt lat="42.16709" lon="1.90494">
        <ele>1563.0300032</ele>
        <time>2018-11-13T08:03:25.000Z</time>
      </trkpt>
      <trkpt lat="42.16707" lon="1.90494">
        <ele>1564</ele>
        <time>2018-11-13T08:03:55.000Z</time>
      </trkpt>
      <trkpt lat="42.16709" lon="1.90496">
        <ele>1564</ele>
        <time>2018-11-13T08:04:11.000Z</time>
      </trkpt>
      <trkpt lat="42.1671" lon="1.90498">
        <ele>1565</ele>
        <time>2018-11-13T08:06:39.000Z</time>
      </trkpt>
      <trkpt lat="42.16711" lon="1.90501">
        <ele>1565</ele>
        <time>2018-11-13T08:06:41.000Z</time>
      </trkpt>
      <trkpt lat="42.16712" lon="1.90504">
        <ele>1565</ele>
        <time>2018-11-13T08:06:43.000Z</time>
      </trkpt>
      <trkpt lat="42.16712" lon="1.90507">
        <ele>1565</ele>
        <time>2018-11-13T08:06:45.000Z</time>
      </trkpt>
      <trkpt lat="42.16712" lon="1.90509">
        <ele>1563.0340945454</ele>
        <time>2018-11-13T08:06:47.000Z</time>
      </trkpt>
      <trkpt lat="42.16713" lon="1.90512">
        <ele>1564</ele>
        <time>2018-11-13T08:06:50.000Z</time>
      </trkpt>
      <trkpt lat="42.16714" lon="1.90515">
        <ele>1564</ele>
        <time>2018-11-13T08:06:53.000Z</time>
      </trkpt>
      <trkpt lat="42.16715" lon="1.90517">
        <ele>1563.1181795967</ele>
        <time>2018-11-13T08:06:55.000Z</time>
      </trkpt>
      <trkpt lat="42.16716" lon="1.9052">
        <ele>1562.0300032</ele>
        <time>2018-11-13T08:06:57.000Z</time>
      </trkpt>
      <trkpt lat="42.16717" lon="1.90522">
        <ele>1562</ele>
        <time>2018-11-13T08:06:59.000Z</time>
      </trkpt>
      <trkpt lat="42.16717" lon="1.90525">
        <ele>1562</ele>
        <time>2018-11-13T08:07:01.000Z</time>
      </trkpt>
      <trkpt lat="42.16718" lon="1.90528">
        <ele>1562</ele>
        <time>2018-11-13T08:07:04.000Z</time>
      </trkpt>
      <trkpt lat="42.16719" lon="1.9053">
        <ele>1561.0300032</ele>
        <time>2018-11-13T08:07:07.000Z</time>
      </trkpt>
      <trkpt lat="42.1672" lon="1.90532">
        <ele>1561</ele>
        <time>2018-11-13T08:07:09.000Z</time>
      </trkpt>
      <trkpt lat="42.1672" lon="1.90534">
        <ele>1561</ele>
        <time>2018-11-13T08:07:11.000Z</time>
      </trkpt>
      <trkpt lat="42.16721" lon="1.90537">
        <ele>1561</ele>
        <time>2018-11-13T08:07:13.000Z</time>
      </trkpt>
      <trkpt lat="42.16721" lon="1.9054">
        <ele>1561</ele>
        <time>2018-11-13T08:07:15.000Z</time>
      </trkpt>
      <trkpt lat="42.16722" lon="1.90543">
        <ele>1562</ele>
        <time>2018-11-13T08:07:17.000Z</time>
      </trkpt>
      <trkpt lat="42.16723" lon="1.90546">
        <ele>1562</ele>
        <time>2018-11-13T08:07:20.000Z</time>
      </trkpt>
      <trkpt lat="42.16723" lon="1.90549">
        <ele>1563</ele>
        <time>2018-11-13T08:07:22.000Z</time>
      </trkpt>
      <trkpt lat="42.16723" lon="1.90552">
        <ele>1563</ele>
        <time>2018-11-13T08:07:25.000Z</time>
      </trkpt>
      <trkpt lat="42.16724" lon="1.90554">
        <ele>1563</ele>
        <time>2018-11-13T08:07:27.000Z</time>
      </trkpt>
      <trkpt lat="42.16724" lon="1.90557">
        <ele>1563.8738684717</ele>
        <time>2018-11-13T08:07:30.000Z</time>
      </trkpt>
      <trkpt lat="42.16725" lon="1.9056">
        <ele>1563.8818204033</ele>
        <time>2018-11-13T08:07:33.000Z</time>
      </trkpt>
      <trkpt lat="42.16725" lon="1.90562">
        <ele>1563</ele>
        <time>2018-11-13T08:07:38.000Z</time>
      </trkpt>
      <trkpt lat="42.16724" lon="1.90565">
        <ele>1563</ele>
        <time>2018-11-13T08:07:50.000Z</time>
      </trkpt>
      <trkpt lat="42.16726" lon="1.90567">
        <ele>1562</ele>
        <time>2018-11-13T08:07:54.000Z</time>
      </trkpt>
      <trkpt lat="42.16727" lon="1.90569">
        <ele>1561.0300032</ele>
        <time>2018-11-13T08:07:56.000Z</time>
      </trkpt>
      <trkpt lat="42.16729" lon="1.90571">
        <ele>1560.0396040859</ele>
        <time>2018-11-13T08:07:58.000Z</time>
      </trkpt>
      <trkpt lat="42.1673" lon="1.90574">
        <ele>1559.0833422222</ele>
        <time>2018-11-13T08:08:00.000Z</time>
      </trkpt>
      <trkpt lat="42.16732" lon="1.90576">
        <ele>1558.0329704335</ele>
        <time>2018-11-13T08:08:03.000Z</time>
      </trkpt>
      <trkpt lat="42.16733" lon="1.90577">
        <ele>1558</ele>
        <time>2018-11-13T08:08:05.000Z</time>
      </trkpt>
      <trkpt lat="42.16735" lon="1.9058">
        <ele>1557.0934528011</ele>
        <time>2018-11-13T08:08:08.000Z</time>
      </trkpt>
      <trkpt lat="42.16736" lon="1.90583">
        <ele>1556</ele>
        <time>2018-11-13T08:08:12.000Z</time>
      </trkpt>
      <trkpt lat="42.16737" lon="1.90584">
        <ele>1555.0319180806</ele>
        <time>2018-11-13T08:08:15.000Z</time>
      </trkpt>
      <trkpt lat="42.16739" lon="1.90586">
        <ele>1555</ele>
        <time>2018-11-13T08:08:18.000Z</time>
      </trkpt>
      <trkpt lat="42.1674" lon="1.90588">
        <ele>1554</ele>
        <time>2018-11-13T08:08:21.000Z</time>
      </trkpt>
      <trkpt lat="42.1674" lon="1.90591">
        <ele>1553.9684177906</ele>
        <time>2018-11-13T08:08:25.000Z</time>
      </trkpt>
      <trkpt lat="42.1674" lon="1.90593">
        <ele>1554</ele>
        <time>2018-11-13T08:08:27.000Z</time>
      </trkpt>
      <trkpt lat="42.16742" lon="1.90596">
        <ele>1553.0315822094</ele>
        <time>2018-11-13T08:08:31.000Z</time>
      </trkpt>
      <trkpt lat="42.16743" lon="1.90599">
        <ele>1552</ele>
        <time>2018-11-13T08:08:33.000Z</time>
      </trkpt>
      <trkpt lat="42.16745" lon="1.90601">
        <ele>1551</ele>
        <time>2018-11-13T08:08:37.000Z</time>
      </trkpt>
      <trkpt lat="42.16746" lon="1.90604">
        <ele>1551</ele>
        <time>2018-11-13T08:08:39.000Z</time>
      </trkpt>
      <trkpt lat="42.16748" lon="1.90605">
        <ele>1549</ele>
        <time>2018-11-13T08:08:43.000Z</time>
      </trkpt>
      <trkpt lat="42.1675" lon="1.90607">
        <ele>1548</ele>
        <time>2018-11-13T08:08:45.000Z</time>
      </trkpt>
      <trkpt lat="42.16752" lon="1.90609">
        <ele>1548</ele>
        <time>2018-11-13T08:08:47.000Z</time>
      </trkpt>
      <trkpt lat="42.16754" lon="1.90611">
        <ele>1548</ele>
        <time>2018-11-13T08:08:50.000Z</time>
      </trkpt>
      <trkpt lat="42.16756" lon="1.90613">
        <ele>1547.0312533333</ele>
        <time>2018-11-13T08:08:52.000Z</time>
      </trkpt>
      <trkpt lat="42.16757" lon="1.90615">
        <ele>1546.0582584598</ele>
        <time>2018-11-13T08:08:54.000Z</time>
      </trkpt>
      <trkpt lat="42.1676" lon="1.90618">
        <ele>1546</ele>
        <time>2018-11-13T08:08:56.000Z</time>
      </trkpt>
      <trkpt lat="42.16761" lon="1.90619">
        <ele>1545.06944</ele>
        <time>2018-11-13T08:08:57.000Z</time>
      </trkpt>
      <trkpt lat="42.16763" lon="1.9062">
        <ele>1545</ele>
        <time>2018-11-13T08:08:59.000Z</time>
      </trkpt>
      <trkpt lat="42.16765" lon="1.90622">
        <ele>1545</ele>
        <time>2018-11-13T08:09:01.000Z</time>
      </trkpt>
      <trkpt lat="42.16766" lon="1.90625">
        <ele>1545</ele>
        <time>2018-11-13T08:09:03.000Z</time>
      </trkpt>
      <trkpt lat="42.16768" lon="1.90627">
        <ele>1546</ele>
        <time>2018-11-13T08:09:06.000Z</time>
      </trkpt>
      <trkpt lat="42.16771" lon="1.90628">
        <ele>1546</ele>
        <time>2018-11-13T08:09:09.000Z</time>
      </trkpt>
      <trkpt lat="42.16772" lon="1.9063">
        <ele>1546</ele>
        <time>2018-11-13T08:09:11.000Z</time>
      </trkpt>
      <trkpt lat="42.16773" lon="1.90632">
        <ele>1547</ele>
        <time>2018-11-13T08:09:13.000Z</time>
      </trkpt>
      <trkpt lat="42.16772" lon="1.90635">
        <ele>1547.7317106167</ele>
        <time>2018-11-13T08:09:15.000Z</time>
      </trkpt>
      <trkpt lat="42.16771" lon="1.90637">
        <ele>1548</ele>
        <time>2018-11-13T08:09:17.000Z</time>
      </trkpt>
      <trkpt lat="42.16771" lon="1.9064">
        <ele>1549</ele>
        <time>2018-11-13T08:09:21.000Z</time>
      </trkpt>
      <trkpt lat="42.16773" lon="1.9064">
        <ele>1550.9238092916</ele>
        <time>2018-11-13T08:09:24.000Z</time>
      </trkpt>
      <trkpt lat="42.16775" lon="1.90642">
        <ele>1552</ele>
        <time>2018-11-13T08:09:27.000Z</time>
      </trkpt>
      <trkpt lat="42.16774" lon="1.90645">
        <ele>1553</ele>
        <time>2018-11-13T08:09:30.000Z</time>
      </trkpt>
      <trkpt lat="42.16775" lon="1.90647">
        <ele>1553</ele>
        <time>2018-11-13T08:09:34.000Z</time>
      </trkpt>
      <trkpt lat="42.16775" lon="1.9065">
        <ele>1553.95312</ele>
        <time>2018-11-13T08:09:38.000Z</time>
      </trkpt>
      <trkpt lat="42.16776" lon="1.90652">
        <ele>1555</ele>
        <time>2018-11-13T08:09:42.000Z</time>
      </trkpt>
      <trkpt lat="42.16778" lon="1.90654">
        <ele>1556</ele>
        <time>2018-11-13T08:09:46.000Z</time>
      </trkpt>
      <trkpt lat="42.1678" lon="1.90656">
        <ele>1557</ele>
        <time>2018-11-13T08:09:50.000Z</time>
      </trkpt>
      <trkpt lat="42.1678" lon="1.90658">
        <ele>1558</ele>
        <time>2018-11-13T08:09:54.000Z</time>
      </trkpt>
      <trkpt lat="42.16781" lon="1.90661">
        <ele>1558</ele>
        <time>2018-11-13T08:09:56.000Z</time>
      </trkpt>
      <trkpt lat="42.16782" lon="1.90664">
        <ele>1558</ele>
        <time>2018-11-13T08:09:59.000Z</time>
      </trkpt>
      <trkpt lat="42.16783" lon="1.90666">
        <ele>1558</ele>
        <time>2018-11-13T08:10:02.000Z</time>
      </trkpt>
      <trkpt lat="42.16784" lon="1.90668">
        <ele>1559</ele>
        <time>2018-11-13T08:10:05.000Z</time>
      </trkpt>
      <trkpt lat="42.16786" lon="1.9067">
        <ele>1559</ele>
        <time>2018-11-13T08:10:09.000Z</time>
      </trkpt>
      <trkpt lat="42.16787" lon="1.90672">
        <ele>1560.93056</ele>
        <time>2018-11-13T08:10:13.000Z</time>
      </trkpt>
      <trkpt lat="42.16789" lon="1.90674">
        <ele>1561</ele>
        <time>2018-11-13T08:10:17.000Z</time>
      </trkpt>
      <trkpt lat="42.16789" lon="1.90676">
        <ele>1562</ele>
        <time>2018-11-13T08:10:20.000Z</time>
      </trkpt>
      <trkpt lat="42.16789" lon="1.90679">
        <ele>1563</ele>
        <time>2018-11-13T08:10:23.000Z</time>
      </trkpt>
      <trkpt lat="42.1679" lon="1.90682">
        <ele>1564</ele>
        <time>2018-11-13T08:10:27.000Z</time>
      </trkpt>
      <trkpt lat="42.1679" lon="1.90684">
        <ele>1564</ele>
        <time>2018-11-13T08:10:31.000Z</time>
      </trkpt>
      <trkpt lat="42.16792" lon="1.90685">
        <ele>1566</ele>
        <time>2018-11-13T08:10:37.000Z</time>
      </trkpt>
      <trkpt lat="42.16794" lon="1.90687">
        <ele>1566</ele>
        <time>2018-11-13T08:10:40.000Z</time>
      </trkpt>
      <trkpt lat="42.16793" lon="1.90691">
        <ele>1567</ele>
        <time>2018-11-13T08:10:43.000Z</time>
      </trkpt>
      <trkpt lat="42.16792" lon="1.90693">
        <ele>1568</ele>
        <time>2018-11-13T08:10:45.000Z</time>
      </trkpt>
      <trkpt lat="42.16791" lon="1.90695">
        <ele>1568</ele>
        <time>2018-11-13T08:10:47.000Z</time>
      </trkpt>
      <trkpt lat="42.16791" lon="1.90697">
        <ele>1568.9420287166</ele>
        <time>2018-11-13T08:10:51.000Z</time>
      </trkpt>
      <trkpt lat="42.16792" lon="1.907">
        <ele>1569</ele>
        <time>2018-11-13T08:10:54.000Z</time>
      </trkpt>
      <trkpt lat="42.16791" lon="1.90703">
        <ele>1570.9680819194</ele>
        <time>2018-11-13T08:10:57.000Z</time>
      </trkpt>
      <trkpt lat="42.16791" lon="1.90706">
        <ele>1571</ele>
        <time>2018-11-13T08:10:59.000Z</time>
      </trkpt>
      <trkpt lat="42.16791" lon="1.90709">
        <ele>1571</ele>
        <time>2018-11-13T08:11:01.000Z</time>
      </trkpt>
      <trkpt lat="42.16791" lon="1.90711">
        <ele>1571</ele>
        <time>2018-11-13T08:11:03.000Z</time>
      </trkpt>
      <trkpt lat="42.1679" lon="1.90713">
        <ele>1571</ele>
        <time>2018-11-13T08:11:05.000Z</time>
      </trkpt>
      <trkpt lat="42.1679" lon="1.90717">
        <ele>1572</ele>
        <time>2018-11-13T08:11:07.000Z</time>
      </trkpt>
      <trkpt lat="42.16791" lon="1.9072">
        <ele>1572</ele>
        <time>2018-11-13T08:11:09.000Z</time>
      </trkpt>
      <trkpt lat="42.16791" lon="1.90722">
        <ele>1572</ele>
        <time>2018-11-13T08:11:11.000Z</time>
      </trkpt>
      <trkpt lat="42.16792" lon="1.90726">
        <ele>1572</ele>
        <time>2018-11-13T08:11:14.000Z</time>
      </trkpt>
      <trkpt lat="42.16792" lon="1.90729">
        <ele>1572</ele>
        <time>2018-11-13T08:11:16.000Z</time>
      </trkpt>
      <trkpt lat="42.16791" lon="1.90732">
        <ele>1572.9150968459</ele>
        <time>2018-11-13T08:11:18.000Z</time>
      </trkpt>
      <trkpt lat="42.16792" lon="1.90735">
        <ele>1574</ele>
        <time>2018-11-13T08:11:20.000Z</time>
      </trkpt>
      <trkpt lat="42.16791" lon="1.90738">
        <ele>1574</ele>
        <time>2018-11-13T08:11:22.000Z</time>
      </trkpt>
      <trkpt lat="42.1679" lon="1.90741">
        <ele>1574</ele>
        <time>2018-11-13T08:11:24.000Z</time>
      </trkpt>
      <trkpt lat="42.16789" lon="1.90744">
        <ele>1575</ele>
        <time>2018-11-13T08:11:26.000Z</time>
      </trkpt>
      <trkpt lat="42.16789" lon="1.90747">
        <ele>1575</ele>
        <time>2018-11-13T08:11:28.000Z</time>
      </trkpt>
      <trkpt lat="42.16787" lon="1.9075">
        <ele>1575</ele>
        <time>2018-11-13T08:11:30.000Z</time>
      </trkpt>
      <trkpt lat="42.16787" lon="1.90753">
        <ele>1575</ele>
        <time>2018-11-13T08:11:33.000Z</time>
      </trkpt>
      <trkpt lat="42.16786" lon="1.90756">
        <ele>1576</ele>
        <time>2018-11-13T08:11:35.000Z</time>
      </trkpt>
      <trkpt lat="42.16786" lon="1.90759">
        <ele>1576</ele>
        <time>2018-11-13T08:11:38.000Z</time>
      </trkpt>
      <trkpt lat="42.16786" lon="1.90762">
        <ele>1576</ele>
        <time>2018-11-13T08:11:40.000Z</time>
      </trkpt>
      <trkpt lat="42.16787" lon="1.90765">
        <ele>1577</ele>
        <time>2018-11-13T08:11:42.000Z</time>
      </trkpt>
      <trkpt lat="42.16788" lon="1.90768">
        <ele>1577</ele>
        <time>2018-11-13T08:11:44.000Z</time>
      </trkpt>
      <trkpt lat="42.16788" lon="1.90771">
        <ele>1577</ele>
        <time>2018-11-13T08:11:47.000Z</time>
      </trkpt>
      <trkpt lat="42.16789" lon="1.90773">
        <ele>1577</ele>
        <time>2018-11-13T08:11:49.000Z</time>
      </trkpt>
      <trkpt lat="42.1679" lon="1.90776">
        <ele>1578</ele>
        <time>2018-11-13T08:11:52.000Z</time>
      </trkpt>
      <trkpt lat="42.16791" lon="1.90779">
        <ele>1578</ele>
        <time>2018-11-13T08:11:55.000Z</time>
      </trkpt>
      <trkpt lat="42.16791" lon="1.90782">
        <ele>1579</ele>
        <time>2018-11-13T08:11:58.000Z</time>
      </trkpt>
      <trkpt lat="42.16791" lon="1.90785">
        <ele>1579.9699968</ele>
        <time>2018-11-13T08:12:01.000Z</time>
      </trkpt>
      <trkpt lat="42.1679" lon="1.90788">
        <ele>1581</ele>
        <time>2018-11-13T08:12:04.000Z</time>
      </trkpt>
      <trkpt lat="42.1679" lon="1.90791">
        <ele>1581.9571386776</ele>
        <time>2018-11-13T08:12:07.000Z</time>
      </trkpt>
      <trkpt lat="42.1679" lon="1.90794">
        <ele>1582</ele>
        <time>2018-11-13T08:12:10.000Z</time>
      </trkpt>
      <trkpt lat="42.1679" lon="1.90797">
        <ele>1583</ele>
        <time>2018-11-13T08:12:14.000Z</time>
      </trkpt>
      <trkpt lat="42.16791" lon="1.90799">
        <ele>1584</ele>
        <time>2018-11-13T08:12:20.000Z</time>
      </trkpt>
      <trkpt lat="42.16791" lon="1.90802">
        <ele>1586.9436622257</ele>
        <time>2018-11-13T08:12:26.000Z</time>
      </trkpt>
      <trkpt lat="42.1679" lon="1.90805">
        <ele>1587</ele>
        <time>2018-11-13T08:12:30.000Z</time>
      </trkpt>
      <trkpt lat="42.16789" lon="1.90807">
        <ele>1587</ele>
        <time>2018-11-13T08:12:34.000Z</time>
      </trkpt>
      <trkpt lat="42.1679" lon="1.90809">
        <ele>1588</ele>
        <time>2018-11-13T08:12:38.000Z</time>
      </trkpt>
      <trkpt lat="42.16792" lon="1.90811">
        <ele>1589.9699968</ele>
        <time>2018-11-13T08:12:42.000Z</time>
      </trkpt>
      <trkpt lat="42.16792" lon="1.90814">
        <ele>1591</ele>
        <time>2018-11-13T08:12:47.000Z</time>
      </trkpt>
      <trkpt lat="42.16792" lon="1.90817">
        <ele>1592</ele>
        <time>2018-11-13T08:12:50.000Z</time>
      </trkpt>
      <trkpt lat="42.16793" lon="1.9082">
        <ele>1593</ele>
        <time>2018-11-13T08:12:54.000Z</time>
      </trkpt>
      <trkpt lat="42.16795" lon="1.90821">
        <ele>1593.9699968</ele>
        <time>2018-11-13T08:12:57.000Z</time>
      </trkpt>
      <trkpt lat="42.16797" lon="1.90823">
        <ele>1594.9699968</ele>
        <time>2018-11-13T08:13:01.000Z</time>
      </trkpt>
      <trkpt lat="42.16798" lon="1.90826">
        <ele>1596</ele>
        <time>2018-11-13T08:13:06.000Z</time>
      </trkpt>
      <trkpt lat="42.16799" lon="1.90828">
        <ele>1597</ele>
        <time>2018-11-13T08:13:09.000Z</time>
      </trkpt>
      <trkpt lat="42.168" lon="1.90831">
        <ele>1598</ele>
        <time>2018-11-13T08:13:16.000Z</time>
      </trkpt>
      <trkpt lat="42.16801" lon="1.90833">
        <ele>1598</ele>
        <time>2018-11-13T08:13:18.000Z</time>
      </trkpt>
      <trkpt lat="42.16802" lon="1.90835">
        <ele>1598.7348460606</ele>
        <time>2018-11-13T08:13:22.000Z</time>
      </trkpt>
      <trkpt lat="42.16803" lon="1.90838">
        <ele>1599</ele>
        <time>2018-11-13T08:13:25.000Z</time>
      </trkpt>
      <trkpt lat="42.16804" lon="1.9084">
        <ele>1600</ele>
        <time>2018-11-13T08:13:28.000Z</time>
      </trkpt>
      <trkpt lat="42.16803" lon="1.90842">
        <ele>1601</ele>
        <time>2018-11-13T08:13:34.000Z</time>
      </trkpt>
      <trkpt lat="42.16804" lon="1.90846">
        <ele>1602.9699968</ele>
        <time>2018-11-13T08:13:39.000Z</time>
      </trkpt>
      <trkpt lat="42.16804" lon="1.90848">
        <ele>1603</ele>
        <time>2018-11-13T08:13:42.000Z</time>
      </trkpt>
      <trkpt lat="42.16806" lon="1.90851">
        <ele>1604</ele>
        <time>2018-11-13T08:13:46.000Z</time>
      </trkpt>
      <trkpt lat="42.16807" lon="1.90854">
        <ele>1605</ele>
        <time>2018-11-13T08:13:50.000Z</time>
      </trkpt>
      <trkpt lat="42.16806" lon="1.90856">
        <ele>1606</ele>
        <time>2018-11-13T08:13:54.000Z</time>
      </trkpt>
      <trkpt lat="42.16804" lon="1.90858">
        <ele>1606</ele>
        <time>2018-11-13T08:13:57.000Z</time>
      </trkpt>
      <trkpt lat="42.16802" lon="1.90857">
        <ele>1607</ele>
        <time>2018-11-13T08:13:59.000Z</time>
      </trkpt>
      <trkpt lat="42.168" lon="1.90859">
        <ele>1608</ele>
        <time>2018-11-13T08:14:03.000Z</time>
      </trkpt>
      <trkpt lat="42.16798" lon="1.90861">
        <ele>1608.9699968</ele>
        <time>2018-11-13T08:14:05.000Z</time>
      </trkpt>
      <trkpt lat="42.16797" lon="1.90863">
        <ele>1609.9065363543</ele>
        <time>2018-11-13T08:14:09.000Z</time>
      </trkpt>
      <trkpt lat="42.16796" lon="1.90866">
        <ele>1611</ele>
        <time>2018-11-13T08:14:12.000Z</time>
      </trkpt>
      <trkpt lat="42.16795" lon="1.90868">
        <ele>1611</ele>
        <time>2018-11-13T08:14:16.000Z</time>
      </trkpt>
      <trkpt lat="42.16793" lon="1.90869">
        <ele>1612</ele>
        <time>2018-11-13T08:14:19.000Z</time>
      </trkpt>
      <trkpt lat="42.16792" lon="1.90871">
        <ele>1612</ele>
        <time>2018-11-13T08:14:22.000Z</time>
      </trkpt>
      <trkpt lat="42.16791" lon="1.90874">
        <ele>1614</ele>
        <time>2018-11-13T08:14:27.000Z</time>
      </trkpt>
      <trkpt lat="42.1679" lon="1.90877">
        <ele>1616</ele>
        <time>2018-11-13T08:14:33.000Z</time>
      </trkpt>
      <trkpt lat="42.1679" lon="1.90879">
        <ele>1616</ele>
        <time>2018-11-13T08:14:36.000Z</time>
      </trkpt>
      <trkpt lat="42.16789" lon="1.90881">
        <ele>1616</ele>
        <time>2018-11-13T08:14:39.000Z</time>
      </trkpt>
      <trkpt lat="42.16788" lon="1.90884">
        <ele>1618</ele>
        <time>2018-11-13T08:14:44.000Z</time>
      </trkpt>
      <trkpt lat="42.16787" lon="1.90886">
        <ele>1618.9699968</ele>
        <time>2018-11-13T08:14:48.000Z</time>
      </trkpt>
      <trkpt lat="42.16787" lon="1.90889">
        <ele>1619.9238092916</ele>
        <time>2018-11-13T08:14:52.000Z</time>
      </trkpt>
      <trkpt lat="42.16787" lon="1.90892">
        <ele>1620.9687466667</ele>
        <time>2018-11-13T08:14:56.000Z</time>
      </trkpt>
      <trkpt lat="42.16787" lon="1.90894">
        <ele>1621</ele>
        <time>2018-11-13T08:14:59.000Z</time>
      </trkpt>
      <trkpt lat="42.16787" lon="1.90897">
        <ele>1622</ele>
        <time>2018-11-13T08:15:05.000Z</time>
      </trkpt>
      <trkpt lat="42.16786" lon="1.909">
        <ele>1623.9693846897</ele>
        <time>2018-11-13T08:15:08.000Z</time>
      </trkpt>
      <trkpt lat="42.16786" lon="1.90902">
        <ele>1624</ele>
        <time>2018-11-13T08:15:11.000Z</time>
      </trkpt>
      <trkpt lat="42.16787" lon="1.90905">
        <ele>1625</ele>
        <time>2018-11-13T08:15:16.000Z</time>
      </trkpt>
      <trkpt lat="42.16787" lon="1.90907">
        <ele>1626</ele>
        <time>2018-11-13T08:15:19.000Z</time>
      </trkpt>
      <trkpt lat="42.16788" lon="1.9091">
        <ele>1627</ele>
        <time>2018-11-13T08:15:22.000Z</time>
      </trkpt>
      <trkpt lat="42.16788" lon="1.90912">
        <ele>1627.9699968</ele>
        <time>2018-11-13T08:15:27.000Z</time>
      </trkpt>
      <trkpt lat="42.16789" lon="1.90915">
        <ele>1628</ele>
        <time>2018-11-13T08:15:30.000Z</time>
      </trkpt>
      <trkpt lat="42.16791" lon="1.90917">
        <ele>1629</ele>
        <time>2018-11-13T08:15:34.000Z</time>
      </trkpt>
      <trkpt lat="42.1679" lon="1.9092">
        <ele>1631</ele>
        <time>2018-11-13T08:15:40.000Z</time>
      </trkpt>
      <trkpt lat="42.16791" lon="1.90923">
        <ele>1631</ele>
        <time>2018-11-13T08:15:43.000Z</time>
      </trkpt>
      <trkpt lat="42.16791" lon="1.90925">
        <ele>1633.9693846897</ele>
        <time>2018-11-13T08:15:51.000Z</time>
      </trkpt>
      <trkpt lat="42.16791" lon="1.90928">
        <ele>1634</ele>
        <time>2018-11-13T08:15:54.000Z</time>
      </trkpt>
      <trkpt lat="42.1679" lon="1.90931">
        <ele>1634.0315822094</ele>
        <time>2018-11-13T08:15:58.000Z</time>
      </trkpt>
      <trkpt lat="42.1679" lon="1.90934">
        <ele>1634</ele>
        <time>2018-11-13T08:16:00.000Z</time>
      </trkpt>
      <trkpt lat="42.1679" lon="1.90936">
        <ele>1635</ele>
        <time>2018-11-13T08:16:03.000Z</time>
      </trkpt>
      <trkpt lat="42.16789" lon="1.90939">
        <ele>1636</ele>
        <time>2018-11-13T08:16:07.000Z</time>
      </trkpt>
      <trkpt lat="42.16788" lon="1.90942">
        <ele>1637</ele>
        <time>2018-11-13T08:16:11.000Z</time>
      </trkpt>
      <trkpt lat="42.16788" lon="1.90945">
        <ele>1637.724134887</ele>
        <time>2018-11-13T08:16:14.000Z</time>
      </trkpt>
      <trkpt lat="42.16787" lon="1.90948">
        <ele>1639</ele>
        <time>2018-11-13T08:16:17.000Z</time>
      </trkpt>
      <trkpt lat="42.16786" lon="1.9095">
        <ele>1639</ele>
        <time>2018-11-13T08:16:20.000Z</time>
      </trkpt>
      <trkpt lat="42.16785" lon="1.90953">
        <ele>1640</ele>
        <time>2018-11-13T08:16:23.000Z</time>
      </trkpt>
      <trkpt lat="42.16784" lon="1.90956">
        <ele>1641</ele>
        <time>2018-11-13T08:16:26.000Z</time>
      </trkpt>
      <trkpt lat="42.16783" lon="1.90958">
        <ele>1641</ele>
        <time>2018-11-13T08:16:29.000Z</time>
      </trkpt>
      <trkpt lat="42.16783" lon="1.90961">
        <ele>1641</ele>
        <time>2018-11-13T08:16:31.000Z</time>
      </trkpt>
      <trkpt lat="42.16784" lon="1.90965">
        <ele>1641</ele>
        <time>2018-11-13T08:16:33.000Z</time>
      </trkpt>
      <trkpt lat="42.16784" lon="1.90968">
        <ele>1641</ele>
        <time>2018-11-13T08:16:35.000Z</time>
      </trkpt>
      <trkpt lat="42.16784" lon="1.90972">
        <ele>1642</ele>
        <time>2018-11-13T08:16:38.000Z</time>
      </trkpt>
      <trkpt lat="42.16784" lon="1.90976">
        <ele>1642</ele>
        <time>2018-11-13T08:16:40.000Z</time>
      </trkpt>
      <trkpt lat="42.16783" lon="1.90978">
        <ele>1643</ele>
        <time>2018-11-13T08:16:42.000Z</time>
      </trkpt>
      <trkpt lat="42.16782" lon="1.90981">
        <ele>1643</ele>
        <time>2018-11-13T08:16:44.000Z</time>
      </trkpt>
      <trkpt lat="42.16782" lon="1.90984">
        <ele>1643</ele>
        <time>2018-11-13T08:16:46.000Z</time>
      </trkpt>
      <trkpt lat="42.16783" lon="1.90988">
        <ele>1643</ele>
        <time>2018-11-13T08:16:49.000Z</time>
      </trkpt>
      <trkpt lat="42.16783" lon="1.9099">
        <ele>1643</ele>
        <time>2018-11-13T08:16:51.000Z</time>
      </trkpt>
      <trkpt lat="42.16783" lon="1.90993">
        <ele>1643</ele>
        <time>2018-11-13T08:16:53.000Z</time>
      </trkpt>
      <trkpt lat="42.16783" lon="1.90996">
        <ele>1642</ele>
        <time>2018-11-13T08:16:55.000Z</time>
      </trkpt>
      <trkpt lat="42.16783" lon="1.91">
        <ele>1642</ele>
        <time>2018-11-13T08:16:57.000Z</time>
      </trkpt>
      <trkpt lat="42.16783" lon="1.91004">
        <ele>1642</ele>
        <time>2018-11-13T08:16:59.000Z</time>
      </trkpt>
      <trkpt lat="42.16783" lon="1.91007">
        <ele>1642</ele>
        <time>2018-11-13T08:17:01.000Z</time>
      </trkpt>
      <trkpt lat="42.16782" lon="1.91009">
        <ele>1642</ele>
        <time>2018-11-13T08:17:03.000Z</time>
      </trkpt>
      <trkpt lat="42.16781" lon="1.91012">
        <ele>1642</ele>
        <time>2018-11-13T08:17:06.000Z</time>
      </trkpt>
      <trkpt lat="42.16781" lon="1.91015">
        <ele>1643.9684177906</ele>
        <time>2018-11-13T08:17:09.000Z</time>
      </trkpt>
      <trkpt lat="42.16781" lon="1.91013">
        <ele>1644</ele>
        <time>2018-11-13T08:17:17.000Z</time>
      </trkpt>
      <trkpt lat="42.16783" lon="1.9101">
        <ele>1643</ele>
        <time>2018-11-13T08:17:21.000Z</time>
      </trkpt>
      <trkpt lat="42.16783" lon="1.91008">
        <ele>1643</ele>
        <time>2018-11-13T08:17:23.000Z</time>
      </trkpt>
      <trkpt lat="42.16782" lon="1.91011">
        <ele>1642</ele>
        <time>2018-11-13T08:17:35.000Z</time>
      </trkpt>
      <trkpt lat="42.16781" lon="1.91014">
        <ele>1643</ele>
        <time>2018-11-13T08:17:38.000Z</time>
      </trkpt>
      <trkpt lat="42.1678" lon="1.91016">
        <ele>1644</ele>
        <time>2018-11-13T08:17:41.000Z</time>
      </trkpt>
      <trkpt lat="42.16779" lon="1.91019">
        <ele>1644</ele>
        <time>2018-11-13T08:17:44.000Z</time>
      </trkpt>
      <trkpt lat="42.16779" lon="1.91022">
        <ele>1644</ele>
        <time>2018-11-13T08:17:47.000Z</time>
      </trkpt>
      <trkpt lat="42.16779" lon="1.91027">
        <ele>1644</ele>
        <time>2018-11-13T08:17:49.000Z</time>
      </trkpt>
      <trkpt lat="42.16779" lon="1.9103">
        <ele>1644</ele>
        <time>2018-11-13T08:17:51.000Z</time>
      </trkpt>
      <trkpt lat="42.16779" lon="1.91034">
        <ele>1644</ele>
        <time>2018-11-13T08:17:53.000Z</time>
      </trkpt>
      <trkpt lat="42.16779" lon="1.91038">
        <ele>1645</ele>
        <time>2018-11-13T08:17:55.000Z</time>
      </trkpt>
      <trkpt lat="42.1678" lon="1.91041">
        <ele>1645</ele>
        <time>2018-11-13T08:17:57.000Z</time>
      </trkpt>
      <trkpt lat="42.16779" lon="1.91044">
        <ele>1646</ele>
        <time>2018-11-13T08:17:59.000Z</time>
      </trkpt>
      <trkpt lat="42.16779" lon="1.91047">
        <ele>1646.9417532435</ele>
        <time>2018-11-13T08:18:01.000Z</time>
      </trkpt>
      <trkpt lat="42.16779" lon="1.91051">
        <ele>1647</ele>
        <time>2018-11-13T08:18:04.000Z</time>
      </trkpt>
      <trkpt lat="42.16779" lon="1.91054">
        <ele>1648.7238816663</ele>
        <time>2018-11-13T08:18:07.000Z</time>
      </trkpt>
      <trkpt lat="42.16778" lon="1.91056">
        <ele>1649</ele>
        <time>2018-11-13T08:18:10.000Z</time>
      </trkpt>
      <trkpt lat="42.16778" lon="1.9106">
        <ele>1650</ele>
        <time>2018-11-13T08:18:13.000Z</time>
      </trkpt>
      <trkpt lat="42.16777" lon="1.91062">
        <ele>1650</ele>
        <time>2018-11-13T08:18:15.000Z</time>
      </trkpt>
      <trkpt lat="42.16776" lon="1.91065">
        <ele>1651</ele>
        <time>2018-11-13T08:18:17.000Z</time>
      </trkpt>
      <trkpt lat="42.16776" lon="1.91068">
        <ele>1651</ele>
        <time>2018-11-13T08:18:19.000Z</time>
      </trkpt>
      <trkpt lat="42.16774" lon="1.91071">
        <ele>1651</ele>
        <time>2018-11-13T08:18:21.000Z</time>
      </trkpt>
      <trkpt lat="42.16772" lon="1.91071">
        <ele>1651</ele>
        <time>2018-11-13T08:18:23.000Z</time>
      </trkpt>
      <trkpt lat="42.16774" lon="1.91073">
        <ele>1652</ele>
        <time>2018-11-13T08:19:00.000Z</time>
      </trkpt>
      <trkpt lat="42.16772" lon="1.91075">
        <ele>1651.9565177064</ele>
        <time>2018-11-13T08:19:05.000Z</time>
      </trkpt>
      <trkpt lat="42.16774" lon="1.91076">
        <ele>1652</ele>
        <time>2018-11-13T08:19:22.000Z</time>
      </trkpt>
      <trkpt lat="42.16776" lon="1.91077">
        <ele>1652</ele>
        <time>2018-11-13T08:19:45.000Z</time>
      </trkpt>
      <trkpt lat="42.16778" lon="1.91078">
        <ele>1652</ele>
        <time>2018-11-13T08:19:48.000Z</time>
      </trkpt>
      <trkpt lat="42.16779" lon="1.91081">
        <ele>1651.0300032</ele>
        <time>2018-11-13T08:19:50.000Z</time>
      </trkpt>
      <trkpt lat="42.1678" lon="1.91082">
        <ele>1651</ele>
        <time>2018-11-13T08:19:52.000Z</time>
      </trkpt>
      <trkpt lat="42.16782" lon="1.91084">
        <ele>1651</ele>
        <time>2018-11-13T08:19:55.000Z</time>
      </trkpt>
      <trkpt lat="42.16784" lon="1.91084">
        <ele>1651</ele>
        <time>2018-11-13T08:19:58.000Z</time>
      </trkpt>
      <trkpt lat="42.16786" lon="1.91085">
        <ele>1649.0761907084</ele>
        <time>2018-11-13T08:20:04.000Z</time>
      </trkpt>
      <trkpt lat="42.16788" lon="1.91085">
        <ele>1649</ele>
        <time>2018-11-13T08:20:07.000Z</time>
      </trkpt>
      <trkpt lat="42.1679" lon="1.91084">
        <ele>1648</ele>
        <time>2018-11-13T08:20:10.000Z</time>
      </trkpt>
      <trkpt lat="42.16792" lon="1.91084">
        <ele>1647.9417532435</ele>
        <time>2018-11-13T08:20:13.000Z</time>
      </trkpt>
      <trkpt lat="42.16794" lon="1.91085">
        <ele>1647</ele>
        <time>2018-11-13T08:20:20.000Z</time>
      </trkpt>
      <trkpt lat="42.16794" lon="1.91088">
        <ele>1646</ele>
        <time>2018-11-13T08:20:22.000Z</time>
      </trkpt>
      <trkpt lat="42.16795" lon="1.9109">
        <ele>1646</ele>
        <time>2018-11-13T08:20:24.000Z</time>
      </trkpt>
      <trkpt lat="42.16796" lon="1.91093">
        <ele>1646</ele>
        <time>2018-11-13T08:20:26.000Z</time>
      </trkpt>
      <trkpt lat="42.16798" lon="1.91096">
        <ele>1646</ele>
        <time>2018-11-13T08:20:28.000Z</time>
      </trkpt>
      <trkpt lat="42.168" lon="1.91098">
        <ele>1645.0454589531</ele>
        <time>2018-11-13T08:20:30.000Z</time>
      </trkpt>
      <trkpt lat="42.16801" lon="1.911">
        <ele>1644.1100920663</ele>
        <time>2018-11-13T08:20:32.000Z</time>
      </trkpt>
      <trkpt lat="42.16804" lon="1.91102">
        <ele>1643.0300032</ele>
        <time>2018-11-13T08:20:34.000Z</time>
      </trkpt>
      <trkpt lat="42.16805" lon="1.91105">
        <ele>1643</ele>
        <time>2018-11-13T08:20:36.000Z</time>
      </trkpt>
      <trkpt lat="42.16806" lon="1.91107">
        <ele>1643</ele>
        <time>2018-11-13T08:20:38.000Z</time>
      </trkpt>
      <trkpt lat="42.16809" lon="1.91106">
        <ele>1640.0315822094</ele>
        <time>2018-11-13T08:20:43.000Z</time>
      </trkpt>
      <trkpt lat="42.16811" lon="1.91106">
        <ele>1640</ele>
        <time>2018-11-13T08:20:46.000Z</time>
      </trkpt>
      <trkpt lat="42.16814" lon="1.91106">
        <ele>1638.0315822094</ele>
        <time>2018-11-13T08:20:49.000Z</time>
      </trkpt>
      <trkpt lat="42.16816" lon="1.91106">
        <ele>1637.0315822094</ele>
        <time>2018-11-13T08:20:52.000Z</time>
      </trkpt>
      <trkpt lat="42.16817" lon="1.91105">
        <ele>1637</ele>
        <time>2018-11-13T08:20:54.000Z</time>
      </trkpt>
      <trkpt lat="42.1682" lon="1.91105">
        <ele>1636</ele>
        <time>2018-11-13T08:20:57.000Z</time>
      </trkpt>
      <trkpt lat="42.16822" lon="1.91106">
        <ele>1635</ele>
        <time>2018-11-13T08:21:00.000Z</time>
      </trkpt>
      <trkpt lat="42.16824" lon="1.91107">
        <ele>1634</ele>
        <time>2018-11-13T08:21:04.000Z</time>
      </trkpt>
      <trkpt lat="42.16826" lon="1.91109">
        <ele>1633</ele>
        <time>2018-11-13T08:21:09.000Z</time>
      </trkpt>
      <trkpt lat="42.16828" lon="1.91108">
        <ele>1632.0300032</ele>
        <time>2018-11-13T08:21:12.000Z</time>
      </trkpt>
      <trkpt lat="42.1683" lon="1.91108">
        <ele>1631.0300032</ele>
        <time>2018-11-13T08:21:15.000Z</time>
      </trkpt>
      <trkpt lat="42.16833" lon="1.91109">
        <ele>1630.0563377743</ele>
        <time>2018-11-13T08:21:18.000Z</time>
      </trkpt>
      <trkpt lat="42.16834" lon="1.91111">
        <ele>1630</ele>
        <time>2018-11-13T08:21:20.000Z</time>
      </trkpt>
      <trkpt lat="42.16836" lon="1.91111">
        <ele>1629</ele>
        <time>2018-11-13T08:21:22.000Z</time>
      </trkpt>
      <trkpt lat="42.16838" lon="1.91113">
        <ele>1628.0300032</ele>
        <time>2018-11-13T08:21:25.000Z</time>
      </trkpt>
      <trkpt lat="42.16839" lon="1.91115">
        <ele>1627.0315822094</ele>
        <time>2018-11-13T08:21:27.000Z</time>
      </trkpt>
      <trkpt lat="42.16841" lon="1.91118">
        <ele>1627</ele>
        <time>2018-11-13T08:21:29.000Z</time>
      </trkpt>
      <trkpt lat="42.16842" lon="1.9112">
        <ele>1627</ele>
        <time>2018-11-13T08:21:31.000Z</time>
      </trkpt>
      <trkpt lat="42.16844" lon="1.91122">
        <ele>1626</ele>
        <time>2018-11-13T08:21:33.000Z</time>
      </trkpt>
      <trkpt lat="42.16846" lon="1.91123">
        <ele>1625</ele>
        <time>2018-11-13T08:21:36.000Z</time>
      </trkpt>
      <trkpt lat="42.16847" lon="1.9112">
        <ele>1623.033711097</ele>
        <time>2018-11-13T08:21:40.000Z</time>
      </trkpt>
      <trkpt lat="42.16849" lon="1.91118">
        <ele>1623</ele>
        <time>2018-11-13T08:21:44.000Z</time>
      </trkpt>
      <trkpt lat="42.1685" lon="1.91115">
        <ele>1622.1261315283</ele>
        <time>2018-11-13T08:21:48.000Z</time>
      </trkpt>
      <trkpt lat="42.16851" lon="1.91113">
        <ele>1620.0761907084</ele>
        <time>2018-11-13T08:21:58.000Z</time>
      </trkpt>
      <trkpt lat="42.16852" lon="1.91111">
        <ele>1620</ele>
        <time>2018-11-13T08:22:00.000Z</time>
      </trkpt>
      <trkpt lat="42.16854" lon="1.9111">
        <ele>1619.0761907084</ele>
        <time>2018-11-13T08:22:04.000Z</time>
      </trkpt>
      <trkpt lat="42.16856" lon="1.9111">
        <ele>1618</ele>
        <time>2018-11-13T08:22:08.000Z</time>
      </trkpt>
      <trkpt lat="42.16857" lon="1.91108">
        <ele>1617</ele>
        <time>2018-11-13T08:22:12.000Z</time>
      </trkpt>
      <trkpt lat="42.1686" lon="1.91107">
        <ele>1617</ele>
        <time>2018-11-13T08:22:16.000Z</time>
      </trkpt>
      <trkpt lat="42.16862" lon="1.91108">
        <ele>1615.9699968</ele>
        <time>2018-11-13T08:22:19.000Z</time>
      </trkpt>
      <trkpt lat="42.16864" lon="1.91109">
        <ele>1615</ele>
        <time>2018-11-13T08:22:23.000Z</time>
      </trkpt>
      <trkpt lat="42.16865" lon="1.91107">
        <ele>1614</ele>
        <time>2018-11-13T08:22:27.000Z</time>
      </trkpt>
      <trkpt lat="42.16866" lon="1.91104">
        <ele>1613</ele>
        <time>2018-11-13T08:22:31.000Z</time>
      </trkpt>
      <trkpt lat="42.16868" lon="1.91104">
        <ele>1612</ele>
        <time>2018-11-13T08:22:34.000Z</time>
      </trkpt>
      <trkpt lat="42.1687" lon="1.91105">
        <ele>1609.0329704335</ele>
        <time>2018-11-13T08:22:37.000Z</time>
      </trkpt>
      <trkpt lat="42.16873" lon="1.91104">
        <ele>1609</ele>
        <time>2018-11-13T08:22:40.000Z</time>
      </trkpt>
      <trkpt lat="42.16874" lon="1.91106">
        <ele>1609</ele>
        <time>2018-11-13T08:22:42.000Z</time>
      </trkpt>
      <trkpt lat="42.16876" lon="1.91108">
        <ele>1608</ele>
        <time>2018-11-13T08:22:44.000Z</time>
      </trkpt>
      <trkpt lat="42.16878" lon="1.91111">
        <ele>1606.0300032</ele>
        <time>2018-11-13T08:22:47.000Z</time>
      </trkpt>
      <trkpt lat="42.1688" lon="1.91113">
        <ele>1605</ele>
        <time>2018-11-13T08:22:49.000Z</time>
      </trkpt>
      <trkpt lat="42.16881" lon="1.91114">
        <ele>1606</ele>
        <time>2018-11-13T08:22:51.000Z</time>
      </trkpt>
      <trkpt lat="42.16883" lon="1.91116">
        <ele>1606</ele>
        <time>2018-11-13T08:22:54.000Z</time>
      </trkpt>
      <trkpt lat="42.16886" lon="1.91117">
        <ele>1603.0309308279</ele>
        <time>2018-11-13T08:22:56.000Z</time>
      </trkpt>
      <trkpt lat="42.16887" lon="1.91117">
        <ele>1603</ele>
        <time>2018-11-13T08:22:58.000Z</time>
      </trkpt>
      <trkpt lat="42.16889" lon="1.91117">
        <ele>1603</ele>
        <time>2018-11-13T08:23:00.000Z</time>
      </trkpt>
      <trkpt lat="42.16891" lon="1.91115">
        <ele>1601.2595462362</ele>
        <time>2018-11-13T08:23:11.000Z</time>
      </trkpt>
      <trkpt lat="42.16893" lon="1.91115">
        <ele>1601</ele>
        <time>2018-11-13T08:23:13.000Z</time>
      </trkpt>
      <trkpt lat="42.16895" lon="1.91115">
        <ele>1598</ele>
        <time>2018-11-13T08:23:16.000Z</time>
      </trkpt>
      <trkpt lat="42.16897" lon="1.91114">
        <ele>1597.0761907084</ele>
        <time>2018-11-13T08:23:20.000Z</time>
      </trkpt>
      <trkpt lat="42.16899" lon="1.91114">
        <ele>1596</ele>
        <time>2018-11-13T08:23:23.000Z</time>
      </trkpt>
      <trkpt lat="42.16901" lon="1.91113">
        <ele>1595</ele>
        <time>2018-11-13T08:23:28.000Z</time>
      </trkpt>
      <trkpt lat="42.16903" lon="1.91112">
        <ele>1594.0849031541</ele>
        <time>2018-11-13T08:23:33.000Z</time>
      </trkpt>
      <trkpt lat="42.16904" lon="1.91111">
        <ele>1593</ele>
        <time>2018-11-13T08:23:36.000Z</time>
      </trkpt>
      <trkpt lat="42.16906" lon="1.91111">
        <ele>1592.0761907084</ele>
        <time>2018-11-13T08:23:39.000Z</time>
      </trkpt>
      <trkpt lat="42.16909" lon="1.91111">
        <ele>1592</ele>
        <time>2018-11-13T08:23:42.000Z</time>
      </trkpt>
      <trkpt lat="42.16911" lon="1.91111">
        <ele>1591</ele>
        <time>2018-11-13T08:23:44.000Z</time>
      </trkpt>
      <trkpt lat="42.16912" lon="1.91114">
        <ele>1591</ele>
        <time>2018-11-13T08:23:46.000Z</time>
      </trkpt>
      <trkpt lat="42.16914" lon="1.91115">
        <ele>1590</ele>
        <time>2018-11-13T08:23:49.000Z</time>
      </trkpt>
      <trkpt lat="42.16917" lon="1.91115">
        <ele>1588.2037096296</ele>
        <time>2018-11-13T08:23:52.000Z</time>
      </trkpt>
      <trkpt lat="42.16919" lon="1.91116">
        <ele>1587</ele>
        <time>2018-11-13T08:23:54.000Z</time>
      </trkpt>
      <trkpt lat="42.16921" lon="1.91117">
        <ele>1587</ele>
        <time>2018-11-13T08:23:56.000Z</time>
      </trkpt>
      <trkpt lat="42.16923" lon="1.91118">
        <ele>1586.0934528011</ele>
        <time>2018-11-13T08:23:58.000Z</time>
      </trkpt>
      <trkpt lat="42.16924" lon="1.9112">
        <ele>1586</ele>
        <time>2018-11-13T08:24:00.000Z</time>
      </trkpt>
      <trkpt lat="42.16926" lon="1.91121">
        <ele>1586</ele>
        <time>2018-11-13T08:24:02.000Z</time>
      </trkpt>
      <trkpt lat="42.16927" lon="1.91122">
        <ele>1585</ele>
        <time>2018-11-13T08:24:04.000Z</time>
      </trkpt>
      <trkpt lat="42.16929" lon="1.91124">
        <ele>1584</ele>
        <time>2018-11-13T08:24:07.000Z</time>
      </trkpt>
      <trkpt lat="42.16932" lon="1.91125">
        <ele>1585</ele>
        <time>2018-11-13T08:24:10.000Z</time>
      </trkpt>
      <trkpt lat="42.16934" lon="1.91126">
        <ele>1583.0315822094</ele>
        <time>2018-11-13T08:24:12.000Z</time>
      </trkpt>
      <trkpt lat="42.16935" lon="1.91127">
        <ele>1582</ele>
        <time>2018-11-13T08:24:14.000Z</time>
      </trkpt>
      <trkpt lat="42.16938" lon="1.91129">
        <ele>1582</ele>
        <time>2018-11-13T08:24:16.000Z</time>
      </trkpt>
      <trkpt lat="42.1694" lon="1.91131">
        <ele>1581.0312533333</ele>
        <time>2018-11-13T08:24:18.000Z</time>
      </trkpt>
      <trkpt lat="42.16942" lon="1.91133">
        <ele>1580</ele>
        <time>2018-11-13T08:24:21.000Z</time>
      </trkpt>
      <trkpt lat="42.16944" lon="1.91133">
        <ele>1579</ele>
        <time>2018-11-13T08:24:24.000Z</time>
      </trkpt>
      <trkpt lat="42.16946" lon="1.91132">
        <ele>1579</ele>
        <time>2018-11-13T08:24:27.000Z</time>
      </trkpt>
      <trkpt lat="42.16948" lon="1.91133">
        <ele>1578</ele>
        <time>2018-11-13T08:24:29.000Z</time>
      </trkpt>
      <trkpt lat="42.1695" lon="1.91134">
        <ele>1576.0312533333</ele>
        <time>2018-11-13T08:24:31.000Z</time>
      </trkpt>
      <trkpt lat="42.16952" lon="1.91136">
        <ele>1576</ele>
        <time>2018-11-13T08:24:34.000Z</time>
      </trkpt>
      <trkpt lat="42.16954" lon="1.91138">
        <ele>1575</ele>
        <time>2018-11-13T08:24:38.000Z</time>
      </trkpt>
      <trkpt lat="42.16956" lon="1.91139">
        <ele>1574</ele>
        <time>2018-11-13T08:24:40.000Z</time>
      </trkpt>
      <trkpt lat="42.16957" lon="1.9114">
        <ele>1573.0490167781</ele>
        <time>2018-11-13T08:24:42.000Z</time>
      </trkpt>
      <trkpt lat="42.16959" lon="1.91137">
        <ele>1571</ele>
        <time>2018-11-13T08:24:45.000Z</time>
      </trkpt>
      <trkpt lat="42.16961" lon="1.91135">
        <ele>1571</ele>
        <time>2018-11-13T08:24:47.000Z</time>
      </trkpt>
      <trkpt lat="42.16963" lon="1.91132">
        <ele>1570.1100920663</ele>
        <time>2018-11-13T08:24:49.000Z</time>
      </trkpt>
      <trkpt lat="42.16965" lon="1.91131">
        <ele>1569</ele>
        <time>2018-11-13T08:24:51.000Z</time>
      </trkpt>
      <trkpt lat="42.16968" lon="1.91131">
        <ele>1569</ele>
        <time>2018-11-13T08:24:53.000Z</time>
      </trkpt>
      <trkpt lat="42.16971" lon="1.91131">
        <ele>1568</ele>
        <time>2018-11-13T08:24:55.000Z</time>
      </trkpt>
      <trkpt lat="42.16974" lon="1.91132">
        <ele>1568</ele>
        <time>2018-11-13T08:24:57.000Z</time>
      </trkpt>
      <trkpt lat="42.16976" lon="1.91134">
        <ele>1567.9651128178</ele>
        <time>2018-11-13T08:24:59.000Z</time>
      </trkpt>
      <trkpt lat="42.16976" lon="1.91137">
        <ele>1568</ele>
        <time>2018-11-13T08:25:01.000Z</time>
      </trkpt>
      <trkpt lat="42.16976" lon="1.9114">
        <ele>1567</ele>
        <time>2018-11-13T08:25:11.000Z</time>
      </trkpt>
      <trkpt lat="42.16974" lon="1.91142">
        <ele>1567</ele>
        <time>2018-11-13T08:25:14.000Z</time>
      </trkpt>
      <trkpt lat="42.16973" lon="1.91145">
        <ele>1567</ele>
        <time>2018-11-13T08:25:24.000Z</time>
      </trkpt>
      <trkpt lat="42.16972" lon="1.91147">
        <ele>1567</ele>
        <time>2018-11-13T08:25:26.000Z</time>
      </trkpt>
      <trkpt lat="42.16972" lon="1.9115">
        <ele>1566</ele>
        <time>2018-11-13T08:25:30.000Z</time>
      </trkpt>
      <trkpt lat="42.16972" lon="1.91153">
        <ele>1565.0761907084</ele>
        <time>2018-11-13T08:25:33.000Z</time>
      </trkpt>
      <trkpt lat="42.16972" lon="1.91156">
        <ele>1563.0300032</ele>
        <time>2018-11-13T08:25:35.000Z</time>
      </trkpt>
      <trkpt lat="42.16972" lon="1.91158">
        <ele>1562.0315822094</ele>
        <time>2018-11-13T08:25:37.000Z</time>
      </trkpt>
      <trkpt lat="42.16972" lon="1.91161">
        <ele>1562</ele>
        <time>2018-11-13T08:25:40.000Z</time>
      </trkpt>
      <trkpt lat="42.16972" lon="1.91164">
        <ele>1561</ele>
        <time>2018-11-13T08:25:42.000Z</time>
      </trkpt>
      <trkpt lat="42.1697" lon="1.91166">
        <ele>1561</ele>
        <time>2018-11-13T08:25:45.000Z</time>
      </trkpt>
      <trkpt lat="42.16968" lon="1.91168">
        <ele>1558.0306153103</ele>
        <time>2018-11-13T08:25:47.000Z</time>
      </trkpt>
      <trkpt lat="42.16967" lon="1.9117">
        <ele>1558</ele>
        <time>2018-11-13T08:25:49.000Z</time>
      </trkpt>
      <trkpt lat="42.16965" lon="1.91172">
        <ele>1558</ele>
        <time>2018-11-13T08:25:51.000Z</time>
      </trkpt>
      <trkpt lat="42.16964" lon="1.91173">
        <ele>1557.0303061647</ele>
        <time>2018-11-13T08:25:53.000Z</time>
      </trkpt>
      <trkpt lat="42.16962" lon="1.91174">
        <ele>1556.0300032</ele>
        <time>2018-11-13T08:25:56.000Z</time>
      </trkpt>
      <trkpt lat="42.1696" lon="1.91177">
        <ele>1555</ele>
        <time>2018-11-13T08:25:59.000Z</time>
      </trkpt>
      <trkpt lat="42.1696" lon="1.91179">
        <ele>1554.0300032</ele>
        <time>2018-11-13T08:26:01.000Z</time>
      </trkpt>
      <trkpt lat="42.16961" lon="1.91182">
        <ele>1553</ele>
        <time>2018-11-13T08:26:04.000Z</time>
      </trkpt>
      <trkpt lat="42.16962" lon="1.91185">
        <ele>1552.0312533333</ele>
        <time>2018-11-13T08:26:07.000Z</time>
      </trkpt>
      <trkpt lat="42.16963" lon="1.91187">
        <ele>1551.0673107692</ele>
        <time>2018-11-13T08:26:09.000Z</time>
      </trkpt>
      <trkpt lat="42.16964" lon="1.9119">
        <ele>1550.0300032</ele>
        <time>2018-11-13T08:26:11.000Z</time>
      </trkpt>
      <trkpt lat="42.16965" lon="1.91192">
        <ele>1550</ele>
        <time>2018-11-13T08:26:13.000Z</time>
      </trkpt>
      <trkpt lat="42.16968" lon="1.91194">
        <ele>1548.0309308279</ele>
        <time>2018-11-13T08:26:16.000Z</time>
      </trkpt>
      <trkpt lat="42.16968" lon="1.91198">
        <ele>1548</ele>
        <time>2018-11-13T08:26:18.000Z</time>
      </trkpt>
      <trkpt lat="42.16968" lon="1.91202">
        <ele>1547.0300032</ele>
        <time>2018-11-13T08:26:20.000Z</time>
      </trkpt>
      <trkpt lat="42.16966" lon="1.91204">
        <ele>1547</ele>
        <time>2018-11-13T08:26:22.000Z</time>
      </trkpt>
      <trkpt lat="42.16964" lon="1.91205">
        <ele>1546.1018548148</ele>
        <time>2018-11-13T08:26:24.000Z</time>
      </trkpt>
      <trkpt lat="42.16961" lon="1.91207">
        <ele>1545</ele>
        <time>2018-11-13T08:26:26.000Z</time>
      </trkpt>
      <trkpt lat="42.1696" lon="1.9121">
        <ele>1544</ele>
        <time>2018-11-13T08:26:29.000Z</time>
      </trkpt>
      <trkpt lat="42.16958" lon="1.91213">
        <ele>1543.0490167781</ele>
        <time>2018-11-13T08:26:31.000Z</time>
      </trkpt>
      <trkpt lat="42.16956" lon="1.91215">
        <ele>1543</ele>
        <time>2018-11-13T08:26:33.000Z</time>
      </trkpt>
      <trkpt lat="42.16955" lon="1.91214">
        <ele>1542</ele>
        <time>2018-11-13T08:26:36.000Z</time>
      </trkpt>
      <trkpt lat="42.16952" lon="1.91212">
        <ele>1542</ele>
        <time>2018-11-13T08:26:39.000Z</time>
      </trkpt>
      <trkpt lat="42.1695" lon="1.9121">
        <ele>1542</ele>
        <time>2018-11-13T08:26:42.000Z</time>
      </trkpt>
      <trkpt lat="42.16948" lon="1.91212">
        <ele>1540</ele>
        <time>2018-11-13T08:26:46.000Z</time>
      </trkpt>
      <trkpt lat="42.16946" lon="1.91213">
        <ele>1538.0582467565</ele>
        <time>2018-11-13T08:26:49.000Z</time>
      </trkpt>
      <trkpt lat="42.16946" lon="1.91216">
        <ele>1537</ele>
        <time>2018-11-13T08:26:53.000Z</time>
      </trkpt>
      <trkpt lat="42.16944" lon="1.91218">
        <ele>1537</ele>
        <time>2018-11-13T08:26:55.000Z</time>
      </trkpt>
      <trkpt lat="42.16942" lon="1.91218">
        <ele>1536.0428613224</ele>
        <time>2018-11-13T08:26:57.000Z</time>
      </trkpt>
      <trkpt lat="42.16942" lon="1.91222">
        <ele>1535</ele>
        <time>2018-11-13T08:27:01.000Z</time>
      </trkpt>
      <trkpt lat="42.1694" lon="1.91224">
        <ele>1533</ele>
        <time>2018-11-13T08:27:04.000Z</time>
      </trkpt>
      <trkpt lat="42.16937" lon="1.91225">
        <ele>1533</ele>
        <time>2018-11-13T08:27:07.000Z</time>
      </trkpt>
      <trkpt lat="42.16937" lon="1.91228">
        <ele>1531.0300032</ele>
        <time>2018-11-13T08:27:10.000Z</time>
      </trkpt>
      <trkpt lat="42.16938" lon="1.9123">
        <ele>1531.1415933213</ele>
        <time>2018-11-13T08:27:14.000Z</time>
      </trkpt>
      <trkpt lat="42.16939" lon="1.91232">
        <ele>1529.0300032</ele>
        <time>2018-11-13T08:27:16.000Z</time>
      </trkpt>
      <trkpt lat="42.16938" lon="1.91234">
        <ele>1529</ele>
        <time>2018-11-13T08:27:19.000Z</time>
      </trkpt>
      <trkpt lat="42.16936" lon="1.91236">
        <ele>1527.0322616164</ele>
        <time>2018-11-13T08:27:22.000Z</time>
      </trkpt>
      <trkpt lat="42.16934" lon="1.91239">
        <ele>1527</ele>
        <time>2018-11-13T08:27:25.000Z</time>
      </trkpt>
      <trkpt lat="42.16932" lon="1.9124">
        <ele>1526.0849031541</ele>
        <time>2018-11-13T08:27:27.000Z</time>
      </trkpt>
      <trkpt lat="42.16929" lon="1.91239">
        <ele>1525</ele>
        <time>2018-11-13T08:27:30.000Z</time>
      </trkpt>
      <trkpt lat="42.16927" lon="1.91238">
        <ele>1524.0315822094</ele>
        <time>2018-11-13T08:27:34.000Z</time>
      </trkpt>
      <trkpt lat="42.16925" lon="1.91239">
        <ele>1522</ele>
        <time>2018-11-13T08:27:38.000Z</time>
      </trkpt>
      <trkpt lat="42.16922" lon="1.9124">
        <ele>1522</ele>
        <time>2018-11-13T08:27:44.000Z</time>
      </trkpt>
      <trkpt lat="42.16921" lon="1.91242">
        <ele>1519.0312533333</ele>
        <time>2018-11-13T08:27:47.000Z</time>
      </trkpt>
      <trkpt lat="42.16919" lon="1.91243">
        <ele>1519</ele>
        <time>2018-11-13T08:27:50.000Z</time>
      </trkpt>
      <trkpt lat="42.16918" lon="1.91244">
        <ele>1517.0319180806</ele>
        <time>2018-11-13T08:27:52.000Z</time>
      </trkpt>
      <trkpt lat="42.16916" lon="1.91246">
        <ele>1517</ele>
        <time>2018-11-13T08:27:54.000Z</time>
      </trkpt>
      <trkpt lat="42.16915" lon="1.91247">
        <ele>1515.0945981008</ele>
        <time>2018-11-13T08:27:57.000Z</time>
      </trkpt>
      <trkpt lat="42.16914" lon="1.91249">
        <ele>1514</ele>
        <time>2018-11-13T08:28:00.000Z</time>
      </trkpt>
      <trkpt lat="42.16913" lon="1.91252">
        <ele>1514</ele>
        <time>2018-11-13T08:28:03.000Z</time>
      </trkpt>
      <trkpt lat="42.16912" lon="1.91253">
        <ele>1514</ele>
        <time>2018-11-13T08:28:05.000Z</time>
      </trkpt>
      <trkpt lat="42.1691" lon="1.91255">
        <ele>1513</ele>
        <time>2018-11-13T08:28:08.000Z</time>
      </trkpt>
      <trkpt lat="42.16909" lon="1.91257">
        <ele>1510.0300032</ele>
        <time>2018-11-13T08:28:12.000Z</time>
      </trkpt>
      <trkpt lat="42.16908" lon="1.91259">
        <ele>1510</ele>
        <time>2018-11-13T08:28:16.000Z</time>
      </trkpt>
      <trkpt lat="42.16907" lon="1.91262">
        <ele>1509</ele>
        <time>2018-11-13T08:28:20.000Z</time>
      </trkpt>
      <trkpt lat="42.16905" lon="1.91264">
        <ele>1509</ele>
        <time>2018-11-13T08:28:22.000Z</time>
      </trkpt>
      <trkpt lat="42.16903" lon="1.91266">
        <ele>1508</ele>
        <time>2018-11-13T08:28:24.000Z</time>
      </trkpt>
      <trkpt lat="42.16902" lon="1.91267">
        <ele>1507.0849031541</ele>
        <time>2018-11-13T08:28:27.000Z</time>
      </trkpt>
      <trkpt lat="42.169" lon="1.9127">
        <ele>1507</ele>
        <time>2018-11-13T08:28:31.000Z</time>
      </trkpt>
      <trkpt lat="42.16898" lon="1.91271">
        <ele>1505.0849031541</ele>
        <time>2018-11-13T08:28:33.000Z</time>
      </trkpt>
      <trkpt lat="42.16896" lon="1.91273">
        <ele>1505</ele>
        <time>2018-11-13T08:28:35.000Z</time>
      </trkpt>
      <trkpt lat="42.16895" lon="1.91275">
        <ele>1504.0934636457</ele>
        <time>2018-11-13T08:28:37.000Z</time>
      </trkpt>
      <trkpt lat="42.16893" lon="1.91277">
        <ele>1503</ele>
        <time>2018-11-13T08:28:40.000Z</time>
      </trkpt>
      <trkpt lat="42.16891" lon="1.91278">
        <ele>1502.0300032</ele>
        <time>2018-11-13T08:28:42.000Z</time>
      </trkpt>
      <trkpt lat="42.16889" lon="1.9128">
        <ele>1502</ele>
        <time>2018-11-13T08:28:44.000Z</time>
      </trkpt>
      <trkpt lat="42.16887" lon="1.91281">
        <ele>1501</ele>
        <time>2018-11-13T08:28:46.000Z</time>
      </trkpt>
      <trkpt lat="42.16885" lon="1.91282">
        <ele>1500</ele>
        <time>2018-11-13T08:28:48.000Z</time>
      </trkpt>
      <trkpt lat="42.16882" lon="1.91283">
        <ele>1500</ele>
        <time>2018-11-13T08:28:50.000Z</time>
      </trkpt>
      <trkpt lat="42.1688" lon="1.91285">
        <ele>1499.0300032</ele>
        <time>2018-11-13T08:28:52.000Z</time>
      </trkpt>
      <trkpt lat="42.16879" lon="1.91287">
        <ele>1499</ele>
        <time>2018-11-13T08:29:11.000Z</time>
      </trkpt>
      <trkpt lat="42.16878" lon="1.9129">
        <ele>1498</ele>
        <time>2018-11-13T08:29:14.000Z</time>
      </trkpt>
      <trkpt lat="42.16876" lon="1.91291">
        <ele>1496.0322616164</ele>
        <time>2018-11-13T08:29:16.000Z</time>
      </trkpt>
      <trkpt lat="42.16874" lon="1.91292">
        <ele>1496</ele>
        <time>2018-11-13T08:29:18.000Z</time>
      </trkpt>
      <trkpt lat="42.16871" lon="1.91293">
        <ele>1496.9150968459</ele>
        <time>2018-11-13T08:29:20.000Z</time>
      </trkpt>
      <trkpt lat="42.16869" lon="1.91293">
        <ele>1497</ele>
        <time>2018-11-13T08:29:21.000Z</time>
      </trkpt>
      <trkpt lat="42.16867" lon="1.91293">
        <ele>1497</ele>
        <time>2018-11-13T08:29:22.000Z</time>
      </trkpt>
      <trkpt lat="42.16864" lon="1.91293">
        <ele>1496.0315822094</ele>
        <time>2018-11-13T08:29:24.000Z</time>
      </trkpt>
      <trkpt lat="42.16861" lon="1.91294">
        <ele>1496</ele>
        <time>2018-11-13T08:29:26.000Z</time>
      </trkpt>
      <trkpt lat="42.16858" lon="1.91294">
        <ele>1496</ele>
        <time>2018-11-13T08:29:28.000Z</time>
      </trkpt>
      <trkpt lat="42.16857" lon="1.91294">
        <ele>1496</ele>
        <time>2018-11-13T08:29:30.000Z</time>
      </trkpt>
      <trkpt lat="42.16855" lon="1.91294">
        <ele>1496</ele>
        <time>2018-11-13T08:29:31.000Z</time>
      </trkpt>
      <trkpt lat="42.16853" lon="1.91294">
        <ele>1496</ele>
        <time>2018-11-13T08:29:32.000Z</time>
      </trkpt>
      <trkpt lat="42.1685" lon="1.91295">
        <ele>1496</ele>
        <time>2018-11-13T08:29:34.000Z</time>
      </trkpt>
      <trkpt lat="42.16847" lon="1.91295">
        <ele>1495</ele>
        <time>2018-11-13T08:29:36.000Z</time>
      </trkpt>
      <trkpt lat="42.16845" lon="1.91296">
        <ele>1495</ele>
        <time>2018-11-13T08:29:38.000Z</time>
      </trkpt>
      <trkpt lat="42.16844" lon="1.91298">
        <ele>1496</ele>
        <time>2018-11-13T08:29:40.000Z</time>
      </trkpt>
      <trkpt lat="42.16843" lon="1.913">
        <ele>1497</ele>
        <time>2018-11-13T08:29:43.000Z</time>
      </trkpt>
      <trkpt lat="42.16842" lon="1.91303">
        <ele>1497</ele>
        <time>2018-11-13T08:29:46.000Z</time>
      </trkpt>
      <trkpt lat="42.1684" lon="1.91306">
        <ele>1498</ele>
        <time>2018-11-13T08:29:48.000Z</time>
      </trkpt>
      <trkpt lat="42.16837" lon="1.91308">
        <ele>1498</ele>
        <time>2018-11-13T08:29:50.000Z</time>
      </trkpt>
      <trkpt lat="42.16836" lon="1.91309">
        <ele>1498</ele>
        <time>2018-11-13T08:29:51.000Z</time>
      </trkpt>
      <trkpt lat="42.16834" lon="1.91312">
        <ele>1498.8899079337</ele>
        <time>2018-11-13T08:29:53.000Z</time>
      </trkpt>
      <trkpt lat="42.16832" lon="1.91315">
        <ele>1499</ele>
        <time>2018-11-13T08:29:55.000Z</time>
      </trkpt>
      <trkpt lat="42.16831" lon="1.91317">
        <ele>1499</ele>
        <time>2018-11-13T08:29:57.000Z</time>
      </trkpt>
      <trkpt lat="42.16829" lon="1.91319">
        <ele>1499</ele>
        <time>2018-11-13T08:29:59.000Z</time>
      </trkpt>
      <trkpt lat="42.16828" lon="1.91321">
        <ele>1499</ele>
        <time>2018-11-13T08:30:01.000Z</time>
      </trkpt>
      <trkpt lat="42.16825" lon="1.91323">
        <ele>1500</ele>
        <time>2018-11-13T08:30:03.000Z</time>
      </trkpt>
      <trkpt lat="42.16823" lon="1.91325">
        <ele>1500</ele>
        <time>2018-11-13T08:30:05.000Z</time>
      </trkpt>
      <trkpt lat="42.16821" lon="1.91327">
        <ele>1500</ele>
        <time>2018-11-13T08:30:07.000Z</time>
      </trkpt>
      <trkpt lat="42.16819" lon="1.91328">
        <ele>1500</ele>
        <time>2018-11-13T08:30:09.000Z</time>
      </trkpt>
      <trkpt lat="42.16817" lon="1.9133">
        <ele>1501</ele>
        <time>2018-11-13T08:30:14.000Z</time>
      </trkpt>
      <trkpt lat="42.16816" lon="1.91333">
        <ele>1501</ele>
        <time>2018-11-13T08:30:16.000Z</time>
      </trkpt>
      <trkpt lat="42.16814" lon="1.91335">
        <ele>1501.9699968</ele>
        <time>2018-11-13T08:30:17.000Z</time>
      </trkpt>
      <trkpt lat="42.16812" lon="1.91338">
        <ele>1502</ele>
        <time>2018-11-13T08:30:19.000Z</time>
      </trkpt>
      <trkpt lat="42.1681" lon="1.91341">
        <ele>1502</ele>
        <time>2018-11-13T08:30:21.000Z</time>
      </trkpt>
      <trkpt lat="42.16809" lon="1.91344">
        <ele>1502</ele>
        <time>2018-11-13T08:30:23.000Z</time>
      </trkpt>
      <trkpt lat="42.16809" lon="1.91347">
        <ele>1502</ele>
        <time>2018-11-13T08:30:25.000Z</time>
      </trkpt>
      <trkpt lat="42.16809" lon="1.91351">
        <ele>1502</ele>
        <time>2018-11-13T08:30:27.000Z</time>
      </trkpt>
      <trkpt lat="42.16808" lon="1.91354">
        <ele>1502</ele>
        <time>2018-11-13T08:30:29.000Z</time>
      </trkpt>
      <trkpt lat="42.16806" lon="1.91357">
        <ele>1502.9326892308</ele>
        <time>2018-11-13T08:30:31.000Z</time>
      </trkpt>
      <trkpt lat="42.16804" lon="1.91359">
        <ele>1503</ele>
        <time>2018-11-13T08:30:33.000Z</time>
      </trkpt>
      <trkpt lat="42.16802" lon="1.91361">
        <ele>1503</ele>
        <time>2018-11-13T08:30:35.000Z</time>
      </trkpt>
      <trkpt lat="42.16799" lon="1.91361">
        <ele>1503.9417532435</ele>
        <time>2018-11-13T08:30:37.000Z</time>
      </trkpt>
      <trkpt lat="42.16796" lon="1.91361">
        <ele>1504.9571386776</ele>
        <time>2018-11-13T08:30:39.000Z</time>
      </trkpt>
      <trkpt lat="42.16794" lon="1.91361">
        <ele>1505</ele>
        <time>2018-11-13T08:30:41.000Z</time>
      </trkpt>
      <trkpt lat="42.16791" lon="1.9136">
        <ele>1505</ele>
        <time>2018-11-13T08:30:43.000Z</time>
      </trkpt>
      <trkpt lat="42.16788" lon="1.91359">
        <ele>1506</ele>
        <time>2018-11-13T08:30:45.000Z</time>
      </trkpt>
      <trkpt lat="42.16785" lon="1.91358">
        <ele>1506</ele>
        <time>2018-11-13T08:30:47.000Z</time>
      </trkpt>
      <trkpt lat="42.16782" lon="1.91357">
        <ele>1506</ele>
        <time>2018-11-13T08:30:49.000Z</time>
      </trkpt>
      <trkpt lat="42.1678" lon="1.91358">
        <ele>1507</ele>
        <time>2018-11-13T08:30:51.000Z</time>
      </trkpt>
      <trkpt lat="42.16777" lon="1.91359">
        <ele>1507.9699968</ele>
        <time>2018-11-13T08:30:53.000Z</time>
      </trkpt>
      <trkpt lat="42.16775" lon="1.9136">
        <ele>1508</ele>
        <time>2018-11-13T08:30:55.000Z</time>
      </trkpt>
      <trkpt lat="42.16773" lon="1.91361">
        <ele>1508</ele>
        <time>2018-11-13T08:30:57.000Z</time>
      </trkpt>
      <trkpt lat="42.16771" lon="1.91361">
        <ele>1508.9699968</ele>
        <time>2018-11-13T08:30:59.000Z</time>
      </trkpt>
      <trkpt lat="42.16768" lon="1.91361">
        <ele>1509</ele>
        <time>2018-11-13T08:31:01.000Z</time>
      </trkpt>
      <trkpt lat="42.16766" lon="1.91361">
        <ele>1509</ele>
        <time>2018-11-13T08:31:03.000Z</time>
      </trkpt>
      <trkpt lat="42.16763" lon="1.91361">
        <ele>1510</ele>
        <time>2018-11-13T08:31:05.000Z</time>
      </trkpt>
      <trkpt lat="42.16761" lon="1.9136">
        <ele>1510</ele>
        <time>2018-11-13T08:31:07.000Z</time>
      </trkpt>
      <trkpt lat="42.16758" lon="1.91361">
        <ele>1510</ele>
        <time>2018-11-13T08:31:09.000Z</time>
      </trkpt>
      <trkpt lat="42.16755" lon="1.91361">
        <ele>1510</ele>
        <time>2018-11-13T08:31:11.000Z</time>
      </trkpt>
      <trkpt lat="42.16754" lon="1.91359">
        <ele>1510</ele>
        <time>2018-11-13T08:31:25.000Z</time>
      </trkpt>
      <trkpt lat="42.16752" lon="1.9136">
        <ele>1509</ele>
        <time>2018-11-13T08:31:44.000Z</time>
      </trkpt>
      <trkpt lat="42.16749" lon="1.91362">
        <ele>1509</ele>
        <time>2018-11-13T08:31:46.000Z</time>
      </trkpt>
      <trkpt lat="42.16746" lon="1.91364">
        <ele>1509</ele>
        <time>2018-11-13T08:31:48.000Z</time>
      </trkpt>
      <trkpt lat="42.16742" lon="1.91365">
        <ele>1508</ele>
        <time>2018-11-13T08:31:50.000Z</time>
      </trkpt>
      <trkpt lat="42.16741" lon="1.91366">
        <ele>1508</ele>
        <time>2018-11-13T08:31:51.000Z</time>
      </trkpt>
      <trkpt lat="42.16739" lon="1.91366">
        <ele>1508</ele>
        <time>2018-11-13T08:31:52.000Z</time>
      </trkpt>
      <trkpt lat="42.16737" lon="1.91368">
        <ele>1507.0300032</ele>
        <time>2018-11-13T08:31:53.000Z</time>
      </trkpt>
      <trkpt lat="42.16735" lon="1.91368">
        <ele>1506.0673107692</ele>
        <time>2018-11-13T08:31:54.000Z</time>
      </trkpt>
      <trkpt lat="42.16733" lon="1.9137">
        <ele>1506</ele>
        <time>2018-11-13T08:31:55.000Z</time>
      </trkpt>
      <trkpt lat="42.1673" lon="1.91372">
        <ele>1506.0673107692</ele>
        <time>2018-11-13T08:31:57.000Z</time>
      </trkpt>
      <trkpt lat="42.16728" lon="1.91373">
        <ele>1505.0300032</ele>
        <time>2018-11-13T08:31:59.000Z</time>
      </trkpt>
      <trkpt lat="42.16725" lon="1.91375">
        <ele>1503.0625066667</ele>
        <time>2018-11-13T08:32:01.000Z</time>
      </trkpt>
      <trkpt lat="42.16723" lon="1.91376">
        <ele>1503</ele>
        <time>2018-11-13T08:32:02.000Z</time>
      </trkpt>
      <trkpt lat="42.16721" lon="1.91376">
        <ele>1503</ele>
        <time>2018-11-13T08:32:03.000Z</time>
      </trkpt>
      <trkpt lat="42.16719" lon="1.91377">
        <ele>1503</ele>
        <time>2018-11-13T08:32:04.000Z</time>
      </trkpt>
      <trkpt lat="42.16717" lon="1.91377">
        <ele>1503</ele>
        <time>2018-11-13T08:32:05.000Z</time>
      </trkpt>
      <trkpt lat="42.16715" lon="1.91378">
        <ele>1501.2037096296</ele>
        <time>2018-11-13T08:32:06.000Z</time>
      </trkpt>
      <trkpt lat="42.16712" lon="1.9138">
        <ele>1500</ele>
        <time>2018-11-13T08:32:08.000Z</time>
      </trkpt>
      <trkpt lat="42.1671" lon="1.91381">
        <ele>1500</ele>
        <time>2018-11-13T08:32:09.000Z</time>
      </trkpt>
      <trkpt lat="42.16708" lon="1.91382">
        <ele>1500</ele>
        <time>2018-11-13T08:32:10.000Z</time>
      </trkpt>
      <trkpt lat="42.16706" lon="1.91383">
        <ele>1499.0300032</ele>
        <time>2018-11-13T08:32:12.000Z</time>
      </trkpt>
      <trkpt lat="42.16702" lon="1.91384">
        <ele>1499</ele>
        <time>2018-11-13T08:32:14.000Z</time>
      </trkpt>
      <trkpt lat="42.16698" lon="1.91385">
        <ele>1499</ele>
        <time>2018-11-13T08:32:16.000Z</time>
      </trkpt>
      <trkpt lat="42.16696" lon="1.91385">
        <ele>1498.0315822094</ele>
        <time>2018-11-13T08:32:17.000Z</time>
      </trkpt>
      <trkpt lat="42.16694" lon="1.91385">
        <ele>1498</ele>
        <time>2018-11-13T08:32:18.000Z</time>
      </trkpt>
      <trkpt lat="42.16691" lon="1.91385">
        <ele>1497</ele>
        <time>2018-11-13T08:32:20.000Z</time>
      </trkpt>
      <trkpt lat="42.16689" lon="1.91385">
        <ele>1497</ele>
        <time>2018-11-13T08:32:21.000Z</time>
      </trkpt>
      <trkpt lat="42.16686" lon="1.91385">
        <ele>1497</ele>
        <time>2018-11-13T08:32:22.000Z</time>
      </trkpt>
      <trkpt lat="42.16684" lon="1.91386">
        <ele>1497</ele>
        <time>2018-11-13T08:32:23.000Z</time>
      </trkpt>
      <trkpt lat="42.16681" lon="1.91386">
        <ele>1496.1181795967</ele>
        <time>2018-11-13T08:32:25.000Z</time>
      </trkpt>
      <trkpt lat="42.16679" lon="1.91387">
        <ele>1495.0333366518</ele>
        <time>2018-11-13T08:32:26.000Z</time>
      </trkpt>
      <trkpt lat="42.16677" lon="1.91387">
        <ele>1495</ele>
        <time>2018-11-13T08:32:27.000Z</time>
      </trkpt>
      <trkpt lat="42.16674" lon="1.91387">
        <ele>1495</ele>
        <time>2018-11-13T08:32:29.000Z</time>
      </trkpt>
      <trkpt lat="42.16672" lon="1.91388">
        <ele>1494.1018548148</ele>
        <time>2018-11-13T08:32:31.000Z</time>
      </trkpt>
      <trkpt lat="42.16669" lon="1.9139">
        <ele>1494</ele>
        <time>2018-11-13T08:32:33.000Z</time>
      </trkpt>
      <trkpt lat="42.16667" lon="1.91392">
        <ele>1493</ele>
        <time>2018-11-13T08:32:35.000Z</time>
      </trkpt>
      <trkpt lat="42.16666" lon="1.91394">
        <ele>1491.0300032</ele>
        <time>2018-11-13T08:32:39.000Z</time>
      </trkpt>
      <trkpt lat="42.16664" lon="1.91396">
        <ele>1490</ele>
        <time>2018-11-13T08:32:43.000Z</time>
      </trkpt>
      <trkpt lat="42.16663" lon="1.91394">
        <ele>1490</ele>
        <time>2018-11-13T08:32:52.000Z</time>
      </trkpt>
      <trkpt lat="42.16662" lon="1.91397">
        <ele>1489</ele>
        <time>2018-11-13T08:32:59.000Z</time>
      </trkpt>
      <trkpt lat="42.1666" lon="1.91398">
        <ele>1488</ele>
        <time>2018-11-13T08:33:02.000Z</time>
      </trkpt>
      <trkpt lat="42.1666" lon="1.91402">
        <ele>1487.0428613224</ele>
        <time>2018-11-13T08:33:06.000Z</time>
      </trkpt>
      <trkpt lat="42.1666" lon="1.91405">
        <ele>1486</ele>
        <time>2018-11-13T08:33:09.000Z</time>
      </trkpt>
      <trkpt lat="42.16658" lon="1.91408">
        <ele>1486</ele>
        <time>2018-11-13T08:33:12.000Z</time>
      </trkpt>
      <trkpt lat="42.16657" lon="1.91411">
        <ele>1484.0761907084</ele>
        <time>2018-11-13T08:33:14.000Z</time>
      </trkpt>
      <trkpt lat="42.16656" lon="1.91414">
        <ele>1484.9699968</ele>
        <time>2018-11-13T08:33:16.000Z</time>
      </trkpt>
      <trkpt lat="42.16656" lon="1.91418">
        <ele>1484.0312533333</ele>
        <time>2018-11-13T08:33:18.000Z</time>
      </trkpt>
      <trkpt lat="42.16655" lon="1.91421">
        <ele>1484</ele>
        <time>2018-11-13T08:33:20.000Z</time>
      </trkpt>
      <trkpt lat="42.16653" lon="1.91424">
        <ele>1484</ele>
        <time>2018-11-13T08:33:22.000Z</time>
      </trkpt>
      <trkpt lat="42.16652" lon="1.91428">
        <ele>1482.0300032</ele>
        <time>2018-11-13T08:33:24.000Z</time>
      </trkpt>
      <trkpt lat="42.1665" lon="1.91431">
        <ele>1482</ele>
        <time>2018-11-13T08:33:26.000Z</time>
      </trkpt>
      <trkpt lat="42.16649" lon="1.91433">
        <ele>1482</ele>
        <time>2018-11-13T08:33:28.000Z</time>
      </trkpt>
      <trkpt lat="42.1665" lon="1.91436">
        <ele>1480</ele>
        <time>2018-11-13T08:33:32.000Z</time>
      </trkpt>
      <trkpt lat="42.1665" lon="1.91439">
        <ele>1480</ele>
        <time>2018-11-13T08:33:34.000Z</time>
      </trkpt>
      <trkpt lat="42.16648" lon="1.91443">
        <ele>1479.0300032</ele>
        <time>2018-11-13T08:33:36.000Z</time>
      </trkpt>
      <trkpt lat="42.16648" lon="1.91446">
        <ele>1479</ele>
        <time>2018-11-13T08:33:39.000Z</time>
      </trkpt>
      <trkpt lat="42.16648" lon="1.9145">
        <ele>1478.1100920663</ele>
        <time>2018-11-13T08:33:41.000Z</time>
      </trkpt>
      <trkpt lat="42.16649" lon="1.91454">
        <ele>1478</ele>
        <time>2018-11-13T08:33:43.000Z</time>
      </trkpt>
      <trkpt lat="42.1665" lon="1.91456">
        <ele>1477.0490167781</ele>
        <time>2018-11-13T08:33:44.000Z</time>
      </trkpt>
      <trkpt lat="42.16649" lon="1.91461">
        <ele>1477</ele>
        <time>2018-11-13T08:33:46.000Z</time>
      </trkpt>
      <trkpt lat="42.16649" lon="1.91464">
        <ele>1476</ele>
        <time>2018-11-13T08:33:48.000Z</time>
      </trkpt>
      <trkpt lat="42.16649" lon="1.91468">
        <ele>1475.1491208372</ele>
        <time>2018-11-13T08:33:50.000Z</time>
      </trkpt>
      <trkpt lat="42.16651" lon="1.9147">
        <ele>1474.0300032</ele>
        <time>2018-11-13T08:33:52.000Z</time>
      </trkpt>
      <trkpt lat="42.16653" lon="1.91473">
        <ele>1474</ele>
        <time>2018-11-13T08:33:54.000Z</time>
      </trkpt>
      <trkpt lat="42.16653" lon="1.91476">
        <ele>1474</ele>
        <time>2018-11-13T08:33:56.000Z</time>
      </trkpt>
      <trkpt lat="42.16654" lon="1.91479">
        <ele>1473</ele>
        <time>2018-11-13T08:33:58.000Z</time>
      </trkpt>
      <trkpt lat="42.16654" lon="1.91483">
        <ele>1471.2037096296</ele>
        <time>2018-11-13T08:34:00.000Z</time>
      </trkpt>
      <trkpt lat="42.16653" lon="1.91487">
        <ele>1471</ele>
        <time>2018-11-13T08:34:02.000Z</time>
      </trkpt>
      <trkpt lat="42.16651" lon="1.9149">
        <ele>1470.0326121739</ele>
        <time>2018-11-13T08:34:04.000Z</time>
      </trkpt>
      <trkpt lat="42.16649" lon="1.91491">
        <ele>1469</ele>
        <time>2018-11-13T08:34:06.000Z</time>
      </trkpt>
      <trkpt lat="42.16647" lon="1.91492">
        <ele>1469</ele>
        <time>2018-11-13T08:34:08.000Z</time>
      </trkpt>
      <trkpt lat="42.16645" lon="1.91495">
        <ele>1469</ele>
        <time>2018-11-13T08:34:11.000Z</time>
      </trkpt>
      <trkpt lat="42.16643" lon="1.91496">
        <ele>1468</ele>
        <time>2018-11-13T08:34:14.000Z</time>
      </trkpt>
      <trkpt lat="42.16641" lon="1.91497">
        <ele>1467</ele>
        <time>2018-11-13T08:34:16.000Z</time>
      </trkpt>
      <trkpt lat="42.1664" lon="1.91499">
        <ele>1467</ele>
        <time>2018-11-13T08:34:18.000Z</time>
      </trkpt>
      <trkpt lat="42.16639" lon="1.91501">
        <ele>1464.0312533333</ele>
        <time>2018-11-13T08:34:20.000Z</time>
      </trkpt>
      <trkpt lat="42.16637" lon="1.91502">
        <ele>1464</ele>
        <time>2018-11-13T08:34:22.000Z</time>
      </trkpt>
      <trkpt lat="42.16635" lon="1.91501">
        <ele>1463</ele>
        <time>2018-11-13T08:34:24.000Z</time>
      </trkpt>
      <trkpt lat="42.16632" lon="1.915">
        <ele>1463</ele>
        <time>2018-11-13T08:34:26.000Z</time>
      </trkpt>
      <trkpt lat="42.16629" lon="1.91498">
        <ele>1462.0490167781</ele>
        <time>2018-11-13T08:34:28.000Z</time>
      </trkpt>
      <trkpt lat="42.16628" lon="1.91495">
        <ele>1462</ele>
        <time>2018-11-13T08:34:30.000Z</time>
      </trkpt>
      <trkpt lat="42.16625" lon="1.91495">
        <ele>1461</ele>
        <time>2018-11-13T08:34:32.000Z</time>
      </trkpt>
      <trkpt lat="42.16623" lon="1.91495">
        <ele>1460.2919714849</ele>
        <time>2018-11-13T08:34:35.000Z</time>
      </trkpt>
      <trkpt lat="42.16622" lon="1.91494">
        <ele>1458.2201841327</ele>
        <time>2018-11-13T08:34:38.000Z</time>
      </trkpt>
      <trkpt lat="42.1662" lon="1.91493">
        <ele>1459</ele>
        <time>2018-11-13T08:34:41.000Z</time>
      </trkpt>
      <trkpt lat="42.16618" lon="1.91497">
        <ele>1458.1018548148</ele>
        <time>2018-11-13T08:34:50.000Z</time>
      </trkpt>
      <trkpt lat="42.16617" lon="1.91501">
        <ele>1457.0300032</ele>
        <time>2018-11-13T08:34:52.000Z</time>
      </trkpt>
      <trkpt lat="42.16617" lon="1.91505">
        <ele>1457</ele>
        <time>2018-11-13T08:34:54.000Z</time>
      </trkpt>
      <trkpt lat="42.16617" lon="1.91509">
        <ele>1457</ele>
        <time>2018-11-13T08:34:56.000Z</time>
      </trkpt>
      <trkpt lat="42.16618" lon="1.91512">
        <ele>1457</ele>
        <time>2018-11-13T08:34:57.000Z</time>
      </trkpt>
      <trkpt lat="42.16618" lon="1.91515">
        <ele>1456.0306153103</ele>
        <time>2018-11-13T08:34:58.000Z</time>
      </trkpt>
      <trkpt lat="42.16617" lon="1.91519">
        <ele>1456</ele>
        <time>2018-11-13T08:35:00.000Z</time>
      </trkpt>
      <trkpt lat="42.16617" lon="1.91521">
        <ele>1456</ele>
        <time>2018-11-13T08:35:02.000Z</time>
      </trkpt>
      <trkpt lat="42.16617" lon="1.91525">
        <ele>1454.1100920663</ele>
        <time>2018-11-13T08:35:04.000Z</time>
      </trkpt>
      <trkpt lat="42.16617" lon="1.91529">
        <ele>1453</ele>
        <time>2018-11-13T08:35:06.000Z</time>
      </trkpt>
      <trkpt lat="42.16616" lon="1.91532">
        <ele>1453</ele>
        <time>2018-11-13T08:35:07.000Z</time>
      </trkpt>
      <trkpt lat="42.16616" lon="1.91536">
        <ele>1451.0300032</ele>
        <time>2018-11-13T08:35:09.000Z</time>
      </trkpt>
      <trkpt lat="42.16616" lon="1.91539">
        <ele>1451</ele>
        <time>2018-11-13T08:35:10.000Z</time>
      </trkpt>
      <trkpt lat="42.16614" lon="1.91542">
        <ele>1451</ele>
        <time>2018-11-13T08:35:11.000Z</time>
      </trkpt>
      <trkpt lat="42.16613" lon="1.91544">
        <ele>1450.253844942</ele>
        <time>2018-11-13T08:35:12.000Z</time>
      </trkpt>
      <trkpt lat="42.16612" lon="1.91546">
        <ele>1449.3299968</ele>
        <time>2018-11-13T08:35:13.000Z</time>
      </trkpt>
      <trkpt lat="42.1661" lon="1.91549">
        <ele>1449</ele>
        <time>2018-11-13T08:35:14.000Z</time>
      </trkpt>
      <trkpt lat="42.16608" lon="1.9155">
        <ele>1449</ele>
        <time>2018-11-13T08:35:15.000Z</time>
      </trkpt>
      <trkpt lat="42.16606" lon="1.91553">
        <ele>1449</ele>
        <time>2018-11-13T08:35:16.000Z</time>
      </trkpt>
      <trkpt lat="42.16604" lon="1.91554">
        <ele>1449</ele>
        <time>2018-11-13T08:35:17.000Z</time>
      </trkpt>
      <trkpt lat="42.16603" lon="1.91556">
        <ele>1448.253844942</ele>
        <time>2018-11-13T08:35:18.000Z</time>
      </trkpt>
      <trkpt lat="42.16601" lon="1.91558">
        <ele>1448</ele>
        <time>2018-11-13T08:35:19.000Z</time>
      </trkpt>
      <trkpt lat="42.166" lon="1.91561">
        <ele>1448</ele>
        <time>2018-11-13T08:35:20.000Z</time>
      </trkpt>
      <trkpt lat="42.16598" lon="1.91563">
        <ele>1445.2547094624</ele>
        <time>2018-11-13T08:35:21.000Z</time>
      </trkpt>
      <trkpt lat="42.16596" lon="1.91565">
        <ele>1445</ele>
        <time>2018-11-13T08:35:22.000Z</time>
      </trkpt>
      <trkpt lat="42.16594" lon="1.91567">
        <ele>1445</ele>
        <time>2018-11-13T08:35:24.000Z</time>
      </trkpt>
      <trkpt lat="42.16592" lon="1.91568">
        <ele>1445</ele>
        <time>2018-11-13T08:35:26.000Z</time>
      </trkpt>
      <trkpt lat="42.1659" lon="1.91568">
        <ele>1446</ele>
        <time>2018-11-13T08:35:31.000Z</time>
      </trkpt>
      <trkpt lat="42.16588" lon="1.91568">
        <ele>1444.0563377743</ele>
        <time>2018-11-13T08:35:33.000Z</time>
      </trkpt>
      <trkpt lat="42.16586" lon="1.9157">
        <ele>1443.1018548148</ele>
        <time>2018-11-13T08:35:35.000Z</time>
      </trkpt>
      <trkpt lat="42.16584" lon="1.91572">
        <ele>1443</ele>
        <time>2018-11-13T08:35:37.000Z</time>
      </trkpt>
      <trkpt lat="42.16582" lon="1.91574">
        <ele>1443</ele>
        <time>2018-11-13T08:35:39.000Z</time>
      </trkpt>
      <trkpt lat="42.16579" lon="1.91577">
        <ele>1442.0849031541</ele>
        <time>2018-11-13T08:35:41.000Z</time>
      </trkpt>
      <trkpt lat="42.16577" lon="1.91579">
        <ele>1442</ele>
        <time>2018-11-13T08:35:42.000Z</time>
      </trkpt>
      <trkpt lat="42.16575" lon="1.9158">
        <ele>1442</ele>
        <time>2018-11-13T08:35:43.000Z</time>
      </trkpt>
      <trkpt lat="42.16573" lon="1.91582">
        <ele>1442</ele>
        <time>2018-11-13T08:35:44.000Z</time>
      </trkpt>
      <trkpt lat="42.16571" lon="1.91583">
        <ele>1442</ele>
        <time>2018-11-13T08:35:45.000Z</time>
      </trkpt>
      <trkpt lat="42.16569" lon="1.91585">
        <ele>1442</ele>
        <time>2018-11-13T08:35:46.000Z</time>
      </trkpt>
      <trkpt lat="42.16567" lon="1.91587">
        <ele>1441.1261214511</ele>
        <time>2018-11-13T08:35:47.000Z</time>
      </trkpt>
      <trkpt lat="42.16566" lon="1.91589">
        <ele>1441</ele>
        <time>2018-11-13T08:35:48.000Z</time>
      </trkpt>
      <trkpt lat="42.16564" lon="1.9159">
        <ele>1440.0300032</ele>
        <time>2018-11-13T08:35:49.000Z</time>
      </trkpt>
      <trkpt lat="42.16562" lon="1.91591">
        <ele>1440</ele>
        <time>2018-11-13T08:35:50.000Z</time>
      </trkpt>
      <trkpt lat="42.1656" lon="1.9159">
        <ele>1440</ele>
        <time>2018-11-13T08:35:51.000Z</time>
      </trkpt>
      <trkpt lat="42.16558" lon="1.91589">
        <ele>1439.0563377743</ele>
        <time>2018-11-13T08:35:52.000Z</time>
      </trkpt>
      <trkpt lat="42.16556" lon="1.91587">
        <ele>1439.9696938353</ele>
        <time>2018-11-13T08:35:53.000Z</time>
      </trkpt>
      <trkpt lat="42.16554" lon="1.91585">
        <ele>1440</ele>
        <time>2018-11-13T08:35:54.000Z</time>
      </trkpt>
      <trkpt lat="42.16553" lon="1.91582">
        <ele>1439.0326121739</ele>
        <time>2018-11-13T08:35:55.000Z</time>
      </trkpt>
      <trkpt lat="42.16551" lon="1.91581">
        <ele>1439</ele>
        <time>2018-11-13T08:35:56.000Z</time>
      </trkpt>
      <trkpt lat="42.16549" lon="1.91579">
        <ele>1439</ele>
        <time>2018-11-13T08:35:57.000Z</time>
      </trkpt>
      <trkpt lat="42.16547" lon="1.91578">
        <ele>1438.0300032</ele>
        <time>2018-11-13T08:35:58.000Z</time>
      </trkpt>
      <trkpt lat="42.16544" lon="1.91577">
        <ele>1438</ele>
        <time>2018-11-13T08:35:59.000Z</time>
      </trkpt>
      <trkpt lat="42.16541" lon="1.91577">
        <ele>1437.0934528011</ele>
        <time>2018-11-13T08:36:00.000Z</time>
      </trkpt>
      <trkpt lat="42.16539" lon="1.91578">
        <ele>1437</ele>
        <time>2018-11-13T08:36:01.000Z</time>
      </trkpt>
      <trkpt lat="42.16537" lon="1.91579">
        <ele>1437</ele>
        <time>2018-11-13T08:36:02.000Z</time>
      </trkpt>
      <trkpt lat="42.16534" lon="1.91581">
        <ele>1437</ele>
        <time>2018-11-13T08:36:03.000Z</time>
      </trkpt>
      <trkpt lat="42.16532" lon="1.91582">
        <ele>1437</ele>
        <time>2018-11-13T08:36:04.000Z</time>
      </trkpt>
      <trkpt lat="42.1653" lon="1.91584">
        <ele>1437</ele>
        <time>2018-11-13T08:36:05.000Z</time>
      </trkpt>
      <trkpt lat="42.16528" lon="1.91585">
        <ele>1437</ele>
        <time>2018-11-13T08:36:06.000Z</time>
      </trkpt>
      <trkpt lat="42.16526" lon="1.91586">
        <ele>1436.0300032</ele>
        <time>2018-11-13T08:36:07.000Z</time>
      </trkpt>
      <trkpt lat="42.16524" lon="1.91586">
        <ele>1435.0300032</ele>
        <time>2018-11-13T08:36:08.000Z</time>
      </trkpt>
      <trkpt lat="42.16522" lon="1.91585">
        <ele>1435</ele>
        <time>2018-11-13T08:36:09.000Z</time>
      </trkpt>
      <trkpt lat="42.1652" lon="1.91584">
        <ele>1435</ele>
        <time>2018-11-13T08:36:10.000Z</time>
      </trkpt>
      <trkpt lat="42.16519" lon="1.91581">
        <ele>1434.0563377743</ele>
        <time>2018-11-13T08:36:11.000Z</time>
      </trkpt>
      <trkpt lat="42.16518" lon="1.91578">
        <ele>1434</ele>
        <time>2018-11-13T08:36:12.000Z</time>
      </trkpt>
      <trkpt lat="42.16517" lon="1.91575">
        <ele>1432.0600064</ele>
        <time>2018-11-13T08:36:13.000Z</time>
      </trkpt>
      <trkpt lat="42.16516" lon="1.91571">
        <ele>1432</ele>
        <time>2018-11-13T08:36:14.000Z</time>
      </trkpt>
      <trkpt lat="42.16516" lon="1.91567">
        <ele>1432</ele>
        <time>2018-11-13T08:36:15.000Z</time>
      </trkpt>
      <trkpt lat="42.16516" lon="1.91563">
        <ele>1432</ele>
        <time>2018-11-13T08:36:16.000Z</time>
      </trkpt>
      <trkpt lat="42.16515" lon="1.9156">
        <ele>1432</ele>
        <time>2018-11-13T08:36:17.000Z</time>
      </trkpt>
      <trkpt lat="42.16515" lon="1.91556">
        <ele>1431.0673107692</ele>
        <time>2018-11-13T08:36:19.000Z</time>
      </trkpt>
      <trkpt lat="42.16515" lon="1.91552">
        <ele>1431</ele>
        <time>2018-11-13T08:36:21.000Z</time>
      </trkpt>
      <trkpt lat="42.16515" lon="1.91549">
        <ele>1431</ele>
        <time>2018-11-13T08:36:23.000Z</time>
      </trkpt>
      <trkpt lat="42.16512" lon="1.91549">
        <ele>1430.0312533333</ele>
        <time>2018-11-13T08:36:26.000Z</time>
      </trkpt>
      <trkpt lat="42.1651" lon="1.91549">
        <ele>1430</ele>
        <time>2018-11-13T08:36:28.000Z</time>
      </trkpt>
      <trkpt lat="42.16507" lon="1.91549">
        <ele>1430</ele>
        <time>2018-11-13T08:36:31.000Z</time>
      </trkpt>
      <trkpt lat="42.16505" lon="1.91548">
        <ele>1429</ele>
        <time>2018-11-13T08:36:33.000Z</time>
      </trkpt>
      <trkpt lat="42.16503" lon="1.91546">
        <ele>1429</ele>
        <time>2018-11-13T08:36:35.000Z</time>
      </trkpt>
      <trkpt lat="42.165" lon="1.91543">
        <ele>1428</ele>
        <time>2018-11-13T08:36:37.000Z</time>
      </trkpt>
      <trkpt lat="42.16498" lon="1.91542">
        <ele>1427.0300032</ele>
        <time>2018-11-13T08:36:38.000Z</time>
      </trkpt>
      <trkpt lat="42.16496" lon="1.91541">
        <ele>1426.0849031541</ele>
        <time>2018-11-13T08:36:39.000Z</time>
      </trkpt>
      <trkpt lat="42.16494" lon="1.9154">
        <ele>1425.0319180806</ele>
        <time>2018-11-13T08:36:40.000Z</time>
      </trkpt>
      <trkpt lat="42.16491" lon="1.9154">
        <ele>1425</ele>
        <time>2018-11-13T08:36:42.000Z</time>
      </trkpt>
      <trkpt lat="42.16489" lon="1.91539">
        <ele>1425</ele>
        <time>2018-11-13T08:36:43.000Z</time>
      </trkpt>
      <trkpt lat="42.16487" lon="1.91538">
        <ele>1425</ele>
        <time>2018-11-13T08:36:44.000Z</time>
      </trkpt>
      <trkpt lat="42.16486" lon="1.91537">
        <ele>1424.0300032</ele>
        <time>2018-11-13T08:36:45.000Z</time>
      </trkpt>
      <trkpt lat="42.16484" lon="1.91536">
        <ele>1423.0300032</ele>
        <time>2018-11-13T08:36:46.000Z</time>
      </trkpt>
      <trkpt lat="42.16482" lon="1.91535">
        <ele>1423</ele>
        <time>2018-11-13T08:36:47.000Z</time>
      </trkpt>
      <trkpt lat="42.16479" lon="1.91535">
        <ele>1423</ele>
        <time>2018-11-13T08:36:49.000Z</time>
      </trkpt>
      <trkpt lat="42.16477" lon="1.91534">
        <ele>1423.9699968</ele>
        <time>2018-11-13T08:36:50.000Z</time>
      </trkpt>
      <trkpt lat="42.16475" lon="1.91535">
        <ele>1423.0934636457</ele>
        <time>2018-11-13T08:36:51.000Z</time>
      </trkpt>
      <trkpt lat="42.16473" lon="1.91535">
        <ele>1422.0322616164</ele>
        <time>2018-11-13T08:36:52.000Z</time>
      </trkpt>
      <trkpt lat="42.1647" lon="1.91535">
        <ele>1421.0300032</ele>
        <time>2018-11-13T08:36:54.000Z</time>
      </trkpt>
      <trkpt lat="42.16466" lon="1.91535">
        <ele>1421</ele>
        <time>2018-11-13T08:36:56.000Z</time>
      </trkpt>
      <trkpt lat="42.16463" lon="1.91535">
        <ele>1420</ele>
        <time>2018-11-13T08:36:58.000Z</time>
      </trkpt>
      <trkpt lat="42.1646" lon="1.91535">
        <ele>1419.0300032</ele>
        <time>2018-11-13T08:37:00.000Z</time>
      </trkpt>
      <trkpt lat="42.16456" lon="1.91534">
        <ele>1419</ele>
        <time>2018-11-13T08:37:02.000Z</time>
      </trkpt>
      <trkpt lat="42.16454" lon="1.91531">
        <ele>1417.0300032</ele>
        <time>2018-11-13T08:37:04.000Z</time>
      </trkpt>
      <trkpt lat="42.16451" lon="1.91529">
        <ele>1416</ele>
        <time>2018-11-13T08:37:06.000Z</time>
      </trkpt>
      <trkpt lat="42.1645" lon="1.91528">
        <ele>1416</ele>
        <time>2018-11-13T08:37:07.000Z</time>
      </trkpt>
      <trkpt lat="42.16448" lon="1.91526">
        <ele>1415.0563377743</ele>
        <time>2018-11-13T08:37:08.000Z</time>
      </trkpt>
      <trkpt lat="42.16446" lon="1.91526">
        <ele>1415</ele>
        <time>2018-11-13T08:37:09.000Z</time>
      </trkpt>
      <trkpt lat="42.16443" lon="1.91526">
        <ele>1413.1698063083</ele>
        <time>2018-11-13T08:37:10.000Z</time>
      </trkpt>
      <trkpt lat="42.16441" lon="1.91526">
        <ele>1413</ele>
        <time>2018-11-13T08:37:11.000Z</time>
      </trkpt>
      <trkpt lat="42.16438" lon="1.91525">
        <ele>1413</ele>
        <time>2018-11-13T08:37:13.000Z</time>
      </trkpt>
      <trkpt lat="42.16436" lon="1.91524">
        <ele>1413</ele>
        <time>2018-11-13T08:37:14.000Z</time>
      </trkpt>
      <trkpt lat="42.16433" lon="1.91523">
        <ele>1412.0761907084</ele>
        <time>2018-11-13T08:37:16.000Z</time>
      </trkpt>
      <trkpt lat="42.1643" lon="1.91521">
        <ele>1412</ele>
        <time>2018-11-13T08:37:18.000Z</time>
      </trkpt>
      <trkpt lat="42.16427" lon="1.91519">
        <ele>1411.0312533333</ele>
        <time>2018-11-13T08:37:20.000Z</time>
      </trkpt>
      <trkpt lat="42.16425" lon="1.91519">
        <ele>1410.0300032</ele>
        <time>2018-11-13T08:37:21.000Z</time>
      </trkpt>
      <trkpt lat="42.16423" lon="1.91517">
        <ele>1410</ele>
        <time>2018-11-13T08:37:22.000Z</time>
      </trkpt>
      <trkpt lat="42.16421" lon="1.91515">
        <ele>1410</ele>
        <time>2018-11-13T08:37:23.000Z</time>
      </trkpt>
      <trkpt lat="42.1642" lon="1.91514">
        <ele>1410</ele>
        <time>2018-11-13T08:37:24.000Z</time>
      </trkpt>
      <trkpt lat="42.16418" lon="1.91512">
        <ele>1409.0673107692</ele>
        <time>2018-11-13T08:37:25.000Z</time>
      </trkpt>
      <trkpt lat="42.16417" lon="1.91509">
        <ele>1408.2619035525</ele>
        <time>2018-11-13T08:37:26.000Z</time>
      </trkpt>
      <trkpt lat="42.16416" lon="1.91507">
        <ele>1408</ele>
        <time>2018-11-13T08:37:27.000Z</time>
      </trkpt>
      <trkpt lat="42.16415" lon="1.91505">
        <ele>1408</ele>
        <time>2018-11-13T08:37:28.000Z</time>
      </trkpt>
      <trkpt lat="42.16414" lon="1.91502">
        <ele>1407.2919714849</ele>
        <time>2018-11-13T08:37:29.000Z</time>
      </trkpt>
      <trkpt lat="42.16413" lon="1.91499">
        <ele>1406.0476238851</ele>
        <time>2018-11-13T08:37:30.000Z</time>
      </trkpt>
      <trkpt lat="42.16413" lon="1.91496">
        <ele>1406</ele>
        <time>2018-11-13T08:37:31.000Z</time>
      </trkpt>
      <trkpt lat="42.16411" lon="1.91494">
        <ele>1405.0340945454</ele>
        <time>2018-11-13T08:37:33.000Z</time>
      </trkpt>
      <trkpt lat="42.16409" lon="1.91496">
        <ele>1405</ele>
        <time>2018-11-13T08:37:35.000Z</time>
      </trkpt>
      <trkpt lat="42.16407" lon="1.91498">
        <ele>1404</ele>
        <time>2018-11-13T08:37:37.000Z</time>
      </trkpt>
      <trkpt lat="42.16405" lon="1.91499">
        <ele>1404</ele>
        <time>2018-11-13T08:37:38.000Z</time>
      </trkpt>
      <trkpt lat="42.16403" lon="1.91498">
        <ele>1404</ele>
        <time>2018-11-13T08:37:39.000Z</time>
      </trkpt>
      <trkpt lat="42.16401" lon="1.91498">
        <ele>1403.0300032</ele>
        <time>2018-11-13T08:37:40.000Z</time>
      </trkpt>
      <trkpt lat="42.16398" lon="1.91498">
        <ele>1402.0300032</ele>
        <time>2018-11-13T08:37:41.000Z</time>
      </trkpt>
      <trkpt lat="42.16396" lon="1.91497">
        <ele>1401.0300032</ele>
        <time>2018-11-13T08:37:42.000Z</time>
      </trkpt>
      <trkpt lat="42.16393" lon="1.91498">
        <ele>1401</ele>
        <time>2018-11-13T08:37:43.000Z</time>
      </trkpt>
      <trkpt lat="42.1639" lon="1.91497">
        <ele>1401</ele>
        <time>2018-11-13T08:37:44.000Z</time>
      </trkpt>
      <trkpt lat="42.16388" lon="1.91498">
        <ele>1401</ele>
        <time>2018-11-13T08:37:45.000Z</time>
      </trkpt>
      <trkpt lat="42.16386" lon="1.91498">
        <ele>1400.0434831002</ele>
        <time>2018-11-13T08:37:46.000Z</time>
      </trkpt>
      <trkpt lat="42.16384" lon="1.91499">
        <ele>1400</ele>
        <time>2018-11-13T08:37:47.000Z</time>
      </trkpt>
      <trkpt lat="42.16382" lon="1.91499">
        <ele>1399.0673107692</ele>
        <time>2018-11-13T08:37:48.000Z</time>
      </trkpt>
      <trkpt lat="42.1638" lon="1.91499">
        <ele>1398.0312533333</ele>
        <time>2018-11-13T08:37:49.000Z</time>
      </trkpt>
      <trkpt lat="42.16378" lon="1.915">
        <ele>1398</ele>
        <time>2018-11-13T08:37:50.000Z</time>
      </trkpt>
      <trkpt lat="42.16377" lon="1.91501">
        <ele>1398</ele>
        <time>2018-11-13T08:37:51.000Z</time>
      </trkpt>
      <trkpt lat="42.16374" lon="1.915">
        <ele>1398</ele>
        <time>2018-11-13T08:37:53.000Z</time>
      </trkpt>
      <trkpt lat="42.16372" lon="1.91497">
        <ele>1398</ele>
        <time>2018-11-13T08:37:55.000Z</time>
      </trkpt>
      <trkpt lat="42.16371" lon="1.91494">
        <ele>1398</ele>
        <time>2018-11-13T08:37:57.000Z</time>
      </trkpt>
      <trkpt lat="42.1637" lon="1.91491">
        <ele>1398</ele>
        <time>2018-11-13T08:37:59.000Z</time>
      </trkpt>
      <trkpt lat="42.1637" lon="1.91495">
        <ele>1398</ele>
        <time>2018-11-13T08:38:06.000Z</time>
      </trkpt>
      <trkpt lat="42.1637" lon="1.91499">
        <ele>1397</ele>
        <time>2018-11-13T08:38:09.000Z</time>
      </trkpt>
      <trkpt lat="42.16369" lon="1.91501">
        <ele>1397</ele>
        <time>2018-11-13T08:38:11.000Z</time>
      </trkpt>
      <trkpt lat="42.16367" lon="1.91505">
        <ele>1397</ele>
        <time>2018-11-13T08:38:13.000Z</time>
      </trkpt>
      <trkpt lat="42.16366" lon="1.91508">
        <ele>1397</ele>
        <time>2018-11-13T08:38:15.000Z</time>
      </trkpt>
      <trkpt lat="42.16365" lon="1.9151">
        <ele>1397</ele>
        <time>2018-11-13T08:38:18.000Z</time>
      </trkpt>
      <trkpt lat="42.16362" lon="1.91512">
        <ele>1396.0300032</ele>
        <time>2018-11-13T08:38:21.000Z</time>
      </trkpt>
      <trkpt lat="42.16361" lon="1.91514">
        <ele>1396</ele>
        <time>2018-11-13T08:38:23.000Z</time>
      </trkpt>
      <trkpt lat="42.16363" lon="1.91516">
        <ele>1395</ele>
        <time>2018-11-13T08:38:28.000Z</time>
      </trkpt>
      <trkpt lat="42.16362" lon="1.91519">
        <ele>1395</ele>
        <time>2018-11-13T08:38:31.000Z</time>
      </trkpt>
      <trkpt lat="42.16361" lon="1.91521">
        <ele>1396</ele>
        <time>2018-11-13T08:38:34.000Z</time>
      </trkpt>
      <trkpt lat="42.1636" lon="1.91523">
        <ele>1397</ele>
        <time>2018-11-13T08:38:37.000Z</time>
      </trkpt>
      <trkpt lat="42.16359" lon="1.91526">
        <ele>1397</ele>
        <time>2018-11-13T08:38:39.000Z</time>
      </trkpt>
      <trkpt lat="42.16356" lon="1.91528">
        <ele>1397</ele>
        <time>2018-11-13T08:38:41.000Z</time>
      </trkpt>
      <trkpt lat="42.16353" lon="1.91531">
        <ele>1397</ele>
        <time>2018-11-13T08:38:43.000Z</time>
      </trkpt>
      <trkpt lat="42.1635" lon="1.91532">
        <ele>1397</ele>
        <time>2018-11-13T08:38:45.000Z</time>
      </trkpt>
      <trkpt lat="42.16348" lon="1.91533">
        <ele>1396.0319180806</ele>
        <time>2018-11-13T08:38:46.000Z</time>
      </trkpt>
      <trkpt lat="42.16345" lon="1.91532">
        <ele>1396</ele>
        <time>2018-11-13T08:38:48.000Z</time>
      </trkpt>
      <trkpt lat="42.16341" lon="1.91532">
        <ele>1396</ele>
        <time>2018-11-13T08:38:50.000Z</time>
      </trkpt>
      <trkpt lat="42.1634" lon="1.91532">
        <ele>1395.3015908491</ele>
        <time>2018-11-13T08:38:51.000Z</time>
      </trkpt>
      <trkpt lat="42.16337" lon="1.91532">
        <ele>1395</ele>
        <time>2018-11-13T08:38:52.000Z</time>
      </trkpt>
      <trkpt lat="42.16336" lon="1.91532">
        <ele>1393.0600064</ele>
        <time>2018-11-13T08:38:53.000Z</time>
      </trkpt>
      <trkpt lat="42.16334" lon="1.9153">
        <ele>1392.0849031541</ele>
        <time>2018-11-13T08:38:54.000Z</time>
      </trkpt>
      <trkpt lat="42.16333" lon="1.91528">
        <ele>1392</ele>
        <time>2018-11-13T08:38:55.000Z</time>
      </trkpt>
      <trkpt lat="42.16331" lon="1.91527">
        <ele>1392</ele>
        <time>2018-11-13T08:38:57.000Z</time>
      </trkpt>
      <trkpt lat="42.16328" lon="1.91528">
        <ele>1391</ele>
        <time>2018-11-13T08:38:59.000Z</time>
      </trkpt>
      <trkpt lat="42.16326" lon="1.91529">
        <ele>1389.5279962317</ele>
        <time>2018-11-13T08:39:01.000Z</time>
      </trkpt>
      <trkpt lat="42.16323" lon="1.91531">
        <ele>1389</ele>
        <time>2018-11-13T08:39:03.000Z</time>
      </trkpt>
      <trkpt lat="42.16321" lon="1.91532">
        <ele>1387.0337115819</ele>
        <time>2018-11-13T08:39:05.000Z</time>
      </trkpt>
      <trkpt lat="42.16318" lon="1.91534">
        <ele>1387</ele>
        <time>2018-11-13T08:39:07.000Z</time>
      </trkpt>
      <trkpt lat="42.16315" lon="1.91534">
        <ele>1386</ele>
        <time>2018-11-13T08:39:09.000Z</time>
      </trkpt>
      <trkpt lat="42.16313" lon="1.91536">
        <ele>1385</ele>
        <time>2018-11-13T08:39:11.000Z</time>
      </trkpt>
      <trkpt lat="42.16311" lon="1.91538">
        <ele>1384</ele>
        <time>2018-11-13T08:39:13.000Z</time>
      </trkpt>
      <trkpt lat="42.16309" lon="1.91541">
        <ele>1384</ele>
        <time>2018-11-13T08:39:15.000Z</time>
      </trkpt>
      <trkpt lat="42.16306" lon="1.91542">
        <ele>1384</ele>
        <time>2018-11-13T08:39:17.000Z</time>
      </trkpt>
      <trkpt lat="42.16303" lon="1.91544">
        <ele>1384</ele>
        <time>2018-11-13T08:39:19.000Z</time>
      </trkpt>
      <trkpt lat="42.163" lon="1.91545">
        <ele>1384</ele>
        <time>2018-11-13T08:39:21.000Z</time>
      </trkpt>
      <trkpt lat="42.16297" lon="1.91545">
        <ele>1382.0319180806</ele>
        <time>2018-11-13T08:39:24.000Z</time>
      </trkpt>
      <trkpt lat="42.16294" lon="1.91544">
        <ele>1381.0428613224</ele>
        <time>2018-11-13T08:39:26.000Z</time>
      </trkpt>
      <trkpt lat="42.16292" lon="1.91545">
        <ele>1380.0761907084</ele>
        <time>2018-11-13T08:39:28.000Z</time>
      </trkpt>
      <trkpt lat="42.16288" lon="1.91546">
        <ele>1379</ele>
        <time>2018-11-13T08:39:32.000Z</time>
      </trkpt>
      <trkpt lat="42.16286" lon="1.91547">
        <ele>1378.0312533333</ele>
        <time>2018-11-13T08:39:35.000Z</time>
      </trkpt>
      <trkpt lat="42.16284" lon="1.91547">
        <ele>1377</ele>
        <time>2018-11-13T08:39:37.000Z</time>
      </trkpt>
      <trkpt lat="42.16282" lon="1.91546">
        <ele>1376</ele>
        <time>2018-11-13T08:39:39.000Z</time>
      </trkpt>
      <trkpt lat="42.1628" lon="1.91545">
        <ele>1376</ele>
        <time>2018-11-13T08:39:41.000Z</time>
      </trkpt>
      <trkpt lat="42.16271" lon="1.91541">
        <ele>1371.0673107692</ele>
        <time>2018-11-13T08:39:48.000Z</time>
      </trkpt>
      <trkpt lat="42.16262" lon="1.91537">
        <ele>1370</ele>
        <time>2018-11-13T08:39:54.000Z</time>
      </trkpt>
      <trkpt lat="42.16253" lon="1.91536">
        <ele>1368.0490167781</ele>
        <time>2018-11-13T08:40:01.000Z</time>
      </trkpt>
      <trkpt lat="42.16243" lon="1.91533">
        <ele>1367.0428613224</ele>
        <time>2018-11-13T08:40:07.000Z</time>
      </trkpt>
      <trkpt lat="42.16237" lon="1.91533">
        <ele>1365.0761907084</ele>
        <time>2018-11-13T08:40:12.000Z</time>
      </trkpt>
      <trkpt lat="42.16228" lon="1.91534">
        <ele>1364</ele>
        <time>2018-11-13T08:40:19.000Z</time>
      </trkpt>
      <trkpt lat="42.16218" lon="1.91535">
        <ele>1360</ele>
        <time>2018-11-13T08:40:26.000Z</time>
      </trkpt>
      <trkpt lat="42.1621" lon="1.9153">
        <ele>1358</ele>
        <time>2018-11-13T08:40:32.000Z</time>
      </trkpt>
      <trkpt lat="42.16201" lon="1.91527">
        <ele>1356</ele>
        <time>2018-11-13T08:40:38.000Z</time>
      </trkpt>
      <trkpt lat="42.16191" lon="1.91526">
        <ele>1353.0434831002</ele>
        <time>2018-11-13T08:40:46.000Z</time>
      </trkpt>
      <trkpt lat="42.16182" lon="1.91519">
        <ele>1350</ele>
        <time>2018-11-13T08:40:56.000Z</time>
      </trkpt>
      <trkpt lat="42.16173" lon="1.91516">
        <ele>1347</ele>
        <time>2018-11-13T08:41:02.000Z</time>
      </trkpt>
      <trkpt lat="42.16162" lon="1.91514">
        <ele>1345</ele>
        <time>2018-11-13T08:41:08.000Z</time>
      </trkpt>
      <trkpt lat="42.16151" lon="1.91513">
        <ele>1343</ele>
        <time>2018-11-13T08:41:13.000Z</time>
      </trkpt>
      <trkpt lat="42.16141" lon="1.91512">
        <ele>1339.0312533333</ele>
        <time>2018-11-13T08:41:18.000Z</time>
      </trkpt>
      <trkpt lat="42.16137" lon="1.91511">
        <ele>1338</ele>
        <time>2018-11-13T08:41:21.000Z</time>
      </trkpt>
      <trkpt lat="42.16127" lon="1.9151">
        <ele>1335</ele>
        <time>2018-11-13T08:41:29.000Z</time>
      </trkpt>
      <trkpt lat="42.16118" lon="1.91511">
        <ele>1331.0490167781</ele>
        <time>2018-11-13T08:41:36.000Z</time>
      </trkpt>
      <trkpt lat="42.16108" lon="1.9151">
        <ele>1328</ele>
        <time>2018-11-13T08:41:44.000Z</time>
      </trkpt>
      <trkpt lat="42.16103" lon="1.915">
        <ele>1325.0428613224</ele>
        <time>2018-11-13T08:41:50.000Z</time>
      </trkpt>
      <trkpt lat="42.16095" lon="1.91496">
        <ele>1322.1869272914</ele>
        <time>2018-11-13T08:41:55.000Z</time>
      </trkpt>
      <trkpt lat="42.16092" lon="1.91495">
        <ele>1322</ele>
        <time>2018-11-13T08:41:57.000Z</time>
      </trkpt>
      <trkpt lat="42.1609" lon="1.91495">
        <ele>1322</ele>
        <time>2018-11-13T08:41:59.000Z</time>
      </trkpt>
      <trkpt lat="42.16088" lon="1.91495">
        <ele>1321</ele>
        <time>2018-11-13T08:42:01.000Z</time>
      </trkpt>
      <trkpt lat="42.16086" lon="1.91495">
        <ele>1321</ele>
        <time>2018-11-13T08:42:02.000Z</time>
      </trkpt>
      <trkpt lat="42.16084" lon="1.91494">
        <ele>1320</ele>
        <time>2018-11-13T08:42:04.000Z</time>
      </trkpt>
      <trkpt lat="42.16082" lon="1.91493">
        <ele>1319.0300032</ele>
        <time>2018-11-13T08:42:06.000Z</time>
      </trkpt>
      <trkpt lat="42.16079" lon="1.91491">
        <ele>1317.0315822094</ele>
        <time>2018-11-13T08:42:08.000Z</time>
      </trkpt>
      <trkpt lat="42.16077" lon="1.91489">
        <ele>1317</ele>
        <time>2018-11-13T08:42:11.000Z</time>
      </trkpt>
      <trkpt lat="42.16075" lon="1.91488">
        <ele>1316</ele>
        <time>2018-11-13T08:42:13.000Z</time>
      </trkpt>
      <trkpt lat="42.16074" lon="1.91486">
        <ele>1314</ele>
        <time>2018-11-13T08:42:17.000Z</time>
      </trkpt>
      <trkpt lat="42.16071" lon="1.91485">
        <ele>1313</ele>
        <time>2018-11-13T08:42:22.000Z</time>
      </trkpt>
      <trkpt lat="42.16069" lon="1.91486">
        <ele>1312</ele>
        <time>2018-11-13T08:42:25.000Z</time>
      </trkpt>
      <trkpt lat="42.16067" lon="1.91485">
        <ele>1310.0300032</ele>
        <time>2018-11-13T08:42:28.000Z</time>
      </trkpt>
      <trkpt lat="42.16064" lon="1.91483">
        <ele>1310</ele>
        <time>2018-11-13T08:42:31.000Z</time>
      </trkpt>
      <trkpt lat="42.16063" lon="1.9148">
        <ele>1308.1523814168</ele>
        <time>2018-11-13T08:42:33.000Z</time>
      </trkpt>
      <trkpt lat="42.1606" lon="1.91479">
        <ele>1307</ele>
        <time>2018-11-13T08:42:35.000Z</time>
      </trkpt>
      <trkpt lat="42.16057" lon="1.91479">
        <ele>1307</ele>
        <time>2018-11-13T08:42:37.000Z</time>
      </trkpt>
      <trkpt lat="42.16055" lon="1.91481">
        <ele>1307</ele>
        <time>2018-11-13T08:42:39.000Z</time>
      </trkpt>
      <trkpt lat="42.16053" lon="1.91481">
        <ele>1306</ele>
        <time>2018-11-13T08:42:42.000Z</time>
      </trkpt>
      <trkpt lat="42.1605" lon="1.9148">
        <ele>1306</ele>
        <time>2018-11-13T08:42:44.000Z</time>
      </trkpt>
      <trkpt lat="42.16048" lon="1.9148">
        <ele>1305.0329704335</ele>
        <time>2018-11-13T08:42:46.000Z</time>
      </trkpt>
      <trkpt lat="42.16045" lon="1.9148">
        <ele>1305</ele>
        <time>2018-11-13T08:42:48.000Z</time>
      </trkpt>
      <trkpt lat="42.16042" lon="1.91479">
        <ele>1304</ele>
        <time>2018-11-13T08:42:51.000Z</time>
      </trkpt>
      <trkpt lat="42.16039" lon="1.91478">
        <ele>1303.0673107692</ele>
        <time>2018-11-13T08:42:53.000Z</time>
      </trkpt>
      <trkpt lat="42.16036" lon="1.91477">
        <ele>1302.0300032</ele>
        <time>2018-11-13T08:42:55.000Z</time>
      </trkpt>
      <trkpt lat="42.16034" lon="1.91476">
        <ele>1302</ele>
        <time>2018-11-13T08:42:57.000Z</time>
      </trkpt>
      <trkpt lat="42.16033" lon="1.91476">
        <ele>1301</ele>
        <time>2018-11-13T08:42:59.000Z</time>
      </trkpt>
      <trkpt lat="42.16031" lon="1.91477">
        <ele>1299.0300032</ele>
        <time>2018-11-13T08:43:01.000Z</time>
      </trkpt>
      <trkpt lat="42.16028" lon="1.91476">
        <ele>1298.0309312361</ele>
        <time>2018-11-13T08:43:03.000Z</time>
      </trkpt>
      <trkpt lat="42.16026" lon="1.91478">
        <ele>1298</ele>
        <time>2018-11-13T08:43:05.000Z</time>
      </trkpt>
      <trkpt lat="42.16024" lon="1.91478">
        <ele>1297</ele>
        <time>2018-11-13T08:43:09.000Z</time>
      </trkpt>
      <trkpt lat="42.16021" lon="1.91479">
        <ele>1295</ele>
        <time>2018-11-13T08:43:13.000Z</time>
      </trkpt>
      <trkpt lat="42.16019" lon="1.91477">
        <ele>1295</ele>
        <time>2018-11-13T08:43:15.000Z</time>
      </trkpt>
      <trkpt lat="42.16016" lon="1.91476">
        <ele>1295</ele>
        <time>2018-11-13T08:43:17.000Z</time>
      </trkpt>
      <trkpt lat="42.16013" lon="1.91474">
        <ele>1294</ele>
        <time>2018-11-13T08:43:19.000Z</time>
      </trkpt>
      <trkpt lat="42.16011" lon="1.91471">
        <ele>1294</ele>
        <time>2018-11-13T08:43:20.000Z</time>
      </trkpt>
      <trkpt lat="42.16009" lon="1.9147">
        <ele>1292.0600064</ele>
        <time>2018-11-13T08:43:21.000Z</time>
      </trkpt>
      <trkpt lat="42.16006" lon="1.91469">
        <ele>1291</ele>
        <time>2018-11-13T08:43:23.000Z</time>
      </trkpt>
      <trkpt lat="42.16004" lon="1.91468">
        <ele>1290.0300032</ele>
        <time>2018-11-13T08:43:24.000Z</time>
      </trkpt>
      <trkpt lat="42.16002" lon="1.91467">
        <ele>1290</ele>
        <time>2018-11-13T08:43:25.000Z</time>
      </trkpt>
      <trkpt lat="42.15998" lon="1.91467">
        <ele>1290</ele>
        <time>2018-11-13T08:43:27.000Z</time>
      </trkpt>
      <trkpt lat="42.15996" lon="1.91467">
        <ele>1290</ele>
        <time>2018-11-13T08:43:29.000Z</time>
      </trkpt>
      <trkpt lat="42.15993" lon="1.91467">
        <ele>1289.0303061647</ele>
        <time>2018-11-13T08:43:31.000Z</time>
      </trkpt>
      <trkpt lat="42.15991" lon="1.91467">
        <ele>1289</ele>
        <time>2018-11-13T08:43:33.000Z</time>
      </trkpt>
      <trkpt lat="42.15987" lon="1.91466">
        <ele>1288.0300032</ele>
        <time>2018-11-13T08:43:35.000Z</time>
      </trkpt>
      <trkpt lat="42.15985" lon="1.91465">
        <ele>1288</ele>
        <time>2018-11-13T08:43:36.000Z</time>
      </trkpt>
      <trkpt lat="42.15983" lon="1.91463">
        <ele>1287.0300032</ele>
        <time>2018-11-13T08:43:37.000Z</time>
      </trkpt>
      <trkpt lat="42.15981" lon="1.91462">
        <ele>1287</ele>
        <time>2018-11-13T08:43:38.000Z</time>
      </trkpt>
      <trkpt lat="42.15979" lon="1.9146">
        <ele>1286.0303061647</ele>
        <time>2018-11-13T08:43:40.000Z</time>
      </trkpt>
      <trkpt lat="42.15977" lon="1.91459">
        <ele>1286</ele>
        <time>2018-11-13T08:43:42.000Z</time>
      </trkpt>
      <trkpt lat="42.15975" lon="1.91458">
        <ele>1285.0300032</ele>
        <time>2018-11-13T08:43:44.000Z</time>
      </trkpt>
      <trkpt lat="42.15973" lon="1.91456">
        <ele>1284.2558121074</ele>
        <time>2018-11-13T08:43:46.000Z</time>
      </trkpt>
      <trkpt lat="42.15971" lon="1.91454">
        <ele>1284</ele>
        <time>2018-11-13T08:43:48.000Z</time>
      </trkpt>
      <trkpt lat="42.1597" lon="1.91452">
        <ele>1283.0934636457</ele>
        <time>2018-11-13T08:43:49.000Z</time>
      </trkpt>
      <trkpt lat="42.15968" lon="1.91448">
        <ele>1282</ele>
        <time>2018-11-13T08:43:51.000Z</time>
      </trkpt>
      <trkpt lat="42.15966" lon="1.91447">
        <ele>1281.0319180806</ele>
        <time>2018-11-13T08:43:54.000Z</time>
      </trkpt>
      <trkpt lat="42.15964" lon="1.91446">
        <ele>1281</ele>
        <time>2018-11-13T08:43:56.000Z</time>
      </trkpt>
      <trkpt lat="42.15962" lon="1.91446">
        <ele>1280</ele>
        <time>2018-11-13T08:43:58.000Z</time>
      </trkpt>
      <trkpt lat="42.15959" lon="1.91447">
        <ele>1278.0315822094</ele>
        <time>2018-11-13T08:44:00.000Z</time>
      </trkpt>
      <trkpt lat="42.15957" lon="1.91444">
        <ele>1277</ele>
        <time>2018-11-13T08:44:02.000Z</time>
      </trkpt>
      <trkpt lat="42.15956" lon="1.9144">
        <ele>1277</ele>
        <time>2018-11-13T08:44:04.000Z</time>
      </trkpt>
      <trkpt lat="42.15954" lon="1.91438">
        <ele>1276</ele>
        <time>2018-11-13T08:44:06.000Z</time>
      </trkpt>
      <trkpt lat="42.15951" lon="1.91438">
        <ele>1275</ele>
        <time>2018-11-13T08:44:10.000Z</time>
      </trkpt>
      <trkpt lat="42.15949" lon="1.91439">
        <ele>1274.0329704335</ele>
        <time>2018-11-13T08:44:12.000Z</time>
      </trkpt>
      <trkpt lat="42.15947" lon="1.91438">
        <ele>1274</ele>
        <time>2018-11-13T08:44:14.000Z</time>
      </trkpt>
      <trkpt lat="42.15945" lon="1.91437">
        <ele>1274</ele>
        <time>2018-11-13T08:44:16.000Z</time>
      </trkpt>
      <trkpt lat="42.15942" lon="1.91435">
        <ele>1273.0326121739</ele>
        <time>2018-11-13T08:44:18.000Z</time>
      </trkpt>
      <trkpt lat="42.15941" lon="1.91434">
        <ele>1272.0934528011</ele>
        <time>2018-11-13T08:44:20.000Z</time>
      </trkpt>
      <trkpt lat="42.15939" lon="1.91433">
        <ele>1271.0300032</ele>
        <time>2018-11-13T08:44:22.000Z</time>
      </trkpt>
      <trkpt lat="42.15937" lon="1.91431">
        <ele>1270.2661264516</ele>
        <time>2018-11-13T08:44:24.000Z</time>
      </trkpt>
      <trkpt lat="42.15935" lon="1.91429">
        <ele>1270</ele>
        <time>2018-11-13T08:44:26.000Z</time>
      </trkpt>
      <trkpt lat="42.15934" lon="1.91431">
        <ele>1267</ele>
        <time>2018-11-13T08:44:30.000Z</time>
      </trkpt>
      <trkpt lat="42.15932" lon="1.91432">
        <ele>1267</ele>
        <time>2018-11-13T08:44:32.000Z</time>
      </trkpt>
      <trkpt lat="42.1593" lon="1.91432">
        <ele>1267</ele>
        <time>2018-11-13T08:44:34.000Z</time>
      </trkpt>
      <trkpt lat="42.15928" lon="1.91431">
        <ele>1265.0673107692</ele>
        <time>2018-11-13T08:44:36.000Z</time>
      </trkpt>
      <trkpt lat="42.15925" lon="1.9143">
        <ele>1264.0434831002</ele>
        <time>2018-11-13T08:44:38.000Z</time>
      </trkpt>
      <trkpt lat="42.15924" lon="1.91429">
        <ele>1263.0849031541</ele>
        <time>2018-11-13T08:44:40.000Z</time>
      </trkpt>
      <trkpt lat="42.15921" lon="1.91427">
        <ele>1262.0300032</ele>
        <time>2018-11-13T08:44:42.000Z</time>
      </trkpt>
      <trkpt lat="42.15919" lon="1.91427">
        <ele>1261</ele>
        <time>2018-11-13T08:44:44.000Z</time>
      </trkpt>
      <trkpt lat="42.15917" lon="1.91427">
        <ele>1261</ele>
        <time>2018-11-13T08:44:46.000Z</time>
      </trkpt>
      <trkpt lat="42.15915" lon="1.91427">
        <ele>1260</ele>
        <time>2018-11-13T08:44:48.000Z</time>
      </trkpt>
      <trkpt lat="42.15913" lon="1.91426">
        <ele>1260</ele>
        <time>2018-11-13T08:44:50.000Z</time>
      </trkpt>
      <trkpt lat="42.15911" lon="1.91424">
        <ele>1259</ele>
        <time>2018-11-13T08:44:52.000Z</time>
      </trkpt>
      <trkpt lat="42.15909" lon="1.91423">
        <ele>1258.0326121739</ele>
        <time>2018-11-13T08:44:53.000Z</time>
      </trkpt>
      <trkpt lat="42.15907" lon="1.91421">
        <ele>1258</ele>
        <time>2018-11-13T08:44:54.000Z</time>
      </trkpt>
      <trkpt lat="42.15904" lon="1.91419">
        <ele>1257</ele>
        <time>2018-11-13T08:44:56.000Z</time>
      </trkpt>
      <trkpt lat="42.15903" lon="1.91418">
        <ele>1256.0300032</ele>
        <time>2018-11-13T08:44:57.000Z</time>
      </trkpt>
      <trkpt lat="42.15901" lon="1.91416">
        <ele>1256</ele>
        <time>2018-11-13T08:44:58.000Z</time>
      </trkpt>
      <trkpt lat="42.15899" lon="1.91414">
        <ele>1255.0300032</ele>
        <time>2018-11-13T08:45:00.000Z</time>
      </trkpt>
      <trkpt lat="42.15895" lon="1.91413">
        <ele>1255</ele>
        <time>2018-11-13T08:45:02.000Z</time>
      </trkpt>
      <trkpt lat="42.15892" lon="1.91413">
        <ele>1255</ele>
        <time>2018-11-13T08:45:04.000Z</time>
      </trkpt>
      <trkpt lat="42.1589" lon="1.91412">
        <ele>1251.0312533333</ele>
        <time>2018-11-13T08:45:06.000Z</time>
      </trkpt>
      <trkpt lat="42.15887" lon="1.91411">
        <ele>1251</ele>
        <time>2018-11-13T08:45:08.000Z</time>
      </trkpt>
      <trkpt lat="42.15885" lon="1.91411">
        <ele>1251</ele>
        <time>2018-11-13T08:45:10.000Z</time>
      </trkpt>
      <trkpt lat="42.15883" lon="1.9141">
        <ele>1250</ele>
        <time>2018-11-13T08:45:13.000Z</time>
      </trkpt>
      <trkpt lat="42.1588" lon="1.91411">
        <ele>1249</ele>
        <time>2018-11-13T08:45:15.000Z</time>
      </trkpt>
      <trkpt lat="42.15877" lon="1.91411">
        <ele>1249</ele>
        <time>2018-11-13T08:45:17.000Z</time>
      </trkpt>
      <trkpt lat="42.15874" lon="1.91411">
        <ele>1249</ele>
        <time>2018-11-13T08:45:19.000Z</time>
      </trkpt>
      <trkpt lat="42.15871" lon="1.91411">
        <ele>1248</ele>
        <time>2018-11-13T08:45:21.000Z</time>
      </trkpt>
      <trkpt lat="42.15869" lon="1.91411">
        <ele>1247</ele>
        <time>2018-11-13T08:45:23.000Z</time>
      </trkpt>
      <trkpt lat="42.15865" lon="1.91411">
        <ele>1245.0309312361</ele>
        <time>2018-11-13T08:45:25.000Z</time>
      </trkpt>
      <trkpt lat="42.15862" lon="1.91413">
        <ele>1245</ele>
        <time>2018-11-13T08:45:27.000Z</time>
      </trkpt>
      <trkpt lat="42.15859" lon="1.91415">
        <ele>1244</ele>
        <time>2018-11-13T08:45:29.000Z</time>
      </trkpt>
      <trkpt lat="42.15857" lon="1.91416">
        <ele>1243.0303061647</ele>
        <time>2018-11-13T08:45:31.000Z</time>
      </trkpt>
      <trkpt lat="42.15854" lon="1.91417">
        <ele>1243</ele>
        <time>2018-11-13T08:45:33.000Z</time>
      </trkpt>
      <trkpt lat="42.15851" lon="1.91416">
        <ele>1242.0300032</ele>
        <time>2018-11-13T08:45:35.000Z</time>
      </trkpt>
      <trkpt lat="42.15848" lon="1.91414">
        <ele>1241.0306153103</ele>
        <time>2018-11-13T08:45:37.000Z</time>
      </trkpt>
      <trkpt lat="42.15846" lon="1.91413">
        <ele>1241</ele>
        <time>2018-11-13T08:45:38.000Z</time>
      </trkpt>
      <trkpt lat="42.15844" lon="1.91413">
        <ele>1239.253844942</ele>
        <time>2018-11-13T08:45:40.000Z</time>
      </trkpt>
      <trkpt lat="42.15842" lon="1.91413">
        <ele>1239</ele>
        <time>2018-11-13T08:45:42.000Z</time>
      </trkpt>
      <trkpt lat="42.1584" lon="1.91411">
        <ele>1237.0309308279</ele>
        <time>2018-11-13T08:45:44.000Z</time>
      </trkpt>
      <trkpt lat="42.15839" lon="1.91407">
        <ele>1237</ele>
        <time>2018-11-13T08:45:46.000Z</time>
      </trkpt>
      <trkpt lat="42.15837" lon="1.91405">
        <ele>1236</ele>
        <time>2018-11-13T08:45:48.000Z</time>
      </trkpt>
      <trkpt lat="42.15835" lon="1.91401">
        <ele>1235</ele>
        <time>2018-11-13T08:45:50.000Z</time>
      </trkpt>
      <trkpt lat="42.15834" lon="1.91399">
        <ele>1233.1018548148</ele>
        <time>2018-11-13T08:45:52.000Z</time>
      </trkpt>
      <trkpt lat="42.15832" lon="1.91397">
        <ele>1233</ele>
        <time>2018-11-13T08:45:54.000Z</time>
      </trkpt>
      <trkpt lat="42.15831" lon="1.91399">
        <ele>1232</ele>
        <time>2018-11-13T08:46:01.000Z</time>
      </trkpt>
      <trkpt lat="42.15828" lon="1.914">
        <ele>1229.0322611724</ele>
        <time>2018-11-13T08:46:03.000Z</time>
      </trkpt>
      <trkpt lat="42.15825" lon="1.91401">
        <ele>1229</ele>
        <time>2018-11-13T08:46:05.000Z</time>
      </trkpt>
      <trkpt lat="42.15822" lon="1.91402">
        <ele>1228</ele>
        <time>2018-11-13T08:46:07.000Z</time>
      </trkpt>
      <trkpt lat="42.1582" lon="1.91402">
        <ele>1228</ele>
        <time>2018-11-13T08:46:08.000Z</time>
      </trkpt>
      <trkpt lat="42.15818" lon="1.91402">
        <ele>1228</ele>
        <time>2018-11-13T08:46:09.000Z</time>
      </trkpt>
      <trkpt lat="42.15816" lon="1.91402">
        <ele>1228</ele>
        <time>2018-11-13T08:46:10.000Z</time>
      </trkpt>
      <trkpt lat="42.15812" lon="1.91403">
        <ele>1228</ele>
        <time>2018-11-13T08:46:12.000Z</time>
      </trkpt>
      <trkpt lat="42.1581" lon="1.91403">
        <ele>1227.0300032</ele>
        <time>2018-11-13T08:46:13.000Z</time>
      </trkpt>
      <trkpt lat="42.15808" lon="1.91402">
        <ele>1226.0673107692</ele>
        <time>2018-11-13T08:46:14.000Z</time>
      </trkpt>
      <trkpt lat="42.15806" lon="1.91402">
        <ele>1226</ele>
        <time>2018-11-13T08:46:15.000Z</time>
      </trkpt>
      <trkpt lat="42.15805" lon="1.914">
        <ele>1226</ele>
        <time>2018-11-13T08:46:16.000Z</time>
      </trkpt>
      <trkpt lat="42.15803" lon="1.91398">
        <ele>1226</ele>
        <time>2018-11-13T08:46:17.000Z</time>
      </trkpt>
      <trkpt lat="42.158" lon="1.91396">
        <ele>1225</ele>
        <time>2018-11-13T08:46:19.000Z</time>
      </trkpt>
      <trkpt lat="42.15798" lon="1.91396">
        <ele>1225</ele>
        <time>2018-11-13T08:46:20.000Z</time>
      </trkpt>
      <trkpt lat="42.15795" lon="1.91394">
        <ele>1222.0326121739</ele>
        <time>2018-11-13T08:46:22.000Z</time>
      </trkpt>
      <trkpt lat="42.15793" lon="1.91394">
        <ele>1222</ele>
        <time>2018-11-13T08:46:24.000Z</time>
      </trkpt>
      <trkpt lat="42.15791" lon="1.91394">
        <ele>1221.0300032</ele>
        <time>2018-11-13T08:46:26.000Z</time>
      </trkpt>
      <trkpt lat="42.15788" lon="1.91394">
        <ele>1220.0476238851</ele>
        <time>2018-11-13T08:46:28.000Z</time>
      </trkpt>
      <trkpt lat="42.15784" lon="1.91395">
        <ele>1219</ele>
        <time>2018-11-13T08:46:30.000Z</time>
      </trkpt>
      <trkpt lat="42.15783" lon="1.91395">
        <ele>1219</ele>
        <time>2018-11-13T08:46:31.000Z</time>
      </trkpt>
      <trkpt lat="42.1578" lon="1.91396">
        <ele>1218</ele>
        <time>2018-11-13T08:46:33.000Z</time>
      </trkpt>
      <trkpt lat="42.15777" lon="1.91396">
        <ele>1217</ele>
        <time>2018-11-13T08:46:35.000Z</time>
      </trkpt>
      <trkpt lat="42.15774" lon="1.91397">
        <ele>1215.2773104724</ele>
        <time>2018-11-13T08:46:37.000Z</time>
      </trkpt>
      <trkpt lat="42.1577" lon="1.91397">
        <ele>1215</ele>
        <time>2018-11-13T08:46:39.000Z</time>
      </trkpt>
      <trkpt lat="42.15768" lon="1.91397">
        <ele>1214.0673107692</ele>
        <time>2018-11-13T08:46:40.000Z</time>
      </trkpt>
      <trkpt lat="42.15766" lon="1.91397">
        <ele>1213.0312533333</ele>
        <time>2018-11-13T08:46:41.000Z</time>
      </trkpt>
      <trkpt lat="42.15764" lon="1.91396">
        <ele>1213</ele>
        <time>2018-11-13T08:46:42.000Z</time>
      </trkpt>
      <trkpt lat="42.15761" lon="1.91397">
        <ele>1213</ele>
        <time>2018-11-13T08:46:44.000Z</time>
      </trkpt>
      <trkpt lat="42.15758" lon="1.91397">
        <ele>1212</ele>
        <time>2018-11-13T08:46:46.000Z</time>
      </trkpt>
      <trkpt lat="42.15756" lon="1.91396">
        <ele>1212</ele>
        <time>2018-11-13T08:46:49.000Z</time>
      </trkpt>
      <trkpt lat="42.15754" lon="1.91393">
        <ele>1211</ele>
        <time>2018-11-13T08:46:51.000Z</time>
      </trkpt>
      <trkpt lat="42.15753" lon="1.9139">
        <ele>1211</ele>
        <time>2018-11-13T08:46:53.000Z</time>
      </trkpt>
      <trkpt lat="42.15752" lon="1.91389">
        <ele>1210</ele>
        <time>2018-11-13T08:46:55.000Z</time>
      </trkpt>
      <trkpt lat="42.15749" lon="1.91387">
        <ele>1210</ele>
        <time>2018-11-13T08:46:57.000Z</time>
      </trkpt>
      <trkpt lat="42.15747" lon="1.91387">
        <ele>1207.0322616164</ele>
        <time>2018-11-13T08:47:00.000Z</time>
      </trkpt>
      <trkpt lat="42.15744" lon="1.91386">
        <ele>1208</ele>
        <time>2018-11-13T08:47:02.000Z</time>
      </trkpt>
      <trkpt lat="42.15741" lon="1.91386">
        <ele>1207</ele>
        <time>2018-11-13T08:47:04.000Z</time>
      </trkpt>
      <trkpt lat="42.15738" lon="1.91386">
        <ele>1206.0761907084</ele>
        <time>2018-11-13T08:47:06.000Z</time>
      </trkpt>
      <trkpt lat="42.15734" lon="1.91384">
        <ele>1205.0300032</ele>
        <time>2018-11-13T08:47:08.000Z</time>
      </trkpt>
      <trkpt lat="42.15731" lon="1.91383">
        <ele>1204.0312533333</ele>
        <time>2018-11-13T08:47:10.000Z</time>
      </trkpt>
      <trkpt lat="42.15729" lon="1.91382">
        <ele>1203</ele>
        <time>2018-11-13T08:47:12.000Z</time>
      </trkpt>
      <trkpt lat="42.15727" lon="1.91381">
        <ele>1202.0300032</ele>
        <time>2018-11-13T08:47:14.000Z</time>
      </trkpt>
      <trkpt lat="42.15725" lon="1.9138">
        <ele>1202</ele>
        <time>2018-11-13T08:47:16.000Z</time>
      </trkpt>
      <trkpt lat="42.15723" lon="1.91379">
        <ele>1201.1181795967</ele>
        <time>2018-11-13T08:47:18.000Z</time>
      </trkpt>
      <trkpt lat="42.1572" lon="1.91378">
        <ele>1200</ele>
        <time>2018-11-13T08:47:21.000Z</time>
      </trkpt>
      <trkpt lat="42.15718" lon="1.91378">
        <ele>1199</ele>
        <time>2018-11-13T08:47:24.000Z</time>
      </trkpt>
      <trkpt lat="42.15716" lon="1.91379">
        <ele>1198</ele>
        <time>2018-11-13T08:47:27.000Z</time>
      </trkpt>
      <trkpt lat="42.15713" lon="1.91379">
        <ele>1197</ele>
        <time>2018-11-13T08:47:29.000Z</time>
      </trkpt>
      <trkpt lat="42.15711" lon="1.9138">
        <ele>1196</ele>
        <time>2018-11-13T08:47:31.000Z</time>
      </trkpt>
      <trkpt lat="42.15708" lon="1.9138">
        <ele>1196</ele>
        <time>2018-11-13T08:47:33.000Z</time>
      </trkpt>
      <trkpt lat="42.15706" lon="1.91379">
        <ele>1195</ele>
        <time>2018-11-13T08:47:36.000Z</time>
      </trkpt>
      <trkpt lat="42.15705" lon="1.91376">
        <ele>1194</ele>
        <time>2018-11-13T08:47:40.000Z</time>
      </trkpt>
      <trkpt lat="42.15703" lon="1.91375">
        <ele>1193</ele>
        <time>2018-11-13T08:47:42.000Z</time>
      </trkpt>
      <trkpt lat="42.15701" lon="1.91372">
        <ele>1193</ele>
        <time>2018-11-13T08:47:45.000Z</time>
      </trkpt>
      <trkpt lat="42.15701" lon="1.9137">
        <ele>1193</ele>
        <time>2018-11-13T08:47:48.000Z</time>
      </trkpt>
      <trkpt lat="42.15698" lon="1.91369">
        <ele>1191.0315822094</ele>
        <time>2018-11-13T08:47:50.000Z</time>
      </trkpt>
      <trkpt lat="42.15695" lon="1.91369">
        <ele>1191</ele>
        <time>2018-11-13T08:47:53.000Z</time>
      </trkpt>
      <trkpt lat="42.15693" lon="1.91369">
        <ele>1190</ele>
        <time>2018-11-13T08:47:56.000Z</time>
      </trkpt>
      <trkpt lat="42.15691" lon="1.91369">
        <ele>1189</ele>
        <time>2018-11-13T08:47:59.000Z</time>
      </trkpt>
      <trkpt lat="42.15689" lon="1.91368">
        <ele>1188.0300032</ele>
        <time>2018-11-13T08:48:01.000Z</time>
      </trkpt>
      <trkpt lat="42.15687" lon="1.91368">
        <ele>1188</ele>
        <time>2018-11-13T08:48:03.000Z</time>
      </trkpt>
      <trkpt lat="42.15685" lon="1.91368">
        <ele>1186.0582467565</ele>
        <time>2018-11-13T08:48:05.000Z</time>
      </trkpt>
      <trkpt lat="42.15683" lon="1.91368">
        <ele>1186</ele>
        <time>2018-11-13T08:48:07.000Z</time>
      </trkpt>
      <trkpt lat="42.15681" lon="1.91367">
        <ele>1186</ele>
        <time>2018-11-13T08:48:09.000Z</time>
      </trkpt>
      <trkpt lat="42.15679" lon="1.91367">
        <ele>1185</ele>
        <time>2018-11-13T08:48:11.000Z</time>
      </trkpt>
      <trkpt lat="42.15676" lon="1.91366">
        <ele>1184.06944</ele>
        <time>2018-11-13T08:48:13.000Z</time>
      </trkpt>
      <trkpt lat="42.15674" lon="1.91365">
        <ele>1183.1018548148</ele>
        <time>2018-11-13T08:48:15.000Z</time>
      </trkpt>
      <trkpt lat="42.15671" lon="1.91366">
        <ele>1182</ele>
        <time>2018-11-13T08:48:18.000Z</time>
      </trkpt>
      <trkpt lat="42.15669" lon="1.91366">
        <ele>1182</ele>
        <time>2018-11-13T08:48:20.000Z</time>
      </trkpt>
      <trkpt lat="42.15666" lon="1.91366">
        <ele>1182</ele>
        <time>2018-11-13T08:48:22.000Z</time>
      </trkpt>
      <trkpt lat="42.15664" lon="1.91366">
        <ele>1181.0934528011</ele>
        <time>2018-11-13T08:48:24.000Z</time>
      </trkpt>
      <trkpt lat="42.15661" lon="1.91366">
        <ele>1181</ele>
        <time>2018-11-13T08:48:26.000Z</time>
      </trkpt>
      <trkpt lat="42.15659" lon="1.91366">
        <ele>1180.0322616164</ele>
        <time>2018-11-13T08:48:28.000Z</time>
      </trkpt>
      <trkpt lat="42.15656" lon="1.91365">
        <ele>1179.0849031541</ele>
        <time>2018-11-13T08:48:30.000Z</time>
      </trkpt>
      <trkpt lat="42.15653" lon="1.91364">
        <ele>1178</ele>
        <time>2018-11-13T08:48:32.000Z</time>
      </trkpt>
      <trkpt lat="42.1565" lon="1.91363">
        <ele>1177.0673107692</ele>
        <time>2018-11-13T08:48:34.000Z</time>
      </trkpt>
      <trkpt lat="42.15648" lon="1.91363">
        <ele>1176</ele>
        <time>2018-11-13T08:48:37.000Z</time>
      </trkpt>
      <trkpt lat="42.15645" lon="1.91363">
        <ele>1176</ele>
        <time>2018-11-13T08:48:39.000Z</time>
      </trkpt>
      <trkpt lat="42.15641" lon="1.91363">
        <ele>1176</ele>
        <time>2018-11-13T08:48:41.000Z</time>
      </trkpt>
      <trkpt lat="42.15638" lon="1.91364">
        <ele>1175.0315822094</ele>
        <time>2018-11-13T08:48:43.000Z</time>
      </trkpt>
      <trkpt lat="42.15635" lon="1.91366">
        <ele>1175</ele>
        <time>2018-11-13T08:48:45.000Z</time>
      </trkpt>
      <trkpt lat="42.15632" lon="1.91366">
        <ele>1175</ele>
        <time>2018-11-13T08:48:47.000Z</time>
      </trkpt>
      <trkpt lat="42.15629" lon="1.91367">
        <ele>1174.0312533333</ele>
        <time>2018-11-13T08:48:49.000Z</time>
      </trkpt>
      <trkpt lat="42.15627" lon="1.91368">
        <ele>1174</ele>
        <time>2018-11-13T08:48:51.000Z</time>
      </trkpt>
      <trkpt lat="42.15624" lon="1.91369">
        <ele>1172.1869272914</ele>
        <time>2018-11-13T08:48:53.000Z</time>
      </trkpt>
      <trkpt lat="42.15621" lon="1.9137">
        <ele>1171</ele>
        <time>2018-11-13T08:48:55.000Z</time>
      </trkpt>
      <trkpt lat="42.15619" lon="1.91371">
        <ele>1171</ele>
        <time>2018-11-13T08:48:56.000Z</time>
      </trkpt>
      <trkpt lat="42.15617" lon="1.91371">
        <ele>1171</ele>
        <time>2018-11-13T08:48:57.000Z</time>
      </trkpt>
      <trkpt lat="42.15614" lon="1.9137">
        <ele>1170.0761907084</ele>
        <time>2018-11-13T08:48:59.000Z</time>
      </trkpt>
      <trkpt lat="42.15611" lon="1.91371">
        <ele>1169.0300032</ele>
        <time>2018-11-13T08:49:01.000Z</time>
      </trkpt>
      <trkpt lat="42.15609" lon="1.91371">
        <ele>1168.0315822094</ele>
        <time>2018-11-13T08:49:03.000Z</time>
      </trkpt>
      <trkpt lat="42.15606" lon="1.91373">
        <ele>1167.0673107692</ele>
        <time>2018-11-13T08:49:05.000Z</time>
      </trkpt>
      <trkpt lat="42.15604" lon="1.91376">
        <ele>1167</ele>
        <time>2018-11-13T08:49:07.000Z</time>
      </trkpt>
      <trkpt lat="42.15602" lon="1.91377">
        <ele>1166</ele>
        <time>2018-11-13T08:49:09.000Z</time>
      </trkpt>
      <trkpt lat="42.15599" lon="1.91379">
        <ele>1166</ele>
        <time>2018-11-13T08:49:11.000Z</time>
      </trkpt>
      <trkpt lat="42.15597" lon="1.91381">
        <ele>1166</ele>
        <time>2018-11-13T08:49:12.000Z</time>
      </trkpt>
      <trkpt lat="42.15596" lon="1.91383">
        <ele>1165.0761907084</ele>
        <time>2018-11-13T08:49:13.000Z</time>
      </trkpt>
      <trkpt lat="42.15595" lon="1.91386">
        <ele>1165</ele>
        <time>2018-11-13T08:49:15.000Z</time>
      </trkpt>
      <trkpt lat="42.15593" lon="1.91388">
        <ele>1165</ele>
        <time>2018-11-13T08:49:17.000Z</time>
      </trkpt>
      <trkpt lat="42.15591" lon="1.91391">
        <ele>1164</ele>
        <time>2018-11-13T08:49:19.000Z</time>
      </trkpt>
      <trkpt lat="42.15588" lon="1.91392">
        <ele>1163.0300032</ele>
        <time>2018-11-13T08:49:21.000Z</time>
      </trkpt>
      <trkpt lat="42.15587" lon="1.91395">
        <ele>1163</ele>
        <time>2018-11-13T08:49:23.000Z</time>
      </trkpt>
      <trkpt lat="42.15585" lon="1.91397">
        <ele>1163</ele>
        <time>2018-11-13T08:49:25.000Z</time>
      </trkpt>
      <trkpt lat="42.15584" lon="1.914">
        <ele>1163</ele>
        <time>2018-11-13T08:49:27.000Z</time>
      </trkpt>
      <trkpt lat="42.15582" lon="1.91403">
        <ele>1163</ele>
        <time>2018-11-13T08:49:29.000Z</time>
      </trkpt>
      <trkpt lat="42.15582" lon="1.91406">
        <ele>1162.0761907084</ele>
        <time>2018-11-13T08:49:31.000Z</time>
      </trkpt>
      <trkpt lat="42.15581" lon="1.9141">
        <ele>1161</ele>
        <time>2018-11-13T08:49:33.000Z</time>
      </trkpt>
      <trkpt lat="42.15578" lon="1.91414">
        <ele>1161</ele>
        <time>2018-11-13T08:49:35.000Z</time>
      </trkpt>
      <trkpt lat="42.15577" lon="1.91416">
        <ele>1161</ele>
        <time>2018-11-13T08:49:36.000Z</time>
      </trkpt>
      <trkpt lat="42.15576" lon="1.91418">
        <ele>1161</ele>
        <time>2018-11-13T08:49:37.000Z</time>
      </trkpt>
      <trkpt lat="42.15574" lon="1.91421">
        <ele>1160.0300032</ele>
        <time>2018-11-13T08:49:39.000Z</time>
      </trkpt>
      <trkpt lat="42.15571" lon="1.91424">
        <ele>1160</ele>
        <time>2018-11-13T08:49:41.000Z</time>
      </trkpt>
      <trkpt lat="42.15568" lon="1.91426">
        <ele>1160</ele>
        <time>2018-11-13T08:49:43.000Z</time>
      </trkpt>
      <trkpt lat="42.15565" lon="1.91428">
        <ele>1159.0761907084</ele>
        <time>2018-11-13T08:49:45.000Z</time>
      </trkpt>
      <trkpt lat="42.15562" lon="1.9143">
        <ele>1159</ele>
        <time>2018-11-13T08:49:47.000Z</time>
      </trkpt>
      <trkpt lat="42.1556" lon="1.91433">
        <ele>1159</ele>
        <time>2018-11-13T08:49:49.000Z</time>
      </trkpt>
      <trkpt lat="42.15558" lon="1.91435">
        <ele>1159</ele>
        <time>2018-11-13T08:49:50.000Z</time>
      </trkpt>
      <trkpt lat="42.15557" lon="1.91437">
        <ele>1159</ele>
        <time>2018-11-13T08:49:51.000Z</time>
      </trkpt>
      <trkpt lat="42.15554" lon="1.9144">
        <ele>1159</ele>
        <time>2018-11-13T08:49:53.000Z</time>
      </trkpt>
      <trkpt lat="42.15551" lon="1.91442">
        <ele>1159</ele>
        <time>2018-11-13T08:49:55.000Z</time>
      </trkpt>
      <trkpt lat="42.15549" lon="1.91443">
        <ele>1159</ele>
        <time>2018-11-13T08:49:56.000Z</time>
      </trkpt>
      <trkpt lat="42.15547" lon="1.91443">
        <ele>1159</ele>
        <time>2018-11-13T08:49:57.000Z</time>
      </trkpt>
      <trkpt lat="42.15546" lon="1.91443">
        <ele>1159</ele>
        <time>2018-11-13T08:49:58.000Z</time>
      </trkpt>
      <trkpt lat="42.15542" lon="1.91444">
        <ele>1159</ele>
        <time>2018-11-13T08:50:00.000Z</time>
      </trkpt>
      <trkpt lat="42.1554" lon="1.91442">
        <ele>1160</ele>
        <time>2018-11-13T08:50:02.000Z</time>
      </trkpt>
      <trkpt lat="42.15537" lon="1.91442">
        <ele>1160</ele>
        <time>2018-11-13T08:50:04.000Z</time>
      </trkpt>
      <trkpt lat="42.15534" lon="1.91442">
        <ele>1160</ele>
        <time>2018-11-13T08:50:06.000Z</time>
      </trkpt>
      <trkpt lat="42.15532" lon="1.91443">
        <ele>1160</ele>
        <time>2018-11-13T08:50:07.000Z</time>
      </trkpt>
      <trkpt lat="42.15529" lon="1.91444">
        <ele>1160</ele>
        <time>2018-11-13T08:50:09.000Z</time>
      </trkpt>
      <trkpt lat="42.15527" lon="1.91447">
        <ele>1159</ele>
        <time>2018-11-13T08:50:11.000Z</time>
      </trkpt>
      <trkpt lat="42.15526" lon="1.9145">
        <ele>1159</ele>
        <time>2018-11-13T08:50:13.000Z</time>
      </trkpt>
      <trkpt lat="42.15524" lon="1.91453">
        <ele>1159</ele>
        <time>2018-11-13T08:50:15.000Z</time>
      </trkpt>
      <trkpt lat="42.15523" lon="1.91456">
        <ele>1158.0761907084</ele>
        <time>2018-11-13T08:50:17.000Z</time>
      </trkpt>
      <trkpt lat="42.15522" lon="1.91458">
        <ele>1158</ele>
        <time>2018-11-13T08:50:19.000Z</time>
      </trkpt>
      <trkpt lat="42.15522" lon="1.91461">
        <ele>1158</ele>
        <time>2018-11-13T08:50:21.000Z</time>
      </trkpt>
      <trkpt lat="42.1552" lon="1.91463">
        <ele>1157</ele>
        <time>2018-11-13T08:50:23.000Z</time>
      </trkpt>
      <trkpt lat="42.15518" lon="1.91461">
        <ele>1157</ele>
        <time>2018-11-13T08:50:25.000Z</time>
      </trkpt>
      <trkpt lat="42.15517" lon="1.91458">
        <ele>1157</ele>
        <time>2018-11-13T08:50:27.000Z</time>
      </trkpt>
      <trkpt lat="42.15515" lon="1.91459">
        <ele>1156</ele>
        <time>2018-11-13T08:50:31.000Z</time>
      </trkpt>
      <trkpt lat="42.15514" lon="1.91462">
        <ele>1155.0490167781</ele>
        <time>2018-11-13T08:50:34.000Z</time>
      </trkpt>
      <trkpt lat="42.15513" lon="1.91466">
        <ele>1155</ele>
        <time>2018-11-13T08:50:36.000Z</time>
      </trkpt>
      <trkpt lat="42.15514" lon="1.91469">
        <ele>1154</ele>
        <time>2018-11-13T08:50:38.000Z</time>
      </trkpt>
      <trkpt lat="42.15513" lon="1.91472">
        <ele>1154</ele>
        <time>2018-11-13T08:50:40.000Z</time>
      </trkpt>
      <trkpt lat="42.15513" lon="1.91475">
        <ele>1153.0300032</ele>
        <time>2018-11-13T08:50:42.000Z</time>
      </trkpt>
      <trkpt lat="42.15513" lon="1.91479">
        <ele>1152.2558121074</ele>
        <time>2018-11-13T08:50:44.000Z</time>
      </trkpt>
      <trkpt lat="42.15513" lon="1.91481">
        <ele>1152</ele>
        <time>2018-11-13T08:50:45.000Z</time>
      </trkpt>
      <trkpt lat="42.15512" lon="1.91486">
        <ele>1151.0761907084</ele>
        <time>2018-11-13T08:50:47.000Z</time>
      </trkpt>
      <trkpt lat="42.15512" lon="1.91489">
        <ele>1150</ele>
        <time>2018-11-13T08:50:49.000Z</time>
      </trkpt>
      <trkpt lat="42.15512" lon="1.91492">
        <ele>1150</ele>
        <time>2018-11-13T08:50:51.000Z</time>
      </trkpt>
      <trkpt lat="42.15511" lon="1.91495">
        <ele>1149</ele>
        <time>2018-11-13T08:50:54.000Z</time>
      </trkpt>
      <trkpt lat="42.15509" lon="1.91498">
        <ele>1148.0673107692</ele>
        <time>2018-11-13T08:50:56.000Z</time>
      </trkpt>
      <trkpt lat="42.15508" lon="1.91501">
        <ele>1147.0428613224</ele>
        <time>2018-11-13T08:50:58.000Z</time>
      </trkpt>
      <trkpt lat="42.15507" lon="1.91504">
        <ele>1146.0300032</ele>
        <time>2018-11-13T08:51:00.000Z</time>
      </trkpt>
      <trkpt lat="42.15505" lon="1.91507">
        <ele>1145.0300032</ele>
        <time>2018-11-13T08:51:02.000Z</time>
      </trkpt>
      <trkpt lat="42.15503" lon="1.91509">
        <ele>1144</ele>
        <time>2018-11-13T08:51:04.000Z</time>
      </trkpt>
      <trkpt lat="42.15502" lon="1.9151">
        <ele>1144</ele>
        <time>2018-11-13T08:51:06.000Z</time>
      </trkpt>
      <trkpt lat="42.15501" lon="1.91513">
        <ele>1143</ele>
        <time>2018-11-13T08:51:08.000Z</time>
      </trkpt>
      <trkpt lat="42.15499" lon="1.91517">
        <ele>1142.0326121739</ele>
        <time>2018-11-13T08:51:10.000Z</time>
      </trkpt>
      <trkpt lat="42.15497" lon="1.91519">
        <ele>1142</ele>
        <time>2018-11-13T08:51:11.000Z</time>
      </trkpt>
      <trkpt lat="42.15496" lon="1.91522">
        <ele>1142</ele>
        <time>2018-11-13T08:51:13.000Z</time>
      </trkpt>
      <trkpt lat="42.15494" lon="1.91525">
        <ele>1142</ele>
        <time>2018-11-13T08:51:15.000Z</time>
      </trkpt>
      <trkpt lat="42.15493" lon="1.91528">
        <ele>1140.0300032</ele>
        <time>2018-11-13T08:51:17.000Z</time>
      </trkpt>
      <trkpt lat="42.15492" lon="1.91531">
        <ele>1140</ele>
        <time>2018-11-13T08:51:19.000Z</time>
      </trkpt>
      <trkpt lat="42.15491" lon="1.91534">
        <ele>1139</ele>
        <time>2018-11-13T08:51:21.000Z</time>
      </trkpt>
      <trkpt lat="42.15489" lon="1.91537">
        <ele>1139</ele>
        <time>2018-11-13T08:51:23.000Z</time>
      </trkpt>
      <trkpt lat="42.15487" lon="1.91538">
        <ele>1138.1018548148</ele>
        <time>2018-11-13T08:51:25.000Z</time>
      </trkpt>
      <trkpt lat="42.15484" lon="1.9154">
        <ele>1137</ele>
        <time>2018-11-13T08:51:27.000Z</time>
      </trkpt>
      <trkpt lat="42.15481" lon="1.91543">
        <ele>1137</ele>
        <time>2018-11-13T08:51:29.000Z</time>
      </trkpt>
      <trkpt lat="42.15479" lon="1.91544">
        <ele>1135.1181795967</ele>
        <time>2018-11-13T08:51:31.000Z</time>
      </trkpt>
      <trkpt lat="42.15477" lon="1.91546">
        <ele>1135</ele>
        <time>2018-11-13T08:51:33.000Z</time>
      </trkpt>
      <trkpt lat="42.15474" lon="1.91548">
        <ele>1135</ele>
        <time>2018-11-13T08:51:35.000Z</time>
      </trkpt>
      <trkpt lat="42.15471" lon="1.91551">
        <ele>1134</ele>
        <time>2018-11-13T08:51:37.000Z</time>
      </trkpt>
      <trkpt lat="42.1547" lon="1.91554">
        <ele>1134</ele>
        <time>2018-11-13T08:51:39.000Z</time>
      </trkpt>
      <trkpt lat="42.15468" lon="1.91557">
        <ele>1133</ele>
        <time>2018-11-13T08:51:41.000Z</time>
      </trkpt>
      <trkpt lat="42.15467" lon="1.9156">
        <ele>1133</ele>
        <time>2018-11-13T08:51:43.000Z</time>
      </trkpt>
      <trkpt lat="42.15467" lon="1.91563">
        <ele>1131.0315822094</ele>
        <time>2018-11-13T08:51:45.000Z</time>
      </trkpt>
      <trkpt lat="42.15465" lon="1.91567">
        <ele>1131</ele>
        <time>2018-11-13T08:51:47.000Z</time>
      </trkpt>
      <trkpt lat="42.15464" lon="1.9157">
        <ele>1130.0300032</ele>
        <time>2018-11-13T08:51:49.000Z</time>
      </trkpt>
      <trkpt lat="42.15463" lon="1.91574">
        <ele>1130</ele>
        <time>2018-11-13T08:51:51.000Z</time>
      </trkpt>
      <trkpt lat="42.15462" lon="1.91576">
        <ele>1129.0300032</ele>
        <time>2018-11-13T08:51:52.000Z</time>
      </trkpt>
      <trkpt lat="42.1546" lon="1.9158">
        <ele>1129</ele>
        <time>2018-11-13T08:51:54.000Z</time>
      </trkpt>
      <trkpt lat="42.1546" lon="1.91582">
        <ele>1128.0300032</ele>
        <time>2018-11-13T08:51:55.000Z</time>
      </trkpt>
      <trkpt lat="42.15459" lon="1.91586">
        <ele>1128</ele>
        <time>2018-11-13T08:51:57.000Z</time>
      </trkpt>
      <trkpt lat="42.15459" lon="1.91589">
        <ele>1127</ele>
        <time>2018-11-13T08:51:59.000Z</time>
      </trkpt>
      <trkpt lat="42.15458" lon="1.91593">
        <ele>1125.0428613224</ele>
        <time>2018-11-13T08:52:01.000Z</time>
      </trkpt>
      <trkpt lat="42.15459" lon="1.91596">
        <ele>1125</ele>
        <time>2018-11-13T08:52:03.000Z</time>
      </trkpt>
      <trkpt lat="42.15458" lon="1.91599">
        <ele>1124</ele>
        <time>2018-11-13T08:52:05.000Z</time>
      </trkpt>
      <trkpt lat="42.15458" lon="1.91604">
        <ele>1123</ele>
        <time>2018-11-13T08:52:07.000Z</time>
      </trkpt>
      <trkpt lat="42.15458" lon="1.91608">
        <ele>1122.0428613224</ele>
        <time>2018-11-13T08:52:09.000Z</time>
      </trkpt>
      <trkpt lat="42.15459" lon="1.91611">
        <ele>1121.0761907084</ele>
        <time>2018-11-13T08:52:11.000Z</time>
      </trkpt>
      <trkpt lat="42.15459" lon="1.91616">
        <ele>1121</ele>
        <time>2018-11-13T08:52:13.000Z</time>
      </trkpt>
      <trkpt lat="42.1546" lon="1.9162">
        <ele>1119.0315822094</ele>
        <time>2018-11-13T08:52:15.000Z</time>
      </trkpt>
      <trkpt lat="42.1546" lon="1.91622">
        <ele>1119</ele>
        <time>2018-11-13T08:52:16.000Z</time>
      </trkpt>
      <trkpt lat="42.1546" lon="1.91626">
        <ele>1118.0315822094</ele>
        <time>2018-11-13T08:52:18.000Z</time>
      </trkpt>
      <trkpt lat="42.1546" lon="1.9163">
        <ele>1118</ele>
        <time>2018-11-13T08:52:20.000Z</time>
      </trkpt>
      <trkpt lat="42.15459" lon="1.91634">
        <ele>1117.0490167781</ele>
        <time>2018-11-13T08:52:22.000Z</time>
      </trkpt>
      <trkpt lat="42.15458" lon="1.91638">
        <ele>1116</ele>
        <time>2018-11-13T08:52:24.000Z</time>
      </trkpt>
      <trkpt lat="42.15458" lon="1.91642">
        <ele>1116</ele>
        <time>2018-11-13T08:52:26.000Z</time>
      </trkpt>
      <trkpt lat="42.15458" lon="1.91645">
        <ele>1115</ele>
        <time>2018-11-13T08:52:28.000Z</time>
      </trkpt>
      <trkpt lat="42.15457" lon="1.91649">
        <ele>1115</ele>
        <time>2018-11-13T08:52:30.000Z</time>
      </trkpt>
      <trkpt lat="42.15455" lon="1.91651">
        <ele>1115</ele>
        <time>2018-11-13T08:52:32.000Z</time>
      </trkpt>
      <trkpt lat="42.15453" lon="1.91654">
        <ele>1114.0396040859</ele>
        <time>2018-11-13T08:52:34.000Z</time>
      </trkpt>
      <trkpt lat="42.15451" lon="1.91656">
        <ele>1113.0303061647</ele>
        <time>2018-11-13T08:52:35.000Z</time>
      </trkpt>
      <trkpt lat="42.15449" lon="1.91658">
        <ele>1112.0300032</ele>
        <time>2018-11-13T08:52:36.000Z</time>
      </trkpt>
      <trkpt lat="42.15448" lon="1.91661">
        <ele>1112</ele>
        <time>2018-11-13T08:52:38.000Z</time>
      </trkpt>
      <trkpt lat="42.15447" lon="1.91665">
        <ele>1112</ele>
        <time>2018-11-13T08:52:40.000Z</time>
      </trkpt>
      <trkpt lat="42.15445" lon="1.91667">
        <ele>1112</ele>
        <time>2018-11-13T08:52:41.000Z</time>
      </trkpt>
      <trkpt lat="42.15444" lon="1.91668">
        <ele>1111.0461580875</ele>
        <time>2018-11-13T08:52:42.000Z</time>
      </trkpt>
      <trkpt lat="42.15443" lon="1.9167">
        <ele>1110.0300032</ele>
        <time>2018-11-13T08:52:43.000Z</time>
      </trkpt>
      <trkpt lat="42.15441" lon="1.91673">
        <ele>1110</ele>
        <time>2018-11-13T08:52:44.000Z</time>
      </trkpt>
      <trkpt lat="42.1544" lon="1.91675">
        <ele>1110</ele>
        <time>2018-11-13T08:52:45.000Z</time>
      </trkpt>
      <trkpt lat="42.15438" lon="1.91678">
        <ele>1110</ele>
        <time>2018-11-13T08:52:46.000Z</time>
      </trkpt>
      <trkpt lat="42.15437" lon="1.9168">
        <ele>1110</ele>
        <time>2018-11-13T08:52:47.000Z</time>
      </trkpt>
      <trkpt lat="42.15436" lon="1.91683">
        <ele>1110</ele>
        <time>2018-11-13T08:52:48.000Z</time>
      </trkpt>
      <trkpt lat="42.15434" lon="1.91686">
        <ele>1110.9699968</ele>
        <time>2018-11-13T08:52:49.000Z</time>
      </trkpt>
      <trkpt lat="42.15434" lon="1.91689">
        <ele>1110.1100920663</ele>
        <time>2018-11-13T08:52:50.000Z</time>
      </trkpt>
      <trkpt lat="42.15433" lon="1.91692">
        <ele>1110</ele>
        <time>2018-11-13T08:52:51.000Z</time>
      </trkpt>
      <trkpt lat="42.15432" lon="1.91695">
        <ele>1109.0300032</ele>
        <time>2018-11-13T08:52:52.000Z</time>
      </trkpt>
      <trkpt lat="42.15431" lon="1.91698">
        <ele>1109</ele>
        <time>2018-11-13T08:52:53.000Z</time>
      </trkpt>
      <trkpt lat="42.1543" lon="1.91701">
        <ele>1108.0329704335</ele>
        <time>2018-11-13T08:52:54.000Z</time>
      </trkpt>
      <trkpt lat="42.1543" lon="1.91704">
        <ele>1107.0300032</ele>
        <time>2018-11-13T08:52:55.000Z</time>
      </trkpt>
      <trkpt lat="42.15429" lon="1.91707">
        <ele>1107</ele>
        <time>2018-11-13T08:52:56.000Z</time>
      </trkpt>
      <trkpt lat="42.15428" lon="1.9171">
        <ele>1106.2619035525</ele>
        <time>2018-11-13T08:52:57.000Z</time>
      </trkpt>
      <trkpt lat="42.15427" lon="1.91713">
        <ele>1105.0563377743</ele>
        <time>2018-11-13T08:52:58.000Z</time>
      </trkpt>
      <trkpt lat="42.15426" lon="1.91716">
        <ele>1105</ele>
        <time>2018-11-13T08:52:59.000Z</time>
      </trkpt>
      <trkpt lat="42.15426" lon="1.91719">
        <ele>1102.2547094624</ele>
        <time>2018-11-13T08:53:00.000Z</time>
      </trkpt>
      <trkpt lat="42.15426" lon="1.91722">
        <ele>1101.0319180806</ele>
        <time>2018-11-13T08:53:01.000Z</time>
      </trkpt>
      <trkpt lat="42.15425" lon="1.91725">
        <ele>1101</ele>
        <time>2018-11-13T08:53:02.000Z</time>
      </trkpt>
      <trkpt lat="42.15425" lon="1.91728">
        <ele>1101</ele>
        <time>2018-11-13T08:53:03.000Z</time>
      </trkpt>
      <trkpt lat="42.15426" lon="1.91731">
        <ele>1100.04688</ele>
        <time>2018-11-13T08:53:04.000Z</time>
      </trkpt>
      <trkpt lat="42.15426" lon="1.91734">
        <ele>1100</ele>
        <time>2018-11-13T08:53:05.000Z</time>
      </trkpt>
      <trkpt lat="42.15426" lon="1.91737">
        <ele>1099.1261315283</ele>
        <time>2018-11-13T08:53:06.000Z</time>
      </trkpt>
      <trkpt lat="42.15427" lon="1.9174">
        <ele>1099</ele>
        <time>2018-11-13T08:53:07.000Z</time>
      </trkpt>
      <trkpt lat="42.15428" lon="1.91742">
        <ele>1099</ele>
        <time>2018-11-13T08:53:08.000Z</time>
      </trkpt>
      <trkpt lat="42.15429" lon="1.91745">
        <ele>1099</ele>
        <time>2018-11-13T08:53:09.000Z</time>
      </trkpt>
      <trkpt lat="42.1543" lon="1.91749">
        <ele>1099</ele>
        <time>2018-11-13T08:53:10.000Z</time>
      </trkpt>
      <trkpt lat="42.15431" lon="1.91752">
        <ele>1098.0300032</ele>
        <time>2018-11-13T08:53:11.000Z</time>
      </trkpt>
      <trkpt lat="42.15432" lon="1.91755">
        <ele>1097.1181795967</ele>
        <time>2018-11-13T08:53:12.000Z</time>
      </trkpt>
      <trkpt lat="42.15433" lon="1.91758">
        <ele>1097</ele>
        <time>2018-11-13T08:53:13.000Z</time>
      </trkpt>
      <trkpt lat="42.15433" lon="1.91762">
        <ele>1096.0300032</ele>
        <time>2018-11-13T08:53:14.000Z</time>
      </trkpt>
      <trkpt lat="42.15434" lon="1.91766">
        <ele>1096</ele>
        <time>2018-11-13T08:53:15.000Z</time>
      </trkpt>
      <trkpt lat="42.15434" lon="1.91769">
        <ele>1096</ele>
        <time>2018-11-13T08:53:16.000Z</time>
      </trkpt>
      <trkpt lat="42.15434" lon="1.91773">
        <ele>1096</ele>
        <time>2018-11-13T08:53:17.000Z</time>
      </trkpt>
      <trkpt lat="42.15434" lon="1.91776">
        <ele>1096</ele>
        <time>2018-11-13T08:53:18.000Z</time>
      </trkpt>
      <trkpt lat="42.15434" lon="1.9178">
        <ele>1095.0322611724</ele>
        <time>2018-11-13T08:53:19.000Z</time>
      </trkpt>
      <trkpt lat="42.15433" lon="1.91783">
        <ele>1094.0300032</ele>
        <time>2018-11-13T08:53:20.000Z</time>
      </trkpt>
      <trkpt lat="42.15432" lon="1.91787">
        <ele>1094</ele>
        <time>2018-11-13T08:53:21.000Z</time>
      </trkpt>
      <trkpt lat="42.15432" lon="1.91791">
        <ele>1094</ele>
        <time>2018-11-13T08:53:22.000Z</time>
      </trkpt>
      <trkpt lat="42.15431" lon="1.91794">
        <ele>1094</ele>
        <time>2018-11-13T08:53:23.000Z</time>
      </trkpt>
      <trkpt lat="42.1543" lon="1.91798">
        <ele>1093.0300032</ele>
        <time>2018-11-13T08:53:24.000Z</time>
      </trkpt>
      <trkpt lat="42.15429" lon="1.91802">
        <ele>1092.0761907084</ele>
        <time>2018-11-13T08:53:25.000Z</time>
      </trkpt>
      <trkpt lat="42.15429" lon="1.91806">
        <ele>1092</ele>
        <time>2018-11-13T08:53:26.000Z</time>
      </trkpt>
      <trkpt lat="42.15429" lon="1.91808">
        <ele>1091.0300032</ele>
        <time>2018-11-13T08:53:27.000Z</time>
      </trkpt>
      <trkpt lat="42.15428" lon="1.9181">
        <ele>1091</ele>
        <time>2018-11-13T08:53:28.000Z</time>
      </trkpt>
      <trkpt lat="42.15428" lon="1.91813">
        <ele>1090.0312533333</ele>
        <time>2018-11-13T08:53:29.000Z</time>
      </trkpt>
      <trkpt lat="42.15427" lon="1.91816">
        <ele>1090</ele>
        <time>2018-11-13T08:53:30.000Z</time>
      </trkpt>
      <trkpt lat="42.15426" lon="1.91818">
        <ele>1089.0673107692</ele>
        <time>2018-11-13T08:53:31.000Z</time>
      </trkpt>
      <trkpt lat="42.15425" lon="1.91821">
        <ele>1089</ele>
        <time>2018-11-13T08:53:32.000Z</time>
      </trkpt>
      <trkpt lat="42.15424" lon="1.91824">
        <ele>1088.0300032</ele>
        <time>2018-11-13T08:53:33.000Z</time>
      </trkpt>
      <trkpt lat="42.15422" lon="1.91826">
        <ele>1088</ele>
        <time>2018-11-13T08:53:34.000Z</time>
      </trkpt>
      <trkpt lat="42.15421" lon="1.91829">
        <ele>1087.26563</ele>
        <time>2018-11-13T08:53:35.000Z</time>
      </trkpt>
      <trkpt lat="42.15419" lon="1.91832">
        <ele>1087</ele>
        <time>2018-11-13T08:53:36.000Z</time>
      </trkpt>
      <trkpt lat="42.15417" lon="1.91835">
        <ele>1087</ele>
        <time>2018-11-13T08:53:37.000Z</time>
      </trkpt>
      <trkpt lat="42.15415" lon="1.91838">
        <ele>1084.1747753793</ele>
        <time>2018-11-13T08:53:38.000Z</time>
      </trkpt>
      <trkpt lat="42.15412" lon="1.91841">
        <ele>1084</ele>
        <time>2018-11-13T08:53:39.000Z</time>
      </trkpt>
      <trkpt lat="42.15409" lon="1.91845">
        <ele>1084</ele>
        <time>2018-11-13T08:53:40.000Z</time>
      </trkpt>
      <trkpt lat="42.15407" lon="1.91847">
        <ele>1084</ele>
        <time>2018-11-13T08:53:41.000Z</time>
      </trkpt>
      <trkpt lat="42.15405" lon="1.9185">
        <ele>1083.0447806816</ele>
        <time>2018-11-13T08:53:42.000Z</time>
      </trkpt>
      <trkpt lat="42.15404" lon="1.91852">
        <ele>1083</ele>
        <time>2018-11-13T08:53:43.000Z</time>
      </trkpt>
      <trkpt lat="42.15403" lon="1.91855">
        <ele>1083</ele>
        <time>2018-11-13T08:53:44.000Z</time>
      </trkpt>
      <trkpt lat="42.15403" lon="1.91858">
        <ele>1082.0326121739</ele>
        <time>2018-11-13T08:53:45.000Z</time>
      </trkpt>
      <trkpt lat="42.15402" lon="1.91861">
        <ele>1081.0300032</ele>
        <time>2018-11-13T08:53:46.000Z</time>
      </trkpt>
      <trkpt lat="42.15401" lon="1.91865">
        <ele>1081</ele>
        <time>2018-11-13T08:53:47.000Z</time>
      </trkpt>
      <trkpt lat="42.154" lon="1.91868">
        <ele>1081</ele>
        <time>2018-11-13T08:53:48.000Z</time>
      </trkpt>
      <trkpt lat="42.15399" lon="1.91871">
        <ele>1080.0300032</ele>
        <time>2018-11-13T08:53:49.000Z</time>
      </trkpt>
      <trkpt lat="42.15398" lon="1.91874">
        <ele>1080</ele>
        <time>2018-11-13T08:53:50.000Z</time>
      </trkpt>
      <trkpt lat="42.15398" lon="1.91878">
        <ele>1079.0322611724</ele>
        <time>2018-11-13T08:53:51.000Z</time>
      </trkpt>
      <trkpt lat="42.15397" lon="1.91881">
        <ele>1079</ele>
        <time>2018-11-13T08:53:52.000Z</time>
      </trkpt>
      <trkpt lat="42.15396" lon="1.91884">
        <ele>1078.0934636457</ele>
        <time>2018-11-13T08:53:53.000Z</time>
      </trkpt>
      <trkpt lat="42.15395" lon="1.91888">
        <ele>1077.2682921753</ele>
        <time>2018-11-13T08:53:54.000Z</time>
      </trkpt>
      <trkpt lat="42.15394" lon="1.91891">
        <ele>1077</ele>
        <time>2018-11-13T08:53:55.000Z</time>
      </trkpt>
      <trkpt lat="42.15393" lon="1.91894">
        <ele>1077</ele>
        <time>2018-11-13T08:53:56.000Z</time>
      </trkpt>
      <trkpt lat="42.15393" lon="1.91897">
        <ele>1076.0673107692</ele>
        <time>2018-11-13T08:53:57.000Z</time>
      </trkpt>
      <trkpt lat="42.15392" lon="1.919">
        <ele>1075.0312533333</ele>
        <time>2018-11-13T08:53:58.000Z</time>
      </trkpt>
      <trkpt lat="42.15391" lon="1.91904">
        <ele>1075</ele>
        <time>2018-11-13T08:53:59.000Z</time>
      </trkpt>
      <trkpt lat="42.15391" lon="1.91907">
        <ele>1075</ele>
        <time>2018-11-13T08:54:00.000Z</time>
      </trkpt>
      <trkpt lat="42.1539" lon="1.9191">
        <ele>1075</ele>
        <time>2018-11-13T08:54:01.000Z</time>
      </trkpt>
      <trkpt lat="42.15388" lon="1.91914">
        <ele>1075</ele>
        <time>2018-11-13T08:54:02.000Z</time>
      </trkpt>
      <trkpt lat="42.15387" lon="1.91917">
        <ele>1074.0300032</ele>
        <time>2018-11-13T08:54:03.000Z</time>
      </trkpt>
      <trkpt lat="42.15387" lon="1.9192">
        <ele>1074</ele>
        <time>2018-11-13T08:54:04.000Z</time>
      </trkpt>
      <trkpt lat="42.15387" lon="1.91924">
        <ele>1074.9684177906</ele>
        <time>2018-11-13T08:54:05.000Z</time>
      </trkpt>
      <trkpt lat="42.15388" lon="1.91927">
        <ele>1075</ele>
        <time>2018-11-13T08:54:06.000Z</time>
      </trkpt>
      <trkpt lat="42.15388" lon="1.9193">
        <ele>1075</ele>
        <time>2018-11-13T08:54:07.000Z</time>
      </trkpt>
      <trkpt lat="42.1539" lon="1.91934">
        <ele>1075</ele>
        <time>2018-11-13T08:54:08.000Z</time>
      </trkpt>
      <trkpt lat="42.15391" lon="1.91937">
        <ele>1075</ele>
        <time>2018-11-13T08:54:09.000Z</time>
      </trkpt>
      <trkpt lat="42.15392" lon="1.9194">
        <ele>1075</ele>
        <time>2018-11-13T08:54:10.000Z</time>
      </trkpt>
      <trkpt lat="42.15394" lon="1.91943">
        <ele>1075</ele>
        <time>2018-11-13T08:54:11.000Z</time>
      </trkpt>
      <trkpt lat="42.15396" lon="1.91945">
        <ele>1075</ele>
        <time>2018-11-13T08:54:12.000Z</time>
      </trkpt>
      <trkpt lat="42.15397" lon="1.91947">
        <ele>1075</ele>
        <time>2018-11-13T08:54:13.000Z</time>
      </trkpt>
      <trkpt lat="42.15399" lon="1.9195">
        <ele>1075</ele>
        <time>2018-11-13T08:54:14.000Z</time>
      </trkpt>
      <trkpt lat="42.15401" lon="1.91952">
        <ele>1075</ele>
        <time>2018-11-13T08:54:15.000Z</time>
      </trkpt>
      <trkpt lat="42.15402" lon="1.91954">
        <ele>1075</ele>
        <time>2018-11-13T08:54:16.000Z</time>
      </trkpt>
      <trkpt lat="42.15404" lon="1.91956">
        <ele>1075</ele>
        <time>2018-11-13T08:54:17.000Z</time>
      </trkpt>
      <trkpt lat="42.15405" lon="1.91958">
        <ele>1075</ele>
        <time>2018-11-13T08:54:18.000Z</time>
      </trkpt>
      <trkpt lat="42.15406" lon="1.91961">
        <ele>1075</ele>
        <time>2018-11-13T08:54:19.000Z</time>
      </trkpt>
      <trkpt lat="42.15408" lon="1.91963">
        <ele>1075</ele>
        <time>2018-11-13T08:54:20.000Z</time>
      </trkpt>
      <trkpt lat="42.1541" lon="1.91966">
        <ele>1074.2595462362</ele>
        <time>2018-11-13T08:54:21.000Z</time>
      </trkpt>
      <trkpt lat="42.15411" lon="1.9197">
        <ele>1074</ele>
        <time>2018-11-13T08:54:22.000Z</time>
      </trkpt>
      <trkpt lat="42.15413" lon="1.91972">
        <ele>1074</ele>
        <time>2018-11-13T08:54:23.000Z</time>
      </trkpt>
      <trkpt lat="42.15414" lon="1.91974">
        <ele>1074</ele>
        <time>2018-11-13T08:54:24.000Z</time>
      </trkpt>
      <trkpt lat="42.15414" lon="1.91979">
        <ele>1074</ele>
        <time>2018-11-13T08:54:26.000Z</time>
      </trkpt>
      <trkpt lat="42.15413" lon="1.91983">
        <ele>1074</ele>
        <time>2018-11-13T08:54:28.000Z</time>
      </trkpt>
      <trkpt lat="42.15412" lon="1.91986">
        <ele>1073.0673107692</ele>
        <time>2018-11-13T08:54:30.000Z</time>
      </trkpt>
      <trkpt lat="42.1541" lon="1.9199">
        <ele>1072.253844942</ele>
        <time>2018-11-13T08:54:32.000Z</time>
      </trkpt>
      <trkpt lat="42.15409" lon="1.91993">
        <ele>1072</ele>
        <time>2018-11-13T08:54:34.000Z</time>
      </trkpt>
      <trkpt lat="42.15409" lon="1.91996">
        <ele>1071.0306153103</ele>
        <time>2018-11-13T08:54:36.000Z</time>
      </trkpt>
      <trkpt lat="42.15409" lon="1.91999">
        <ele>1071</ele>
        <time>2018-11-13T08:54:38.000Z</time>
      </trkpt>
      <trkpt lat="42.15408" lon="1.92003">
        <ele>1070.0300032</ele>
        <time>2018-11-13T08:54:40.000Z</time>
      </trkpt>
      <trkpt lat="42.15407" lon="1.92007">
        <ele>1070</ele>
        <time>2018-11-13T08:54:42.000Z</time>
      </trkpt>
      <trkpt lat="42.15408" lon="1.92011">
        <ele>1070</ele>
        <time>2018-11-13T08:54:44.000Z</time>
      </trkpt>
      <trkpt lat="42.15408" lon="1.92015">
        <ele>1069.0300032</ele>
        <time>2018-11-13T08:54:46.000Z</time>
      </trkpt>
      <trkpt lat="42.15408" lon="1.9202">
        <ele>1069</ele>
        <time>2018-11-13T08:54:48.000Z</time>
      </trkpt>
      <trkpt lat="42.15407" lon="1.92022">
        <ele>1069</ele>
        <time>2018-11-13T08:54:49.000Z</time>
      </trkpt>
      <trkpt lat="42.15407" lon="1.92026">
        <ele>1069</ele>
        <time>2018-11-13T08:54:51.000Z</time>
      </trkpt>
      <trkpt lat="42.15405" lon="1.9203">
        <ele>1068</ele>
        <time>2018-11-13T08:54:53.000Z</time>
      </trkpt>
      <trkpt lat="42.15403" lon="1.92033">
        <ele>1067.0434822936</ele>
        <time>2018-11-13T08:54:55.000Z</time>
      </trkpt>
      <trkpt lat="42.15403" lon="1.92036">
        <ele>1067</ele>
        <time>2018-11-13T08:54:57.000Z</time>
      </trkpt>
      <trkpt lat="42.15402" lon="1.9204">
        <ele>1067</ele>
        <time>2018-11-13T08:54:59.000Z</time>
      </trkpt>
      <trkpt lat="42.15401" lon="1.92042">
        <ele>1067</ele>
        <time>2018-11-13T08:55:00.000Z</time>
      </trkpt>
      <trkpt lat="42.15398" lon="1.92045">
        <ele>1067</ele>
        <time>2018-11-13T08:55:02.000Z</time>
      </trkpt>
      <trkpt lat="42.15397" lon="1.92046">
        <ele>1067</ele>
        <time>2018-11-13T08:55:03.000Z</time>
      </trkpt>
      <trkpt lat="42.15395" lon="1.92047">
        <ele>1066.0582584598</ele>
        <time>2018-11-13T08:55:04.000Z</time>
      </trkpt>
      <trkpt lat="42.15393" lon="1.92048">
        <ele>1066</ele>
        <time>2018-11-13T08:55:05.000Z</time>
      </trkpt>
      <trkpt lat="42.15391" lon="1.92049">
        <ele>1066</ele>
        <time>2018-11-13T08:55:06.000Z</time>
      </trkpt>
      <trkpt lat="42.15388" lon="1.92052">
        <ele>1066</ele>
        <time>2018-11-13T08:55:08.000Z</time>
      </trkpt>
      <trkpt lat="42.15386" lon="1.92054">
        <ele>1066</ele>
        <time>2018-11-13T08:55:10.000Z</time>
      </trkpt>
      <trkpt lat="42.15384" lon="1.92057">
        <ele>1066</ele>
        <time>2018-11-13T08:55:12.000Z</time>
      </trkpt>
      <trkpt lat="42.15382" lon="1.92058">
        <ele>1065.0309308279</ele>
        <time>2018-11-13T08:55:14.000Z</time>
      </trkpt>
      <trkpt lat="42.1538" lon="1.9206">
        <ele>1065</ele>
        <time>2018-11-13T08:55:16.000Z</time>
      </trkpt>
      <trkpt lat="42.15378" lon="1.92062">
        <ele>1065</ele>
        <time>2018-11-13T08:55:18.000Z</time>
      </trkpt>
      <trkpt lat="42.15377" lon="1.92065">
        <ele>1065</ele>
        <time>2018-11-13T08:55:20.000Z</time>
      </trkpt>
      <trkpt lat="42.15376" lon="1.92069">
        <ele>1065</ele>
        <time>2018-11-13T08:55:22.000Z</time>
      </trkpt>
      <trkpt lat="42.15374" lon="1.92072">
        <ele>1065</ele>
        <time>2018-11-13T08:55:24.000Z</time>
      </trkpt>
      <trkpt lat="42.15374" lon="1.92075">
        <ele>1065</ele>
        <time>2018-11-13T08:55:26.000Z</time>
      </trkpt>
      <trkpt lat="42.15374" lon="1.92078">
        <ele>1065</ele>
        <time>2018-11-13T08:55:28.000Z</time>
      </trkpt>
      <trkpt lat="42.15375" lon="1.92081">
        <ele>1065</ele>
        <time>2018-11-13T08:55:31.000Z</time>
      </trkpt>
      <trkpt lat="42.15376" lon="1.92084">
        <ele>1065</ele>
        <time>2018-11-13T08:55:33.000Z</time>
      </trkpt>
      <trkpt lat="42.15377" lon="1.92086">
        <ele>1065</ele>
        <time>2018-11-13T08:55:35.000Z</time>
      </trkpt>
      <trkpt lat="42.15379" lon="1.92089">
        <ele>1065</ele>
        <time>2018-11-13T08:55:37.000Z</time>
      </trkpt>
      <trkpt lat="42.15381" lon="1.92092">
        <ele>1065</ele>
        <time>2018-11-13T08:55:39.000Z</time>
      </trkpt>
      <trkpt lat="42.15382" lon="1.92096">
        <ele>1065</ele>
        <time>2018-11-13T08:55:41.000Z</time>
      </trkpt>
      <trkpt lat="42.15383" lon="1.92099">
        <ele>1065</ele>
        <time>2018-11-13T08:55:43.000Z</time>
      </trkpt>
      <trkpt lat="42.15385" lon="1.92102">
        <ele>1065</ele>
        <time>2018-11-13T08:55:45.000Z</time>
      </trkpt>
      <trkpt lat="42.15387" lon="1.92104">
        <ele>1065</ele>
        <time>2018-11-13T08:55:47.000Z</time>
      </trkpt>
      <trkpt lat="42.15388" lon="1.92108">
        <ele>1064.1142867592</ele>
        <time>2018-11-13T08:55:49.000Z</time>
      </trkpt>
      <trkpt lat="42.15389" lon="1.92111">
        <ele>1064</ele>
        <time>2018-11-13T08:55:51.000Z</time>
      </trkpt>
      <trkpt lat="42.15391" lon="1.92113">
        <ele>1063</ele>
        <time>2018-11-13T08:55:53.000Z</time>
      </trkpt>
      <trkpt lat="42.15393" lon="1.92116">
        <ele>1063</ele>
        <time>2018-11-13T08:55:55.000Z</time>
      </trkpt>
      <trkpt lat="42.15395" lon="1.92118">
        <ele>1063</ele>
        <time>2018-11-13T08:55:57.000Z</time>
      </trkpt>
      <trkpt lat="42.15397" lon="1.92121">
        <ele>1063</ele>
        <time>2018-11-13T08:55:59.000Z</time>
      </trkpt>
      <trkpt lat="42.15398" lon="1.92123">
        <ele>1061.065940867</ele>
        <time>2018-11-13T08:56:01.000Z</time>
      </trkpt>
      <trkpt lat="42.15401" lon="1.92126">
        <ele>1061</ele>
        <time>2018-11-13T08:56:03.000Z</time>
      </trkpt>
      <trkpt lat="42.15402" lon="1.92128">
        <ele>1061</ele>
        <time>2018-11-13T08:56:05.000Z</time>
      </trkpt>
      <trkpt lat="42.15404" lon="1.92131">
        <ele>1061</ele>
        <time>2018-11-13T08:56:07.000Z</time>
      </trkpt>
      <trkpt lat="42.15404" lon="1.92134">
        <ele>1060</ele>
        <time>2018-11-13T08:56:09.000Z</time>
      </trkpt>
      <trkpt lat="42.15401" lon="1.92135">
        <ele>1059.0309312361</ele>
        <time>2018-11-13T08:56:11.000Z</time>
      </trkpt>
      <trkpt lat="42.15398" lon="1.92137">
        <ele>1059</ele>
        <time>2018-11-13T08:56:13.000Z</time>
      </trkpt>
      <trkpt lat="42.15395" lon="1.9214">
        <ele>1058.0300032</ele>
        <time>2018-11-13T08:56:15.000Z</time>
      </trkpt>
      <trkpt lat="42.15393" lon="1.92142">
        <ele>1057.0306153103</ele>
        <time>2018-11-13T08:56:17.000Z</time>
      </trkpt>
      <trkpt lat="42.15392" lon="1.92144">
        <ele>1057</ele>
        <time>2018-11-13T08:56:19.000Z</time>
      </trkpt>
      <trkpt lat="42.15391" lon="1.92147">
        <ele>1057</ele>
        <time>2018-11-13T08:56:25.000Z</time>
      </trkpt>
      <trkpt lat="42.15391" lon="1.9215">
        <ele>1057</ele>
        <time>2018-11-13T08:56:28.000Z</time>
      </trkpt>
      <trkpt lat="42.15391" lon="1.92153">
        <ele>1054.0306153103</ele>
        <time>2018-11-13T08:56:30.000Z</time>
      </trkpt>
      <trkpt lat="42.1539" lon="1.92156">
        <ele>1054</ele>
        <time>2018-11-13T08:56:32.000Z</time>
      </trkpt>
      <trkpt lat="42.15388" lon="1.92158">
        <ele>1053.0300032</ele>
        <time>2018-11-13T08:56:34.000Z</time>
      </trkpt>
      <trkpt lat="42.15386" lon="1.92161">
        <ele>1053</ele>
        <time>2018-11-13T08:56:36.000Z</time>
      </trkpt>
      <trkpt lat="42.15384" lon="1.92163">
        <ele>1053</ele>
        <time>2018-11-13T08:56:38.000Z</time>
      </trkpt>
      <trkpt lat="42.15384" lon="1.92166">
        <ele>1052</ele>
        <time>2018-11-13T08:56:41.000Z</time>
      </trkpt>
      <trkpt lat="42.15385" lon="1.92169">
        <ele>1052</ele>
        <time>2018-11-13T08:56:45.000Z</time>
      </trkpt>
      <trkpt lat="42.15386" lon="1.92171">
        <ele>1052</ele>
        <time>2018-11-13T08:56:47.000Z</time>
      </trkpt>
      <trkpt lat="42.15386" lon="1.92174">
        <ele>1049.0309312361</ele>
        <time>2018-11-13T08:56:49.000Z</time>
      </trkpt>
      <trkpt lat="42.15385" lon="1.92177">
        <ele>1049</ele>
        <time>2018-11-13T08:56:51.000Z</time>
      </trkpt>
      <trkpt lat="42.15384" lon="1.92181">
        <ele>1049</ele>
        <time>2018-11-13T08:56:53.000Z</time>
      </trkpt>
      <trkpt lat="42.15382" lon="1.92182">
        <ele>1048.0490167781</ele>
        <time>2018-11-13T08:56:54.000Z</time>
      </trkpt>
      <trkpt lat="42.15379" lon="1.92184">
        <ele>1047.0428613224</ele>
        <time>2018-11-13T08:56:56.000Z</time>
      </trkpt>
      <trkpt lat="42.15377" lon="1.92186">
        <ele>1046.0849031541</ele>
        <time>2018-11-13T08:56:58.000Z</time>
      </trkpt>
      <trkpt lat="42.15375" lon="1.92189">
        <ele>1046</ele>
        <time>2018-11-13T08:57:00.000Z</time>
      </trkpt>
      <trkpt lat="42.15374" lon="1.92192">
        <ele>1045</ele>
        <time>2018-11-13T08:57:02.000Z</time>
      </trkpt>
      <trkpt lat="42.15374" lon="1.92195">
        <ele>1045</ele>
        <time>2018-11-13T08:57:04.000Z</time>
      </trkpt>
      <trkpt lat="42.15375" lon="1.92198">
        <ele>1044</ele>
        <time>2018-11-13T08:57:06.000Z</time>
      </trkpt>
      <trkpt lat="42.15374" lon="1.92202">
        <ele>1043</ele>
        <time>2018-11-13T08:57:08.000Z</time>
      </trkpt>
      <trkpt lat="42.15372" lon="1.92203">
        <ele>1043</ele>
        <time>2018-11-13T08:57:09.000Z</time>
      </trkpt>
      <trkpt lat="42.1537" lon="1.92204">
        <ele>1042</ele>
        <time>2018-11-13T08:57:11.000Z</time>
      </trkpt>
      <trkpt lat="42.15369" lon="1.92206">
        <ele>1041</ele>
        <time>2018-11-13T08:57:13.000Z</time>
      </trkpt>
      <trkpt lat="42.15365" lon="1.92207">
        <ele>1041</ele>
        <time>2018-11-13T08:57:15.000Z</time>
      </trkpt>
      <trkpt lat="42.15362" lon="1.92208">
        <ele>1040</ele>
        <time>2018-11-13T08:57:17.000Z</time>
      </trkpt>
      <trkpt lat="42.1536" lon="1.92208">
        <ele>1040</ele>
        <time>2018-11-13T08:57:18.000Z</time>
      </trkpt>
      <trkpt lat="42.15358" lon="1.92207">
        <ele>1039.0396040859</ele>
        <time>2018-11-13T08:57:20.000Z</time>
      </trkpt>
      <trkpt lat="42.15355" lon="1.92209">
        <ele>1038.0300032</ele>
        <time>2018-11-13T08:57:22.000Z</time>
      </trkpt>
      <trkpt lat="42.15353" lon="1.92209">
        <ele>1038</ele>
        <time>2018-11-13T08:57:24.000Z</time>
      </trkpt>
      <trkpt lat="42.15352" lon="1.92211">
        <ele>1037.0761907084</ele>
        <time>2018-11-13T08:57:26.000Z</time>
      </trkpt>
      <trkpt lat="42.1535" lon="1.92214">
        <ele>1035.0315822094</ele>
        <time>2018-11-13T08:57:30.000Z</time>
      </trkpt>
      <trkpt lat="42.15351" lon="1.92216">
        <ele>1034</ele>
        <time>2018-11-13T08:57:33.000Z</time>
      </trkpt>
      <trkpt lat="42.15352" lon="1.92219">
        <ele>1033</ele>
        <time>2018-11-13T08:57:35.000Z</time>
      </trkpt>
      <trkpt lat="42.1535" lon="1.92221">
        <ele>1032.0428613224</ele>
        <time>2018-11-13T08:57:37.000Z</time>
      </trkpt>
      <trkpt lat="42.15348" lon="1.92222">
        <ele>1032</ele>
        <time>2018-11-13T08:57:39.000Z</time>
      </trkpt>
      <trkpt lat="42.15347" lon="1.92224">
        <ele>1031.0461589965</ele>
        <time>2018-11-13T08:57:43.000Z</time>
      </trkpt>
      <trkpt lat="42.15344" lon="1.92225">
        <ele>1030</ele>
        <time>2018-11-13T08:57:45.000Z</time>
      </trkpt>
      <trkpt lat="42.15341" lon="1.92225">
        <ele>1029.0300032</ele>
        <time>2018-11-13T08:57:47.000Z</time>
      </trkpt>
      <trkpt lat="42.1534" lon="1.92228">
        <ele>1029</ele>
        <time>2018-11-13T08:57:50.000Z</time>
      </trkpt>
      <trkpt lat="42.15342" lon="1.92231">
        <ele>1027</ele>
        <time>2018-11-13T08:57:53.000Z</time>
      </trkpt>
      <trkpt lat="42.15343" lon="1.92234">
        <ele>1027</ele>
        <time>2018-11-13T08:57:55.000Z</time>
      </trkpt>
      <trkpt lat="42.15343" lon="1.92237">
        <ele>1026.1339314286</ele>
        <time>2018-11-13T08:57:57.000Z</time>
      </trkpt>
      <trkpt lat="42.15342" lon="1.9224">
        <ele>1025</ele>
        <time>2018-11-13T08:58:00.000Z</time>
      </trkpt>
      <trkpt lat="42.15342" lon="1.92243">
        <ele>1024</ele>
        <time>2018-11-13T08:58:03.000Z</time>
      </trkpt>
      <trkpt lat="42.1534" lon="1.92243">
        <ele>1023</ele>
        <time>2018-11-13T08:58:05.000Z</time>
      </trkpt>
      <trkpt lat="42.15337" lon="1.92243">
        <ele>1023</ele>
        <time>2018-11-13T08:58:07.000Z</time>
      </trkpt>
      <trkpt lat="42.15335" lon="1.92243">
        <ele>1023</ele>
        <time>2018-11-13T08:58:09.000Z</time>
      </trkpt>
      <trkpt lat="42.15333" lon="1.92242">
        <ele>1023</ele>
        <time>2018-11-13T08:58:11.000Z</time>
      </trkpt>
      <trkpt lat="42.15331" lon="1.92242">
        <ele>1023</ele>
        <time>2018-11-13T08:58:14.000Z</time>
      </trkpt>
      <trkpt lat="42.1533" lon="1.92246">
        <ele>1021.0300032</ele>
        <time>2018-11-13T08:58:18.000Z</time>
      </trkpt>
      <trkpt lat="42.15328" lon="1.92248">
        <ele>1020.2558121074</ele>
        <time>2018-11-13T08:58:20.000Z</time>
      </trkpt>
      <trkpt lat="42.15325" lon="1.92248">
        <ele>1020</ele>
        <time>2018-11-13T08:58:22.000Z</time>
      </trkpt>
      <trkpt lat="42.15324" lon="1.9225">
        <ele>1018.0315822094</ele>
        <time>2018-11-13T08:58:24.000Z</time>
      </trkpt>
      <trkpt lat="42.15322" lon="1.92251">
        <ele>1018</ele>
        <time>2018-11-13T08:58:26.000Z</time>
      </trkpt>
      <trkpt lat="42.1532" lon="1.92252">
        <ele>1018</ele>
        <time>2018-11-13T08:58:28.000Z</time>
      </trkpt>
      <trkpt lat="42.15318" lon="1.92253">
        <ele>1017</ele>
        <time>2018-11-13T08:58:30.000Z</time>
      </trkpt>
      <trkpt lat="42.15319" lon="1.92256">
        <ele>1017</ele>
        <time>2018-11-13T08:58:33.000Z</time>
      </trkpt>
      <trkpt lat="42.15321" lon="1.92258">
        <ele>1017</ele>
        <time>2018-11-13T08:58:36.000Z</time>
      </trkpt>
      <trkpt lat="42.15322" lon="1.9226">
        <ele>1016</ele>
        <time>2018-11-13T08:58:39.000Z</time>
      </trkpt>
      <trkpt lat="42.15324" lon="1.92261">
        <ele>1015</ele>
        <time>2018-11-13T08:58:42.000Z</time>
      </trkpt>
      <trkpt lat="42.15326" lon="1.92263">
        <ele>1014</ele>
        <time>2018-11-13T08:58:44.000Z</time>
      </trkpt>
      <trkpt lat="42.15326" lon="1.92266">
        <ele>1014</ele>
        <time>2018-11-13T08:58:46.000Z</time>
      </trkpt>
      <trkpt lat="42.15323" lon="1.92268">
        <ele>1013.0315822094</ele>
        <time>2018-11-13T08:58:49.000Z</time>
      </trkpt>
      <trkpt lat="42.15321" lon="1.92268">
        <ele>1013</ele>
        <time>2018-11-13T08:58:51.000Z</time>
      </trkpt>
      <trkpt lat="42.15319" lon="1.92267">
        <ele>1012.0300032</ele>
        <time>2018-11-13T08:58:53.000Z</time>
      </trkpt>
      <trkpt lat="42.15317" lon="1.92266">
        <ele>1011.0300032</ele>
        <time>2018-11-13T08:58:56.000Z</time>
      </trkpt>
      <trkpt lat="42.15315" lon="1.92267">
        <ele>1011</ele>
        <time>2018-11-13T08:58:58.000Z</time>
      </trkpt>
      <trkpt lat="42.15313" lon="1.92266">
        <ele>1011</ele>
        <time>2018-11-13T08:59:00.000Z</time>
      </trkpt>
      <trkpt lat="42.1531" lon="1.92266">
        <ele>1009</ele>
        <time>2018-11-13T08:59:02.000Z</time>
      </trkpt>
      <trkpt lat="42.15308" lon="1.92267">
        <ele>1009</ele>
        <time>2018-11-13T08:59:04.000Z</time>
      </trkpt>
      <trkpt lat="42.1531" lon="1.92268">
        <ele>1009</ele>
        <time>2018-11-13T08:59:07.000Z</time>
      </trkpt>
      <trkpt lat="42.15312" lon="1.9227">
        <ele>1009</ele>
        <time>2018-11-13T08:59:09.000Z</time>
      </trkpt>
      <trkpt lat="42.15314" lon="1.92272">
        <ele>1008</ele>
        <time>2018-11-13T08:59:11.000Z</time>
      </trkpt>
      <trkpt lat="42.15315" lon="1.92276">
        <ele>1007</ele>
        <time>2018-11-13T08:59:13.000Z</time>
      </trkpt>
      <trkpt lat="42.15316" lon="1.92278">
        <ele>1007</ele>
        <time>2018-11-13T08:59:15.000Z</time>
      </trkpt>
      <trkpt lat="42.15318" lon="1.9228">
        <ele>1006</ele>
        <time>2018-11-13T08:59:17.000Z</time>
      </trkpt>
      <trkpt lat="42.15319" lon="1.92281">
        <ele>1005.0434831002</ele>
        <time>2018-11-13T08:59:20.000Z</time>
      </trkpt>
      <trkpt lat="42.15319" lon="1.92284">
        <ele>1005</ele>
        <time>2018-11-13T08:59:23.000Z</time>
      </trkpt>
      <trkpt lat="42.15317" lon="1.92286">
        <ele>1004.0849031541</ele>
        <time>2018-11-13T08:59:25.000Z</time>
      </trkpt>
      <trkpt lat="42.15316" lon="1.92287">
        <ele>1004</ele>
        <time>2018-11-13T08:59:27.000Z</time>
      </trkpt>
      <trkpt lat="42.15314" lon="1.92289">
        <ele>1003</ele>
        <time>2018-11-13T08:59:29.000Z</time>
      </trkpt>
      <trkpt lat="42.15311" lon="1.9229">
        <ele>1003</ele>
        <time>2018-11-13T08:59:31.000Z</time>
      </trkpt>
      <trkpt lat="42.15307" lon="1.92291">
        <ele>1003</ele>
        <time>2018-11-13T08:59:33.000Z</time>
      </trkpt>
      <trkpt lat="42.15305" lon="1.92292">
        <ele>1002.0761907084</ele>
        <time>2018-11-13T08:59:34.000Z</time>
      </trkpt>
      <trkpt lat="42.15303" lon="1.92292">
        <ele>1002</ele>
        <time>2018-11-13T08:59:35.000Z</time>
      </trkpt>
      <trkpt lat="42.153" lon="1.92292">
        <ele>1001</ele>
        <time>2018-11-13T08:59:37.000Z</time>
      </trkpt>
      <trkpt lat="42.15297" lon="1.92293">
        <ele>1000.0761907084</ele>
        <time>2018-11-13T08:59:39.000Z</time>
      </trkpt>
      <trkpt lat="42.15296" lon="1.92295">
        <ele>999</ele>
        <time>2018-11-13T08:59:42.000Z</time>
      </trkpt>
      <trkpt lat="42.15298" lon="1.92297">
        <ele>999</ele>
        <time>2018-11-13T08:59:44.000Z</time>
      </trkpt>
      <trkpt lat="42.15299" lon="1.92299">
        <ele>998.03125333333</ele>
        <time>2018-11-13T08:59:46.000Z</time>
      </trkpt>
      <trkpt lat="42.15301" lon="1.92301">
        <ele>998</ele>
        <time>2018-11-13T08:59:48.000Z</time>
      </trkpt>
      <trkpt lat="42.15302" lon="1.92304">
        <ele>997.0300032</ele>
        <time>2018-11-13T08:59:50.000Z</time>
      </trkpt>
      <trkpt lat="42.15301" lon="1.92307">
        <ele>996.0309308279</ele>
        <time>2018-11-13T08:59:52.000Z</time>
      </trkpt>
      <trkpt lat="42.15299" lon="1.92309">
        <ele>996</ele>
        <time>2018-11-13T08:59:54.000Z</time>
      </trkpt>
      <trkpt lat="42.15297" lon="1.92309">
        <ele>996</ele>
        <time>2018-11-13T08:59:55.000Z</time>
      </trkpt>
      <trkpt lat="42.15294" lon="1.9231">
        <ele>996</ele>
        <time>2018-11-13T08:59:57.000Z</time>
      </trkpt>
      <trkpt lat="42.15293" lon="1.92313">
        <ele>993</ele>
        <time>2018-11-13T09:00:00.000Z</time>
      </trkpt>
      <trkpt lat="42.15292" lon="1.92315">
        <ele>993</ele>
        <time>2018-11-13T09:00:02.000Z</time>
      </trkpt>
      <trkpt lat="42.15292" lon="1.92318">
        <ele>993</ele>
        <time>2018-11-13T09:00:05.000Z</time>
      </trkpt>
      <trkpt lat="42.1529" lon="1.92321">
        <ele>991.0300032</ele>
        <time>2018-11-13T09:00:08.000Z</time>
      </trkpt>
      <trkpt lat="42.15288" lon="1.92323">
        <ele>991</ele>
        <time>2018-11-13T09:00:10.000Z</time>
      </trkpt>
      <trkpt lat="42.15286" lon="1.92325">
        <ele>989.04901677814</ele>
        <time>2018-11-13T09:00:12.000Z</time>
      </trkpt>
      <trkpt lat="42.15284" lon="1.92327">
        <ele>989</ele>
        <time>2018-11-13T09:00:14.000Z</time>
      </trkpt>
      <trkpt lat="42.15283" lon="1.9233">
        <ele>988.04901677814</ele>
        <time>2018-11-13T09:00:17.000Z</time>
      </trkpt>
      <trkpt lat="42.15281" lon="1.92332">
        <ele>987</ele>
        <time>2018-11-13T09:00:19.000Z</time>
      </trkpt>
      <trkpt lat="42.15278" lon="1.92333">
        <ele>987</ele>
        <time>2018-11-13T09:00:21.000Z</time>
      </trkpt>
      <trkpt lat="42.15275" lon="1.92332">
        <ele>986</ele>
        <time>2018-11-13T09:00:23.000Z</time>
      </trkpt>
      <trkpt lat="42.15273" lon="1.92331">
        <ele>986</ele>
        <time>2018-11-13T09:00:25.000Z</time>
      </trkpt>
      <trkpt lat="42.1527" lon="1.92332">
        <ele>985.03061531027</ele>
        <time>2018-11-13T09:00:27.000Z</time>
      </trkpt>
      <trkpt lat="42.15268" lon="1.92332">
        <ele>985</ele>
        <time>2018-11-13T09:00:28.000Z</time>
      </trkpt>
      <trkpt lat="42.15266" lon="1.92333">
        <ele>985</ele>
        <time>2018-11-13T09:00:29.000Z</time>
      </trkpt>
      <trkpt lat="42.15263" lon="1.92332">
        <ele>985</ele>
        <time>2018-11-13T09:00:31.000Z</time>
      </trkpt>
      <trkpt lat="42.15261" lon="1.92332">
        <ele>985</ele>
        <time>2018-11-13T09:00:32.000Z</time>
      </trkpt>
      <trkpt lat="42.15259" lon="1.92332">
        <ele>985</ele>
        <time>2018-11-13T09:00:33.000Z</time>
      </trkpt>
      <trkpt lat="42.15256" lon="1.9233">
        <ele>984</ele>
        <time>2018-11-13T09:00:35.000Z</time>
      </trkpt>
      <trkpt lat="42.15253" lon="1.9233">
        <ele>983.03158220941</ele>
        <time>2018-11-13T09:00:37.000Z</time>
      </trkpt>
      <trkpt lat="42.1525" lon="1.9233">
        <ele>982</ele>
        <time>2018-11-13T09:00:39.000Z</time>
      </trkpt>
      <trkpt lat="42.15251" lon="1.92333">
        <ele>981</ele>
        <time>2018-11-13T09:00:42.000Z</time>
      </trkpt>
      <trkpt lat="42.15252" lon="1.92335">
        <ele>981</ele>
        <time>2018-11-13T09:00:44.000Z</time>
      </trkpt>
      <trkpt lat="42.15254" lon="1.92338">
        <ele>980</ele>
        <time>2018-11-13T09:00:46.000Z</time>
      </trkpt>
      <trkpt lat="42.15254" lon="1.92342">
        <ele>979.03158220941</ele>
        <time>2018-11-13T09:00:48.000Z</time>
      </trkpt>
      <trkpt lat="42.15251" lon="1.92345">
        <ele>979</ele>
        <time>2018-11-13T09:00:50.000Z</time>
      </trkpt>
      <trkpt lat="42.1525" lon="1.92345">
        <ele>978.03125333333</ele>
        <time>2018-11-13T09:00:51.000Z</time>
      </trkpt>
      <trkpt lat="42.15247" lon="1.92346">
        <ele>978</ele>
        <time>2018-11-13T09:00:53.000Z</time>
      </trkpt>
      <trkpt lat="42.15244" lon="1.92349">
        <ele>977.06731076923</ele>
        <time>2018-11-13T09:00:55.000Z</time>
      </trkpt>
      <trkpt lat="42.15242" lon="1.9235">
        <ele>976.03125333333</ele>
        <time>2018-11-13T09:00:56.000Z</time>
      </trkpt>
      <trkpt lat="42.15241" lon="1.92352">
        <ele>976</ele>
        <time>2018-11-13T09:00:58.000Z</time>
      </trkpt>
      <trkpt lat="42.15242" lon="1.92354">
        <ele>976</ele>
        <time>2018-11-13T09:01:00.000Z</time>
      </trkpt>
      <trkpt lat="42.15244" lon="1.92357">
        <ele>976</ele>
        <time>2018-11-13T09:01:02.000Z</time>
      </trkpt>
      <trkpt lat="42.15243" lon="1.9236">
        <ele>975</ele>
        <time>2018-11-13T09:01:04.000Z</time>
      </trkpt>
      <trkpt lat="42.1524" lon="1.92363">
        <ele>974.0300032</ele>
        <time>2018-11-13T09:01:06.000Z</time>
      </trkpt>
      <trkpt lat="42.15237" lon="1.92365">
        <ele>973.0309308279</ele>
        <time>2018-11-13T09:01:08.000Z</time>
      </trkpt>
      <trkpt lat="42.15235" lon="1.92367">
        <ele>973</ele>
        <time>2018-11-13T09:01:10.000Z</time>
      </trkpt>
      <trkpt lat="42.15232" lon="1.92369">
        <ele>972</ele>
        <time>2018-11-13T09:01:12.000Z</time>
      </trkpt>
      <trkpt lat="42.1523" lon="1.9237">
        <ele>971.25954623622</ele>
        <time>2018-11-13T09:01:13.000Z</time>
      </trkpt>
      <trkpt lat="42.15228" lon="1.92373">
        <ele>971</ele>
        <time>2018-11-13T09:01:14.000Z</time>
      </trkpt>
      <trkpt lat="42.15226" lon="1.92375">
        <ele>971</ele>
        <time>2018-11-13T09:01:15.000Z</time>
      </trkpt>
      <trkpt lat="42.15225" lon="1.92377">
        <ele>970.03333665183</ele>
        <time>2018-11-13T09:01:16.000Z</time>
      </trkpt>
      <trkpt lat="42.15223" lon="1.92381">
        <ele>969</ele>
        <time>2018-11-13T09:01:18.000Z</time>
      </trkpt>
      <trkpt lat="42.15223" lon="1.92384">
        <ele>969</ele>
        <time>2018-11-13T09:01:20.000Z</time>
      </trkpt>
      <trkpt lat="42.15224" lon="1.92386">
        <ele>969</ele>
        <time>2018-11-13T09:01:23.000Z</time>
      </trkpt>
      <trkpt lat="42.15222" lon="1.92389">
        <ele>969</ele>
        <time>2018-11-13T09:01:25.000Z</time>
      </trkpt>
      <trkpt lat="42.1522" lon="1.9239">
        <ele>968.0300032</ele>
        <time>2018-11-13T09:01:26.000Z</time>
      </trkpt>
      <trkpt lat="42.15218" lon="1.92391">
        <ele>967.10185481482</ele>
        <time>2018-11-13T09:01:27.000Z</time>
      </trkpt>
      <trkpt lat="42.15216" lon="1.92392">
        <ele>967</ele>
        <time>2018-11-13T09:01:28.000Z</time>
      </trkpt>
      <trkpt lat="42.15214" lon="1.92392">
        <ele>967</ele>
        <time>2018-11-13T09:01:29.000Z</time>
      </trkpt>
      <trkpt lat="42.15212" lon="1.92393">
        <ele>967</ele>
        <time>2018-11-13T09:01:30.000Z</time>
      </trkpt>
      <trkpt lat="42.15209" lon="1.92393">
        <ele>967</ele>
        <time>2018-11-13T09:01:32.000Z</time>
      </trkpt>
      <trkpt lat="42.15209" lon="1.92396">
        <ele>965.03226161638</ele>
        <time>2018-11-13T09:01:34.000Z</time>
      </trkpt>
      <trkpt lat="42.1521" lon="1.92399">
        <ele>965</ele>
        <time>2018-11-13T09:01:36.000Z</time>
      </trkpt>
      <trkpt lat="42.15211" lon="1.92403">
        <ele>965</ele>
        <time>2018-11-13T09:01:38.000Z</time>
      </trkpt>
      <trkpt lat="42.15209" lon="1.92406">
        <ele>964</ele>
        <time>2018-11-13T09:01:40.000Z</time>
      </trkpt>
      <trkpt lat="42.15206" lon="1.92408">
        <ele>963.09345280107</ele>
        <time>2018-11-13T09:01:42.000Z</time>
      </trkpt>
      <trkpt lat="42.15204" lon="1.92411">
        <ele>962</ele>
        <time>2018-11-13T09:01:44.000Z</time>
      </trkpt>
      <trkpt lat="42.15204" lon="1.92414">
        <ele>961.04762388509</ele>
        <time>2018-11-13T09:01:46.000Z</time>
      </trkpt>
      <trkpt lat="42.15201" lon="1.92417">
        <ele>960.13393142857</ele>
        <time>2018-11-13T09:01:48.000Z</time>
      </trkpt>
      <trkpt lat="42.152" lon="1.92419">
        <ele>960</ele>
        <time>2018-11-13T09:01:49.000Z</time>
      </trkpt>
      <trkpt lat="42.15198" lon="1.9242">
        <ele>959.04286132241</ele>
        <time>2018-11-13T09:01:50.000Z</time>
      </trkpt>
      <trkpt lat="42.15197" lon="1.92422">
        <ele>959</ele>
        <time>2018-11-13T09:01:51.000Z</time>
      </trkpt>
      <trkpt lat="42.15195" lon="1.92424">
        <ele>958.08490315413</ele>
        <time>2018-11-13T09:01:52.000Z</time>
      </trkpt>
      <trkpt lat="42.15192" lon="1.92426">
        <ele>957</ele>
        <time>2018-11-13T09:01:54.000Z</time>
      </trkpt>
      <trkpt lat="42.15191" lon="1.92428">
        <ele>957</ele>
        <time>2018-11-13T09:01:55.000Z</time>
      </trkpt>
      <trkpt lat="42.15188" lon="1.9243">
        <ele>956.0300032</ele>
        <time>2018-11-13T09:01:57.000Z</time>
      </trkpt>
      <trkpt lat="42.15186" lon="1.92432">
        <ele>955.0300032</ele>
        <time>2018-11-13T09:01:58.000Z</time>
      </trkpt>
      <trkpt lat="42.15184" lon="1.92433">
        <ele>955</ele>
        <time>2018-11-13T09:01:59.000Z</time>
      </trkpt>
      <trkpt lat="42.15182" lon="1.92435">
        <ele>955</ele>
        <time>2018-11-13T09:02:00.000Z</time>
      </trkpt>
      <trkpt lat="42.15179" lon="1.92437">
        <ele>954</ele>
        <time>2018-11-13T09:02:02.000Z</time>
      </trkpt>
      <trkpt lat="42.15176" lon="1.92439">
        <ele>953.06731076923</ele>
        <time>2018-11-13T09:02:04.000Z</time>
      </trkpt>
      <trkpt lat="42.15175" lon="1.92441">
        <ele>952.03125333333</ele>
        <time>2018-11-13T09:02:05.000Z</time>
      </trkpt>
      <trkpt lat="42.15173" lon="1.92442">
        <ele>952</ele>
        <time>2018-11-13T09:02:06.000Z</time>
      </trkpt>
      <trkpt lat="42.15171" lon="1.92444">
        <ele>951</ele>
        <time>2018-11-13T09:02:10.000Z</time>
      </trkpt>
      <trkpt lat="42.15169" lon="1.92446">
        <ele>949</ele>
        <time>2018-11-13T09:02:12.000Z</time>
      </trkpt>
      <trkpt lat="42.15166" lon="1.92448">
        <ele>949</ele>
        <time>2018-11-13T09:02:14.000Z</time>
      </trkpt>
      <trkpt lat="42.15163" lon="1.92449">
        <ele>949</ele>
        <time>2018-11-13T09:02:15.000Z</time>
      </trkpt>
      <trkpt lat="42.15161" lon="1.92451">
        <ele>949</ele>
        <time>2018-11-13T09:02:16.000Z</time>
      </trkpt>
      <trkpt lat="42.1516" lon="1.92452">
        <ele>948.0300032</ele>
        <time>2018-11-13T09:02:17.000Z</time>
      </trkpt>
      <trkpt lat="42.15158" lon="1.92453">
        <ele>948</ele>
        <time>2018-11-13T09:02:18.000Z</time>
      </trkpt>
      <trkpt lat="42.15155" lon="1.92455">
        <ele>947.0300032</ele>
        <time>2018-11-13T09:02:20.000Z</time>
      </trkpt>
      <trkpt lat="42.15153" lon="1.92456">
        <ele>947</ele>
        <time>2018-11-13T09:02:22.000Z</time>
      </trkpt>
      <trkpt lat="42.15151" lon="1.92459">
        <ele>946</ele>
        <time>2018-11-13T09:02:24.000Z</time>
      </trkpt>
      <trkpt lat="42.1515" lon="1.92462">
        <ele>946</ele>
        <time>2018-11-13T09:02:26.000Z</time>
      </trkpt>
      <trkpt lat="42.15148" lon="1.92464">
        <ele>945</ele>
        <time>2018-11-13T09:02:28.000Z</time>
      </trkpt>
      <trkpt lat="42.15147" lon="1.92466">
        <ele>944.07619070839</ele>
        <time>2018-11-13T09:02:30.000Z</time>
      </trkpt>
      <trkpt lat="42.15148" lon="1.92469">
        <ele>943</ele>
        <time>2018-11-13T09:02:33.000Z</time>
      </trkpt>
      <trkpt lat="42.15149" lon="1.92472">
        <ele>943</ele>
        <time>2018-11-13T09:02:35.000Z</time>
      </trkpt>
      <trkpt lat="42.15151" lon="1.92475">
        <ele>942</ele>
        <time>2018-11-13T09:02:37.000Z</time>
      </trkpt>
      <trkpt lat="42.15149" lon="1.92478">
        <ele>942</ele>
        <time>2018-11-13T09:02:39.000Z</time>
      </trkpt>
      <trkpt lat="42.15146" lon="1.92481">
        <ele>940.0300032</ele>
        <time>2018-11-13T09:02:41.000Z</time>
      </trkpt>
      <trkpt lat="42.15145" lon="1.92482">
        <ele>940</ele>
        <time>2018-11-13T09:02:42.000Z</time>
      </trkpt>
      <trkpt lat="42.15143" lon="1.92483">
        <ele>940</ele>
        <time>2018-11-13T09:02:43.000Z</time>
      </trkpt>
      <trkpt lat="42.1514" lon="1.92484">
        <ele>939</ele>
        <time>2018-11-13T09:02:45.000Z</time>
      </trkpt>
      <trkpt lat="42.15138" lon="1.92485">
        <ele>939</ele>
        <time>2018-11-13T09:02:46.000Z</time>
      </trkpt>
      <trkpt lat="42.15136" lon="1.92486">
        <ele>939</ele>
        <time>2018-11-13T09:02:47.000Z</time>
      </trkpt>
      <trkpt lat="42.15133" lon="1.92487">
        <ele>939</ele>
        <time>2018-11-13T09:02:48.000Z</time>
      </trkpt>
      <trkpt lat="42.15131" lon="1.92487">
        <ele>939</ele>
        <time>2018-11-13T09:02:49.000Z</time>
      </trkpt>
      <trkpt lat="42.15129" lon="1.92487">
        <ele>939</ele>
        <time>2018-11-13T09:02:50.000Z</time>
      </trkpt>
      <trkpt lat="42.15126" lon="1.92488">
        <ele>938.07619070839</ele>
        <time>2018-11-13T09:02:51.000Z</time>
      </trkpt>
      <trkpt lat="42.15124" lon="1.92489">
        <ele>938</ele>
        <time>2018-11-13T09:02:52.000Z</time>
      </trkpt>
      <trkpt lat="42.15122" lon="1.9249">
        <ele>938</ele>
        <time>2018-11-13T09:02:53.000Z</time>
      </trkpt>
      <trkpt lat="42.1512" lon="1.92492">
        <ele>937.07619070839</ele>
        <time>2018-11-13T09:02:54.000Z</time>
      </trkpt>
      <trkpt lat="42.15118" lon="1.92493">
        <ele>937</ele>
        <time>2018-11-13T09:02:55.000Z</time>
      </trkpt>
      <trkpt lat="42.15116" lon="1.92495">
        <ele>936.0300032</ele>
        <time>2018-11-13T09:02:56.000Z</time>
      </trkpt>
      <trkpt lat="42.15114" lon="1.92497">
        <ele>935.0300032</ele>
        <time>2018-11-13T09:02:57.000Z</time>
      </trkpt>
      <trkpt lat="42.15112" lon="1.92498">
        <ele>935</ele>
        <time>2018-11-13T09:02:58.000Z</time>
      </trkpt>
      <trkpt lat="42.1511" lon="1.925">
        <ele>935</ele>
        <time>2018-11-13T09:02:59.000Z</time>
      </trkpt>
      <trkpt lat="42.15108" lon="1.92502">
        <ele>934.07619070839</ele>
        <time>2018-11-13T09:03:00.000Z</time>
      </trkpt>
      <trkpt lat="42.15106" lon="1.92504">
        <ele>933.03158220941</ele>
        <time>2018-11-13T09:03:01.000Z</time>
      </trkpt>
      <trkpt lat="42.15104" lon="1.92505">
        <ele>933</ele>
        <time>2018-11-13T09:03:02.000Z</time>
      </trkpt>
      <trkpt lat="42.15102" lon="1.92506">
        <ele>932.06731076923</ele>
        <time>2018-11-13T09:03:03.000Z</time>
      </trkpt>
      <trkpt lat="42.151" lon="1.92507">
        <ele>931.03125333333</ele>
        <time>2018-11-13T09:03:04.000Z</time>
      </trkpt>
      <trkpt lat="42.15098" lon="1.92508">
        <ele>931</ele>
        <time>2018-11-13T09:03:05.000Z</time>
      </trkpt>
      <trkpt lat="42.15096" lon="1.92508">
        <ele>930.04286132241</ele>
        <time>2018-11-13T09:03:06.000Z</time>
      </trkpt>
      <trkpt lat="42.15093" lon="1.92507">
        <ele>930</ele>
        <time>2018-11-13T09:03:08.000Z</time>
      </trkpt>
      <trkpt lat="42.1509" lon="1.92505">
        <ele>929.03061531027</ele>
        <time>2018-11-13T09:03:10.000Z</time>
      </trkpt>
      <trkpt lat="42.15088" lon="1.92504">
        <ele>929.95098322186</ele>
        <time>2018-11-13T09:03:12.000Z</time>
      </trkpt>
      <trkpt lat="42.15086" lon="1.92503">
        <ele>930</ele>
        <time>2018-11-13T09:03:14.000Z</time>
      </trkpt>
      <trkpt lat="42.15083" lon="1.92501">
        <ele>930</ele>
        <time>2018-11-13T09:03:16.000Z</time>
      </trkpt>
      <trkpt lat="42.15081" lon="1.92498">
        <ele>930</ele>
        <time>2018-11-13T09:03:18.000Z</time>
      </trkpt>
      <trkpt lat="42.15079" lon="1.92495">
        <ele>930</ele>
        <time>2018-11-13T09:03:20.000Z</time>
      </trkpt>
      <trkpt lat="42.15077" lon="1.92492">
        <ele>930</ele>
        <time>2018-11-13T09:03:22.000Z</time>
      </trkpt>
      <trkpt lat="42.15074" lon="1.92489">
        <ele>930</ele>
        <time>2018-11-13T09:03:24.000Z</time>
      </trkpt>
      <trkpt lat="42.15072" lon="1.92485">
        <ele>930</ele>
        <time>2018-11-13T09:03:26.000Z</time>
      </trkpt>
      <trkpt lat="42.15071" lon="1.92483">
        <ele>929.06731076923</ele>
        <time>2018-11-13T09:03:27.000Z</time>
      </trkpt>
      <trkpt lat="42.15069" lon="1.92481">
        <ele>929</ele>
        <time>2018-11-13T09:03:28.000Z</time>
      </trkpt>
      <trkpt lat="42.15067" lon="1.92478">
        <ele>929</ele>
        <time>2018-11-13T09:03:29.000Z</time>
      </trkpt>
      <trkpt lat="42.15066" lon="1.92475">
        <ele>929</ele>
        <time>2018-11-13T09:03:30.000Z</time>
      </trkpt>
      <trkpt lat="42.15065" lon="1.92472">
        <ele>928.03125333333</ele>
        <time>2018-11-13T09:03:31.000Z</time>
      </trkpt>
      <trkpt lat="42.15063" lon="1.92469">
        <ele>928</ele>
        <time>2018-11-13T09:03:32.000Z</time>
      </trkpt>
      <trkpt lat="42.15062" lon="1.92466">
        <ele>928</ele>
        <time>2018-11-13T09:03:33.000Z</time>
      </trkpt>
      <trkpt lat="42.15061" lon="1.92462">
        <ele>928</ele>
        <time>2018-11-13T09:03:34.000Z</time>
      </trkpt>
      <trkpt lat="42.1506" lon="1.92459">
        <ele>928</ele>
        <time>2018-11-13T09:03:35.000Z</time>
      </trkpt>
      <trkpt lat="42.1506" lon="1.92455">
        <ele>927.05825845978</ele>
        <time>2018-11-13T09:03:36.000Z</time>
      </trkpt>
      <trkpt lat="42.15059" lon="1.92451">
        <ele>927</ele>
        <time>2018-11-13T09:03:37.000Z</time>
      </trkpt>
      <trkpt lat="42.15059" lon="1.92446">
        <ele>927</ele>
        <time>2018-11-13T09:03:38.000Z</time>
      </trkpt>
      <trkpt lat="42.15058" lon="1.92442">
        <ele>927</ele>
        <time>2018-11-13T09:03:39.000Z</time>
      </trkpt>
      <trkpt lat="42.15058" lon="1.92438">
        <ele>926.08490315413</ele>
        <time>2018-11-13T09:03:40.000Z</time>
      </trkpt>
      <trkpt lat="42.15058" lon="1.92435">
        <ele>926</ele>
        <time>2018-11-13T09:03:41.000Z</time>
      </trkpt>
      <trkpt lat="42.15057" lon="1.92431">
        <ele>926</ele>
        <time>2018-11-13T09:03:42.000Z</time>
      </trkpt>
      <trkpt lat="42.15057" lon="1.92427">
        <ele>925.28676705882</ele>
        <time>2018-11-13T09:03:43.000Z</time>
      </trkpt>
      <trkpt lat="42.15056" lon="1.92423">
        <ele>924.08956136329</ele>
        <time>2018-11-13T09:03:44.000Z</time>
      </trkpt>
      <trkpt lat="42.15056" lon="1.92419">
        <ele>924</ele>
        <time>2018-11-13T09:03:45.000Z</time>
      </trkpt>
      <trkpt lat="42.15056" lon="1.92415">
        <ele>923.11009206633</ele>
        <time>2018-11-13T09:03:46.000Z</time>
      </trkpt>
      <trkpt lat="42.15056" lon="1.92411">
        <ele>922.03297043351</ele>
        <time>2018-11-13T09:03:47.000Z</time>
      </trkpt>
      <trkpt lat="42.15057" lon="1.92408">
        <ele>922</ele>
        <time>2018-11-13T09:03:48.000Z</time>
      </trkpt>
      <trkpt lat="42.15057" lon="1.92405">
        <ele>922</ele>
        <time>2018-11-13T09:03:49.000Z</time>
      </trkpt>
      <trkpt lat="42.15058" lon="1.92402">
        <ele>922</ele>
        <time>2018-11-13T09:03:50.000Z</time>
      </trkpt>
      <trkpt lat="42.15059" lon="1.924">
        <ele>922</ele>
        <time>2018-11-13T09:03:51.000Z</time>
      </trkpt>
      <trkpt lat="42.15061" lon="1.92397">
        <ele>922.96702956649</ele>
        <time>2018-11-13T09:03:53.000Z</time>
      </trkpt>
      <trkpt lat="42.15062" lon="1.92393">
        <ele>922</ele>
        <time>2018-11-13T09:03:57.000Z</time>
      </trkpt>
      <trkpt lat="42.15063" lon="1.92389">
        <ele>922</ele>
        <time>2018-11-13T09:03:59.000Z</time>
      </trkpt>
      <trkpt lat="42.15064" lon="1.92386">
        <ele>923</ele>
        <time>2018-11-13T09:04:01.000Z</time>
      </trkpt>
      <trkpt lat="42.15065" lon="1.92382">
        <ele>923</ele>
        <time>2018-11-13T09:04:03.000Z</time>
      </trkpt>
      <trkpt lat="42.15066" lon="1.92379">
        <ele>923</ele>
        <time>2018-11-13T09:04:05.000Z</time>
      </trkpt>
      <trkpt lat="42.15067" lon="1.92376">
        <ele>923</ele>
        <time>2018-11-13T09:04:07.000Z</time>
      </trkpt>
      <trkpt lat="42.15068" lon="1.92373">
        <ele>923</ele>
        <time>2018-11-13T09:04:09.000Z</time>
      </trkpt>
      <trkpt lat="42.15069" lon="1.9237">
        <ele>923</ele>
        <time>2018-11-13T09:04:11.000Z</time>
      </trkpt>
      <trkpt lat="42.1507" lon="1.92366">
        <ele>923</ele>
        <time>2018-11-13T09:04:13.000Z</time>
      </trkpt>
      <trkpt lat="42.15071" lon="1.92363">
        <ele>923</ele>
        <time>2018-11-13T09:04:15.000Z</time>
      </trkpt>
      <trkpt lat="42.15073" lon="1.9236">
        <ele>924</ele>
        <time>2018-11-13T09:04:17.000Z</time>
      </trkpt>
      <trkpt lat="42.15074" lon="1.92357">
        <ele>925</ele>
        <time>2018-11-13T09:04:19.000Z</time>
      </trkpt>
      <trkpt lat="42.15075" lon="1.92354">
        <ele>925</ele>
        <time>2018-11-13T09:04:21.000Z</time>
      </trkpt>
      <trkpt lat="42.15077" lon="1.92351">
        <ele>925</ele>
        <time>2018-11-13T09:04:23.000Z</time>
      </trkpt>
      <trkpt lat="42.15079" lon="1.92348">
        <ele>925</ele>
        <time>2018-11-13T09:04:25.000Z</time>
      </trkpt>
      <trkpt lat="42.15081" lon="1.92345">
        <ele>925.92380929161</ele>
        <time>2018-11-13T09:04:27.000Z</time>
      </trkpt>
      <trkpt lat="42.15082" lon="1.92342">
        <ele>926</ele>
        <time>2018-11-13T09:04:29.000Z</time>
      </trkpt>
      <trkpt lat="42.15084" lon="1.92338">
        <ele>926</ele>
        <time>2018-11-13T09:04:31.000Z</time>
      </trkpt>
      <trkpt lat="42.15085" lon="1.92336">
        <ele>926</ele>
        <time>2018-11-13T09:04:32.000Z</time>
      </trkpt>
      <trkpt lat="42.15087" lon="1.92332">
        <ele>926</ele>
        <time>2018-11-13T09:04:34.000Z</time>
      </trkpt>
      <trkpt lat="42.15088" lon="1.92329">
        <ele>926</ele>
        <time>2018-11-13T09:04:36.000Z</time>
      </trkpt>
      <trkpt lat="42.15089" lon="1.92326">
        <ele>927</ele>
        <time>2018-11-13T09:04:40.000Z</time>
      </trkpt>
      <trkpt lat="42.15089" lon="1.92322">
        <ele>928</ele>
        <time>2018-11-13T09:04:42.000Z</time>
      </trkpt>
      <trkpt lat="42.15089" lon="1.92318">
        <ele>928</ele>
        <time>2018-11-13T09:04:44.000Z</time>
      </trkpt>
      <trkpt lat="42.1509" lon="1.92314">
        <ele>928</ele>
        <time>2018-11-13T09:04:46.000Z</time>
      </trkpt>
      <trkpt lat="42.1509" lon="1.9231">
        <ele>928</ele>
        <time>2018-11-13T09:04:48.000Z</time>
      </trkpt>
      <trkpt lat="42.15089" lon="1.92306">
        <ele>928</ele>
        <time>2018-11-13T09:04:50.000Z</time>
      </trkpt>
      <trkpt lat="42.15089" lon="1.92302">
        <ele>928</ele>
        <time>2018-11-13T09:04:52.000Z</time>
      </trkpt>
      <trkpt lat="42.15089" lon="1.92298">
        <ele>928</ele>
        <time>2018-11-13T09:04:54.000Z</time>
      </trkpt>
      <trkpt lat="42.15089" lon="1.92295">
        <ele>928</ele>
        <time>2018-11-13T09:04:56.000Z</time>
      </trkpt>
      <trkpt lat="42.15088" lon="1.92291">
        <ele>929</ele>
        <time>2018-11-13T09:04:58.000Z</time>
      </trkpt>
      <trkpt lat="42.15087" lon="1.92287">
        <ele>929</ele>
        <time>2018-11-13T09:05:00.000Z</time>
      </trkpt>
      <trkpt lat="42.15087" lon="1.92283">
        <ele>929</ele>
        <time>2018-11-13T09:05:02.000Z</time>
      </trkpt>
      <trkpt lat="42.15087" lon="1.92279">
        <ele>930</ele>
        <time>2018-11-13T09:05:04.000Z</time>
      </trkpt>
      <trkpt lat="42.15087" lon="1.92275">
        <ele>930</ele>
        <time>2018-11-13T09:05:06.000Z</time>
      </trkpt>
      <trkpt lat="42.15087" lon="1.92271">
        <ele>930</ele>
        <time>2018-11-13T09:05:08.000Z</time>
      </trkpt>
      <trkpt lat="42.15087" lon="1.92268">
        <ele>930</ele>
        <time>2018-11-13T09:05:10.000Z</time>
      </trkpt>
      <trkpt lat="42.15088" lon="1.92265">
        <ele>930.9699968</ele>
        <time>2018-11-13T09:05:12.000Z</time>
      </trkpt>
      <trkpt lat="42.15087" lon="1.92261">
        <ele>931</ele>
        <time>2018-11-13T09:05:14.000Z</time>
      </trkpt>
      <trkpt lat="42.15087" lon="1.92257">
        <ele>931</ele>
        <time>2018-11-13T09:05:16.000Z</time>
      </trkpt>
      <trkpt lat="42.15087" lon="1.92253">
        <ele>931</ele>
        <time>2018-11-13T09:05:18.000Z</time>
      </trkpt>
      <trkpt lat="42.15086" lon="1.92249">
        <ele>932</ele>
        <time>2018-11-13T09:05:20.000Z</time>
      </trkpt>
      <trkpt lat="42.15085" lon="1.92245">
        <ele>932</ele>
        <time>2018-11-13T09:05:22.000Z</time>
      </trkpt>
      <trkpt lat="42.15085" lon="1.92242">
        <ele>932.90654719893</ele>
        <time>2018-11-13T09:05:24.000Z</time>
      </trkpt>
      <trkpt lat="42.15083" lon="1.92238">
        <ele>933</ele>
        <time>2018-11-13T09:05:26.000Z</time>
      </trkpt>
      <trkpt lat="42.15082" lon="1.92235">
        <ele>933</ele>
        <time>2018-11-13T09:05:28.000Z</time>
      </trkpt>
      <trkpt lat="42.15081" lon="1.92233">
        <ele>933</ele>
        <time>2018-11-13T09:05:30.000Z</time>
      </trkpt>
      <trkpt lat="42.15079" lon="1.9223">
        <ele>933</ele>
        <time>2018-11-13T09:05:32.000Z</time>
      </trkpt>
      <trkpt lat="42.15078" lon="1.92227">
        <ele>933</ele>
        <time>2018-11-13T09:05:34.000Z</time>
      </trkpt>
      <trkpt lat="42.15076" lon="1.92225">
        <ele>934</ele>
        <time>2018-11-13T09:05:36.000Z</time>
      </trkpt>
      <trkpt lat="42.15074" lon="1.92224">
        <ele>934</ele>
        <time>2018-11-13T09:05:38.000Z</time>
      </trkpt>
      <trkpt lat="42.15072" lon="1.92222">
        <ele>934</ele>
        <time>2018-11-13T09:05:40.000Z</time>
      </trkpt>
      <trkpt lat="42.1507" lon="1.9222">
        <ele>933</ele>
        <time>2018-11-13T09:05:42.000Z</time>
      </trkpt>
      <trkpt lat="42.15068" lon="1.92219">
        <ele>933</ele>
        <time>2018-11-13T09:05:44.000Z</time>
      </trkpt>
      <trkpt lat="42.15066" lon="1.92217">
        <ele>933</ele>
        <time>2018-11-13T09:05:46.000Z</time>
      </trkpt>
      <trkpt lat="42.15064" lon="1.92214">
        <ele>933</ele>
        <time>2018-11-13T09:05:48.000Z</time>
      </trkpt>
      <trkpt lat="42.15061" lon="1.92212">
        <ele>933</ele>
        <time>2018-11-13T09:05:50.000Z</time>
      </trkpt>
      <trkpt lat="42.15059" lon="1.92209">
        <ele>934</ele>
        <time>2018-11-13T09:05:52.000Z</time>
      </trkpt>
      <trkpt lat="42.15056" lon="1.92206">
        <ele>934</ele>
        <time>2018-11-13T09:05:54.000Z</time>
      </trkpt>
      <trkpt lat="42.15054" lon="1.92204">
        <ele>933</ele>
        <time>2018-11-13T09:05:56.000Z</time>
      </trkpt>
      <trkpt lat="42.15052" lon="1.92202">
        <ele>933</ele>
        <time>2018-11-13T09:05:58.000Z</time>
      </trkpt>
      <trkpt lat="42.1505" lon="1.92199">
        <ele>933</ele>
        <time>2018-11-13T09:06:00.000Z</time>
      </trkpt>
      <trkpt lat="42.15048" lon="1.92196">
        <ele>933</ele>
        <time>2018-11-13T09:06:02.000Z</time>
      </trkpt>
      <trkpt lat="42.15046" lon="1.92193">
        <ele>933</ele>
        <time>2018-11-13T09:06:04.000Z</time>
      </trkpt>
      <trkpt lat="42.15044" lon="1.92189">
        <ele>933</ele>
        <time>2018-11-13T09:06:06.000Z</time>
      </trkpt>
      <trkpt lat="42.15043" lon="1.92186">
        <ele>933</ele>
        <time>2018-11-13T09:06:08.000Z</time>
      </trkpt>
      <trkpt lat="42.15041" lon="1.92182">
        <ele>934</ele>
        <time>2018-11-13T09:06:10.000Z</time>
      </trkpt>
      <trkpt lat="42.15039" lon="1.92179">
        <ele>934</ele>
        <time>2018-11-13T09:06:12.000Z</time>
      </trkpt>
      <trkpt lat="42.15037" lon="1.92175">
        <ele>934</ele>
        <time>2018-11-13T09:06:14.000Z</time>
      </trkpt>
      <trkpt lat="42.15036" lon="1.92171">
        <ele>934</ele>
        <time>2018-11-13T09:06:16.000Z</time>
      </trkpt>
      <trkpt lat="42.15036" lon="1.92167">
        <ele>934.90654719893</ele>
        <time>2018-11-13T09:06:18.000Z</time>
      </trkpt>
      <trkpt lat="42.15036" lon="1.92162">
        <ele>935</ele>
        <time>2018-11-13T09:06:20.000Z</time>
      </trkpt>
      <trkpt lat="42.15036" lon="1.92159">
        <ele>935</ele>
        <time>2018-11-13T09:06:22.000Z</time>
      </trkpt>
      <trkpt lat="42.15036" lon="1.92156">
        <ele>935</ele>
        <time>2018-11-13T09:06:24.000Z</time>
      </trkpt>
      <trkpt lat="42.15037" lon="1.92154">
        <ele>936</ele>
        <time>2018-11-13T09:06:26.000Z</time>
      </trkpt>
      <trkpt lat="42.15039" lon="1.92153">
        <ele>936</ele>
        <time>2018-11-13T09:06:29.000Z</time>
      </trkpt>
      <trkpt lat="42.15041" lon="1.92151">
        <ele>937</ele>
        <time>2018-11-13T09:06:32.000Z</time>
      </trkpt>
      <trkpt lat="42.15042" lon="1.92148">
        <ele>938</ele>
        <time>2018-11-13T09:06:36.000Z</time>
      </trkpt>
      <trkpt lat="42.15043" lon="1.92145">
        <ele>939</ele>
        <time>2018-11-13T09:06:38.000Z</time>
      </trkpt>
      <trkpt lat="42.15044" lon="1.92143">
        <ele>939</ele>
        <time>2018-11-13T09:06:40.000Z</time>
      </trkpt>
      <trkpt lat="42.15045" lon="1.9214">
        <ele>939</ele>
        <time>2018-11-13T09:06:42.000Z</time>
      </trkpt>
      <trkpt lat="42.15045" lon="1.92137">
        <ele>939</ele>
        <time>2018-11-13T09:06:44.000Z</time>
      </trkpt>
      <trkpt lat="42.15046" lon="1.92133">
        <ele>939.89814518518</ele>
        <time>2018-11-13T09:06:46.000Z</time>
      </trkpt>
      <trkpt lat="42.15047" lon="1.9213">
        <ele>939.0300032</ele>
        <time>2018-11-13T09:06:48.000Z</time>
      </trkpt>
      <trkpt lat="42.15047" lon="1.92127">
        <ele>939</ele>
        <time>2018-11-13T09:06:50.000Z</time>
      </trkpt>
      <trkpt lat="42.15048" lon="1.92124">
        <ele>939</ele>
        <time>2018-11-13T09:06:52.000Z</time>
      </trkpt>
      <trkpt lat="42.15048" lon="1.92119">
        <ele>939</ele>
        <time>2018-11-13T09:06:54.000Z</time>
      </trkpt>
      <trkpt lat="42.15049" lon="1.92115">
        <ele>939.93268923077</ele>
        <time>2018-11-13T09:06:56.000Z</time>
      </trkpt>
      <trkpt lat="42.1505" lon="1.92112">
        <ele>940</ele>
        <time>2018-11-13T09:06:58.000Z</time>
      </trkpt>
      <trkpt lat="42.15049" lon="1.92109">
        <ele>940</ele>
        <time>2018-11-13T09:07:00.000Z</time>
      </trkpt>
      <trkpt lat="42.15049" lon="1.92105">
        <ele>940</ele>
        <time>2018-11-13T09:07:02.000Z</time>
      </trkpt>
      <trkpt lat="42.1505" lon="1.92101">
        <ele>940.9699968</ele>
        <time>2018-11-13T09:07:04.000Z</time>
      </trkpt>
      <trkpt lat="42.1505" lon="1.92097">
        <ele>941</ele>
        <time>2018-11-13T09:07:06.000Z</time>
      </trkpt>
      <trkpt lat="42.1505" lon="1.92094">
        <ele>941</ele>
        <time>2018-11-13T09:07:08.000Z</time>
      </trkpt>
      <trkpt lat="42.1505" lon="1.92092">
        <ele>941</ele>
        <time>2018-11-13T09:07:09.000Z</time>
      </trkpt>
      <trkpt lat="42.15051" lon="1.92088">
        <ele>941</ele>
        <time>2018-11-13T09:07:11.000Z</time>
      </trkpt>
      <trkpt lat="42.15052" lon="1.92084">
        <ele>942</ele>
        <time>2018-11-13T09:07:13.000Z</time>
      </trkpt>
      <trkpt lat="42.15053" lon="1.9208">
        <ele>942</ele>
        <time>2018-11-13T09:07:15.000Z</time>
      </trkpt>
      <trkpt lat="42.15053" lon="1.92076">
        <ele>942.0300032</ele>
        <time>2018-11-13T09:07:17.000Z</time>
      </trkpt>
      <trkpt lat="42.15053" lon="1.92071">
        <ele>942</ele>
        <time>2018-11-13T09:07:19.000Z</time>
      </trkpt>
      <trkpt lat="42.15053" lon="1.92068">
        <ele>942</ele>
        <time>2018-11-13T09:07:21.000Z</time>
      </trkpt>
      <trkpt lat="42.15053" lon="1.92064">
        <ele>942</ele>
        <time>2018-11-13T09:07:23.000Z</time>
      </trkpt>
      <trkpt lat="42.15053" lon="1.9206">
        <ele>942.96808191944</ele>
        <time>2018-11-13T09:07:25.000Z</time>
      </trkpt>
      <trkpt lat="42.15053" lon="1.92057">
        <ele>943</ele>
        <time>2018-11-13T09:07:27.000Z</time>
      </trkpt>
      <trkpt lat="42.15053" lon="1.92053">
        <ele>943</ele>
        <time>2018-11-13T09:07:29.000Z</time>
      </trkpt>
      <trkpt lat="42.15052" lon="1.92049">
        <ele>943</ele>
        <time>2018-11-13T09:07:31.000Z</time>
      </trkpt>
      <trkpt lat="42.15051" lon="1.92045">
        <ele>943</ele>
        <time>2018-11-13T09:07:33.000Z</time>
      </trkpt>
      <trkpt lat="42.15051" lon="1.92042">
        <ele>944</ele>
        <time>2018-11-13T09:07:35.000Z</time>
      </trkpt>
      <trkpt lat="42.1505" lon="1.92039">
        <ele>944</ele>
        <time>2018-11-13T09:07:37.000Z</time>
      </trkpt>
      <trkpt lat="42.15049" lon="1.92036">
        <ele>945</ele>
        <time>2018-11-13T09:07:39.000Z</time>
      </trkpt>
      <trkpt lat="42.15048" lon="1.92032">
        <ele>945</ele>
        <time>2018-11-13T09:07:41.000Z</time>
      </trkpt>
      <trkpt lat="42.15047" lon="1.92028">
        <ele>945</ele>
        <time>2018-11-13T09:07:43.000Z</time>
      </trkpt>
      <trkpt lat="42.15047" lon="1.92024">
        <ele>945</ele>
        <time>2018-11-13T09:07:45.000Z</time>
      </trkpt>
      <trkpt lat="42.15048" lon="1.9202">
        <ele>945</ele>
        <time>2018-11-13T09:07:47.000Z</time>
      </trkpt>
      <trkpt lat="42.15048" lon="1.92017">
        <ele>945</ele>
        <time>2018-11-13T09:07:49.000Z</time>
      </trkpt>
      <trkpt lat="42.15049" lon="1.92014">
        <ele>945</ele>
        <time>2018-11-13T09:07:51.000Z</time>
      </trkpt>
      <trkpt lat="42.1505" lon="1.92011">
        <ele>945</ele>
        <time>2018-11-13T09:07:53.000Z</time>
      </trkpt>
      <trkpt lat="42.15051" lon="1.92009">
        <ele>945</ele>
        <time>2018-11-13T09:07:55.000Z</time>
      </trkpt>
      <trkpt lat="42.15052" lon="1.92005">
        <ele>945</ele>
        <time>2018-11-13T09:07:57.000Z</time>
      </trkpt>
      <trkpt lat="42.15052" lon="1.92002">
        <ele>945</ele>
        <time>2018-11-13T09:07:59.000Z</time>
      </trkpt>
      <trkpt lat="42.15053" lon="1.91999">
        <ele>945.9699968</ele>
        <time>2018-11-13T09:08:01.000Z</time>
      </trkpt>
      <trkpt lat="42.15055" lon="1.91995">
        <ele>946.96738782609</ele>
        <time>2018-11-13T09:08:03.000Z</time>
      </trkpt>
      <trkpt lat="42.15056" lon="1.91992">
        <ele>947</ele>
        <time>2018-11-13T09:08:05.000Z</time>
      </trkpt>
      <trkpt lat="42.15057" lon="1.91988">
        <ele>947</ele>
        <time>2018-11-13T09:08:07.000Z</time>
      </trkpt>
      <trkpt lat="42.15057" lon="1.91985">
        <ele>947</ele>
        <time>2018-11-13T09:08:09.000Z</time>
      </trkpt>
      <trkpt lat="42.15058" lon="1.91981">
        <ele>947</ele>
        <time>2018-11-13T09:08:11.000Z</time>
      </trkpt>
      <trkpt lat="42.15059" lon="1.91977">
        <ele>947.96841779059</ele>
        <time>2018-11-13T09:08:13.000Z</time>
      </trkpt>
      <trkpt lat="42.1506" lon="1.91973">
        <ele>948</ele>
        <time>2018-11-13T09:08:15.000Z</time>
      </trkpt>
      <trkpt lat="42.15061" lon="1.91969">
        <ele>949</ele>
        <time>2018-11-13T09:08:17.000Z</time>
      </trkpt>
      <trkpt lat="42.15061" lon="1.91966">
        <ele>949</ele>
        <time>2018-11-13T09:08:19.000Z</time>
      </trkpt>
      <trkpt lat="42.15061" lon="1.91962">
        <ele>949</ele>
        <time>2018-11-13T09:08:21.000Z</time>
      </trkpt>
      <trkpt lat="42.15062" lon="1.91959">
        <ele>949</ele>
        <time>2018-11-13T09:08:23.000Z</time>
      </trkpt>
      <trkpt lat="42.15062" lon="1.91956">
        <ele>950</ele>
        <time>2018-11-13T09:08:25.000Z</time>
      </trkpt>
      <trkpt lat="42.15061" lon="1.91952">
        <ele>949.0300032</ele>
        <time>2018-11-13T09:08:27.000Z</time>
      </trkpt>
      <trkpt lat="42.15061" lon="1.91949">
        <ele>949</ele>
        <time>2018-11-13T09:08:29.000Z</time>
      </trkpt>
      <trkpt lat="42.15061" lon="1.91945">
        <ele>949</ele>
        <time>2018-11-13T09:08:31.000Z</time>
      </trkpt>
      <trkpt lat="42.15061" lon="1.91941">
        <ele>949</ele>
        <time>2018-11-13T09:08:33.000Z</time>
      </trkpt>
      <trkpt lat="42.15061" lon="1.91937">
        <ele>949.96628841812</ele>
        <time>2018-11-13T09:08:35.000Z</time>
      </trkpt>
      <trkpt lat="42.1506" lon="1.91934">
        <ele>950</ele>
        <time>2018-11-13T09:08:37.000Z</time>
      </trkpt>
      <trkpt lat="42.15059" lon="1.9193">
        <ele>950</ele>
        <time>2018-11-13T09:08:39.000Z</time>
      </trkpt>
      <trkpt lat="42.15059" lon="1.91926">
        <ele>950</ele>
        <time>2018-11-13T09:08:41.000Z</time>
      </trkpt>
      <trkpt lat="42.15059" lon="1.91922">
        <ele>951</ele>
        <time>2018-11-13T09:08:43.000Z</time>
      </trkpt>
      <trkpt lat="42.1506" lon="1.91919">
        <ele>951</ele>
        <time>2018-11-13T09:08:45.000Z</time>
      </trkpt>
      <trkpt lat="42.1506" lon="1.91915">
        <ele>951</ele>
        <time>2018-11-13T09:08:47.000Z</time>
      </trkpt>
      <trkpt lat="42.15062" lon="1.91912">
        <ele>951</ele>
        <time>2018-11-13T09:08:49.000Z</time>
      </trkpt>
      <trkpt lat="42.15062" lon="1.91909">
        <ele>952</ele>
        <time>2018-11-13T09:08:51.000Z</time>
      </trkpt>
      <trkpt lat="42.15063" lon="1.91906">
        <ele>952</ele>
        <time>2018-11-13T09:08:53.000Z</time>
      </trkpt>
      <trkpt lat="42.15064" lon="1.91904">
        <ele>952.9699968</ele>
        <time>2018-11-13T09:08:55.000Z</time>
      </trkpt>
      <trkpt lat="42.15065" lon="1.91901">
        <ele>953</ele>
        <time>2018-11-13T09:09:01.000Z</time>
      </trkpt>
      <trkpt lat="42.15065" lon="1.91898">
        <ele>953</ele>
        <time>2018-11-13T09:09:03.000Z</time>
      </trkpt>
      <trkpt lat="42.15066" lon="1.91895">
        <ele>953</ele>
        <time>2018-11-13T09:09:05.000Z</time>
      </trkpt>
      <trkpt lat="42.15066" lon="1.91892">
        <ele>953.9428576653</ele>
        <time>2018-11-13T09:09:07.000Z</time>
      </trkpt>
      <trkpt lat="42.15066" lon="1.91889">
        <ele>954</ele>
        <time>2018-11-13T09:09:09.000Z</time>
      </trkpt>
      <trkpt lat="42.15067" lon="1.91885">
        <ele>953.9699968</ele>
        <time>2018-11-13T09:09:11.000Z</time>
      </trkpt>
      <trkpt lat="42.15067" lon="1.91881">
        <ele>954</ele>
        <time>2018-11-13T09:09:13.000Z</time>
      </trkpt>
      <trkpt lat="42.15069" lon="1.91878">
        <ele>954</ele>
        <time>2018-11-13T09:09:15.000Z</time>
      </trkpt>
      <trkpt lat="42.15069" lon="1.91874">
        <ele>954</ele>
        <time>2018-11-13T09:09:17.000Z</time>
      </trkpt>
      <trkpt lat="42.1507" lon="1.91871">
        <ele>954</ele>
        <time>2018-11-13T09:09:19.000Z</time>
      </trkpt>
      <trkpt lat="42.1507" lon="1.91867">
        <ele>954</ele>
        <time>2018-11-13T09:09:21.000Z</time>
      </trkpt>
      <trkpt lat="42.15071" lon="1.91864">
        <ele>954</ele>
        <time>2018-11-13T09:09:23.000Z</time>
      </trkpt>
      <trkpt lat="42.15071" lon="1.9186">
        <ele>955</ele>
        <time>2018-11-13T09:09:25.000Z</time>
      </trkpt>
      <trkpt lat="42.15071" lon="1.91856">
        <ele>955</ele>
        <time>2018-11-13T09:09:27.000Z</time>
      </trkpt>
      <trkpt lat="42.15072" lon="1.91853">
        <ele>955</ele>
        <time>2018-11-13T09:09:29.000Z</time>
      </trkpt>
      <trkpt lat="42.15074" lon="1.91851">
        <ele>955</ele>
        <time>2018-11-13T09:09:31.000Z</time>
      </trkpt>
      <trkpt lat="42.15076" lon="1.91849">
        <ele>955</ele>
        <time>2018-11-13T09:09:33.000Z</time>
      </trkpt>
      <trkpt lat="42.15078" lon="1.91846">
        <ele>956</ele>
        <time>2018-11-13T09:09:35.000Z</time>
      </trkpt>
      <trkpt lat="42.15079" lon="1.91843">
        <ele>956</ele>
        <time>2018-11-13T09:09:37.000Z</time>
      </trkpt>
      <trkpt lat="42.15081" lon="1.91841">
        <ele>956</ele>
        <time>2018-11-13T09:09:39.000Z</time>
      </trkpt>
      <trkpt lat="42.15083" lon="1.91841">
        <ele>956.96938468973</ele>
        <time>2018-11-13T09:09:41.000Z</time>
      </trkpt>
      <trkpt lat="42.15085" lon="1.91843">
        <ele>957</ele>
        <time>2018-11-13T09:09:43.000Z</time>
      </trkpt>
      <trkpt lat="42.15087" lon="1.91845">
        <ele>957</ele>
        <time>2018-11-13T09:09:45.000Z</time>
      </trkpt>
      <trkpt lat="42.15089" lon="1.91847">
        <ele>957</ele>
        <time>2018-11-13T09:09:47.000Z</time>
      </trkpt>
      <trkpt lat="42.15091" lon="1.91849">
        <ele>957</ele>
        <time>2018-11-13T09:09:49.000Z</time>
      </trkpt>
      <trkpt lat="42.15093" lon="1.91849">
        <ele>957</ele>
        <time>2018-11-13T09:09:51.000Z</time>
      </trkpt>
      <trkpt lat="42.15095" lon="1.91849">
        <ele>957</ele>
        <time>2018-11-13T09:09:53.000Z</time>
      </trkpt>
      <trkpt lat="42.15097" lon="1.91848">
        <ele>958</ele>
        <time>2018-11-13T09:09:55.000Z</time>
      </trkpt>
      <trkpt lat="42.15099" lon="1.91847">
        <ele>958</ele>
        <time>2018-11-13T09:09:57.000Z</time>
      </trkpt>
      <trkpt lat="42.15101" lon="1.91846">
        <ele>958</ele>
        <time>2018-11-13T09:09:59.000Z</time>
      </trkpt>
      <trkpt lat="42.15103" lon="1.91843">
        <ele>958</ele>
        <time>2018-11-13T09:10:01.000Z</time>
      </trkpt>
      <trkpt lat="42.15104" lon="1.9184">
        <ele>958</ele>
        <time>2018-11-13T09:10:03.000Z</time>
      </trkpt>
      <trkpt lat="42.15105" lon="1.91836">
        <ele>958</ele>
        <time>2018-11-13T09:10:05.000Z</time>
      </trkpt>
      <trkpt lat="42.15105" lon="1.91834">
        <ele>958</ele>
        <time>2018-11-13T09:10:07.000Z</time>
      </trkpt>
      <trkpt lat="42.15106" lon="1.9183">
        <ele>958</ele>
        <time>2018-11-13T09:10:09.000Z</time>
      </trkpt>
      <trkpt lat="42.15105" lon="1.91828">
        <ele>958</ele>
        <time>2018-11-13T09:10:10.000Z</time>
      </trkpt>
      <trkpt lat="42.15104" lon="1.91824">
        <ele>958.94174154022</ele>
        <time>2018-11-13T09:10:12.000Z</time>
      </trkpt>
      <trkpt lat="42.15103" lon="1.91821">
        <ele>959</ele>
        <time>2018-11-13T09:10:14.000Z</time>
      </trkpt>
      <trkpt lat="42.15103" lon="1.91818">
        <ele>959</ele>
        <time>2018-11-13T09:10:16.000Z</time>
      </trkpt>
      <trkpt lat="42.15102" lon="1.91815">
        <ele>959.95098322186</ele>
        <time>2018-11-13T09:10:18.000Z</time>
      </trkpt>
      <trkpt lat="42.15102" lon="1.91811">
        <ele>960.9699968</ele>
        <time>2018-11-13T09:10:20.000Z</time>
      </trkpt>
      <trkpt lat="42.15101" lon="1.91808">
        <ele>961</ele>
        <time>2018-11-13T09:10:22.000Z</time>
      </trkpt>
      <trkpt lat="42.151" lon="1.91806">
        <ele>961</ele>
        <time>2018-11-13T09:10:24.000Z</time>
      </trkpt>
      <trkpt lat="42.15097" lon="1.91806">
        <ele>961</ele>
        <time>2018-11-13T09:10:26.000Z</time>
      </trkpt>
      <trkpt lat="42.15095" lon="1.91805">
        <ele>961</ele>
        <time>2018-11-13T09:10:28.000Z</time>
      </trkpt>
      <trkpt lat="42.15092" lon="1.91804">
        <ele>961.96773838362</ele>
        <time>2018-11-13T09:10:30.000Z</time>
      </trkpt>
      <trkpt lat="42.15089" lon="1.91804">
        <ele>962</ele>
        <time>2018-11-13T09:10:32.000Z</time>
      </trkpt>
      <trkpt lat="42.15087" lon="1.91803">
        <ele>962</ele>
        <time>2018-11-13T09:10:34.000Z</time>
      </trkpt>
      <trkpt lat="42.15085" lon="1.91802">
        <ele>962</ele>
        <time>2018-11-13T09:10:36.000Z</time>
      </trkpt>
      <trkpt lat="42.15083" lon="1.91799">
        <ele>962.92380929161</ele>
        <time>2018-11-13T09:10:38.000Z</time>
      </trkpt>
      <trkpt lat="42.15082" lon="1.91797">
        <ele>963</ele>
        <time>2018-11-13T09:10:40.000Z</time>
      </trkpt>
      <trkpt lat="42.15081" lon="1.91793">
        <ele>963</ele>
        <time>2018-11-13T09:10:42.000Z</time>
      </trkpt>
      <trkpt lat="42.1508" lon="1.91791">
        <ele>963.85840667867</ele>
        <time>2018-11-13T09:10:44.000Z</time>
      </trkpt>
      <trkpt lat="42.15079" lon="1.91789">
        <ele>964.9699968</ele>
        <time>2018-11-13T09:10:46.000Z</time>
      </trkpt>
      <trkpt lat="42.15077" lon="1.91788">
        <ele>964</ele>
        <time>2018-11-13T09:10:54.000Z</time>
      </trkpt>
      <trkpt lat="42.15074" lon="1.91787">
        <ele>964</ele>
        <time>2018-11-13T09:10:56.000Z</time>
      </trkpt>
      <trkpt lat="42.15072" lon="1.91784">
        <ele>964</ele>
        <time>2018-11-13T09:10:58.000Z</time>
      </trkpt>
      <trkpt lat="42.1507" lon="1.91781">
        <ele>964</ele>
        <time>2018-11-13T09:11:00.000Z</time>
      </trkpt>
      <trkpt lat="42.15069" lon="1.91778">
        <ele>964</ele>
        <time>2018-11-13T09:11:02.000Z</time>
      </trkpt>
      <trkpt lat="42.15069" lon="1.91774">
        <ele>964</ele>
        <time>2018-11-13T09:11:04.000Z</time>
      </trkpt>
      <trkpt lat="42.15068" lon="1.91771">
        <ele>964</ele>
        <time>2018-11-13T09:11:06.000Z</time>
      </trkpt>
      <trkpt lat="42.15066" lon="1.91769">
        <ele>964</ele>
        <time>2018-11-13T09:11:08.000Z</time>
      </trkpt>
      <trkpt lat="42.15064" lon="1.91765">
        <ele>964</ele>
        <time>2018-11-13T09:11:10.000Z</time>
      </trkpt>
      <trkpt lat="42.15063" lon="1.91763">
        <ele>964</ele>
        <time>2018-11-13T09:11:12.000Z</time>
      </trkpt>
      <trkpt lat="42.15061" lon="1.91759">
        <ele>964</ele>
        <time>2018-11-13T09:11:14.000Z</time>
      </trkpt>
      <trkpt lat="42.15059" lon="1.91756">
        <ele>964</ele>
        <time>2018-11-13T09:11:16.000Z</time>
      </trkpt>
      <trkpt lat="42.15058" lon="1.91752">
        <ele>964</ele>
        <time>2018-11-13T09:11:18.000Z</time>
      </trkpt>
      <trkpt lat="42.15057" lon="1.91749">
        <ele>964</ele>
        <time>2018-11-13T09:11:20.000Z</time>
      </trkpt>
      <trkpt lat="42.15056" lon="1.91746">
        <ele>964</ele>
        <time>2018-11-13T09:11:22.000Z</time>
      </trkpt>
      <trkpt lat="42.15056" lon="1.91742">
        <ele>964</ele>
        <time>2018-11-13T09:11:24.000Z</time>
      </trkpt>
      <trkpt lat="42.15055" lon="1.91739">
        <ele>964</ele>
        <time>2018-11-13T09:11:26.000Z</time>
      </trkpt>
      <trkpt lat="42.15054" lon="1.91735">
        <ele>964</ele>
        <time>2018-11-13T09:11:28.000Z</time>
      </trkpt>
      <trkpt lat="42.15054" lon="1.91731">
        <ele>964</ele>
        <time>2018-11-13T09:11:30.000Z</time>
      </trkpt>
      <trkpt lat="42.15054" lon="1.91726">
        <ele>964</ele>
        <time>2018-11-13T09:11:32.000Z</time>
      </trkpt>
      <trkpt lat="42.15054" lon="1.91722">
        <ele>964</ele>
        <time>2018-11-13T09:11:34.000Z</time>
      </trkpt>
      <trkpt lat="42.15053" lon="1.91718">
        <ele>964</ele>
        <time>2018-11-13T09:11:36.000Z</time>
      </trkpt>
      <trkpt lat="42.15053" lon="1.91714">
        <ele>964</ele>
        <time>2018-11-13T09:11:38.000Z</time>
      </trkpt>
      <trkpt lat="42.15053" lon="1.9171">
        <ele>964</ele>
        <time>2018-11-13T09:11:40.000Z</time>
      </trkpt>
      <trkpt lat="42.15053" lon="1.91705">
        <ele>964</ele>
        <time>2018-11-13T09:11:42.000Z</time>
      </trkpt>
      <trkpt lat="42.15053" lon="1.91701">
        <ele>964</ele>
        <time>2018-11-13T09:11:44.000Z</time>
      </trkpt>
      <trkpt lat="42.15053" lon="1.91697">
        <ele>964</ele>
        <time>2018-11-13T09:11:46.000Z</time>
      </trkpt>
      <trkpt lat="42.15052" lon="1.91694">
        <ele>964</ele>
        <time>2018-11-13T09:11:48.000Z</time>
      </trkpt>
      <trkpt lat="42.15052" lon="1.91689">
        <ele>964</ele>
        <time>2018-11-13T09:11:50.000Z</time>
      </trkpt>
      <trkpt lat="42.15053" lon="1.91687">
        <ele>964</ele>
        <time>2018-11-13T09:11:51.000Z</time>
      </trkpt>
      <trkpt lat="42.15053" lon="1.91685">
        <ele>964.93268923077</ele>
        <time>2018-11-13T09:11:52.000Z</time>
      </trkpt>
      <trkpt lat="42.15054" lon="1.9168">
        <ele>965</ele>
        <time>2018-11-13T09:11:54.000Z</time>
      </trkpt>
      <trkpt lat="42.15055" lon="1.91676">
        <ele>964.96874666667</ele>
        <time>2018-11-13T09:11:56.000Z</time>
      </trkpt>
      <trkpt lat="42.15057" lon="1.91673">
        <ele>965</ele>
        <time>2018-11-13T09:11:58.000Z</time>
      </trkpt>
      <trkpt lat="42.15058" lon="1.9167">
        <ele>964.03158220941</ele>
        <time>2018-11-13T09:12:01.000Z</time>
      </trkpt>
      <trkpt lat="42.15059" lon="1.91668">
        <ele>964</ele>
        <time>2018-11-13T09:12:05.000Z</time>
      </trkpt>
      <trkpt lat="42.15059" lon="1.91664">
        <ele>964</ele>
        <time>2018-11-13T09:12:08.000Z</time>
      </trkpt>
      <trkpt lat="42.15059" lon="1.91662">
        <ele>965</ele>
        <time>2018-11-13T09:12:10.000Z</time>
      </trkpt>
      <trkpt lat="42.1506" lon="1.91659">
        <ele>965</ele>
        <time>2018-11-13T09:12:12.000Z</time>
      </trkpt>
      <trkpt lat="42.15061" lon="1.91655">
        <ele>965</ele>
        <time>2018-11-13T09:12:14.000Z</time>
      </trkpt>
      <trkpt lat="42.15062" lon="1.91652">
        <ele>965</ele>
        <time>2018-11-13T09:12:16.000Z</time>
      </trkpt>
      <trkpt lat="42.15063" lon="1.91648">
        <ele>965</ele>
        <time>2018-11-13T09:12:18.000Z</time>
      </trkpt>
      <trkpt lat="42.15065" lon="1.91646">
        <ele>965</ele>
        <time>2018-11-13T09:12:20.000Z</time>
      </trkpt>
      <trkpt lat="42.15066" lon="1.91644">
        <ele>965</ele>
        <time>2018-11-13T09:12:22.000Z</time>
      </trkpt>
      <trkpt lat="42.15067" lon="1.91641">
        <ele>965</ele>
        <time>2018-11-13T09:12:24.000Z</time>
      </trkpt>
      <trkpt lat="42.15068" lon="1.91636">
        <ele>965</ele>
        <time>2018-11-13T09:12:26.000Z</time>
      </trkpt>
      <trkpt lat="42.15068" lon="1.91632">
        <ele>965</ele>
        <time>2018-11-13T09:12:28.000Z</time>
      </trkpt>
      <trkpt lat="42.15069" lon="1.9163">
        <ele>965</ele>
        <time>2018-11-13T09:12:30.000Z</time>
      </trkpt>
      <trkpt lat="42.15077" lon="1.91621">
        <ele>967.03158220941</ele>
        <time>2018-11-13T09:12:58.000Z</time>
      </trkpt>
      <trkpt lat="42.1508" lon="1.91621">
        <ele>968</ele>
        <time>2018-11-13T09:13:04.000Z</time>
      </trkpt>
      <trkpt lat="42.15082" lon="1.91618">
        <ele>968</ele>
        <time>2018-11-13T09:13:10.000Z</time>
      </trkpt>
      <trkpt lat="42.15083" lon="1.91616">
        <ele>969</ele>
        <time>2018-11-13T09:13:15.000Z</time>
      </trkpt>
      <trkpt lat="42.15083" lon="1.91613">
        <ele>969</ele>
        <time>2018-11-13T09:13:22.000Z</time>
      </trkpt>
      <trkpt lat="42.15083" lon="1.91611">
        <ele>967</ele>
        <time>2018-11-13T09:14:01.000Z</time>
      </trkpt>
      <trkpt lat="42.15085" lon="1.91609">
        <ele>967</ele>
        <time>2018-11-13T09:14:03.000Z</time>
      </trkpt>
      <trkpt lat="42.15087" lon="1.91607">
        <ele>967</ele>
        <time>2018-11-13T09:14:05.000Z</time>
      </trkpt>
      <trkpt lat="42.15089" lon="1.91605">
        <ele>967</ele>
        <time>2018-11-13T09:14:07.000Z</time>
      </trkpt>
      <trkpt lat="42.15091" lon="1.91603">
        <ele>967</ele>
        <time>2018-11-13T09:14:09.000Z</time>
      </trkpt>
      <trkpt lat="42.15092" lon="1.91601">
        <ele>967</ele>
        <time>2018-11-13T09:14:11.000Z</time>
      </trkpt>
      <trkpt lat="42.15093" lon="1.91597">
        <ele>967</ele>
        <time>2018-11-13T09:14:13.000Z</time>
      </trkpt>
      <trkpt lat="42.15094" lon="1.91595">
        <ele>966</ele>
        <time>2018-11-13T09:14:15.000Z</time>
      </trkpt>
      <trkpt lat="42.15095" lon="1.91593">
        <ele>966</ele>
        <time>2018-11-13T09:14:17.000Z</time>
      </trkpt>
      <trkpt lat="42.15096" lon="1.9159">
        <ele>966</ele>
        <time>2018-11-13T09:14:19.000Z</time>
      </trkpt>
      <trkpt lat="42.15097" lon="1.91588">
        <ele>967</ele>
        <time>2018-11-13T09:14:21.000Z</time>
      </trkpt>
      <trkpt lat="42.15098" lon="1.91585">
        <ele>967</ele>
        <time>2018-11-13T09:14:23.000Z</time>
      </trkpt>
      <trkpt lat="42.15099" lon="1.91582">
        <ele>967</ele>
        <time>2018-11-13T09:14:25.000Z</time>
      </trkpt>
      <trkpt lat="42.15099" lon="1.91578">
        <ele>967</ele>
        <time>2018-11-13T09:14:27.000Z</time>
      </trkpt>
      <trkpt lat="42.15098" lon="1.91575">
        <ele>967</ele>
        <time>2018-11-13T09:14:29.000Z</time>
      </trkpt>
      <trkpt lat="42.15098" lon="1.91572">
        <ele>967</ele>
        <time>2018-11-13T09:14:31.000Z</time>
      </trkpt>
      <trkpt lat="42.15098" lon="1.91568">
        <ele>967</ele>
        <time>2018-11-13T09:14:33.000Z</time>
      </trkpt>
      <trkpt lat="42.15098" lon="1.91566">
        <ele>967</ele>
        <time>2018-11-13T09:14:34.000Z</time>
      </trkpt>
      <trkpt lat="42.151" lon="1.91564">
        <ele>967</ele>
        <time>2018-11-13T09:14:35.000Z</time>
      </trkpt>
      <trkpt lat="42.15102" lon="1.91561">
        <ele>967</ele>
        <time>2018-11-13T09:14:37.000Z</time>
      </trkpt>
      <trkpt lat="42.15105" lon="1.91558">
        <ele>967</ele>
        <time>2018-11-13T09:14:39.000Z</time>
      </trkpt>
      <trkpt lat="42.15108" lon="1.91555">
        <ele>967.96039591413</ele>
        <time>2018-11-13T09:14:41.000Z</time>
      </trkpt>
      <trkpt lat="42.1511" lon="1.91553">
        <ele>968</ele>
        <time>2018-11-13T09:14:43.000Z</time>
      </trkpt>
      <trkpt lat="42.15113" lon="1.91552">
        <ele>967</ele>
        <time>2018-11-13T09:14:45.000Z</time>
      </trkpt>
      <trkpt lat="42.15115" lon="1.91552">
        <ele>968</ele>
        <time>2018-11-13T09:14:47.000Z</time>
      </trkpt>
      <trkpt lat="42.15118" lon="1.91552">
        <ele>968</ele>
        <time>2018-11-13T09:14:49.000Z</time>
      </trkpt>
      <trkpt lat="42.15121" lon="1.91551">
        <ele>968</ele>
        <time>2018-11-13T09:14:51.000Z</time>
      </trkpt>
      <trkpt lat="42.15122" lon="1.91549">
        <ele>968</ele>
        <time>2018-11-13T09:14:53.000Z</time>
      </trkpt>
      <trkpt lat="42.15123" lon="1.91547">
        <ele>968</ele>
        <time>2018-11-13T09:14:55.000Z</time>
      </trkpt>
      <trkpt lat="42.15123" lon="1.91543">
        <ele>968</ele>
        <time>2018-11-13T09:14:57.000Z</time>
      </trkpt>
      <trkpt lat="42.15124" lon="1.9154">
        <ele>969</ele>
        <time>2018-11-13T09:14:59.000Z</time>
      </trkpt>
      <trkpt lat="42.15125" lon="1.91537">
        <ele>969</ele>
        <time>2018-11-13T09:15:01.000Z</time>
      </trkpt>
      <trkpt lat="42.15124" lon="1.91532">
        <ele>969</ele>
        <time>2018-11-13T09:15:03.000Z</time>
      </trkpt>
      <trkpt lat="42.15124" lon="1.91529">
        <ele>969</ele>
        <time>2018-11-13T09:15:05.000Z</time>
      </trkpt>
      <trkpt lat="42.15125" lon="1.91526">
        <ele>969</ele>
        <time>2018-11-13T09:15:07.000Z</time>
      </trkpt>
      <trkpt lat="42.15126" lon="1.91522">
        <ele>969</ele>
        <time>2018-11-13T09:15:09.000Z</time>
      </trkpt>
      <trkpt lat="42.15128" lon="1.9152">
        <ele>968.03089902452</ele>
        <time>2018-11-13T09:15:11.000Z</time>
      </trkpt>
      <trkpt lat="42.15129" lon="1.91517">
        <ele>969</ele>
        <time>2018-11-13T09:15:13.000Z</time>
      </trkpt>
      <trkpt lat="42.1513" lon="1.91512">
        <ele>969</ele>
        <time>2018-11-13T09:15:15.000Z</time>
      </trkpt>
      <trkpt lat="42.15131" lon="1.91508">
        <ele>969</ele>
        <time>2018-11-13T09:15:17.000Z</time>
      </trkpt>
      <trkpt lat="42.15133" lon="1.91505">
        <ele>970</ele>
        <time>2018-11-13T09:15:19.000Z</time>
      </trkpt>
      <trkpt lat="42.15134" lon="1.91502">
        <ele>970</ele>
        <time>2018-11-13T09:15:20.000Z</time>
      </trkpt>
      <trkpt lat="42.15135" lon="1.915">
        <ele>970</ele>
        <time>2018-11-13T09:15:21.000Z</time>
      </trkpt>
      <trkpt lat="42.15136" lon="1.91496">
        <ele>970</ele>
        <time>2018-11-13T09:15:23.000Z</time>
      </trkpt>
      <trkpt lat="42.15137" lon="1.91493">
        <ele>970</ele>
        <time>2018-11-13T09:15:25.000Z</time>
      </trkpt>
      <trkpt lat="42.15138" lon="1.9149">
        <ele>970</ele>
        <time>2018-11-13T09:15:26.000Z</time>
      </trkpt>
      <trkpt lat="42.15138" lon="1.91488">
        <ele>970</ele>
        <time>2018-11-13T09:15:27.000Z</time>
      </trkpt>
      <trkpt lat="42.15139" lon="1.91485">
        <ele>970.93268923077</ele>
        <time>2018-11-13T09:15:29.000Z</time>
      </trkpt>
      <trkpt lat="42.1514" lon="1.91481">
        <ele>970.04348229358</ele>
        <time>2018-11-13T09:15:31.000Z</time>
      </trkpt>
      <trkpt lat="42.1514" lon="1.91477">
        <ele>970</ele>
        <time>2018-11-13T09:15:33.000Z</time>
      </trkpt>
      <trkpt lat="42.15142" lon="1.91474">
        <ele>970</ele>
        <time>2018-11-13T09:15:35.000Z</time>
      </trkpt>
      <trkpt lat="42.15144" lon="1.91471">
        <ele>970</ele>
        <time>2018-11-13T09:15:37.000Z</time>
      </trkpt>
      <trkpt lat="42.15145" lon="1.91468">
        <ele>970</ele>
        <time>2018-11-13T09:15:38.000Z</time>
      </trkpt>
      <trkpt lat="42.15146" lon="1.91466">
        <ele>970</ele>
        <time>2018-11-13T09:15:39.000Z</time>
      </trkpt>
      <trkpt lat="42.15149" lon="1.91463">
        <ele>969.0300032</ele>
        <time>2018-11-13T09:15:41.000Z</time>
      </trkpt>
      <trkpt lat="42.1515" lon="1.91462">
        <ele>969</ele>
        <time>2018-11-13T09:15:42.000Z</time>
      </trkpt>
      <trkpt lat="42.15152" lon="1.9146">
        <ele>969</ele>
        <time>2018-11-13T09:15:43.000Z</time>
      </trkpt>
      <trkpt lat="42.15153" lon="1.91458">
        <ele>969</ele>
        <time>2018-11-13T09:15:44.000Z</time>
      </trkpt>
      <trkpt lat="42.15155" lon="1.91456">
        <ele>969</ele>
        <time>2018-11-13T09:15:46.000Z</time>
      </trkpt>
      <trkpt lat="42.15158" lon="1.91453">
        <ele>969</ele>
        <time>2018-11-13T09:15:48.000Z</time>
      </trkpt>
      <trkpt lat="42.1516" lon="1.91452">
        <ele>969</ele>
        <time>2018-11-13T09:15:50.000Z</time>
      </trkpt>
      <trkpt lat="42.15161" lon="1.91449">
        <ele>969</ele>
        <time>2018-11-13T09:15:52.000Z</time>
      </trkpt>
      <trkpt lat="42.15163" lon="1.91446">
        <ele>969.9699968</ele>
        <time>2018-11-13T09:15:54.000Z</time>
      </trkpt>
      <trkpt lat="42.15164" lon="1.91443">
        <ele>970</ele>
        <time>2018-11-13T09:15:56.000Z</time>
      </trkpt>
      <trkpt lat="42.15166" lon="1.9144">
        <ele>971</ele>
        <time>2018-11-13T09:15:58.000Z</time>
      </trkpt>
      <trkpt lat="42.15167" lon="1.91437">
        <ele>971</ele>
        <time>2018-11-13T09:16:00.000Z</time>
      </trkpt>
      <trkpt lat="42.15168" lon="1.91435">
        <ele>971</ele>
        <time>2018-11-13T09:16:05.000Z</time>
      </trkpt>
      <trkpt lat="42.1517" lon="1.91432">
        <ele>971</ele>
        <time>2018-11-13T09:16:07.000Z</time>
      </trkpt>
      <trkpt lat="42.15171" lon="1.9143">
        <ele>971</ele>
        <time>2018-11-13T09:16:08.000Z</time>
      </trkpt>
      <trkpt lat="42.15173" lon="1.91426">
        <ele>971</ele>
        <time>2018-11-13T09:16:10.000Z</time>
      </trkpt>
      <trkpt lat="42.15174" lon="1.91422">
        <ele>971</ele>
        <time>2018-11-13T09:16:12.000Z</time>
      </trkpt>
      <trkpt lat="42.15174" lon="1.91417">
        <ele>971</ele>
        <time>2018-11-13T09:16:14.000Z</time>
      </trkpt>
      <trkpt lat="42.15175" lon="1.91413">
        <ele>971</ele>
        <time>2018-11-13T09:16:16.000Z</time>
      </trkpt>
      <trkpt lat="42.15176" lon="1.9141">
        <ele>971</ele>
        <time>2018-11-13T09:16:18.000Z</time>
      </trkpt>
      <trkpt lat="42.15177" lon="1.91407">
        <ele>972</ele>
        <time>2018-11-13T09:16:20.000Z</time>
      </trkpt>
      <trkpt lat="42.15178" lon="1.91404">
        <ele>972</ele>
        <time>2018-11-13T09:16:23.000Z</time>
      </trkpt>
      <trkpt lat="42.15179" lon="1.914">
        <ele>972</ele>
        <time>2018-11-13T09:16:25.000Z</time>
      </trkpt>
      <trkpt lat="42.1518" lon="1.91396">
        <ele>971.03158220941</ele>
        <time>2018-11-13T09:16:27.000Z</time>
      </trkpt>
      <trkpt lat="42.15181" lon="1.91393">
        <ele>971</ele>
        <time>2018-11-13T09:16:29.000Z</time>
      </trkpt>
      <trkpt lat="42.15182" lon="1.91389">
        <ele>971</ele>
        <time>2018-11-13T09:16:31.000Z</time>
      </trkpt>
      <trkpt lat="42.15182" lon="1.91385">
        <ele>971</ele>
        <time>2018-11-13T09:16:33.000Z</time>
      </trkpt>
      <trkpt lat="42.15182" lon="1.9138">
        <ele>971</ele>
        <time>2018-11-13T09:16:35.000Z</time>
      </trkpt>
      <trkpt lat="42.15182" lon="1.91378">
        <ele>971</ele>
        <time>2018-11-13T09:16:36.000Z</time>
      </trkpt>
      <trkpt lat="42.15182" lon="1.91375">
        <ele>971.9699968</ele>
        <time>2018-11-13T09:16:37.000Z</time>
      </trkpt>
      <trkpt lat="42.15183" lon="1.91373">
        <ele>972</ele>
        <time>2018-11-13T09:16:38.000Z</time>
      </trkpt>
      <trkpt lat="42.15183" lon="1.9137">
        <ele>972</ele>
        <time>2018-11-13T09:16:39.000Z</time>
      </trkpt>
      <trkpt lat="42.15184" lon="1.91368">
        <ele>972</ele>
        <time>2018-11-13T09:16:40.000Z</time>
      </trkpt>
      <trkpt lat="42.15186" lon="1.91364">
        <ele>972</ele>
        <time>2018-11-13T09:16:42.000Z</time>
      </trkpt>
      <trkpt lat="42.15189" lon="1.91362">
        <ele>972</ele>
        <time>2018-11-13T09:16:44.000Z</time>
      </trkpt>
      <trkpt lat="42.15192" lon="1.9136">
        <ele>972</ele>
        <time>2018-11-13T09:16:46.000Z</time>
      </trkpt>
      <trkpt lat="42.15194" lon="1.91359">
        <ele>973</ele>
        <time>2018-11-13T09:16:50.000Z</time>
      </trkpt>
      <trkpt lat="42.15196" lon="1.91357">
        <ele>973</ele>
        <time>2018-11-13T09:16:52.000Z</time>
      </trkpt>
      <trkpt lat="42.15199" lon="1.91355">
        <ele>973</ele>
        <time>2018-11-13T09:16:54.000Z</time>
      </trkpt>
      <trkpt lat="42.15202" lon="1.91353">
        <ele>973</ele>
        <time>2018-11-13T09:16:56.000Z</time>
      </trkpt>
      <trkpt lat="42.15203" lon="1.91351">
        <ele>973</ele>
        <time>2018-11-13T09:16:57.000Z</time>
      </trkpt>
      <trkpt lat="42.15205" lon="1.9135">
        <ele>973</ele>
        <time>2018-11-13T09:16:58.000Z</time>
      </trkpt>
      <trkpt lat="42.15206" lon="1.91348">
        <ele>973</ele>
        <time>2018-11-13T09:16:59.000Z</time>
      </trkpt>
      <trkpt lat="42.15209" lon="1.91346">
        <ele>973</ele>
        <time>2018-11-13T09:17:01.000Z</time>
      </trkpt>
      <trkpt lat="42.15211" lon="1.91344">
        <ele>973</ele>
        <time>2018-11-13T09:17:03.000Z</time>
      </trkpt>
      <trkpt lat="42.15213" lon="1.91342">
        <ele>972.03093123606</ele>
        <time>2018-11-13T09:17:05.000Z</time>
      </trkpt>
      <trkpt lat="42.15215" lon="1.9134">
        <ele>973</ele>
        <time>2018-11-13T09:17:07.000Z</time>
      </trkpt>
      <trkpt lat="42.15215" lon="1.91337">
        <ele>973</ele>
        <time>2018-11-13T09:17:09.000Z</time>
      </trkpt>
      <trkpt lat="42.15216" lon="1.91333">
        <ele>973</ele>
        <time>2018-11-13T09:17:11.000Z</time>
      </trkpt>
      <trkpt lat="42.15217" lon="1.9133">
        <ele>973</ele>
        <time>2018-11-13T09:17:13.000Z</time>
      </trkpt>
      <trkpt lat="42.15218" lon="1.91327">
        <ele>973</ele>
        <time>2018-11-13T09:17:15.000Z</time>
      </trkpt>
      <trkpt lat="42.15219" lon="1.91323">
        <ele>973</ele>
        <time>2018-11-13T09:17:18.000Z</time>
      </trkpt>
      <trkpt lat="42.1522" lon="1.91321">
        <ele>973</ele>
        <time>2018-11-13T09:17:25.000Z</time>
      </trkpt>
      <trkpt lat="42.15219" lon="1.91319">
        <ele>972</ele>
        <time>2018-11-13T09:17:41.000Z</time>
      </trkpt>
      <trkpt lat="42.15218" lon="1.91317">
        <ele>972</ele>
        <time>2018-11-13T09:17:46.000Z</time>
      </trkpt>
      <trkpt lat="42.15216" lon="1.91315">
        <ele>972</ele>
        <time>2018-11-13T09:17:48.000Z</time>
      </trkpt>
      <trkpt lat="42.15213" lon="1.91314">
        <ele>972</ele>
        <time>2018-11-13T09:17:50.000Z</time>
      </trkpt>
      <trkpt lat="42.15212" lon="1.91312">
        <ele>971</ele>
        <time>2018-11-13T09:17:55.000Z</time>
      </trkpt>
      <trkpt lat="42.1521" lon="1.9131">
        <ele>971</ele>
        <time>2018-11-13T09:17:58.000Z</time>
      </trkpt>
      <trkpt lat="42.15207" lon="1.91309">
        <ele>971</ele>
        <time>2018-11-13T09:18:01.000Z</time>
      </trkpt>
      <trkpt lat="42.15205" lon="1.9131">
        <ele>971</ele>
        <time>2018-11-13T09:18:03.000Z</time>
      </trkpt>
      <trkpt lat="42.15203" lon="1.91308">
        <ele>972.9699968</ele>
        <time>2018-11-13T09:18:06.000Z</time>
      </trkpt>
      <trkpt lat="42.15201" lon="1.91306">
        <ele>973</ele>
        <time>2018-11-13T09:18:09.000Z</time>
      </trkpt>
      <trkpt lat="42.15199" lon="1.91304">
        <ele>973</ele>
        <time>2018-11-13T09:18:11.000Z</time>
      </trkpt>
      <trkpt lat="42.15197" lon="1.91303">
        <ele>974</ele>
        <time>2018-11-13T09:18:14.000Z</time>
      </trkpt>
      <trkpt lat="42.15195" lon="1.91301">
        <ele>974</ele>
        <time>2018-11-13T09:18:16.000Z</time>
      </trkpt>
      <trkpt lat="42.15193" lon="1.91299">
        <ele>974</ele>
        <time>2018-11-13T09:18:18.000Z</time>
      </trkpt>
      <trkpt lat="42.1519" lon="1.91299">
        <ele>973.07619070839</ele>
        <time>2018-11-13T09:18:20.000Z</time>
      </trkpt>
      <trkpt lat="42.15187" lon="1.91299">
        <ele>972</ele>
        <time>2018-11-13T09:18:22.000Z</time>
      </trkpt>
      <trkpt lat="42.15185" lon="1.91299">
        <ele>972</ele>
        <time>2018-11-13T09:18:24.000Z</time>
      </trkpt>
      <trkpt lat="42.15183" lon="1.91298">
        <ele>971</ele>
        <time>2018-11-13T09:18:26.000Z</time>
      </trkpt>
      <trkpt lat="42.15181" lon="1.91297">
        <ele>971</ele>
        <time>2018-11-13T09:18:29.000Z</time>
      </trkpt>
      <trkpt lat="42.15178" lon="1.91298">
        <ele>971</ele>
        <time>2018-11-13T09:18:31.000Z</time>
      </trkpt>
      <trkpt lat="42.15176" lon="1.91298">
        <ele>970.0300032</ele>
        <time>2018-11-13T09:18:32.000Z</time>
      </trkpt>
      <trkpt lat="42.15174" lon="1.91299">
        <ele>970.92380929161</ele>
        <time>2018-11-13T09:18:33.000Z</time>
      </trkpt>
      <trkpt lat="42.15172" lon="1.913">
        <ele>970.03158220941</ele>
        <time>2018-11-13T09:18:34.000Z</time>
      </trkpt>
      <trkpt lat="42.15169" lon="1.91302">
        <ele>970</ele>
        <time>2018-11-13T09:18:36.000Z</time>
      </trkpt>
      <trkpt lat="42.15168" lon="1.91304">
        <ele>970</ele>
        <time>2018-11-13T09:18:37.000Z</time>
      </trkpt>
      <trkpt lat="42.15166" lon="1.91307">
        <ele>970</ele>
        <time>2018-11-13T09:18:39.000Z</time>
      </trkpt>
      <trkpt lat="42.15165" lon="1.91309">
        <ele>969</ele>
        <time>2018-11-13T09:18:41.000Z</time>
      </trkpt>
      <trkpt lat="42.15163" lon="1.91311">
        <ele>968</ele>
        <time>2018-11-13T09:18:43.000Z</time>
      </trkpt>
      <trkpt lat="42.15162" lon="1.91314">
        <ele>967</ele>
        <time>2018-11-13T09:18:45.000Z</time>
      </trkpt>
      <trkpt lat="42.15161" lon="1.91317">
        <ele>967</ele>
        <time>2018-11-13T09:18:47.000Z</time>
      </trkpt>
      <trkpt lat="42.15159" lon="1.9132">
        <ele>967</ele>
        <time>2018-11-13T09:18:49.000Z</time>
      </trkpt>
      <trkpt lat="42.15156" lon="1.91323">
        <ele>966.08490315413</ele>
        <time>2018-11-13T09:18:51.000Z</time>
      </trkpt>
      <trkpt lat="42.15153" lon="1.91327">
        <ele>966</ele>
        <time>2018-11-13T09:18:53.000Z</time>
      </trkpt>
      <trkpt lat="42.15151" lon="1.9133">
        <ele>966</ele>
        <time>2018-11-13T09:18:55.000Z</time>
      </trkpt>
      <trkpt lat="42.1515" lon="1.91332">
        <ele>966</ele>
        <time>2018-11-13T09:18:57.000Z</time>
      </trkpt>
      <trkpt lat="42.15148" lon="1.91336">
        <ele>965.03093123606</ele>
        <time>2018-11-13T09:18:59.000Z</time>
      </trkpt>
      <trkpt lat="42.15146" lon="1.91337">
        <ele>965</ele>
        <time>2018-11-13T09:19:00.000Z</time>
      </trkpt>
      <trkpt lat="42.15144" lon="1.91339">
        <ele>965</ele>
        <time>2018-11-13T09:19:02.000Z</time>
      </trkpt>
      <trkpt lat="42.15144" lon="1.91342">
        <ele>965</ele>
        <time>2018-11-13T09:19:05.000Z</time>
      </trkpt>
      <trkpt lat="42.15143" lon="1.91344">
        <ele>965</ele>
        <time>2018-11-13T09:19:07.000Z</time>
      </trkpt>
      <trkpt lat="42.15141" lon="1.91346">
        <ele>965</ele>
        <time>2018-11-13T09:19:09.000Z</time>
      </trkpt>
      <trkpt lat="42.1514" lon="1.91348">
        <ele>964</ele>
        <time>2018-11-13T09:19:11.000Z</time>
      </trkpt>
      <trkpt lat="42.15141" lon="1.91351">
        <ele>962.09346364572</ele>
        <time>2018-11-13T09:19:13.000Z</time>
      </trkpt>
      <trkpt lat="42.15141" lon="1.91355">
        <ele>961.04286132241</ele>
        <time>2018-11-13T09:19:15.000Z</time>
      </trkpt>
      <trkpt lat="42.15141" lon="1.91358">
        <ele>960.06731076923</ele>
        <time>2018-11-13T09:19:17.000Z</time>
      </trkpt>
      <trkpt lat="42.1514" lon="1.91362">
        <ele>959</ele>
        <time>2018-11-13T09:19:19.000Z</time>
      </trkpt>
      <trkpt lat="42.15139" lon="1.91364">
        <ele>958.03093123606</ele>
        <time>2018-11-13T09:19:21.000Z</time>
      </trkpt>
      <trkpt lat="42.15137" lon="1.91364">
        <ele>958</ele>
        <time>2018-11-13T09:19:22.000Z</time>
      </trkpt>
      <trkpt lat="42.15135" lon="1.91365">
        <ele>958.95098322186</ele>
        <time>2018-11-13T09:19:26.000Z</time>
      </trkpt>
      <trkpt lat="42.15132" lon="1.91367">
        <ele>959</ele>
        <time>2018-11-13T09:19:28.000Z</time>
      </trkpt>
      <trkpt lat="42.1513" lon="1.91367">
        <ele>959</ele>
        <time>2018-11-13T09:19:30.000Z</time>
      </trkpt>
      <trkpt lat="42.15128" lon="1.91366">
        <ele>958</ele>
        <time>2018-11-13T09:19:40.000Z</time>
      </trkpt>
      <trkpt lat="42.15126" lon="1.91366">
        <ele>958</ele>
        <time>2018-11-13T09:19:43.000Z</time>
      </trkpt>
      <trkpt lat="42.15124" lon="1.91366">
        <ele>958</ele>
        <time>2018-11-13T09:19:45.000Z</time>
      </trkpt>
      <trkpt lat="42.15121" lon="1.91367">
        <ele>958</ele>
        <time>2018-11-13T09:19:47.000Z</time>
      </trkpt>
      <trkpt lat="42.15118" lon="1.91367">
        <ele>957</ele>
        <time>2018-11-13T09:19:49.000Z</time>
      </trkpt>
      <trkpt lat="42.15116" lon="1.91367">
        <ele>957</ele>
        <time>2018-11-13T09:19:50.000Z</time>
      </trkpt>
      <trkpt lat="42.15113" lon="1.91366">
        <ele>957</ele>
        <time>2018-11-13T09:19:52.000Z</time>
      </trkpt>
      <trkpt lat="42.1511" lon="1.91365">
        <ele>957</ele>
        <time>2018-11-13T09:19:54.000Z</time>
      </trkpt>
      <trkpt lat="42.15108" lon="1.91363">
        <ele>956.07936120931</ele>
        <time>2018-11-13T09:19:56.000Z</time>
      </trkpt>
      <trkpt lat="42.15105" lon="1.91361">
        <ele>957</ele>
        <time>2018-11-13T09:19:58.000Z</time>
      </trkpt>
      <trkpt lat="42.15103" lon="1.91358">
        <ele>957</ele>
        <time>2018-11-13T09:20:00.000Z</time>
      </trkpt>
      <trkpt lat="42.15101" lon="1.91355">
        <ele>957</ele>
        <time>2018-11-13T09:20:02.000Z</time>
      </trkpt>
      <trkpt lat="42.151" lon="1.91353">
        <ele>957</ele>
        <time>2018-11-13T09:20:04.000Z</time>
      </trkpt>
      <trkpt lat="42.15099" lon="1.91351">
        <ele>957.9699968</ele>
        <time>2018-11-13T09:20:06.000Z</time>
      </trkpt>
      <trkpt lat="42.15097" lon="1.91348">
        <ele>958</ele>
        <time>2018-11-13T09:20:09.000Z</time>
      </trkpt>
      <trkpt lat="42.15095" lon="1.91345">
        <ele>958</ele>
        <time>2018-11-13T09:20:11.000Z</time>
      </trkpt>
      <trkpt lat="42.15093" lon="1.91341">
        <ele>958</ele>
        <time>2018-11-13T09:20:13.000Z</time>
      </trkpt>
      <trkpt lat="42.15091" lon="1.91339">
        <ele>958</ele>
        <time>2018-11-13T09:20:15.000Z</time>
      </trkpt>
      <trkpt lat="42.15089" lon="1.91338">
        <ele>958</ele>
        <time>2018-11-13T09:20:17.000Z</time>
      </trkpt>
      <trkpt lat="42.15088" lon="1.91336">
        <ele>959</ele>
        <time>2018-11-13T09:20:19.000Z</time>
      </trkpt>
      <trkpt lat="42.15086" lon="1.91333">
        <ele>960</ele>
        <time>2018-11-13T09:20:27.000Z</time>
      </trkpt>
      <trkpt lat="42.15084" lon="1.91332">
        <ele>960.9699968</ele>
        <time>2018-11-13T09:20:29.000Z</time>
      </trkpt>
      <trkpt lat="42.15082" lon="1.91331">
        <ele>961</ele>
        <time>2018-11-13T09:20:31.000Z</time>
      </trkpt>
      <trkpt lat="42.15079" lon="1.91331">
        <ele>961.92380929161</ele>
        <time>2018-11-13T09:20:33.000Z</time>
      </trkpt>
      <trkpt lat="42.15076" lon="1.91331">
        <ele>962</ele>
        <time>2018-11-13T09:20:35.000Z</time>
      </trkpt>
      <trkpt lat="42.15073" lon="1.9133">
        <ele>963</ele>
        <time>2018-11-13T09:20:37.000Z</time>
      </trkpt>
      <trkpt lat="42.15071" lon="1.91329">
        <ele>963</ele>
        <time>2018-11-13T09:20:39.000Z</time>
      </trkpt>
      <trkpt lat="42.15069" lon="1.91327">
        <ele>963</ele>
        <time>2018-11-13T09:20:41.000Z</time>
      </trkpt>
      <trkpt lat="42.15066" lon="1.91325">
        <ele>964</ele>
        <time>2018-11-13T09:20:44.000Z</time>
      </trkpt>
      <trkpt lat="42.15064" lon="1.91325">
        <ele>964.94174154022</ele>
        <time>2018-11-13T09:20:46.000Z</time>
      </trkpt>
      <trkpt lat="42.15062" lon="1.91324">
        <ele>965.71852125763</ele>
        <time>2018-11-13T09:20:49.000Z</time>
      </trkpt>
      <trkpt lat="42.15061" lon="1.91322">
        <ele>966</ele>
        <time>2018-11-13T09:20:52.000Z</time>
      </trkpt>
      <trkpt lat="42.15059" lon="1.9132">
        <ele>966.96702956649</ele>
        <time>2018-11-13T09:20:56.000Z</time>
      </trkpt>
      <trkpt lat="42.15058" lon="1.91319">
        <ele>967</ele>
        <time>2018-11-13T09:20:59.000Z</time>
      </trkpt>
      <trkpt lat="42.1505" lon="1.91312">
        <ele>969</ele>
        <time>2018-11-13T09:21:12.000Z</time>
      </trkpt>
      <trkpt lat="42.15041" lon="1.91307">
        <ele>971</ele>
        <time>2018-11-13T09:21:26.000Z</time>
      </trkpt>
      <trkpt lat="42.15033" lon="1.91301">
        <ele>973</ele>
        <time>2018-11-13T09:21:39.000Z</time>
      </trkpt>
      <trkpt lat="42.15025" lon="1.91296">
        <ele>975</ele>
        <time>2018-11-13T09:21:52.000Z</time>
      </trkpt>
      <trkpt lat="42.15017" lon="1.91294">
        <ele>978</ele>
        <time>2018-11-13T09:22:02.000Z</time>
      </trkpt>
      <trkpt lat="42.15008" lon="1.91289">
        <ele>980</ele>
        <time>2018-11-13T09:22:17.000Z</time>
      </trkpt>
      <trkpt lat="42.14998" lon="1.9129">
        <ele>982</ele>
        <time>2018-11-13T09:22:22.000Z</time>
      </trkpt>
      <trkpt lat="42.14994" lon="1.9129">
        <ele>982</ele>
        <time>2018-11-13T09:22:25.000Z</time>
      </trkpt>
      <trkpt lat="42.14991" lon="1.91289">
        <ele>982</ele>
        <time>2018-11-13T09:22:27.000Z</time>
      </trkpt>
      <trkpt lat="42.14983" lon="1.91285">
        <ele>984</ele>
        <time>2018-11-13T09:22:38.000Z</time>
      </trkpt>
      <trkpt lat="42.14973" lon="1.91281">
        <ele>984</ele>
        <time>2018-11-13T09:22:48.000Z</time>
      </trkpt>
      <trkpt lat="42.14964" lon="1.91277">
        <ele>984</ele>
        <time>2018-11-13T09:22:54.000Z</time>
      </trkpt>
      <trkpt lat="42.14958" lon="1.91267">
        <ele>984.92647529412</ele>
        <time>2018-11-13T09:23:03.000Z</time>
      </trkpt>
      <trkpt lat="42.14952" lon="1.9126">
        <ele>986.9699968</ele>
        <time>2018-11-13T09:23:10.000Z</time>
      </trkpt>
      <trkpt lat="42.14951" lon="1.91258">
        <ele>986.03191808056</ele>
        <time>2018-11-13T09:23:12.000Z</time>
      </trkpt>
      <trkpt lat="42.14949" lon="1.91257">
        <ele>986</ele>
        <time>2018-11-13T09:23:14.000Z</time>
      </trkpt>
      <trkpt lat="42.14947" lon="1.91257">
        <ele>986</ele>
        <time>2018-11-13T09:23:16.000Z</time>
      </trkpt>
      <trkpt lat="42.14944" lon="1.91254">
        <ele>986.9699968</ele>
        <time>2018-11-13T09:23:19.000Z</time>
      </trkpt>
      <trkpt lat="42.14942" lon="1.91253">
        <ele>988</ele>
        <time>2018-11-13T09:23:21.000Z</time>
      </trkpt>
      <trkpt lat="42.14939" lon="1.91252">
        <ele>987</ele>
        <time>2018-11-13T09:23:23.000Z</time>
      </trkpt>
      <trkpt lat="42.14937" lon="1.91252">
        <ele>988</ele>
        <time>2018-11-13T09:23:25.000Z</time>
      </trkpt>
      <trkpt lat="42.14934" lon="1.91251">
        <ele>988</ele>
        <time>2018-11-13T09:23:27.000Z</time>
      </trkpt>
      <trkpt lat="42.14931" lon="1.91252">
        <ele>988</ele>
        <time>2018-11-13T09:23:29.000Z</time>
      </trkpt>
      <trkpt lat="42.14929" lon="1.91254">
        <ele>988</ele>
        <time>2018-11-13T09:23:31.000Z</time>
      </trkpt>
      <trkpt lat="42.14927" lon="1.91256">
        <ele>988</ele>
        <time>2018-11-13T09:23:33.000Z</time>
      </trkpt>
      <trkpt lat="42.14925" lon="1.91258">
        <ele>987.06731076923</ele>
        <time>2018-11-13T09:23:35.000Z</time>
      </trkpt>
      <trkpt lat="42.14922" lon="1.9126">
        <ele>987</ele>
        <time>2018-11-13T09:23:37.000Z</time>
      </trkpt>
      <trkpt lat="42.1492" lon="1.91261">
        <ele>987</ele>
        <time>2018-11-13T09:23:39.000Z</time>
      </trkpt>
      <trkpt lat="42.14919" lon="1.91263">
        <ele>987</ele>
        <time>2018-11-13T09:23:41.000Z</time>
      </trkpt>
      <trkpt lat="42.14918" lon="1.91265">
        <ele>987</ele>
        <time>2018-11-13T09:23:43.000Z</time>
      </trkpt>
      <trkpt lat="42.14916" lon="1.91266">
        <ele>986.9699968</ele>
        <time>2018-11-13T09:23:45.000Z</time>
      </trkpt>
      <trkpt lat="42.14914" lon="1.91269">
        <ele>988</ele>
        <time>2018-11-13T09:23:50.000Z</time>
      </trkpt>
      <trkpt lat="42.14915" lon="1.91272">
        <ele>987.04901677814</ele>
        <time>2018-11-13T09:23:52.000Z</time>
      </trkpt>
      <trkpt lat="42.14916" lon="1.91275">
        <ele>987</ele>
        <time>2018-11-13T09:23:54.000Z</time>
      </trkpt>
      <trkpt lat="42.14916" lon="1.91279">
        <ele>987</ele>
        <time>2018-11-13T09:23:56.000Z</time>
      </trkpt>
      <trkpt lat="42.14916" lon="1.91282">
        <ele>987</ele>
        <time>2018-11-13T09:23:58.000Z</time>
      </trkpt>
      <trkpt lat="42.14916" lon="1.91285">
        <ele>987</ele>
        <time>2018-11-13T09:24:00.000Z</time>
      </trkpt>
      <trkpt lat="42.14915" lon="1.91287">
        <ele>987.89814518518</ele>
        <time>2018-11-13T09:24:02.000Z</time>
      </trkpt>
      <trkpt lat="42.14913" lon="1.91288">
        <ele>989</ele>
        <time>2018-11-13T09:24:04.000Z</time>
      </trkpt>
      <trkpt lat="42.14911" lon="1.91288">
        <ele>989</ele>
        <time>2018-11-13T09:24:07.000Z</time>
      </trkpt>
      <trkpt lat="42.14909" lon="1.91288">
        <ele>989.96773882764</ele>
        <time>2018-11-13T09:24:09.000Z</time>
      </trkpt>
      <trkpt lat="42.14906" lon="1.91287">
        <ele>990</ele>
        <time>2018-11-13T09:24:11.000Z</time>
      </trkpt>
      <trkpt lat="42.14905" lon="1.91286">
        <ele>990.9699968</ele>
        <time>2018-11-13T09:24:13.000Z</time>
      </trkpt>
      <trkpt lat="42.14903" lon="1.91284">
        <ele>992</ele>
        <time>2018-11-13T09:24:15.000Z</time>
      </trkpt>
      <trkpt lat="42.14901" lon="1.91282">
        <ele>992</ele>
        <time>2018-11-13T09:24:17.000Z</time>
      </trkpt>
      <trkpt lat="42.149" lon="1.9128">
        <ele>992.95651770642</ele>
        <time>2018-11-13T09:24:19.000Z</time>
      </trkpt>
      <trkpt lat="42.14898" lon="1.91279">
        <ele>992.112496</ele>
        <time>2018-11-13T09:24:22.000Z</time>
      </trkpt>
      <trkpt lat="42.14895" lon="1.91279">
        <ele>993</ele>
        <time>2018-11-13T09:24:24.000Z</time>
      </trkpt>
      <trkpt lat="42.14893" lon="1.91278">
        <ele>993</ele>
        <time>2018-11-13T09:24:26.000Z</time>
      </trkpt>
      <trkpt lat="42.14891" lon="1.91277">
        <ele>993</ele>
        <time>2018-11-13T09:24:30.000Z</time>
      </trkpt>
      <trkpt lat="42.14889" lon="1.91275">
        <ele>994</ele>
        <time>2018-11-13T09:24:32.000Z</time>
      </trkpt>
      <trkpt lat="42.14886" lon="1.91273">
        <ele>994.93268923077</ele>
        <time>2018-11-13T09:24:34.000Z</time>
      </trkpt>
      <trkpt lat="42.14884" lon="1.91272">
        <ele>996</ele>
        <time>2018-11-13T09:24:36.000Z</time>
      </trkpt>
      <trkpt lat="42.14882" lon="1.9127">
        <ele>996</ele>
        <time>2018-11-13T09:24:39.000Z</time>
      </trkpt>
      <trkpt lat="42.1488" lon="1.91269">
        <ele>996.9699968</ele>
        <time>2018-11-13T09:24:42.000Z</time>
      </trkpt>
      <trkpt lat="42.14877" lon="1.91268">
        <ele>997.9699968</ele>
        <time>2018-11-13T09:24:45.000Z</time>
      </trkpt>
      <trkpt lat="42.14876" lon="1.91266">
        <ele>998</ele>
        <time>2018-11-13T09:24:47.000Z</time>
      </trkpt>
      <trkpt lat="42.14874" lon="1.91264">
        <ele>998</ele>
        <time>2018-11-13T09:24:50.000Z</time>
      </trkpt>
      <trkpt lat="42.14872" lon="1.91262">
        <ele>999</ele>
        <time>2018-11-13T09:24:53.000Z</time>
      </trkpt>
      <trkpt lat="42.1487" lon="1.9126">
        <ele>999.92380929161</ele>
        <time>2018-11-13T09:24:55.000Z</time>
      </trkpt>
      <trkpt lat="42.14868" lon="1.91258">
        <ele>1000</ele>
        <time>2018-11-13T09:24:57.000Z</time>
      </trkpt>
      <trkpt lat="42.14865" lon="1.91256">
        <ele>1000</ele>
        <time>2018-11-13T09:24:59.000Z</time>
      </trkpt>
      <trkpt lat="42.14863" lon="1.91254">
        <ele>1000</ele>
        <time>2018-11-13T09:25:01.000Z</time>
      </trkpt>
      <trkpt lat="42.14861" lon="1.91253">
        <ele>1000</ele>
        <time>2018-11-13T09:25:03.000Z</time>
      </trkpt>
      <trkpt lat="42.14858" lon="1.91252">
        <ele>1001</ele>
        <time>2018-11-13T09:25:06.000Z</time>
      </trkpt>
      <trkpt lat="42.14859" lon="1.91255">
        <ele>1002</ele>
        <time>2018-11-13T09:25:10.000Z</time>
      </trkpt>
      <trkpt lat="42.1486" lon="1.91257">
        <ele>1002</ele>
        <time>2018-11-13T09:25:13.000Z</time>
      </trkpt>
      <trkpt lat="42.14862" lon="1.91259">
        <ele>1002</ele>
        <time>2018-11-13T09:25:17.000Z</time>
      </trkpt>
      <trkpt lat="42.14862" lon="1.91262">
        <ele>1003</ele>
        <time>2018-11-13T09:25:20.000Z</time>
      </trkpt>
      <trkpt lat="42.14863" lon="1.91265">
        <ele>1003.9699968</ele>
        <time>2018-11-13T09:25:23.000Z</time>
      </trkpt>
      <trkpt lat="42.14864" lon="1.91267">
        <ele>1005</ele>
        <time>2018-11-13T09:25:26.000Z</time>
      </trkpt>
      <trkpt lat="42.14866" lon="1.91269">
        <ele>1005.9693846897</ele>
        <time>2018-11-13T09:25:28.000Z</time>
      </trkpt>
      <trkpt lat="42.14867" lon="1.91271">
        <ele>1006</ele>
        <time>2018-11-13T09:25:30.000Z</time>
      </trkpt>
      <trkpt lat="42.14869" lon="1.91274">
        <ele>1006</ele>
        <time>2018-11-13T09:25:32.000Z</time>
      </trkpt>
      <trkpt lat="42.1487" lon="1.91275">
        <ele>1006.746155058</ele>
        <time>2018-11-13T09:25:34.000Z</time>
      </trkpt>
      <trkpt lat="42.14872" lon="1.91278">
        <ele>1007</ele>
        <time>2018-11-13T09:25:36.000Z</time>
      </trkpt>
      <trkpt lat="42.14873" lon="1.9128">
        <ele>1007.9699968</ele>
        <time>2018-11-13T09:25:39.000Z</time>
      </trkpt>
      <trkpt lat="42.14874" lon="1.91283">
        <ele>1008</ele>
        <time>2018-11-13T09:25:41.000Z</time>
      </trkpt>
      <trkpt lat="42.14875" lon="1.91285">
        <ele>1008</ele>
        <time>2018-11-13T09:25:44.000Z</time>
      </trkpt>
      <trkpt lat="42.14877" lon="1.91288">
        <ele>1008</ele>
        <time>2018-11-13T09:25:47.000Z</time>
      </trkpt>
      <trkpt lat="42.14879" lon="1.9129">
        <ele>1009</ele>
        <time>2018-11-13T09:25:50.000Z</time>
      </trkpt>
      <trkpt lat="42.14876" lon="1.9129">
        <ele>1010</ele>
        <time>2018-11-13T09:25:55.000Z</time>
      </trkpt>
      <trkpt lat="42.14874" lon="1.9129">
        <ele>1011</ele>
        <time>2018-11-13T09:25:59.000Z</time>
      </trkpt>
      <trkpt lat="42.14872" lon="1.91293">
        <ele>1012</ele>
        <time>2018-11-13T09:26:02.000Z</time>
      </trkpt>
      <trkpt lat="42.1487" lon="1.91295">
        <ele>1012</ele>
        <time>2018-11-13T09:26:05.000Z</time>
      </trkpt>
      <trkpt lat="42.1487" lon="1.91297">
        <ele>1012</ele>
        <time>2018-11-13T09:26:07.000Z</time>
      </trkpt>
      <trkpt lat="42.14869" lon="1.913">
        <ele>1012</ele>
        <time>2018-11-13T09:26:09.000Z</time>
      </trkpt>
      <trkpt lat="42.14869" lon="1.91304">
        <ele>1012</ele>
        <time>2018-11-13T09:26:11.000Z</time>
      </trkpt>
      <trkpt lat="42.14868" lon="1.91307">
        <ele>1012</ele>
        <time>2018-11-13T09:26:13.000Z</time>
      </trkpt>
      <trkpt lat="42.14867" lon="1.91309">
        <ele>1012</ele>
        <time>2018-11-13T09:26:15.000Z</time>
      </trkpt>
      <trkpt lat="42.14866" lon="1.91311">
        <ele>1012</ele>
        <time>2018-11-13T09:26:17.000Z</time>
      </trkpt>
      <trkpt lat="42.14865" lon="1.91314">
        <ele>1012</ele>
        <time>2018-11-13T09:26:19.000Z</time>
      </trkpt>
      <trkpt lat="42.14864" lon="1.91316">
        <ele>1013</ele>
        <time>2018-11-13T09:26:21.000Z</time>
      </trkpt>
      <trkpt lat="42.14864" lon="1.91319">
        <ele>1013</ele>
        <time>2018-11-13T09:26:23.000Z</time>
      </trkpt>
      <trkpt lat="42.14864" lon="1.91321">
        <ele>1014</ele>
        <time>2018-11-13T09:26:26.000Z</time>
      </trkpt>
      <trkpt lat="42.14864" lon="1.91324">
        <ele>1014</ele>
        <time>2018-11-13T09:26:29.000Z</time>
      </trkpt>
      <trkpt lat="42.14865" lon="1.91327">
        <ele>1014</ele>
        <time>2018-11-13T09:26:33.000Z</time>
      </trkpt>
      <trkpt lat="42.14864" lon="1.9133">
        <ele>1016</ele>
        <time>2018-11-13T09:26:36.000Z</time>
      </trkpt>
      <trkpt lat="42.14862" lon="1.91332">
        <ele>1016</ele>
        <time>2018-11-13T09:26:38.000Z</time>
      </trkpt>
      <trkpt lat="42.1486" lon="1.91333">
        <ele>1016</ele>
        <time>2018-11-13T09:26:40.000Z</time>
      </trkpt>
      <trkpt lat="42.14859" lon="1.91337">
        <ele>1016</ele>
        <time>2018-11-13T09:26:43.000Z</time>
      </trkpt>
      <trkpt lat="42.14859" lon="1.9134">
        <ele>1017</ele>
        <time>2018-11-13T09:26:45.000Z</time>
      </trkpt>
      <trkpt lat="42.14858" lon="1.91343">
        <ele>1018</ele>
        <time>2018-11-13T09:26:48.000Z</time>
      </trkpt>
      <trkpt lat="42.14858" lon="1.91347">
        <ele>1019</ele>
        <time>2018-11-13T09:26:53.000Z</time>
      </trkpt>
      <trkpt lat="42.14856" lon="1.91349">
        <ele>1020</ele>
        <time>2018-11-13T09:26:57.000Z</time>
      </trkpt>
      <trkpt lat="42.14856" lon="1.91352">
        <ele>1020</ele>
        <time>2018-11-13T09:27:05.000Z</time>
      </trkpt>
      <trkpt lat="42.14857" lon="1.91354">
        <ele>1021</ele>
        <time>2018-11-13T09:27:09.000Z</time>
      </trkpt>
      <trkpt lat="42.14856" lon="1.91357">
        <ele>1022</ele>
        <time>2018-11-13T09:27:12.000Z</time>
      </trkpt>
      <trkpt lat="42.14855" lon="1.91354">
        <ele>1025.9571386776</ele>
        <time>2018-11-13T09:27:23.000Z</time>
      </trkpt>
      <trkpt lat="42.14853" lon="1.91353">
        <ele>1026</ele>
        <time>2018-11-13T09:27:27.000Z</time>
      </trkpt>
      <trkpt lat="42.14851" lon="1.91351">
        <ele>1027</ele>
        <time>2018-11-13T09:27:33.000Z</time>
      </trkpt>
      <trkpt lat="42.14849" lon="1.9135">
        <ele>1027.9680819194</ele>
        <time>2018-11-13T09:27:35.000Z</time>
      </trkpt>
      <trkpt lat="42.14847" lon="1.91348">
        <ele>1028</ele>
        <time>2018-11-13T09:27:37.000Z</time>
      </trkpt>
      <trkpt lat="42.14845" lon="1.91347">
        <ele>1028</ele>
        <time>2018-11-13T09:27:39.000Z</time>
      </trkpt>
      <trkpt lat="42.14844" lon="1.91346">
        <ele>1028</ele>
        <time>2018-11-13T09:27:41.000Z</time>
      </trkpt>
      <trkpt lat="42.14842" lon="1.91345">
        <ele>1028</ele>
        <time>2018-11-13T09:27:44.000Z</time>
      </trkpt>
      <trkpt lat="42.14842" lon="1.91348">
        <ele>1029</ele>
        <time>2018-11-13T09:27:49.000Z</time>
      </trkpt>
      <trkpt lat="42.14841" lon="1.9135">
        <ele>1030.9699968</ele>
        <time>2018-11-13T09:27:53.000Z</time>
      </trkpt>
      <trkpt lat="42.1484" lon="1.91353">
        <ele>1031.9684177906</ele>
        <time>2018-11-13T09:27:58.000Z</time>
      </trkpt>
      <trkpt lat="42.14841" lon="1.91356">
        <ele>1033</ele>
        <time>2018-11-13T09:28:02.000Z</time>
      </trkpt>
      <trkpt lat="42.14841" lon="1.91358">
        <ele>1033</ele>
        <time>2018-11-13T09:28:06.000Z</time>
      </trkpt>
      <trkpt lat="42.14842" lon="1.91361">
        <ele>1034</ele>
        <time>2018-11-13T09:28:10.000Z</time>
      </trkpt>
      <trkpt lat="42.14842" lon="1.91364">
        <ele>1036</ele>
        <time>2018-11-13T09:28:15.000Z</time>
      </trkpt>
      <trkpt lat="42.14843" lon="1.91367">
        <ele>1036</ele>
        <time>2018-11-13T09:28:18.000Z</time>
      </trkpt>
      <trkpt lat="42.14843" lon="1.9137">
        <ele>1036</ele>
        <time>2018-11-13T09:28:21.000Z</time>
      </trkpt>
      <trkpt lat="42.14842" lon="1.91373">
        <ele>1036</ele>
        <time>2018-11-13T09:28:24.000Z</time>
      </trkpt>
      <trkpt lat="42.14843" lon="1.9137">
        <ele>1036</ele>
        <time>2018-11-13T09:28:33.000Z</time>
      </trkpt>
      <trkpt lat="42.14843" lon="1.91367">
        <ele>1036</ele>
        <time>2018-11-13T09:28:36.000Z</time>
      </trkpt>
      <trkpt lat="42.14842" lon="1.91368">
        <ele>1035</ele>
        <time>2018-11-13T09:28:44.000Z</time>
      </trkpt>
      <trkpt lat="42.14841" lon="1.91371">
        <ele>1033.0306153103</ele>
        <time>2018-11-13T09:28:48.000Z</time>
      </trkpt>
      <trkpt lat="42.1484" lon="1.91373">
        <ele>1033</ele>
        <time>2018-11-13T09:28:51.000Z</time>
      </trkpt>
      <trkpt lat="42.14839" lon="1.91375">
        <ele>1033</ele>
        <time>2018-11-13T09:28:54.000Z</time>
      </trkpt>
      <trkpt lat="42.14841" lon="1.91377">
        <ele>1032</ele>
        <time>2018-11-13T09:29:00.000Z</time>
      </trkpt>
      <trkpt lat="42.14841" lon="1.9138">
        <ele>1031</ele>
        <time>2018-11-13T09:29:03.000Z</time>
      </trkpt>
      <trkpt lat="42.14841" lon="1.91382">
        <ele>1030.0319180806</ele>
        <time>2018-11-13T09:29:07.000Z</time>
      </trkpt>
      <trkpt lat="42.14841" lon="1.91386">
        <ele>1029.0315822094</ele>
        <time>2018-11-13T09:29:10.000Z</time>
      </trkpt>
      <trkpt lat="42.14842" lon="1.91388">
        <ele>1028</ele>
        <time>2018-11-13T09:29:13.000Z</time>
      </trkpt>
      <trkpt lat="42.14842" lon="1.91392">
        <ele>1027.0312533333</ele>
        <time>2018-11-13T09:29:16.000Z</time>
      </trkpt>
      <trkpt lat="42.14842" lon="1.91395">
        <ele>1027</ele>
        <time>2018-11-13T09:29:18.000Z</time>
      </trkpt>
      <trkpt lat="42.14842" lon="1.91398">
        <ele>1026.0300032</ele>
        <time>2018-11-13T09:29:20.000Z</time>
      </trkpt>
      <trkpt lat="42.1484" lon="1.91401">
        <ele>1026</ele>
        <time>2018-11-13T09:29:22.000Z</time>
      </trkpt>
      <trkpt lat="42.14838" lon="1.91403">
        <ele>1026</ele>
        <time>2018-11-13T09:29:24.000Z</time>
      </trkpt>
      <trkpt lat="42.14836" lon="1.91406">
        <ele>1024.0309308279</ele>
        <time>2018-11-13T09:29:26.000Z</time>
      </trkpt>
      <trkpt lat="42.14835" lon="1.91409">
        <ele>1024</ele>
        <time>2018-11-13T09:29:28.000Z</time>
      </trkpt>
      <trkpt lat="42.14836" lon="1.91411">
        <ele>1025</ele>
        <time>2018-11-13T09:29:35.000Z</time>
      </trkpt>
      <trkpt lat="42.14838" lon="1.91413">
        <ele>1025</ele>
        <time>2018-11-13T09:29:38.000Z</time>
      </trkpt>
      <trkpt lat="42.1484" lon="1.91416">
        <ele>1025</ele>
        <time>2018-11-13T09:29:41.000Z</time>
      </trkpt>
      <trkpt lat="42.14838" lon="1.91418">
        <ele>1026</ele>
        <time>2018-11-13T09:29:44.000Z</time>
      </trkpt>
      <trkpt lat="42.14837" lon="1.91421">
        <ele>1027</ele>
        <time>2018-11-13T09:29:48.000Z</time>
      </trkpt>
      <trkpt lat="42.14838" lon="1.91424">
        <ele>1028</ele>
        <time>2018-11-13T09:29:51.000Z</time>
      </trkpt>
      <trkpt lat="42.14839" lon="1.91426">
        <ele>1028</ele>
        <time>2018-11-13T09:29:53.000Z</time>
      </trkpt>
      <trkpt lat="42.14839" lon="1.91429">
        <ele>1028</ele>
        <time>2018-11-13T09:29:56.000Z</time>
      </trkpt>
      <trkpt lat="42.14838" lon="1.91431">
        <ele>1029</ele>
        <time>2018-11-13T09:29:59.000Z</time>
      </trkpt>
      <trkpt lat="42.14836" lon="1.91431">
        <ele>1029</ele>
        <time>2018-11-13T09:30:04.000Z</time>
      </trkpt>
      <trkpt lat="42.14835" lon="1.91429">
        <ele>1030.1290309261</ele>
        <time>2018-11-13T09:30:10.000Z</time>
      </trkpt>
      <trkpt lat="42.14835" lon="1.91426">
        <ele>1029</ele>
        <time>2018-11-13T09:30:15.000Z</time>
      </trkpt>
      <trkpt lat="42.14835" lon="1.91423">
        <ele>1029</ele>
        <time>2018-11-13T09:30:17.000Z</time>
      </trkpt>
      <trkpt lat="42.14834" lon="1.91421">
        <ele>1029</ele>
        <time>2018-11-13T09:30:20.000Z</time>
      </trkpt>
      <trkpt lat="42.14836" lon="1.91419">
        <ele>1027.0333366518</ele>
        <time>2018-11-13T09:30:23.000Z</time>
      </trkpt>
      <trkpt lat="42.14836" lon="1.91417">
        <ele>1027</ele>
        <time>2018-11-13T09:30:25.000Z</time>
      </trkpt>
      <trkpt lat="42.14835" lon="1.91415">
        <ele>1026</ele>
        <time>2018-11-13T09:30:31.000Z</time>
      </trkpt>
      <trkpt lat="42.14833" lon="1.91413">
        <ele>1026</ele>
        <time>2018-11-13T09:30:34.000Z</time>
      </trkpt>
      <trkpt lat="42.14833" lon="1.9141">
        <ele>1025.7295094007</ele>
        <time>2018-11-13T09:30:38.000Z</time>
      </trkpt>
      <trkpt lat="42.14834" lon="1.91409">
        <ele>1025</ele>
        <time>2018-11-13T09:32:05.000Z</time>
      </trkpt>
      <trkpt lat="42.14836" lon="1.91406">
        <ele>1025</ele>
        <time>2018-11-13T09:32:07.000Z</time>
      </trkpt>
      <trkpt lat="42.14837" lon="1.91404">
        <ele>1025</ele>
        <time>2018-11-13T09:32:12.000Z</time>
      </trkpt>
      <trkpt lat="42.14839" lon="1.91401">
        <ele>1025</ele>
        <time>2018-11-13T09:32:14.000Z</time>
      </trkpt>
      <trkpt lat="42.1484" lon="1.91399">
        <ele>1026</ele>
        <time>2018-11-13T09:32:17.000Z</time>
      </trkpt>
      <trkpt lat="42.14841" lon="1.91395">
        <ele>1026</ele>
        <time>2018-11-13T09:32:20.000Z</time>
      </trkpt>
      <trkpt lat="42.14841" lon="1.91392">
        <ele>1026</ele>
        <time>2018-11-13T09:32:23.000Z</time>
      </trkpt>
      <trkpt lat="42.14841" lon="1.91389">
        <ele>1027</ele>
        <time>2018-11-13T09:32:26.000Z</time>
      </trkpt>
      <trkpt lat="42.14841" lon="1.91386">
        <ele>1028</ele>
        <time>2018-11-13T09:32:30.000Z</time>
      </trkpt>
      <trkpt lat="42.14841" lon="1.91383">
        <ele>1028</ele>
        <time>2018-11-13T09:32:34.000Z</time>
      </trkpt>
      <trkpt lat="42.14841" lon="1.9138">
        <ele>1029</ele>
        <time>2018-11-13T09:32:38.000Z</time>
      </trkpt>
      <trkpt lat="42.1484" lon="1.91378">
        <ele>1030</ele>
        <time>2018-11-13T09:32:42.000Z</time>
      </trkpt>
      <trkpt lat="42.14841" lon="1.91375">
        <ele>1031.9687466667</ele>
        <time>2018-11-13T09:32:45.000Z</time>
      </trkpt>
      <trkpt lat="42.14842" lon="1.91373">
        <ele>1032.9699968</ele>
        <time>2018-11-13T09:32:49.000Z</time>
      </trkpt>
      <trkpt lat="42.14843" lon="1.9137">
        <ele>1034</ele>
        <time>2018-11-13T09:32:53.000Z</time>
      </trkpt>
      <trkpt lat="42.14844" lon="1.91368">
        <ele>1035</ele>
        <time>2018-11-13T09:32:57.000Z</time>
      </trkpt>
      <trkpt lat="42.14845" lon="1.91365">
        <ele>1036</ele>
        <time>2018-11-13T09:33:01.000Z</time>
      </trkpt>
      <trkpt lat="42.14844" lon="1.91362">
        <ele>1035</ele>
        <time>2018-11-13T09:33:07.000Z</time>
      </trkpt>
      <trkpt lat="42.14843" lon="1.9136">
        <ele>1034</ele>
        <time>2018-11-13T09:33:10.000Z</time>
      </trkpt>
      <trkpt lat="42.14843" lon="1.91356">
        <ele>1033</ele>
        <time>2018-11-13T09:33:13.000Z</time>
      </trkpt>
      <trkpt lat="42.14842" lon="1.91354">
        <ele>1032</ele>
        <time>2018-11-13T09:33:15.000Z</time>
      </trkpt>
      <trkpt lat="42.14842" lon="1.91351">
        <ele>1031.0300032</ele>
        <time>2018-11-13T09:33:18.000Z</time>
      </trkpt>
      <trkpt lat="42.14842" lon="1.91349">
        <ele>1030</ele>
        <time>2018-11-13T09:33:21.000Z</time>
      </trkpt>
      <trkpt lat="42.1484" lon="1.91346">
        <ele>1030</ele>
        <time>2018-11-13T09:33:24.000Z</time>
      </trkpt>
      <trkpt lat="42.1484" lon="1.91343">
        <ele>1028.0582584598</ele>
        <time>2018-11-13T09:33:28.000Z</time>
      </trkpt>
      <trkpt lat="42.14842" lon="1.91343">
        <ele>1028</ele>
        <time>2018-11-13T09:33:31.000Z</time>
      </trkpt>
      <trkpt lat="42.14844" lon="1.91345">
        <ele>1028</ele>
        <time>2018-11-13T09:33:33.000Z</time>
      </trkpt>
      <trkpt lat="42.14846" lon="1.91347">
        <ele>1028</ele>
        <time>2018-11-13T09:33:35.000Z</time>
      </trkpt>
      <trkpt lat="42.14847" lon="1.91349">
        <ele>1028</ele>
        <time>2018-11-13T09:33:37.000Z</time>
      </trkpt>
      <trkpt lat="42.14849" lon="1.9135">
        <ele>1027.0582467565</ele>
        <time>2018-11-13T09:33:39.000Z</time>
      </trkpt>
      <trkpt lat="42.14851" lon="1.91351">
        <ele>1027</ele>
        <time>2018-11-13T09:33:41.000Z</time>
      </trkpt>
      <trkpt lat="42.14853" lon="1.91352">
        <ele>1026.0306153103</ele>
        <time>2018-11-13T09:33:43.000Z</time>
      </trkpt>
      <trkpt lat="42.14855" lon="1.91354">
        <ele>1025.0490167781</ele>
        <time>2018-11-13T09:33:45.000Z</time>
      </trkpt>
      <trkpt lat="42.14857" lon="1.91354">
        <ele>1024.0300032</ele>
        <time>2018-11-13T09:33:47.000Z</time>
      </trkpt>
      <trkpt lat="42.14859" lon="1.91354">
        <ele>1023</ele>
        <time>2018-11-13T09:33:50.000Z</time>
      </trkpt>
      <trkpt lat="42.14859" lon="1.91352">
        <ele>1021</ele>
        <time>2018-11-13T09:33:56.000Z</time>
      </trkpt>
      <trkpt lat="42.14859" lon="1.91349">
        <ele>1021</ele>
        <time>2018-11-13T09:33:58.000Z</time>
      </trkpt>
      <trkpt lat="42.1486" lon="1.91346">
        <ele>1021</ele>
        <time>2018-11-13T09:34:00.000Z</time>
      </trkpt>
      <trkpt lat="42.14859" lon="1.91343">
        <ele>1020</ele>
        <time>2018-11-13T09:34:03.000Z</time>
      </trkpt>
      <trkpt lat="42.1486" lon="1.9134">
        <ele>1019</ele>
        <time>2018-11-13T09:34:05.000Z</time>
      </trkpt>
      <trkpt lat="42.1486" lon="1.91337">
        <ele>1019</ele>
        <time>2018-11-13T09:34:07.000Z</time>
      </trkpt>
      <trkpt lat="42.14861" lon="1.91335">
        <ele>1018</ele>
        <time>2018-11-13T09:34:09.000Z</time>
      </trkpt>
      <trkpt lat="42.14863" lon="1.91335">
        <ele>1016.0300032</ele>
        <time>2018-11-13T09:34:11.000Z</time>
      </trkpt>
      <trkpt lat="42.14865" lon="1.91336">
        <ele>1016</ele>
        <time>2018-11-13T09:34:16.000Z</time>
      </trkpt>
      <trkpt lat="42.14867" lon="1.91332">
        <ele>1016</ele>
        <time>2018-11-13T09:34:23.000Z</time>
      </trkpt>
      <trkpt lat="42.14867" lon="1.91329">
        <ele>1015</ele>
        <time>2018-11-13T09:34:25.000Z</time>
      </trkpt>
      <trkpt lat="42.14866" lon="1.91326">
        <ele>1015</ele>
        <time>2018-11-13T09:34:27.000Z</time>
      </trkpt>
      <trkpt lat="42.14864" lon="1.91324">
        <ele>1015</ele>
        <time>2018-11-13T09:34:28.000Z</time>
      </trkpt>
      <trkpt lat="42.14863" lon="1.91321">
        <ele>1014.0333366518</ele>
        <time>2018-11-13T09:34:30.000Z</time>
      </trkpt>
      <trkpt lat="42.14863" lon="1.91316">
        <ele>1014</ele>
        <time>2018-11-13T09:34:32.000Z</time>
      </trkpt>
      <trkpt lat="42.14863" lon="1.91314">
        <ele>1014</ele>
        <time>2018-11-13T09:34:33.000Z</time>
      </trkpt>
      <trkpt lat="42.14863" lon="1.91312">
        <ele>1014</ele>
        <time>2018-11-13T09:34:34.000Z</time>
      </trkpt>
      <trkpt lat="42.14864" lon="1.91307">
        <ele>1013</ele>
        <time>2018-11-13T09:34:36.000Z</time>
      </trkpt>
      <trkpt lat="42.14865" lon="1.91305">
        <ele>1013</ele>
        <time>2018-11-13T09:34:37.000Z</time>
      </trkpt>
      <trkpt lat="42.14865" lon="1.91301">
        <ele>1012</ele>
        <time>2018-11-13T09:34:39.000Z</time>
      </trkpt>
      <trkpt lat="42.14865" lon="1.91298">
        <ele>1012</ele>
        <time>2018-11-13T09:34:40.000Z</time>
      </trkpt>
      <trkpt lat="42.14866" lon="1.91295">
        <ele>1012</ele>
        <time>2018-11-13T09:34:42.000Z</time>
      </trkpt>
      <trkpt lat="42.14867" lon="1.91292">
        <ele>1011.0434831002</ele>
        <time>2018-11-13T09:34:44.000Z</time>
      </trkpt>
      <trkpt lat="42.14869" lon="1.91289">
        <ele>1011</ele>
        <time>2018-11-13T09:34:47.000Z</time>
      </trkpt>
      <trkpt lat="42.1487" lon="1.91287">
        <ele>1010.0319180806</ele>
        <time>2018-11-13T09:34:49.000Z</time>
      </trkpt>
      <trkpt lat="42.14873" lon="1.91287">
        <ele>1010</ele>
        <time>2018-11-13T09:34:52.000Z</time>
      </trkpt>
      <trkpt lat="42.14875" lon="1.91287">
        <ele>1009.0761907084</ele>
        <time>2018-11-13T09:34:54.000Z</time>
      </trkpt>
      <trkpt lat="42.14874" lon="1.91285">
        <ele>1009</ele>
        <time>2018-11-13T09:34:58.000Z</time>
      </trkpt>
      <trkpt lat="42.14873" lon="1.91282">
        <ele>1009</ele>
        <time>2018-11-13T09:35:00.000Z</time>
      </trkpt>
      <trkpt lat="42.14871" lon="1.9128">
        <ele>1007.0761907084</ele>
        <time>2018-11-13T09:35:03.000Z</time>
      </trkpt>
      <trkpt lat="42.1487" lon="1.91277">
        <ele>1007</ele>
        <time>2018-11-13T09:35:05.000Z</time>
      </trkpt>
      <trkpt lat="42.14868" lon="1.91275">
        <ele>1006.0849031541</ele>
        <time>2018-11-13T09:35:07.000Z</time>
      </trkpt>
      <trkpt lat="42.14866" lon="1.91272">
        <ele>1005</ele>
        <time>2018-11-13T09:35:09.000Z</time>
      </trkpt>
      <trkpt lat="42.14865" lon="1.9127">
        <ele>1005</ele>
        <time>2018-11-13T09:35:11.000Z</time>
      </trkpt>
      <trkpt lat="42.14863" lon="1.91268">
        <ele>1005</ele>
        <time>2018-11-13T09:35:13.000Z</time>
      </trkpt>
      <trkpt lat="42.14862" lon="1.91265">
        <ele>1004.0300032</ele>
        <time>2018-11-13T09:35:15.000Z</time>
      </trkpt>
      <trkpt lat="42.14861" lon="1.91263">
        <ele>1003</ele>
        <time>2018-11-13T09:35:17.000Z</time>
      </trkpt>
      <trkpt lat="42.14859" lon="1.9126">
        <ele>1002</ele>
        <time>2018-11-13T09:35:20.000Z</time>
      </trkpt>
      <trkpt lat="42.14856" lon="1.91259">
        <ele>1002</ele>
        <time>2018-11-13T09:35:22.000Z</time>
      </trkpt>
      <trkpt lat="42.14855" lon="1.91256">
        <ele>1002</ele>
        <time>2018-11-13T09:35:24.000Z</time>
      </trkpt>
      <trkpt lat="42.14853" lon="1.91254">
        <ele>1000.0315822094</ele>
        <time>2018-11-13T09:35:27.000Z</time>
      </trkpt>
      <trkpt lat="42.14856" lon="1.91254">
        <ele>1000</ele>
        <time>2018-11-13T09:35:31.000Z</time>
      </trkpt>
      <trkpt lat="42.14858" lon="1.91254">
        <ele>999</ele>
        <time>2018-11-13T09:35:33.000Z</time>
      </trkpt>
      <trkpt lat="42.14861" lon="1.91255">
        <ele>999</ele>
        <time>2018-11-13T09:35:35.000Z</time>
      </trkpt>
      <trkpt lat="42.14863" lon="1.91258">
        <ele>999</ele>
        <time>2018-11-13T09:35:37.000Z</time>
      </trkpt>
      <trkpt lat="42.14866" lon="1.9126">
        <ele>999</ele>
        <time>2018-11-13T09:35:39.000Z</time>
      </trkpt>
      <trkpt lat="42.14869" lon="1.91261">
        <ele>998</ele>
        <time>2018-11-13T09:35:41.000Z</time>
      </trkpt>
      <trkpt lat="42.14872" lon="1.91263">
        <ele>997</ele>
        <time>2018-11-13T09:35:43.000Z</time>
      </trkpt>
      <trkpt lat="42.14875" lon="1.91264">
        <ele>996.04762388509</ele>
        <time>2018-11-13T09:35:45.000Z</time>
      </trkpt>
      <trkpt lat="42.14878" lon="1.91265">
        <ele>996</ele>
        <time>2018-11-13T09:35:47.000Z</time>
      </trkpt>
      <trkpt lat="42.1488" lon="1.91266">
        <ele>995.0300032</ele>
        <time>2018-11-13T09:35:48.000Z</time>
      </trkpt>
      <trkpt lat="42.14883" lon="1.91268">
        <ele>995</ele>
        <time>2018-11-13T09:35:50.000Z</time>
      </trkpt>
      <trkpt lat="42.14885" lon="1.91269">
        <ele>995</ele>
        <time>2018-11-13T09:35:51.000Z</time>
      </trkpt>
      <trkpt lat="42.14887" lon="1.9127">
        <ele>995</ele>
        <time>2018-11-13T09:35:52.000Z</time>
      </trkpt>
      <trkpt lat="42.14888" lon="1.91271">
        <ele>995</ele>
        <time>2018-11-13T09:35:53.000Z</time>
      </trkpt>
      <trkpt lat="42.1489" lon="1.91272">
        <ele>994.0300032</ele>
        <time>2018-11-13T09:35:54.000Z</time>
      </trkpt>
      <trkpt lat="42.14892" lon="1.91273">
        <ele>994</ele>
        <time>2018-11-13T09:35:55.000Z</time>
      </trkpt>
      <trkpt lat="42.14895" lon="1.91273">
        <ele>992.0300032</ele>
        <time>2018-11-13T09:35:57.000Z</time>
      </trkpt>
      <trkpt lat="42.14897" lon="1.91274">
        <ele>992</ele>
        <time>2018-11-13T09:35:58.000Z</time>
      </trkpt>
      <trkpt lat="42.149" lon="1.91276">
        <ele>992</ele>
        <time>2018-11-13T09:36:00.000Z</time>
      </trkpt>
      <trkpt lat="42.14902" lon="1.91279">
        <ele>991</ele>
        <time>2018-11-13T09:36:02.000Z</time>
      </trkpt>
      <trkpt lat="42.14904" lon="1.9128">
        <ele>990.08490315413</ele>
        <time>2018-11-13T09:36:04.000Z</time>
      </trkpt>
      <trkpt lat="42.14906" lon="1.91281">
        <ele>989</ele>
        <time>2018-11-13T09:36:06.000Z</time>
      </trkpt>
      <trkpt lat="42.14908" lon="1.91282">
        <ele>989</ele>
        <time>2018-11-13T09:36:07.000Z</time>
      </trkpt>
      <trkpt lat="42.14911" lon="1.91281">
        <ele>989</ele>
        <time>2018-11-13T09:36:09.000Z</time>
      </trkpt>
      <trkpt lat="42.14912" lon="1.91279">
        <ele>988</ele>
        <time>2018-11-13T09:36:12.000Z</time>
      </trkpt>
      <trkpt lat="42.14911" lon="1.91276">
        <ele>987</ele>
        <time>2018-11-13T09:36:15.000Z</time>
      </trkpt>
      <trkpt lat="42.14909" lon="1.91272">
        <ele>987</ele>
        <time>2018-11-13T09:36:17.000Z</time>
      </trkpt>
      <trkpt lat="42.14909" lon="1.91269">
        <ele>987</ele>
        <time>2018-11-13T09:36:19.000Z</time>
      </trkpt>
      <trkpt lat="42.14909" lon="1.91266">
        <ele>987</ele>
        <time>2018-11-13T09:36:21.000Z</time>
      </trkpt>
      <trkpt lat="42.14907" lon="1.91264">
        <ele>987</ele>
        <time>2018-11-13T09:36:23.000Z</time>
      </trkpt>
      <trkpt lat="42.14905" lon="1.91261">
        <ele>986</ele>
        <time>2018-11-13T09:36:25.000Z</time>
      </trkpt>
      <trkpt lat="42.14903" lon="1.91258">
        <ele>986</ele>
        <time>2018-11-13T09:36:27.000Z</time>
      </trkpt>
      <trkpt lat="42.149" lon="1.91255">
        <ele>986</ele>
        <time>2018-11-13T09:36:29.000Z</time>
      </trkpt>
      <trkpt lat="42.14898" lon="1.91253">
        <ele>986</ele>
        <time>2018-11-13T09:36:30.000Z</time>
      </trkpt>
      <trkpt lat="42.14896" lon="1.9125">
        <ele>986</ele>
        <time>2018-11-13T09:36:31.000Z</time>
      </trkpt>
      <trkpt lat="42.14894" lon="1.91248">
        <ele>986</ele>
        <time>2018-11-13T09:36:32.000Z</time>
      </trkpt>
      <trkpt lat="42.14893" lon="1.91246">
        <ele>986</ele>
        <time>2018-11-13T09:36:33.000Z</time>
      </trkpt>
      <trkpt lat="42.14891" lon="1.91244">
        <ele>986</ele>
        <time>2018-11-13T09:36:34.000Z</time>
      </trkpt>
      <trkpt lat="42.1489" lon="1.91242">
        <ele>985.09346364572</ele>
        <time>2018-11-13T09:36:35.000Z</time>
      </trkpt>
      <trkpt lat="42.14889" lon="1.9124">
        <ele>984.03226161638</ele>
        <time>2018-11-13T09:36:36.000Z</time>
      </trkpt>
      <trkpt lat="42.14887" lon="1.91237">
        <ele>984</ele>
        <time>2018-11-13T09:36:37.000Z</time>
      </trkpt>
      <trkpt lat="42.14885" lon="1.91234">
        <ele>984</ele>
        <time>2018-11-13T09:36:38.000Z</time>
      </trkpt>
      <trkpt lat="42.14884" lon="1.91231">
        <ele>984</ele>
        <time>2018-11-13T09:36:39.000Z</time>
      </trkpt>
      <trkpt lat="42.14883" lon="1.91228">
        <ele>984</ele>
        <time>2018-11-13T09:36:40.000Z</time>
      </trkpt>
      <trkpt lat="42.14881" lon="1.91226">
        <ele>984</ele>
        <time>2018-11-13T09:36:41.000Z</time>
      </trkpt>
      <trkpt lat="42.1488" lon="1.91223">
        <ele>983.0300032</ele>
        <time>2018-11-13T09:36:42.000Z</time>
      </trkpt>
      <trkpt lat="42.14879" lon="1.9122">
        <ele>983</ele>
        <time>2018-11-13T09:36:43.000Z</time>
      </trkpt>
      <trkpt lat="42.14878" lon="1.91217">
        <ele>982.0300032</ele>
        <time>2018-11-13T09:36:44.000Z</time>
      </trkpt>
      <trkpt lat="42.14878" lon="1.91214">
        <ele>982</ele>
        <time>2018-11-13T09:36:45.000Z</time>
      </trkpt>
      <trkpt lat="42.14878" lon="1.9121">
        <ele>981.0309308279</ele>
        <time>2018-11-13T09:36:46.000Z</time>
      </trkpt>
      <trkpt lat="42.14878" lon="1.91206">
        <ele>981</ele>
        <time>2018-11-13T09:36:47.000Z</time>
      </trkpt>
      <trkpt lat="42.14877" lon="1.91203">
        <ele>981</ele>
        <time>2018-11-13T09:36:48.000Z</time>
      </trkpt>
      <trkpt lat="42.14876" lon="1.912">
        <ele>981</ele>
        <time>2018-11-13T09:36:49.000Z</time>
      </trkpt>
      <trkpt lat="42.14875" lon="1.91196">
        <ele>981</ele>
        <time>2018-11-13T09:36:50.000Z</time>
      </trkpt>
      <trkpt lat="42.14875" lon="1.91193">
        <ele>980.05824675648</ele>
        <time>2018-11-13T09:36:51.000Z</time>
      </trkpt>
      <trkpt lat="42.14874" lon="1.9119">
        <ele>980</ele>
        <time>2018-11-13T09:36:52.000Z</time>
      </trkpt>
      <trkpt lat="42.14873" lon="1.91187">
        <ele>980</ele>
        <time>2018-11-13T09:36:53.000Z</time>
      </trkpt>
      <trkpt lat="42.14872" lon="1.91184">
        <ele>980</ele>
        <time>2018-11-13T09:36:54.000Z</time>
      </trkpt>
      <trkpt lat="42.1487" lon="1.9118">
        <ele>980</ele>
        <time>2018-11-13T09:36:55.000Z</time>
      </trkpt>
      <trkpt lat="42.14869" lon="1.91177">
        <ele>980</ele>
        <time>2018-11-13T09:36:56.000Z</time>
      </trkpt>
      <trkpt lat="42.14867" lon="1.91174">
        <ele>980</ele>
        <time>2018-11-13T09:36:57.000Z</time>
      </trkpt>
      <trkpt lat="42.14866" lon="1.91171">
        <ele>980</ele>
        <time>2018-11-13T09:36:58.000Z</time>
      </trkpt>
      <trkpt lat="42.14865" lon="1.91168">
        <ele>979.06944</ele>
        <time>2018-11-13T09:36:59.000Z</time>
      </trkpt>
      <trkpt lat="42.14863" lon="1.91165">
        <ele>979</ele>
        <time>2018-11-13T09:37:00.000Z</time>
      </trkpt>
      <trkpt lat="42.14862" lon="1.91162">
        <ele>977.18692729143</ele>
        <time>2018-11-13T09:37:01.000Z</time>
      </trkpt>
      <trkpt lat="42.14861" lon="1.91158">
        <ele>977</ele>
        <time>2018-11-13T09:37:02.000Z</time>
      </trkpt>
      <trkpt lat="42.1486" lon="1.91155">
        <ele>977</ele>
        <time>2018-11-13T09:37:03.000Z</time>
      </trkpt>
      <trkpt lat="42.14859" lon="1.91152">
        <ele>977</ele>
        <time>2018-11-13T09:37:04.000Z</time>
      </trkpt>
      <trkpt lat="42.14858" lon="1.91149">
        <ele>977</ele>
        <time>2018-11-13T09:37:05.000Z</time>
      </trkpt>
      <trkpt lat="42.14858" lon="1.91146">
        <ele>977</ele>
        <time>2018-11-13T09:37:06.000Z</time>
      </trkpt>
      <trkpt lat="42.14858" lon="1.91144">
        <ele>977</ele>
        <time>2018-11-13T09:37:07.000Z</time>
      </trkpt>
      <trkpt lat="42.14857" lon="1.91141">
        <ele>977</ele>
        <time>2018-11-13T09:37:08.000Z</time>
      </trkpt>
      <trkpt lat="42.14857" lon="1.91138">
        <ele>977</ele>
        <time>2018-11-13T09:37:09.000Z</time>
      </trkpt>
      <trkpt lat="42.14856" lon="1.91135">
        <ele>976.08490315413</ele>
        <time>2018-11-13T09:37:10.000Z</time>
      </trkpt>
      <trkpt lat="42.14856" lon="1.91132">
        <ele>975.03191808056</ele>
        <time>2018-11-13T09:37:11.000Z</time>
      </trkpt>
      <trkpt lat="42.14855" lon="1.91129">
        <ele>975</ele>
        <time>2018-11-13T09:37:12.000Z</time>
      </trkpt>
      <trkpt lat="42.14855" lon="1.91126">
        <ele>975</ele>
        <time>2018-11-13T09:37:13.000Z</time>
      </trkpt>
      <trkpt lat="42.14855" lon="1.91123">
        <ele>974.0300032</ele>
        <time>2018-11-13T09:37:14.000Z</time>
      </trkpt>
      <trkpt lat="42.14854" lon="1.91119">
        <ele>973.0300032</ele>
        <time>2018-11-13T09:37:15.000Z</time>
      </trkpt>
      <trkpt lat="42.14854" lon="1.91116">
        <ele>973</ele>
        <time>2018-11-13T09:37:16.000Z</time>
      </trkpt>
      <trkpt lat="42.14855" lon="1.91112">
        <ele>972.4619893109</ele>
        <time>2018-11-13T09:37:17.000Z</time>
      </trkpt>
      <trkpt lat="42.14856" lon="1.91108">
        <ele>972</ele>
        <time>2018-11-13T09:37:18.000Z</time>
      </trkpt>
      <trkpt lat="42.14857" lon="1.91105">
        <ele>972</ele>
        <time>2018-11-13T09:37:19.000Z</time>
      </trkpt>
      <trkpt lat="42.14858" lon="1.91101">
        <ele>971.05825845978</ele>
        <time>2018-11-13T09:37:20.000Z</time>
      </trkpt>
      <trkpt lat="42.1486" lon="1.91097">
        <ele>971</ele>
        <time>2018-11-13T09:37:21.000Z</time>
      </trkpt>
      <trkpt lat="42.14862" lon="1.91094">
        <ele>971</ele>
        <time>2018-11-13T09:37:22.000Z</time>
      </trkpt>
      <trkpt lat="42.14864" lon="1.91092">
        <ele>971</ele>
        <time>2018-11-13T09:37:23.000Z</time>
      </trkpt>
      <trkpt lat="42.14865" lon="1.91089">
        <ele>970.03261217391</ele>
        <time>2018-11-13T09:37:24.000Z</time>
      </trkpt>
      <trkpt lat="42.14866" lon="1.91087">
        <ele>969.0300032</ele>
        <time>2018-11-13T09:37:25.000Z</time>
      </trkpt>
      <trkpt lat="42.14869" lon="1.91083">
        <ele>968</ele>
        <time>2018-11-13T09:37:27.000Z</time>
      </trkpt>
      <trkpt lat="42.1487" lon="1.91081">
        <ele>967.0300032</ele>
        <time>2018-11-13T09:37:28.000Z</time>
      </trkpt>
      <trkpt lat="42.14871" lon="1.91078">
        <ele>967</ele>
        <time>2018-11-13T09:37:29.000Z</time>
      </trkpt>
      <trkpt lat="42.14873" lon="1.91074">
        <ele>966</ele>
        <time>2018-11-13T09:37:31.000Z</time>
      </trkpt>
      <trkpt lat="42.14873" lon="1.91072">
        <ele>965.0300032</ele>
        <time>2018-11-13T09:37:32.000Z</time>
      </trkpt>
      <trkpt lat="42.14873" lon="1.91068">
        <ele>964.0300032</ele>
        <time>2018-11-13T09:37:33.000Z</time>
      </trkpt>
      <trkpt lat="42.14873" lon="1.91065">
        <ele>964</ele>
        <time>2018-11-13T09:37:34.000Z</time>
      </trkpt>
      <trkpt lat="42.14873" lon="1.91062">
        <ele>964</ele>
        <time>2018-11-13T09:37:35.000Z</time>
      </trkpt>
      <trkpt lat="42.14873" lon="1.9106">
        <ele>963.25384494201</ele>
        <time>2018-11-13T09:37:36.000Z</time>
      </trkpt>
      <trkpt lat="42.14873" lon="1.91057">
        <ele>963</ele>
        <time>2018-11-13T09:37:37.000Z</time>
      </trkpt>
      <trkpt lat="42.14872" lon="1.91053">
        <ele>963</ele>
        <time>2018-11-13T09:37:38.000Z</time>
      </trkpt>
      <trkpt lat="42.14872" lon="1.9105">
        <ele>962.04286132241</ele>
        <time>2018-11-13T09:37:39.000Z</time>
      </trkpt>
      <trkpt lat="42.14871" lon="1.91048">
        <ele>962</ele>
        <time>2018-11-13T09:37:40.000Z</time>
      </trkpt>
      <trkpt lat="42.1487" lon="1.91046">
        <ele>962</ele>
        <time>2018-11-13T09:37:41.000Z</time>
      </trkpt>
      <trkpt lat="42.14868" lon="1.91045">
        <ele>961.03158220941</ele>
        <time>2018-11-13T09:37:42.000Z</time>
      </trkpt>
      <trkpt lat="42.14867" lon="1.91043">
        <ele>961</ele>
        <time>2018-11-13T09:37:43.000Z</time>
      </trkpt>
      <trkpt lat="42.14865" lon="1.9104">
        <ele>961</ele>
        <time>2018-11-13T09:37:44.000Z</time>
      </trkpt>
      <trkpt lat="42.14863" lon="1.91038">
        <ele>960.03125333333</ele>
        <time>2018-11-13T09:37:45.000Z</time>
      </trkpt>
      <trkpt lat="42.14861" lon="1.91036">
        <ele>959.0300032</ele>
        <time>2018-11-13T09:37:46.000Z</time>
      </trkpt>
      <trkpt lat="42.14859" lon="1.91034">
        <ele>959</ele>
        <time>2018-11-13T09:37:47.000Z</time>
      </trkpt>
      <trkpt lat="42.14857" lon="1.91032">
        <ele>958.03125333333</ele>
        <time>2018-11-13T09:37:48.000Z</time>
      </trkpt>
      <trkpt lat="42.14856" lon="1.9103">
        <ele>958</ele>
        <time>2018-11-13T09:37:49.000Z</time>
      </trkpt>
      <trkpt lat="42.14853" lon="1.91027">
        <ele>957.03125333333</ele>
        <time>2018-11-13T09:37:51.000Z</time>
      </trkpt>
      <trkpt lat="42.14852" lon="1.91025">
        <ele>956.0300032</ele>
        <time>2018-11-13T09:37:52.000Z</time>
      </trkpt>
      <trkpt lat="42.1485" lon="1.91022">
        <ele>955.05824675648</ele>
        <time>2018-11-13T09:37:53.000Z</time>
      </trkpt>
      <trkpt lat="42.14849" lon="1.9102">
        <ele>955</ele>
        <time>2018-11-13T09:37:54.000Z</time>
      </trkpt>
      <trkpt lat="42.14848" lon="1.91017">
        <ele>955</ele>
        <time>2018-11-13T09:37:55.000Z</time>
      </trkpt>
      <trkpt lat="42.14847" lon="1.91015">
        <ele>955</ele>
        <time>2018-11-13T09:37:56.000Z</time>
      </trkpt>
      <trkpt lat="42.14847" lon="1.91012">
        <ele>955</ele>
        <time>2018-11-13T09:37:57.000Z</time>
      </trkpt>
      <trkpt lat="42.14846" lon="1.91008">
        <ele>953</ele>
        <time>2018-11-13T09:37:59.000Z</time>
      </trkpt>
      <trkpt lat="42.14844" lon="1.91007">
        <ele>953</ele>
        <time>2018-11-13T09:38:01.000Z</time>
      </trkpt>
      <trkpt lat="42.14842" lon="1.91004">
        <ele>953</ele>
        <time>2018-11-13T09:38:03.000Z</time>
      </trkpt>
      <trkpt lat="42.1484" lon="1.91001">
        <ele>953</ele>
        <time>2018-11-13T09:38:05.000Z</time>
      </trkpt>
      <trkpt lat="42.14837" lon="1.90999">
        <ele>952.04286132241</ele>
        <time>2018-11-13T09:38:07.000Z</time>
      </trkpt>
      <trkpt lat="42.14835" lon="1.90998">
        <ele>952</ele>
        <time>2018-11-13T09:38:08.000Z</time>
      </trkpt>
      <trkpt lat="42.14834" lon="1.90997">
        <ele>952</ele>
        <time>2018-11-13T09:38:09.000Z</time>
      </trkpt>
      <trkpt lat="42.14831" lon="1.90995">
        <ele>951</ele>
        <time>2018-11-13T09:38:11.000Z</time>
      </trkpt>
      <trkpt lat="42.14829" lon="1.90995">
        <ele>951</ele>
        <time>2018-11-13T09:38:13.000Z</time>
      </trkpt>
      <trkpt lat="42.14826" lon="1.90994">
        <ele>950</ele>
        <time>2018-11-13T09:38:15.000Z</time>
      </trkpt>
      <trkpt lat="42.14824" lon="1.90994">
        <ele>950</ele>
        <time>2018-11-13T09:38:17.000Z</time>
      </trkpt>
      <trkpt lat="42.14822" lon="1.90992">
        <ele>949</ele>
        <time>2018-11-13T09:38:19.000Z</time>
      </trkpt>
      <trkpt lat="42.14819" lon="1.9099">
        <ele>948</ele>
        <time>2018-11-13T09:38:22.000Z</time>
      </trkpt>
      <trkpt lat="42.14817" lon="1.90988">
        <ele>948</ele>
        <time>2018-11-13T09:38:24.000Z</time>
      </trkpt>
      <trkpt lat="42.14816" lon="1.90986">
        <ele>947</ele>
        <time>2018-11-13T09:38:26.000Z</time>
      </trkpt>
      <trkpt lat="42.14814" lon="1.90983">
        <ele>946.0300032</ele>
        <time>2018-11-13T09:38:28.000Z</time>
      </trkpt>
      <trkpt lat="42.14813" lon="1.9098">
        <ele>946</ele>
        <time>2018-11-13T09:38:30.000Z</time>
      </trkpt>
      <trkpt lat="42.14811" lon="1.90977">
        <ele>945</ele>
        <time>2018-11-13T09:38:32.000Z</time>
      </trkpt>
      <trkpt lat="42.1481" lon="1.90974">
        <ele>945</ele>
        <time>2018-11-13T09:38:34.000Z</time>
      </trkpt>
      <trkpt lat="42.14808" lon="1.90971">
        <ele>945</ele>
        <time>2018-11-13T09:38:36.000Z</time>
      </trkpt>
      <trkpt lat="42.14806" lon="1.90969">
        <ele>944</ele>
        <time>2018-11-13T09:38:38.000Z</time>
      </trkpt>
      <trkpt lat="42.14803" lon="1.90967">
        <ele>944</ele>
        <time>2018-11-13T09:38:40.000Z</time>
      </trkpt>
      <trkpt lat="42.148" lon="1.90966">
        <ele>944</ele>
        <time>2018-11-13T09:38:42.000Z</time>
      </trkpt>
      <trkpt lat="42.14798" lon="1.90965">
        <ele>943.04348310021</ele>
        <time>2018-11-13T09:38:44.000Z</time>
      </trkpt>
      <trkpt lat="42.14795" lon="1.90963">
        <ele>942</ele>
        <time>2018-11-13T09:38:47.000Z</time>
      </trkpt>
      <trkpt lat="42.14793" lon="1.90962">
        <ele>941.06731076923</ele>
        <time>2018-11-13T09:38:49.000Z</time>
      </trkpt>
      <trkpt lat="42.14791" lon="1.90962">
        <ele>941</ele>
        <time>2018-11-13T09:38:51.000Z</time>
      </trkpt>
      <trkpt lat="42.14788" lon="1.90961">
        <ele>941</ele>
        <time>2018-11-13T09:38:53.000Z</time>
      </trkpt>
      <trkpt lat="42.14786" lon="1.90961">
        <ele>939.18692729143</ele>
        <time>2018-11-13T09:38:55.000Z</time>
      </trkpt>
      <trkpt lat="42.14784" lon="1.90961">
        <ele>938</ele>
        <time>2018-11-13T09:38:57.000Z</time>
      </trkpt>
      <trkpt lat="42.14782" lon="1.90962">
        <ele>938</ele>
        <time>2018-11-13T09:38:59.000Z</time>
      </trkpt>
      <trkpt lat="42.1478" lon="1.90963">
        <ele>938</ele>
        <time>2018-11-13T09:39:01.000Z</time>
      </trkpt>
      <trkpt lat="42.14778" lon="1.90963">
        <ele>938</ele>
        <time>2018-11-13T09:39:03.000Z</time>
      </trkpt>
      <trkpt lat="42.14776" lon="1.90965">
        <ele>938</ele>
        <time>2018-11-13T09:39:05.000Z</time>
      </trkpt>
      <trkpt lat="42.14777" lon="1.9097">
        <ele>936.07619070839</ele>
        <time>2018-11-13T09:39:07.000Z</time>
      </trkpt>
      <trkpt lat="42.14778" lon="1.90972">
        <ele>936</ele>
        <time>2018-11-13T09:39:08.000Z</time>
      </trkpt>
      <trkpt lat="42.14779" lon="1.90975">
        <ele>935.0300032</ele>
        <time>2018-11-13T09:39:09.000Z</time>
      </trkpt>
      <trkpt lat="42.1478" lon="1.90978">
        <ele>935</ele>
        <time>2018-11-13T09:39:10.000Z</time>
      </trkpt>
      <trkpt lat="42.14781" lon="1.9098">
        <ele>935</ele>
        <time>2018-11-13T09:39:11.000Z</time>
      </trkpt>
      <trkpt lat="42.14782" lon="1.90984">
        <ele>934.05633777425</ele>
        <time>2018-11-13T09:39:12.000Z</time>
      </trkpt>
      <trkpt lat="42.14784" lon="1.90988">
        <ele>934</ele>
        <time>2018-11-13T09:39:13.000Z</time>
      </trkpt>
      <trkpt lat="42.14785" lon="1.90991">
        <ele>934</ele>
        <time>2018-11-13T09:39:14.000Z</time>
      </trkpt>
      <trkpt lat="42.14787" lon="1.90994">
        <ele>933.26399811583</ele>
        <time>2018-11-13T09:39:15.000Z</time>
      </trkpt>
      <trkpt lat="42.14788" lon="1.90997">
        <ele>933</ele>
        <time>2018-11-13T09:39:16.000Z</time>
      </trkpt>
      <trkpt lat="42.14789" lon="1.91">
        <ele>933</ele>
        <time>2018-11-13T09:39:17.000Z</time>
      </trkpt>
      <trkpt lat="42.1479" lon="1.91003">
        <ele>932.07619070839</ele>
        <time>2018-11-13T09:39:18.000Z</time>
      </trkpt>
      <trkpt lat="42.14791" lon="1.91006">
        <ele>932</ele>
        <time>2018-11-13T09:39:19.000Z</time>
      </trkpt>
      <trkpt lat="42.14791" lon="1.9101">
        <ele>932</ele>
        <time>2018-11-13T09:39:20.000Z</time>
      </trkpt>
      <trkpt lat="42.14791" lon="1.91013">
        <ele>931.07619070839</ele>
        <time>2018-11-13T09:39:21.000Z</time>
      </trkpt>
      <trkpt lat="42.1479" lon="1.91016">
        <ele>931</ele>
        <time>2018-11-13T09:39:22.000Z</time>
      </trkpt>
      <trkpt lat="42.14788" lon="1.91019">
        <ele>931</ele>
        <time>2018-11-13T09:39:23.000Z</time>
      </trkpt>
      <trkpt lat="42.14787" lon="1.91021">
        <ele>931</ele>
        <time>2018-11-13T09:39:24.000Z</time>
      </trkpt>
      <trkpt lat="42.14785" lon="1.91023">
        <ele>930.05824675648</ele>
        <time>2018-11-13T09:39:25.000Z</time>
      </trkpt>
      <trkpt lat="42.14781" lon="1.91025">
        <ele>929.0309308279</ele>
        <time>2018-11-13T09:39:26.000Z</time>
      </trkpt>
      <trkpt lat="42.14778" lon="1.91025">
        <ele>929.9699968</ele>
        <time>2018-11-13T09:39:27.000Z</time>
      </trkpt>
      <trkpt lat="42.14775" lon="1.91026">
        <ele>930</ele>
        <time>2018-11-13T09:39:28.000Z</time>
      </trkpt>
      <trkpt lat="42.14773" lon="1.91026">
        <ele>929.03061531027</ele>
        <time>2018-11-13T09:39:29.000Z</time>
      </trkpt>
      <trkpt lat="42.14771" lon="1.91026">
        <ele>929</ele>
        <time>2018-11-13T09:39:31.000Z</time>
      </trkpt>
      <trkpt lat="42.14769" lon="1.91025">
        <ele>928</ele>
        <time>2018-11-13T09:39:36.000Z</time>
      </trkpt>
      <trkpt lat="42.14767" lon="1.91025">
        <ele>928</ele>
        <time>2018-11-13T09:39:38.000Z</time>
      </trkpt>
      <trkpt lat="42.14764" lon="1.91026">
        <ele>927.03226161638</ele>
        <time>2018-11-13T09:39:40.000Z</time>
      </trkpt>
      <trkpt lat="42.14761" lon="1.91026">
        <ele>927</ele>
        <time>2018-11-13T09:39:42.000Z</time>
      </trkpt>
      <trkpt lat="42.14758" lon="1.91027">
        <ele>927</ele>
        <time>2018-11-13T09:39:44.000Z</time>
      </trkpt>
      <trkpt lat="42.14756" lon="1.91027">
        <ele>927</ele>
        <time>2018-11-13T09:39:46.000Z</time>
      </trkpt>
      <trkpt lat="42.14754" lon="1.91028">
        <ele>927</ele>
        <time>2018-11-13T09:39:48.000Z</time>
      </trkpt>
      <trkpt lat="42.14752" lon="1.91029">
        <ele>927</ele>
        <time>2018-11-13T09:39:50.000Z</time>
      </trkpt>
      <trkpt lat="42.1475" lon="1.91028">
        <ele>925</ele>
        <time>2018-11-13T09:39:55.000Z</time>
      </trkpt>
      <trkpt lat="42.14748" lon="1.91026">
        <ele>925</ele>
        <time>2018-11-13T09:39:58.000Z</time>
      </trkpt>
      <trkpt lat="42.14746" lon="1.91026">
        <ele>924.03030616467</ele>
        <time>2018-11-13T09:40:00.000Z</time>
      </trkpt>
      <trkpt lat="42.14743" lon="1.91027">
        <ele>924</ele>
        <time>2018-11-13T09:40:02.000Z</time>
      </trkpt>
      <trkpt lat="42.14741" lon="1.91027">
        <ele>924</ele>
        <time>2018-11-13T09:40:04.000Z</time>
      </trkpt>
      <trkpt lat="42.14738" lon="1.91026">
        <ele>924</ele>
        <time>2018-11-13T09:40:06.000Z</time>
      </trkpt>
      <trkpt lat="42.14736" lon="1.91026">
        <ele>923.28204931843</ele>
        <time>2018-11-13T09:40:08.000Z</time>
      </trkpt>
      <trkpt lat="42.14733" lon="1.91023">
        <ele>923</ele>
        <time>2018-11-13T09:40:10.000Z</time>
      </trkpt>
      <trkpt lat="42.14731" lon="1.91021">
        <ele>923</ele>
        <time>2018-11-13T09:40:12.000Z</time>
      </trkpt>
      <trkpt lat="42.14729" lon="1.9102">
        <ele>923</ele>
        <time>2018-11-13T09:40:14.000Z</time>
      </trkpt>
      <trkpt lat="42.14727" lon="1.91019">
        <ele>924</ele>
        <time>2018-11-13T09:40:16.000Z</time>
      </trkpt>
      <trkpt lat="42.14725" lon="1.91018">
        <ele>924</ele>
        <time>2018-11-13T09:40:18.000Z</time>
      </trkpt>
      <trkpt lat="42.14723" lon="1.91017">
        <ele>925</ele>
        <time>2018-11-13T09:40:20.000Z</time>
      </trkpt>
      <trkpt lat="42.14721" lon="1.91016">
        <ele>925.95098322186</ele>
        <time>2018-11-13T09:40:23.000Z</time>
      </trkpt>
      <trkpt lat="42.14719" lon="1.91014">
        <ele>926.96039591413</ele>
        <time>2018-11-13T09:40:26.000Z</time>
      </trkpt>
      <trkpt lat="42.14716" lon="1.91013">
        <ele>928</ele>
        <time>2018-11-13T09:40:30.000Z</time>
      </trkpt>
      <trkpt lat="42.14714" lon="1.91012">
        <ele>928</ele>
        <time>2018-11-13T09:40:33.000Z</time>
      </trkpt>
      <trkpt lat="42.14713" lon="1.91012">
        <ele>928.95713867759</ele>
        <time>2018-11-13T09:40:36.000Z</time>
      </trkpt>
      <trkpt lat="42.14711" lon="1.9101">
        <ele>929.96808191944</ele>
        <time>2018-11-13T09:40:39.000Z</time>
      </trkpt>
      <trkpt lat="42.1471" lon="1.91008">
        <ele>931</ele>
        <time>2018-11-13T09:40:43.000Z</time>
      </trkpt>
      <trkpt lat="42.14708" lon="1.91006">
        <ele>932</ele>
        <time>2018-11-13T09:40:47.000Z</time>
      </trkpt>
      <trkpt lat="42.14707" lon="1.91004">
        <ele>932</ele>
        <time>2018-11-13T09:40:50.000Z</time>
      </trkpt>
      <trkpt lat="42.14705" lon="1.91001">
        <ele>933.9699968</ele>
        <time>2018-11-13T09:40:54.000Z</time>
      </trkpt>
      <trkpt lat="42.14704" lon="1.91">
        <ele>934</ele>
        <time>2018-11-13T09:40:57.000Z</time>
      </trkpt>
      <trkpt lat="42.14702" lon="1.90998">
        <ele>934</ele>
        <time>2018-11-13T09:41:00.000Z</time>
      </trkpt>
      <trkpt lat="42.14701" lon="1.90995">
        <ele>935</ele>
        <time>2018-11-13T09:41:03.000Z</time>
      </trkpt>
      <trkpt lat="42.147" lon="1.90993">
        <ele>936</ele>
        <time>2018-11-13T09:41:12.000Z</time>
      </trkpt>
      <trkpt lat="42.14698" lon="1.9099">
        <ele>937</ele>
        <time>2018-11-13T09:41:15.000Z</time>
      </trkpt>
      <trkpt lat="42.14697" lon="1.90988">
        <ele>937</ele>
        <time>2018-11-13T09:41:17.000Z</time>
      </trkpt>
      <trkpt lat="42.14696" lon="1.90986">
        <ele>937</ele>
        <time>2018-11-13T09:41:19.000Z</time>
      </trkpt>
      <trkpt lat="42.14694" lon="1.90984">
        <ele>937.96938468973</ele>
        <time>2018-11-13T09:41:21.000Z</time>
      </trkpt>
      <trkpt lat="42.14693" lon="1.90983">
        <ele>938</ele>
        <time>2018-11-13T09:41:24.000Z</time>
      </trkpt>
      <trkpt lat="42.14691" lon="1.90981">
        <ele>939</ele>
        <time>2018-11-13T09:41:27.000Z</time>
      </trkpt>
      <trkpt lat="42.14689" lon="1.9098">
        <ele>939</ele>
        <time>2018-11-13T09:41:29.000Z</time>
      </trkpt>
      <trkpt lat="42.14688" lon="1.90977">
        <ele>940</ele>
        <time>2018-11-13T09:41:32.000Z</time>
      </trkpt>
      <trkpt lat="42.14686" lon="1.90975">
        <ele>940</ele>
        <time>2018-11-13T09:41:35.000Z</time>
      </trkpt>
      <trkpt lat="42.14684" lon="1.90973">
        <ele>940.9699968</ele>
        <time>2018-11-13T09:41:37.000Z</time>
      </trkpt>
      <trkpt lat="42.14682" lon="1.90971">
        <ele>941</ele>
        <time>2018-11-13T09:41:40.000Z</time>
      </trkpt>
      <trkpt lat="42.14681" lon="1.90969">
        <ele>941</ele>
        <time>2018-11-13T09:41:42.000Z</time>
      </trkpt>
      <trkpt lat="42.14679" lon="1.90967">
        <ele>941</ele>
        <time>2018-11-13T09:41:45.000Z</time>
      </trkpt>
      <trkpt lat="42.14677" lon="1.90965">
        <ele>942</ele>
        <time>2018-11-13T09:41:48.000Z</time>
      </trkpt>
      <trkpt lat="42.14675" lon="1.90963">
        <ele>942</ele>
        <time>2018-11-13T09:41:51.000Z</time>
      </trkpt>
      <trkpt lat="42.14674" lon="1.90962">
        <ele>943</ele>
        <time>2018-11-13T09:41:54.000Z</time>
      </trkpt>
      <trkpt lat="42.14672" lon="1.90959">
        <ele>943.96841779059</ele>
        <time>2018-11-13T09:41:57.000Z</time>
      </trkpt>
      <trkpt lat="42.14671" lon="1.90957">
        <ele>944</ele>
        <time>2018-11-13T09:41:59.000Z</time>
      </trkpt>
      <trkpt lat="42.14669" lon="1.90955">
        <ele>944.70435092328</ele>
        <time>2018-11-13T09:42:02.000Z</time>
      </trkpt>
      <trkpt lat="42.14667" lon="1.90953">
        <ele>946</ele>
        <time>2018-11-13T09:42:07.000Z</time>
      </trkpt>
      <trkpt lat="42.14664" lon="1.90952">
        <ele>946</ele>
        <time>2018-11-13T09:42:10.000Z</time>
      </trkpt>
      <trkpt lat="42.14663" lon="1.9095">
        <ele>946</ele>
        <time>2018-11-13T09:42:13.000Z</time>
      </trkpt>
      <trkpt lat="42.14661" lon="1.90948">
        <ele>946</ele>
        <time>2018-11-13T09:42:17.000Z</time>
      </trkpt>
      <trkpt lat="42.1466" lon="1.90946">
        <ele>946.57499733333</ele>
        <time>2018-11-13T09:42:20.000Z</time>
      </trkpt>
      <trkpt lat="42.14658" lon="1.90944">
        <ele>947</ele>
        <time>2018-11-13T09:42:24.000Z</time>
      </trkpt>
      <trkpt lat="42.14656" lon="1.90942">
        <ele>947.9699968</ele>
        <time>2018-11-13T09:42:27.000Z</time>
      </trkpt>
      <trkpt lat="42.14655" lon="1.9094">
        <ele>948</ele>
        <time>2018-11-13T09:42:32.000Z</time>
      </trkpt>
      <trkpt lat="42.14653" lon="1.9094">
        <ele>947</ele>
        <time>2018-11-13T09:42:35.000Z</time>
      </trkpt>
      <trkpt lat="42.14651" lon="1.90938">
        <ele>946</ele>
        <time>2018-11-13T09:42:37.000Z</time>
      </trkpt>
      <trkpt lat="42.14649" lon="1.90936">
        <ele>946</ele>
        <time>2018-11-13T09:42:39.000Z</time>
      </trkpt>
      <trkpt lat="42.14647" lon="1.90935">
        <ele>946</ele>
        <time>2018-11-13T09:42:41.000Z</time>
      </trkpt>
      <trkpt lat="42.14645" lon="1.90935">
        <ele>946</ele>
        <time>2018-11-13T09:42:43.000Z</time>
      </trkpt>
      <trkpt lat="42.14643" lon="1.90935">
        <ele>945</ele>
        <time>2018-11-13T09:42:47.000Z</time>
      </trkpt>
      <trkpt lat="42.14641" lon="1.90934">
        <ele>945</ele>
        <time>2018-11-13T09:42:54.000Z</time>
      </trkpt>
      <trkpt lat="42.14639" lon="1.90934">
        <ele>945</ele>
        <time>2018-11-13T09:42:57.000Z</time>
      </trkpt>
      <trkpt lat="42.14637" lon="1.90934">
        <ele>945</ele>
        <time>2018-11-13T09:42:59.000Z</time>
      </trkpt>
      <trkpt lat="42.14635" lon="1.90934">
        <ele>945</ele>
        <time>2018-11-13T09:43:01.000Z</time>
      </trkpt>
      <trkpt lat="42.14633" lon="1.90934">
        <ele>944.13393142857</ele>
        <time>2018-11-13T09:43:03.000Z</time>
      </trkpt>
      <trkpt lat="42.1463" lon="1.90935">
        <ele>943</ele>
        <time>2018-11-13T09:43:06.000Z</time>
      </trkpt>
      <trkpt lat="42.14627" lon="1.90936">
        <ele>943</ele>
        <time>2018-11-13T09:43:09.000Z</time>
      </trkpt>
      <trkpt lat="42.14625" lon="1.90937">
        <ele>942</ele>
        <time>2018-11-13T09:43:28.000Z</time>
      </trkpt>
      <trkpt lat="42.14623" lon="1.90937">
        <ele>942</ele>
        <time>2018-11-13T09:43:30.000Z</time>
      </trkpt>
      <trkpt lat="42.1462" lon="1.90938">
        <ele>942</ele>
        <time>2018-11-13T09:43:32.000Z</time>
      </trkpt>
      <trkpt lat="42.14618" lon="1.90938">
        <ele>942</ele>
        <time>2018-11-13T09:43:34.000Z</time>
      </trkpt>
      <trkpt lat="42.14615" lon="1.90938">
        <ele>942</ele>
        <time>2018-11-13T09:43:39.000Z</time>
      </trkpt>
      <trkpt lat="42.14613" lon="1.90937">
        <ele>942</ele>
        <time>2018-11-13T09:43:41.000Z</time>
      </trkpt>
      <trkpt lat="42.1461" lon="1.90936">
        <ele>942</ele>
        <time>2018-11-13T09:43:43.000Z</time>
      </trkpt>
      <trkpt lat="42.14608" lon="1.90936">
        <ele>942</ele>
        <time>2018-11-13T09:43:45.000Z</time>
      </trkpt>
      <trkpt lat="42.14605" lon="1.90938">
        <ele>942</ele>
        <time>2018-11-13T09:43:47.000Z</time>
      </trkpt>
      <trkpt lat="42.14603" lon="1.90939">
        <ele>942</ele>
        <time>2018-11-13T09:43:49.000Z</time>
      </trkpt>
      <trkpt lat="42.14601" lon="1.9094">
        <ele>942.9699968</ele>
        <time>2018-11-13T09:43:51.000Z</time>
      </trkpt>
      <trkpt lat="42.14599" lon="1.90942">
        <ele>943</ele>
        <time>2018-11-13T09:43:53.000Z</time>
      </trkpt>
      <trkpt lat="42.14597" lon="1.90944">
        <ele>943</ele>
        <time>2018-11-13T09:43:55.000Z</time>
      </trkpt>
      <trkpt lat="42.14596" lon="1.90946">
        <ele>943.94366222575</ele>
        <time>2018-11-13T09:43:57.000Z</time>
      </trkpt>
      <trkpt lat="42.14594" lon="1.90949">
        <ele>944</ele>
        <time>2018-11-13T09:43:59.000Z</time>
      </trkpt>
      <trkpt lat="42.14592" lon="1.90951">
        <ele>942.0300032</ele>
        <time>2018-11-13T09:44:01.000Z</time>
      </trkpt>
      <trkpt lat="42.14589" lon="1.90952">
        <ele>941.04688</ele>
        <time>2018-11-13T09:44:03.000Z</time>
      </trkpt>
      <trkpt lat="42.14586" lon="1.90952">
        <ele>942</ele>
        <time>2018-11-13T09:44:05.000Z</time>
      </trkpt>
      <trkpt lat="42.14583" lon="1.90953">
        <ele>942</ele>
        <time>2018-11-13T09:44:07.000Z</time>
      </trkpt>
      <trkpt lat="42.1458" lon="1.90952">
        <ele>942</ele>
        <time>2018-11-13T09:44:09.000Z</time>
      </trkpt>
      <trkpt lat="42.14578" lon="1.90952">
        <ele>942</ele>
        <time>2018-11-13T09:44:11.000Z</time>
      </trkpt>
      <trkpt lat="42.14575" lon="1.90953">
        <ele>942</ele>
        <time>2018-11-13T09:44:13.000Z</time>
      </trkpt>
      <trkpt lat="42.14573" lon="1.90953">
        <ele>942</ele>
        <time>2018-11-13T09:44:15.000Z</time>
      </trkpt>
      <trkpt lat="42.14571" lon="1.90952">
        <ele>942</ele>
        <time>2018-11-13T09:44:17.000Z</time>
      </trkpt>
      <trkpt lat="42.14568" lon="1.90951">
        <ele>941.03158220941</ele>
        <time>2018-11-13T09:44:19.000Z</time>
      </trkpt>
      <trkpt lat="42.14566" lon="1.9095">
        <ele>941</ele>
        <time>2018-11-13T09:44:22.000Z</time>
      </trkpt>
      <trkpt lat="42.14565" lon="1.90948">
        <ele>940</ele>
        <time>2018-11-13T09:44:24.000Z</time>
      </trkpt>
      <trkpt lat="42.14563" lon="1.90948">
        <ele>940</ele>
        <time>2018-11-13T09:44:28.000Z</time>
      </trkpt>
      <trkpt lat="42.14561" lon="1.90949">
        <ele>939.0300032</ele>
        <time>2018-11-13T09:44:32.000Z</time>
      </trkpt>
      <trkpt lat="42.14562" lon="1.90951">
        <ele>938</ele>
        <time>2018-11-13T09:44:38.000Z</time>
      </trkpt>
      <trkpt lat="42.14563" lon="1.90953">
        <ele>938</ele>
        <time>2018-11-13T09:44:42.000Z</time>
      </trkpt>
      <trkpt lat="42.14561" lon="1.90956">
        <ele>937.0300032</ele>
        <time>2018-11-13T09:44:45.000Z</time>
      </trkpt>
      <trkpt lat="42.14559" lon="1.90956">
        <ele>936.0300032</ele>
        <time>2018-11-13T09:44:47.000Z</time>
      </trkpt>
      <trkpt lat="42.14557" lon="1.90957">
        <ele>936</ele>
        <time>2018-11-13T09:44:49.000Z</time>
      </trkpt>
      <trkpt lat="42.14554" lon="1.90957">
        <ele>935</ele>
        <time>2018-11-13T09:44:51.000Z</time>
      </trkpt>
      <trkpt lat="42.14552" lon="1.90958">
        <ele>935</ele>
        <time>2018-11-13T09:44:53.000Z</time>
      </trkpt>
      <trkpt lat="42.1455" lon="1.9096">
        <ele>935</ele>
        <time>2018-11-13T09:44:55.000Z</time>
      </trkpt>
      <trkpt lat="42.14548" lon="1.90962">
        <ele>933.04545895313</ele>
        <time>2018-11-13T09:44:57.000Z</time>
      </trkpt>
      <trkpt lat="42.14547" lon="1.90964">
        <ele>933</ele>
        <time>2018-11-13T09:44:59.000Z</time>
      </trkpt>
      <trkpt lat="42.14545" lon="1.90967">
        <ele>933</ele>
        <time>2018-11-13T09:45:01.000Z</time>
      </trkpt>
      <trkpt lat="42.14543" lon="1.9097">
        <ele>932.04901677814</ele>
        <time>2018-11-13T09:45:03.000Z</time>
      </trkpt>
      <trkpt lat="42.14542" lon="1.90971">
        <ele>931</ele>
        <time>2018-11-13T09:45:05.000Z</time>
      </trkpt>
      <trkpt lat="42.1454" lon="1.90973">
        <ele>931</ele>
        <time>2018-11-13T09:45:07.000Z</time>
      </trkpt>
      <trkpt lat="42.14538" lon="1.90974">
        <ele>930.03960408587</ele>
        <time>2018-11-13T09:45:09.000Z</time>
      </trkpt>
      <trkpt lat="42.14536" lon="1.90976">
        <ele>929.0300032</ele>
        <time>2018-11-13T09:45:11.000Z</time>
      </trkpt>
      <trkpt lat="42.14534" lon="1.90978">
        <ele>928</ele>
        <time>2018-11-13T09:45:13.000Z</time>
      </trkpt>
      <trkpt lat="42.14531" lon="1.90981">
        <ele>928</ele>
        <time>2018-11-13T09:45:15.000Z</time>
      </trkpt>
      <trkpt lat="42.14529" lon="1.90982">
        <ele>927</ele>
        <time>2018-11-13T09:45:17.000Z</time>
      </trkpt>
      <trkpt lat="42.14526" lon="1.90984">
        <ele>927</ele>
        <time>2018-11-13T09:45:19.000Z</time>
      </trkpt>
      <trkpt lat="42.14524" lon="1.90985">
        <ele>927</ele>
        <time>2018-11-13T09:45:21.000Z</time>
      </trkpt>
      <trkpt lat="42.1452" lon="1.90987">
        <ele>927</ele>
        <time>2018-11-13T09:45:23.000Z</time>
      </trkpt>
      <trkpt lat="42.14518" lon="1.90987">
        <ele>927</ele>
        <time>2018-11-13T09:45:24.000Z</time>
      </trkpt>
      <trkpt lat="42.14516" lon="1.90988">
        <ele>927</ele>
        <time>2018-11-13T09:45:25.000Z</time>
      </trkpt>
      <trkpt lat="42.14514" lon="1.90988">
        <ele>927</ele>
        <time>2018-11-13T09:45:26.000Z</time>
      </trkpt>
      <trkpt lat="42.14512" lon="1.90991">
        <ele>927</ele>
        <time>2018-11-13T09:45:28.000Z</time>
      </trkpt>
      <trkpt lat="42.14509" lon="1.90994">
        <ele>926.10185481482</ele>
        <time>2018-11-13T09:45:30.000Z</time>
      </trkpt>
      <trkpt lat="42.14507" lon="1.90995">
        <ele>926</ele>
        <time>2018-11-13T09:45:31.000Z</time>
      </trkpt>
      <trkpt lat="42.14505" lon="1.90996">
        <ele>925.04615808751</ele>
        <time>2018-11-13T09:45:32.000Z</time>
      </trkpt>
      <trkpt lat="42.14503" lon="1.90997">
        <ele>925</ele>
        <time>2018-11-13T09:45:33.000Z</time>
      </trkpt>
      <trkpt lat="42.14501" lon="1.90997">
        <ele>925</ele>
        <time>2018-11-13T09:45:34.000Z</time>
      </trkpt>
      <trkpt lat="42.14499" lon="1.90997">
        <ele>925</ele>
        <time>2018-11-13T09:45:35.000Z</time>
      </trkpt>
      <trkpt lat="42.14497" lon="1.90996">
        <ele>924.0300032</ele>
        <time>2018-11-13T09:45:36.000Z</time>
      </trkpt>
      <trkpt lat="42.14495" lon="1.90996">
        <ele>924</ele>
        <time>2018-11-13T09:45:37.000Z</time>
      </trkpt>
      <trkpt lat="42.14493" lon="1.90996">
        <ele>924</ele>
        <time>2018-11-13T09:45:38.000Z</time>
      </trkpt>
      <trkpt lat="42.14491" lon="1.90996">
        <ele>924</ele>
        <time>2018-11-13T09:45:39.000Z</time>
      </trkpt>
      <trkpt lat="42.14489" lon="1.90996">
        <ele>923.14159332133</ele>
        <time>2018-11-13T09:45:40.000Z</time>
      </trkpt>
      <trkpt lat="42.14486" lon="1.90997">
        <ele>923</ele>
        <time>2018-11-13T09:45:41.000Z</time>
      </trkpt>
      <trkpt lat="42.14483" lon="1.90998">
        <ele>923</ele>
        <time>2018-11-13T09:45:42.000Z</time>
      </trkpt>
      <trkpt lat="42.14481" lon="1.90997">
        <ele>922.13393142857</ele>
        <time>2018-11-13T09:45:43.000Z</time>
      </trkpt>
      <trkpt lat="42.14478" lon="1.90996">
        <ele>922</ele>
        <time>2018-11-13T09:45:44.000Z</time>
      </trkpt>
      <trkpt lat="42.14476" lon="1.90996">
        <ele>922</ele>
        <time>2018-11-13T09:45:45.000Z</time>
      </trkpt>
      <trkpt lat="42.14474" lon="1.90996">
        <ele>922</ele>
        <time>2018-11-13T09:45:46.000Z</time>
      </trkpt>
      <trkpt lat="42.14471" lon="1.90995">
        <ele>922</ele>
        <time>2018-11-13T09:45:47.000Z</time>
      </trkpt>
      <trkpt lat="42.14469" lon="1.90995">
        <ele>922</ele>
        <time>2018-11-13T09:45:48.000Z</time>
      </trkpt>
      <trkpt lat="42.14467" lon="1.90994">
        <ele>922</ele>
        <time>2018-11-13T09:45:49.000Z</time>
      </trkpt>
      <trkpt lat="42.14465" lon="1.90994">
        <ele>922</ele>
        <time>2018-11-13T09:45:50.000Z</time>
      </trkpt>
      <trkpt lat="42.14463" lon="1.90995">
        <ele>922</ele>
        <time>2018-11-13T09:45:51.000Z</time>
      </trkpt>
      <trkpt lat="42.14461" lon="1.90995">
        <ele>922</ele>
        <time>2018-11-13T09:45:52.000Z</time>
      </trkpt>
      <trkpt lat="42.14459" lon="1.90996">
        <ele>919.89130152488</ele>
        <time>2018-11-13T09:45:53.000Z</time>
      </trkpt>
      <trkpt lat="42.14456" lon="1.90995">
        <ele>919</ele>
        <time>2018-11-13T09:45:54.000Z</time>
      </trkpt>
      <trkpt lat="42.14453" lon="1.90995">
        <ele>919</ele>
        <time>2018-11-13T09:45:55.000Z</time>
      </trkpt>
      <trkpt lat="42.14451" lon="1.90995">
        <ele>919</ele>
        <time>2018-11-13T09:45:56.000Z</time>
      </trkpt>
      <trkpt lat="42.14448" lon="1.90995">
        <ele>919</ele>
        <time>2018-11-13T09:45:57.000Z</time>
      </trkpt>
      <trkpt lat="42.14446" lon="1.90997">
        <ele>918.14159332133</ele>
        <time>2018-11-13T09:45:59.000Z</time>
      </trkpt>
      <trkpt lat="42.14444" lon="1.90998">
        <ele>918</ele>
        <time>2018-11-13T09:46:00.000Z</time>
      </trkpt>
      <trkpt lat="42.14443" lon="1.90999">
        <ele>918</ele>
        <time>2018-11-13T09:46:01.000Z</time>
      </trkpt>
      <trkpt lat="42.14441" lon="1.90999">
        <ele>918</ele>
        <time>2018-11-13T09:46:02.000Z</time>
      </trkpt>
      <trkpt lat="42.14437" lon="1.91">
        <ele>918</ele>
        <time>2018-11-13T09:46:04.000Z</time>
      </trkpt>
      <trkpt lat="42.14434" lon="1.91001">
        <ele>917</ele>
        <time>2018-11-13T09:46:06.000Z</time>
      </trkpt>
      <trkpt lat="42.14431" lon="1.91002">
        <ele>915.03960408587</ele>
        <time>2018-11-13T09:46:08.000Z</time>
      </trkpt>
      <trkpt lat="42.14427" lon="1.91003">
        <ele>915</ele>
        <time>2018-11-13T09:46:10.000Z</time>
      </trkpt>
      <trkpt lat="42.14425" lon="1.91002">
        <ele>915</ele>
        <time>2018-11-13T09:46:11.000Z</time>
      </trkpt>
      <trkpt lat="42.14423" lon="1.90999">
        <ele>913.03191808056</ele>
        <time>2018-11-13T09:46:13.000Z</time>
      </trkpt>
      <trkpt lat="42.14421" lon="1.90998">
        <ele>913</ele>
        <time>2018-11-13T09:46:15.000Z</time>
      </trkpt>
      <trkpt lat="42.14418" lon="1.90995">
        <ele>913</ele>
        <time>2018-11-13T09:46:17.000Z</time>
      </trkpt>
      <trkpt lat="42.14417" lon="1.90992">
        <ele>913</ele>
        <time>2018-11-13T09:46:19.000Z</time>
      </trkpt>
      <trkpt lat="42.14416" lon="1.9099">
        <ele>913.91509684587</ele>
        <time>2018-11-13T09:46:21.000Z</time>
      </trkpt>
      <trkpt lat="42.14416" lon="1.90987">
        <ele>914</ele>
        <time>2018-11-13T09:46:23.000Z</time>
      </trkpt>
      <trkpt lat="42.14415" lon="1.90983">
        <ele>914.95312</ele>
        <time>2018-11-13T09:46:25.000Z</time>
      </trkpt>
      <trkpt lat="42.14414" lon="1.9098">
        <ele>915</ele>
        <time>2018-11-13T09:46:27.000Z</time>
      </trkpt>
      <trkpt lat="42.14412" lon="1.90978">
        <ele>915</ele>
        <time>2018-11-13T09:46:29.000Z</time>
      </trkpt>
      <trkpt lat="42.1441" lon="1.90976">
        <ele>915</ele>
        <time>2018-11-13T09:46:31.000Z</time>
      </trkpt>
      <trkpt lat="42.14409" lon="1.90973">
        <ele>915</ele>
        <time>2018-11-13T09:46:33.000Z</time>
      </trkpt>
      <trkpt lat="42.14409" lon="1.90971">
        <ele>915</ele>
        <time>2018-11-13T09:46:35.000Z</time>
      </trkpt>
      <trkpt lat="42.14408" lon="1.90968">
        <ele>916</ele>
        <time>2018-11-13T09:46:37.000Z</time>
      </trkpt>
      <trkpt lat="42.14407" lon="1.90966">
        <ele>916.9699968</ele>
        <time>2018-11-13T09:46:39.000Z</time>
      </trkpt>
      <trkpt lat="42.14406" lon="1.90963">
        <ele>917</ele>
        <time>2018-11-13T09:46:42.000Z</time>
      </trkpt>
      <trkpt lat="42.14406" lon="1.9096">
        <ele>917.96874666667</ele>
        <time>2018-11-13T09:46:44.000Z</time>
      </trkpt>
      <trkpt lat="42.14405" lon="1.90956">
        <ele>918</ele>
        <time>2018-11-13T09:46:47.000Z</time>
      </trkpt>
      <trkpt lat="42.14405" lon="1.90954">
        <ele>918</ele>
        <time>2018-11-13T09:46:49.000Z</time>
      </trkpt>
      <trkpt lat="42.14404" lon="1.90952">
        <ele>918</ele>
        <time>2018-11-13T09:46:51.000Z</time>
      </trkpt>
      <trkpt lat="42.14403" lon="1.90949">
        <ele>919</ele>
        <time>2018-11-13T09:46:53.000Z</time>
      </trkpt>
      <trkpt lat="42.14401" lon="1.90946">
        <ele>919</ele>
        <time>2018-11-13T09:46:55.000Z</time>
      </trkpt>
      <trkpt lat="42.14399" lon="1.90944">
        <ele>919</ele>
        <time>2018-11-13T09:46:57.000Z</time>
      </trkpt>
      <trkpt lat="42.14396" lon="1.90941">
        <ele>920</ele>
        <time>2018-11-13T09:46:59.000Z</time>
      </trkpt>
      <trkpt lat="42.14395" lon="1.90938">
        <ele>920</ele>
        <time>2018-11-13T09:47:01.000Z</time>
      </trkpt>
      <trkpt lat="42.14393" lon="1.90935">
        <ele>920</ele>
        <time>2018-11-13T09:47:03.000Z</time>
      </trkpt>
      <trkpt lat="42.14391" lon="1.90933">
        <ele>920</ele>
        <time>2018-11-13T09:47:05.000Z</time>
      </trkpt>
      <trkpt lat="42.14388" lon="1.90931">
        <ele>919</ele>
        <time>2018-11-13T09:47:07.000Z</time>
      </trkpt>
      <trkpt lat="42.14387" lon="1.90928">
        <ele>919</ele>
        <time>2018-11-13T09:47:09.000Z</time>
      </trkpt>
      <trkpt lat="42.14385" lon="1.90924">
        <ele>919</ele>
        <time>2018-11-13T09:47:11.000Z</time>
      </trkpt>
      <trkpt lat="42.14384" lon="1.90922">
        <ele>919.96808191944</ele>
        <time>2018-11-13T09:47:12.000Z</time>
      </trkpt>
      <trkpt lat="42.14382" lon="1.9092">
        <ele>920</ele>
        <time>2018-11-13T09:47:13.000Z</time>
      </trkpt>
      <trkpt lat="42.14381" lon="1.90918">
        <ele>920</ele>
        <time>2018-11-13T09:47:14.000Z</time>
      </trkpt>
      <trkpt lat="42.1438" lon="1.90916">
        <ele>920</ele>
        <time>2018-11-13T09:47:15.000Z</time>
      </trkpt>
      <trkpt lat="42.14379" lon="1.90914">
        <ele>920</ele>
        <time>2018-11-13T09:47:16.000Z</time>
      </trkpt>
      <trkpt lat="42.14378" lon="1.90912">
        <ele>920</ele>
        <time>2018-11-13T09:47:17.000Z</time>
      </trkpt>
      <trkpt lat="42.14376" lon="1.9091">
        <ele>920</ele>
        <time>2018-11-13T09:47:18.000Z</time>
      </trkpt>
      <trkpt lat="42.14375" lon="1.90907">
        <ele>920</ele>
        <time>2018-11-13T09:47:19.000Z</time>
      </trkpt>
      <trkpt lat="42.14374" lon="1.90906">
        <ele>920</ele>
        <time>2018-11-13T09:47:20.000Z</time>
      </trkpt>
      <trkpt lat="42.14373" lon="1.90904">
        <ele>919.03158220941</ele>
        <time>2018-11-13T09:47:21.000Z</time>
      </trkpt>
      <trkpt lat="42.14372" lon="1.90902">
        <ele>919</ele>
        <time>2018-11-13T09:47:22.000Z</time>
      </trkpt>
      <trkpt lat="42.1437" lon="1.909">
        <ele>919</ele>
        <time>2018-11-13T09:47:23.000Z</time>
      </trkpt>
      <trkpt lat="42.14369" lon="1.90898">
        <ele>919</ele>
        <time>2018-11-13T09:47:24.000Z</time>
      </trkpt>
      <trkpt lat="42.14367" lon="1.90895">
        <ele>919.74615505799</ele>
        <time>2018-11-13T09:47:25.000Z</time>
      </trkpt>
      <trkpt lat="42.14366" lon="1.90893">
        <ele>920</ele>
        <time>2018-11-13T09:47:26.000Z</time>
      </trkpt>
      <trkpt lat="42.14365" lon="1.90891">
        <ele>920</ele>
        <time>2018-11-13T09:47:27.000Z</time>
      </trkpt>
      <trkpt lat="42.14363" lon="1.90889">
        <ele>919.07619070839</ele>
        <time>2018-11-13T09:47:28.000Z</time>
      </trkpt>
      <trkpt lat="42.14361" lon="1.90887">
        <ele>919</ele>
        <time>2018-11-13T09:47:29.000Z</time>
      </trkpt>
      <trkpt lat="42.1436" lon="1.90884">
        <ele>919</ele>
        <time>2018-11-13T09:47:30.000Z</time>
      </trkpt>
      <trkpt lat="42.1436" lon="1.90882">
        <ele>919</ele>
        <time>2018-11-13T09:47:31.000Z</time>
      </trkpt>
      <trkpt lat="42.1436" lon="1.90879">
        <ele>919</ele>
        <time>2018-11-13T09:47:32.000Z</time>
      </trkpt>
      <trkpt lat="42.14359" lon="1.90875">
        <ele>919</ele>
        <time>2018-11-13T09:47:34.000Z</time>
      </trkpt>
      <trkpt lat="42.14358" lon="1.90872">
        <ele>919</ele>
        <time>2018-11-13T09:47:36.000Z</time>
      </trkpt>
      <trkpt lat="42.14356" lon="1.9087">
        <ele>919</ele>
        <time>2018-11-13T09:47:38.000Z</time>
      </trkpt>
      <trkpt lat="42.14354" lon="1.90868">
        <ele>919</ele>
        <time>2018-11-13T09:47:40.000Z</time>
      </trkpt>
      <trkpt lat="42.14352" lon="1.90866">
        <ele>919</ele>
        <time>2018-11-13T09:47:42.000Z</time>
      </trkpt>
      <trkpt lat="42.1435" lon="1.90864">
        <ele>919</ele>
        <time>2018-11-13T09:47:44.000Z</time>
      </trkpt>
      <trkpt lat="42.14349" lon="1.90861">
        <ele>919</ele>
        <time>2018-11-13T09:47:46.000Z</time>
      </trkpt>
      <trkpt lat="42.14347" lon="1.90858">
        <ele>920</ele>
        <time>2018-11-13T09:47:48.000Z</time>
      </trkpt>
      <trkpt lat="42.14346" lon="1.90854">
        <ele>920</ele>
        <time>2018-11-13T09:47:50.000Z</time>
      </trkpt>
      <trkpt lat="42.14344" lon="1.90851">
        <ele>920</ele>
        <time>2018-11-13T09:47:52.000Z</time>
      </trkpt>
      <trkpt lat="42.14343" lon="1.90847">
        <ele>921</ele>
        <time>2018-11-13T09:47:54.000Z</time>
      </trkpt>
      <trkpt lat="42.14342" lon="1.90845">
        <ele>921</ele>
        <time>2018-11-13T09:47:56.000Z</time>
      </trkpt>
      <trkpt lat="42.14341" lon="1.90842">
        <ele>921</ele>
        <time>2018-11-13T09:47:58.000Z</time>
      </trkpt>
      <trkpt lat="42.1434" lon="1.9084">
        <ele>921</ele>
        <time>2018-11-13T09:48:00.000Z</time>
      </trkpt>
      <trkpt lat="42.14339" lon="1.90836">
        <ele>921.96039591413</ele>
        <time>2018-11-13T09:48:02.000Z</time>
      </trkpt>
      <trkpt lat="42.14338" lon="1.90833">
        <ele>922</ele>
        <time>2018-11-13T09:48:04.000Z</time>
      </trkpt>
      <trkpt lat="42.14336" lon="1.90831">
        <ele>922</ele>
        <time>2018-11-13T09:48:06.000Z</time>
      </trkpt>
      <trkpt lat="42.14334" lon="1.90829">
        <ele>923</ele>
        <time>2018-11-13T09:48:08.000Z</time>
      </trkpt>
      <trkpt lat="42.14332" lon="1.90826">
        <ele>923</ele>
        <time>2018-11-13T09:48:10.000Z</time>
      </trkpt>
      <trkpt lat="42.14331" lon="1.90822">
        <ele>923</ele>
        <time>2018-11-13T09:48:12.000Z</time>
      </trkpt>
      <trkpt lat="42.14329" lon="1.90819">
        <ele>923</ele>
        <time>2018-11-13T09:48:14.000Z</time>
      </trkpt>
      <trkpt lat="42.14328" lon="1.90816">
        <ele>923</ele>
        <time>2018-11-13T09:48:16.000Z</time>
      </trkpt>
      <trkpt lat="42.14325" lon="1.90814">
        <ele>923</ele>
        <time>2018-11-13T09:48:18.000Z</time>
      </trkpt>
      <trkpt lat="42.14322" lon="1.90811">
        <ele>923.92380929161</ele>
        <time>2018-11-13T09:48:20.000Z</time>
      </trkpt>
      <trkpt lat="42.1432" lon="1.9081">
        <ele>924</ele>
        <time>2018-11-13T09:48:21.000Z</time>
      </trkpt>
      <trkpt lat="42.14319" lon="1.90808">
        <ele>924</ele>
        <time>2018-11-13T09:48:22.000Z</time>
      </trkpt>
      <trkpt lat="42.14317" lon="1.90806">
        <ele>924</ele>
        <time>2018-11-13T09:48:23.000Z</time>
      </trkpt>
      <trkpt lat="42.14315" lon="1.90805">
        <ele>924</ele>
        <time>2018-11-13T09:48:24.000Z</time>
      </trkpt>
      <trkpt lat="42.14313" lon="1.90803">
        <ele>924</ele>
        <time>2018-11-13T09:48:25.000Z</time>
      </trkpt>
      <trkpt lat="42.14312" lon="1.90802">
        <ele>924</ele>
        <time>2018-11-13T09:48:26.000Z</time>
      </trkpt>
      <trkpt lat="42.1431" lon="1.90802">
        <ele>924</ele>
        <time>2018-11-13T09:48:27.000Z</time>
      </trkpt>
      <trkpt lat="42.14308" lon="1.90801">
        <ele>924</ele>
        <time>2018-11-13T09:48:28.000Z</time>
      </trkpt>
      <trkpt lat="42.14306" lon="1.908">
        <ele>924</ele>
        <time>2018-11-13T09:48:29.000Z</time>
      </trkpt>
      <trkpt lat="42.14304" lon="1.90799">
        <ele>923.0300032</ele>
        <time>2018-11-13T09:48:30.000Z</time>
      </trkpt>
      <trkpt lat="42.14302" lon="1.90797">
        <ele>923</ele>
        <time>2018-11-13T09:48:31.000Z</time>
      </trkpt>
      <trkpt lat="42.143" lon="1.90796">
        <ele>923</ele>
        <time>2018-11-13T09:48:32.000Z</time>
      </trkpt>
      <trkpt lat="42.14296" lon="1.90793">
        <ele>923</ele>
        <time>2018-11-13T09:48:34.000Z</time>
      </trkpt>
      <trkpt lat="42.14294" lon="1.90792">
        <ele>923</ele>
        <time>2018-11-13T09:48:35.000Z</time>
      </trkpt>
      <trkpt lat="42.14292" lon="1.9079">
        <ele>923</ele>
        <time>2018-11-13T09:48:36.000Z</time>
      </trkpt>
      <trkpt lat="42.14291" lon="1.90788">
        <ele>923</ele>
        <time>2018-11-13T09:48:37.000Z</time>
      </trkpt>
      <trkpt lat="42.14289" lon="1.90785">
        <ele>923</ele>
        <time>2018-11-13T09:48:38.000Z</time>
      </trkpt>
      <trkpt lat="42.14288" lon="1.90784">
        <ele>923</ele>
        <time>2018-11-13T09:48:39.000Z</time>
      </trkpt>
      <trkpt lat="42.14287" lon="1.90782">
        <ele>923</ele>
        <time>2018-11-13T09:48:40.000Z</time>
      </trkpt>
      <trkpt lat="42.14285" lon="1.90779">
        <ele>923</ele>
        <time>2018-11-13T09:48:42.000Z</time>
      </trkpt>
      <trkpt lat="42.14283" lon="1.90776">
        <ele>923</ele>
        <time>2018-11-13T09:48:44.000Z</time>
      </trkpt>
      <trkpt lat="42.14281" lon="1.90773">
        <ele>922</ele>
        <time>2018-11-13T09:48:46.000Z</time>
      </trkpt>
      <trkpt lat="42.14279" lon="1.90771">
        <ele>923</ele>
        <time>2018-11-13T09:48:48.000Z</time>
      </trkpt>
      <trkpt lat="42.14277" lon="1.90768">
        <ele>923</ele>
        <time>2018-11-13T09:48:50.000Z</time>
      </trkpt>
      <trkpt lat="42.14275" lon="1.90764">
        <ele>923</ele>
        <time>2018-11-13T09:48:52.000Z</time>
      </trkpt>
      <trkpt lat="42.14274" lon="1.90761">
        <ele>923</ele>
        <time>2018-11-13T09:48:54.000Z</time>
      </trkpt>
      <trkpt lat="42.14273" lon="1.90757">
        <ele>923</ele>
        <time>2018-11-13T09:48:56.000Z</time>
      </trkpt>
      <trkpt lat="42.14271" lon="1.90754">
        <ele>923</ele>
        <time>2018-11-13T09:48:58.000Z</time>
      </trkpt>
      <trkpt lat="42.14268" lon="1.90752">
        <ele>923</ele>
        <time>2018-11-13T09:49:00.000Z</time>
      </trkpt>
      <trkpt lat="42.14265" lon="1.9075">
        <ele>923</ele>
        <time>2018-11-13T09:49:02.000Z</time>
      </trkpt>
      <trkpt lat="42.14263" lon="1.90748">
        <ele>922.03226161638</ele>
        <time>2018-11-13T09:49:04.000Z</time>
      </trkpt>
      <trkpt lat="42.1426" lon="1.90745">
        <ele>922</ele>
        <time>2018-11-13T09:49:06.000Z</time>
      </trkpt>
      <trkpt lat="42.14258" lon="1.90743">
        <ele>922</ele>
        <time>2018-11-13T09:49:08.000Z</time>
      </trkpt>
      <trkpt lat="42.14257" lon="1.9074">
        <ele>922</ele>
        <time>2018-11-13T09:49:10.000Z</time>
      </trkpt>
      <trkpt lat="42.14255" lon="1.90739">
        <ele>922</ele>
        <time>2018-11-13T09:49:12.000Z</time>
      </trkpt>
      <trkpt lat="42.14253" lon="1.90738">
        <ele>922.03158220941</ele>
        <time>2018-11-13T09:49:18.000Z</time>
      </trkpt>
      <trkpt lat="42.14252" lon="1.90735">
        <ele>922</ele>
        <time>2018-11-13T09:49:22.000Z</time>
      </trkpt>
      <trkpt lat="42.14253" lon="1.90732">
        <ele>922</ele>
        <time>2018-11-13T09:50:08.000Z</time>
      </trkpt>
      <trkpt lat="42.14254" lon="1.9073">
        <ele>922</ele>
        <time>2018-11-13T09:50:16.000Z</time>
      </trkpt>
      <trkpt lat="42.14254" lon="1.90733">
        <ele>922</ele>
        <time>2018-11-13T09:51:47.000Z</time>
      </trkpt>
      <trkpt lat="42.14253" lon="1.90731">
        <ele>923</ele>
        <time>2018-11-13T09:51:59.000Z</time>
      </trkpt>
      <trkpt lat="42.14252" lon="1.90727">
        <ele>922</ele>
        <time>2018-11-13T09:52:30.000Z</time>
      </trkpt>
      <trkpt lat="42.1425" lon="1.90726">
        <ele>922</ele>
        <time>2018-11-13T09:52:32.000Z</time>
      </trkpt>
      <trkpt lat="42.14247" lon="1.90724">
        <ele>921</ele>
        <time>2018-11-13T09:52:34.000Z</time>
      </trkpt>
      <trkpt lat="42.14245" lon="1.90722">
        <ele>921</ele>
        <time>2018-11-13T09:52:36.000Z</time>
      </trkpt>
      <trkpt lat="42.14243" lon="1.90721">
        <ele>922</ele>
        <time>2018-11-13T09:52:38.000Z</time>
      </trkpt>
      <trkpt lat="42.14241" lon="1.90718">
        <ele>922</ele>
        <time>2018-11-13T09:52:40.000Z</time>
      </trkpt>
      <trkpt lat="42.14239" lon="1.90716">
        <ele>922</ele>
        <time>2018-11-13T09:52:42.000Z</time>
      </trkpt>
      <trkpt lat="42.14237" lon="1.90714">
        <ele>922.87386847173</ele>
        <time>2018-11-13T09:52:44.000Z</time>
      </trkpt>
      <trkpt lat="42.14234" lon="1.90713">
        <ele>923</ele>
        <time>2018-11-13T09:52:46.000Z</time>
      </trkpt>
      <trkpt lat="42.14231" lon="1.90712">
        <ele>923</ele>
        <time>2018-11-13T09:52:48.000Z</time>
      </trkpt>
      <trkpt lat="42.14229" lon="1.9071">
        <ele>922</ele>
        <time>2018-11-13T09:52:50.000Z</time>
      </trkpt>
      <trkpt lat="42.14225" lon="1.90708">
        <ele>923</ele>
        <time>2018-11-13T09:52:52.000Z</time>
      </trkpt>
      <trkpt lat="42.14223" lon="1.90707">
        <ele>923.74045376378</ele>
        <time>2018-11-13T09:52:53.000Z</time>
      </trkpt>
      <trkpt lat="42.14221" lon="1.90707">
        <ele>924</ele>
        <time>2018-11-13T09:52:54.000Z</time>
      </trkpt>
      <trkpt lat="42.14218" lon="1.90706">
        <ele>923.0300032</ele>
        <time>2018-11-13T09:52:55.000Z</time>
      </trkpt>
      <trkpt lat="42.14216" lon="1.90705">
        <ele>923</ele>
        <time>2018-11-13T09:52:56.000Z</time>
      </trkpt>
      <trkpt lat="42.14213" lon="1.90704">
        <ele>923</ele>
        <time>2018-11-13T09:52:57.000Z</time>
      </trkpt>
      <trkpt lat="42.1421" lon="1.90703">
        <ele>923</ele>
        <time>2018-11-13T09:52:58.000Z</time>
      </trkpt>
      <trkpt lat="42.14207" lon="1.90702">
        <ele>923</ele>
        <time>2018-11-13T09:52:59.000Z</time>
      </trkpt>
      <trkpt lat="42.14204" lon="1.90701">
        <ele>923</ele>
        <time>2018-11-13T09:53:00.000Z</time>
      </trkpt>
      <trkpt lat="42.14202" lon="1.90699">
        <ele>922.0300032</ele>
        <time>2018-11-13T09:53:01.000Z</time>
      </trkpt>
      <trkpt lat="42.14199" lon="1.90698">
        <ele>922</ele>
        <time>2018-11-13T09:53:02.000Z</time>
      </trkpt>
      <trkpt lat="42.14196" lon="1.90697">
        <ele>922</ele>
        <time>2018-11-13T09:53:03.000Z</time>
      </trkpt>
      <trkpt lat="42.14193" lon="1.90696">
        <ele>922</ele>
        <time>2018-11-13T09:53:04.000Z</time>
      </trkpt>
      <trkpt lat="42.14191" lon="1.90695">
        <ele>922</ele>
        <time>2018-11-13T09:53:05.000Z</time>
      </trkpt>
      <trkpt lat="42.14189" lon="1.90695">
        <ele>922</ele>
        <time>2018-11-13T09:53:06.000Z</time>
      </trkpt>
      <trkpt lat="42.14186" lon="1.90694">
        <ele>922</ele>
        <time>2018-11-13T09:53:07.000Z</time>
      </trkpt>
      <trkpt lat="42.14184" lon="1.90693">
        <ele>922</ele>
        <time>2018-11-13T09:53:08.000Z</time>
      </trkpt>
      <trkpt lat="42.14181" lon="1.90692">
        <ele>922</ele>
        <time>2018-11-13T09:53:09.000Z</time>
      </trkpt>
      <trkpt lat="42.14178" lon="1.90691">
        <ele>922</ele>
        <time>2018-11-13T09:53:10.000Z</time>
      </trkpt>
      <trkpt lat="42.14175" lon="1.90691">
        <ele>922</ele>
        <time>2018-11-13T09:53:11.000Z</time>
      </trkpt>
      <trkpt lat="42.14173" lon="1.9069">
        <ele>921.04348310021</ele>
        <time>2018-11-13T09:53:12.000Z</time>
      </trkpt>
      <trkpt lat="42.14171" lon="1.90689">
        <ele>921</ele>
        <time>2018-11-13T09:53:13.000Z</time>
      </trkpt>
      <trkpt lat="42.14169" lon="1.90688">
        <ele>921</ele>
        <time>2018-11-13T09:53:14.000Z</time>
      </trkpt>
      <trkpt lat="42.14166" lon="1.90686">
        <ele>921</ele>
        <time>2018-11-13T09:53:15.000Z</time>
      </trkpt>
      <trkpt lat="42.14164" lon="1.90684">
        <ele>921</ele>
        <time>2018-11-13T09:53:16.000Z</time>
      </trkpt>
      <trkpt lat="42.14162" lon="1.90681">
        <ele>920.06731076923</ele>
        <time>2018-11-13T09:53:17.000Z</time>
      </trkpt>
      <trkpt lat="42.14161" lon="1.90679">
        <ele>920</ele>
        <time>2018-11-13T09:53:18.000Z</time>
      </trkpt>
      <trkpt lat="42.1416" lon="1.90676">
        <ele>920</ele>
        <time>2018-11-13T09:53:19.000Z</time>
      </trkpt>
      <trkpt lat="42.14159" lon="1.90673">
        <ele>920</ele>
        <time>2018-11-13T09:53:20.000Z</time>
      </trkpt>
      <trkpt lat="42.14158" lon="1.90669">
        <ele>920</ele>
        <time>2018-11-13T09:53:21.000Z</time>
      </trkpt>
      <trkpt lat="42.14158" lon="1.90666">
        <ele>919.0300032</ele>
        <time>2018-11-13T09:53:22.000Z</time>
      </trkpt>
      <trkpt lat="42.14157" lon="1.90663">
        <ele>918.05824675648</ele>
        <time>2018-11-13T09:53:23.000Z</time>
      </trkpt>
      <trkpt lat="42.14157" lon="1.9066">
        <ele>918</ele>
        <time>2018-11-13T09:53:24.000Z</time>
      </trkpt>
      <trkpt lat="42.14156" lon="1.90657">
        <ele>918</ele>
        <time>2018-11-13T09:53:25.000Z</time>
      </trkpt>
      <trkpt lat="42.14155" lon="1.90654">
        <ele>918</ele>
        <time>2018-11-13T09:53:26.000Z</time>
      </trkpt>
      <trkpt lat="42.14155" lon="1.90651">
        <ele>918</ele>
        <time>2018-11-13T09:53:27.000Z</time>
      </trkpt>
      <trkpt lat="42.14154" lon="1.90648">
        <ele>917.0300032</ele>
        <time>2018-11-13T09:53:28.000Z</time>
      </trkpt>
      <trkpt lat="42.14152" lon="1.90645">
        <ele>917</ele>
        <time>2018-11-13T09:53:29.000Z</time>
      </trkpt>
      <trkpt lat="42.14152" lon="1.90642">
        <ele>917</ele>
        <time>2018-11-13T09:53:30.000Z</time>
      </trkpt>
      <trkpt lat="42.14154" lon="1.90643">
        <ele>915.93268923077</ele>
        <time>2018-11-13T09:53:35.000Z</time>
      </trkpt>
      <trkpt lat="42.14156" lon="1.90642">
        <ele>917</ele>
        <time>2018-11-13T09:53:38.000Z</time>
      </trkpt>
      <trkpt lat="42.14158" lon="1.9064">
        <ele>918</ele>
        <time>2018-11-13T09:53:41.000Z</time>
      </trkpt>
      <trkpt lat="42.14157" lon="1.90638">
        <ele>919.03191808056</ele>
        <time>2018-11-13T09:53:49.000Z</time>
      </trkpt>
      <trkpt lat="42.14155" lon="1.90636">
        <ele>919</ele>
        <time>2018-11-13T09:53:52.000Z</time>
      </trkpt>
      <trkpt lat="42.14155" lon="1.90633">
        <ele>918</ele>
        <time>2018-11-13T09:53:56.000Z</time>
      </trkpt>
      <trkpt lat="42.14156" lon="1.9063">
        <ele>918</ele>
        <time>2018-11-13T09:53:58.000Z</time>
      </trkpt>
      <trkpt lat="42.14157" lon="1.90628">
        <ele>918</ele>
        <time>2018-11-13T09:54:00.000Z</time>
      </trkpt>
      <trkpt lat="42.14158" lon="1.90626">
        <ele>919.93268923077</ele>
        <time>2018-11-13T09:54:03.000Z</time>
      </trkpt>
      <trkpt lat="42.1416" lon="1.90624">
        <ele>920</ele>
        <time>2018-11-13T09:54:06.000Z</time>
      </trkpt>
      <trkpt lat="42.14162" lon="1.90622">
        <ele>921</ele>
        <time>2018-11-13T09:54:09.000Z</time>
      </trkpt>
      <trkpt lat="42.14163" lon="1.9062">
        <ele>922.91509684587</ele>
        <time>2018-11-13T09:54:16.000Z</time>
      </trkpt>
      <trkpt lat="42.14165" lon="1.90619">
        <ele>923</ele>
        <time>2018-11-13T09:54:20.000Z</time>
      </trkpt>
      <trkpt lat="42.14167" lon="1.90619">
        <ele>923.92380929161</ele>
        <time>2018-11-13T09:54:22.000Z</time>
      </trkpt>
      <trkpt lat="42.14169" lon="1.90619">
        <ele>925</ele>
        <time>2018-11-13T09:54:25.000Z</time>
      </trkpt>
      <trkpt lat="42.1417" lon="1.90617">
        <ele>925</ele>
        <time>2018-11-13T09:54:27.000Z</time>
      </trkpt>
      <trkpt lat="42.1417" lon="1.90614">
        <ele>925</ele>
        <time>2018-11-13T09:54:29.000Z</time>
      </trkpt>
      <trkpt lat="42.14171" lon="1.9061">
        <ele>926</ele>
        <time>2018-11-13T09:54:32.000Z</time>
      </trkpt>
      <trkpt lat="42.14171" lon="1.90607">
        <ele>926.9690691721</ele>
        <time>2018-11-13T09:54:34.000Z</time>
      </trkpt>
      <trkpt lat="42.14171" lon="1.90604">
        <ele>927</ele>
        <time>2018-11-13T09:54:36.000Z</time>
      </trkpt>
      <trkpt lat="42.14172" lon="1.90602">
        <ele>927</ele>
        <time>2018-11-13T09:54:38.000Z</time>
      </trkpt>
      <trkpt lat="42.14172" lon="1.90599">
        <ele>927</ele>
        <time>2018-11-13T09:54:40.000Z</time>
      </trkpt>
      <trkpt lat="42.14171" lon="1.90596">
        <ele>928</ele>
        <time>2018-11-13T09:54:42.000Z</time>
      </trkpt>
      <trkpt lat="42.14171" lon="1.90593">
        <ele>928</ele>
        <time>2018-11-13T09:54:44.000Z</time>
      </trkpt>
      <trkpt lat="42.14171" lon="1.9059">
        <ele>928.96666334817</ele>
        <time>2018-11-13T09:54:46.000Z</time>
      </trkpt>
      <trkpt lat="42.14171" lon="1.90587">
        <ele>929</ele>
        <time>2018-11-13T09:54:48.000Z</time>
      </trkpt>
      <trkpt lat="42.14171" lon="1.90584">
        <ele>929.93268923077</ele>
        <time>2018-11-13T09:54:50.000Z</time>
      </trkpt>
      <trkpt lat="42.14172" lon="1.90581">
        <ele>930</ele>
        <time>2018-11-13T09:54:52.000Z</time>
      </trkpt>
      <trkpt lat="42.14172" lon="1.90578">
        <ele>930</ele>
        <time>2018-11-13T09:54:54.000Z</time>
      </trkpt>
      <trkpt lat="42.14172" lon="1.90574">
        <ele>930</ele>
        <time>2018-11-13T09:54:56.000Z</time>
      </trkpt>
      <trkpt lat="42.14172" lon="1.90571">
        <ele>930</ele>
        <time>2018-11-13T09:54:58.000Z</time>
      </trkpt>
      <trkpt lat="42.14172" lon="1.90568">
        <ele>930</ele>
        <time>2018-11-13T09:55:00.000Z</time>
      </trkpt>
      <trkpt lat="42.14173" lon="1.90565">
        <ele>930</ele>
        <time>2018-11-13T09:55:02.000Z</time>
      </trkpt>
      <trkpt lat="42.14173" lon="1.90562">
        <ele>930.91509684587</ele>
        <time>2018-11-13T09:55:04.000Z</time>
      </trkpt>
      <trkpt lat="42.14173" lon="1.90559">
        <ele>931</ele>
        <time>2018-11-13T09:55:06.000Z</time>
      </trkpt>
      <trkpt lat="42.14174" lon="1.90556">
        <ele>931</ele>
        <time>2018-11-13T09:55:08.000Z</time>
      </trkpt>
      <trkpt lat="42.14175" lon="1.90553">
        <ele>931</ele>
        <time>2018-11-13T09:55:10.000Z</time>
      </trkpt>
      <trkpt lat="42.14176" lon="1.90549">
        <ele>931</ele>
        <time>2018-11-13T09:55:12.000Z</time>
      </trkpt>
      <trkpt lat="42.14176" lon="1.90545">
        <ele>931</ele>
        <time>2018-11-13T09:55:14.000Z</time>
      </trkpt>
      <trkpt lat="42.14177" lon="1.90542">
        <ele>931</ele>
        <time>2018-11-13T09:55:16.000Z</time>
      </trkpt>
      <trkpt lat="42.14178" lon="1.90538">
        <ele>931</ele>
        <time>2018-11-13T09:55:18.000Z</time>
      </trkpt>
      <trkpt lat="42.14179" lon="1.90534">
        <ele>931</ele>
        <time>2018-11-13T09:55:20.000Z</time>
      </trkpt>
      <trkpt lat="42.1418" lon="1.9053">
        <ele>931</ele>
        <time>2018-11-13T09:55:22.000Z</time>
      </trkpt>
      <trkpt lat="42.14182" lon="1.90527">
        <ele>931</ele>
        <time>2018-11-13T09:55:24.000Z</time>
      </trkpt>
      <trkpt lat="42.14183" lon="1.90523">
        <ele>931</ele>
        <time>2018-11-13T09:55:26.000Z</time>
      </trkpt>
      <trkpt lat="42.14183" lon="1.9052">
        <ele>931.95713867759</ele>
        <time>2018-11-13T09:55:28.000Z</time>
      </trkpt>
      <trkpt lat="42.14183" lon="1.90516">
        <ele>932</ele>
        <time>2018-11-13T09:55:30.000Z</time>
      </trkpt>
      <trkpt lat="42.14184" lon="1.90512">
        <ele>932</ele>
        <time>2018-11-13T09:55:32.000Z</time>
      </trkpt>
      <trkpt lat="42.14183" lon="1.90508">
        <ele>932</ele>
        <time>2018-11-13T09:55:34.000Z</time>
      </trkpt>
      <trkpt lat="42.14183" lon="1.90504">
        <ele>931</ele>
        <time>2018-11-13T09:55:36.000Z</time>
      </trkpt>
      <trkpt lat="42.14183" lon="1.905">
        <ele>931</ele>
        <time>2018-11-13T09:55:38.000Z</time>
      </trkpt>
      <trkpt lat="42.14182" lon="1.90498">
        <ele>931</ele>
        <time>2018-11-13T09:55:39.000Z</time>
      </trkpt>
      <trkpt lat="42.14182" lon="1.90493">
        <ele>931</ele>
        <time>2018-11-13T09:55:41.000Z</time>
      </trkpt>
      <trkpt lat="42.14181" lon="1.90489">
        <ele>931</ele>
        <time>2018-11-13T09:55:43.000Z</time>
      </trkpt>
      <trkpt lat="42.14181" lon="1.90485">
        <ele>931</ele>
        <time>2018-11-13T09:55:45.000Z</time>
      </trkpt>
      <trkpt lat="42.1418" lon="1.90481">
        <ele>931</ele>
        <time>2018-11-13T09:55:47.000Z</time>
      </trkpt>
      <trkpt lat="42.1418" lon="1.90476">
        <ele>931</ele>
        <time>2018-11-13T09:55:49.000Z</time>
      </trkpt>
      <trkpt lat="42.1418" lon="1.90472">
        <ele>931</ele>
        <time>2018-11-13T09:55:51.000Z</time>
      </trkpt>
      <trkpt lat="42.1418" lon="1.90469">
        <ele>931</ele>
        <time>2018-11-13T09:55:53.000Z</time>
      </trkpt>
      <trkpt lat="42.1418" lon="1.90466">
        <ele>931</ele>
        <time>2018-11-13T09:55:54.000Z</time>
      </trkpt>
      <trkpt lat="42.14179" lon="1.90463">
        <ele>931</ele>
        <time>2018-11-13T09:55:56.000Z</time>
      </trkpt>
      <trkpt lat="42.14178" lon="1.90459">
        <ele>931</ele>
        <time>2018-11-13T09:55:58.000Z</time>
      </trkpt>
      <trkpt lat="42.14178" lon="1.90455">
        <ele>931</ele>
        <time>2018-11-13T09:56:00.000Z</time>
      </trkpt>
      <trkpt lat="42.14177" lon="1.90452">
        <ele>931.89814518518</ele>
        <time>2018-11-13T09:56:02.000Z</time>
      </trkpt>
      <trkpt lat="42.14177" lon="1.90449">
        <ele>933</ele>
        <time>2018-11-13T09:56:04.000Z</time>
      </trkpt>
      <trkpt lat="42.14177" lon="1.90445">
        <ele>933.96738782609</ele>
        <time>2018-11-13T09:56:06.000Z</time>
      </trkpt>
      <trkpt lat="42.14177" lon="1.90441">
        <ele>934</ele>
        <time>2018-11-13T09:56:08.000Z</time>
      </trkpt>
      <trkpt lat="42.14178" lon="1.90437">
        <ele>934</ele>
        <time>2018-11-13T09:56:10.000Z</time>
      </trkpt>
      <trkpt lat="42.14178" lon="1.90434">
        <ele>934</ele>
        <time>2018-11-13T09:56:12.000Z</time>
      </trkpt>
      <trkpt lat="42.1418" lon="1.90431">
        <ele>934</ele>
        <time>2018-11-13T09:56:14.000Z</time>
      </trkpt>
      <trkpt lat="42.14181" lon="1.90428">
        <ele>934.9699968</ele>
        <time>2018-11-13T09:56:16.000Z</time>
      </trkpt>
      <trkpt lat="42.14182" lon="1.90425">
        <ele>935</ele>
        <time>2018-11-13T09:56:18.000Z</time>
      </trkpt>
      <trkpt lat="42.14183" lon="1.90422">
        <ele>935</ele>
        <time>2018-11-13T09:56:20.000Z</time>
      </trkpt>
      <trkpt lat="42.14184" lon="1.90419">
        <ele>935</ele>
        <time>2018-11-13T09:56:22.000Z</time>
      </trkpt>
      <trkpt lat="42.14185" lon="1.90417">
        <ele>935</ele>
        <time>2018-11-13T09:56:24.000Z</time>
      </trkpt>
      <trkpt lat="42.14186" lon="1.90414">
        <ele>935</ele>
        <time>2018-11-13T09:56:26.000Z</time>
      </trkpt>
      <trkpt lat="42.14186" lon="1.9041">
        <ele>936.9699968</ele>
        <time>2018-11-13T09:56:29.000Z</time>
      </trkpt>
      <trkpt lat="42.14187" lon="1.90408">
        <ele>937</ele>
        <time>2018-11-13T09:56:31.000Z</time>
      </trkpt>
      <trkpt lat="42.14187" lon="1.90404">
        <ele>937</ele>
        <time>2018-11-13T09:56:33.000Z</time>
      </trkpt>
      <trkpt lat="42.14186" lon="1.904">
        <ele>937.9699968</ele>
        <time>2018-11-13T09:56:35.000Z</time>
      </trkpt>
      <trkpt lat="42.14185" lon="1.90397">
        <ele>938</ele>
        <time>2018-11-13T09:56:37.000Z</time>
      </trkpt>
      <trkpt lat="42.14184" lon="1.90395">
        <ele>938</ele>
        <time>2018-11-13T09:56:39.000Z</time>
      </trkpt>
      <trkpt lat="42.14184" lon="1.90392">
        <ele>938</ele>
        <time>2018-11-13T09:56:41.000Z</time>
      </trkpt>
      <trkpt lat="42.14183" lon="1.90389">
        <ele>938</ele>
        <time>2018-11-13T09:56:43.000Z</time>
      </trkpt>
      <trkpt lat="42.14183" lon="1.90386">
        <ele>938</ele>
        <time>2018-11-13T09:56:46.000Z</time>
      </trkpt>
      <trkpt lat="42.14184" lon="1.90382">
        <ele>939</ele>
        <time>2018-11-13T09:56:49.000Z</time>
      </trkpt>
      <trkpt lat="42.14184" lon="1.9038">
        <ele>939.96841779059</ele>
        <time>2018-11-13T09:56:52.000Z</time>
      </trkpt>
      <trkpt lat="42.14183" lon="1.90376">
        <ele>940</ele>
        <time>2018-11-13T09:56:55.000Z</time>
      </trkpt>
      <trkpt lat="42.14183" lon="1.90373">
        <ele>941</ele>
        <time>2018-11-13T09:56:57.000Z</time>
      </trkpt>
      <trkpt lat="42.14182" lon="1.9037">
        <ele>941</ele>
        <time>2018-11-13T09:57:00.000Z</time>
      </trkpt>
      <trkpt lat="42.14181" lon="1.90368">
        <ele>941</ele>
        <time>2018-11-13T09:57:02.000Z</time>
      </trkpt>
      <trkpt lat="42.14181" lon="1.90364">
        <ele>941</ele>
        <time>2018-11-13T09:57:05.000Z</time>
      </trkpt>
      <trkpt lat="42.14181" lon="1.90361">
        <ele>942</ele>
        <time>2018-11-13T09:57:08.000Z</time>
      </trkpt>
      <trkpt lat="42.1418" lon="1.90358">
        <ele>942.96874666667</ele>
        <time>2018-11-13T09:57:11.000Z</time>
      </trkpt>
      <trkpt lat="42.14179" lon="1.90356">
        <ele>943</ele>
        <time>2018-11-13T09:57:13.000Z</time>
      </trkpt>
      <trkpt lat="42.14178" lon="1.90354">
        <ele>944</ele>
        <time>2018-11-13T09:57:15.000Z</time>
      </trkpt>
      <trkpt lat="42.14177" lon="1.90352">
        <ele>944.88990793367</ele>
        <time>2018-11-13T09:57:17.000Z</time>
      </trkpt>
      <trkpt lat="42.14175" lon="1.9035">
        <ele>945</ele>
        <time>2018-11-13T09:57:20.000Z</time>
      </trkpt>
      <trkpt lat="42.14173" lon="1.90347">
        <ele>946</ele>
        <time>2018-11-13T09:57:23.000Z</time>
      </trkpt>
      <trkpt lat="42.14171" lon="1.90346">
        <ele>947</ele>
        <time>2018-11-13T09:57:26.000Z</time>
      </trkpt>
      <trkpt lat="42.1417" lon="1.90343">
        <ele>947</ele>
        <time>2018-11-13T09:57:30.000Z</time>
      </trkpt>
      <trkpt lat="42.14171" lon="1.90341">
        <ele>947</ele>
        <time>2018-11-13T09:57:33.000Z</time>
      </trkpt>
      <trkpt lat="42.14172" lon="1.90339">
        <ele>948</ele>
        <time>2018-11-13T09:57:36.000Z</time>
      </trkpt>
      <trkpt lat="42.14174" lon="1.90338">
        <ele>949.91509684587</ele>
        <time>2018-11-13T09:57:39.000Z</time>
      </trkpt>
      <trkpt lat="42.14176" lon="1.90338">
        <ele>950</ele>
        <time>2018-11-13T09:57:44.000Z</time>
      </trkpt>
      <trkpt lat="42.14178" lon="1.90338">
        <ele>951</ele>
        <time>2018-11-13T09:57:48.000Z</time>
      </trkpt>
      <trkpt lat="42.14177" lon="1.90336">
        <ele>953</ele>
        <time>2018-11-13T09:57:56.000Z</time>
      </trkpt>
      <trkpt lat="42.14176" lon="1.90334">
        <ele>953</ele>
        <time>2018-11-13T09:57:58.000Z</time>
      </trkpt>
      <trkpt lat="42.14174" lon="1.90333">
        <ele>953</ele>
        <time>2018-11-13T09:58:00.000Z</time>
      </trkpt>
      <trkpt lat="42.14172" lon="1.90331">
        <ele>953</ele>
        <time>2018-11-13T09:58:02.000Z</time>
      </trkpt>
      <trkpt lat="42.1417" lon="1.90329">
        <ele>953</ele>
        <time>2018-11-13T09:58:04.000Z</time>
      </trkpt>
      <trkpt lat="42.14169" lon="1.90327">
        <ele>954</ele>
        <time>2018-11-13T09:58:06.000Z</time>
      </trkpt>
      <trkpt lat="42.14167" lon="1.90326">
        <ele>954</ele>
        <time>2018-11-13T09:58:08.000Z</time>
      </trkpt>
      <trkpt lat="42.14166" lon="1.90324">
        <ele>954</ele>
        <time>2018-11-13T09:58:10.000Z</time>
      </trkpt>
      <trkpt lat="42.14166" lon="1.90321">
        <ele>954</ele>
        <time>2018-11-13T09:58:12.000Z</time>
      </trkpt>
      <trkpt lat="42.14164" lon="1.90319">
        <ele>955</ele>
        <time>2018-11-13T09:58:15.000Z</time>
      </trkpt>
      <trkpt lat="42.14162" lon="1.90316">
        <ele>955.96590545455</ele>
        <time>2018-11-13T09:58:18.000Z</time>
      </trkpt>
      <trkpt lat="42.14161" lon="1.90315">
        <ele>956</ele>
        <time>2018-11-13T09:58:20.000Z</time>
      </trkpt>
      <trkpt lat="42.14159" lon="1.90313">
        <ele>957</ele>
        <time>2018-11-13T09:58:23.000Z</time>
      </trkpt>
      <trkpt lat="42.14158" lon="1.9031">
        <ele>958</ele>
        <time>2018-11-13T09:58:26.000Z</time>
      </trkpt>
      <trkpt lat="42.14156" lon="1.90308">
        <ele>959</ele>
        <time>2018-11-13T09:58:29.000Z</time>
      </trkpt>
      <trkpt lat="42.14155" lon="1.90306">
        <ele>959</ele>
        <time>2018-11-13T09:58:32.000Z</time>
      </trkpt>
      <trkpt lat="42.14153" lon="1.90303">
        <ele>960</ele>
        <time>2018-11-13T09:58:35.000Z</time>
      </trkpt>
      <trkpt lat="42.14152" lon="1.90302">
        <ele>960</ele>
        <time>2018-11-13T09:58:37.000Z</time>
      </trkpt>
      <trkpt lat="42.1415" lon="1.903">
        <ele>961</ele>
        <time>2018-11-13T09:58:39.000Z</time>
      </trkpt>
      <trkpt lat="42.14147" lon="1.90298">
        <ele>961</ele>
        <time>2018-11-13T09:58:41.000Z</time>
      </trkpt>
      <trkpt lat="42.14146" lon="1.90296">
        <ele>961</ele>
        <time>2018-11-13T09:58:43.000Z</time>
      </trkpt>
      <trkpt lat="42.14144" lon="1.90294">
        <ele>961</ele>
        <time>2018-11-13T09:58:45.000Z</time>
      </trkpt>
      <trkpt lat="42.14142" lon="1.90291">
        <ele>961</ele>
        <time>2018-11-13T09:58:47.000Z</time>
      </trkpt>
      <trkpt lat="42.1414" lon="1.90289">
        <ele>961</ele>
        <time>2018-11-13T09:58:49.000Z</time>
      </trkpt>
      <trkpt lat="42.14138" lon="1.90287">
        <ele>961</ele>
        <time>2018-11-13T09:58:51.000Z</time>
      </trkpt>
      <trkpt lat="42.14136" lon="1.90285">
        <ele>961</ele>
        <time>2018-11-13T09:58:53.000Z</time>
      </trkpt>
      <trkpt lat="42.14135" lon="1.90283">
        <ele>961.87387854886</ele>
        <time>2018-11-13T09:58:55.000Z</time>
      </trkpt>
      <trkpt lat="42.14134" lon="1.90281">
        <ele>962</ele>
        <time>2018-11-13T09:58:57.000Z</time>
      </trkpt>
      <trkpt lat="42.14132" lon="1.90278">
        <ele>963.9699968</ele>
        <time>2018-11-13T09:59:00.000Z</time>
      </trkpt>
      <trkpt lat="42.14129" lon="1.90277">
        <ele>964</ele>
        <time>2018-11-13T09:59:02.000Z</time>
      </trkpt>
      <trkpt lat="42.14127" lon="1.90275">
        <ele>964</ele>
        <time>2018-11-13T09:59:04.000Z</time>
      </trkpt>
      <trkpt lat="42.14126" lon="1.90273">
        <ele>965</ele>
        <time>2018-11-13T09:59:06.000Z</time>
      </trkpt>
      <trkpt lat="42.14124" lon="1.9027">
        <ele>965</ele>
        <time>2018-11-13T09:59:08.000Z</time>
      </trkpt>
      <trkpt lat="42.14124" lon="1.90268">
        <ele>965</ele>
        <time>2018-11-13T09:59:10.000Z</time>
      </trkpt>
      <trkpt lat="42.14123" lon="1.90265">
        <ele>965</ele>
        <time>2018-11-13T09:59:12.000Z</time>
      </trkpt>
      <trkpt lat="42.14121" lon="1.90263">
        <ele>965</ele>
        <time>2018-11-13T09:59:14.000Z</time>
      </trkpt>
      <trkpt lat="42.1412" lon="1.90261">
        <ele>966</ele>
        <time>2018-11-13T09:59:16.000Z</time>
      </trkpt>
      <trkpt lat="42.1412" lon="1.90258">
        <ele>966</ele>
        <time>2018-11-13T09:59:18.000Z</time>
      </trkpt>
      <trkpt lat="42.1412" lon="1.90256">
        <ele>966</ele>
        <time>2018-11-13T09:59:20.000Z</time>
      </trkpt>
      <trkpt lat="42.14119" lon="1.90253">
        <ele>966.95098322186</ele>
        <time>2018-11-13T09:59:23.000Z</time>
      </trkpt>
      <trkpt lat="42.14118" lon="1.90251">
        <ele>968</ele>
        <time>2018-11-13T09:59:26.000Z</time>
      </trkpt>
      <trkpt lat="42.14116" lon="1.90249">
        <ele>968</ele>
        <time>2018-11-13T09:59:29.000Z</time>
      </trkpt>
      <trkpt lat="42.14114" lon="1.90248">
        <ele>968</ele>
        <time>2018-11-13T09:59:32.000Z</time>
      </trkpt>
      <trkpt lat="42.14111" lon="1.90248">
        <ele>969</ele>
        <time>2018-11-13T09:59:35.000Z</time>
      </trkpt>
      <trkpt lat="42.14109" lon="1.90247">
        <ele>969.95081520028</ele>
        <time>2018-11-13T09:59:37.000Z</time>
      </trkpt>
      <trkpt lat="42.14107" lon="1.90248">
        <ele>970</ele>
        <time>2018-11-13T09:59:39.000Z</time>
      </trkpt>
      <trkpt lat="42.14105" lon="1.90248">
        <ele>970</ele>
        <time>2018-11-13T09:59:41.000Z</time>
      </trkpt>
      <trkpt lat="42.14103" lon="1.90248">
        <ele>970</ele>
        <time>2018-11-13T09:59:43.000Z</time>
      </trkpt>
      <trkpt lat="42.14101" lon="1.90247">
        <ele>971</ele>
        <time>2018-11-13T09:59:45.000Z</time>
      </trkpt>
      <trkpt lat="42.14098" lon="1.90247">
        <ele>972</ele>
        <time>2018-11-13T09:59:47.000Z</time>
      </trkpt>
      <trkpt lat="42.14097" lon="1.90246">
        <ele>972</ele>
        <time>2018-11-13T09:59:49.000Z</time>
      </trkpt>
      <trkpt lat="42.14095" lon="1.90245">
        <ele>972.9699968</ele>
        <time>2018-11-13T09:59:51.000Z</time>
      </trkpt>
      <trkpt lat="42.14093" lon="1.90244">
        <ele>973</ele>
        <time>2018-11-13T09:59:54.000Z</time>
      </trkpt>
      <trkpt lat="42.14091" lon="1.90243">
        <ele>972.03261217391</ele>
        <time>2018-11-13T09:59:56.000Z</time>
      </trkpt>
      <trkpt lat="42.14089" lon="1.90242">
        <ele>973</ele>
        <time>2018-11-13T09:59:58.000Z</time>
      </trkpt>
      <trkpt lat="42.14087" lon="1.90241">
        <ele>973</ele>
        <time>2018-11-13T10:00:00.000Z</time>
      </trkpt>
      <trkpt lat="42.14085" lon="1.90239">
        <ele>975</ele>
        <time>2018-11-13T10:00:06.000Z</time>
      </trkpt>
      <trkpt lat="42.14083" lon="1.90238">
        <ele>975</ele>
        <time>2018-11-13T10:00:10.000Z</time>
      </trkpt>
      <trkpt lat="42.1408" lon="1.90237">
        <ele>976</ele>
        <time>2018-11-13T10:00:23.000Z</time>
      </trkpt>
      <trkpt lat="42.14078" lon="1.90236">
        <ele>976</ele>
        <time>2018-11-13T10:00:25.000Z</time>
      </trkpt>
      <trkpt lat="42.14077" lon="1.90233">
        <ele>976</ele>
        <time>2018-11-13T10:00:28.000Z</time>
      </trkpt>
      <trkpt lat="42.14075" lon="1.90231">
        <ele>977</ele>
        <time>2018-11-13T10:00:31.000Z</time>
      </trkpt>
      <trkpt lat="42.14073" lon="1.90228">
        <ele>977</ele>
        <time>2018-11-13T10:00:34.000Z</time>
      </trkpt>
      <trkpt lat="42.14072" lon="1.90226">
        <ele>978</ele>
        <time>2018-11-13T10:00:36.000Z</time>
      </trkpt>
      <trkpt lat="42.1407" lon="1.90224">
        <ele>979</ele>
        <time>2018-11-13T10:00:39.000Z</time>
      </trkpt>
      <trkpt lat="42.14068" lon="1.90222">
        <ele>979</ele>
        <time>2018-11-13T10:00:42.000Z</time>
      </trkpt>
      <trkpt lat="42.14066" lon="1.9022">
        <ele>980</ele>
        <time>2018-11-13T10:00:44.000Z</time>
      </trkpt>
      <trkpt lat="42.14065" lon="1.90218">
        <ele>981</ele>
        <time>2018-11-13T10:00:53.000Z</time>
      </trkpt>
      <trkpt lat="42.14063" lon="1.90215">
        <ele>981</ele>
        <time>2018-11-13T10:00:55.000Z</time>
      </trkpt>
      <trkpt lat="42.14062" lon="1.90213">
        <ele>981</ele>
        <time>2018-11-13T10:00:57.000Z</time>
      </trkpt>
      <trkpt lat="42.14062" lon="1.9021">
        <ele>982</ele>
        <time>2018-11-13T10:01:00.000Z</time>
      </trkpt>
      <trkpt lat="42.14061" lon="1.90207">
        <ele>983.03226117236</ele>
        <time>2018-11-13T10:01:19.000Z</time>
      </trkpt>
      <trkpt lat="42.1406" lon="1.90204">
        <ele>983</ele>
        <time>2018-11-13T10:01:22.000Z</time>
      </trkpt>
      <trkpt lat="42.14059" lon="1.90201">
        <ele>983.9699968</ele>
        <time>2018-11-13T10:01:25.000Z</time>
      </trkpt>
      <trkpt lat="42.14059" lon="1.90198">
        <ele>984</ele>
        <time>2018-11-13T10:01:27.000Z</time>
      </trkpt>
      <trkpt lat="42.14058" lon="1.90196">
        <ele>984</ele>
        <time>2018-11-13T10:01:29.000Z</time>
      </trkpt>
      <trkpt lat="42.14058" lon="1.90192">
        <ele>985</ele>
        <time>2018-11-13T10:01:32.000Z</time>
      </trkpt>
      <trkpt lat="42.14058" lon="1.9019">
        <ele>985</ele>
        <time>2018-11-13T10:01:34.000Z</time>
      </trkpt>
      <trkpt lat="42.14057" lon="1.90187">
        <ele>985</ele>
        <time>2018-11-13T10:01:37.000Z</time>
      </trkpt>
      <trkpt lat="42.14057" lon="1.90184">
        <ele>985</ele>
        <time>2018-11-13T10:01:40.000Z</time>
      </trkpt>
      <trkpt lat="42.14055" lon="1.90181">
        <ele>986</ele>
        <time>2018-11-13T10:01:43.000Z</time>
      </trkpt>
      <trkpt lat="42.14054" lon="1.90179">
        <ele>987</ele>
        <time>2018-11-13T10:01:46.000Z</time>
      </trkpt>
      <trkpt lat="42.14053" lon="1.90176">
        <ele>988</ele>
        <time>2018-11-13T10:01:49.000Z</time>
      </trkpt>
      <trkpt lat="42.14052" lon="1.90174">
        <ele>988</ele>
        <time>2018-11-13T10:01:51.000Z</time>
      </trkpt>
      <trkpt lat="42.14051" lon="1.90171">
        <ele>989</ele>
        <time>2018-11-13T10:01:54.000Z</time>
      </trkpt>
      <trkpt lat="42.1405" lon="1.90169">
        <ele>990</ele>
        <time>2018-11-13T10:01:57.000Z</time>
      </trkpt>
      <trkpt lat="42.14049" lon="1.90166">
        <ele>990</ele>
        <time>2018-11-13T10:01:59.000Z</time>
      </trkpt>
      <trkpt lat="42.14048" lon="1.90163">
        <ele>990</ele>
        <time>2018-11-13T10:02:02.000Z</time>
      </trkpt>
      <trkpt lat="42.14047" lon="1.9016">
        <ele>992</ele>
        <time>2018-11-13T10:02:05.000Z</time>
      </trkpt>
      <trkpt lat="42.14046" lon="1.90158">
        <ele>992</ele>
        <time>2018-11-13T10:02:07.000Z</time>
      </trkpt>
      <trkpt lat="42.14046" lon="1.90155">
        <ele>992</ele>
        <time>2018-11-13T10:02:10.000Z</time>
      </trkpt>
      <trkpt lat="42.14044" lon="1.90153">
        <ele>993</ele>
        <time>2018-11-13T10:02:14.000Z</time>
      </trkpt>
      <trkpt lat="42.14043" lon="1.90151">
        <ele>993</ele>
        <time>2018-11-13T10:02:17.000Z</time>
      </trkpt>
      <trkpt lat="42.14041" lon="1.90149">
        <ele>994</ele>
        <time>2018-11-13T10:02:20.000Z</time>
      </trkpt>
      <trkpt lat="42.1404" lon="1.90146">
        <ele>995</ele>
        <time>2018-11-13T10:02:23.000Z</time>
      </trkpt>
      <trkpt lat="42.14039" lon="1.90143">
        <ele>995</ele>
        <time>2018-11-13T10:02:26.000Z</time>
      </trkpt>
      <trkpt lat="42.14037" lon="1.9014">
        <ele>996</ele>
        <time>2018-11-13T10:02:29.000Z</time>
      </trkpt>
      <trkpt lat="42.14036" lon="1.90138">
        <ele>996</ele>
        <time>2018-11-13T10:02:31.000Z</time>
      </trkpt>
      <trkpt lat="42.14034" lon="1.90136">
        <ele>996</ele>
        <time>2018-11-13T10:02:33.000Z</time>
      </trkpt>
      <trkpt lat="42.14033" lon="1.90134">
        <ele>997</ele>
        <time>2018-11-13T10:02:35.000Z</time>
      </trkpt>
      <trkpt lat="42.14031" lon="1.90131">
        <ele>997</ele>
        <time>2018-11-13T10:02:38.000Z</time>
      </trkpt>
      <trkpt lat="42.14028" lon="1.9013">
        <ele>997</ele>
        <time>2018-11-13T10:02:40.000Z</time>
      </trkpt>
      <trkpt lat="42.14026" lon="1.90128">
        <ele>997.9699968</ele>
        <time>2018-11-13T10:02:42.000Z</time>
      </trkpt>
      <trkpt lat="42.14025" lon="1.90126">
        <ele>998</ele>
        <time>2018-11-13T10:02:44.000Z</time>
      </trkpt>
      <trkpt lat="42.14023" lon="1.90124">
        <ele>998.88990793367</ele>
        <time>2018-11-13T10:02:46.000Z</time>
      </trkpt>
      <trkpt lat="42.14021" lon="1.90121">
        <ele>999</ele>
        <time>2018-11-13T10:02:48.000Z</time>
      </trkpt>
      <trkpt lat="42.1402" lon="1.90119">
        <ele>999</ele>
        <time>2018-11-13T10:02:50.000Z</time>
      </trkpt>
      <trkpt lat="42.14018" lon="1.90115">
        <ele>999.96773882764</ele>
        <time>2018-11-13T10:02:53.000Z</time>
      </trkpt>
      <trkpt lat="42.14017" lon="1.90112">
        <ele>1000</ele>
        <time>2018-11-13T10:02:55.000Z</time>
      </trkpt>
      <trkpt lat="42.14016" lon="1.90109">
        <ele>1000</ele>
        <time>2018-11-13T10:02:57.000Z</time>
      </trkpt>
      <trkpt lat="42.14015" lon="1.90105">
        <ele>1000</ele>
        <time>2018-11-13T10:02:59.000Z</time>
      </trkpt>
      <trkpt lat="42.14014" lon="1.90102">
        <ele>1000</ele>
        <time>2018-11-13T10:03:01.000Z</time>
      </trkpt>
      <trkpt lat="42.14013" lon="1.90098">
        <ele>1000</ele>
        <time>2018-11-13T10:03:03.000Z</time>
      </trkpt>
      <trkpt lat="42.14012" lon="1.90095">
        <ele>1000</ele>
        <time>2018-11-13T10:03:05.000Z</time>
      </trkpt>
      <trkpt lat="42.14012" lon="1.90092">
        <ele>1000</ele>
        <time>2018-11-13T10:03:07.000Z</time>
      </trkpt>
      <trkpt lat="42.14011" lon="1.90089">
        <ele>1000</ele>
        <time>2018-11-13T10:03:09.000Z</time>
      </trkpt>
      <trkpt lat="42.14009" lon="1.90086">
        <ele>1000</ele>
        <time>2018-11-13T10:03:11.000Z</time>
      </trkpt>
      <trkpt lat="42.14008" lon="1.90082">
        <ele>1000</ele>
        <time>2018-11-13T10:03:13.000Z</time>
      </trkpt>
      <trkpt lat="42.14006" lon="1.90078">
        <ele>1000</ele>
        <time>2018-11-13T10:03:15.000Z</time>
      </trkpt>
      <trkpt lat="42.14006" lon="1.90076">
        <ele>1000</ele>
        <time>2018-11-13T10:03:16.000Z</time>
      </trkpt>
      <trkpt lat="42.14004" lon="1.90072">
        <ele>1000</ele>
        <time>2018-11-13T10:03:18.000Z</time>
      </trkpt>
      <trkpt lat="42.14003" lon="1.9007">
        <ele>999.9699968</ele>
        <time>2018-11-13T10:03:20.000Z</time>
      </trkpt>
      <trkpt lat="42.14001" lon="1.90068">
        <ele>1000</ele>
        <time>2018-11-13T10:03:23.000Z</time>
      </trkpt>
      <trkpt lat="42.13999" lon="1.90066">
        <ele>1000</ele>
        <time>2018-11-13T10:03:25.000Z</time>
      </trkpt>
      <trkpt lat="42.13997" lon="1.90064">
        <ele>1000</ele>
        <time>2018-11-13T10:03:27.000Z</time>
      </trkpt>
      <trkpt lat="42.13997" lon="1.9006">
        <ele>1000</ele>
        <time>2018-11-13T10:03:29.000Z</time>
      </trkpt>
      <trkpt lat="42.13995" lon="1.90057">
        <ele>1000.9699968</ele>
        <time>2018-11-13T10:03:32.000Z</time>
      </trkpt>
      <trkpt lat="42.13993" lon="1.90054">
        <ele>1001</ele>
        <time>2018-11-13T10:03:34.000Z</time>
      </trkpt>
      <trkpt lat="42.13991" lon="1.90051">
        <ele>1001</ele>
        <time>2018-11-13T10:03:36.000Z</time>
      </trkpt>
      <trkpt lat="42.13989" lon="1.90048">
        <ele>1000</ele>
        <time>2018-11-13T10:03:38.000Z</time>
      </trkpt>
      <trkpt lat="42.13988" lon="1.90044">
        <ele>1000</ele>
        <time>2018-11-13T10:03:40.000Z</time>
      </trkpt>
      <trkpt lat="42.13988" lon="1.9004">
        <ele>1000</ele>
        <time>2018-11-13T10:03:42.000Z</time>
      </trkpt>
      <trkpt lat="42.13987" lon="1.90038">
        <ele>1000</ele>
        <time>2018-11-13T10:03:44.000Z</time>
      </trkpt>
      <trkpt lat="42.13985" lon="1.90035">
        <ele>1000</ele>
        <time>2018-11-13T10:03:46.000Z</time>
      </trkpt>
      <trkpt lat="42.13984" lon="1.90033">
        <ele>1000</ele>
        <time>2018-11-13T10:03:48.000Z</time>
      </trkpt>
      <trkpt lat="42.13982" lon="1.9003">
        <ele>1000</ele>
        <time>2018-11-13T10:03:50.000Z</time>
      </trkpt>
      <trkpt lat="42.1398" lon="1.90027">
        <ele>1000</ele>
        <time>2018-11-13T10:03:52.000Z</time>
      </trkpt>
      <trkpt lat="42.13978" lon="1.90023">
        <ele>1000</ele>
        <time>2018-11-13T10:03:54.000Z</time>
      </trkpt>
      <trkpt lat="42.13977" lon="1.90019">
        <ele>1000</ele>
        <time>2018-11-13T10:03:56.000Z</time>
      </trkpt>
      <trkpt lat="42.13975" lon="1.90015">
        <ele>1000</ele>
        <time>2018-11-13T10:03:58.000Z</time>
      </trkpt>
      <trkpt lat="42.13974" lon="1.90012">
        <ele>1000</ele>
        <time>2018-11-13T10:04:00.000Z</time>
      </trkpt>
      <trkpt lat="42.13972" lon="1.90009">
        <ele>1000</ele>
        <time>2018-11-13T10:04:02.000Z</time>
      </trkpt>
      <trkpt lat="42.13971" lon="1.90006">
        <ele>1000</ele>
        <time>2018-11-13T10:04:04.000Z</time>
      </trkpt>
      <trkpt lat="42.13972" lon="1.90002">
        <ele>1000</ele>
        <time>2018-11-13T10:04:06.000Z</time>
      </trkpt>
      <trkpt lat="42.13971" lon="1.89999">
        <ele>1000</ele>
        <time>2018-11-13T10:04:08.000Z</time>
      </trkpt>
      <trkpt lat="42.13971" lon="1.89997">
        <ele>1000</ele>
        <time>2018-11-13T10:04:10.000Z</time>
      </trkpt>
      <trkpt lat="42.13969" lon="1.89994">
        <ele>1000</ele>
        <time>2018-11-13T10:04:12.000Z</time>
      </trkpt>
      <trkpt lat="42.13968" lon="1.89991">
        <ele>1000</ele>
        <time>2018-11-13T10:04:14.000Z</time>
      </trkpt>
      <trkpt lat="42.13967" lon="1.89987">
        <ele>1000</ele>
        <time>2018-11-13T10:04:16.000Z</time>
      </trkpt>
      <trkpt lat="42.13967" lon="1.89984">
        <ele>1000</ele>
        <time>2018-11-13T10:04:18.000Z</time>
      </trkpt>
      <trkpt lat="42.13966" lon="1.8998">
        <ele>1000</ele>
        <time>2018-11-13T10:04:20.000Z</time>
      </trkpt>
      <trkpt lat="42.13966" lon="1.89976">
        <ele>1000</ele>
        <time>2018-11-13T10:04:22.000Z</time>
      </trkpt>
      <trkpt lat="42.13966" lon="1.89972">
        <ele>1000.9238092916</ele>
        <time>2018-11-13T10:04:24.000Z</time>
      </trkpt>
      <trkpt lat="42.13966" lon="1.89969">
        <ele>1001</ele>
        <time>2018-11-13T10:04:26.000Z</time>
      </trkpt>
      <trkpt lat="42.13966" lon="1.89966">
        <ele>1001</ele>
        <time>2018-11-13T10:04:28.000Z</time>
      </trkpt>
      <trkpt lat="42.13966" lon="1.89962">
        <ele>1001.9326892308</ele>
        <time>2018-11-13T10:04:30.000Z</time>
      </trkpt>
      <trkpt lat="42.13966" lon="1.89959">
        <ele>1002</ele>
        <time>2018-11-13T10:04:32.000Z</time>
      </trkpt>
      <trkpt lat="42.13965" lon="1.89955">
        <ele>1001.1018548148</ele>
        <time>2018-11-13T10:04:34.000Z</time>
      </trkpt>
      <trkpt lat="42.13964" lon="1.89952">
        <ele>1001</ele>
        <time>2018-11-13T10:04:36.000Z</time>
      </trkpt>
      <trkpt lat="42.13963" lon="1.89948">
        <ele>1001</ele>
        <time>2018-11-13T10:04:38.000Z</time>
      </trkpt>
      <trkpt lat="42.13963" lon="1.89944">
        <ele>1001</ele>
        <time>2018-11-13T10:04:40.000Z</time>
      </trkpt>
      <trkpt lat="42.13962" lon="1.8994">
        <ele>1001</ele>
        <time>2018-11-13T10:04:42.000Z</time>
      </trkpt>
      <trkpt lat="42.13962" lon="1.89937">
        <ele>1001</ele>
        <time>2018-11-13T10:04:44.000Z</time>
      </trkpt>
      <trkpt lat="42.13961" lon="1.89933">
        <ele>1001</ele>
        <time>2018-11-13T10:04:46.000Z</time>
      </trkpt>
      <trkpt lat="42.13961" lon="1.8993">
        <ele>1001</ele>
        <time>2018-11-13T10:04:48.000Z</time>
      </trkpt>
      <trkpt lat="42.13961" lon="1.89927">
        <ele>1001</ele>
        <time>2018-11-13T10:04:50.000Z</time>
      </trkpt>
      <trkpt lat="42.1396" lon="1.89922">
        <ele>1001</ele>
        <time>2018-11-13T10:04:52.000Z</time>
      </trkpt>
      <trkpt lat="42.13959" lon="1.89918">
        <ele>1001.9670295665</ele>
        <time>2018-11-13T10:04:54.000Z</time>
      </trkpt>
      <trkpt lat="42.13959" lon="1.89914">
        <ele>1002</ele>
        <time>2018-11-13T10:04:56.000Z</time>
      </trkpt>
      <trkpt lat="42.13959" lon="1.89909">
        <ele>1002</ele>
        <time>2018-11-13T10:04:58.000Z</time>
      </trkpt>
      <trkpt lat="42.13958" lon="1.89906">
        <ele>1002</ele>
        <time>2018-11-13T10:04:59.000Z</time>
      </trkpt>
      <trkpt lat="42.13957" lon="1.89903">
        <ele>1001.0300032</ele>
        <time>2018-11-13T10:05:00.000Z</time>
      </trkpt>
      <trkpt lat="42.13957" lon="1.899">
        <ele>1001</ele>
        <time>2018-11-13T10:05:01.000Z</time>
      </trkpt>
      <trkpt lat="42.13956" lon="1.89897">
        <ele>1001</ele>
        <time>2018-11-13T10:05:02.000Z</time>
      </trkpt>
      <trkpt lat="42.13955" lon="1.89894">
        <ele>1001</ele>
        <time>2018-11-13T10:05:03.000Z</time>
      </trkpt>
      <trkpt lat="42.13955" lon="1.89891">
        <ele>1001</ele>
        <time>2018-11-13T10:05:04.000Z</time>
      </trkpt>
      <trkpt lat="42.13954" lon="1.89888">
        <ele>1000.0300032</ele>
        <time>2018-11-13T10:05:05.000Z</time>
      </trkpt>
      <trkpt lat="42.13953" lon="1.89885">
        <ele>1000</ele>
        <time>2018-11-13T10:05:06.000Z</time>
      </trkpt>
      <trkpt lat="42.13952" lon="1.89883">
        <ele>1000</ele>
        <time>2018-11-13T10:05:07.000Z</time>
      </trkpt>
      <trkpt lat="42.13952" lon="1.8988">
        <ele>1000</ele>
        <time>2018-11-13T10:05:08.000Z</time>
      </trkpt>
      <trkpt lat="42.13951" lon="1.89877">
        <ele>1000</ele>
        <time>2018-11-13T10:05:09.000Z</time>
      </trkpt>
      <trkpt lat="42.1395" lon="1.89874">
        <ele>1000</ele>
        <time>2018-11-13T10:05:10.000Z</time>
      </trkpt>
      <trkpt lat="42.1395" lon="1.89871">
        <ele>1000</ele>
        <time>2018-11-13T10:05:11.000Z</time>
      </trkpt>
      <trkpt lat="42.13951" lon="1.89867">
        <ele>999.03333665183</ele>
        <time>2018-11-13T10:05:13.000Z</time>
      </trkpt>
      <trkpt lat="42.13952" lon="1.89864">
        <ele>1000</ele>
        <time>2018-11-13T10:05:15.000Z</time>
      </trkpt>
      <trkpt lat="42.13952" lon="1.8986">
        <ele>1000</ele>
        <time>2018-11-13T10:05:17.000Z</time>
      </trkpt>
      <trkpt lat="42.13953" lon="1.89856">
        <ele>1000</ele>
        <time>2018-11-13T10:05:19.000Z</time>
      </trkpt>
      <trkpt lat="42.13954" lon="1.89853">
        <ele>1000</ele>
        <time>2018-11-13T10:05:21.000Z</time>
      </trkpt>
      <trkpt lat="42.13954" lon="1.8985">
        <ele>1000</ele>
        <time>2018-11-13T10:05:23.000Z</time>
      </trkpt>
      <trkpt lat="42.13955" lon="1.89846">
        <ele>1000.9673878261</ele>
        <time>2018-11-13T10:05:25.000Z</time>
      </trkpt>
      <trkpt lat="42.13956" lon="1.89844">
        <ele>1001.8981451852</ele>
        <time>2018-11-13T10:05:27.000Z</time>
      </trkpt>
      <trkpt lat="42.13957" lon="1.89841">
        <ele>1002</ele>
        <time>2018-11-13T10:05:29.000Z</time>
      </trkpt>
      <trkpt lat="42.13958" lon="1.89838">
        <ele>1002</ele>
        <time>2018-11-13T10:05:31.000Z</time>
      </trkpt>
      <trkpt lat="42.13959" lon="1.89835">
        <ele>1002</ele>
        <time>2018-11-13T10:05:33.000Z</time>
      </trkpt>
      <trkpt lat="42.1396" lon="1.89833">
        <ele>1002.9677388276</ele>
        <time>2018-11-13T10:05:35.000Z</time>
      </trkpt>
      <trkpt lat="42.13962" lon="1.8983">
        <ele>1004</ele>
        <time>2018-11-13T10:05:38.000Z</time>
      </trkpt>
      <trkpt lat="42.13964" lon="1.89829">
        <ele>1004</ele>
        <time>2018-11-13T10:05:41.000Z</time>
      </trkpt>
      <trkpt lat="42.13966" lon="1.89828">
        <ele>1004.9680819194</ele>
        <time>2018-11-13T10:05:44.000Z</time>
      </trkpt>
      <trkpt lat="42.13968" lon="1.89828">
        <ele>1005.7301550214</ele>
        <time>2018-11-13T10:05:47.000Z</time>
      </trkpt>
      <trkpt lat="42.1397" lon="1.89827">
        <ele>1006</ele>
        <time>2018-11-13T10:05:50.000Z</time>
      </trkpt>
      <trkpt lat="42.13972" lon="1.89826">
        <ele>1007</ele>
        <time>2018-11-13T10:05:53.000Z</time>
      </trkpt>
      <trkpt lat="42.13974" lon="1.89826">
        <ele>1009</ele>
        <time>2018-11-13T10:05:56.000Z</time>
      </trkpt>
      <trkpt lat="42.13977" lon="1.89825">
        <ele>1009</ele>
        <time>2018-11-13T10:05:59.000Z</time>
      </trkpt>
      <trkpt lat="42.13979" lon="1.89824">
        <ele>1009</ele>
        <time>2018-11-13T10:06:02.000Z</time>
      </trkpt>
      <trkpt lat="42.13982" lon="1.89823">
        <ele>1009</ele>
        <time>2018-11-13T10:06:05.000Z</time>
      </trkpt>
      <trkpt lat="42.13984" lon="1.89823">
        <ele>1009</ele>
        <time>2018-11-13T10:06:07.000Z</time>
      </trkpt>
      <trkpt lat="42.13986" lon="1.89823">
        <ele>1009</ele>
        <time>2018-11-13T10:06:09.000Z</time>
      </trkpt>
      <trkpt lat="42.13988" lon="1.89822">
        <ele>1009</ele>
        <time>2018-11-13T10:06:11.000Z</time>
      </trkpt>
      <trkpt lat="42.1399" lon="1.89822">
        <ele>1009</ele>
        <time>2018-11-13T10:06:13.000Z</time>
      </trkpt>
      <trkpt lat="42.13993" lon="1.89822">
        <ele>1010</ele>
        <time>2018-11-13T10:06:16.000Z</time>
      </trkpt>
      <trkpt lat="42.13994" lon="1.89821">
        <ele>1010.9690691721</ele>
        <time>2018-11-13T10:06:18.000Z</time>
      </trkpt>
      <trkpt lat="42.13996" lon="1.89821">
        <ele>1011</ele>
        <time>2018-11-13T10:06:20.000Z</time>
      </trkpt>
      <trkpt lat="42.13998" lon="1.89821">
        <ele>1011</ele>
        <time>2018-11-13T10:06:22.000Z</time>
      </trkpt>
      <trkpt lat="42.14001" lon="1.8982">
        <ele>1011</ele>
        <time>2018-11-13T10:06:24.000Z</time>
      </trkpt>
      <trkpt lat="42.14004" lon="1.8982">
        <ele>1011.9295810197</ele>
        <time>2018-11-13T10:06:26.000Z</time>
      </trkpt>
      <trkpt lat="42.14006" lon="1.89818">
        <ele>1012</ele>
        <time>2018-11-13T10:06:28.000Z</time>
      </trkpt>
      <trkpt lat="42.14008" lon="1.89817">
        <ele>1011</ele>
        <time>2018-11-13T10:06:30.000Z</time>
      </trkpt>
      <trkpt lat="42.14011" lon="1.89815">
        <ele>1012</ele>
        <time>2018-11-13T10:06:32.000Z</time>
      </trkpt>
      <trkpt lat="42.14014" lon="1.89814">
        <ele>1012</ele>
        <time>2018-11-13T10:06:34.000Z</time>
      </trkpt>
      <trkpt lat="42.14016" lon="1.89813">
        <ele>1012</ele>
        <time>2018-11-13T10:06:36.000Z</time>
      </trkpt>
      <trkpt lat="42.14019" lon="1.89811">
        <ele>1012</ele>
        <time>2018-11-13T10:06:38.000Z</time>
      </trkpt>
      <trkpt lat="42.14021" lon="1.8981">
        <ele>1012</ele>
        <time>2018-11-13T10:06:40.000Z</time>
      </trkpt>
      <trkpt lat="42.14023" lon="1.89808">
        <ele>1012</ele>
        <time>2018-11-13T10:06:42.000Z</time>
      </trkpt>
      <trkpt lat="42.14025" lon="1.89806">
        <ele>1012</ele>
        <time>2018-11-13T10:06:44.000Z</time>
      </trkpt>
      <trkpt lat="42.14027" lon="1.89803">
        <ele>1012</ele>
        <time>2018-11-13T10:06:46.000Z</time>
      </trkpt>
      <trkpt lat="42.1403" lon="1.898">
        <ele>1012</ele>
        <time>2018-11-13T10:06:48.000Z</time>
      </trkpt>
      <trkpt lat="42.14031" lon="1.89798">
        <ele>1012</ele>
        <time>2018-11-13T10:06:49.000Z</time>
      </trkpt>
      <trkpt lat="42.14032" lon="1.89796">
        <ele>1012</ele>
        <time>2018-11-13T10:06:50.000Z</time>
      </trkpt>
      <trkpt lat="42.14034" lon="1.89795">
        <ele>1012</ele>
        <time>2018-11-13T10:06:51.000Z</time>
      </trkpt>
      <trkpt lat="42.14036" lon="1.89791">
        <ele>1010.0300032</ele>
        <time>2018-11-13T10:06:53.000Z</time>
      </trkpt>
      <trkpt lat="42.14038" lon="1.8979">
        <ele>1010</ele>
        <time>2018-11-13T10:06:54.000Z</time>
      </trkpt>
      <trkpt lat="42.14041" lon="1.89788">
        <ele>1010</ele>
        <time>2018-11-13T10:06:56.000Z</time>
      </trkpt>
      <trkpt lat="42.14043" lon="1.89786">
        <ele>1009.0490167781</ele>
        <time>2018-11-13T10:06:57.000Z</time>
      </trkpt>
      <trkpt lat="42.14045" lon="1.89784">
        <ele>1009</ele>
        <time>2018-11-13T10:06:58.000Z</time>
      </trkpt>
      <trkpt lat="42.14047" lon="1.89782">
        <ele>1009</ele>
        <time>2018-11-13T10:06:59.000Z</time>
      </trkpt>
      <trkpt lat="42.14048" lon="1.89781">
        <ele>1009</ele>
        <time>2018-11-13T10:07:00.000Z</time>
      </trkpt>
      <trkpt lat="42.1405" lon="1.89779">
        <ele>1009</ele>
        <time>2018-11-13T10:07:01.000Z</time>
      </trkpt>
      <trkpt lat="42.14052" lon="1.89777">
        <ele>1009</ele>
        <time>2018-11-13T10:07:02.000Z</time>
      </trkpt>
      <trkpt lat="42.14054" lon="1.89775">
        <ele>1009</ele>
        <time>2018-11-13T10:07:03.000Z</time>
      </trkpt>
      <trkpt lat="42.14056" lon="1.89773">
        <ele>1009</ele>
        <time>2018-11-13T10:07:04.000Z</time>
      </trkpt>
      <trkpt lat="42.14057" lon="1.89771">
        <ele>1009</ele>
        <time>2018-11-13T10:07:05.000Z</time>
      </trkpt>
      <trkpt lat="42.14059" lon="1.89769">
        <ele>1008.0300032</ele>
        <time>2018-11-13T10:07:06.000Z</time>
      </trkpt>
      <trkpt lat="42.1406" lon="1.89767">
        <ele>1007.0396040859</ele>
        <time>2018-11-13T10:07:07.000Z</time>
      </trkpt>
      <trkpt lat="42.14061" lon="1.89766">
        <ele>1007</ele>
        <time>2018-11-13T10:07:08.000Z</time>
      </trkpt>
      <trkpt lat="42.14063" lon="1.89764">
        <ele>1007</ele>
        <time>2018-11-13T10:07:09.000Z</time>
      </trkpt>
      <trkpt lat="42.14065" lon="1.89763">
        <ele>1007</ele>
        <time>2018-11-13T10:07:10.000Z</time>
      </trkpt>
      <trkpt lat="42.14067" lon="1.89762">
        <ele>1007</ele>
        <time>2018-11-13T10:07:11.000Z</time>
      </trkpt>
      <trkpt lat="42.14069" lon="1.89762">
        <ele>1007</ele>
        <time>2018-11-13T10:07:12.000Z</time>
      </trkpt>
      <trkpt lat="42.14072" lon="1.89761">
        <ele>1006</ele>
        <time>2018-11-13T10:07:14.000Z</time>
      </trkpt>
      <trkpt lat="42.14073" lon="1.8976">
        <ele>1005.0300032</ele>
        <time>2018-11-13T10:07:15.000Z</time>
      </trkpt>
      <trkpt lat="42.14076" lon="1.89758">
        <ele>1005</ele>
        <time>2018-11-13T10:07:17.000Z</time>
      </trkpt>
      <trkpt lat="42.14077" lon="1.89756">
        <ele>1005</ele>
        <time>2018-11-13T10:07:19.000Z</time>
      </trkpt>
      <trkpt lat="42.14078" lon="1.89753">
        <ele>1005</ele>
        <time>2018-11-13T10:07:21.000Z</time>
      </trkpt>
      <trkpt lat="42.14078" lon="1.8975">
        <ele>1005</ele>
        <time>2018-11-13T10:07:23.000Z</time>
      </trkpt>
      <trkpt lat="42.14077" lon="1.89748">
        <ele>1005</ele>
        <time>2018-11-13T10:07:25.000Z</time>
      </trkpt>
      <trkpt lat="42.14076" lon="1.89745">
        <ele>1005</ele>
        <time>2018-11-13T10:07:27.000Z</time>
      </trkpt>
      <trkpt lat="42.14075" lon="1.89742">
        <ele>1006.9662884181</ele>
        <time>2018-11-13T10:07:29.000Z</time>
      </trkpt>
      <trkpt lat="42.14074" lon="1.89739">
        <ele>1007</ele>
        <time>2018-11-13T10:07:31.000Z</time>
      </trkpt>
      <trkpt lat="42.14074" lon="1.89736">
        <ele>1007</ele>
        <time>2018-11-13T10:07:33.000Z</time>
      </trkpt>
      <trkpt lat="42.14075" lon="1.89733">
        <ele>1008</ele>
        <time>2018-11-13T10:07:35.000Z</time>
      </trkpt>
      <trkpt lat="42.14076" lon="1.8973">
        <ele>1008</ele>
        <time>2018-11-13T10:07:37.000Z</time>
      </trkpt>
      <trkpt lat="42.14077" lon="1.89727">
        <ele>1008</ele>
        <time>2018-11-13T10:07:39.000Z</time>
      </trkpt>
      <trkpt lat="42.14078" lon="1.89724">
        <ele>1009</ele>
        <time>2018-11-13T10:07:41.000Z</time>
      </trkpt>
      <trkpt lat="42.14079" lon="1.89721">
        <ele>1009</ele>
        <time>2018-11-13T10:07:44.000Z</time>
      </trkpt>
      <trkpt lat="42.14079" lon="1.89719">
        <ele>1010.9417532435</ele>
        <time>2018-11-13T10:07:47.000Z</time>
      </trkpt>
      <trkpt lat="42.14079" lon="1.89716">
        <ele>1011</ele>
        <time>2018-11-13T10:07:49.000Z</time>
      </trkpt>
      <trkpt lat="42.14079" lon="1.89713">
        <ele>1011</ele>
        <time>2018-11-13T10:07:51.000Z</time>
      </trkpt>
      <trkpt lat="42.14078" lon="1.8971">
        <ele>1011</ele>
        <time>2018-11-13T10:07:53.000Z</time>
      </trkpt>
      <trkpt lat="42.14077" lon="1.89707">
        <ele>1011</ele>
        <time>2018-11-13T10:07:55.000Z</time>
      </trkpt>
      <trkpt lat="42.14075" lon="1.89704">
        <ele>1011.9552193184</ele>
        <time>2018-11-13T10:07:57.000Z</time>
      </trkpt>
      <trkpt lat="42.14073" lon="1.89702">
        <ele>1012</ele>
        <time>2018-11-13T10:07:59.000Z</time>
      </trkpt>
      <trkpt lat="42.14072" lon="1.89699">
        <ele>1012</ele>
        <time>2018-11-13T10:08:01.000Z</time>
      </trkpt>
      <trkpt lat="42.1407" lon="1.89696">
        <ele>1012.9238092916</ele>
        <time>2018-11-13T10:08:03.000Z</time>
      </trkpt>
      <trkpt lat="42.14069" lon="1.89694">
        <ele>1013</ele>
        <time>2018-11-13T10:08:05.000Z</time>
      </trkpt>
      <trkpt lat="42.14067" lon="1.89691">
        <ele>1013</ele>
        <time>2018-11-13T10:08:07.000Z</time>
      </trkpt>
      <trkpt lat="42.14066" lon="1.89688">
        <ele>1013.9326892308</ele>
        <time>2018-11-13T10:08:09.000Z</time>
      </trkpt>
      <trkpt lat="42.14065" lon="1.89686">
        <ele>1014</ele>
        <time>2018-11-13T10:08:11.000Z</time>
      </trkpt>
      <trkpt lat="42.14063" lon="1.89683">
        <ele>1014.9687466667</ele>
        <time>2018-11-13T10:08:13.000Z</time>
      </trkpt>
      <trkpt lat="42.14061" lon="1.89681">
        <ele>1015</ele>
        <time>2018-11-13T10:08:15.000Z</time>
      </trkpt>
      <trkpt lat="42.1406" lon="1.89679">
        <ele>1015</ele>
        <time>2018-11-13T10:08:17.000Z</time>
      </trkpt>
      <trkpt lat="42.14059" lon="1.89676">
        <ele>1015</ele>
        <time>2018-11-13T10:08:20.000Z</time>
      </trkpt>
      <trkpt lat="42.14059" lon="1.89674">
        <ele>1015.9326892308</ele>
        <time>2018-11-13T10:08:22.000Z</time>
      </trkpt>
      <trkpt lat="42.14058" lon="1.89671">
        <ele>1016</ele>
        <time>2018-11-13T10:08:24.000Z</time>
      </trkpt>
      <trkpt lat="42.14058" lon="1.89668">
        <ele>1016</ele>
        <time>2018-11-13T10:08:26.000Z</time>
      </trkpt>
      <trkpt lat="42.14057" lon="1.89666">
        <ele>1016.9417415402</ele>
        <time>2018-11-13T10:08:28.000Z</time>
      </trkpt>
      <trkpt lat="42.14055" lon="1.89663">
        <ele>1017</ele>
        <time>2018-11-13T10:08:30.000Z</time>
      </trkpt>
      <trkpt lat="42.14054" lon="1.89661">
        <ele>1017</ele>
        <time>2018-11-13T10:08:32.000Z</time>
      </trkpt>
      <trkpt lat="42.14054" lon="1.89658">
        <ele>1018</ele>
        <time>2018-11-13T10:08:34.000Z</time>
      </trkpt>
      <trkpt lat="42.14053" lon="1.89655">
        <ele>1019</ele>
        <time>2018-11-13T10:08:37.000Z</time>
      </trkpt>
      <trkpt lat="42.14053" lon="1.89652">
        <ele>1019</ele>
        <time>2018-11-13T10:08:39.000Z</time>
      </trkpt>
      <trkpt lat="42.14054" lon="1.89649">
        <ele>1020</ele>
        <time>2018-11-13T10:08:42.000Z</time>
      </trkpt>
      <trkpt lat="42.14052" lon="1.89646">
        <ele>1021</ele>
        <time>2018-11-13T10:08:44.000Z</time>
      </trkpt>
      <trkpt lat="42.1405" lon="1.89644">
        <ele>1021</ele>
        <time>2018-11-13T10:08:46.000Z</time>
      </trkpt>
      <trkpt lat="42.14049" lon="1.89641">
        <ele>1021</ele>
        <time>2018-11-13T10:08:48.000Z</time>
      </trkpt>
      <trkpt lat="42.14049" lon="1.89638">
        <ele>1021</ele>
        <time>2018-11-13T10:08:50.000Z</time>
      </trkpt>
      <trkpt lat="42.14048" lon="1.89636">
        <ele>1022</ele>
        <time>2018-11-13T10:08:52.000Z</time>
      </trkpt>
      <trkpt lat="42.14047" lon="1.89632">
        <ele>1022</ele>
        <time>2018-11-13T10:08:54.000Z</time>
      </trkpt>
      <trkpt lat="42.14046" lon="1.8963">
        <ele>1022</ele>
        <time>2018-11-13T10:08:56.000Z</time>
      </trkpt>
      <trkpt lat="42.14046" lon="1.89627">
        <ele>1022</ele>
        <time>2018-11-13T10:08:58.000Z</time>
      </trkpt>
      <trkpt lat="42.14044" lon="1.89624">
        <ele>1022.9238092916</ele>
        <time>2018-11-13T10:09:00.000Z</time>
      </trkpt>
      <trkpt lat="42.14043" lon="1.89621">
        <ele>1023</ele>
        <time>2018-11-13T10:09:02.000Z</time>
      </trkpt>
      <trkpt lat="42.14042" lon="1.89619">
        <ele>1023</ele>
        <time>2018-11-13T10:09:04.000Z</time>
      </trkpt>
      <trkpt lat="42.1404" lon="1.89616">
        <ele>1024</ele>
        <time>2018-11-13T10:09:06.000Z</time>
      </trkpt>
      <trkpt lat="42.14039" lon="1.89613">
        <ele>1024</ele>
        <time>2018-11-13T10:09:08.000Z</time>
      </trkpt>
      <trkpt lat="42.14037" lon="1.8961">
        <ele>1024</ele>
        <time>2018-11-13T10:09:10.000Z</time>
      </trkpt>
      <trkpt lat="42.14036" lon="1.89607">
        <ele>1024</ele>
        <time>2018-11-13T10:09:12.000Z</time>
      </trkpt>
      <trkpt lat="42.14034" lon="1.89605">
        <ele>1024</ele>
        <time>2018-11-13T10:09:14.000Z</time>
      </trkpt>
      <trkpt lat="42.14032" lon="1.89602">
        <ele>1024</ele>
        <time>2018-11-13T10:09:16.000Z</time>
      </trkpt>
      <trkpt lat="42.14029" lon="1.896">
        <ele>1024</ele>
        <time>2018-11-13T10:09:18.000Z</time>
      </trkpt>
      <trkpt lat="42.14027" lon="1.89598">
        <ele>1025</ele>
        <time>2018-11-13T10:09:20.000Z</time>
      </trkpt>
      <trkpt lat="42.14025" lon="1.89596">
        <ele>1025</ele>
        <time>2018-11-13T10:09:22.000Z</time>
      </trkpt>
      <trkpt lat="42.14024" lon="1.89594">
        <ele>1025.9571386776</ele>
        <time>2018-11-13T10:09:24.000Z</time>
      </trkpt>
      <trkpt lat="42.14023" lon="1.89591">
        <ele>1025</ele>
        <time>2018-11-13T10:09:28.000Z</time>
      </trkpt>
      <trkpt lat="42.14022" lon="1.89589">
        <ele>1026</ele>
        <time>2018-11-13T10:09:30.000Z</time>
      </trkpt>
      <trkpt lat="42.14021" lon="1.89587">
        <ele>1026.9238092916</ele>
        <time>2018-11-13T10:09:32.000Z</time>
      </trkpt>
      <trkpt lat="42.14019" lon="1.89586">
        <ele>1027.9699968</ele>
        <time>2018-11-13T10:09:34.000Z</time>
      </trkpt>
      <trkpt lat="42.14017" lon="1.89584">
        <ele>1028</ele>
        <time>2018-11-13T10:09:36.000Z</time>
      </trkpt>
      <trkpt lat="42.14014" lon="1.89582">
        <ele>1028</ele>
        <time>2018-11-13T10:09:38.000Z</time>
      </trkpt>
      <trkpt lat="42.14012" lon="1.8958">
        <ele>1028</ele>
        <time>2018-11-13T10:09:40.000Z</time>
      </trkpt>
      <trkpt lat="42.14009" lon="1.8958">
        <ele>1028</ele>
        <time>2018-11-13T10:09:42.000Z</time>
      </trkpt>
      <trkpt lat="42.14006" lon="1.8958">
        <ele>1028</ele>
        <time>2018-11-13T10:09:44.000Z</time>
      </trkpt>
      <trkpt lat="42.14003" lon="1.8958">
        <ele>1028</ele>
        <time>2018-11-13T10:09:46.000Z</time>
      </trkpt>
      <trkpt lat="42.14" lon="1.89579">
        <ele>1028</ele>
        <time>2018-11-13T10:09:48.000Z</time>
      </trkpt>
      <trkpt lat="42.13997" lon="1.89579">
        <ele>1028</ele>
        <time>2018-11-13T10:09:50.000Z</time>
      </trkpt>
      <trkpt lat="42.13995" lon="1.89578">
        <ele>1028</ele>
        <time>2018-11-13T10:09:52.000Z</time>
      </trkpt>
      <trkpt lat="42.13993" lon="1.89577">
        <ele>1028</ele>
        <time>2018-11-13T10:10:11.000Z</time>
      </trkpt>
      <trkpt lat="42.13992" lon="1.89576">
        <ele>1028</ele>
        <time>2018-11-13T10:10:13.000Z</time>
      </trkpt>
      <trkpt lat="42.13989" lon="1.89574">
        <ele>1028</ele>
        <time>2018-11-13T10:10:15.000Z</time>
      </trkpt>
      <trkpt lat="42.13987" lon="1.89572">
        <ele>1027.0306153103</ele>
        <time>2018-11-13T10:10:17.000Z</time>
      </trkpt>
      <trkpt lat="42.13985" lon="1.89569">
        <ele>1027.9417532435</ele>
        <time>2018-11-13T10:10:19.000Z</time>
      </trkpt>
      <trkpt lat="42.13982" lon="1.89567">
        <ele>1028</ele>
        <time>2018-11-13T10:10:21.000Z</time>
      </trkpt>
      <trkpt lat="42.1398" lon="1.89565">
        <ele>1028</ele>
        <time>2018-11-13T10:10:23.000Z</time>
      </trkpt>
      <trkpt lat="42.13977" lon="1.89564">
        <ele>1028</ele>
        <time>2018-11-13T10:10:25.000Z</time>
      </trkpt>
      <trkpt lat="42.13974" lon="1.89562">
        <ele>1028</ele>
        <time>2018-11-13T10:10:27.000Z</time>
      </trkpt>
      <trkpt lat="42.13972" lon="1.8956">
        <ele>1028</ele>
        <time>2018-11-13T10:10:29.000Z</time>
      </trkpt>
      <trkpt lat="42.1397" lon="1.89558">
        <ele>1029</ele>
        <time>2018-11-13T10:10:31.000Z</time>
      </trkpt>
      <trkpt lat="42.13967" lon="1.89556">
        <ele>1029</ele>
        <time>2018-11-13T10:10:33.000Z</time>
      </trkpt>
      <trkpt lat="42.13965" lon="1.89554">
        <ele>1029</ele>
        <time>2018-11-13T10:10:35.000Z</time>
      </trkpt>
      <trkpt lat="42.13963" lon="1.89552">
        <ele>1029</ele>
        <time>2018-11-13T10:10:37.000Z</time>
      </trkpt>
      <trkpt lat="42.13961" lon="1.89551">
        <ele>1029</ele>
        <time>2018-11-13T10:10:41.000Z</time>
      </trkpt>
      <trkpt lat="42.13959" lon="1.89548">
        <ele>1029</ele>
        <time>2018-11-13T10:10:43.000Z</time>
      </trkpt>
      <trkpt lat="42.13958" lon="1.89545">
        <ele>1029</ele>
        <time>2018-11-13T10:10:45.000Z</time>
      </trkpt>
      <trkpt lat="42.13956" lon="1.89543">
        <ele>1029</ele>
        <time>2018-11-13T10:10:47.000Z</time>
      </trkpt>
      <trkpt lat="42.13954" lon="1.8954">
        <ele>1029.9699968</ele>
        <time>2018-11-13T10:10:49.000Z</time>
      </trkpt>
      <trkpt lat="42.13952" lon="1.89538">
        <ele>1030</ele>
        <time>2018-11-13T10:10:51.000Z</time>
      </trkpt>
      <trkpt lat="42.13951" lon="1.89535">
        <ele>1030</ele>
        <time>2018-11-13T10:10:53.000Z</time>
      </trkpt>
      <trkpt lat="42.13949" lon="1.89533">
        <ele>1030.9677388276</ele>
        <time>2018-11-13T10:10:55.000Z</time>
      </trkpt>
      <trkpt lat="42.13947" lon="1.8953">
        <ele>1031</ele>
        <time>2018-11-13T10:10:57.000Z</time>
      </trkpt>
      <trkpt lat="42.13946" lon="1.89527">
        <ele>1031</ele>
        <time>2018-11-13T10:10:59.000Z</time>
      </trkpt>
      <trkpt lat="42.13944" lon="1.89524">
        <ele>1031</ele>
        <time>2018-11-13T10:11:01.000Z</time>
      </trkpt>
      <trkpt lat="42.13944" lon="1.8952">
        <ele>1031</ele>
        <time>2018-11-13T10:11:03.000Z</time>
      </trkpt>
      <trkpt lat="42.13944" lon="1.89516">
        <ele>1032</ele>
        <time>2018-11-13T10:11:05.000Z</time>
      </trkpt>
      <trkpt lat="42.13944" lon="1.89512">
        <ele>1032</ele>
        <time>2018-11-13T10:11:07.000Z</time>
      </trkpt>
      <trkpt lat="42.13946" lon="1.89509">
        <ele>1032</ele>
        <time>2018-11-13T10:11:09.000Z</time>
      </trkpt>
      <trkpt lat="42.13947" lon="1.89505">
        <ele>1032</ele>
        <time>2018-11-13T10:11:11.000Z</time>
      </trkpt>
      <trkpt lat="42.13948" lon="1.89502">
        <ele>1032</ele>
        <time>2018-11-13T10:11:13.000Z</time>
      </trkpt>
      <trkpt lat="42.13949" lon="1.89498">
        <ele>1032</ele>
        <time>2018-11-13T10:11:15.000Z</time>
      </trkpt>
      <trkpt lat="42.13951" lon="1.89494">
        <ele>1032</ele>
        <time>2018-11-13T10:11:17.000Z</time>
      </trkpt>
      <trkpt lat="42.13953" lon="1.89491">
        <ele>1032</ele>
        <time>2018-11-13T10:11:19.000Z</time>
      </trkpt>
      <trkpt lat="42.13955" lon="1.89488">
        <ele>1032</ele>
        <time>2018-11-13T10:11:21.000Z</time>
      </trkpt>
      <trkpt lat="42.13956" lon="1.89486">
        <ele>1033</ele>
        <time>2018-11-13T10:11:23.000Z</time>
      </trkpt>
      <trkpt lat="42.13958" lon="1.89484">
        <ele>1033</ele>
        <time>2018-11-13T10:11:25.000Z</time>
      </trkpt>
      <trkpt lat="42.1396" lon="1.89481">
        <ele>1033</ele>
        <time>2018-11-13T10:11:27.000Z</time>
      </trkpt>
      <trkpt lat="42.13962" lon="1.89479">
        <ele>1033</ele>
        <time>2018-11-13T10:11:29.000Z</time>
      </trkpt>
      <trkpt lat="42.13964" lon="1.89478">
        <ele>1033</ele>
        <time>2018-11-13T10:11:31.000Z</time>
      </trkpt>
      <trkpt lat="42.13966" lon="1.89477">
        <ele>1034.9677388276</ele>
        <time>2018-11-13T10:11:33.000Z</time>
      </trkpt>
      <trkpt lat="42.13968" lon="1.89475">
        <ele>1035</ele>
        <time>2018-11-13T10:11:35.000Z</time>
      </trkpt>
      <trkpt lat="42.1397" lon="1.89474">
        <ele>1035</ele>
        <time>2018-11-13T10:11:37.000Z</time>
      </trkpt>
      <trkpt lat="42.13971" lon="1.89473">
        <ele>1035</ele>
        <time>2018-11-13T10:11:39.000Z</time>
      </trkpt>
      <trkpt lat="42.13973" lon="1.89471">
        <ele>1035</ele>
        <time>2018-11-13T10:11:42.000Z</time>
      </trkpt>
      <trkpt lat="42.13975" lon="1.89468">
        <ele>1035</ele>
        <time>2018-11-13T10:11:45.000Z</time>
      </trkpt>
      <trkpt lat="42.13976" lon="1.89466">
        <ele>1036</ele>
        <time>2018-11-13T10:11:47.000Z</time>
      </trkpt>
      <trkpt lat="42.13978" lon="1.89462">
        <ele>1036</ele>
        <time>2018-11-13T10:11:49.000Z</time>
      </trkpt>
      <trkpt lat="42.13979" lon="1.89459">
        <ele>1036</ele>
        <time>2018-11-13T10:11:51.000Z</time>
      </trkpt>
      <trkpt lat="42.13981" lon="1.89456">
        <ele>1036</ele>
        <time>2018-11-13T10:11:53.000Z</time>
      </trkpt>
      <trkpt lat="42.13983" lon="1.89454">
        <ele>1036</ele>
        <time>2018-11-13T10:11:55.000Z</time>
      </trkpt>
      <trkpt lat="42.13984" lon="1.89451">
        <ele>1036</ele>
        <time>2018-11-13T10:11:57.000Z</time>
      </trkpt>
      <trkpt lat="42.13986" lon="1.89448">
        <ele>1036</ele>
        <time>2018-11-13T10:11:59.000Z</time>
      </trkpt>
      <trkpt lat="42.13988" lon="1.89444">
        <ele>1036</ele>
        <time>2018-11-13T10:12:01.000Z</time>
      </trkpt>
      <trkpt lat="42.13989" lon="1.89441">
        <ele>1036</ele>
        <time>2018-11-13T10:12:03.000Z</time>
      </trkpt>
      <trkpt lat="42.13991" lon="1.89439">
        <ele>1036</ele>
        <time>2018-11-13T10:12:05.000Z</time>
      </trkpt>
      <trkpt lat="42.13992" lon="1.89435">
        <ele>1036</ele>
        <time>2018-11-13T10:12:07.000Z</time>
      </trkpt>
      <trkpt lat="42.13993" lon="1.89432">
        <ele>1036</ele>
        <time>2018-11-13T10:12:09.000Z</time>
      </trkpt>
      <trkpt lat="42.13994" lon="1.8943">
        <ele>1036.8899079337</ele>
        <time>2018-11-13T10:12:10.000Z</time>
      </trkpt>
      <trkpt lat="42.13995" lon="1.89427">
        <ele>1037</ele>
        <time>2018-11-13T10:12:11.000Z</time>
      </trkpt>
      <trkpt lat="42.13996" lon="1.89423">
        <ele>1037</ele>
        <time>2018-11-13T10:12:13.000Z</time>
      </trkpt>
      <trkpt lat="42.13997" lon="1.89419">
        <ele>1037.9699968</ele>
        <time>2018-11-13T10:12:15.000Z</time>
      </trkpt>
      <trkpt lat="42.13998" lon="1.89415">
        <ele>1037.0793595969</ele>
        <time>2018-11-13T10:12:17.000Z</time>
      </trkpt>
      <trkpt lat="42.14" lon="1.89412">
        <ele>1037.9699968</ele>
        <time>2018-11-13T10:12:19.000Z</time>
      </trkpt>
      <trkpt lat="42.14001" lon="1.89408">
        <ele>1038</ele>
        <time>2018-11-13T10:12:21.000Z</time>
      </trkpt>
      <trkpt lat="42.14003" lon="1.89406">
        <ele>1038</ele>
        <time>2018-11-13T10:12:23.000Z</time>
      </trkpt>
      <trkpt lat="42.14005" lon="1.89403">
        <ele>1038</ele>
        <time>2018-11-13T10:12:25.000Z</time>
      </trkpt>
      <trkpt lat="42.14007" lon="1.89401">
        <ele>1038</ele>
        <time>2018-11-13T10:12:27.000Z</time>
      </trkpt>
      <trkpt lat="42.14008" lon="1.89397">
        <ele>1039</ele>
        <time>2018-11-13T10:12:44.000Z</time>
      </trkpt>
      <trkpt lat="42.14009" lon="1.89394">
        <ele>1039</ele>
        <time>2018-11-13T10:12:46.000Z</time>
      </trkpt>
      <trkpt lat="42.14011" lon="1.89392">
        <ele>1039</ele>
        <time>2018-11-13T10:12:48.000Z</time>
      </trkpt>
      <trkpt lat="42.14013" lon="1.89389">
        <ele>1039</ele>
        <time>2018-11-13T10:12:50.000Z</time>
      </trkpt>
      <trkpt lat="42.14015" lon="1.89387">
        <ele>1039</ele>
        <time>2018-11-13T10:12:52.000Z</time>
      </trkpt>
      <trkpt lat="42.14016" lon="1.89384">
        <ele>1039</ele>
        <time>2018-11-13T10:12:54.000Z</time>
      </trkpt>
      <trkpt lat="42.14018" lon="1.89382">
        <ele>1039</ele>
        <time>2018-11-13T10:12:56.000Z</time>
      </trkpt>
      <trkpt lat="42.1402" lon="1.89379">
        <ele>1039</ele>
        <time>2018-11-13T10:12:58.000Z</time>
      </trkpt>
      <trkpt lat="42.14022" lon="1.89376">
        <ele>1039</ele>
        <time>2018-11-13T10:13:00.000Z</time>
      </trkpt>
      <trkpt lat="42.14024" lon="1.89373">
        <ele>1039</ele>
        <time>2018-11-13T10:13:02.000Z</time>
      </trkpt>
      <trkpt lat="42.14026" lon="1.89371">
        <ele>1039</ele>
        <time>2018-11-13T10:13:04.000Z</time>
      </trkpt>
      <trkpt lat="42.14028" lon="1.89369">
        <ele>1039</ele>
        <time>2018-11-13T10:13:06.000Z</time>
      </trkpt>
      <trkpt lat="42.14031" lon="1.89367">
        <ele>1038.0329704335</ele>
        <time>2018-11-13T10:13:08.000Z</time>
      </trkpt>
      <trkpt lat="42.14034" lon="1.89365">
        <ele>1038</ele>
        <time>2018-11-13T10:13:10.000Z</time>
      </trkpt>
      <trkpt lat="42.14036" lon="1.89363">
        <ele>1038</ele>
        <time>2018-11-13T10:13:12.000Z</time>
      </trkpt>
      <trkpt lat="42.14039" lon="1.89362">
        <ele>1038</ele>
        <time>2018-11-13T10:13:14.000Z</time>
      </trkpt>
      <trkpt lat="42.14042" lon="1.89361">
        <ele>1038</ele>
        <time>2018-11-13T10:13:16.000Z</time>
      </trkpt>
      <trkpt lat="42.14045" lon="1.8936">
        <ele>1038</ele>
        <time>2018-11-13T10:13:18.000Z</time>
      </trkpt>
      <trkpt lat="42.14048" lon="1.89359">
        <ele>1038</ele>
        <time>2018-11-13T10:13:20.000Z</time>
      </trkpt>
      <trkpt lat="42.1405" lon="1.89358">
        <ele>1038</ele>
        <time>2018-11-13T10:13:21.000Z</time>
      </trkpt>
      <trkpt lat="42.14052" lon="1.89357">
        <ele>1038</ele>
        <time>2018-11-13T10:13:22.000Z</time>
      </trkpt>
      <trkpt lat="42.14054" lon="1.89356">
        <ele>1037.253844942</ele>
        <time>2018-11-13T10:13:23.000Z</time>
      </trkpt>
      <trkpt lat="42.14057" lon="1.89355">
        <ele>1037</ele>
        <time>2018-11-13T10:13:24.000Z</time>
      </trkpt>
      <trkpt lat="42.14059" lon="1.89354">
        <ele>1037</ele>
        <time>2018-11-13T10:13:25.000Z</time>
      </trkpt>
      <trkpt lat="42.14061" lon="1.89353">
        <ele>1036.1181795967</ele>
        <time>2018-11-13T10:13:26.000Z</time>
      </trkpt>
      <trkpt lat="42.14063" lon="1.89352">
        <ele>1035.0333366518</ele>
        <time>2018-11-13T10:13:27.000Z</time>
      </trkpt>
      <trkpt lat="42.14065" lon="1.89351">
        <ele>1035</ele>
        <time>2018-11-13T10:13:28.000Z</time>
      </trkpt>
      <trkpt lat="42.14067" lon="1.8935">
        <ele>1035</ele>
        <time>2018-11-13T10:13:29.000Z</time>
      </trkpt>
      <trkpt lat="42.1407" lon="1.8935">
        <ele>1035</ele>
        <time>2018-11-13T10:13:30.000Z</time>
      </trkpt>
      <trkpt lat="42.14072" lon="1.89349">
        <ele>1035</ele>
        <time>2018-11-13T10:13:31.000Z</time>
      </trkpt>
      <trkpt lat="42.14075" lon="1.89348">
        <ele>1035</ele>
        <time>2018-11-13T10:13:32.000Z</time>
      </trkpt>
      <trkpt lat="42.14077" lon="1.89348">
        <ele>1034.2786923085</ele>
        <time>2018-11-13T10:13:33.000Z</time>
      </trkpt>
      <trkpt lat="42.1408" lon="1.89347">
        <ele>1034</ele>
        <time>2018-11-13T10:13:34.000Z</time>
      </trkpt>
      <trkpt lat="42.14082" lon="1.89347">
        <ele>1034</ele>
        <time>2018-11-13T10:13:35.000Z</time>
      </trkpt>
      <trkpt lat="42.14084" lon="1.89346">
        <ele>1034</ele>
        <time>2018-11-13T10:13:36.000Z</time>
      </trkpt>
      <trkpt lat="42.14087" lon="1.89345">
        <ele>1034</ele>
        <time>2018-11-13T10:13:37.000Z</time>
      </trkpt>
      <trkpt lat="42.14089" lon="1.89344">
        <ele>1033.0300032</ele>
        <time>2018-11-13T10:13:38.000Z</time>
      </trkpt>
      <trkpt lat="42.14092" lon="1.89344">
        <ele>1033</ele>
        <time>2018-11-13T10:13:39.000Z</time>
      </trkpt>
      <trkpt lat="42.14094" lon="1.89343">
        <ele>1033</ele>
        <time>2018-11-13T10:13:40.000Z</time>
      </trkpt>
      <trkpt lat="42.14097" lon="1.89342">
        <ele>1032.0300032</ele>
        <time>2018-11-13T10:13:41.000Z</time>
      </trkpt>
      <trkpt lat="42.14099" lon="1.89342">
        <ele>1032</ele>
        <time>2018-11-13T10:13:42.000Z</time>
      </trkpt>
      <trkpt lat="42.14102" lon="1.89341">
        <ele>1032</ele>
        <time>2018-11-13T10:13:43.000Z</time>
      </trkpt>
      <trkpt lat="42.14104" lon="1.89341">
        <ele>1032</ele>
        <time>2018-11-13T10:13:44.000Z</time>
      </trkpt>
      <trkpt lat="42.14106" lon="1.8934">
        <ele>1030.0600064</ele>
        <time>2018-11-13T10:13:45.000Z</time>
      </trkpt>
      <trkpt lat="42.14109" lon="1.89339">
        <ele>1029.0490167781</ele>
        <time>2018-11-13T10:13:46.000Z</time>
      </trkpt>
      <trkpt lat="42.14111" lon="1.89339">
        <ele>1029</ele>
        <time>2018-11-13T10:13:47.000Z</time>
      </trkpt>
      <trkpt lat="42.14113" lon="1.89338">
        <ele>1029</ele>
        <time>2018-11-13T10:13:48.000Z</time>
      </trkpt>
      <trkpt lat="42.14115" lon="1.89338">
        <ele>1029</ele>
        <time>2018-11-13T10:13:49.000Z</time>
      </trkpt>
      <trkpt lat="42.14117" lon="1.89338">
        <ele>1029</ele>
        <time>2018-11-13T10:13:50.000Z</time>
      </trkpt>
      <trkpt lat="42.14119" lon="1.89338">
        <ele>1029</ele>
        <time>2018-11-13T10:13:51.000Z</time>
      </trkpt>
      <trkpt lat="42.14122" lon="1.89338">
        <ele>1029</ele>
        <time>2018-11-13T10:13:52.000Z</time>
      </trkpt>
      <trkpt lat="42.14124" lon="1.89337">
        <ele>1028.0306153103</ele>
        <time>2018-11-13T10:13:53.000Z</time>
      </trkpt>
      <trkpt lat="42.14126" lon="1.89337">
        <ele>1028</ele>
        <time>2018-11-13T10:13:54.000Z</time>
      </trkpt>
      <trkpt lat="42.14129" lon="1.89337">
        <ele>1027.270677343</ele>
        <time>2018-11-13T10:13:55.000Z</time>
      </trkpt>
      <trkpt lat="42.14131" lon="1.89337">
        <ele>1027</ele>
        <time>2018-11-13T10:13:56.000Z</time>
      </trkpt>
      <trkpt lat="42.14133" lon="1.89337">
        <ele>1027.9699968</ele>
        <time>2018-11-13T10:13:57.000Z</time>
      </trkpt>
      <trkpt lat="42.14135" lon="1.89337">
        <ele>1028</ele>
        <time>2018-11-13T10:13:58.000Z</time>
      </trkpt>
      <trkpt lat="42.14137" lon="1.89337">
        <ele>1027.0322611724</ele>
        <time>2018-11-13T10:13:59.000Z</time>
      </trkpt>
      <trkpt lat="42.14139" lon="1.89338">
        <ele>1027</ele>
        <time>2018-11-13T10:14:00.000Z</time>
      </trkpt>
      <trkpt lat="42.14141" lon="1.89337">
        <ele>1026.2971005083</ele>
        <time>2018-11-13T10:14:01.000Z</time>
      </trkpt>
      <trkpt lat="42.14144" lon="1.89337">
        <ele>1026</ele>
        <time>2018-11-13T10:14:02.000Z</time>
      </trkpt>
      <trkpt lat="42.14146" lon="1.89336">
        <ele>1026</ele>
        <time>2018-11-13T10:14:03.000Z</time>
      </trkpt>
      <trkpt lat="42.14148" lon="1.89335">
        <ele>1025.0300032</ele>
        <time>2018-11-13T10:14:04.000Z</time>
      </trkpt>
      <trkpt lat="42.1415" lon="1.89334">
        <ele>1024.0582467565</ele>
        <time>2018-11-13T10:14:05.000Z</time>
      </trkpt>
      <trkpt lat="42.14152" lon="1.89333">
        <ele>1024</ele>
        <time>2018-11-13T10:14:06.000Z</time>
      </trkpt>
      <trkpt lat="42.14155" lon="1.89333">
        <ele>1024</ele>
        <time>2018-11-13T10:14:07.000Z</time>
      </trkpt>
      <trkpt lat="42.14157" lon="1.89332">
        <ele>1023.0490167781</ele>
        <time>2018-11-13T10:14:08.000Z</time>
      </trkpt>
      <trkpt lat="42.1416" lon="1.89331">
        <ele>1023</ele>
        <time>2018-11-13T10:14:09.000Z</time>
      </trkpt>
      <trkpt lat="42.14162" lon="1.8933">
        <ele>1023</ele>
        <time>2018-11-13T10:14:10.000Z</time>
      </trkpt>
      <trkpt lat="42.14165" lon="1.89329">
        <ele>1022.0490167781</ele>
        <time>2018-11-13T10:14:11.000Z</time>
      </trkpt>
      <trkpt lat="42.14167" lon="1.89328">
        <ele>1022</ele>
        <time>2018-11-13T10:14:12.000Z</time>
      </trkpt>
      <trkpt lat="42.1417" lon="1.89328">
        <ele>1022</ele>
        <time>2018-11-13T10:14:13.000Z</time>
      </trkpt>
      <trkpt lat="42.14172" lon="1.89328">
        <ele>1022</ele>
        <time>2018-11-13T10:14:14.000Z</time>
      </trkpt>
      <trkpt lat="42.14174" lon="1.89328">
        <ele>1021.0306153103</ele>
        <time>2018-11-13T10:14:15.000Z</time>
      </trkpt>
      <trkpt lat="42.14176" lon="1.89327">
        <ele>1020.253844942</ele>
        <time>2018-11-13T10:14:16.000Z</time>
      </trkpt>
      <trkpt lat="42.14179" lon="1.89327">
        <ele>1020.9571386776</ele>
        <time>2018-11-13T10:14:17.000Z</time>
      </trkpt>
      <trkpt lat="42.14181" lon="1.89326">
        <ele>1021</ele>
        <time>2018-11-13T10:14:18.000Z</time>
      </trkpt>
      <trkpt lat="42.14183" lon="1.89325">
        <ele>1021</ele>
        <time>2018-11-13T10:14:19.000Z</time>
      </trkpt>
      <trkpt lat="42.14185" lon="1.89324">
        <ele>1020.2595390012</ele>
        <time>2018-11-13T10:14:20.000Z</time>
      </trkpt>
      <trkpt lat="42.14187" lon="1.89323">
        <ele>1019.0571423347</ele>
        <time>2018-11-13T10:14:21.000Z</time>
      </trkpt>
      <trkpt lat="42.14189" lon="1.89322">
        <ele>1019</ele>
        <time>2018-11-13T10:14:22.000Z</time>
      </trkpt>
      <trkpt lat="42.14191" lon="1.89321">
        <ele>1017.2037096296</ele>
        <time>2018-11-13T10:14:23.000Z</time>
      </trkpt>
      <trkpt lat="42.14194" lon="1.8932">
        <ele>1016.0326121739</ele>
        <time>2018-11-13T10:14:24.000Z</time>
      </trkpt>
      <trkpt lat="42.14196" lon="1.89318">
        <ele>1016</ele>
        <time>2018-11-13T10:14:25.000Z</time>
      </trkpt>
      <trkpt lat="42.14198" lon="1.89317">
        <ele>1016</ele>
        <time>2018-11-13T10:14:26.000Z</time>
      </trkpt>
      <trkpt lat="42.14201" lon="1.89316">
        <ele>1015.0322611724</ele>
        <time>2018-11-13T10:14:27.000Z</time>
      </trkpt>
      <trkpt lat="42.14203" lon="1.89315">
        <ele>1014.0300032</ele>
        <time>2018-11-13T10:14:28.000Z</time>
      </trkpt>
      <trkpt lat="42.14206" lon="1.89314">
        <ele>1014</ele>
        <time>2018-11-13T10:14:29.000Z</time>
      </trkpt>
      <trkpt lat="42.14208" lon="1.89314">
        <ele>1014</ele>
        <time>2018-11-13T10:14:30.000Z</time>
      </trkpt>
      <trkpt lat="42.14211" lon="1.89313">
        <ele>1014</ele>
        <time>2018-11-13T10:14:31.000Z</time>
      </trkpt>
      <trkpt lat="42.14213" lon="1.89313">
        <ele>1013.0849031541</ele>
        <time>2018-11-13T10:14:32.000Z</time>
      </trkpt>
      <trkpt lat="42.14216" lon="1.89313">
        <ele>1013</ele>
        <time>2018-11-13T10:14:33.000Z</time>
      </trkpt>
      <trkpt lat="42.14218" lon="1.89313">
        <ele>1013</ele>
        <time>2018-11-13T10:14:34.000Z</time>
      </trkpt>
      <trkpt lat="42.14221" lon="1.89314">
        <ele>1013</ele>
        <time>2018-11-13T10:14:35.000Z</time>
      </trkpt>
      <trkpt lat="42.14223" lon="1.89314">
        <ele>1013</ele>
        <time>2018-11-13T10:14:36.000Z</time>
      </trkpt>
      <trkpt lat="42.14225" lon="1.89314">
        <ele>1013</ele>
        <time>2018-11-13T10:14:37.000Z</time>
      </trkpt>
      <trkpt lat="42.14228" lon="1.89314">
        <ele>1013</ele>
        <time>2018-11-13T10:14:38.000Z</time>
      </trkpt>
      <trkpt lat="42.1423" lon="1.89314">
        <ele>1012.2595462362</ele>
        <time>2018-11-13T10:14:39.000Z</time>
      </trkpt>
      <trkpt lat="42.14232" lon="1.89314">
        <ele>1012</ele>
        <time>2018-11-13T10:14:40.000Z</time>
      </trkpt>
      <trkpt lat="42.14235" lon="1.89314">
        <ele>1012</ele>
        <time>2018-11-13T10:14:41.000Z</time>
      </trkpt>
      <trkpt lat="42.14237" lon="1.89314">
        <ele>1011.0300032</ele>
        <time>2018-11-13T10:14:42.000Z</time>
      </trkpt>
      <trkpt lat="42.14239" lon="1.89314">
        <ele>1010.0300032</ele>
        <time>2018-11-13T10:14:43.000Z</time>
      </trkpt>
      <trkpt lat="42.14241" lon="1.89313">
        <ele>1010</ele>
        <time>2018-11-13T10:14:44.000Z</time>
      </trkpt>
      <trkpt lat="42.14243" lon="1.89313">
        <ele>1010</ele>
        <time>2018-11-13T10:14:45.000Z</time>
      </trkpt>
      <trkpt lat="42.14245" lon="1.89312">
        <ele>1010</ele>
        <time>2018-11-13T10:14:46.000Z</time>
      </trkpt>
      <trkpt lat="42.14247" lon="1.89312">
        <ele>1010</ele>
        <time>2018-11-13T10:14:47.000Z</time>
      </trkpt>
      <trkpt lat="42.1425" lon="1.89312">
        <ele>1009.0849031541</ele>
        <time>2018-11-13T10:14:48.000Z</time>
      </trkpt>
      <trkpt lat="42.14252" lon="1.89312">
        <ele>1009</ele>
        <time>2018-11-13T10:14:49.000Z</time>
      </trkpt>
      <trkpt lat="42.14254" lon="1.89312">
        <ele>1009</ele>
        <time>2018-11-13T10:14:50.000Z</time>
      </trkpt>
      <trkpt lat="42.14256" lon="1.89311">
        <ele>1008.0761907084</ele>
        <time>2018-11-13T10:14:51.000Z</time>
      </trkpt>
      <trkpt lat="42.14259" lon="1.89311">
        <ele>1007.0315822094</ele>
        <time>2018-11-13T10:14:52.000Z</time>
      </trkpt>
      <trkpt lat="42.14261" lon="1.8931">
        <ele>1006.0300032</ele>
        <time>2018-11-13T10:14:53.000Z</time>
      </trkpt>
      <trkpt lat="42.14264" lon="1.8931">
        <ele>1006</ele>
        <time>2018-11-13T10:14:54.000Z</time>
      </trkpt>
      <trkpt lat="42.14267" lon="1.8931">
        <ele>1005.0312533333</ele>
        <time>2018-11-13T10:14:55.000Z</time>
      </trkpt>
      <trkpt lat="42.14269" lon="1.8931">
        <ele>1005</ele>
        <time>2018-11-13T10:14:56.000Z</time>
      </trkpt>
      <trkpt lat="42.14272" lon="1.8931">
        <ele>1005</ele>
        <time>2018-11-13T10:14:57.000Z</time>
      </trkpt>
      <trkpt lat="42.14274" lon="1.89309">
        <ele>1004.4611128889</ele>
        <time>2018-11-13T10:14:58.000Z</time>
      </trkpt>
      <trkpt lat="42.14276" lon="1.89309">
        <ele>1004</ele>
        <time>2018-11-13T10:14:59.000Z</time>
      </trkpt>
      <trkpt lat="42.14279" lon="1.89308">
        <ele>1004</ele>
        <time>2018-11-13T10:15:00.000Z</time>
      </trkpt>
      <trkpt lat="42.14281" lon="1.89308">
        <ele>1004</ele>
        <time>2018-11-13T10:15:01.000Z</time>
      </trkpt>
      <trkpt lat="42.14283" lon="1.89307">
        <ele>1003.0300032</ele>
        <time>2018-11-13T10:15:02.000Z</time>
      </trkpt>
      <trkpt lat="42.14286" lon="1.89307">
        <ele>1002.1339314286</ele>
        <time>2018-11-13T10:15:03.000Z</time>
      </trkpt>
      <trkpt lat="42.14288" lon="1.89306">
        <ele>1002</ele>
        <time>2018-11-13T10:15:04.000Z</time>
      </trkpt>
      <trkpt lat="42.14291" lon="1.89306">
        <ele>1002</ele>
        <time>2018-11-13T10:15:05.000Z</time>
      </trkpt>
      <trkpt lat="42.14293" lon="1.89306">
        <ele>1002</ele>
        <time>2018-11-13T10:15:06.000Z</time>
      </trkpt>
      <trkpt lat="42.14295" lon="1.89306">
        <ele>1002</ele>
        <time>2018-11-13T10:15:07.000Z</time>
      </trkpt>
      <trkpt lat="42.14299" lon="1.89306">
        <ele>1000.1261214511</ele>
        <time>2018-11-13T10:15:09.000Z</time>
      </trkpt>
      <trkpt lat="42.14302" lon="1.89307">
        <ele>1000</ele>
        <time>2018-11-13T10:15:11.000Z</time>
      </trkpt>
      <trkpt lat="42.14304" lon="1.89307">
        <ele>1000</ele>
        <time>2018-11-13T10:15:12.000Z</time>
      </trkpt>
      <trkpt lat="42.14308" lon="1.89306">
        <ele>999.0300032</ele>
        <time>2018-11-13T10:15:14.000Z</time>
      </trkpt>
      <trkpt lat="42.14311" lon="1.89306">
        <ele>999</ele>
        <time>2018-11-13T10:15:16.000Z</time>
      </trkpt>
      <trkpt lat="42.14314" lon="1.89307">
        <ele>998.1199972693</ele>
        <time>2018-11-13T10:15:18.000Z</time>
      </trkpt>
      <trkpt lat="42.14316" lon="1.89306">
        <ele>997.12613152827</ele>
        <time>2018-11-13T10:15:20.000Z</time>
      </trkpt>
      <trkpt lat="42.1432" lon="1.89305">
        <ele>996</ele>
        <time>2018-11-13T10:15:22.000Z</time>
      </trkpt>
      <trkpt lat="42.14322" lon="1.89305">
        <ele>996</ele>
        <time>2018-11-13T10:15:23.000Z</time>
      </trkpt>
      <trkpt lat="42.14324" lon="1.89304">
        <ele>996</ele>
        <time>2018-11-13T10:15:24.000Z</time>
      </trkpt>
      <trkpt lat="42.14326" lon="1.89304">
        <ele>995.04286132241</ele>
        <time>2018-11-13T10:15:25.000Z</time>
      </trkpt>
      <trkpt lat="42.14329" lon="1.89304">
        <ele>995</ele>
        <time>2018-11-13T10:15:26.000Z</time>
      </trkpt>
      <trkpt lat="42.14332" lon="1.89304">
        <ele>995</ele>
        <time>2018-11-13T10:15:27.000Z</time>
      </trkpt>
      <trkpt lat="42.14335" lon="1.89305">
        <ele>995</ele>
        <time>2018-11-13T10:15:28.000Z</time>
      </trkpt>
      <trkpt lat="42.14338" lon="1.89305">
        <ele>995</ele>
        <time>2018-11-13T10:15:29.000Z</time>
      </trkpt>
      <trkpt lat="42.1434" lon="1.89306">
        <ele>994.06731076923</ele>
        <time>2018-11-13T10:15:30.000Z</time>
      </trkpt>
      <trkpt lat="42.14343" lon="1.89307">
        <ele>994</ele>
        <time>2018-11-13T10:15:31.000Z</time>
      </trkpt>
      <trkpt lat="42.14346" lon="1.89308">
        <ele>994</ele>
        <time>2018-11-13T10:15:32.000Z</time>
      </trkpt>
      <trkpt lat="42.14349" lon="1.89308">
        <ele>993.06731076923</ele>
        <time>2018-11-13T10:15:33.000Z</time>
      </trkpt>
      <trkpt lat="42.14351" lon="1.89308">
        <ele>993</ele>
        <time>2018-11-13T10:15:34.000Z</time>
      </trkpt>
      <trkpt lat="42.14354" lon="1.89307">
        <ele>993</ele>
        <time>2018-11-13T10:15:35.000Z</time>
      </trkpt>
      <trkpt lat="42.14356" lon="1.89306">
        <ele>992.2761183337</ele>
        <time>2018-11-13T10:15:36.000Z</time>
      </trkpt>
      <trkpt lat="42.14358" lon="1.89306">
        <ele>992</ele>
        <time>2018-11-13T10:15:37.000Z</time>
      </trkpt>
      <trkpt lat="42.14361" lon="1.89305">
        <ele>992</ele>
        <time>2018-11-13T10:15:38.000Z</time>
      </trkpt>
      <trkpt lat="42.14363" lon="1.89303">
        <ele>990.0600064</ele>
        <time>2018-11-13T10:15:39.000Z</time>
      </trkpt>
      <trkpt lat="42.14366" lon="1.89302">
        <ele>989.0300032</ele>
        <time>2018-11-13T10:15:40.000Z</time>
      </trkpt>
      <trkpt lat="42.14369" lon="1.893">
        <ele>989</ele>
        <time>2018-11-13T10:15:41.000Z</time>
      </trkpt>
      <trkpt lat="42.14371" lon="1.89299">
        <ele>989</ele>
        <time>2018-11-13T10:15:42.000Z</time>
      </trkpt>
      <trkpt lat="42.14374" lon="1.89297">
        <ele>988.08196239718</ele>
        <time>2018-11-13T10:15:43.000Z</time>
      </trkpt>
      <trkpt lat="42.14376" lon="1.89297">
        <ele>988</ele>
        <time>2018-11-13T10:15:44.000Z</time>
      </trkpt>
      <trkpt lat="42.14379" lon="1.89296">
        <ele>988</ele>
        <time>2018-11-13T10:15:45.000Z</time>
      </trkpt>
      <trkpt lat="42.14381" lon="1.89295">
        <ele>988</ele>
        <time>2018-11-13T10:15:46.000Z</time>
      </trkpt>
      <trkpt lat="42.14383" lon="1.89294">
        <ele>987.03061531027</ele>
        <time>2018-11-13T10:15:47.000Z</time>
      </trkpt>
      <trkpt lat="42.14386" lon="1.89293">
        <ele>987</ele>
        <time>2018-11-13T10:15:48.000Z</time>
      </trkpt>
      <trkpt lat="42.14389" lon="1.89292">
        <ele>987</ele>
        <time>2018-11-13T10:15:49.000Z</time>
      </trkpt>
      <trkpt lat="42.14391" lon="1.89291">
        <ele>987</ele>
        <time>2018-11-13T10:15:50.000Z</time>
      </trkpt>
      <trkpt lat="42.14393" lon="1.8929">
        <ele>986.0300032</ele>
        <time>2018-11-13T10:15:51.000Z</time>
      </trkpt>
      <trkpt lat="42.14396" lon="1.89289">
        <ele>986</ele>
        <time>2018-11-13T10:15:52.000Z</time>
      </trkpt>
      <trkpt lat="42.14398" lon="1.89288">
        <ele>986</ele>
        <time>2018-11-13T10:15:53.000Z</time>
      </trkpt>
      <trkpt lat="42.144" lon="1.89286">
        <ele>986</ele>
        <time>2018-11-13T10:15:54.000Z</time>
      </trkpt>
      <trkpt lat="42.14403" lon="1.89285">
        <ele>986</ele>
        <time>2018-11-13T10:15:55.000Z</time>
      </trkpt>
      <trkpt lat="42.14405" lon="1.89284">
        <ele>985.08334222222</ele>
        <time>2018-11-13T10:15:56.000Z</time>
      </trkpt>
      <trkpt lat="42.14408" lon="1.89283">
        <ele>985</ele>
        <time>2018-11-13T10:15:57.000Z</time>
      </trkpt>
      <trkpt lat="42.1441" lon="1.89281">
        <ele>984.10185481482</ele>
        <time>2018-11-13T10:15:58.000Z</time>
      </trkpt>
      <trkpt lat="42.14412" lon="1.8928">
        <ele>983.03261217391</ele>
        <time>2018-11-13T10:15:59.000Z</time>
      </trkpt>
      <trkpt lat="42.14415" lon="1.89279">
        <ele>983</ele>
        <time>2018-11-13T10:16:00.000Z</time>
      </trkpt>
      <trkpt lat="42.14417" lon="1.89278">
        <ele>983</ele>
        <time>2018-11-13T10:16:01.000Z</time>
      </trkpt>
      <trkpt lat="42.14419" lon="1.89277">
        <ele>983</ele>
        <time>2018-11-13T10:16:02.000Z</time>
      </trkpt>
      <trkpt lat="42.14422" lon="1.89276">
        <ele>983</ele>
        <time>2018-11-13T10:16:03.000Z</time>
      </trkpt>
      <trkpt lat="42.14424" lon="1.89275">
        <ele>982.0300032</ele>
        <time>2018-11-13T10:16:04.000Z</time>
      </trkpt>
      <trkpt lat="42.14427" lon="1.89274">
        <ele>981.0300032</ele>
        <time>2018-11-13T10:16:05.000Z</time>
      </trkpt>
      <trkpt lat="42.14429" lon="1.89273">
        <ele>981</ele>
        <time>2018-11-13T10:16:06.000Z</time>
      </trkpt>
      <trkpt lat="42.14432" lon="1.89272">
        <ele>981</ele>
        <time>2018-11-13T10:16:07.000Z</time>
      </trkpt>
      <trkpt lat="42.14434" lon="1.89271">
        <ele>980.0300032</ele>
        <time>2018-11-13T10:16:08.000Z</time>
      </trkpt>
      <trkpt lat="42.14436" lon="1.8927">
        <ele>979.0300032</ele>
        <time>2018-11-13T10:16:09.000Z</time>
      </trkpt>
      <trkpt lat="42.14439" lon="1.89267">
        <ele>978.0300032</ele>
        <time>2018-11-13T10:16:10.000Z</time>
      </trkpt>
      <trkpt lat="42.14441" lon="1.89266">
        <ele>978</ele>
        <time>2018-11-13T10:16:11.000Z</time>
      </trkpt>
      <trkpt lat="42.14444" lon="1.89264">
        <ele>978</ele>
        <time>2018-11-13T10:16:12.000Z</time>
      </trkpt>
      <trkpt lat="42.14446" lon="1.89263">
        <ele>977.0300032</ele>
        <time>2018-11-13T10:16:13.000Z</time>
      </trkpt>
      <trkpt lat="42.14449" lon="1.89262">
        <ele>977</ele>
        <time>2018-11-13T10:16:14.000Z</time>
      </trkpt>
      <trkpt lat="42.14451" lon="1.8926">
        <ele>977</ele>
        <time>2018-11-13T10:16:15.000Z</time>
      </trkpt>
      <trkpt lat="42.14454" lon="1.8926">
        <ele>977</ele>
        <time>2018-11-13T10:16:16.000Z</time>
      </trkpt>
      <trkpt lat="42.14456" lon="1.89259">
        <ele>975.0600064</ele>
        <time>2018-11-13T10:16:17.000Z</time>
      </trkpt>
      <trkpt lat="42.14459" lon="1.89257">
        <ele>974.0300032</ele>
        <time>2018-11-13T10:16:18.000Z</time>
      </trkpt>
      <trkpt lat="42.14462" lon="1.89256">
        <ele>974</ele>
        <time>2018-11-13T10:16:19.000Z</time>
      </trkpt>
      <trkpt lat="42.14465" lon="1.89256">
        <ele>974</ele>
        <time>2018-11-13T10:16:20.000Z</time>
      </trkpt>
      <trkpt lat="42.14467" lon="1.89256">
        <ele>974</ele>
        <time>2018-11-13T10:16:21.000Z</time>
      </trkpt>
      <trkpt lat="42.1447" lon="1.89255">
        <ele>974</ele>
        <time>2018-11-13T10:16:22.000Z</time>
      </trkpt>
      <trkpt lat="42.14472" lon="1.89255">
        <ele>974</ele>
        <time>2018-11-13T10:16:23.000Z</time>
      </trkpt>
      <trkpt lat="42.14475" lon="1.89254">
        <ele>974</ele>
        <time>2018-11-13T10:16:24.000Z</time>
      </trkpt>
      <trkpt lat="42.14477" lon="1.89254">
        <ele>973.0300032</ele>
        <time>2018-11-13T10:16:25.000Z</time>
      </trkpt>
      <trkpt lat="42.1448" lon="1.89253">
        <ele>973</ele>
        <time>2018-11-13T10:16:26.000Z</time>
      </trkpt>
      <trkpt lat="42.14483" lon="1.89252">
        <ele>973</ele>
        <time>2018-11-13T10:16:27.000Z</time>
      </trkpt>
      <trkpt lat="42.14485" lon="1.89251">
        <ele>973</ele>
        <time>2018-11-13T10:16:28.000Z</time>
      </trkpt>
      <trkpt lat="42.14487" lon="1.8925">
        <ele>973</ele>
        <time>2018-11-13T10:16:29.000Z</time>
      </trkpt>
      <trkpt lat="42.1449" lon="1.8925">
        <ele>972.03158220941</ele>
        <time>2018-11-13T10:16:30.000Z</time>
      </trkpt>
      <trkpt lat="42.14493" lon="1.89249">
        <ele>972</ele>
        <time>2018-11-13T10:16:31.000Z</time>
      </trkpt>
      <trkpt lat="42.14495" lon="1.89249">
        <ele>971.06731076923</ele>
        <time>2018-11-13T10:16:32.000Z</time>
      </trkpt>
      <trkpt lat="42.14498" lon="1.89249">
        <ele>971</ele>
        <time>2018-11-13T10:16:33.000Z</time>
      </trkpt>
      <trkpt lat="42.14501" lon="1.89249">
        <ele>971</ele>
        <time>2018-11-13T10:16:34.000Z</time>
      </trkpt>
      <trkpt lat="42.14503" lon="1.89249">
        <ele>971</ele>
        <time>2018-11-13T10:16:35.000Z</time>
      </trkpt>
      <trkpt lat="42.14506" lon="1.89249">
        <ele>970.11817959668</ele>
        <time>2018-11-13T10:16:36.000Z</time>
      </trkpt>
      <trkpt lat="42.14509" lon="1.8925">
        <ele>970</ele>
        <time>2018-11-13T10:16:37.000Z</time>
      </trkpt>
      <trkpt lat="42.14512" lon="1.8925">
        <ele>970</ele>
        <time>2018-11-13T10:16:38.000Z</time>
      </trkpt>
      <trkpt lat="42.14514" lon="1.8925">
        <ele>970</ele>
        <time>2018-11-13T10:16:39.000Z</time>
      </trkpt>
      <trkpt lat="42.14517" lon="1.89249">
        <ele>970</ele>
        <time>2018-11-13T10:16:40.000Z</time>
      </trkpt>
      <trkpt lat="42.14519" lon="1.89248">
        <ele>970</ele>
        <time>2018-11-13T10:16:41.000Z</time>
      </trkpt>
      <trkpt lat="42.14522" lon="1.89247">
        <ele>969.0300032</ele>
        <time>2018-11-13T10:16:42.000Z</time>
      </trkpt>
      <trkpt lat="42.14525" lon="1.89246">
        <ele>969</ele>
        <time>2018-11-13T10:16:43.000Z</time>
      </trkpt>
      <trkpt lat="42.14528" lon="1.89246">
        <ele>969</ele>
        <time>2018-11-13T10:16:44.000Z</time>
      </trkpt>
      <trkpt lat="42.1453" lon="1.89245">
        <ele>968.0300032</ele>
        <time>2018-11-13T10:16:45.000Z</time>
      </trkpt>
      <trkpt lat="42.14533" lon="1.89244">
        <ele>968</ele>
        <time>2018-11-13T10:16:46.000Z</time>
      </trkpt>
      <trkpt lat="42.14535" lon="1.89244">
        <ele>968</ele>
        <time>2018-11-13T10:16:47.000Z</time>
      </trkpt>
      <trkpt lat="42.14538" lon="1.89243">
        <ele>968</ele>
        <time>2018-11-13T10:16:48.000Z</time>
      </trkpt>
      <trkpt lat="42.14541" lon="1.89242">
        <ele>968</ele>
        <time>2018-11-13T10:16:49.000Z</time>
      </trkpt>
      <trkpt lat="42.14544" lon="1.89242">
        <ele>968</ele>
        <time>2018-11-13T10:16:50.000Z</time>
      </trkpt>
      <trkpt lat="42.14547" lon="1.89242">
        <ele>968</ele>
        <time>2018-11-13T10:16:51.000Z</time>
      </trkpt>
      <trkpt lat="42.1455" lon="1.89242">
        <ele>968</ele>
        <time>2018-11-13T10:16:52.000Z</time>
      </trkpt>
      <trkpt lat="42.14553" lon="1.89241">
        <ele>967.19231021694</ele>
        <time>2018-11-13T10:16:53.000Z</time>
      </trkpt>
      <trkpt lat="42.14555" lon="1.8924">
        <ele>967</ele>
        <time>2018-11-13T10:16:54.000Z</time>
      </trkpt>
      <trkpt lat="42.14558" lon="1.8924">
        <ele>967</ele>
        <time>2018-11-13T10:16:55.000Z</time>
      </trkpt>
      <trkpt lat="42.1456" lon="1.89239">
        <ele>967</ele>
        <time>2018-11-13T10:16:56.000Z</time>
      </trkpt>
      <trkpt lat="42.14562" lon="1.89237">
        <ele>966.03030616467</ele>
        <time>2018-11-13T10:16:57.000Z</time>
      </trkpt>
      <trkpt lat="42.14565" lon="1.89237">
        <ele>966</ele>
        <time>2018-11-13T10:16:58.000Z</time>
      </trkpt>
      <trkpt lat="42.14568" lon="1.89236">
        <ele>965.04348229358</ele>
        <time>2018-11-13T10:16:59.000Z</time>
      </trkpt>
      <trkpt lat="42.1457" lon="1.89236">
        <ele>965</ele>
        <time>2018-11-13T10:17:00.000Z</time>
      </trkpt>
      <trkpt lat="42.14573" lon="1.89235">
        <ele>964.06731076923</ele>
        <time>2018-11-13T10:17:01.000Z</time>
      </trkpt>
      <trkpt lat="42.14576" lon="1.89236">
        <ele>964</ele>
        <time>2018-11-13T10:17:02.000Z</time>
      </trkpt>
      <trkpt lat="42.14579" lon="1.89236">
        <ele>964</ele>
        <time>2018-11-13T10:17:03.000Z</time>
      </trkpt>
      <trkpt lat="42.14582" lon="1.89236">
        <ele>963.06731076923</ele>
        <time>2018-11-13T10:17:04.000Z</time>
      </trkpt>
      <trkpt lat="42.14585" lon="1.89237">
        <ele>963</ele>
        <time>2018-11-13T10:17:05.000Z</time>
      </trkpt>
      <trkpt lat="42.14588" lon="1.89237">
        <ele>963</ele>
        <time>2018-11-13T10:17:06.000Z</time>
      </trkpt>
      <trkpt lat="42.14591" lon="1.89237">
        <ele>963</ele>
        <time>2018-11-13T10:17:07.000Z</time>
      </trkpt>
      <trkpt lat="42.14593" lon="1.89238">
        <ele>963</ele>
        <time>2018-11-13T10:17:08.000Z</time>
      </trkpt>
      <trkpt lat="42.14596" lon="1.89237">
        <ele>963</ele>
        <time>2018-11-13T10:17:09.000Z</time>
      </trkpt>
      <trkpt lat="42.14598" lon="1.89237">
        <ele>962.05825845978</ele>
        <time>2018-11-13T10:17:10.000Z</time>
      </trkpt>
      <trkpt lat="42.146" lon="1.89237">
        <ele>962</ele>
        <time>2018-11-13T10:17:11.000Z</time>
      </trkpt>
      <trkpt lat="42.14603" lon="1.89237">
        <ele>962.93056</ele>
        <time>2018-11-13T10:17:12.000Z</time>
      </trkpt>
      <trkpt lat="42.14605" lon="1.89237">
        <ele>963</ele>
        <time>2018-11-13T10:17:13.000Z</time>
      </trkpt>
      <trkpt lat="42.14608" lon="1.89237">
        <ele>962.09345280107</ele>
        <time>2018-11-13T10:17:14.000Z</time>
      </trkpt>
      <trkpt lat="42.14611" lon="1.89236">
        <ele>961.03226117236</ele>
        <time>2018-11-13T10:17:15.000Z</time>
      </trkpt>
      <trkpt lat="42.14613" lon="1.89236">
        <ele>961</ele>
        <time>2018-11-13T10:17:16.000Z</time>
      </trkpt>
      <trkpt lat="42.14616" lon="1.89236">
        <ele>961</ele>
        <time>2018-11-13T10:17:17.000Z</time>
      </trkpt>
      <trkpt lat="42.14619" lon="1.89236">
        <ele>961</ele>
        <time>2018-11-13T10:17:18.000Z</time>
      </trkpt>
      <trkpt lat="42.14621" lon="1.89236">
        <ele>961.91509684587</ele>
        <time>2018-11-13T10:17:19.000Z</time>
      </trkpt>
      <trkpt lat="42.14624" lon="1.89236">
        <ele>962</ele>
        <time>2018-11-13T10:17:20.000Z</time>
      </trkpt>
      <trkpt lat="42.14625" lon="1.89236">
        <ele>962</ele>
        <time>2018-11-13T10:17:21.000Z</time>
      </trkpt>
      <trkpt lat="42.14628" lon="1.89236">
        <ele>962</ele>
        <time>2018-11-13T10:17:22.000Z</time>
      </trkpt>
      <trkpt lat="42.14631" lon="1.89236">
        <ele>961.03158220941</ele>
        <time>2018-11-13T10:17:23.000Z</time>
      </trkpt>
      <trkpt lat="42.14633" lon="1.89236">
        <ele>961</ele>
        <time>2018-11-13T10:17:24.000Z</time>
      </trkpt>
      <trkpt lat="42.14636" lon="1.89237">
        <ele>961</ele>
        <time>2018-11-13T10:17:26.000Z</time>
      </trkpt>
      <trkpt lat="42.1464" lon="1.89237">
        <ele>961</ele>
        <time>2018-11-13T10:17:28.000Z</time>
      </trkpt>
      <trkpt lat="42.14642" lon="1.89236">
        <ele>961</ele>
        <time>2018-11-13T10:17:30.000Z</time>
      </trkpt>
      <trkpt lat="42.14645" lon="1.89235">
        <ele>961</ele>
        <time>2018-11-13T10:17:32.000Z</time>
      </trkpt>
      <trkpt lat="42.14648" lon="1.89234">
        <ele>960.03125333333</ele>
        <time>2018-11-13T10:17:34.000Z</time>
      </trkpt>
      <trkpt lat="42.14651" lon="1.89234">
        <ele>959.06731076923</ele>
        <time>2018-11-13T10:17:36.000Z</time>
      </trkpt>
      <trkpt lat="42.14654" lon="1.89234">
        <ele>960</ele>
        <time>2018-11-13T10:17:38.000Z</time>
      </trkpt>
      <trkpt lat="42.14657" lon="1.89233">
        <ele>959</ele>
        <time>2018-11-13T10:17:40.000Z</time>
      </trkpt>
      <trkpt lat="42.1466" lon="1.89233">
        <ele>958</ele>
        <time>2018-11-13T10:17:42.000Z</time>
      </trkpt>
      <trkpt lat="42.14662" lon="1.89233">
        <ele>958</ele>
        <time>2018-11-13T10:17:43.000Z</time>
      </trkpt>
      <trkpt lat="42.14665" lon="1.89232">
        <ele>958</ele>
        <time>2018-11-13T10:17:44.000Z</time>
      </trkpt>
      <trkpt lat="42.14667" lon="1.89231">
        <ele>957.04348229358</ele>
        <time>2018-11-13T10:17:45.000Z</time>
      </trkpt>
      <trkpt lat="42.14669" lon="1.8923">
        <ele>957</ele>
        <time>2018-11-13T10:17:46.000Z</time>
      </trkpt>
      <trkpt lat="42.1467" lon="1.89227">
        <ele>956</ele>
        <time>2018-11-13T10:17:48.000Z</time>
      </trkpt>
      <trkpt lat="42.14668" lon="1.89224">
        <ele>956</ele>
        <time>2018-11-13T10:17:50.000Z</time>
      </trkpt>
      <trkpt lat="42.14667" lon="1.89223">
        <ele>956</ele>
        <time>2018-11-13T10:17:51.000Z</time>
      </trkpt>
      <trkpt lat="42.14665" lon="1.89222">
        <ele>956</ele>
        <time>2018-11-13T10:17:52.000Z</time>
      </trkpt>
      <trkpt lat="42.14663" lon="1.89221">
        <ele>956</ele>
        <time>2018-11-13T10:17:53.000Z</time>
      </trkpt>
      <trkpt lat="42.14661" lon="1.8922">
        <ele>956</ele>
        <time>2018-11-13T10:17:54.000Z</time>
      </trkpt>
      <trkpt lat="42.14658" lon="1.8922">
        <ele>956</ele>
        <time>2018-11-13T10:17:55.000Z</time>
      </trkpt>
      <trkpt lat="42.14656" lon="1.89219">
        <ele>956</ele>
        <time>2018-11-13T10:17:56.000Z</time>
      </trkpt>
      <trkpt lat="42.14653" lon="1.89218">
        <ele>956</ele>
        <time>2018-11-13T10:17:57.000Z</time>
      </trkpt>
      <trkpt lat="42.14651" lon="1.89218">
        <ele>956</ele>
        <time>2018-11-13T10:17:58.000Z</time>
      </trkpt>
      <trkpt lat="42.14648" lon="1.89217">
        <ele>956</ele>
        <time>2018-11-13T10:17:59.000Z</time>
      </trkpt>
      <trkpt lat="42.14646" lon="1.89217">
        <ele>955.0300032</ele>
        <time>2018-11-13T10:18:00.000Z</time>
      </trkpt>
      <trkpt lat="42.14643" lon="1.89216">
        <ele>955</ele>
        <time>2018-11-13T10:18:01.000Z</time>
      </trkpt>
      <trkpt lat="42.14641" lon="1.89215">
        <ele>955</ele>
        <time>2018-11-13T10:18:02.000Z</time>
      </trkpt>
      <trkpt lat="42.14639" lon="1.89214">
        <ele>955</ele>
        <time>2018-11-13T10:18:03.000Z</time>
      </trkpt>
      <trkpt lat="42.14636" lon="1.89213">
        <ele>955</ele>
        <time>2018-11-13T10:18:04.000Z</time>
      </trkpt>
      <trkpt lat="42.14634" lon="1.89212">
        <ele>954.03061531027</ele>
        <time>2018-11-13T10:18:05.000Z</time>
      </trkpt>
      <trkpt lat="42.14631" lon="1.89211">
        <ele>953.2595390012</ele>
        <time>2018-11-13T10:18:06.000Z</time>
      </trkpt>
      <trkpt lat="42.14629" lon="1.8921">
        <ele>953</ele>
        <time>2018-11-13T10:18:07.000Z</time>
      </trkpt>
      <trkpt lat="42.14626" lon="1.89209">
        <ele>953</ele>
        <time>2018-11-13T10:18:08.000Z</time>
      </trkpt>
      <trkpt lat="42.14623" lon="1.89207">
        <ele>953</ele>
        <time>2018-11-13T10:18:09.000Z</time>
      </trkpt>
      <trkpt lat="42.14621" lon="1.89207">
        <ele>953</ele>
        <time>2018-11-13T10:18:10.000Z</time>
      </trkpt>
      <trkpt lat="42.14618" lon="1.89206">
        <ele>952.07619070839</ele>
        <time>2018-11-13T10:18:11.000Z</time>
      </trkpt>
      <trkpt lat="42.14616" lon="1.89205">
        <ele>951.03158220941</ele>
        <time>2018-11-13T10:18:12.000Z</time>
      </trkpt>
      <trkpt lat="42.14614" lon="1.89204">
        <ele>951</ele>
        <time>2018-11-13T10:18:13.000Z</time>
      </trkpt>
      <trkpt lat="42.14611" lon="1.89203">
        <ele>951</ele>
        <time>2018-11-13T10:18:14.000Z</time>
      </trkpt>
      <trkpt lat="42.14608" lon="1.89203">
        <ele>951</ele>
        <time>2018-11-13T10:18:15.000Z</time>
      </trkpt>
      <trkpt lat="42.14606" lon="1.89202">
        <ele>951</ele>
        <time>2018-11-13T10:18:16.000Z</time>
      </trkpt>
      <trkpt lat="42.14604" lon="1.89201">
        <ele>951</ele>
        <time>2018-11-13T10:18:17.000Z</time>
      </trkpt>
      <trkpt lat="42.14601" lon="1.892">
        <ele>951.9690691721</ele>
        <time>2018-11-13T10:18:18.000Z</time>
      </trkpt>
      <trkpt lat="42.14599" lon="1.89199">
        <ele>951.0300032</ele>
        <time>2018-11-13T10:18:19.000Z</time>
      </trkpt>
      <trkpt lat="42.14597" lon="1.89198">
        <ele>951</ele>
        <time>2018-11-13T10:18:20.000Z</time>
      </trkpt>
      <trkpt lat="42.14595" lon="1.89197">
        <ele>951</ele>
        <time>2018-11-13T10:18:21.000Z</time>
      </trkpt>
      <trkpt lat="42.14593" lon="1.89196">
        <ele>951</ele>
        <time>2018-11-13T10:18:22.000Z</time>
      </trkpt>
      <trkpt lat="42.14591" lon="1.89194">
        <ele>951</ele>
        <time>2018-11-13T10:18:23.000Z</time>
      </trkpt>
      <trkpt lat="42.14588" lon="1.89193">
        <ele>951</ele>
        <time>2018-11-13T10:18:24.000Z</time>
      </trkpt>
      <trkpt lat="42.14586" lon="1.89192">
        <ele>951</ele>
        <time>2018-11-13T10:18:25.000Z</time>
      </trkpt>
      <trkpt lat="42.14584" lon="1.89191">
        <ele>951</ele>
        <time>2018-11-13T10:18:26.000Z</time>
      </trkpt>
      <trkpt lat="42.14582" lon="1.89189">
        <ele>950.45197821827</ele>
        <time>2018-11-13T10:18:27.000Z</time>
      </trkpt>
      <trkpt lat="42.14579" lon="1.89189">
        <ele>950</ele>
        <time>2018-11-13T10:18:28.000Z</time>
      </trkpt>
      <trkpt lat="42.14577" lon="1.89188">
        <ele>950</ele>
        <time>2018-11-13T10:18:29.000Z</time>
      </trkpt>
      <trkpt lat="42.14574" lon="1.89186">
        <ele>950</ele>
        <time>2018-11-13T10:18:30.000Z</time>
      </trkpt>
      <trkpt lat="42.14572" lon="1.89184">
        <ele>949.03261217391</ele>
        <time>2018-11-13T10:18:31.000Z</time>
      </trkpt>
      <trkpt lat="42.14569" lon="1.89182">
        <ele>949</ele>
        <time>2018-11-13T10:18:32.000Z</time>
      </trkpt>
      <trkpt lat="42.14567" lon="1.8918">
        <ele>948.11009206633</ele>
        <time>2018-11-13T10:18:33.000Z</time>
      </trkpt>
      <trkpt lat="42.14564" lon="1.89178">
        <ele>948</ele>
        <time>2018-11-13T10:18:34.000Z</time>
      </trkpt>
      <trkpt lat="42.14562" lon="1.89176">
        <ele>948</ele>
        <time>2018-11-13T10:18:35.000Z</time>
      </trkpt>
      <trkpt lat="42.14559" lon="1.89174">
        <ele>948</ele>
        <time>2018-11-13T10:18:36.000Z</time>
      </trkpt>
      <trkpt lat="42.14557" lon="1.89172">
        <ele>948</ele>
        <time>2018-11-13T10:18:37.000Z</time>
      </trkpt>
      <trkpt lat="42.14554" lon="1.8917">
        <ele>948</ele>
        <time>2018-11-13T10:18:38.000Z</time>
      </trkpt>
      <trkpt lat="42.14552" lon="1.89169">
        <ele>948</ele>
        <time>2018-11-13T10:18:39.000Z</time>
      </trkpt>
      <trkpt lat="42.14549" lon="1.89168">
        <ele>947.03261217391</ele>
        <time>2018-11-13T10:18:40.000Z</time>
      </trkpt>
      <trkpt lat="42.14546" lon="1.89167">
        <ele>947</ele>
        <time>2018-11-13T10:18:41.000Z</time>
      </trkpt>
      <trkpt lat="42.14544" lon="1.89166">
        <ele>946.09345280107</ele>
        <time>2018-11-13T10:18:42.000Z</time>
      </trkpt>
      <trkpt lat="42.14541" lon="1.89164">
        <ele>946</ele>
        <time>2018-11-13T10:18:43.000Z</time>
      </trkpt>
      <trkpt lat="42.14539" lon="1.89164">
        <ele>946</ele>
        <time>2018-11-13T10:18:44.000Z</time>
      </trkpt>
      <trkpt lat="42.14536" lon="1.89163">
        <ele>946</ele>
        <time>2018-11-13T10:18:45.000Z</time>
      </trkpt>
      <trkpt lat="42.14534" lon="1.89162">
        <ele>946</ele>
        <time>2018-11-13T10:18:46.000Z</time>
      </trkpt>
      <trkpt lat="42.14532" lon="1.89161">
        <ele>946</ele>
        <time>2018-11-13T10:18:47.000Z</time>
      </trkpt>
      <trkpt lat="42.1453" lon="1.8916">
        <ele>946</ele>
        <time>2018-11-13T10:18:48.000Z</time>
      </trkpt>
      <trkpt lat="42.14527" lon="1.89159">
        <ele>945.09346364572</ele>
        <time>2018-11-13T10:18:49.000Z</time>
      </trkpt>
      <trkpt lat="42.14524" lon="1.89157">
        <ele>944.03226161638</ele>
        <time>2018-11-13T10:18:50.000Z</time>
      </trkpt>
      <trkpt lat="42.14522" lon="1.89156">
        <ele>944</ele>
        <time>2018-11-13T10:18:51.000Z</time>
      </trkpt>
      <trkpt lat="42.14519" lon="1.89155">
        <ele>944</ele>
        <time>2018-11-13T10:18:52.000Z</time>
      </trkpt>
      <trkpt lat="42.14517" lon="1.89154">
        <ele>944</ele>
        <time>2018-11-13T10:18:53.000Z</time>
      </trkpt>
      <trkpt lat="42.14515" lon="1.89153">
        <ele>944</ele>
        <time>2018-11-13T10:18:54.000Z</time>
      </trkpt>
      <trkpt lat="42.14512" lon="1.89151">
        <ele>944</ele>
        <time>2018-11-13T10:18:55.000Z</time>
      </trkpt>
      <trkpt lat="42.1451" lon="1.8915">
        <ele>943.03191808056</ele>
        <time>2018-11-13T10:18:56.000Z</time>
      </trkpt>
      <trkpt lat="42.14507" lon="1.89149">
        <ele>942.0300032</ele>
        <time>2018-11-13T10:18:57.000Z</time>
      </trkpt>
      <trkpt lat="42.14504" lon="1.89147">
        <ele>942</ele>
        <time>2018-11-13T10:18:58.000Z</time>
      </trkpt>
      <trkpt lat="42.14502" lon="1.89146">
        <ele>942</ele>
        <time>2018-11-13T10:18:59.000Z</time>
      </trkpt>
      <trkpt lat="42.14499" lon="1.89145">
        <ele>942</ele>
        <time>2018-11-13T10:19:00.000Z</time>
      </trkpt>
      <trkpt lat="42.14496" lon="1.89144">
        <ele>941.07619070839</ele>
        <time>2018-11-13T10:19:01.000Z</time>
      </trkpt>
      <trkpt lat="42.14493" lon="1.89143">
        <ele>941</ele>
        <time>2018-11-13T10:19:02.000Z</time>
      </trkpt>
      <trkpt lat="42.14491" lon="1.89142">
        <ele>941</ele>
        <time>2018-11-13T10:19:03.000Z</time>
      </trkpt>
      <trkpt lat="42.14488" lon="1.89141">
        <ele>941</ele>
        <time>2018-11-13T10:19:04.000Z</time>
      </trkpt>
      <trkpt lat="42.14486" lon="1.8914">
        <ele>941.74615505799</ele>
        <time>2018-11-13T10:19:05.000Z</time>
      </trkpt>
      <trkpt lat="42.14483" lon="1.89139">
        <ele>941.04286132241</ele>
        <time>2018-11-13T10:19:06.000Z</time>
      </trkpt>
      <trkpt lat="42.14481" lon="1.89137">
        <ele>941</ele>
        <time>2018-11-13T10:19:07.000Z</time>
      </trkpt>
      <trkpt lat="42.14479" lon="1.89135">
        <ele>940.04901677814</ele>
        <time>2018-11-13T10:19:08.000Z</time>
      </trkpt>
      <trkpt lat="42.14476" lon="1.89134">
        <ele>939.03061531027</ele>
        <time>2018-11-13T10:19:09.000Z</time>
      </trkpt>
      <trkpt lat="42.14474" lon="1.89132">
        <ele>939</ele>
        <time>2018-11-13T10:19:10.000Z</time>
      </trkpt>
      <trkpt lat="42.14472" lon="1.89129">
        <ele>939</ele>
        <time>2018-11-13T10:19:11.000Z</time>
      </trkpt>
      <trkpt lat="42.14469" lon="1.89127">
        <ele>939</ele>
        <time>2018-11-13T10:19:12.000Z</time>
      </trkpt>
      <trkpt lat="42.14467" lon="1.89125">
        <ele>939</ele>
        <time>2018-11-13T10:19:13.000Z</time>
      </trkpt>
      <trkpt lat="42.14465" lon="1.89123">
        <ele>939</ele>
        <time>2018-11-13T10:19:14.000Z</time>
      </trkpt>
      <trkpt lat="42.14463" lon="1.8912">
        <ele>938.03061531027</ele>
        <time>2018-11-13T10:19:15.000Z</time>
      </trkpt>
      <trkpt lat="42.14461" lon="1.89118">
        <ele>937.0300032</ele>
        <time>2018-11-13T10:19:16.000Z</time>
      </trkpt>
      <trkpt lat="42.14458" lon="1.89116">
        <ele>936.04901677814</ele>
        <time>2018-11-13T10:19:17.000Z</time>
      </trkpt>
      <trkpt lat="42.14456" lon="1.89114">
        <ele>936</ele>
        <time>2018-11-13T10:19:18.000Z</time>
      </trkpt>
      <trkpt lat="42.14454" lon="1.89112">
        <ele>935.0300032</ele>
        <time>2018-11-13T10:19:19.000Z</time>
      </trkpt>
      <trkpt lat="42.14451" lon="1.89109">
        <ele>935.95098322186</ele>
        <time>2018-11-13T10:19:20.000Z</time>
      </trkpt>
      <trkpt lat="42.14449" lon="1.89107">
        <ele>936</ele>
        <time>2018-11-13T10:19:21.000Z</time>
      </trkpt>
      <trkpt lat="42.14447" lon="1.89105">
        <ele>935.04286132241</ele>
        <time>2018-11-13T10:19:22.000Z</time>
      </trkpt>
      <trkpt lat="42.14444" lon="1.89105">
        <ele>934.0300032</ele>
        <time>2018-11-13T10:19:23.000Z</time>
      </trkpt>
      <trkpt lat="42.14441" lon="1.89104">
        <ele>933.281485555</ele>
        <time>2018-11-13T10:19:24.000Z</time>
      </trkpt>
      <trkpt lat="42.14439" lon="1.89102">
        <ele>933</ele>
        <time>2018-11-13T10:19:25.000Z</time>
      </trkpt>
      <trkpt lat="42.14436" lon="1.891">
        <ele>933</ele>
        <time>2018-11-13T10:19:26.000Z</time>
      </trkpt>
      <trkpt lat="42.14434" lon="1.89099">
        <ele>933</ele>
        <time>2018-11-13T10:19:27.000Z</time>
      </trkpt>
      <trkpt lat="42.14432" lon="1.89097">
        <ele>932.0300032</ele>
        <time>2018-11-13T10:19:28.000Z</time>
      </trkpt>
      <trkpt lat="42.14429" lon="1.89095">
        <ele>932</ele>
        <time>2018-11-13T10:19:29.000Z</time>
      </trkpt>
      <trkpt lat="42.14427" lon="1.89092">
        <ele>932</ele>
        <time>2018-11-13T10:19:30.000Z</time>
      </trkpt>
      <trkpt lat="42.14425" lon="1.8909">
        <ele>931.03226117236</ele>
        <time>2018-11-13T10:19:31.000Z</time>
      </trkpt>
      <trkpt lat="42.14423" lon="1.89088">
        <ele>930.0300032</ele>
        <time>2018-11-13T10:19:32.000Z</time>
      </trkpt>
      <trkpt lat="42.14421" lon="1.89085">
        <ele>930</ele>
        <time>2018-11-13T10:19:33.000Z</time>
      </trkpt>
      <trkpt lat="42.14419" lon="1.89083">
        <ele>930</ele>
        <time>2018-11-13T10:19:34.000Z</time>
      </trkpt>
      <trkpt lat="42.14418" lon="1.8908">
        <ele>930</ele>
        <time>2018-11-13T10:19:35.000Z</time>
      </trkpt>
      <trkpt lat="42.14416" lon="1.89077">
        <ele>930</ele>
        <time>2018-11-13T10:19:36.000Z</time>
      </trkpt>
      <trkpt lat="42.14415" lon="1.89074">
        <ele>930</ele>
        <time>2018-11-13T10:19:37.000Z</time>
      </trkpt>
      <trkpt lat="42.14414" lon="1.8907">
        <ele>929.0300032</ele>
        <time>2018-11-13T10:19:38.000Z</time>
      </trkpt>
      <trkpt lat="42.14413" lon="1.89067">
        <ele>928.08490315413</ele>
        <time>2018-11-13T10:19:39.000Z</time>
      </trkpt>
      <trkpt lat="42.14411" lon="1.89064">
        <ele>928</ele>
        <time>2018-11-13T10:19:40.000Z</time>
      </trkpt>
      <trkpt lat="42.1441" lon="1.89061">
        <ele>927.04286132241</ele>
        <time>2018-11-13T10:19:41.000Z</time>
      </trkpt>
      <trkpt lat="42.14408" lon="1.89059">
        <ele>927</ele>
        <time>2018-11-13T10:19:42.000Z</time>
      </trkpt>
      <trkpt lat="42.14406" lon="1.89057">
        <ele>927</ele>
        <time>2018-11-13T10:19:43.000Z</time>
      </trkpt>
      <trkpt lat="42.14404" lon="1.89054">
        <ele>926.18421584479</ele>
        <time>2018-11-13T10:19:44.000Z</time>
      </trkpt>
      <trkpt lat="42.14402" lon="1.89052">
        <ele>926</ele>
        <time>2018-11-13T10:19:45.000Z</time>
      </trkpt>
      <trkpt lat="42.144" lon="1.89049">
        <ele>925.0300032</ele>
        <time>2018-11-13T10:19:46.000Z</time>
      </trkpt>
      <trkpt lat="42.14399" lon="1.89046">
        <ele>924.0300032</ele>
        <time>2018-11-13T10:19:47.000Z</time>
      </trkpt>
      <trkpt lat="42.14397" lon="1.89044">
        <ele>924</ele>
        <time>2018-11-13T10:19:48.000Z</time>
      </trkpt>
      <trkpt lat="42.14395" lon="1.89041">
        <ele>924</ele>
        <time>2018-11-13T10:19:49.000Z</time>
      </trkpt>
      <trkpt lat="42.14393" lon="1.89039">
        <ele>924</ele>
        <time>2018-11-13T10:19:50.000Z</time>
      </trkpt>
      <trkpt lat="42.14391" lon="1.89036">
        <ele>924</ele>
        <time>2018-11-13T10:19:51.000Z</time>
      </trkpt>
      <trkpt lat="42.1439" lon="1.89033">
        <ele>923.0300032</ele>
        <time>2018-11-13T10:19:52.000Z</time>
      </trkpt>
      <trkpt lat="42.14389" lon="1.8903">
        <ele>923</ele>
        <time>2018-11-13T10:19:53.000Z</time>
      </trkpt>
      <trkpt lat="42.14387" lon="1.89028">
        <ele>923</ele>
        <time>2018-11-13T10:19:54.000Z</time>
      </trkpt>
      <trkpt lat="42.14386" lon="1.89024">
        <ele>923</ele>
        <time>2018-11-13T10:19:55.000Z</time>
      </trkpt>
      <trkpt lat="42.14386" lon="1.89021">
        <ele>923</ele>
        <time>2018-11-13T10:19:56.000Z</time>
      </trkpt>
      <trkpt lat="42.14385" lon="1.89018">
        <ele>922.03061531027</ele>
        <time>2018-11-13T10:19:57.000Z</time>
      </trkpt>
      <trkpt lat="42.14384" lon="1.89015">
        <ele>921.0300032</ele>
        <time>2018-11-13T10:19:58.000Z</time>
      </trkpt>
      <trkpt lat="42.14383" lon="1.89013">
        <ele>921</ele>
        <time>2018-11-13T10:19:59.000Z</time>
      </trkpt>
      <trkpt lat="42.14383" lon="1.89008">
        <ele>920</ele>
        <time>2018-11-13T10:20:01.000Z</time>
      </trkpt>
      <trkpt lat="42.14384" lon="1.89007">
        <ele>919.98202115394</ele>
        <time>2018-11-13T10:20:02.000Z</time>
      </trkpt>
      <trkpt lat="42.14432" lon="1.88971">
        <ele>918.00436616908</ele>
        <time>2018-11-13T10:21:19.000Z</time>
      </trkpt>
      <trkpt lat="42.14433" lon="1.88971">
        <ele>918</ele>
        <time>2018-11-13T10:21:20.000Z</time>
      </trkpt>
      <trkpt lat="42.14436" lon="1.8897">
        <ele>918</ele>
        <time>2018-11-13T10:21:22.000Z</time>
      </trkpt>
      <trkpt lat="42.14438" lon="1.88969">
        <ele>918</ele>
        <time>2018-11-13T10:21:23.000Z</time>
      </trkpt>
      <trkpt lat="42.1444" lon="1.88968">
        <ele>918</ele>
        <time>2018-11-13T10:21:24.000Z</time>
      </trkpt>
      <trkpt lat="42.14443" lon="1.88967">
        <ele>918.9699968</ele>
        <time>2018-11-13T10:21:25.000Z</time>
      </trkpt>
      <trkpt lat="42.14445" lon="1.88967">
        <ele>919</ele>
        <time>2018-11-13T10:21:26.000Z</time>
      </trkpt>
      <trkpt lat="42.14447" lon="1.88966">
        <ele>919</ele>
        <time>2018-11-13T10:21:27.000Z</time>
      </trkpt>
      <trkpt lat="42.14449" lon="1.88965">
        <ele>919</ele>
        <time>2018-11-13T10:21:28.000Z</time>
      </trkpt>
      <trkpt lat="42.14451" lon="1.88964">
        <ele>919</ele>
        <time>2018-11-13T10:21:29.000Z</time>
      </trkpt>
      <trkpt lat="42.14453" lon="1.88963">
        <ele>918.03371109705</ele>
        <time>2018-11-13T10:21:30.000Z</time>
      </trkpt>
      <trkpt lat="42.14455" lon="1.88962">
        <ele>918</ele>
        <time>2018-11-13T10:21:31.000Z</time>
      </trkpt>
      <trkpt lat="42.14457" lon="1.88961">
        <ele>918.87386847173</ele>
        <time>2018-11-13T10:21:32.000Z</time>
      </trkpt>
      <trkpt lat="42.14459" lon="1.8896">
        <ele>919</ele>
        <time>2018-11-13T10:21:33.000Z</time>
      </trkpt>
      <trkpt lat="42.14461" lon="1.88959">
        <ele>919</ele>
        <time>2018-11-13T10:21:34.000Z</time>
      </trkpt>
      <trkpt lat="42.14463" lon="1.88958">
        <ele>919</ele>
        <time>2018-11-13T10:21:35.000Z</time>
      </trkpt>
      <trkpt lat="42.14465" lon="1.88956">
        <ele>919</ele>
        <time>2018-11-13T10:21:36.000Z</time>
      </trkpt>
      <trkpt lat="42.14467" lon="1.88955">
        <ele>919</ele>
        <time>2018-11-13T10:21:37.000Z</time>
      </trkpt>
      <trkpt lat="42.14468" lon="1.88954">
        <ele>919</ele>
        <time>2018-11-13T10:21:38.000Z</time>
      </trkpt>
      <trkpt lat="42.1447" lon="1.88952">
        <ele>919</ele>
        <time>2018-11-13T10:21:39.000Z</time>
      </trkpt>
      <trkpt lat="42.14472" lon="1.88951">
        <ele>919</ele>
        <time>2018-11-13T10:21:40.000Z</time>
      </trkpt>
      <trkpt lat="42.14474" lon="1.88949">
        <ele>919</ele>
        <time>2018-11-13T10:21:41.000Z</time>
      </trkpt>
      <trkpt lat="42.14475" lon="1.88948">
        <ele>919</ele>
        <time>2018-11-13T10:21:42.000Z</time>
      </trkpt>
      <trkpt lat="42.14477" lon="1.88946">
        <ele>919</ele>
        <time>2018-11-13T10:21:43.000Z</time>
      </trkpt>
      <trkpt lat="42.14479" lon="1.88944">
        <ele>919</ele>
        <time>2018-11-13T10:21:44.000Z</time>
      </trkpt>
      <trkpt lat="42.1448" lon="1.88941">
        <ele>919</ele>
        <time>2018-11-13T10:21:45.000Z</time>
      </trkpt>
      <trkpt lat="42.14482" lon="1.88938">
        <ele>918.03125333333</ele>
        <time>2018-11-13T10:21:46.000Z</time>
      </trkpt>
      <trkpt lat="42.14484" lon="1.88936">
        <ele>918</ele>
        <time>2018-11-13T10:21:47.000Z</time>
      </trkpt>
      <trkpt lat="42.14486" lon="1.88935">
        <ele>918.93268923077</ele>
        <time>2018-11-13T10:21:48.000Z</time>
      </trkpt>
      <trkpt lat="42.14488" lon="1.88934">
        <ele>919</ele>
        <time>2018-11-13T10:21:49.000Z</time>
      </trkpt>
      <trkpt lat="42.1449" lon="1.88933">
        <ele>919.9699968</ele>
        <time>2018-11-13T10:21:50.000Z</time>
      </trkpt>
      <trkpt lat="42.14492" lon="1.88932">
        <ele>920</ele>
        <time>2018-11-13T10:21:51.000Z</time>
      </trkpt>
      <trkpt lat="42.14494" lon="1.88931">
        <ele>920</ele>
        <time>2018-11-13T10:21:52.000Z</time>
      </trkpt>
      <trkpt lat="42.14496" lon="1.88931">
        <ele>920</ele>
        <time>2018-11-13T10:21:53.000Z</time>
      </trkpt>
      <trkpt lat="42.14498" lon="1.8893">
        <ele>920</ele>
        <time>2018-11-13T10:21:54.000Z</time>
      </trkpt>
      <trkpt lat="42.14501" lon="1.88929">
        <ele>919.03093123606</ele>
        <time>2018-11-13T10:21:55.000Z</time>
      </trkpt>
      <trkpt lat="42.14503" lon="1.88929">
        <ele>919.9699968</ele>
        <time>2018-11-13T10:21:56.000Z</time>
      </trkpt>
      <trkpt lat="42.14505" lon="1.88928">
        <ele>920</ele>
        <time>2018-11-13T10:21:57.000Z</time>
      </trkpt>
      <trkpt lat="42.14507" lon="1.88927">
        <ele>919.04545895313</ele>
        <time>2018-11-13T10:21:58.000Z</time>
      </trkpt>
      <trkpt lat="42.14509" lon="1.88927">
        <ele>919</ele>
        <time>2018-11-13T10:21:59.000Z</time>
      </trkpt>
      <trkpt lat="42.14511" lon="1.88926">
        <ele>919</ele>
        <time>2018-11-13T10:22:00.000Z</time>
      </trkpt>
      <trkpt lat="42.14513" lon="1.88925">
        <ele>919</ele>
        <time>2018-11-13T10:22:01.000Z</time>
      </trkpt>
      <trkpt lat="42.14515" lon="1.88924">
        <ele>919</ele>
        <time>2018-11-13T10:22:02.000Z</time>
      </trkpt>
      <trkpt lat="42.14517" lon="1.88923">
        <ele>919</ele>
        <time>2018-11-13T10:22:03.000Z</time>
      </trkpt>
      <trkpt lat="42.14519" lon="1.88922">
        <ele>919</ele>
        <time>2018-11-13T10:22:04.000Z</time>
      </trkpt>
      <trkpt lat="42.14521" lon="1.88921">
        <ele>919</ele>
        <time>2018-11-13T10:22:05.000Z</time>
      </trkpt>
      <trkpt lat="42.14524" lon="1.88919">
        <ele>919</ele>
        <time>2018-11-13T10:22:06.000Z</time>
      </trkpt>
      <trkpt lat="42.14526" lon="1.88918">
        <ele>919</ele>
        <time>2018-11-13T10:22:07.000Z</time>
      </trkpt>
      <trkpt lat="42.14528" lon="1.88917">
        <ele>919</ele>
        <time>2018-11-13T10:22:08.000Z</time>
      </trkpt>
      <trkpt lat="42.1453" lon="1.88915">
        <ele>919</ele>
        <time>2018-11-13T10:22:09.000Z</time>
      </trkpt>
      <trkpt lat="42.14532" lon="1.88914">
        <ele>919</ele>
        <time>2018-11-13T10:22:10.000Z</time>
      </trkpt>
      <trkpt lat="42.14534" lon="1.88913">
        <ele>919</ele>
        <time>2018-11-13T10:22:11.000Z</time>
      </trkpt>
      <trkpt lat="42.14537" lon="1.88911">
        <ele>919</ele>
        <time>2018-11-13T10:22:12.000Z</time>
      </trkpt>
      <trkpt lat="42.14539" lon="1.8891">
        <ele>919</ele>
        <time>2018-11-13T10:22:13.000Z</time>
      </trkpt>
      <trkpt lat="42.14541" lon="1.88908">
        <ele>919</ele>
        <time>2018-11-13T10:22:14.000Z</time>
      </trkpt>
      <trkpt lat="42.14543" lon="1.88907">
        <ele>919</ele>
        <time>2018-11-13T10:22:15.000Z</time>
      </trkpt>
      <trkpt lat="42.14545" lon="1.88906">
        <ele>919.71323294118</ele>
        <time>2018-11-13T10:22:16.000Z</time>
      </trkpt>
      <trkpt lat="42.14547" lon="1.88904">
        <ele>920</ele>
        <time>2018-11-13T10:22:17.000Z</time>
      </trkpt>
      <trkpt lat="42.14549" lon="1.88903">
        <ele>920</ele>
        <time>2018-11-13T10:22:18.000Z</time>
      </trkpt>
      <trkpt lat="42.14551" lon="1.88901">
        <ele>919.12612145114</ele>
        <time>2018-11-13T10:22:19.000Z</time>
      </trkpt>
      <trkpt lat="42.14553" lon="1.889">
        <ele>919</ele>
        <time>2018-11-13T10:22:20.000Z</time>
      </trkpt>
      <trkpt lat="42.14555" lon="1.88899">
        <ele>919</ele>
        <time>2018-11-13T10:22:21.000Z</time>
      </trkpt>
      <trkpt lat="42.14557" lon="1.88899">
        <ele>919</ele>
        <time>2018-11-13T10:22:22.000Z</time>
      </trkpt>
      <trkpt lat="42.1456" lon="1.88898">
        <ele>919</ele>
        <time>2018-11-13T10:22:23.000Z</time>
      </trkpt>
      <trkpt lat="42.14562" lon="1.88898">
        <ele>919</ele>
        <time>2018-11-13T10:22:24.000Z</time>
      </trkpt>
      <trkpt lat="42.14564" lon="1.88897">
        <ele>919</ele>
        <time>2018-11-13T10:22:25.000Z</time>
      </trkpt>
      <trkpt lat="42.14566" lon="1.88896">
        <ele>919</ele>
        <time>2018-11-13T10:22:26.000Z</time>
      </trkpt>
      <trkpt lat="42.14568" lon="1.88896">
        <ele>919</ele>
        <time>2018-11-13T10:22:27.000Z</time>
      </trkpt>
      <trkpt lat="42.14571" lon="1.88895">
        <ele>919</ele>
        <time>2018-11-13T10:22:28.000Z</time>
      </trkpt>
      <trkpt lat="42.14573" lon="1.88894">
        <ele>919</ele>
        <time>2018-11-13T10:22:29.000Z</time>
      </trkpt>
      <trkpt lat="42.14576" lon="1.88893">
        <ele>919</ele>
        <time>2018-11-13T10:22:30.000Z</time>
      </trkpt>
      <trkpt lat="42.14578" lon="1.88893">
        <ele>918.0300032</ele>
        <time>2018-11-13T10:22:31.000Z</time>
      </trkpt>
      <trkpt lat="42.14581" lon="1.88892">
        <ele>918</ele>
        <time>2018-11-13T10:22:32.000Z</time>
      </trkpt>
      <trkpt lat="42.14583" lon="1.88892">
        <ele>918</ele>
        <time>2018-11-13T10:22:33.000Z</time>
      </trkpt>
      <trkpt lat="42.14586" lon="1.88892">
        <ele>918</ele>
        <time>2018-11-13T10:22:34.000Z</time>
      </trkpt>
      <trkpt lat="42.14588" lon="1.88892">
        <ele>918</ele>
        <time>2018-11-13T10:22:35.000Z</time>
      </trkpt>
      <trkpt lat="42.1459" lon="1.88893">
        <ele>917.08956136329</ele>
        <time>2018-11-13T10:22:36.000Z</time>
      </trkpt>
      <trkpt lat="42.14592" lon="1.88893">
        <ele>917</ele>
        <time>2018-11-13T10:22:37.000Z</time>
      </trkpt>
      <trkpt lat="42.14594" lon="1.88893">
        <ele>916.10185481482</ele>
        <time>2018-11-13T10:22:38.000Z</time>
      </trkpt>
      <trkpt lat="42.14597" lon="1.88893">
        <ele>916</ele>
        <time>2018-11-13T10:22:39.000Z</time>
      </trkpt>
      <trkpt lat="42.14599" lon="1.88893">
        <ele>916</ele>
        <time>2018-11-13T10:22:40.000Z</time>
      </trkpt>
      <trkpt lat="42.14602" lon="1.88892">
        <ele>916</ele>
        <time>2018-11-13T10:22:41.000Z</time>
      </trkpt>
      <trkpt lat="42.14604" lon="1.88892">
        <ele>916</ele>
        <time>2018-11-13T10:22:42.000Z</time>
      </trkpt>
      <trkpt lat="42.14607" lon="1.88892">
        <ele>916</ele>
        <time>2018-11-13T10:22:43.000Z</time>
      </trkpt>
      <trkpt lat="42.14609" lon="1.88892">
        <ele>915.10185481482</ele>
        <time>2018-11-13T10:22:44.000Z</time>
      </trkpt>
      <trkpt lat="42.14612" lon="1.88891">
        <ele>915</ele>
        <time>2018-11-13T10:22:45.000Z</time>
      </trkpt>
      <trkpt lat="42.14614" lon="1.88891">
        <ele>915</ele>
        <time>2018-11-13T10:22:46.000Z</time>
      </trkpt>
      <trkpt lat="42.14617" lon="1.8889">
        <ele>915</ele>
        <time>2018-11-13T10:22:47.000Z</time>
      </trkpt>
      <trkpt lat="42.14619" lon="1.88889">
        <ele>915</ele>
        <time>2018-11-13T10:22:48.000Z</time>
      </trkpt>
      <trkpt lat="42.14622" lon="1.88889">
        <ele>915</ele>
        <time>2018-11-13T10:22:49.000Z</time>
      </trkpt>
      <trkpt lat="42.14624" lon="1.88889">
        <ele>915</ele>
        <time>2018-11-13T10:22:50.000Z</time>
      </trkpt>
      <trkpt lat="42.14627" lon="1.88888">
        <ele>915</ele>
        <time>2018-11-13T10:22:51.000Z</time>
      </trkpt>
      <trkpt lat="42.14629" lon="1.88889">
        <ele>915</ele>
        <time>2018-11-13T10:22:52.000Z</time>
      </trkpt>
      <trkpt lat="42.14632" lon="1.88889">
        <ele>915</ele>
        <time>2018-11-13T10:22:53.000Z</time>
      </trkpt>
      <trkpt lat="42.14634" lon="1.88888">
        <ele>915</ele>
        <time>2018-11-13T10:22:54.000Z</time>
      </trkpt>
      <trkpt lat="42.14636" lon="1.88888">
        <ele>914.04286132241</ele>
        <time>2018-11-13T10:22:55.000Z</time>
      </trkpt>
      <trkpt lat="42.14639" lon="1.88888">
        <ele>914</ele>
        <time>2018-11-13T10:22:56.000Z</time>
      </trkpt>
      <trkpt lat="42.14641" lon="1.88887">
        <ele>914</ele>
        <time>2018-11-13T10:22:57.000Z</time>
      </trkpt>
      <trkpt lat="42.14644" lon="1.88887">
        <ele>914</ele>
        <time>2018-11-13T10:22:58.000Z</time>
      </trkpt>
      <trkpt lat="42.14646" lon="1.88887">
        <ele>914</ele>
        <time>2018-11-13T10:22:59.000Z</time>
      </trkpt>
      <trkpt lat="42.14649" lon="1.88886">
        <ele>914</ele>
        <time>2018-11-13T10:23:00.000Z</time>
      </trkpt>
      <trkpt lat="42.14651" lon="1.88885">
        <ele>914</ele>
        <time>2018-11-13T10:23:01.000Z</time>
      </trkpt>
      <trkpt lat="42.14653" lon="1.88884">
        <ele>914</ele>
        <time>2018-11-13T10:23:02.000Z</time>
      </trkpt>
      <trkpt lat="42.14655" lon="1.88883">
        <ele>914</ele>
        <time>2018-11-13T10:23:03.000Z</time>
      </trkpt>
      <trkpt lat="42.14658" lon="1.88882">
        <ele>913.03125333333</ele>
        <time>2018-11-13T10:23:04.000Z</time>
      </trkpt>
      <trkpt lat="42.1466" lon="1.88882">
        <ele>913</ele>
        <time>2018-11-13T10:23:05.000Z</time>
      </trkpt>
      <trkpt lat="42.14662" lon="1.88881">
        <ele>913</ele>
        <time>2018-11-13T10:23:06.000Z</time>
      </trkpt>
      <trkpt lat="42.14664" lon="1.88881">
        <ele>913</ele>
        <time>2018-11-13T10:23:07.000Z</time>
      </trkpt>
      <trkpt lat="42.14666" lon="1.88881">
        <ele>912.04348310021</ele>
        <time>2018-11-13T10:23:08.000Z</time>
      </trkpt>
      <trkpt lat="42.14668" lon="1.8888">
        <ele>912</ele>
        <time>2018-11-13T10:23:09.000Z</time>
      </trkpt>
      <trkpt lat="42.14671" lon="1.8888">
        <ele>912</ele>
        <time>2018-11-13T10:23:10.000Z</time>
      </trkpt>
      <trkpt lat="42.14673" lon="1.88879">
        <ele>912</ele>
        <time>2018-11-13T10:23:11.000Z</time>
      </trkpt>
      <trkpt lat="42.14675" lon="1.88879">
        <ele>912</ele>
        <time>2018-11-13T10:23:12.000Z</time>
      </trkpt>
      <trkpt lat="42.14677" lon="1.88878">
        <ele>912</ele>
        <time>2018-11-13T10:23:13.000Z</time>
      </trkpt>
      <trkpt lat="42.14679" lon="1.88877">
        <ele>912</ele>
        <time>2018-11-13T10:23:14.000Z</time>
      </trkpt>
      <trkpt lat="42.14681" lon="1.88876">
        <ele>912</ele>
        <time>2018-11-13T10:23:15.000Z</time>
      </trkpt>
      <trkpt lat="42.14683" lon="1.88876">
        <ele>912</ele>
        <time>2018-11-13T10:23:16.000Z</time>
      </trkpt>
      <trkpt lat="42.14685" lon="1.88874">
        <ele>911.03371158188</ele>
        <time>2018-11-13T10:23:17.000Z</time>
      </trkpt>
      <trkpt lat="42.14687" lon="1.88874">
        <ele>911</ele>
        <time>2018-11-13T10:23:18.000Z</time>
      </trkpt>
      <trkpt lat="42.14689" lon="1.88873">
        <ele>910.12612145114</ele>
        <time>2018-11-13T10:23:19.000Z</time>
      </trkpt>
      <trkpt lat="42.14691" lon="1.88872">
        <ele>910</ele>
        <time>2018-11-13T10:23:20.000Z</time>
      </trkpt>
      <trkpt lat="42.14693" lon="1.88871">
        <ele>910</ele>
        <time>2018-11-13T10:23:21.000Z</time>
      </trkpt>
      <trkpt lat="42.14695" lon="1.88871">
        <ele>910.88182040332</ele>
        <time>2018-11-13T10:23:22.000Z</time>
      </trkpt>
      <trkpt lat="42.14697" lon="1.8887">
        <ele>911</ele>
        <time>2018-11-13T10:23:23.000Z</time>
      </trkpt>
      <trkpt lat="42.147" lon="1.8887">
        <ele>910.0300032</ele>
        <time>2018-11-13T10:23:24.000Z</time>
      </trkpt>
      <trkpt lat="42.14702" lon="1.8887">
        <ele>910</ele>
        <time>2018-11-13T10:23:25.000Z</time>
      </trkpt>
      <trkpt lat="42.14704" lon="1.8887">
        <ele>910</ele>
        <time>2018-11-13T10:23:26.000Z</time>
      </trkpt>
      <trkpt lat="42.14706" lon="1.8887">
        <ele>910</ele>
        <time>2018-11-13T10:23:27.000Z</time>
      </trkpt>
      <trkpt lat="42.14708" lon="1.8887">
        <ele>910</ele>
        <time>2018-11-13T10:23:28.000Z</time>
      </trkpt>
      <trkpt lat="42.1471" lon="1.8887">
        <ele>910</ele>
        <time>2018-11-13T10:23:29.000Z</time>
      </trkpt>
      <trkpt lat="42.14713" lon="1.8887">
        <ele>909.2595390012</ele>
        <time>2018-11-13T10:23:30.000Z</time>
      </trkpt>
      <trkpt lat="42.14716" lon="1.88871">
        <ele>909</ele>
        <time>2018-11-13T10:23:31.000Z</time>
      </trkpt>
      <trkpt lat="42.14718" lon="1.88871">
        <ele>909</ele>
        <time>2018-11-13T10:23:32.000Z</time>
      </trkpt>
      <trkpt lat="42.14721" lon="1.88871">
        <ele>908.04286132241</ele>
        <time>2018-11-13T10:23:33.000Z</time>
      </trkpt>
      <trkpt lat="42.14724" lon="1.88871">
        <ele>908</ele>
        <time>2018-11-13T10:23:34.000Z</time>
      </trkpt>
      <trkpt lat="42.14726" lon="1.88871">
        <ele>908</ele>
        <time>2018-11-13T10:23:35.000Z</time>
      </trkpt>
      <trkpt lat="42.14729" lon="1.8887">
        <ele>907.0300032</ele>
        <time>2018-11-13T10:23:36.000Z</time>
      </trkpt>
      <trkpt lat="42.14731" lon="1.88869">
        <ele>907</ele>
        <time>2018-11-13T10:23:37.000Z</time>
      </trkpt>
      <trkpt lat="42.14734" lon="1.88869">
        <ele>906.06731076923</ele>
        <time>2018-11-13T10:23:38.000Z</time>
      </trkpt>
      <trkpt lat="42.14736" lon="1.88869">
        <ele>906</ele>
        <time>2018-11-13T10:23:39.000Z</time>
      </trkpt>
      <trkpt lat="42.14739" lon="1.88869">
        <ele>906</ele>
        <time>2018-11-13T10:23:40.000Z</time>
      </trkpt>
      <trkpt lat="42.14741" lon="1.88868">
        <ele>906</ele>
        <time>2018-11-13T10:23:41.000Z</time>
      </trkpt>
      <trkpt lat="42.14743" lon="1.88867">
        <ele>906</ele>
        <time>2018-11-13T10:23:42.000Z</time>
      </trkpt>
      <trkpt lat="42.14745" lon="1.88865">
        <ele>906</ele>
        <time>2018-11-13T10:23:43.000Z</time>
      </trkpt>
      <trkpt lat="42.14747" lon="1.88864">
        <ele>906</ele>
        <time>2018-11-13T10:23:44.000Z</time>
      </trkpt>
      <trkpt lat="42.14749" lon="1.88863">
        <ele>906</ele>
        <time>2018-11-13T10:23:45.000Z</time>
      </trkpt>
      <trkpt lat="42.14751" lon="1.88861">
        <ele>905.0300032</ele>
        <time>2018-11-13T10:23:46.000Z</time>
      </trkpt>
      <trkpt lat="42.14753" lon="1.88859">
        <ele>905</ele>
        <time>2018-11-13T10:23:47.000Z</time>
      </trkpt>
      <trkpt lat="42.14755" lon="1.88857">
        <ele>904.0309308279</ele>
        <time>2018-11-13T10:23:48.000Z</time>
      </trkpt>
      <trkpt lat="42.14757" lon="1.88854">
        <ele>904</ele>
        <time>2018-11-13T10:23:49.000Z</time>
      </trkpt>
      <trkpt lat="42.14759" lon="1.88852">
        <ele>904</ele>
        <time>2018-11-13T10:23:50.000Z</time>
      </trkpt>
      <trkpt lat="42.1476" lon="1.8885">
        <ele>904</ele>
        <time>2018-11-13T10:23:51.000Z</time>
      </trkpt>
      <trkpt lat="42.14761" lon="1.88847">
        <ele>904</ele>
        <time>2018-11-13T10:23:52.000Z</time>
      </trkpt>
      <trkpt lat="42.14763" lon="1.88846">
        <ele>904</ele>
        <time>2018-11-13T10:23:53.000Z</time>
      </trkpt>
      <trkpt lat="42.14765" lon="1.88845">
        <ele>904</ele>
        <time>2018-11-13T10:23:54.000Z</time>
      </trkpt>
      <trkpt lat="42.14767" lon="1.88843">
        <ele>904</ele>
        <time>2018-11-13T10:23:55.000Z</time>
      </trkpt>
      <trkpt lat="42.14769" lon="1.88842">
        <ele>904</ele>
        <time>2018-11-13T10:23:56.000Z</time>
      </trkpt>
      <trkpt lat="42.1477" lon="1.8884">
        <ele>904</ele>
        <time>2018-11-13T10:23:57.000Z</time>
      </trkpt>
      <trkpt lat="42.14772" lon="1.88839">
        <ele>904</ele>
        <time>2018-11-13T10:23:58.000Z</time>
      </trkpt>
      <trkpt lat="42.14774" lon="1.88837">
        <ele>904</ele>
        <time>2018-11-13T10:23:59.000Z</time>
      </trkpt>
      <trkpt lat="42.14776" lon="1.88836">
        <ele>904</ele>
        <time>2018-11-13T10:24:00.000Z</time>
      </trkpt>
      <trkpt lat="42.14779" lon="1.88836">
        <ele>904</ele>
        <time>2018-11-13T10:24:01.000Z</time>
      </trkpt>
      <trkpt lat="42.14781" lon="1.88836">
        <ele>904</ele>
        <time>2018-11-13T10:24:02.000Z</time>
      </trkpt>
      <trkpt lat="42.14784" lon="1.88835">
        <ele>903.07619070839</ele>
        <time>2018-11-13T10:24:03.000Z</time>
      </trkpt>
      <trkpt lat="42.14786" lon="1.88835">
        <ele>903</ele>
        <time>2018-11-13T10:24:04.000Z</time>
      </trkpt>
      <trkpt lat="42.14789" lon="1.88834">
        <ele>903</ele>
        <time>2018-11-13T10:24:05.000Z</time>
      </trkpt>
      <trkpt lat="42.14792" lon="1.88833">
        <ele>903</ele>
        <time>2018-11-13T10:24:06.000Z</time>
      </trkpt>
      <trkpt lat="42.14795" lon="1.88833">
        <ele>902.03158220941</ele>
        <time>2018-11-13T10:24:07.000Z</time>
      </trkpt>
      <trkpt lat="42.14797" lon="1.88832">
        <ele>902</ele>
        <time>2018-11-13T10:24:08.000Z</time>
      </trkpt>
      <trkpt lat="42.14799" lon="1.88832">
        <ele>902</ele>
        <time>2018-11-13T10:24:09.000Z</time>
      </trkpt>
      <trkpt lat="42.14802" lon="1.88831">
        <ele>902</ele>
        <time>2018-11-13T10:24:10.000Z</time>
      </trkpt>
      <trkpt lat="42.14805" lon="1.8883">
        <ele>902</ele>
        <time>2018-11-13T10:24:11.000Z</time>
      </trkpt>
      <trkpt lat="42.14807" lon="1.8883">
        <ele>902</ele>
        <time>2018-11-13T10:24:12.000Z</time>
      </trkpt>
      <trkpt lat="42.1481" lon="1.8883">
        <ele>901.0300032</ele>
        <time>2018-11-13T10:24:13.000Z</time>
      </trkpt>
      <trkpt lat="42.14813" lon="1.8883">
        <ele>901</ele>
        <time>2018-11-13T10:24:14.000Z</time>
      </trkpt>
      <trkpt lat="42.14815" lon="1.88829">
        <ele>901</ele>
        <time>2018-11-13T10:24:15.000Z</time>
      </trkpt>
      <trkpt lat="42.14817" lon="1.88829">
        <ele>901</ele>
        <time>2018-11-13T10:24:16.000Z</time>
      </trkpt>
      <trkpt lat="42.1482" lon="1.8883">
        <ele>901</ele>
        <time>2018-11-13T10:24:17.000Z</time>
      </trkpt>
      <trkpt lat="42.14822" lon="1.8883">
        <ele>901</ele>
        <time>2018-11-13T10:24:18.000Z</time>
      </trkpt>
      <trkpt lat="42.14825" lon="1.88831">
        <ele>900.0300032</ele>
        <time>2018-11-13T10:24:19.000Z</time>
      </trkpt>
      <trkpt lat="42.14827" lon="1.88831">
        <ele>900</ele>
        <time>2018-11-13T10:24:20.000Z</time>
      </trkpt>
      <trkpt lat="42.14829" lon="1.88832">
        <ele>900</ele>
        <time>2018-11-13T10:24:21.000Z</time>
      </trkpt>
      <trkpt lat="42.14832" lon="1.88833">
        <ele>900</ele>
        <time>2018-11-13T10:24:22.000Z</time>
      </trkpt>
      <trkpt lat="42.14834" lon="1.88835">
        <ele>900</ele>
        <time>2018-11-13T10:24:23.000Z</time>
      </trkpt>
      <trkpt lat="42.14836" lon="1.88836">
        <ele>900</ele>
        <time>2018-11-13T10:24:24.000Z</time>
      </trkpt>
      <trkpt lat="42.14838" lon="1.88837">
        <ele>899.2919714849</ele>
        <time>2018-11-13T10:24:25.000Z</time>
      </trkpt>
      <trkpt lat="42.1484" lon="1.88838">
        <ele>899</ele>
        <time>2018-11-13T10:24:26.000Z</time>
      </trkpt>
      <trkpt lat="42.14842" lon="1.88839">
        <ele>899</ele>
        <time>2018-11-13T10:24:27.000Z</time>
      </trkpt>
      <trkpt lat="42.14844" lon="1.88841">
        <ele>899</ele>
        <time>2018-11-13T10:24:28.000Z</time>
      </trkpt>
      <trkpt lat="42.14846" lon="1.88842">
        <ele>899</ele>
        <time>2018-11-13T10:24:29.000Z</time>
      </trkpt>
      <trkpt lat="42.14848" lon="1.88842">
        <ele>899</ele>
        <time>2018-11-13T10:24:30.000Z</time>
      </trkpt>
      <trkpt lat="42.1485" lon="1.88843">
        <ele>899</ele>
        <time>2018-11-13T10:24:31.000Z</time>
      </trkpt>
      <trkpt lat="42.14852" lon="1.88844">
        <ele>899</ele>
        <time>2018-11-13T10:24:32.000Z</time>
      </trkpt>
      <trkpt lat="42.14855" lon="1.88845">
        <ele>899</ele>
        <time>2018-11-13T10:24:33.000Z</time>
      </trkpt>
      <trkpt lat="42.14857" lon="1.88847">
        <ele>899</ele>
        <time>2018-11-13T10:24:34.000Z</time>
      </trkpt>
      <trkpt lat="42.1486" lon="1.88849">
        <ele>899</ele>
        <time>2018-11-13T10:24:35.000Z</time>
      </trkpt>
      <trkpt lat="42.14863" lon="1.88852">
        <ele>899</ele>
        <time>2018-11-13T10:24:36.000Z</time>
      </trkpt>
      <trkpt lat="42.14865" lon="1.88854">
        <ele>899</ele>
        <time>2018-11-13T10:24:37.000Z</time>
      </trkpt>
      <trkpt lat="42.14868" lon="1.88857">
        <ele>898.0300032</ele>
        <time>2018-11-13T10:24:38.000Z</time>
      </trkpt>
      <trkpt lat="42.1487" lon="1.88859">
        <ele>898</ele>
        <time>2018-11-13T10:24:39.000Z</time>
      </trkpt>
      <trkpt lat="42.14873" lon="1.8886">
        <ele>898</ele>
        <time>2018-11-13T10:24:40.000Z</time>
      </trkpt>
      <trkpt lat="42.14874" lon="1.88862">
        <ele>897.0300032</ele>
        <time>2018-11-13T10:24:41.000Z</time>
      </trkpt>
      <trkpt lat="42.14876" lon="1.88863">
        <ele>897</ele>
        <time>2018-11-13T10:24:42.000Z</time>
      </trkpt>
      <trkpt lat="42.14878" lon="1.88864">
        <ele>897</ele>
        <time>2018-11-13T10:24:43.000Z</time>
      </trkpt>
      <trkpt lat="42.1488" lon="1.88866">
        <ele>897</ele>
        <time>2018-11-13T10:24:44.000Z</time>
      </trkpt>
      <trkpt lat="42.14882" lon="1.88868">
        <ele>897</ele>
        <time>2018-11-13T10:24:45.000Z</time>
      </trkpt>
      <trkpt lat="42.14884" lon="1.88868">
        <ele>897</ele>
        <time>2018-11-13T10:24:46.000Z</time>
      </trkpt>
      <trkpt lat="42.14887" lon="1.8887">
        <ele>896.0300032</ele>
        <time>2018-11-13T10:24:47.000Z</time>
      </trkpt>
      <trkpt lat="42.14889" lon="1.88871">
        <ele>896</ele>
        <time>2018-11-13T10:24:48.000Z</time>
      </trkpt>
      <trkpt lat="42.14892" lon="1.88872">
        <ele>896</ele>
        <time>2018-11-13T10:24:49.000Z</time>
      </trkpt>
      <trkpt lat="42.14894" lon="1.88872">
        <ele>896</ele>
        <time>2018-11-13T10:24:50.000Z</time>
      </trkpt>
      <trkpt lat="42.14897" lon="1.88872">
        <ele>895.29710050829</ele>
        <time>2018-11-13T10:24:51.000Z</time>
      </trkpt>
      <trkpt lat="42.149" lon="1.88872">
        <ele>894.04839175854</ele>
        <time>2018-11-13T10:24:52.000Z</time>
      </trkpt>
      <trkpt lat="42.14902" lon="1.88872">
        <ele>894.9699968</ele>
        <time>2018-11-13T10:24:53.000Z</time>
      </trkpt>
      <trkpt lat="42.14904" lon="1.88871">
        <ele>895</ele>
        <time>2018-11-13T10:24:54.000Z</time>
      </trkpt>
      <trkpt lat="42.14906" lon="1.88869">
        <ele>895</ele>
        <time>2018-11-13T10:24:55.000Z</time>
      </trkpt>
      <trkpt lat="42.14908" lon="1.88869">
        <ele>895</ele>
        <time>2018-11-13T10:24:56.000Z</time>
      </trkpt>
      <trkpt lat="42.1491" lon="1.88867">
        <ele>895</ele>
        <time>2018-11-13T10:24:58.000Z</time>
      </trkpt>
      <trkpt lat="42.14913" lon="1.88865">
        <ele>895</ele>
        <time>2018-11-13T10:25:00.000Z</time>
      </trkpt>
      <trkpt lat="42.14915" lon="1.88863">
        <ele>895</ele>
        <time>2018-11-13T10:25:02.000Z</time>
      </trkpt>
      <trkpt lat="42.14917" lon="1.88862">
        <ele>895</ele>
        <time>2018-11-13T10:25:04.000Z</time>
      </trkpt>
      <trkpt lat="42.14919" lon="1.8886">
        <ele>896</ele>
        <time>2018-11-13T10:25:06.000Z</time>
      </trkpt>
      <trkpt lat="42.14921" lon="1.88859">
        <ele>896</ele>
        <time>2018-11-13T10:25:08.000Z</time>
      </trkpt>
      <trkpt lat="42.14921" lon="1.88857">
        <ele>897</ele>
        <time>2018-11-13T10:25:12.000Z</time>
      </trkpt>
      <trkpt lat="42.1492" lon="1.88855">
        <ele>897</ele>
        <time>2018-11-13T10:25:15.000Z</time>
      </trkpt>
      <trkpt lat="42.14919" lon="1.88853">
        <ele>896.03030616467</ele>
        <time>2018-11-13T10:25:17.000Z</time>
      </trkpt>
      <trkpt lat="42.14918" lon="1.8885">
        <ele>895.0300032</ele>
        <time>2018-11-13T10:25:19.000Z</time>
      </trkpt>
      <trkpt lat="42.14918" lon="1.88848">
        <ele>895</ele>
        <time>2018-11-13T10:25:21.000Z</time>
      </trkpt>
      <trkpt lat="42.14918" lon="1.88845">
        <ele>895</ele>
        <time>2018-11-13T10:25:23.000Z</time>
      </trkpt>
      <trkpt lat="42.14918" lon="1.88842">
        <ele>895</ele>
        <time>2018-11-13T10:25:25.000Z</time>
      </trkpt>
      <trkpt lat="42.14918" lon="1.88839">
        <ele>894.04286132241</ele>
        <time>2018-11-13T10:25:27.000Z</time>
      </trkpt>
      <trkpt lat="42.1492" lon="1.88835">
        <ele>893.08490315413</ele>
        <time>2018-11-13T10:25:29.000Z</time>
      </trkpt>
      <trkpt lat="42.1492" lon="1.88832">
        <ele>892.03191808056</ele>
        <time>2018-11-13T10:25:30.000Z</time>
      </trkpt>
      <trkpt lat="42.14921" lon="1.88829">
        <ele>892</ele>
        <time>2018-11-13T10:25:31.000Z</time>
      </trkpt>
      <trkpt lat="42.14923" lon="1.88825">
        <ele>892</ele>
        <time>2018-11-13T10:25:32.000Z</time>
      </trkpt>
      <trkpt lat="42.14924" lon="1.88822">
        <ele>892</ele>
        <time>2018-11-13T10:25:33.000Z</time>
      </trkpt>
      <trkpt lat="42.14924" lon="1.88819">
        <ele>891.06731076923</ele>
        <time>2018-11-13T10:25:34.000Z</time>
      </trkpt>
      <trkpt lat="42.14925" lon="1.88816">
        <ele>891</ele>
        <time>2018-11-13T10:25:35.000Z</time>
      </trkpt>
      <trkpt lat="42.14926" lon="1.88814">
        <ele>890.0300032</ele>
        <time>2018-11-13T10:25:36.000Z</time>
      </trkpt>
      <trkpt lat="42.14927" lon="1.88811">
        <ele>890</ele>
        <time>2018-11-13T10:25:37.000Z</time>
      </trkpt>
      <trkpt lat="42.14929" lon="1.88808">
        <ele>890</ele>
        <time>2018-11-13T10:25:38.000Z</time>
      </trkpt>
      <trkpt lat="42.1493" lon="1.88805">
        <ele>890</ele>
        <time>2018-11-13T10:25:39.000Z</time>
      </trkpt>
      <trkpt lat="42.14931" lon="1.88802">
        <ele>890</ele>
        <time>2018-11-13T10:25:40.000Z</time>
      </trkpt>
      <trkpt lat="42.14932" lon="1.88799">
        <ele>889.03125333333</ele>
        <time>2018-11-13T10:25:41.000Z</time>
      </trkpt>
      <trkpt lat="42.14932" lon="1.88796">
        <ele>889</ele>
        <time>2018-11-13T10:25:42.000Z</time>
      </trkpt>
      <trkpt lat="42.14933" lon="1.88792">
        <ele>889</ele>
        <time>2018-11-13T10:25:43.000Z</time>
      </trkpt>
      <trkpt lat="42.14934" lon="1.88789">
        <ele>889</ele>
        <time>2018-11-13T10:25:44.000Z</time>
      </trkpt>
      <trkpt lat="42.14935" lon="1.88785">
        <ele>889</ele>
        <time>2018-11-13T10:25:45.000Z</time>
      </trkpt>
      <trkpt lat="42.14936" lon="1.88782">
        <ele>889</ele>
        <time>2018-11-13T10:25:46.000Z</time>
      </trkpt>
      <trkpt lat="42.14937" lon="1.88779">
        <ele>889.9699968</ele>
        <time>2018-11-13T10:25:47.000Z</time>
      </trkpt>
      <trkpt lat="42.14938" lon="1.88775">
        <ele>890</ele>
        <time>2018-11-13T10:25:48.000Z</time>
      </trkpt>
      <trkpt lat="42.14939" lon="1.88772">
        <ele>889.03158220941</ele>
        <time>2018-11-13T10:25:49.000Z</time>
      </trkpt>
      <trkpt lat="42.1494" lon="1.88769">
        <ele>889</ele>
        <time>2018-11-13T10:25:50.000Z</time>
      </trkpt>
      <trkpt lat="42.1494" lon="1.88766">
        <ele>889</ele>
        <time>2018-11-13T10:25:51.000Z</time>
      </trkpt>
      <trkpt lat="42.14941" lon="1.88763">
        <ele>889</ele>
        <time>2018-11-13T10:25:52.000Z</time>
      </trkpt>
      <trkpt lat="42.14941" lon="1.8876">
        <ele>889</ele>
        <time>2018-11-13T10:25:53.000Z</time>
      </trkpt>
      <trkpt lat="42.14942" lon="1.88757">
        <ele>889</ele>
        <time>2018-11-13T10:25:54.000Z</time>
      </trkpt>
      <trkpt lat="42.14943" lon="1.88754">
        <ele>888.03371158188</ele>
        <time>2018-11-13T10:25:55.000Z</time>
      </trkpt>
      <trkpt lat="42.14944" lon="1.88751">
        <ele>888</ele>
        <time>2018-11-13T10:25:56.000Z</time>
      </trkpt>
      <trkpt lat="42.14945" lon="1.88748">
        <ele>887.11817959668</ele>
        <time>2018-11-13T10:25:57.000Z</time>
      </trkpt>
      <trkpt lat="42.14946" lon="1.88745">
        <ele>887</ele>
        <time>2018-11-13T10:25:58.000Z</time>
      </trkpt>
      <trkpt lat="42.14947" lon="1.88742">
        <ele>887</ele>
        <time>2018-11-13T10:25:59.000Z</time>
      </trkpt>
      <trkpt lat="42.14948" lon="1.88739">
        <ele>887</ele>
        <time>2018-11-13T10:26:00.000Z</time>
      </trkpt>
      <trkpt lat="42.14948" lon="1.88735">
        <ele>887</ele>
        <time>2018-11-13T10:26:01.000Z</time>
      </trkpt>
      <trkpt lat="42.14949" lon="1.88732">
        <ele>887</ele>
        <time>2018-11-13T10:26:02.000Z</time>
      </trkpt>
      <trkpt lat="42.14949" lon="1.88728">
        <ele>887</ele>
        <time>2018-11-13T10:26:03.000Z</time>
      </trkpt>
      <trkpt lat="42.14949" lon="1.88725">
        <ele>887</ele>
        <time>2018-11-13T10:26:04.000Z</time>
      </trkpt>
      <trkpt lat="42.1495" lon="1.88721">
        <ele>886.04348229358</ele>
        <time>2018-11-13T10:26:05.000Z</time>
      </trkpt>
      <trkpt lat="42.1495" lon="1.88718">
        <ele>886</ele>
        <time>2018-11-13T10:26:06.000Z</time>
      </trkpt>
      <trkpt lat="42.1495" lon="1.88716">
        <ele>886</ele>
        <time>2018-11-13T10:26:07.000Z</time>
      </trkpt>
      <trkpt lat="42.14951" lon="1.88712">
        <ele>886</ele>
        <time>2018-11-13T10:26:08.000Z</time>
      </trkpt>
      <trkpt lat="42.14951" lon="1.8871">
        <ele>886</ele>
        <time>2018-11-13T10:26:09.000Z</time>
      </trkpt>
      <trkpt lat="42.14952" lon="1.88706">
        <ele>885.23015735953</ele>
        <time>2018-11-13T10:26:10.000Z</time>
      </trkpt>
      <trkpt lat="42.14952" lon="1.88703">
        <ele>885</ele>
        <time>2018-11-13T10:26:11.000Z</time>
      </trkpt>
      <trkpt lat="42.14953" lon="1.887">
        <ele>885.95713867759</ele>
        <time>2018-11-13T10:26:12.000Z</time>
      </trkpt>
      <trkpt lat="42.14953" lon="1.88696">
        <ele>885.0300032</ele>
        <time>2018-11-13T10:26:13.000Z</time>
      </trkpt>
      <trkpt lat="42.14954" lon="1.88693">
        <ele>884.08490315413</ele>
        <time>2018-11-13T10:26:14.000Z</time>
      </trkpt>
      <trkpt lat="42.14954" lon="1.8869">
        <ele>884</ele>
        <time>2018-11-13T10:26:15.000Z</time>
      </trkpt>
      <trkpt lat="42.14955" lon="1.88687">
        <ele>884</ele>
        <time>2018-11-13T10:26:16.000Z</time>
      </trkpt>
      <trkpt lat="42.14955" lon="1.88684">
        <ele>884</ele>
        <time>2018-11-13T10:26:17.000Z</time>
      </trkpt>
      <trkpt lat="42.14955" lon="1.8868">
        <ele>884</ele>
        <time>2018-11-13T10:26:18.000Z</time>
      </trkpt>
      <trkpt lat="42.14956" lon="1.88677">
        <ele>884</ele>
        <time>2018-11-13T10:26:19.000Z</time>
      </trkpt>
      <trkpt lat="42.14957" lon="1.88673">
        <ele>884</ele>
        <time>2018-11-13T10:26:20.000Z</time>
      </trkpt>
      <trkpt lat="42.14957" lon="1.8867">
        <ele>884</ele>
        <time>2018-11-13T10:26:21.000Z</time>
      </trkpt>
      <trkpt lat="42.14958" lon="1.88666">
        <ele>884</ele>
        <time>2018-11-13T10:26:22.000Z</time>
      </trkpt>
      <trkpt lat="42.1496" lon="1.88664">
        <ele>884</ele>
        <time>2018-11-13T10:26:23.000Z</time>
      </trkpt>
      <trkpt lat="42.14961" lon="1.8866">
        <ele>884</ele>
        <time>2018-11-13T10:26:24.000Z</time>
      </trkpt>
      <trkpt lat="42.14962" lon="1.88657">
        <ele>884</ele>
        <time>2018-11-13T10:26:25.000Z</time>
      </trkpt>
      <trkpt lat="42.14963" lon="1.88653">
        <ele>884</ele>
        <time>2018-11-13T10:26:26.000Z</time>
      </trkpt>
      <trkpt lat="42.14963" lon="1.8865">
        <ele>883.03448630994</ele>
        <time>2018-11-13T10:26:27.000Z</time>
      </trkpt>
      <trkpt lat="42.14964" lon="1.88647">
        <ele>883.9699968</ele>
        <time>2018-11-13T10:26:28.000Z</time>
      </trkpt>
      <trkpt lat="42.14965" lon="1.88644">
        <ele>884</ele>
        <time>2018-11-13T10:26:29.000Z</time>
      </trkpt>
      <trkpt lat="42.14966" lon="1.88642">
        <ele>884</ele>
        <time>2018-11-13T10:26:30.000Z</time>
      </trkpt>
      <trkpt lat="42.14968" lon="1.88638">
        <ele>883</ele>
        <time>2018-11-13T10:26:32.000Z</time>
      </trkpt>
      <trkpt lat="42.14969" lon="1.88636">
        <ele>883</ele>
        <time>2018-11-13T10:26:33.000Z</time>
      </trkpt>
      <trkpt lat="42.1497" lon="1.88634">
        <ele>883</ele>
        <time>2018-11-13T10:26:34.000Z</time>
      </trkpt>
      <trkpt lat="42.14973" lon="1.88632">
        <ele>883</ele>
        <time>2018-11-13T10:26:36.000Z</time>
      </trkpt>
      <trkpt lat="42.14975" lon="1.88631">
        <ele>883</ele>
        <time>2018-11-13T10:26:37.000Z</time>
      </trkpt>
      <trkpt lat="42.14977" lon="1.88631">
        <ele>883</ele>
        <time>2018-11-13T10:26:38.000Z</time>
      </trkpt>
      <trkpt lat="42.1498" lon="1.88631">
        <ele>883</ele>
        <time>2018-11-13T10:26:39.000Z</time>
      </trkpt>
      <trkpt lat="42.14982" lon="1.88633">
        <ele>882.0309308279</ele>
        <time>2018-11-13T10:26:40.000Z</time>
      </trkpt>
      <trkpt lat="42.14984" lon="1.88635">
        <ele>882</ele>
        <time>2018-11-13T10:26:41.000Z</time>
      </trkpt>
      <trkpt lat="42.14986" lon="1.88637">
        <ele>882</ele>
        <time>2018-11-13T10:26:42.000Z</time>
      </trkpt>
      <trkpt lat="42.14988" lon="1.88639">
        <ele>882</ele>
        <time>2018-11-13T10:26:43.000Z</time>
      </trkpt>
      <trkpt lat="42.1499" lon="1.88641">
        <ele>882</ele>
        <time>2018-11-13T10:26:44.000Z</time>
      </trkpt>
      <trkpt lat="42.14992" lon="1.88642">
        <ele>881.09346364572</ele>
        <time>2018-11-13T10:26:45.000Z</time>
      </trkpt>
      <trkpt lat="42.14993" lon="1.88644">
        <ele>880.03226161638</ele>
        <time>2018-11-13T10:26:46.000Z</time>
      </trkpt>
      <trkpt lat="42.14997" lon="1.88646">
        <ele>880</ele>
        <time>2018-11-13T10:26:48.000Z</time>
      </trkpt>
      <trkpt lat="42.14998" lon="1.88648">
        <ele>880</ele>
        <time>2018-11-13T10:26:49.000Z</time>
      </trkpt>
      <trkpt lat="42.15" lon="1.8865">
        <ele>880</ele>
        <time>2018-11-13T10:26:50.000Z</time>
      </trkpt>
      <trkpt lat="42.15001" lon="1.88653">
        <ele>880</ele>
        <time>2018-11-13T10:26:51.000Z</time>
      </trkpt>
      <trkpt lat="42.15003" lon="1.88656">
        <ele>880</ele>
        <time>2018-11-13T10:26:52.000Z</time>
      </trkpt>
      <trkpt lat="42.15004" lon="1.88659">
        <ele>880</ele>
        <time>2018-11-13T10:26:53.000Z</time>
      </trkpt>
      <trkpt lat="42.15005" lon="1.88662">
        <ele>880</ele>
        <time>2018-11-13T10:26:54.000Z</time>
      </trkpt>
      <trkpt lat="42.15006" lon="1.88664">
        <ele>880</ele>
        <time>2018-11-13T10:26:55.000Z</time>
      </trkpt>
      <trkpt lat="42.15008" lon="1.88666">
        <ele>880</ele>
        <time>2018-11-13T10:26:56.000Z</time>
      </trkpt>
      <trkpt lat="42.1501" lon="1.88668">
        <ele>880</ele>
        <time>2018-11-13T10:26:57.000Z</time>
      </trkpt>
      <trkpt lat="42.15012" lon="1.88668">
        <ele>880</ele>
        <time>2018-11-13T10:26:58.000Z</time>
      </trkpt>
      <trkpt lat="42.15015" lon="1.88668">
        <ele>880</ele>
        <time>2018-11-13T10:27:00.000Z</time>
      </trkpt>
      <trkpt lat="42.15017" lon="1.88666">
        <ele>879</ele>
        <time>2018-11-13T10:27:02.000Z</time>
      </trkpt>
      <trkpt lat="42.15019" lon="1.88664">
        <ele>879.9699968</ele>
        <time>2018-11-13T10:27:04.000Z</time>
      </trkpt>
      <trkpt lat="42.15021" lon="1.88666">
        <ele>880</ele>
        <time>2018-11-13T10:27:10.000Z</time>
      </trkpt>
      <trkpt lat="42.15022" lon="1.88663">
        <ele>880</ele>
        <time>2018-11-13T10:27:19.000Z</time>
      </trkpt>
      <trkpt lat="42.15024" lon="1.8866">
        <ele>880</ele>
        <time>2018-11-13T10:27:21.000Z</time>
      </trkpt>
      <trkpt lat="42.15026" lon="1.88657">
        <ele>879.12612145114</ele>
        <time>2018-11-13T10:27:23.000Z</time>
      </trkpt>
      <trkpt lat="42.15028" lon="1.88654">
        <ele>879.9699968</ele>
        <time>2018-11-13T10:27:25.000Z</time>
      </trkpt>
      <trkpt lat="42.1503" lon="1.88652">
        <ele>880</ele>
        <time>2018-11-13T10:27:27.000Z</time>
      </trkpt>
      <trkpt lat="42.15032" lon="1.88651">
        <ele>880</ele>
        <time>2018-11-13T10:27:28.000Z</time>
      </trkpt>
      <trkpt lat="42.15034" lon="1.8865">
        <ele>880</ele>
        <time>2018-11-13T10:27:29.000Z</time>
      </trkpt>
      <trkpt lat="42.15036" lon="1.88649">
        <ele>880</ele>
        <time>2018-11-13T10:27:30.000Z</time>
      </trkpt>
      <trkpt lat="42.15037" lon="1.88647">
        <ele>880</ele>
        <time>2018-11-13T10:27:31.000Z</time>
      </trkpt>
      <trkpt lat="42.15039" lon="1.88645">
        <ele>880</ele>
        <time>2018-11-13T10:27:32.000Z</time>
      </trkpt>
      <trkpt lat="42.15041" lon="1.88643">
        <ele>880</ele>
        <time>2018-11-13T10:27:33.000Z</time>
      </trkpt>
      <trkpt lat="42.15043" lon="1.88641">
        <ele>880</ele>
        <time>2018-11-13T10:27:34.000Z</time>
      </trkpt>
      <trkpt lat="42.15045" lon="1.88639">
        <ele>880</ele>
        <time>2018-11-13T10:27:35.000Z</time>
      </trkpt>
      <trkpt lat="42.15047" lon="1.88638">
        <ele>880</ele>
        <time>2018-11-13T10:27:36.000Z</time>
      </trkpt>
      <trkpt lat="42.15049" lon="1.88636">
        <ele>880</ele>
        <time>2018-11-13T10:27:37.000Z</time>
      </trkpt>
      <trkpt lat="42.15051" lon="1.88635">
        <ele>880</ele>
        <time>2018-11-13T10:27:38.000Z</time>
      </trkpt>
      <trkpt lat="42.15052" lon="1.88633">
        <ele>880</ele>
        <time>2018-11-13T10:27:39.000Z</time>
      </trkpt>
      <trkpt lat="42.15054" lon="1.88632">
        <ele>880</ele>
        <time>2018-11-13T10:27:40.000Z</time>
      </trkpt>
      <trkpt lat="42.15056" lon="1.8863">
        <ele>880</ele>
        <time>2018-11-13T10:27:41.000Z</time>
      </trkpt>
      <trkpt lat="42.15058" lon="1.88629">
        <ele>880</ele>
        <time>2018-11-13T10:27:42.000Z</time>
      </trkpt>
      <trkpt lat="42.1506" lon="1.88627">
        <ele>880</ele>
        <time>2018-11-13T10:27:43.000Z</time>
      </trkpt>
      <trkpt lat="42.15062" lon="1.88626">
        <ele>880</ele>
        <time>2018-11-13T10:27:44.000Z</time>
      </trkpt>
      <trkpt lat="42.15064" lon="1.88624">
        <ele>879.05824675648</ele>
        <time>2018-11-13T10:27:45.000Z</time>
      </trkpt>
      <trkpt lat="42.15066" lon="1.88623">
        <ele>879</ele>
        <time>2018-11-13T10:27:46.000Z</time>
      </trkpt>
      <trkpt lat="42.15069" lon="1.88621">
        <ele>879</ele>
        <time>2018-11-13T10:27:47.000Z</time>
      </trkpt>
      <trkpt lat="42.15072" lon="1.8862">
        <ele>879</ele>
        <time>2018-11-13T10:27:48.000Z</time>
      </trkpt>
      <trkpt lat="42.15074" lon="1.88619">
        <ele>878.07245946648</ele>
        <time>2018-11-13T10:27:49.000Z</time>
      </trkpt>
      <trkpt lat="42.15077" lon="1.88618">
        <ele>878</ele>
        <time>2018-11-13T10:27:50.000Z</time>
      </trkpt>
      <trkpt lat="42.15079" lon="1.88618">
        <ele>878</ele>
        <time>2018-11-13T10:27:51.000Z</time>
      </trkpt>
      <trkpt lat="42.15082" lon="1.88616">
        <ele>878</ele>
        <time>2018-11-13T10:27:52.000Z</time>
      </trkpt>
      <trkpt lat="42.15084" lon="1.88615">
        <ele>878</ele>
        <time>2018-11-13T10:27:53.000Z</time>
      </trkpt>
      <trkpt lat="42.15086" lon="1.88614">
        <ele>878</ele>
        <time>2018-11-13T10:27:54.000Z</time>
      </trkpt>
      <trkpt lat="42.15089" lon="1.88613">
        <ele>878</ele>
        <time>2018-11-13T10:27:55.000Z</time>
      </trkpt>
      <trkpt lat="42.15091" lon="1.88611">
        <ele>878</ele>
        <time>2018-11-13T10:27:56.000Z</time>
      </trkpt>
      <trkpt lat="42.15093" lon="1.88609">
        <ele>878</ele>
        <time>2018-11-13T10:27:57.000Z</time>
      </trkpt>
      <trkpt lat="42.15095" lon="1.88607">
        <ele>878</ele>
        <time>2018-11-13T10:27:58.000Z</time>
      </trkpt>
      <trkpt lat="42.15097" lon="1.88604">
        <ele>878</ele>
        <time>2018-11-13T10:27:59.000Z</time>
      </trkpt>
      <trkpt lat="42.15098" lon="1.88601">
        <ele>878</ele>
        <time>2018-11-13T10:28:00.000Z</time>
      </trkpt>
      <trkpt lat="42.151" lon="1.88598">
        <ele>878</ele>
        <time>2018-11-13T10:28:01.000Z</time>
      </trkpt>
      <trkpt lat="42.15101" lon="1.88596">
        <ele>878</ele>
        <time>2018-11-13T10:28:02.000Z</time>
      </trkpt>
      <trkpt lat="42.15103" lon="1.88594">
        <ele>877.13393142857</ele>
        <time>2018-11-13T10:28:03.000Z</time>
      </trkpt>
      <trkpt lat="42.15105" lon="1.88591">
        <ele>877.96590545455</ele>
        <time>2018-11-13T10:28:04.000Z</time>
      </trkpt>
      <trkpt lat="42.15106" lon="1.88589">
        <ele>878</ele>
        <time>2018-11-13T10:28:05.000Z</time>
      </trkpt>
      <trkpt lat="42.15108" lon="1.88587">
        <ele>878</ele>
        <time>2018-11-13T10:28:06.000Z</time>
      </trkpt>
      <trkpt lat="42.1511" lon="1.88585">
        <ele>878</ele>
        <time>2018-11-13T10:28:07.000Z</time>
      </trkpt>
      <trkpt lat="42.15112" lon="1.88584">
        <ele>878</ele>
        <time>2018-11-13T10:28:08.000Z</time>
      </trkpt>
      <trkpt lat="42.15114" lon="1.88582">
        <ele>878</ele>
        <time>2018-11-13T10:28:09.000Z</time>
      </trkpt>
      <trkpt lat="42.15116" lon="1.88581">
        <ele>878</ele>
        <time>2018-11-13T10:28:10.000Z</time>
      </trkpt>
      <trkpt lat="42.15118" lon="1.88579">
        <ele>877.0300032</ele>
        <time>2018-11-13T10:28:11.000Z</time>
      </trkpt>
      <trkpt lat="42.1512" lon="1.88577">
        <ele>877</ele>
        <time>2018-11-13T10:28:12.000Z</time>
      </trkpt>
      <trkpt lat="42.15122" lon="1.88575">
        <ele>877</ele>
        <time>2018-11-13T10:28:13.000Z</time>
      </trkpt>
      <trkpt lat="42.15125" lon="1.88573">
        <ele>877</ele>
        <time>2018-11-13T10:28:14.000Z</time>
      </trkpt>
      <trkpt lat="42.15127" lon="1.88571">
        <ele>877</ele>
        <time>2018-11-13T10:28:15.000Z</time>
      </trkpt>
      <trkpt lat="42.15129" lon="1.88569">
        <ele>876.28098718939</ele>
        <time>2018-11-13T10:28:16.000Z</time>
      </trkpt>
      <trkpt lat="42.15131" lon="1.88567">
        <ele>876</ele>
        <time>2018-11-13T10:28:17.000Z</time>
      </trkpt>
      <trkpt lat="42.15133" lon="1.88565">
        <ele>876</ele>
        <time>2018-11-13T10:28:18.000Z</time>
      </trkpt>
      <trkpt lat="42.15135" lon="1.88564">
        <ele>876</ele>
        <time>2018-11-13T10:28:19.000Z</time>
      </trkpt>
      <trkpt lat="42.15137" lon="1.88562">
        <ele>876</ele>
        <time>2018-11-13T10:28:20.000Z</time>
      </trkpt>
      <trkpt lat="42.15139" lon="1.88562">
        <ele>876</ele>
        <time>2018-11-13T10:28:21.000Z</time>
      </trkpt>
      <trkpt lat="42.15142" lon="1.88561">
        <ele>876</ele>
        <time>2018-11-13T10:28:22.000Z</time>
      </trkpt>
      <trkpt lat="42.15144" lon="1.8856">
        <ele>876</ele>
        <time>2018-11-13T10:28:23.000Z</time>
      </trkpt>
      <trkpt lat="42.15146" lon="1.88559">
        <ele>875.0309308279</ele>
        <time>2018-11-13T10:28:24.000Z</time>
      </trkpt>
      <trkpt lat="42.15149" lon="1.88557">
        <ele>875</ele>
        <time>2018-11-13T10:28:25.000Z</time>
      </trkpt>
      <trkpt lat="42.15151" lon="1.88556">
        <ele>875</ele>
        <time>2018-11-13T10:28:26.000Z</time>
      </trkpt>
      <trkpt lat="42.15153" lon="1.88554">
        <ele>875</ele>
        <time>2018-11-13T10:28:27.000Z</time>
      </trkpt>
      <trkpt lat="42.15155" lon="1.88554">
        <ele>875</ele>
        <time>2018-11-13T10:28:28.000Z</time>
      </trkpt>
      <trkpt lat="42.15157" lon="1.88552">
        <ele>875</ele>
        <time>2018-11-13T10:28:29.000Z</time>
      </trkpt>
      <trkpt lat="42.15159" lon="1.88551">
        <ele>875</ele>
        <time>2018-11-13T10:28:30.000Z</time>
      </trkpt>
      <trkpt lat="42.15162" lon="1.88549">
        <ele>875</ele>
        <time>2018-11-13T10:28:31.000Z</time>
      </trkpt>
      <trkpt lat="42.15164" lon="1.88548">
        <ele>875</ele>
        <time>2018-11-13T10:28:32.000Z</time>
      </trkpt>
      <trkpt lat="42.15167" lon="1.88546">
        <ele>875</ele>
        <time>2018-11-13T10:28:33.000Z</time>
      </trkpt>
      <trkpt lat="42.15169" lon="1.88544">
        <ele>874.0300032</ele>
        <time>2018-11-13T10:28:34.000Z</time>
      </trkpt>
      <trkpt lat="42.15172" lon="1.88542">
        <ele>874</ele>
        <time>2018-11-13T10:28:35.000Z</time>
      </trkpt>
      <trkpt lat="42.15174" lon="1.8854">
        <ele>874</ele>
        <time>2018-11-13T10:28:36.000Z</time>
      </trkpt>
      <trkpt lat="42.15176" lon="1.88538">
        <ele>873.17856</ele>
        <time>2018-11-13T10:28:37.000Z</time>
      </trkpt>
      <trkpt lat="42.15178" lon="1.88536">
        <ele>873</ele>
        <time>2018-11-13T10:28:38.000Z</time>
      </trkpt>
      <trkpt lat="42.1518" lon="1.88534">
        <ele>873</ele>
        <time>2018-11-13T10:28:39.000Z</time>
      </trkpt>
      <trkpt lat="42.15183" lon="1.88532">
        <ele>872.03158220941</ele>
        <time>2018-11-13T10:28:40.000Z</time>
      </trkpt>
      <trkpt lat="42.15185" lon="1.8853">
        <ele>872</ele>
        <time>2018-11-13T10:28:41.000Z</time>
      </trkpt>
      <trkpt lat="42.15188" lon="1.88529">
        <ele>872</ele>
        <time>2018-11-13T10:28:42.000Z</time>
      </trkpt>
      <trkpt lat="42.1519" lon="1.88527">
        <ele>872</ele>
        <time>2018-11-13T10:28:43.000Z</time>
      </trkpt>
      <trkpt lat="42.15192" lon="1.88526">
        <ele>872</ele>
        <time>2018-11-13T10:28:44.000Z</time>
      </trkpt>
      <trkpt lat="42.15194" lon="1.88524">
        <ele>872</ele>
        <time>2018-11-13T10:28:45.000Z</time>
      </trkpt>
      <trkpt lat="42.15195" lon="1.88523">
        <ele>872</ele>
        <time>2018-11-13T10:28:46.000Z</time>
      </trkpt>
      <trkpt lat="42.15198" lon="1.8852">
        <ele>872</ele>
        <time>2018-11-13T10:28:48.000Z</time>
      </trkpt>
      <trkpt lat="42.15201" lon="1.88518">
        <ele>872</ele>
        <time>2018-11-13T10:28:50.000Z</time>
      </trkpt>
      <trkpt lat="42.15202" lon="1.88517">
        <ele>872</ele>
        <time>2018-11-13T10:28:51.000Z</time>
      </trkpt>
      <trkpt lat="42.15205" lon="1.88515">
        <ele>871</ele>
        <time>2018-11-13T10:28:53.000Z</time>
      </trkpt>
      <trkpt lat="42.15207" lon="1.88513">
        <ele>871</ele>
        <time>2018-11-13T10:28:54.000Z</time>
      </trkpt>
      <trkpt lat="42.1521" lon="1.88512">
        <ele>871</ele>
        <time>2018-11-13T10:28:56.000Z</time>
      </trkpt>
      <trkpt lat="42.15212" lon="1.8851">
        <ele>871</ele>
        <time>2018-11-13T10:28:58.000Z</time>
      </trkpt>
      <trkpt lat="42.15214" lon="1.88509">
        <ele>870</ele>
        <time>2018-11-13T10:29:00.000Z</time>
      </trkpt>
      <trkpt lat="42.15216" lon="1.88508">
        <ele>870.96590545455</ele>
        <time>2018-11-13T10:29:02.000Z</time>
      </trkpt>
      <trkpt lat="42.15218" lon="1.88508">
        <ele>871</ele>
        <time>2018-11-13T10:29:09.000Z</time>
      </trkpt>
      <trkpt lat="42.15221" lon="1.88506">
        <ele>871</ele>
        <time>2018-11-13T10:29:12.000Z</time>
      </trkpt>
      <trkpt lat="42.15223" lon="1.88505">
        <ele>871</ele>
        <time>2018-11-13T10:29:14.000Z</time>
      </trkpt>
      <trkpt lat="42.15225" lon="1.88503">
        <ele>871</ele>
        <time>2018-11-13T10:29:16.000Z</time>
      </trkpt>
      <trkpt lat="42.15228" lon="1.88501">
        <ele>871</ele>
        <time>2018-11-13T10:29:18.000Z</time>
      </trkpt>
      <trkpt lat="42.1523" lon="1.88499">
        <ele>871</ele>
        <time>2018-11-13T10:29:20.000Z</time>
      </trkpt>
      <trkpt lat="42.15232" lon="1.88497">
        <ele>871</ele>
        <time>2018-11-13T10:29:22.000Z</time>
      </trkpt>
      <trkpt lat="42.15234" lon="1.88494">
        <ele>871</ele>
        <time>2018-11-13T10:29:24.000Z</time>
      </trkpt>
      <trkpt lat="42.15236" lon="1.88492">
        <ele>871</ele>
        <time>2018-11-13T10:29:26.000Z</time>
      </trkpt>
      <trkpt lat="42.15239" lon="1.88491">
        <ele>871</ele>
        <time>2018-11-13T10:29:28.000Z</time>
      </trkpt>
      <trkpt lat="42.1524" lon="1.88488">
        <ele>871</ele>
        <time>2018-11-13T10:29:30.000Z</time>
      </trkpt>
      <trkpt lat="42.15243" lon="1.88486">
        <ele>871</ele>
        <time>2018-11-13T10:29:32.000Z</time>
      </trkpt>
      <trkpt lat="42.15245" lon="1.88484">
        <ele>871</ele>
        <time>2018-11-13T10:29:34.000Z</time>
      </trkpt>
      <trkpt lat="42.15246" lon="1.88482">
        <ele>871</ele>
        <time>2018-11-13T10:29:36.000Z</time>
      </trkpt>
      <trkpt lat="42.15248" lon="1.88481">
        <ele>871</ele>
        <time>2018-11-13T10:29:38.000Z</time>
      </trkpt>
      <trkpt lat="42.1525" lon="1.8848">
        <ele>871</ele>
        <time>2018-11-13T10:29:40.000Z</time>
      </trkpt>
      <trkpt lat="42.15252" lon="1.88479">
        <ele>870</ele>
        <time>2018-11-13T10:29:47.000Z</time>
      </trkpt>
      <trkpt lat="42.15254" lon="1.88477">
        <ele>870</ele>
        <time>2018-11-13T10:29:49.000Z</time>
      </trkpt>
      <trkpt lat="42.15257" lon="1.88476">
        <ele>870</ele>
        <time>2018-11-13T10:29:51.000Z</time>
      </trkpt>
      <trkpt lat="42.15259" lon="1.88474">
        <ele>870</ele>
        <time>2018-11-13T10:29:53.000Z</time>
      </trkpt>
      <trkpt lat="42.15262" lon="1.88472">
        <ele>869.26828938331</ele>
        <time>2018-11-13T10:29:55.000Z</time>
      </trkpt>
      <trkpt lat="42.15263" lon="1.8847">
        <ele>871</ele>
        <time>2018-11-13T10:30:39.000Z</time>
      </trkpt>
      <trkpt lat="42.15265" lon="1.88468">
        <ele>870</ele>
        <time>2018-11-13T10:30:41.000Z</time>
      </trkpt>
      <trkpt lat="42.15266" lon="1.88466">
        <ele>870</ele>
        <time>2018-11-13T10:30:42.000Z</time>
      </trkpt>
      <trkpt lat="42.15268" lon="1.88465">
        <ele>869.0300032</ele>
        <time>2018-11-13T10:30:43.000Z</time>
      </trkpt>
      <trkpt lat="42.1527" lon="1.88462">
        <ele>869</ele>
        <time>2018-11-13T10:30:44.000Z</time>
      </trkpt>
      <trkpt lat="42.15272" lon="1.8846">
        <ele>869</ele>
        <time>2018-11-13T10:30:45.000Z</time>
      </trkpt>
      <trkpt lat="42.15274" lon="1.88457">
        <ele>869</ele>
        <time>2018-11-13T10:30:46.000Z</time>
      </trkpt>
      <trkpt lat="42.15276" lon="1.88455">
        <ele>869</ele>
        <time>2018-11-13T10:30:47.000Z</time>
      </trkpt>
      <trkpt lat="42.15278" lon="1.88452">
        <ele>869</ele>
        <time>2018-11-13T10:30:48.000Z</time>
      </trkpt>
      <trkpt lat="42.1528" lon="1.8845">
        <ele>869</ele>
        <time>2018-11-13T10:30:49.000Z</time>
      </trkpt>
      <trkpt lat="42.15282" lon="1.88448">
        <ele>869</ele>
        <time>2018-11-13T10:30:50.000Z</time>
      </trkpt>
      <trkpt lat="42.15284" lon="1.88446">
        <ele>869</ele>
        <time>2018-11-13T10:30:51.000Z</time>
      </trkpt>
      <trkpt lat="42.15286" lon="1.88444">
        <ele>869</ele>
        <time>2018-11-13T10:30:52.000Z</time>
      </trkpt>
      <trkpt lat="42.15288" lon="1.88442">
        <ele>868.03261217391</ele>
        <time>2018-11-13T10:30:53.000Z</time>
      </trkpt>
      <trkpt lat="42.15291" lon="1.8844">
        <ele>868</ele>
        <time>2018-11-13T10:30:54.000Z</time>
      </trkpt>
      <trkpt lat="42.15293" lon="1.88439">
        <ele>868</ele>
        <time>2018-11-13T10:30:55.000Z</time>
      </trkpt>
      <trkpt lat="42.15295" lon="1.88437">
        <ele>868</ele>
        <time>2018-11-13T10:30:56.000Z</time>
      </trkpt>
      <trkpt lat="42.15297" lon="1.88435">
        <ele>868</ele>
        <time>2018-11-13T10:30:57.000Z</time>
      </trkpt>
      <trkpt lat="42.15299" lon="1.88433">
        <ele>868</ele>
        <time>2018-11-13T10:30:58.000Z</time>
      </trkpt>
      <trkpt lat="42.15301" lon="1.88431">
        <ele>868</ele>
        <time>2018-11-13T10:30:59.000Z</time>
      </trkpt>
      <trkpt lat="42.15303" lon="1.88429">
        <ele>868</ele>
        <time>2018-11-13T10:31:00.000Z</time>
      </trkpt>
      <trkpt lat="42.15306" lon="1.88427">
        <ele>868</ele>
        <time>2018-11-13T10:31:01.000Z</time>
      </trkpt>
      <trkpt lat="42.15308" lon="1.88426">
        <ele>868</ele>
        <time>2018-11-13T10:31:02.000Z</time>
      </trkpt>
      <trkpt lat="42.1531" lon="1.88425">
        <ele>868</ele>
        <time>2018-11-13T10:31:03.000Z</time>
      </trkpt>
      <trkpt lat="42.15312" lon="1.88424">
        <ele>868</ele>
        <time>2018-11-13T10:31:04.000Z</time>
      </trkpt>
      <trkpt lat="42.15314" lon="1.88422">
        <ele>868</ele>
        <time>2018-11-13T10:31:05.000Z</time>
      </trkpt>
      <trkpt lat="42.15316" lon="1.88421">
        <ele>867.0300032</ele>
        <time>2018-11-13T10:31:06.000Z</time>
      </trkpt>
      <trkpt lat="42.15318" lon="1.8842">
        <ele>867</ele>
        <time>2018-11-13T10:31:07.000Z</time>
      </trkpt>
      <trkpt lat="42.1532" lon="1.88419">
        <ele>867</ele>
        <time>2018-11-13T10:31:08.000Z</time>
      </trkpt>
      <trkpt lat="42.15322" lon="1.88418">
        <ele>867</ele>
        <time>2018-11-13T10:31:09.000Z</time>
      </trkpt>
      <trkpt lat="42.15324" lon="1.88416">
        <ele>867</ele>
        <time>2018-11-13T10:31:10.000Z</time>
      </trkpt>
      <trkpt lat="42.15326" lon="1.88414">
        <ele>865.15238141678</ele>
        <time>2018-11-13T10:31:11.000Z</time>
      </trkpt>
      <trkpt lat="42.15328" lon="1.88411">
        <ele>865.96841779059</ele>
        <time>2018-11-13T10:31:12.000Z</time>
      </trkpt>
      <trkpt lat="42.1533" lon="1.88409">
        <ele>866</ele>
        <time>2018-11-13T10:31:13.000Z</time>
      </trkpt>
      <trkpt lat="42.15332" lon="1.88408">
        <ele>866</ele>
        <time>2018-11-13T10:31:14.000Z</time>
      </trkpt>
      <trkpt lat="42.15334" lon="1.88406">
        <ele>866</ele>
        <time>2018-11-13T10:31:15.000Z</time>
      </trkpt>
      <trkpt lat="42.15336" lon="1.88405">
        <ele>866</ele>
        <time>2018-11-13T10:31:16.000Z</time>
      </trkpt>
      <trkpt lat="42.15338" lon="1.88404">
        <ele>866</ele>
        <time>2018-11-13T10:31:17.000Z</time>
      </trkpt>
      <trkpt lat="42.15341" lon="1.88403">
        <ele>866</ele>
        <time>2018-11-13T10:31:18.000Z</time>
      </trkpt>
      <trkpt lat="42.15343" lon="1.88401">
        <ele>866</ele>
        <time>2018-11-13T10:31:19.000Z</time>
      </trkpt>
      <trkpt lat="42.15345" lon="1.884">
        <ele>866</ele>
        <time>2018-11-13T10:31:20.000Z</time>
      </trkpt>
      <trkpt lat="42.15347" lon="1.88399">
        <ele>866</ele>
        <time>2018-11-13T10:31:21.000Z</time>
      </trkpt>
      <trkpt lat="42.15349" lon="1.88398">
        <ele>866</ele>
        <time>2018-11-13T10:31:22.000Z</time>
      </trkpt>
      <trkpt lat="42.15351" lon="1.88397">
        <ele>866</ele>
        <time>2018-11-13T10:31:23.000Z</time>
      </trkpt>
      <trkpt lat="42.15354" lon="1.88395">
        <ele>866</ele>
        <time>2018-11-13T10:31:25.000Z</time>
      </trkpt>
      <trkpt lat="42.15356" lon="1.88394">
        <ele>866</ele>
        <time>2018-11-13T10:31:28.000Z</time>
      </trkpt>
      <trkpt lat="42.15357" lon="1.88392">
        <ele>865.03297043351</ele>
        <time>2018-11-13T10:31:31.000Z</time>
      </trkpt>
      <trkpt lat="42.15358" lon="1.88389">
        <ele>865</ele>
        <time>2018-11-13T10:31:33.000Z</time>
      </trkpt>
      <trkpt lat="42.15361" lon="1.88387">
        <ele>865</ele>
        <time>2018-11-13T10:31:35.000Z</time>
      </trkpt>
      <trkpt lat="42.15363" lon="1.88386">
        <ele>866</ele>
        <time>2018-11-13T10:31:37.000Z</time>
      </trkpt>
      <trkpt lat="42.15366" lon="1.88384">
        <ele>866</ele>
        <time>2018-11-13T10:31:39.000Z</time>
      </trkpt>
      <trkpt lat="42.15368" lon="1.88381">
        <ele>866</ele>
        <time>2018-11-13T10:31:41.000Z</time>
      </trkpt>
      <trkpt lat="42.1537" lon="1.88378">
        <ele>866</ele>
        <time>2018-11-13T10:31:43.000Z</time>
      </trkpt>
      <trkpt lat="42.15372" lon="1.88375">
        <ele>865.09346364572</ele>
        <time>2018-11-13T10:31:45.000Z</time>
      </trkpt>
      <trkpt lat="42.15374" lon="1.88372">
        <ele>865</ele>
        <time>2018-11-13T10:31:47.000Z</time>
      </trkpt>
      <trkpt lat="42.15377" lon="1.88369">
        <ele>865</ele>
        <time>2018-11-13T10:31:49.000Z</time>
      </trkpt>
      <trkpt lat="42.15379" lon="1.88366">
        <ele>865</ele>
        <time>2018-11-13T10:31:51.000Z</time>
      </trkpt>
      <trkpt lat="42.15382" lon="1.88363">
        <ele>865</ele>
        <time>2018-11-13T10:31:53.000Z</time>
      </trkpt>
      <trkpt lat="42.15384" lon="1.88361">
        <ele>865</ele>
        <time>2018-11-13T10:31:55.000Z</time>
      </trkpt>
      <trkpt lat="42.15387" lon="1.88358">
        <ele>864</ele>
        <time>2018-11-13T10:31:57.000Z</time>
      </trkpt>
      <trkpt lat="42.15388" lon="1.88355">
        <ele>864</ele>
        <time>2018-11-13T10:31:59.000Z</time>
      </trkpt>
      <trkpt lat="42.1539" lon="1.88352">
        <ele>864</ele>
        <time>2018-11-13T10:32:01.000Z</time>
      </trkpt>
      <trkpt lat="42.15393" lon="1.88349">
        <ele>863.0300032</ele>
        <time>2018-11-13T10:32:03.000Z</time>
      </trkpt>
      <trkpt lat="42.15395" lon="1.88347">
        <ele>863</ele>
        <time>2018-11-13T10:32:04.000Z</time>
      </trkpt>
      <trkpt lat="42.15396" lon="1.88345">
        <ele>863</ele>
        <time>2018-11-13T10:32:05.000Z</time>
      </trkpt>
      <trkpt lat="42.15398" lon="1.88342">
        <ele>863</ele>
        <time>2018-11-13T10:32:06.000Z</time>
      </trkpt>
      <trkpt lat="42.154" lon="1.8834">
        <ele>863</ele>
        <time>2018-11-13T10:32:07.000Z</time>
      </trkpt>
      <trkpt lat="42.15401" lon="1.88337">
        <ele>863</ele>
        <time>2018-11-13T10:32:08.000Z</time>
      </trkpt>
      <trkpt lat="42.15403" lon="1.88335">
        <ele>863</ele>
        <time>2018-11-13T10:32:09.000Z</time>
      </trkpt>
      <trkpt lat="42.15404" lon="1.88332">
        <ele>863</ele>
        <time>2018-11-13T10:32:10.000Z</time>
      </trkpt>
      <trkpt lat="42.15406" lon="1.88329">
        <ele>863</ele>
        <time>2018-11-13T10:32:11.000Z</time>
      </trkpt>
      <trkpt lat="42.15407" lon="1.88327">
        <ele>863</ele>
        <time>2018-11-13T10:32:12.000Z</time>
      </trkpt>
      <trkpt lat="42.15409" lon="1.88324">
        <ele>863</ele>
        <time>2018-11-13T10:32:13.000Z</time>
      </trkpt>
      <trkpt lat="42.1541" lon="1.88322">
        <ele>862.08490315413</ele>
        <time>2018-11-13T10:32:14.000Z</time>
      </trkpt>
      <trkpt lat="42.15412" lon="1.88319">
        <ele>862</ele>
        <time>2018-11-13T10:32:15.000Z</time>
      </trkpt>
      <trkpt lat="42.15413" lon="1.88316">
        <ele>862</ele>
        <time>2018-11-13T10:32:16.000Z</time>
      </trkpt>
      <trkpt lat="42.15415" lon="1.88314">
        <ele>862</ele>
        <time>2018-11-13T10:32:17.000Z</time>
      </trkpt>
      <trkpt lat="42.15416" lon="1.88311">
        <ele>862</ele>
        <time>2018-11-13T10:32:18.000Z</time>
      </trkpt>
      <trkpt lat="42.15417" lon="1.88308">
        <ele>861.0300032</ele>
        <time>2018-11-13T10:32:19.000Z</time>
      </trkpt>
      <trkpt lat="42.15419" lon="1.88305">
        <ele>861</ele>
        <time>2018-11-13T10:32:20.000Z</time>
      </trkpt>
      <trkpt lat="42.1542" lon="1.88303">
        <ele>861</ele>
        <time>2018-11-13T10:32:21.000Z</time>
      </trkpt>
      <trkpt lat="42.15422" lon="1.883">
        <ele>861</ele>
        <time>2018-11-13T10:32:22.000Z</time>
      </trkpt>
      <trkpt lat="42.15423" lon="1.88296">
        <ele>861</ele>
        <time>2018-11-13T10:32:23.000Z</time>
      </trkpt>
      <trkpt lat="42.15424" lon="1.88293">
        <ele>861</ele>
        <time>2018-11-13T10:32:24.000Z</time>
      </trkpt>
      <trkpt lat="42.15425" lon="1.8829">
        <ele>861</ele>
        <time>2018-11-13T10:32:25.000Z</time>
      </trkpt>
      <trkpt lat="42.15427" lon="1.88288">
        <ele>861</ele>
        <time>2018-11-13T10:32:26.000Z</time>
      </trkpt>
      <trkpt lat="42.15428" lon="1.88285">
        <ele>861</ele>
        <time>2018-11-13T10:32:27.000Z</time>
      </trkpt>
      <trkpt lat="42.15429" lon="1.88282">
        <ele>861</ele>
        <time>2018-11-13T10:32:28.000Z</time>
      </trkpt>
      <trkpt lat="42.15431" lon="1.88279">
        <ele>861</ele>
        <time>2018-11-13T10:32:29.000Z</time>
      </trkpt>
      <trkpt lat="42.15433" lon="1.88277">
        <ele>861</ele>
        <time>2018-11-13T10:32:30.000Z</time>
      </trkpt>
      <trkpt lat="42.15434" lon="1.88274">
        <ele>861</ele>
        <time>2018-11-13T10:32:31.000Z</time>
      </trkpt>
      <trkpt lat="42.15436" lon="1.88271">
        <ele>860.0300032</ele>
        <time>2018-11-13T10:32:32.000Z</time>
      </trkpt>
      <trkpt lat="42.15437" lon="1.88269">
        <ele>860</ele>
        <time>2018-11-13T10:32:33.000Z</time>
      </trkpt>
      <trkpt lat="42.15439" lon="1.88267">
        <ele>860</ele>
        <time>2018-11-13T10:32:34.000Z</time>
      </trkpt>
      <trkpt lat="42.15441" lon="1.88264">
        <ele>860</ele>
        <time>2018-11-13T10:32:35.000Z</time>
      </trkpt>
      <trkpt lat="42.15443" lon="1.88262">
        <ele>860</ele>
        <time>2018-11-13T10:32:36.000Z</time>
      </trkpt>
      <trkpt lat="42.15445" lon="1.88259">
        <ele>860</ele>
        <time>2018-11-13T10:32:37.000Z</time>
      </trkpt>
      <trkpt lat="42.15446" lon="1.88257">
        <ele>860</ele>
        <time>2018-11-13T10:32:38.000Z</time>
      </trkpt>
      <trkpt lat="42.15448" lon="1.88255">
        <ele>860</ele>
        <time>2018-11-13T10:32:39.000Z</time>
      </trkpt>
      <trkpt lat="42.1545" lon="1.88253">
        <ele>859.09345280107</ele>
        <time>2018-11-13T10:32:40.000Z</time>
      </trkpt>
      <trkpt lat="42.15452" lon="1.88251">
        <ele>859</ele>
        <time>2018-11-13T10:32:41.000Z</time>
      </trkpt>
      <trkpt lat="42.15454" lon="1.88249">
        <ele>859</ele>
        <time>2018-11-13T10:32:42.000Z</time>
      </trkpt>
      <trkpt lat="42.15456" lon="1.88247">
        <ele>859</ele>
        <time>2018-11-13T10:32:43.000Z</time>
      </trkpt>
      <trkpt lat="42.15458" lon="1.88246">
        <ele>859</ele>
        <time>2018-11-13T10:32:44.000Z</time>
      </trkpt>
      <trkpt lat="42.1546" lon="1.88244">
        <ele>859</ele>
        <time>2018-11-13T10:32:45.000Z</time>
      </trkpt>
      <trkpt lat="42.15462" lon="1.88242">
        <ele>858.0300032</ele>
        <time>2018-11-13T10:32:46.000Z</time>
      </trkpt>
      <trkpt lat="42.15464" lon="1.88241">
        <ele>858</ele>
        <time>2018-11-13T10:32:47.000Z</time>
      </trkpt>
      <trkpt lat="42.15467" lon="1.8824">
        <ele>858</ele>
        <time>2018-11-13T10:32:48.000Z</time>
      </trkpt>
      <trkpt lat="42.15469" lon="1.88238">
        <ele>858</ele>
        <time>2018-11-13T10:32:49.000Z</time>
      </trkpt>
      <trkpt lat="42.15471" lon="1.88237">
        <ele>857.04901677814</ele>
        <time>2018-11-13T10:32:50.000Z</time>
      </trkpt>
      <trkpt lat="42.15473" lon="1.88235">
        <ele>857</ele>
        <time>2018-11-13T10:32:51.000Z</time>
      </trkpt>
      <trkpt lat="42.15475" lon="1.88233">
        <ele>857</ele>
        <time>2018-11-13T10:32:52.000Z</time>
      </trkpt>
      <trkpt lat="42.15478" lon="1.88231">
        <ele>857</ele>
        <time>2018-11-13T10:32:53.000Z</time>
      </trkpt>
      <trkpt lat="42.1548" lon="1.88229">
        <ele>857</ele>
        <time>2018-11-13T10:32:54.000Z</time>
      </trkpt>
      <trkpt lat="42.15483" lon="1.88227">
        <ele>856.0300032</ele>
        <time>2018-11-13T10:32:55.000Z</time>
      </trkpt>
      <trkpt lat="42.15485" lon="1.88226">
        <ele>856</ele>
        <time>2018-11-13T10:32:56.000Z</time>
      </trkpt>
      <trkpt lat="42.15488" lon="1.88224">
        <ele>856</ele>
        <time>2018-11-13T10:32:57.000Z</time>
      </trkpt>
      <trkpt lat="42.1549" lon="1.88222">
        <ele>856</ele>
        <time>2018-11-13T10:32:58.000Z</time>
      </trkpt>
      <trkpt lat="42.15493" lon="1.88221">
        <ele>856</ele>
        <time>2018-11-13T10:32:59.000Z</time>
      </trkpt>
      <trkpt lat="42.15495" lon="1.88219">
        <ele>856</ele>
        <time>2018-11-13T10:33:00.000Z</time>
      </trkpt>
      <trkpt lat="42.15497" lon="1.88217">
        <ele>856</ele>
        <time>2018-11-13T10:33:01.000Z</time>
      </trkpt>
      <trkpt lat="42.155" lon="1.88216">
        <ele>856</ele>
        <time>2018-11-13T10:33:02.000Z</time>
      </trkpt>
      <trkpt lat="42.15502" lon="1.88215">
        <ele>856</ele>
        <time>2018-11-13T10:33:03.000Z</time>
      </trkpt>
      <trkpt lat="42.15504" lon="1.88214">
        <ele>856</ele>
        <time>2018-11-13T10:33:04.000Z</time>
      </trkpt>
      <trkpt lat="42.15506" lon="1.88211">
        <ele>854.20370962963</ele>
        <time>2018-11-13T10:33:05.000Z</time>
      </trkpt>
      <trkpt lat="42.15508" lon="1.88209">
        <ele>854</ele>
        <time>2018-11-13T10:33:06.000Z</time>
      </trkpt>
      <trkpt lat="42.1551" lon="1.88207">
        <ele>854</ele>
        <time>2018-11-13T10:33:07.000Z</time>
      </trkpt>
      <trkpt lat="42.15511" lon="1.88205">
        <ele>854.90654719893</ele>
        <time>2018-11-13T10:33:08.000Z</time>
      </trkpt>
      <trkpt lat="42.15514" lon="1.88202">
        <ele>855</ele>
        <time>2018-11-13T10:33:10.000Z</time>
      </trkpt>
      <trkpt lat="42.15516" lon="1.88201">
        <ele>855</ele>
        <time>2018-11-13T10:33:12.000Z</time>
      </trkpt>
      <trkpt lat="42.15518" lon="1.88199">
        <ele>855</ele>
        <time>2018-11-13T10:33:14.000Z</time>
      </trkpt>
      <trkpt lat="42.15518" lon="1.88197">
        <ele>854.03191808056</ele>
        <time>2018-11-13T10:33:18.000Z</time>
      </trkpt>
      <trkpt lat="42.15519" lon="1.88194">
        <ele>855</ele>
        <time>2018-11-13T10:33:21.000Z</time>
      </trkpt>
      <trkpt lat="42.15521" lon="1.88193">
        <ele>855</ele>
        <time>2018-11-13T10:33:34.000Z</time>
      </trkpt>
      <trkpt lat="42.15522" lon="1.8819">
        <ele>855</ele>
        <time>2018-11-13T10:33:37.000Z</time>
      </trkpt>
      <trkpt lat="42.15524" lon="1.88187">
        <ele>855</ele>
        <time>2018-11-13T10:33:40.000Z</time>
      </trkpt>
      <trkpt lat="42.15525" lon="1.88185">
        <ele>855</ele>
        <time>2018-11-13T10:33:43.000Z</time>
      </trkpt>
      <trkpt lat="42.15527" lon="1.88182">
        <ele>855</ele>
        <time>2018-11-13T10:33:46.000Z</time>
      </trkpt>
      <trkpt lat="42.15529" lon="1.88179">
        <ele>855</ele>
        <time>2018-11-13T10:33:48.000Z</time>
      </trkpt>
      <trkpt lat="42.1553" lon="1.88175">
        <ele>855</ele>
        <time>2018-11-13T10:33:50.000Z</time>
      </trkpt>
      <trkpt lat="42.15534" lon="1.88173">
        <ele>856</ele>
        <time>2018-11-13T10:33:52.000Z</time>
      </trkpt>
      <trkpt lat="42.15536" lon="1.88172">
        <ele>856</ele>
        <time>2018-11-13T10:33:53.000Z</time>
      </trkpt>
      <trkpt lat="42.15538" lon="1.88172">
        <ele>856</ele>
        <time>2018-11-13T10:33:55.000Z</time>
      </trkpt>
      <trkpt lat="42.15541" lon="1.88173">
        <ele>856</ele>
        <time>2018-11-13T10:33:57.000Z</time>
      </trkpt>
      <trkpt lat="42.15544" lon="1.88176">
        <ele>856</ele>
        <time>2018-11-13T10:33:59.000Z</time>
      </trkpt>
      <trkpt lat="42.15546" lon="1.88179">
        <ele>856</ele>
        <time>2018-11-13T10:34:01.000Z</time>
      </trkpt>
      <trkpt lat="42.15546" lon="1.88183">
        <ele>855.03371158188</ele>
        <time>2018-11-13T10:34:03.000Z</time>
      </trkpt>
      <trkpt lat="42.15548" lon="1.88187">
        <ele>856</ele>
        <time>2018-11-13T10:34:05.000Z</time>
      </trkpt>
      <trkpt lat="42.15548" lon="1.8819">
        <ele>856</ele>
        <time>2018-11-13T10:34:07.000Z</time>
      </trkpt>
      <trkpt lat="42.15549" lon="1.88194">
        <ele>855.03371158188</ele>
        <time>2018-11-13T10:34:09.000Z</time>
      </trkpt>
      <trkpt lat="42.1555" lon="1.88197">
        <ele>855</ele>
        <time>2018-11-13T10:34:11.000Z</time>
      </trkpt>
      <trkpt lat="42.15551" lon="1.88201">
        <ele>855</ele>
        <time>2018-11-13T10:34:13.000Z</time>
      </trkpt>
      <trkpt lat="42.15553" lon="1.88204">
        <ele>855</ele>
        <time>2018-11-13T10:34:15.000Z</time>
      </trkpt>
      <trkpt lat="42.15553" lon="1.88207">
        <ele>855</ele>
        <time>2018-11-13T10:34:17.000Z</time>
      </trkpt>
      <trkpt lat="42.15555" lon="1.88211">
        <ele>855</ele>
        <time>2018-11-13T10:34:19.000Z</time>
      </trkpt>
      <trkpt lat="42.15557" lon="1.88214">
        <ele>855</ele>
        <time>2018-11-13T10:34:21.000Z</time>
      </trkpt>
      <trkpt lat="42.15559" lon="1.88217">
        <ele>855</ele>
        <time>2018-11-13T10:34:23.000Z</time>
      </trkpt>
      <trkpt lat="42.15561" lon="1.88221">
        <ele>855</ele>
        <time>2018-11-13T10:34:25.000Z</time>
      </trkpt>
      <trkpt lat="42.15563" lon="1.88224">
        <ele>856</ele>
        <time>2018-11-13T10:34:27.000Z</time>
      </trkpt>
      <trkpt lat="42.15566" lon="1.88226">
        <ele>857</ele>
        <time>2018-11-13T10:34:29.000Z</time>
      </trkpt>
      <trkpt lat="42.15568" lon="1.88229">
        <ele>856</ele>
        <time>2018-11-13T10:34:31.000Z</time>
      </trkpt>
      <trkpt lat="42.15571" lon="1.88232">
        <ele>856</ele>
        <time>2018-11-13T10:34:33.000Z</time>
      </trkpt>
      <trkpt lat="42.15573" lon="1.88235">
        <ele>856</ele>
        <time>2018-11-13T10:34:35.000Z</time>
      </trkpt>
      <trkpt lat="42.15574" lon="1.88237">
        <ele>856</ele>
        <time>2018-11-13T10:34:37.000Z</time>
      </trkpt>
      <trkpt lat="42.15576" lon="1.8824">
        <ele>856</ele>
        <time>2018-11-13T10:34:39.000Z</time>
      </trkpt>
      <trkpt lat="42.15578" lon="1.88242">
        <ele>856</ele>
        <time>2018-11-13T10:34:41.000Z</time>
      </trkpt>
      <trkpt lat="42.15581" lon="1.88244">
        <ele>856</ele>
        <time>2018-11-13T10:34:43.000Z</time>
      </trkpt>
      <trkpt lat="42.15582" lon="1.88247">
        <ele>856</ele>
        <time>2018-11-13T10:34:45.000Z</time>
      </trkpt>
      <trkpt lat="42.15585" lon="1.88248">
        <ele>856</ele>
        <time>2018-11-13T10:34:47.000Z</time>
      </trkpt>
      <trkpt lat="42.15587" lon="1.88248">
        <ele>856</ele>
        <time>2018-11-13T10:34:49.000Z</time>
      </trkpt>
      <trkpt lat="42.15589" lon="1.88249">
        <ele>856</ele>
        <time>2018-11-13T10:34:51.000Z</time>
      </trkpt>
      <trkpt lat="42.15592" lon="1.88251">
        <ele>856.96738782609</ele>
        <time>2018-11-13T10:34:53.000Z</time>
      </trkpt>
      <trkpt lat="42.15594" lon="1.88254">
        <ele>857</ele>
        <time>2018-11-13T10:34:55.000Z</time>
      </trkpt>
      <trkpt lat="42.15596" lon="1.88255">
        <ele>857</ele>
        <time>2018-11-13T10:34:56.000Z</time>
      </trkpt>
      <trkpt lat="42.15598" lon="1.88258">
        <ele>857</ele>
        <time>2018-11-13T10:34:58.000Z</time>
      </trkpt>
      <trkpt lat="42.156" lon="1.8826">
        <ele>857</ele>
        <time>2018-11-13T10:34:59.000Z</time>
      </trkpt>
      <trkpt lat="42.15602" lon="1.88262">
        <ele>857</ele>
        <time>2018-11-13T10:35:00.000Z</time>
      </trkpt>
      <trkpt lat="42.15604" lon="1.88265">
        <ele>857</ele>
        <time>2018-11-13T10:35:02.000Z</time>
      </trkpt>
      <trkpt lat="42.15606" lon="1.88267">
        <ele>857</ele>
        <time>2018-11-13T10:35:03.000Z</time>
      </trkpt>
      <trkpt lat="42.15609" lon="1.8827">
        <ele>857</ele>
        <time>2018-11-13T10:35:05.000Z</time>
      </trkpt>
      <trkpt lat="42.1561" lon="1.88271">
        <ele>857</ele>
        <time>2018-11-13T10:35:06.000Z</time>
      </trkpt>
      <trkpt lat="42.15613" lon="1.88274">
        <ele>857</ele>
        <time>2018-11-13T10:35:08.000Z</time>
      </trkpt>
      <trkpt lat="42.15615" lon="1.88277">
        <ele>857</ele>
        <time>2018-11-13T10:35:10.000Z</time>
      </trkpt>
      <trkpt lat="42.15617" lon="1.88279">
        <ele>858</ele>
        <time>2018-11-13T10:35:12.000Z</time>
      </trkpt>
      <trkpt lat="42.15619" lon="1.88281">
        <ele>857</ele>
        <time>2018-11-13T10:35:14.000Z</time>
      </trkpt>
      <trkpt lat="42.15621" lon="1.88282">
        <ele>857</ele>
        <time>2018-11-13T10:35:16.000Z</time>
      </trkpt>
      <trkpt lat="42.15623" lon="1.88283">
        <ele>857</ele>
        <time>2018-11-13T10:35:19.000Z</time>
      </trkpt>
      <trkpt lat="42.15625" lon="1.88283">
        <ele>857.85840667867</ele>
        <time>2018-11-13T10:35:21.000Z</time>
      </trkpt>
      <trkpt lat="42.15628" lon="1.88284">
        <ele>858</ele>
        <time>2018-11-13T10:35:23.000Z</time>
      </trkpt>
      <trkpt lat="42.1563" lon="1.88285">
        <ele>858</ele>
        <time>2018-11-13T10:35:25.000Z</time>
      </trkpt>
      <trkpt lat="42.15633" lon="1.88286">
        <ele>858</ele>
        <time>2018-11-13T10:35:27.000Z</time>
      </trkpt>
      <trkpt lat="42.15635" lon="1.88288">
        <ele>858.74615505799</ele>
        <time>2018-11-13T10:35:29.000Z</time>
      </trkpt>
      <trkpt lat="42.15637" lon="1.88289">
        <ele>859</ele>
        <time>2018-11-13T10:35:31.000Z</time>
      </trkpt>
      <trkpt lat="42.1564" lon="1.88291">
        <ele>859</ele>
        <time>2018-11-13T10:35:33.000Z</time>
      </trkpt>
      <trkpt lat="42.15642" lon="1.88293">
        <ele>859.95713867759</ele>
        <time>2018-11-13T10:35:35.000Z</time>
      </trkpt>
      <trkpt lat="42.15645" lon="1.88295">
        <ele>860</ele>
        <time>2018-11-13T10:35:37.000Z</time>
      </trkpt>
      <trkpt lat="42.15648" lon="1.88297">
        <ele>860</ele>
        <time>2018-11-13T10:35:39.000Z</time>
      </trkpt>
      <trkpt lat="42.1565" lon="1.88298">
        <ele>860</ele>
        <time>2018-11-13T10:35:40.000Z</time>
      </trkpt>
      <trkpt lat="42.15651" lon="1.88299">
        <ele>860</ele>
        <time>2018-11-13T10:35:41.000Z</time>
      </trkpt>
      <trkpt lat="42.15655" lon="1.883">
        <ele>860</ele>
        <time>2018-11-13T10:35:43.000Z</time>
      </trkpt>
      <trkpt lat="42.15658" lon="1.883">
        <ele>860</ele>
        <time>2018-11-13T10:35:45.000Z</time>
      </trkpt>
      <trkpt lat="42.15661" lon="1.88301">
        <ele>860</ele>
        <time>2018-11-13T10:35:47.000Z</time>
      </trkpt>
      <trkpt lat="42.15663" lon="1.88302">
        <ele>860.92380929161</ele>
        <time>2018-11-13T10:35:49.000Z</time>
      </trkpt>
      <trkpt lat="42.15665" lon="1.88304">
        <ele>861</ele>
        <time>2018-11-13T10:35:51.000Z</time>
      </trkpt>
      <trkpt lat="42.15667" lon="1.88306">
        <ele>861</ele>
        <time>2018-11-13T10:35:53.000Z</time>
      </trkpt>
      <trkpt lat="42.15669" lon="1.88307">
        <ele>861</ele>
        <time>2018-11-13T10:35:55.000Z</time>
      </trkpt>
      <trkpt lat="42.15671" lon="1.88309">
        <ele>861</ele>
        <time>2018-11-13T10:35:57.000Z</time>
      </trkpt>
      <trkpt lat="42.15674" lon="1.8831">
        <ele>861</ele>
        <time>2018-11-13T10:35:59.000Z</time>
      </trkpt>
      <trkpt lat="42.15676" lon="1.88313">
        <ele>861</ele>
        <time>2018-11-13T10:36:01.000Z</time>
      </trkpt>
      <trkpt lat="42.15678" lon="1.88315">
        <ele>861</ele>
        <time>2018-11-13T10:36:02.000Z</time>
      </trkpt>
      <trkpt lat="42.15679" lon="1.88317">
        <ele>861</ele>
        <time>2018-11-13T10:36:03.000Z</time>
      </trkpt>
      <trkpt lat="42.15681" lon="1.88318">
        <ele>861</ele>
        <time>2018-11-13T10:36:04.000Z</time>
      </trkpt>
      <trkpt lat="42.15684" lon="1.88321">
        <ele>861</ele>
        <time>2018-11-13T10:36:06.000Z</time>
      </trkpt>
      <trkpt lat="42.15686" lon="1.88322">
        <ele>861</ele>
        <time>2018-11-13T10:36:07.000Z</time>
      </trkpt>
      <trkpt lat="42.15688" lon="1.88324">
        <ele>861</ele>
        <time>2018-11-13T10:36:08.000Z</time>
      </trkpt>
      <trkpt lat="42.1569" lon="1.88325">
        <ele>861</ele>
        <time>2018-11-13T10:36:09.000Z</time>
      </trkpt>
      <trkpt lat="42.15692" lon="1.88326">
        <ele>861</ele>
        <time>2018-11-13T10:36:10.000Z</time>
      </trkpt>
      <trkpt lat="42.15694" lon="1.88327">
        <ele>861</ele>
        <time>2018-11-13T10:36:11.000Z</time>
      </trkpt>
      <trkpt lat="42.15696" lon="1.88329">
        <ele>861</ele>
        <time>2018-11-13T10:36:12.000Z</time>
      </trkpt>
      <trkpt lat="42.15698" lon="1.88331">
        <ele>861</ele>
        <time>2018-11-13T10:36:14.000Z</time>
      </trkpt>
      <trkpt lat="42.15701" lon="1.88332">
        <ele>861.96628890295</ele>
        <time>2018-11-13T10:36:16.000Z</time>
      </trkpt>
      <trkpt lat="42.15704" lon="1.88334">
        <ele>862</ele>
        <time>2018-11-13T10:36:18.000Z</time>
      </trkpt>
      <trkpt lat="42.15706" lon="1.88337">
        <ele>862</ele>
        <time>2018-11-13T10:36:20.000Z</time>
      </trkpt>
      <trkpt lat="42.15709" lon="1.88339">
        <ele>862</ele>
        <time>2018-11-13T10:36:22.000Z</time>
      </trkpt>
      <trkpt lat="42.15712" lon="1.88342">
        <ele>862</ele>
        <time>2018-11-13T10:36:24.000Z</time>
      </trkpt>
      <trkpt lat="42.15714" lon="1.88344">
        <ele>862</ele>
        <time>2018-11-13T10:36:26.000Z</time>
      </trkpt>
      <trkpt lat="42.15716" lon="1.88346">
        <ele>862</ele>
        <time>2018-11-13T10:36:28.000Z</time>
      </trkpt>
      <trkpt lat="42.15718" lon="1.88347">
        <ele>862</ele>
        <time>2018-11-13T10:36:31.000Z</time>
      </trkpt>
      <trkpt lat="42.15721" lon="1.88349">
        <ele>863</ele>
        <time>2018-11-13T10:36:34.000Z</time>
      </trkpt>
      <trkpt lat="42.15723" lon="1.8835">
        <ele>863</ele>
        <time>2018-11-13T10:36:37.000Z</time>
      </trkpt>
      <trkpt lat="42.15725" lon="1.88351">
        <ele>863</ele>
        <time>2018-11-13T10:36:39.000Z</time>
      </trkpt>
      <trkpt lat="42.15727" lon="1.88353">
        <ele>863</ele>
        <time>2018-11-13T10:36:41.000Z</time>
      </trkpt>
      <trkpt lat="42.15729" lon="1.88354">
        <ele>863</ele>
        <time>2018-11-13T10:36:43.000Z</time>
      </trkpt>
      <trkpt lat="42.15731" lon="1.88356">
        <ele>863</ele>
        <time>2018-11-13T10:36:45.000Z</time>
      </trkpt>
      <trkpt lat="42.15733" lon="1.88357">
        <ele>863</ele>
        <time>2018-11-13T10:36:46.000Z</time>
      </trkpt>
      <trkpt lat="42.15735" lon="1.88358">
        <ele>863</ele>
        <time>2018-11-13T10:36:47.000Z</time>
      </trkpt>
      <trkpt lat="42.15737" lon="1.88359">
        <ele>863</ele>
        <time>2018-11-13T10:36:48.000Z</time>
      </trkpt>
      <trkpt lat="42.15738" lon="1.8836">
        <ele>863</ele>
        <time>2018-11-13T10:36:49.000Z</time>
      </trkpt>
      <trkpt lat="42.15741" lon="1.88361">
        <ele>863</ele>
        <time>2018-11-13T10:36:50.000Z</time>
      </trkpt>
      <trkpt lat="42.15742" lon="1.88362">
        <ele>863</ele>
        <time>2018-11-13T10:36:51.000Z</time>
      </trkpt>
      <trkpt lat="42.15744" lon="1.88363">
        <ele>863</ele>
        <time>2018-11-13T10:36:52.000Z</time>
      </trkpt>
      <trkpt lat="42.15746" lon="1.88364">
        <ele>863</ele>
        <time>2018-11-13T10:36:53.000Z</time>
      </trkpt>
      <trkpt lat="42.15749" lon="1.88366">
        <ele>863</ele>
        <time>2018-11-13T10:36:55.000Z</time>
      </trkpt>
      <trkpt lat="42.15751" lon="1.88367">
        <ele>863</ele>
        <time>2018-11-13T10:36:57.000Z</time>
      </trkpt>
      <trkpt lat="42.15753" lon="1.88367">
        <ele>863</ele>
        <time>2018-11-13T10:36:59.000Z</time>
      </trkpt>
      <trkpt lat="42.15756" lon="1.88369">
        <ele>862.0300032</ele>
        <time>2018-11-13T10:37:01.000Z</time>
      </trkpt>
      <trkpt lat="42.15758" lon="1.88369">
        <ele>862</ele>
        <time>2018-11-13T10:37:02.000Z</time>
      </trkpt>
      <trkpt lat="42.1576" lon="1.8837">
        <ele>862.96841779059</ele>
        <time>2018-11-13T10:37:03.000Z</time>
      </trkpt>
      <trkpt lat="42.15762" lon="1.88371">
        <ele>863</ele>
        <time>2018-11-13T10:37:04.000Z</time>
      </trkpt>
      <trkpt lat="42.15764" lon="1.88373">
        <ele>863</ele>
        <time>2018-11-13T10:37:05.000Z</time>
      </trkpt>
      <trkpt lat="42.15766" lon="1.88374">
        <ele>863</ele>
        <time>2018-11-13T10:37:06.000Z</time>
      </trkpt>
      <trkpt lat="42.15769" lon="1.88376">
        <ele>862.04286132241</ele>
        <time>2018-11-13T10:37:07.000Z</time>
      </trkpt>
      <trkpt lat="42.15771" lon="1.88377">
        <ele>862</ele>
        <time>2018-11-13T10:37:08.000Z</time>
      </trkpt>
      <trkpt lat="42.15774" lon="1.88378">
        <ele>862</ele>
        <time>2018-11-13T10:37:09.000Z</time>
      </trkpt>
      <trkpt lat="42.15776" lon="1.8838">
        <ele>862</ele>
        <time>2018-11-13T10:37:10.000Z</time>
      </trkpt>
      <trkpt lat="42.15778" lon="1.88381">
        <ele>862</ele>
        <time>2018-11-13T10:37:11.000Z</time>
      </trkpt>
      <trkpt lat="42.1578" lon="1.88382">
        <ele>862</ele>
        <time>2018-11-13T10:37:12.000Z</time>
      </trkpt>
      <trkpt lat="42.15783" lon="1.88383">
        <ele>862</ele>
        <time>2018-11-13T10:37:13.000Z</time>
      </trkpt>
      <trkpt lat="42.15785" lon="1.88384">
        <ele>862</ele>
        <time>2018-11-13T10:37:14.000Z</time>
      </trkpt>
      <trkpt lat="42.15787" lon="1.88386">
        <ele>862</ele>
        <time>2018-11-13T10:37:15.000Z</time>
      </trkpt>
      <trkpt lat="42.15789" lon="1.88387">
        <ele>862</ele>
        <time>2018-11-13T10:37:16.000Z</time>
      </trkpt>
      <trkpt lat="42.15792" lon="1.88388">
        <ele>861.0300032</ele>
        <time>2018-11-13T10:37:17.000Z</time>
      </trkpt>
      <trkpt lat="42.15794" lon="1.88389">
        <ele>861</ele>
        <time>2018-11-13T10:37:18.000Z</time>
      </trkpt>
      <trkpt lat="42.15796" lon="1.8839">
        <ele>861</ele>
        <time>2018-11-13T10:37:19.000Z</time>
      </trkpt>
      <trkpt lat="42.15799" lon="1.88391">
        <ele>861</ele>
        <time>2018-11-13T10:37:20.000Z</time>
      </trkpt>
      <trkpt lat="42.15801" lon="1.88391">
        <ele>861</ele>
        <time>2018-11-13T10:37:21.000Z</time>
      </trkpt>
      <trkpt lat="42.15803" lon="1.88392">
        <ele>860.03191808056</ele>
        <time>2018-11-13T10:37:22.000Z</time>
      </trkpt>
      <trkpt lat="42.15805" lon="1.88392">
        <ele>860</ele>
        <time>2018-11-13T10:37:23.000Z</time>
      </trkpt>
      <trkpt lat="42.15807" lon="1.88393">
        <ele>860</ele>
        <time>2018-11-13T10:37:24.000Z</time>
      </trkpt>
      <trkpt lat="42.15809" lon="1.88394">
        <ele>860</ele>
        <time>2018-11-13T10:37:25.000Z</time>
      </trkpt>
      <trkpt lat="42.15812" lon="1.88395">
        <ele>860</ele>
        <time>2018-11-13T10:37:26.000Z</time>
      </trkpt>
      <trkpt lat="42.15814" lon="1.88395">
        <ele>860</ele>
        <time>2018-11-13T10:37:27.000Z</time>
      </trkpt>
      <trkpt lat="42.15816" lon="1.88396">
        <ele>860</ele>
        <time>2018-11-13T10:37:28.000Z</time>
      </trkpt>
      <trkpt lat="42.15818" lon="1.88397">
        <ele>860</ele>
        <time>2018-11-13T10:37:29.000Z</time>
      </trkpt>
      <trkpt lat="42.15821" lon="1.88398">
        <ele>860</ele>
        <time>2018-11-13T10:37:30.000Z</time>
      </trkpt>
      <trkpt lat="42.15823" lon="1.88398">
        <ele>860</ele>
        <time>2018-11-13T10:37:31.000Z</time>
      </trkpt>
      <trkpt lat="42.15825" lon="1.88399">
        <ele>860.96551369006</ele>
        <time>2018-11-13T10:37:32.000Z</time>
      </trkpt>
      <trkpt lat="42.15827" lon="1.884">
        <ele>861</ele>
        <time>2018-11-13T10:37:33.000Z</time>
      </trkpt>
      <trkpt lat="42.1583" lon="1.88401">
        <ele>861</ele>
        <time>2018-11-13T10:37:34.000Z</time>
      </trkpt>
      <trkpt lat="42.15832" lon="1.88402">
        <ele>861</ele>
        <time>2018-11-13T10:37:35.000Z</time>
      </trkpt>
      <trkpt lat="42.15835" lon="1.88404">
        <ele>861</ele>
        <time>2018-11-13T10:37:36.000Z</time>
      </trkpt>
      <trkpt lat="42.15837" lon="1.88405">
        <ele>860.0300032</ele>
        <time>2018-11-13T10:37:37.000Z</time>
      </trkpt>
      <trkpt lat="42.15839" lon="1.88406">
        <ele>860</ele>
        <time>2018-11-13T10:37:38.000Z</time>
      </trkpt>
      <trkpt lat="42.15841" lon="1.88407">
        <ele>859.09346364572</ele>
        <time>2018-11-13T10:37:39.000Z</time>
      </trkpt>
      <trkpt lat="42.15843" lon="1.88409">
        <ele>859</ele>
        <time>2018-11-13T10:37:40.000Z</time>
      </trkpt>
      <trkpt lat="42.15845" lon="1.88411">
        <ele>859.9699968</ele>
        <time>2018-11-13T10:37:41.000Z</time>
      </trkpt>
      <trkpt lat="42.15847" lon="1.88412">
        <ele>860</ele>
        <time>2018-11-13T10:37:42.000Z</time>
      </trkpt>
      <trkpt lat="42.15848" lon="1.88414">
        <ele>860</ele>
        <time>2018-11-13T10:37:43.000Z</time>
      </trkpt>
      <trkpt lat="42.15851" lon="1.88416">
        <ele>859.08490315413</ele>
        <time>2018-11-13T10:37:45.000Z</time>
      </trkpt>
      <trkpt lat="42.15853" lon="1.88419">
        <ele>859</ele>
        <time>2018-11-13T10:37:47.000Z</time>
      </trkpt>
      <trkpt lat="42.15856" lon="1.88421">
        <ele>859</ele>
        <time>2018-11-13T10:37:49.000Z</time>
      </trkpt>
      <trkpt lat="42.15858" lon="1.88423">
        <ele>858.03371158188</ele>
        <time>2018-11-13T10:37:51.000Z</time>
      </trkpt>
      <trkpt lat="42.15861" lon="1.88425">
        <ele>858</ele>
        <time>2018-11-13T10:37:53.000Z</time>
      </trkpt>
      <trkpt lat="42.15864" lon="1.88427">
        <ele>858</ele>
        <time>2018-11-13T10:37:55.000Z</time>
      </trkpt>
      <trkpt lat="42.15867" lon="1.88429">
        <ele>858</ele>
        <time>2018-11-13T10:37:57.000Z</time>
      </trkpt>
      <trkpt lat="42.1587" lon="1.88429">
        <ele>858</ele>
        <time>2018-11-13T10:37:59.000Z</time>
      </trkpt>
      <trkpt lat="42.15873" lon="1.88431">
        <ele>858</ele>
        <time>2018-11-13T10:38:01.000Z</time>
      </trkpt>
      <trkpt lat="42.15875" lon="1.88432">
        <ele>858</ele>
        <time>2018-11-13T10:38:02.000Z</time>
      </trkpt>
      <trkpt lat="42.15878" lon="1.88433">
        <ele>858</ele>
        <time>2018-11-13T10:38:04.000Z</time>
      </trkpt>
      <trkpt lat="42.15881" lon="1.88433">
        <ele>858</ele>
        <time>2018-11-13T10:38:06.000Z</time>
      </trkpt>
      <trkpt lat="42.15883" lon="1.88434">
        <ele>858</ele>
        <time>2018-11-13T10:38:08.000Z</time>
      </trkpt>
      <trkpt lat="42.15885" lon="1.88436">
        <ele>857.03125333333</ele>
        <time>2018-11-13T10:38:10.000Z</time>
      </trkpt>
      <trkpt lat="42.15887" lon="1.88437">
        <ele>857</ele>
        <time>2018-11-13T10:38:17.000Z</time>
      </trkpt>
      <trkpt lat="42.1589" lon="1.88437">
        <ele>857</ele>
        <time>2018-11-13T10:38:19.000Z</time>
      </trkpt>
      <trkpt lat="42.15893" lon="1.88439">
        <ele>857</ele>
        <time>2018-11-13T10:38:21.000Z</time>
      </trkpt>
      <trkpt lat="42.15896" lon="1.8844">
        <ele>857</ele>
        <time>2018-11-13T10:38:23.000Z</time>
      </trkpt>
      <trkpt lat="42.15899" lon="1.88442">
        <ele>857</ele>
        <time>2018-11-13T10:38:25.000Z</time>
      </trkpt>
      <trkpt lat="42.15901" lon="1.88443">
        <ele>857</ele>
        <time>2018-11-13T10:38:27.000Z</time>
      </trkpt>
      <trkpt lat="42.15904" lon="1.88443">
        <ele>855.03226117236</ele>
        <time>2018-11-13T10:38:29.000Z</time>
      </trkpt>
      <trkpt lat="42.15906" lon="1.88442">
        <ele>855</ele>
        <time>2018-11-13T10:38:31.000Z</time>
      </trkpt>
      <trkpt lat="42.15909" lon="1.88441">
        <ele>856</ele>
        <time>2018-11-13T10:38:33.000Z</time>
      </trkpt>
      <trkpt lat="42.15912" lon="1.8844">
        <ele>856</ele>
        <time>2018-11-13T10:38:35.000Z</time>
      </trkpt>
      <trkpt lat="42.15915" lon="1.88439">
        <ele>856</ele>
        <time>2018-11-13T10:38:37.000Z</time>
      </trkpt>
      <trkpt lat="42.15918" lon="1.88438">
        <ele>856</ele>
        <time>2018-11-13T10:38:39.000Z</time>
      </trkpt>
      <trkpt lat="42.15921" lon="1.88438">
        <ele>856</ele>
        <time>2018-11-13T10:38:41.000Z</time>
      </trkpt>
      <trkpt lat="42.15923" lon="1.88436">
        <ele>856</ele>
        <time>2018-11-13T10:38:43.000Z</time>
      </trkpt>
      <trkpt lat="42.15928" lon="1.88435">
        <ele>856</ele>
        <time>2018-11-13T10:38:46.000Z</time>
      </trkpt>
      <trkpt lat="42.15931" lon="1.88434">
        <ele>856</ele>
        <time>2018-11-13T10:38:48.000Z</time>
      </trkpt>
      <trkpt lat="42.15933" lon="1.88433">
        <ele>856</ele>
        <time>2018-11-13T10:38:50.000Z</time>
      </trkpt>
      <trkpt lat="42.15936" lon="1.88431">
        <ele>855</ele>
        <time>2018-11-13T10:38:52.000Z</time>
      </trkpt>
      <trkpt lat="42.15939" lon="1.88431">
        <ele>855</ele>
        <time>2018-11-13T10:38:54.000Z</time>
      </trkpt>
      <trkpt lat="42.15942" lon="1.8843">
        <ele>855</ele>
        <time>2018-11-13T10:38:56.000Z</time>
      </trkpt>
      <trkpt lat="42.15945" lon="1.88429">
        <ele>855</ele>
        <time>2018-11-13T10:38:58.000Z</time>
      </trkpt>
      <trkpt lat="42.15949" lon="1.88429">
        <ele>855</ele>
        <time>2018-11-13T10:39:00.000Z</time>
      </trkpt>
      <trkpt lat="42.15951" lon="1.88428">
        <ele>854</ele>
        <time>2018-11-13T10:39:02.000Z</time>
      </trkpt>
      <trkpt lat="42.15954" lon="1.88426">
        <ele>854</ele>
        <time>2018-11-13T10:39:04.000Z</time>
      </trkpt>
      <trkpt lat="42.15957" lon="1.88426">
        <ele>853.3120574458</ele>
        <time>2018-11-13T10:39:06.000Z</time>
      </trkpt>
      <trkpt lat="42.1596" lon="1.88425">
        <ele>852</ele>
        <time>2018-11-13T10:39:08.000Z</time>
      </trkpt>
      <trkpt lat="42.15962" lon="1.88424">
        <ele>852</ele>
        <time>2018-11-13T10:39:10.000Z</time>
      </trkpt>
      <trkpt lat="42.15965" lon="1.88423">
        <ele>852</ele>
        <time>2018-11-13T10:39:12.000Z</time>
      </trkpt>
      <trkpt lat="42.15968" lon="1.88422">
        <ele>852</ele>
        <time>2018-11-13T10:39:14.000Z</time>
      </trkpt>
      <trkpt lat="42.15971" lon="1.88422">
        <ele>852</ele>
        <time>2018-11-13T10:39:16.000Z</time>
      </trkpt>
      <trkpt lat="42.15974" lon="1.88421">
        <ele>852</ele>
        <time>2018-11-13T10:39:18.000Z</time>
      </trkpt>
      <trkpt lat="42.15977" lon="1.88421">
        <ele>852</ele>
        <time>2018-11-13T10:39:20.000Z</time>
      </trkpt>
      <trkpt lat="42.1598" lon="1.8842">
        <ele>852</ele>
        <time>2018-11-13T10:39:22.000Z</time>
      </trkpt>
      <trkpt lat="42.15984" lon="1.88418">
        <ele>852</ele>
        <time>2018-11-13T10:39:24.000Z</time>
      </trkpt>
      <trkpt lat="42.15987" lon="1.88417">
        <ele>850.03191808056</ele>
        <time>2018-11-13T10:39:26.000Z</time>
      </trkpt>
      <trkpt lat="42.1599" lon="1.88416">
        <ele>850</ele>
        <time>2018-11-13T10:39:28.000Z</time>
      </trkpt>
      <trkpt lat="42.15993" lon="1.88416">
        <ele>850</ele>
        <time>2018-11-13T10:39:30.000Z</time>
      </trkpt>
      <trkpt lat="42.15995" lon="1.88415">
        <ele>850</ele>
        <time>2018-11-13T10:39:32.000Z</time>
      </trkpt>
      <trkpt lat="42.15999" lon="1.88414">
        <ele>850</ele>
        <time>2018-11-13T10:39:34.000Z</time>
      </trkpt>
      <trkpt lat="42.16002" lon="1.88415">
        <ele>850</ele>
        <time>2018-11-13T10:39:36.000Z</time>
      </trkpt>
      <trkpt lat="42.16005" lon="1.88415">
        <ele>850</ele>
        <time>2018-11-13T10:39:38.000Z</time>
      </trkpt>
      <trkpt lat="42.16008" lon="1.88415">
        <ele>850</ele>
        <time>2018-11-13T10:39:40.000Z</time>
      </trkpt>
      <trkpt lat="42.16012" lon="1.88415">
        <ele>850</ele>
        <time>2018-11-13T10:39:43.000Z</time>
      </trkpt>
      <trkpt lat="42.16015" lon="1.88414">
        <ele>849.04901677814</ele>
        <time>2018-11-13T10:39:45.000Z</time>
      </trkpt>
      <trkpt lat="42.16018" lon="1.88414">
        <ele>849</ele>
        <time>2018-11-13T10:39:47.000Z</time>
      </trkpt>
      <trkpt lat="42.1602" lon="1.88415">
        <ele>849</ele>
        <time>2018-11-13T10:39:49.000Z</time>
      </trkpt>
      <trkpt lat="42.16023" lon="1.88415">
        <ele>849</ele>
        <time>2018-11-13T10:39:51.000Z</time>
      </trkpt>
      <trkpt lat="42.16026" lon="1.88415">
        <ele>849</ele>
        <time>2018-11-13T10:39:53.000Z</time>
      </trkpt>
      <trkpt lat="42.16029" lon="1.88416">
        <ele>849</ele>
        <time>2018-11-13T10:39:55.000Z</time>
      </trkpt>
      <trkpt lat="42.16032" lon="1.88417">
        <ele>849</ele>
        <time>2018-11-13T10:39:57.000Z</time>
      </trkpt>
      <trkpt lat="42.16035" lon="1.88418">
        <ele>849</ele>
        <time>2018-11-13T10:39:59.000Z</time>
      </trkpt>
      <trkpt lat="42.16038" lon="1.88419">
        <ele>849</ele>
        <time>2018-11-13T10:40:01.000Z</time>
      </trkpt>
      <trkpt lat="42.16041" lon="1.8842">
        <ele>849</ele>
        <time>2018-11-13T10:40:03.000Z</time>
      </trkpt>
      <trkpt lat="42.16045" lon="1.88421">
        <ele>849</ele>
        <time>2018-11-13T10:40:05.000Z</time>
      </trkpt>
      <trkpt lat="42.16047" lon="1.88421">
        <ele>849</ele>
        <time>2018-11-13T10:40:06.000Z</time>
      </trkpt>
      <trkpt lat="42.1605" lon="1.88422">
        <ele>849</ele>
        <time>2018-11-13T10:40:08.000Z</time>
      </trkpt>
      <trkpt lat="42.16053" lon="1.88422">
        <ele>849</ele>
        <time>2018-11-13T10:40:10.000Z</time>
      </trkpt>
      <trkpt lat="42.16057" lon="1.88422">
        <ele>849</ele>
        <time>2018-11-13T10:40:12.000Z</time>
      </trkpt>
      <trkpt lat="42.1606" lon="1.88422">
        <ele>849</ele>
        <time>2018-11-13T10:40:14.000Z</time>
      </trkpt>
      <trkpt lat="42.16063" lon="1.88421">
        <ele>849</ele>
        <time>2018-11-13T10:40:16.000Z</time>
      </trkpt>
      <trkpt lat="42.16066" lon="1.8842">
        <ele>849</ele>
        <time>2018-11-13T10:40:18.000Z</time>
      </trkpt>
      <trkpt lat="42.16069" lon="1.88419">
        <ele>849</ele>
        <time>2018-11-13T10:40:20.000Z</time>
      </trkpt>
      <trkpt lat="42.16072" lon="1.88417">
        <ele>848.08490315413</ele>
        <time>2018-11-13T10:40:22.000Z</time>
      </trkpt>
      <trkpt lat="42.16075" lon="1.88416">
        <ele>848</ele>
        <time>2018-11-13T10:40:24.000Z</time>
      </trkpt>
      <trkpt lat="42.16079" lon="1.88415">
        <ele>848</ele>
        <time>2018-11-13T10:40:26.000Z</time>
      </trkpt>
      <trkpt lat="42.16081" lon="1.88415">
        <ele>848</ele>
        <time>2018-11-13T10:40:28.000Z</time>
      </trkpt>
      <trkpt lat="42.16084" lon="1.88415">
        <ele>847.0300032</ele>
        <time>2018-11-13T10:40:30.000Z</time>
      </trkpt>
      <trkpt lat="42.16087" lon="1.88416">
        <ele>847</ele>
        <time>2018-11-13T10:40:32.000Z</time>
      </trkpt>
      <trkpt lat="42.1609" lon="1.88418">
        <ele>847</ele>
        <time>2018-11-13T10:40:34.000Z</time>
      </trkpt>
      <trkpt lat="42.16093" lon="1.8842">
        <ele>847</ele>
        <time>2018-11-13T10:40:36.000Z</time>
      </trkpt>
      <trkpt lat="42.16095" lon="1.88422">
        <ele>847</ele>
        <time>2018-11-13T10:40:38.000Z</time>
      </trkpt>
      <trkpt lat="42.16098" lon="1.88423">
        <ele>847</ele>
        <time>2018-11-13T10:40:40.000Z</time>
      </trkpt>
      <trkpt lat="42.161" lon="1.88425">
        <ele>847</ele>
        <time>2018-11-13T10:40:42.000Z</time>
      </trkpt>
      <trkpt lat="42.16103" lon="1.88427">
        <ele>847</ele>
        <time>2018-11-13T10:40:44.000Z</time>
      </trkpt>
      <trkpt lat="42.16106" lon="1.88428">
        <ele>847</ele>
        <time>2018-11-13T10:40:46.000Z</time>
      </trkpt>
      <trkpt lat="42.16109" lon="1.88428">
        <ele>847</ele>
        <time>2018-11-13T10:40:48.000Z</time>
      </trkpt>
      <trkpt lat="42.16112" lon="1.88428">
        <ele>847</ele>
        <time>2018-11-13T10:40:50.000Z</time>
      </trkpt>
      <trkpt lat="42.16115" lon="1.88429">
        <ele>847</ele>
        <time>2018-11-13T10:40:52.000Z</time>
      </trkpt>
      <trkpt lat="42.16118" lon="1.88429">
        <ele>847</ele>
        <time>2018-11-13T10:40:54.000Z</time>
      </trkpt>
      <trkpt lat="42.16121" lon="1.8843">
        <ele>847.86606857143</ele>
        <time>2018-11-13T10:40:56.000Z</time>
      </trkpt>
      <trkpt lat="42.16123" lon="1.88433">
        <ele>848</ele>
        <time>2018-11-13T10:40:58.000Z</time>
      </trkpt>
      <trkpt lat="42.16125" lon="1.88435">
        <ele>848</ele>
        <time>2018-11-13T10:41:00.000Z</time>
      </trkpt>
      <trkpt lat="42.16127" lon="1.88438">
        <ele>848</ele>
        <time>2018-11-13T10:41:02.000Z</time>
      </trkpt>
      <trkpt lat="42.16128" lon="1.88441">
        <ele>848</ele>
        <time>2018-11-13T10:41:04.000Z</time>
      </trkpt>
      <trkpt lat="42.1613" lon="1.88444">
        <ele>849</ele>
        <time>2018-11-13T10:41:06.000Z</time>
      </trkpt>
      <trkpt lat="42.16133" lon="1.88446">
        <ele>849</ele>
        <time>2018-11-13T10:41:08.000Z</time>
      </trkpt>
      <trkpt lat="42.16136" lon="1.88449">
        <ele>849</ele>
        <time>2018-11-13T10:41:10.000Z</time>
      </trkpt>
      <trkpt lat="42.16138" lon="1.8845">
        <ele>849</ele>
        <time>2018-11-13T10:41:12.000Z</time>
      </trkpt>
      <trkpt lat="42.1614" lon="1.88452">
        <ele>849</ele>
        <time>2018-11-13T10:41:14.000Z</time>
      </trkpt>
      <trkpt lat="42.16142" lon="1.88453">
        <ele>849</ele>
        <time>2018-11-13T10:41:16.000Z</time>
      </trkpt>
      <trkpt lat="42.16144" lon="1.88454">
        <ele>849</ele>
        <time>2018-11-13T10:41:18.000Z</time>
      </trkpt>
      <trkpt lat="42.16147" lon="1.88455">
        <ele>849</ele>
        <time>2018-11-13T10:41:20.000Z</time>
      </trkpt>
      <trkpt lat="42.16149" lon="1.88455">
        <ele>849</ele>
        <time>2018-11-13T10:41:23.000Z</time>
      </trkpt>
      <trkpt lat="42.16151" lon="1.88456">
        <ele>849</ele>
        <time>2018-11-13T10:41:25.000Z</time>
      </trkpt>
      <trkpt lat="42.16154" lon="1.88457">
        <ele>849</ele>
        <time>2018-11-13T10:41:28.000Z</time>
      </trkpt>
      <trkpt lat="42.16156" lon="1.88457">
        <ele>848</ele>
        <time>2018-11-13T10:41:30.000Z</time>
      </trkpt>
      <trkpt lat="42.16159" lon="1.88458">
        <ele>848</ele>
        <time>2018-11-13T10:41:32.000Z</time>
      </trkpt>
      <trkpt lat="42.16162" lon="1.88458">
        <ele>848</ele>
        <time>2018-11-13T10:41:34.000Z</time>
      </trkpt>
      <trkpt lat="42.16164" lon="1.88458">
        <ele>848</ele>
        <time>2018-11-13T10:41:36.000Z</time>
      </trkpt>
      <trkpt lat="42.16167" lon="1.88458">
        <ele>848</ele>
        <time>2018-11-13T10:41:38.000Z</time>
      </trkpt>
      <trkpt lat="42.16169" lon="1.88458">
        <ele>847</ele>
        <time>2018-11-13T10:41:40.000Z</time>
      </trkpt>
      <trkpt lat="42.16172" lon="1.88458">
        <ele>847</ele>
        <time>2018-11-13T10:41:42.000Z</time>
      </trkpt>
      <trkpt lat="42.16174" lon="1.88458">
        <ele>847</ele>
        <time>2018-11-13T10:41:44.000Z</time>
      </trkpt>
      <trkpt lat="42.16177" lon="1.88459">
        <ele>847</ele>
        <time>2018-11-13T10:41:46.000Z</time>
      </trkpt>
      <trkpt lat="42.1618" lon="1.8846">
        <ele>847</ele>
        <time>2018-11-13T10:41:48.000Z</time>
      </trkpt>
      <trkpt lat="42.16182" lon="1.88463">
        <ele>847</ele>
        <time>2018-11-13T10:41:50.000Z</time>
      </trkpt>
      <trkpt lat="42.16183" lon="1.88466">
        <ele>846</ele>
        <time>2018-11-13T10:41:52.000Z</time>
      </trkpt>
      <trkpt lat="42.16184" lon="1.88469">
        <ele>845.283328</ele>
        <time>2018-11-13T10:41:54.000Z</time>
      </trkpt>
      <trkpt lat="42.16184" lon="1.88473">
        <ele>845</ele>
        <time>2018-11-13T10:41:56.000Z</time>
      </trkpt>
      <trkpt lat="42.16185" lon="1.88478">
        <ele>844.26356158403</ele>
        <time>2018-11-13T10:41:58.000Z</time>
      </trkpt>
      <trkpt lat="42.16186" lon="1.88481">
        <ele>844</ele>
        <time>2018-11-13T10:41:59.000Z</time>
      </trkpt>
      <trkpt lat="42.16187" lon="1.88484">
        <ele>844</ele>
        <time>2018-11-13T10:42:00.000Z</time>
      </trkpt>
      <trkpt lat="42.16188" lon="1.88487">
        <ele>844</ele>
        <time>2018-11-13T10:42:01.000Z</time>
      </trkpt>
      <trkpt lat="42.16188" lon="1.8849">
        <ele>844</ele>
        <time>2018-11-13T10:42:02.000Z</time>
      </trkpt>
      <trkpt lat="42.16189" lon="1.88493">
        <ele>843.0300032</ele>
        <time>2018-11-13T10:42:03.000Z</time>
      </trkpt>
      <trkpt lat="42.16189" lon="1.88497">
        <ele>843</ele>
        <time>2018-11-13T10:42:04.000Z</time>
      </trkpt>
      <trkpt lat="42.1619" lon="1.885">
        <ele>843</ele>
        <time>2018-11-13T10:42:05.000Z</time>
      </trkpt>
      <trkpt lat="42.1619" lon="1.88502">
        <ele>843</ele>
        <time>2018-11-13T10:42:06.000Z</time>
      </trkpt>
      <trkpt lat="42.16189" lon="1.88505">
        <ele>843</ele>
        <time>2018-11-13T10:42:07.000Z</time>
      </trkpt>
      <trkpt lat="42.16189" lon="1.88508">
        <ele>842.03125333333</ele>
        <time>2018-11-13T10:42:08.000Z</time>
      </trkpt>
      <trkpt lat="42.16189" lon="1.88511">
        <ele>841.0300032</ele>
        <time>2018-11-13T10:42:09.000Z</time>
      </trkpt>
      <trkpt lat="42.16189" lon="1.88514">
        <ele>841</ele>
        <time>2018-11-13T10:42:10.000Z</time>
      </trkpt>
      <trkpt lat="42.16189" lon="1.88516">
        <ele>841</ele>
        <time>2018-11-13T10:42:11.000Z</time>
      </trkpt>
      <trkpt lat="42.16188" lon="1.88519">
        <ele>841</ele>
        <time>2018-11-13T10:42:12.000Z</time>
      </trkpt>
      <trkpt lat="42.16187" lon="1.88522">
        <ele>840.28147874237</ele>
        <time>2018-11-13T10:42:13.000Z</time>
      </trkpt>
      <trkpt lat="42.16187" lon="1.88525">
        <ele>840</ele>
        <time>2018-11-13T10:42:14.000Z</time>
      </trkpt>
      <trkpt lat="42.16186" lon="1.88528">
        <ele>840</ele>
        <time>2018-11-13T10:42:15.000Z</time>
      </trkpt>
      <trkpt lat="42.16185" lon="1.88531">
        <ele>840</ele>
        <time>2018-11-13T10:42:16.000Z</time>
      </trkpt>
      <trkpt lat="42.16185" lon="1.88534">
        <ele>839.03333665183</ele>
        <time>2018-11-13T10:42:17.000Z</time>
      </trkpt>
      <trkpt lat="42.16185" lon="1.88537">
        <ele>839</ele>
        <time>2018-11-13T10:42:18.000Z</time>
      </trkpt>
      <trkpt lat="42.16185" lon="1.8854">
        <ele>839</ele>
        <time>2018-11-13T10:42:19.000Z</time>
      </trkpt>
      <trkpt lat="42.16184" lon="1.88542">
        <ele>839</ele>
        <time>2018-11-13T10:42:20.000Z</time>
      </trkpt>
      <trkpt lat="42.16184" lon="1.88546">
        <ele>839</ele>
        <time>2018-11-13T10:42:21.000Z</time>
      </trkpt>
      <trkpt lat="42.16184" lon="1.88549">
        <ele>839</ele>
        <time>2018-11-13T10:42:22.000Z</time>
      </trkpt>
      <trkpt lat="42.16184" lon="1.88552">
        <ele>839</ele>
        <time>2018-11-13T10:42:23.000Z</time>
      </trkpt>
      <trkpt lat="42.16183" lon="1.88555">
        <ele>839</ele>
        <time>2018-11-13T10:42:24.000Z</time>
      </trkpt>
      <trkpt lat="42.16183" lon="1.88558">
        <ele>839</ele>
        <time>2018-11-13T10:42:25.000Z</time>
      </trkpt>
      <trkpt lat="42.16183" lon="1.88561">
        <ele>839</ele>
        <time>2018-11-13T10:42:26.000Z</time>
      </trkpt>
      <trkpt lat="42.16183" lon="1.88564">
        <ele>838.03125333333</ele>
        <time>2018-11-13T10:42:27.000Z</time>
      </trkpt>
      <trkpt lat="42.16183" lon="1.88567">
        <ele>838</ele>
        <time>2018-11-13T10:42:28.000Z</time>
      </trkpt>
      <trkpt lat="42.16183" lon="1.88569">
        <ele>837.06731076923</ele>
        <time>2018-11-13T10:42:29.000Z</time>
      </trkpt>
      <trkpt lat="42.16183" lon="1.88573">
        <ele>837</ele>
        <time>2018-11-13T10:42:30.000Z</time>
      </trkpt>
      <trkpt lat="42.16183" lon="1.88576">
        <ele>837</ele>
        <time>2018-11-13T10:42:31.000Z</time>
      </trkpt>
      <trkpt lat="42.16183" lon="1.88579">
        <ele>837</ele>
        <time>2018-11-13T10:42:32.000Z</time>
      </trkpt>
      <trkpt lat="42.16184" lon="1.88585">
        <ele>837</ele>
        <time>2018-11-13T10:42:34.000Z</time>
      </trkpt>
      <trkpt lat="42.16185" lon="1.88588">
        <ele>836.08490315413</ele>
        <time>2018-11-13T10:42:35.000Z</time>
      </trkpt>
      <trkpt lat="42.16185" lon="1.88592">
        <ele>836</ele>
        <time>2018-11-13T10:42:36.000Z</time>
      </trkpt>
      <trkpt lat="42.16185" lon="1.88596">
        <ele>836</ele>
        <time>2018-11-13T10:42:37.000Z</time>
      </trkpt>
      <trkpt lat="42.16185" lon="1.88599">
        <ele>836</ele>
        <time>2018-11-13T10:42:38.000Z</time>
      </trkpt>
      <trkpt lat="42.16186" lon="1.88603">
        <ele>836</ele>
        <time>2018-11-13T10:42:39.000Z</time>
      </trkpt>
      <trkpt lat="42.16186" lon="1.88605">
        <ele>835.0300032</ele>
        <time>2018-11-13T10:42:40.000Z</time>
      </trkpt>
      <trkpt lat="42.16187" lon="1.88609">
        <ele>835</ele>
        <time>2018-11-13T10:42:42.000Z</time>
      </trkpt>
      <trkpt lat="42.16186" lon="1.88609">
        <ele>835</ele>
        <time>2018-11-13T10:42:47.000Z</time>
      </trkpt>
      <trkpt lat="42.16186" lon="1.88613">
        <ele>834</ele>
        <time>2018-11-13T10:42:50.000Z</time>
      </trkpt>
      <trkpt lat="42.16187" lon="1.88617">
        <ele>834</ele>
        <time>2018-11-13T10:42:53.000Z</time>
      </trkpt>
      <trkpt lat="42.16189" lon="1.88618">
        <ele>834</ele>
        <time>2018-11-13T10:42:55.000Z</time>
      </trkpt>
      <trkpt lat="42.16191" lon="1.88619">
        <ele>834</ele>
        <time>2018-11-13T10:42:57.000Z</time>
      </trkpt>
      <trkpt lat="42.16193" lon="1.88618">
        <ele>834</ele>
        <time>2018-11-13T10:42:59.000Z</time>
      </trkpt>
      <trkpt lat="42.16195" lon="1.88617">
        <ele>834</ele>
        <time>2018-11-13T10:43:01.000Z</time>
      </trkpt>
      <trkpt lat="42.16197" lon="1.88615">
        <ele>834.91509684587</ele>
        <time>2018-11-13T10:43:03.000Z</time>
      </trkpt>
      <trkpt lat="42.162" lon="1.88613">
        <ele>834.0300032</ele>
        <time>2018-11-13T10:43:05.000Z</time>
      </trkpt>
      <trkpt lat="42.16202" lon="1.88612">
        <ele>835</ele>
        <time>2018-11-13T10:43:07.000Z</time>
      </trkpt>
      <trkpt lat="42.16204" lon="1.8861">
        <ele>834.08490315413</ele>
        <time>2018-11-13T10:43:09.000Z</time>
      </trkpt>
      <trkpt lat="42.16207" lon="1.88608">
        <ele>834</ele>
        <time>2018-11-13T10:43:11.000Z</time>
      </trkpt>
      <trkpt lat="42.16209" lon="1.88606">
        <ele>834</ele>
        <time>2018-11-13T10:43:13.000Z</time>
      </trkpt>
      <trkpt lat="42.16211" lon="1.88603">
        <ele>833</ele>
        <time>2018-11-13T10:43:15.000Z</time>
      </trkpt>
      <trkpt lat="42.16213" lon="1.88602">
        <ele>833</ele>
        <time>2018-11-13T10:43:17.000Z</time>
      </trkpt>
      <trkpt lat="42.16215" lon="1.886">
        <ele>833</ele>
        <time>2018-11-13T10:43:19.000Z</time>
      </trkpt>
      <trkpt lat="42.16217" lon="1.88598">
        <ele>833.9699968</ele>
        <time>2018-11-13T10:43:21.000Z</time>
      </trkpt>
      <trkpt lat="42.1622" lon="1.88596">
        <ele>834</ele>
        <time>2018-11-13T10:43:23.000Z</time>
      </trkpt>
      <trkpt lat="42.16223" lon="1.88594">
        <ele>834</ele>
        <time>2018-11-13T10:43:25.000Z</time>
      </trkpt>
      <trkpt lat="42.16225" lon="1.88593">
        <ele>834</ele>
        <time>2018-11-13T10:43:27.000Z</time>
      </trkpt>
      <trkpt lat="42.16228" lon="1.88591">
        <ele>834</ele>
        <time>2018-11-13T10:43:29.000Z</time>
      </trkpt>
      <trkpt lat="42.16231" lon="1.8859">
        <ele>834</ele>
        <time>2018-11-13T10:43:31.000Z</time>
      </trkpt>
      <trkpt lat="42.16233" lon="1.88587">
        <ele>834</ele>
        <time>2018-11-13T10:43:33.000Z</time>
      </trkpt>
      <trkpt lat="42.16235" lon="1.88585">
        <ele>834</ele>
        <time>2018-11-13T10:43:35.000Z</time>
      </trkpt>
      <trkpt lat="42.16238" lon="1.88583">
        <ele>834</ele>
        <time>2018-11-13T10:43:37.000Z</time>
      </trkpt>
      <trkpt lat="42.16241" lon="1.88581">
        <ele>834</ele>
        <time>2018-11-13T10:43:39.000Z</time>
      </trkpt>
      <trkpt lat="42.16243" lon="1.8858">
        <ele>835</ele>
        <time>2018-11-13T10:43:41.000Z</time>
      </trkpt>
      <trkpt lat="42.16246" lon="1.88578">
        <ele>835</ele>
        <time>2018-11-13T10:43:43.000Z</time>
      </trkpt>
      <trkpt lat="42.16248" lon="1.88577">
        <ele>835</ele>
        <time>2018-11-13T10:43:45.000Z</time>
      </trkpt>
      <trkpt lat="42.1625" lon="1.88575">
        <ele>835</ele>
        <time>2018-11-13T10:43:47.000Z</time>
      </trkpt>
      <trkpt lat="42.16253" lon="1.88573">
        <ele>835</ele>
        <time>2018-11-13T10:43:49.000Z</time>
      </trkpt>
      <trkpt lat="42.16256" lon="1.88572">
        <ele>835.93268923077</ele>
        <time>2018-11-13T10:43:51.000Z</time>
      </trkpt>
      <trkpt lat="42.16258" lon="1.8857">
        <ele>836</ele>
        <time>2018-11-13T10:43:53.000Z</time>
      </trkpt>
      <trkpt lat="42.16261" lon="1.88569">
        <ele>836</ele>
        <time>2018-11-13T10:43:55.000Z</time>
      </trkpt>
      <trkpt lat="42.16263" lon="1.88567">
        <ele>836</ele>
        <time>2018-11-13T10:43:57.000Z</time>
      </trkpt>
      <trkpt lat="42.16266" lon="1.88565">
        <ele>836</ele>
        <time>2018-11-13T10:43:59.000Z</time>
      </trkpt>
      <trkpt lat="42.16268" lon="1.88563">
        <ele>836</ele>
        <time>2018-11-13T10:44:01.000Z</time>
      </trkpt>
      <trkpt lat="42.16271" lon="1.8856">
        <ele>836</ele>
        <time>2018-11-13T10:44:03.000Z</time>
      </trkpt>
      <trkpt lat="42.16274" lon="1.88558">
        <ele>836</ele>
        <time>2018-11-13T10:44:05.000Z</time>
      </trkpt>
      <trkpt lat="42.16276" lon="1.88556">
        <ele>836</ele>
        <time>2018-11-13T10:44:07.000Z</time>
      </trkpt>
      <trkpt lat="42.16278" lon="1.88555">
        <ele>836</ele>
        <time>2018-11-13T10:44:09.000Z</time>
      </trkpt>
      <trkpt lat="42.16281" lon="1.88554">
        <ele>836</ele>
        <time>2018-11-13T10:44:11.000Z</time>
      </trkpt>
      <trkpt lat="42.16284" lon="1.88553">
        <ele>836</ele>
        <time>2018-11-13T10:44:13.000Z</time>
      </trkpt>
      <trkpt lat="42.16287" lon="1.88552">
        <ele>836</ele>
        <time>2018-11-13T10:44:15.000Z</time>
      </trkpt>
      <trkpt lat="42.16289" lon="1.88552">
        <ele>836</ele>
        <time>2018-11-13T10:44:17.000Z</time>
      </trkpt>
      <trkpt lat="42.16291" lon="1.88552">
        <ele>836.9699968</ele>
        <time>2018-11-13T10:44:19.000Z</time>
      </trkpt>
      <trkpt lat="42.16294" lon="1.88552">
        <ele>837</ele>
        <time>2018-11-13T10:44:21.000Z</time>
      </trkpt>
      <trkpt lat="42.16296" lon="1.88552">
        <ele>837</ele>
        <time>2018-11-13T10:44:24.000Z</time>
      </trkpt>
      <trkpt lat="42.16294" lon="1.8855">
        <ele>837</ele>
        <time>2018-11-13T10:44:29.000Z</time>
      </trkpt>
      <trkpt lat="42.16295" lon="1.88546">
        <ele>835.05825845978</ele>
        <time>2018-11-13T10:44:32.000Z</time>
      </trkpt>
      <trkpt lat="42.16298" lon="1.88546">
        <ele>835</ele>
        <time>2018-11-13T10:44:34.000Z</time>
      </trkpt>
      <trkpt lat="42.163" lon="1.88546">
        <ele>835</ele>
        <time>2018-11-13T10:44:36.000Z</time>
      </trkpt>
      <trkpt lat="42.16302" lon="1.88545">
        <ele>835</ele>
        <time>2018-11-13T10:44:38.000Z</time>
      </trkpt>
      <trkpt lat="42.16304" lon="1.88545">
        <ele>835</ele>
        <time>2018-11-13T10:44:40.000Z</time>
      </trkpt>
      <trkpt lat="42.16307" lon="1.88545">
        <ele>833.03061531027</ele>
        <time>2018-11-13T10:44:42.000Z</time>
      </trkpt>
      <trkpt lat="42.16309" lon="1.88545">
        <ele>833</ele>
        <time>2018-11-13T10:44:44.000Z</time>
      </trkpt>
      <trkpt lat="42.16312" lon="1.88543">
        <ele>833</ele>
        <time>2018-11-13T10:44:46.000Z</time>
      </trkpt>
      <trkpt lat="42.16314" lon="1.88541">
        <ele>833</ele>
        <time>2018-11-13T10:44:48.000Z</time>
      </trkpt>
      <trkpt lat="42.16315" lon="1.88539">
        <ele>833</ele>
        <time>2018-11-13T10:44:50.000Z</time>
      </trkpt>
      <trkpt lat="42.16317" lon="1.88537">
        <ele>833</ele>
        <time>2018-11-13T10:44:52.000Z</time>
      </trkpt>
      <trkpt lat="42.16318" lon="1.88534">
        <ele>833</ele>
        <time>2018-11-13T10:44:54.000Z</time>
      </trkpt>
      <trkpt lat="42.16319" lon="1.88532">
        <ele>833</ele>
        <time>2018-11-13T10:44:56.000Z</time>
      </trkpt>
      <trkpt lat="42.16319" lon="1.8853">
        <ele>833</ele>
        <time>2018-11-13T10:44:58.000Z</time>
      </trkpt>
      <trkpt lat="42.1632" lon="1.88527">
        <ele>832.0300032</ele>
        <time>2018-11-13T10:45:00.000Z</time>
      </trkpt>
      <trkpt lat="42.1632" lon="1.88523">
        <ele>832</ele>
        <time>2018-11-13T10:45:03.000Z</time>
      </trkpt>
      <trkpt lat="42.16319" lon="1.88521">
        <ele>833</ele>
        <time>2018-11-13T10:45:06.000Z</time>
      </trkpt>
      <trkpt lat="42.16318" lon="1.88519">
        <ele>832</ele>
        <time>2018-11-13T10:45:09.000Z</time>
      </trkpt>
      <trkpt lat="42.16316" lon="1.88517">
        <ele>832.96874666667</ele>
        <time>2018-11-13T10:45:11.000Z</time>
      </trkpt>
      <trkpt lat="42.16314" lon="1.88516">
        <ele>833.94175324352</ele>
        <time>2018-11-13T10:45:13.000Z</time>
      </trkpt>
      <trkpt lat="42.16313" lon="1.88515">
        <ele>834</ele>
        <time>2018-11-13T10:45:15.000Z</time>
      </trkpt>
      <trkpt lat="42.16311" lon="1.88514">
        <ele>834.96906876394</ele>
        <time>2018-11-13T10:45:17.000Z</time>
      </trkpt>
      <trkpt lat="42.16309" lon="1.88513">
        <ele>835</ele>
        <time>2018-11-13T10:45:19.000Z</time>
      </trkpt>
      <trkpt lat="42.16307" lon="1.88512">
        <ele>835</ele>
        <time>2018-11-13T10:45:21.000Z</time>
      </trkpt>
      <trkpt lat="42.16305" lon="1.8851">
        <ele>836</ele>
        <time>2018-11-13T10:45:23.000Z</time>
      </trkpt>
      <trkpt lat="42.16304" lon="1.88509">
        <ele>836</ele>
        <time>2018-11-13T10:45:25.000Z</time>
      </trkpt>
      <trkpt lat="42.16301" lon="1.88508">
        <ele>837</ele>
        <time>2018-11-13T10:45:28.000Z</time>
      </trkpt>
      <trkpt lat="42.16299" lon="1.88507">
        <ele>837</ele>
        <time>2018-11-13T10:45:30.000Z</time>
      </trkpt>
      <trkpt lat="42.16298" lon="1.88505">
        <ele>837</ele>
        <time>2018-11-13T10:45:32.000Z</time>
      </trkpt>
      <trkpt lat="42.16296" lon="1.88504">
        <ele>838</ele>
        <time>2018-11-13T10:45:34.000Z</time>
      </trkpt>
      <trkpt lat="42.16294" lon="1.88503">
        <ele>838.96938468973</ele>
        <time>2018-11-13T10:45:36.000Z</time>
      </trkpt>
      <trkpt lat="42.16293" lon="1.88501">
        <ele>839</ele>
        <time>2018-11-13T10:45:38.000Z</time>
      </trkpt>
      <trkpt lat="42.16292" lon="1.885">
        <ele>839</ele>
        <time>2018-11-13T10:45:40.000Z</time>
      </trkpt>
      <trkpt lat="42.1629" lon="1.88499">
        <ele>838</ele>
        <time>2018-11-13T10:45:42.000Z</time>
      </trkpt>
      <trkpt lat="42.16288" lon="1.88498">
        <ele>839.0300032</ele>
        <time>2018-11-13T10:45:50.000Z</time>
      </trkpt>
      <trkpt lat="42.16291" lon="1.88497">
        <ele>840</ele>
        <time>2018-11-13T10:45:55.000Z</time>
      </trkpt>
      <trkpt lat="42.16293" lon="1.88497">
        <ele>840</ele>
        <time>2018-11-13T10:45:57.000Z</time>
      </trkpt>
      <trkpt lat="42.16295" lon="1.88497">
        <ele>841</ele>
        <time>2018-11-13T10:45:59.000Z</time>
      </trkpt>
      <trkpt lat="42.16296" lon="1.88497">
        <ele>841</ele>
        <time>2018-11-13T10:46:01.000Z</time>
      </trkpt>
      <trkpt lat="42.16299" lon="1.88496">
        <ele>841</ele>
        <time>2018-11-13T10:46:03.000Z</time>
      </trkpt>
      <trkpt lat="42.163" lon="1.88496">
        <ele>842</ele>
        <time>2018-11-13T10:46:05.000Z</time>
      </trkpt>
      <trkpt lat="42.16303" lon="1.88496">
        <ele>842</ele>
        <time>2018-11-13T10:46:07.000Z</time>
      </trkpt>
      <trkpt lat="42.16305" lon="1.88496">
        <ele>843</ele>
        <time>2018-11-13T10:46:09.000Z</time>
      </trkpt>
      <trkpt lat="42.16308" lon="1.88495">
        <ele>843</ele>
        <time>2018-11-13T10:46:11.000Z</time>
      </trkpt>
      <trkpt lat="42.1631" lon="1.88494">
        <ele>843</ele>
        <time>2018-11-13T10:46:13.000Z</time>
      </trkpt>
      <trkpt lat="42.16311" lon="1.88492">
        <ele>843</ele>
        <time>2018-11-13T10:46:15.000Z</time>
      </trkpt>
      <trkpt lat="42.16313" lon="1.8849">
        <ele>843</ele>
        <time>2018-11-13T10:46:17.000Z</time>
      </trkpt>
      <trkpt lat="42.16313" lon="1.88486">
        <ele>843</ele>
        <time>2018-11-13T10:46:19.000Z</time>
      </trkpt>
      <trkpt lat="42.16314" lon="1.88483">
        <ele>844</ele>
        <time>2018-11-13T10:46:21.000Z</time>
      </trkpt>
      <trkpt lat="42.16317" lon="1.88481">
        <ele>843.03030616467</ele>
        <time>2018-11-13T10:46:24.000Z</time>
      </trkpt>
      <trkpt lat="42.16319" lon="1.88481">
        <ele>843</ele>
        <time>2018-11-13T10:46:26.000Z</time>
      </trkpt>
      <trkpt lat="42.16321" lon="1.88481">
        <ele>843.9699968</ele>
        <time>2018-11-13T10:46:28.000Z</time>
      </trkpt>
      <trkpt lat="42.16324" lon="1.88481">
        <ele>844</ele>
        <time>2018-11-13T10:46:30.000Z</time>
      </trkpt>
      <trkpt lat="42.16327" lon="1.88481">
        <ele>844</ele>
        <time>2018-11-13T10:46:32.000Z</time>
      </trkpt>
      <trkpt lat="42.16329" lon="1.88482">
        <ele>844</ele>
        <time>2018-11-13T10:46:34.000Z</time>
      </trkpt>
      <trkpt lat="42.16331" lon="1.88483">
        <ele>844</ele>
        <time>2018-11-13T10:46:36.000Z</time>
      </trkpt>
      <trkpt lat="42.16334" lon="1.88483">
        <ele>844</ele>
        <time>2018-11-13T10:46:38.000Z</time>
      </trkpt>
      <trkpt lat="42.16336" lon="1.88482">
        <ele>844</ele>
        <time>2018-11-13T10:46:40.000Z</time>
      </trkpt>
      <trkpt lat="42.16339" lon="1.88482">
        <ele>844.93268923077</ele>
        <time>2018-11-13T10:46:42.000Z</time>
      </trkpt>
      <trkpt lat="42.16342" lon="1.88482">
        <ele>845</ele>
        <time>2018-11-13T10:46:44.000Z</time>
      </trkpt>
      <trkpt lat="42.16344" lon="1.88482">
        <ele>845</ele>
        <time>2018-11-13T10:46:46.000Z</time>
      </trkpt>
      <trkpt lat="42.16346" lon="1.88481">
        <ele>845</ele>
        <time>2018-11-13T10:46:48.000Z</time>
      </trkpt>
      <trkpt lat="42.16348" lon="1.8848">
        <ele>846</ele>
        <time>2018-11-13T10:46:50.000Z</time>
      </trkpt>
      <trkpt lat="42.16351" lon="1.8848">
        <ele>846</ele>
        <time>2018-11-13T10:46:52.000Z</time>
      </trkpt>
      <trkpt lat="42.16354" lon="1.8848">
        <ele>846</ele>
        <time>2018-11-13T10:46:54.000Z</time>
      </trkpt>
      <trkpt lat="42.16356" lon="1.88482">
        <ele>846</ele>
        <time>2018-11-13T10:46:56.000Z</time>
      </trkpt>
      <trkpt lat="42.16358" lon="1.88483">
        <ele>846</ele>
        <time>2018-11-13T10:46:58.000Z</time>
      </trkpt>
      <trkpt lat="42.1636" lon="1.88485">
        <ele>846</ele>
        <time>2018-11-13T10:47:00.000Z</time>
      </trkpt>
      <trkpt lat="42.16362" lon="1.88486">
        <ele>846</ele>
        <time>2018-11-13T10:47:02.000Z</time>
      </trkpt>
      <trkpt lat="42.16365" lon="1.88488">
        <ele>846.92380929161</ele>
        <time>2018-11-13T10:47:04.000Z</time>
      </trkpt>
      <trkpt lat="42.16367" lon="1.88488">
        <ele>847</ele>
        <time>2018-11-13T10:47:06.000Z</time>
      </trkpt>
      <trkpt lat="42.16369" lon="1.88489">
        <ele>847</ele>
        <time>2018-11-13T10:47:08.000Z</time>
      </trkpt>
      <trkpt lat="42.16371" lon="1.8849">
        <ele>847</ele>
        <time>2018-11-13T10:47:10.000Z</time>
      </trkpt>
      <trkpt lat="42.16374" lon="1.88491">
        <ele>847</ele>
        <time>2018-11-13T10:47:12.000Z</time>
      </trkpt>
      <trkpt lat="42.16376" lon="1.88493">
        <ele>847.74016065471</ele>
        <time>2018-11-13T10:47:14.000Z</time>
      </trkpt>
      <trkpt lat="42.16378" lon="1.88495">
        <ele>848</ele>
        <time>2018-11-13T10:47:16.000Z</time>
      </trkpt>
      <trkpt lat="42.1638" lon="1.88496">
        <ele>848</ele>
        <time>2018-11-13T10:47:18.000Z</time>
      </trkpt>
      <trkpt lat="42.16382" lon="1.88498">
        <ele>848</ele>
        <time>2018-11-13T10:47:20.000Z</time>
      </trkpt>
      <trkpt lat="42.16384" lon="1.88499">
        <ele>848.9699968</ele>
        <time>2018-11-13T10:47:22.000Z</time>
      </trkpt>
      <trkpt lat="42.16387" lon="1.885">
        <ele>849</ele>
        <time>2018-11-13T10:47:24.000Z</time>
      </trkpt>
      <trkpt lat="42.16389" lon="1.88501">
        <ele>850</ele>
        <time>2018-11-13T10:47:26.000Z</time>
      </trkpt>
      <trkpt lat="42.16391" lon="1.88501">
        <ele>850</ele>
        <time>2018-11-13T10:47:28.000Z</time>
      </trkpt>
      <trkpt lat="42.16393" lon="1.88502">
        <ele>850</ele>
        <time>2018-11-13T10:47:30.000Z</time>
      </trkpt>
      <trkpt lat="42.16396" lon="1.88502">
        <ele>850</ele>
        <time>2018-11-13T10:47:32.000Z</time>
      </trkpt>
      <trkpt lat="42.16398" lon="1.88502">
        <ele>850.9699968</ele>
        <time>2018-11-13T10:47:34.000Z</time>
      </trkpt>
      <trkpt lat="42.16401" lon="1.88502">
        <ele>852</ele>
        <time>2018-11-13T10:47:36.000Z</time>
      </trkpt>
      <trkpt lat="42.16404" lon="1.88503">
        <ele>852</ele>
        <time>2018-11-13T10:47:38.000Z</time>
      </trkpt>
      <trkpt lat="42.16406" lon="1.88503">
        <ele>852</ele>
        <time>2018-11-13T10:47:40.000Z</time>
      </trkpt>
      <trkpt lat="42.16408" lon="1.88503">
        <ele>852</ele>
        <time>2018-11-13T10:47:42.000Z</time>
      </trkpt>
      <trkpt lat="42.16411" lon="1.88504">
        <ele>852</ele>
        <time>2018-11-13T10:47:44.000Z</time>
      </trkpt>
      <trkpt lat="42.16413" lon="1.88504">
        <ele>852</ele>
        <time>2018-11-13T10:47:46.000Z</time>
      </trkpt>
      <trkpt lat="42.16415" lon="1.88505">
        <ele>852</ele>
        <time>2018-11-13T10:47:48.000Z</time>
      </trkpt>
      <trkpt lat="42.16418" lon="1.88505">
        <ele>853</ele>
        <time>2018-11-13T10:47:50.000Z</time>
      </trkpt>
      <trkpt lat="42.1642" lon="1.88505">
        <ele>853</ele>
        <time>2018-11-13T10:47:52.000Z</time>
      </trkpt>
      <trkpt lat="42.16422" lon="1.88505">
        <ele>853</ele>
        <time>2018-11-13T10:47:54.000Z</time>
      </trkpt>
      <trkpt lat="42.16424" lon="1.88505">
        <ele>853.78570122509</ele>
        <time>2018-11-13T10:47:56.000Z</time>
      </trkpt>
      <trkpt lat="42.16426" lon="1.88505">
        <ele>854</ele>
        <time>2018-11-13T10:47:58.000Z</time>
      </trkpt>
      <trkpt lat="42.16429" lon="1.88505">
        <ele>855</ele>
        <time>2018-11-13T10:48:00.000Z</time>
      </trkpt>
      <trkpt lat="42.16431" lon="1.88506">
        <ele>855</ele>
        <time>2018-11-13T10:48:02.000Z</time>
      </trkpt>
      <trkpt lat="42.16433" lon="1.88506">
        <ele>855</ele>
        <time>2018-11-13T10:48:04.000Z</time>
      </trkpt>
      <trkpt lat="42.16436" lon="1.88506">
        <ele>855.9699968</ele>
        <time>2018-11-13T10:48:06.000Z</time>
      </trkpt>
      <trkpt lat="42.16438" lon="1.88506">
        <ele>856</ele>
        <time>2018-11-13T10:48:08.000Z</time>
      </trkpt>
      <trkpt lat="42.16441" lon="1.88507">
        <ele>856.91509684587</ele>
        <time>2018-11-13T10:48:10.000Z</time>
      </trkpt>
      <trkpt lat="42.16444" lon="1.88507">
        <ele>857</ele>
        <time>2018-11-13T10:48:12.000Z</time>
      </trkpt>
      <trkpt lat="42.16446" lon="1.88507">
        <ele>857.73016243892</ele>
        <time>2018-11-13T10:48:14.000Z</time>
      </trkpt>
      <trkpt lat="42.16449" lon="1.88507">
        <ele>858</ele>
        <time>2018-11-13T10:48:16.000Z</time>
      </trkpt>
      <trkpt lat="42.16451" lon="1.88507">
        <ele>858</ele>
        <time>2018-11-13T10:48:18.000Z</time>
      </trkpt>
      <trkpt lat="42.16454" lon="1.88507">
        <ele>858</ele>
        <time>2018-11-13T10:48:20.000Z</time>
      </trkpt>
      <trkpt lat="42.16456" lon="1.88507">
        <ele>858</ele>
        <time>2018-11-13T10:48:22.000Z</time>
      </trkpt>
      <trkpt lat="42.16458" lon="1.88507">
        <ele>858</ele>
        <time>2018-11-13T10:48:24.000Z</time>
      </trkpt>
      <trkpt lat="42.16461" lon="1.88507">
        <ele>858.94174154022</ele>
        <time>2018-11-13T10:48:26.000Z</time>
      </trkpt>
      <trkpt lat="42.16463" lon="1.88506">
        <ele>859.9699968</ele>
        <time>2018-11-13T10:48:28.000Z</time>
      </trkpt>
      <trkpt lat="42.16465" lon="1.88505">
        <ele>860</ele>
        <time>2018-11-13T10:48:30.000Z</time>
      </trkpt>
      <trkpt lat="42.16467" lon="1.88504">
        <ele>860.95098322186</ele>
        <time>2018-11-13T10:48:32.000Z</time>
      </trkpt>
      <trkpt lat="42.16469" lon="1.88503">
        <ele>861</ele>
        <time>2018-11-13T10:48:34.000Z</time>
      </trkpt>
      <trkpt lat="42.16471" lon="1.88502">
        <ele>861</ele>
        <time>2018-11-13T10:48:36.000Z</time>
      </trkpt>
      <trkpt lat="42.16473" lon="1.88501">
        <ele>861</ele>
        <time>2018-11-13T10:48:38.000Z</time>
      </trkpt>
      <trkpt lat="42.16475" lon="1.88498">
        <ele>862.92380929161</ele>
        <time>2018-11-13T10:48:40.000Z</time>
      </trkpt>
      <trkpt lat="42.16476" lon="1.88497">
        <ele>863</ele>
        <time>2018-11-13T10:48:42.000Z</time>
      </trkpt>
      <trkpt lat="42.16478" lon="1.88496">
        <ele>862</ele>
        <time>2018-11-13T10:48:44.000Z</time>
      </trkpt>
      <trkpt lat="42.1648" lon="1.88494">
        <ele>862</ele>
        <time>2018-11-13T10:48:46.000Z</time>
      </trkpt>
      <trkpt lat="42.16482" lon="1.88492">
        <ele>863</ele>
        <time>2018-11-13T10:48:48.000Z</time>
      </trkpt>
      <trkpt lat="42.16483" lon="1.88491">
        <ele>863</ele>
        <time>2018-11-13T10:48:50.000Z</time>
      </trkpt>
      <trkpt lat="42.16485" lon="1.8849">
        <ele>863</ele>
        <time>2018-11-13T10:48:52.000Z</time>
      </trkpt>
      <trkpt lat="42.16487" lon="1.88488">
        <ele>864</ele>
        <time>2018-11-13T10:48:54.000Z</time>
      </trkpt>
      <trkpt lat="42.16488" lon="1.88486">
        <ele>864.96666334817</ele>
        <time>2018-11-13T10:48:56.000Z</time>
      </trkpt>
      <trkpt lat="42.1649" lon="1.88485">
        <ele>865</ele>
        <time>2018-11-13T10:48:58.000Z</time>
      </trkpt>
      <trkpt lat="42.16492" lon="1.88483">
        <ele>865</ele>
        <time>2018-11-13T10:49:00.000Z</time>
      </trkpt>
      <trkpt lat="42.16494" lon="1.88482">
        <ele>865</ele>
        <time>2018-11-13T10:49:02.000Z</time>
      </trkpt>
      <trkpt lat="42.16497" lon="1.8848">
        <ele>865.89814518518</ele>
        <time>2018-11-13T10:49:04.000Z</time>
      </trkpt>
      <trkpt lat="42.16499" lon="1.88478">
        <ele>866</ele>
        <time>2018-11-13T10:49:06.000Z</time>
      </trkpt>
      <trkpt lat="42.16501" lon="1.88476">
        <ele>866</ele>
        <time>2018-11-13T10:49:08.000Z</time>
      </trkpt>
      <trkpt lat="42.16503" lon="1.88473">
        <ele>866</ele>
        <time>2018-11-13T10:49:10.000Z</time>
      </trkpt>
      <trkpt lat="42.16505" lon="1.88472">
        <ele>866</ele>
        <time>2018-11-13T10:49:12.000Z</time>
      </trkpt>
      <trkpt lat="42.16508" lon="1.88471">
        <ele>866</ele>
        <time>2018-11-13T10:49:14.000Z</time>
      </trkpt>
      <trkpt lat="42.1651" lon="1.88469">
        <ele>866</ele>
        <time>2018-11-13T10:49:16.000Z</time>
      </trkpt>
      <trkpt lat="42.16512" lon="1.88469">
        <ele>866</ele>
        <time>2018-11-13T10:49:18.000Z</time>
      </trkpt>
      <trkpt lat="42.16515" lon="1.88469">
        <ele>866</ele>
        <time>2018-11-13T10:49:20.000Z</time>
      </trkpt>
      <trkpt lat="42.16518" lon="1.88468">
        <ele>866.95651689979</ele>
        <time>2018-11-13T10:49:22.000Z</time>
      </trkpt>
      <trkpt lat="42.1652" lon="1.88468">
        <ele>867</ele>
        <time>2018-11-13T10:49:24.000Z</time>
      </trkpt>
      <trkpt lat="42.16523" lon="1.88468">
        <ele>867</ele>
        <time>2018-11-13T10:49:26.000Z</time>
      </trkpt>
      <trkpt lat="42.16526" lon="1.88468">
        <ele>867</ele>
        <time>2018-11-13T10:49:28.000Z</time>
      </trkpt>
      <trkpt lat="42.16529" lon="1.88469">
        <ele>867.71323294118</ele>
        <time>2018-11-13T10:49:30.000Z</time>
      </trkpt>
      <trkpt lat="42.16531" lon="1.88469">
        <ele>868</ele>
        <time>2018-11-13T10:49:32.000Z</time>
      </trkpt>
      <trkpt lat="42.16533" lon="1.8847">
        <ele>867.03297043351</ele>
        <time>2018-11-13T10:49:34.000Z</time>
      </trkpt>
      <trkpt lat="42.16536" lon="1.88472">
        <ele>868</ele>
        <time>2018-11-13T10:49:36.000Z</time>
      </trkpt>
      <trkpt lat="42.16538" lon="1.88473">
        <ele>868</ele>
        <time>2018-11-13T10:49:38.000Z</time>
      </trkpt>
      <trkpt lat="42.1654" lon="1.88474">
        <ele>868</ele>
        <time>2018-11-13T10:49:40.000Z</time>
      </trkpt>
      <trkpt lat="42.16543" lon="1.88475">
        <ele>868.89814518518</ele>
        <time>2018-11-13T10:49:42.000Z</time>
      </trkpt>
      <trkpt lat="42.16545" lon="1.88477">
        <ele>870</ele>
        <time>2018-11-13T10:49:44.000Z</time>
      </trkpt>
      <trkpt lat="42.16547" lon="1.88478">
        <ele>870</ele>
        <time>2018-11-13T10:49:46.000Z</time>
      </trkpt>
      <trkpt lat="42.16549" lon="1.88481">
        <ele>870.9699968</ele>
        <time>2018-11-13T10:49:48.000Z</time>
      </trkpt>
      <trkpt lat="42.16551" lon="1.88483">
        <ele>871</ele>
        <time>2018-11-13T10:49:50.000Z</time>
      </trkpt>
      <trkpt lat="42.16553" lon="1.88485">
        <ele>870.06731076923</ele>
        <time>2018-11-13T10:49:52.000Z</time>
      </trkpt>
      <trkpt lat="42.16554" lon="1.88487">
        <ele>870.9699968</ele>
        <time>2018-11-13T10:49:54.000Z</time>
      </trkpt>
      <trkpt lat="42.16556" lon="1.88489">
        <ele>871</ele>
        <time>2018-11-13T10:49:56.000Z</time>
      </trkpt>
      <trkpt lat="42.16558" lon="1.88492">
        <ele>871</ele>
        <time>2018-11-13T10:49:58.000Z</time>
      </trkpt>
      <trkpt lat="42.1656" lon="1.88494">
        <ele>871</ele>
        <time>2018-11-13T10:50:00.000Z</time>
      </trkpt>
      <trkpt lat="42.16562" lon="1.88496">
        <ele>870.88182040332</ele>
        <time>2018-11-13T10:50:02.000Z</time>
      </trkpt>
      <trkpt lat="42.16564" lon="1.88498">
        <ele>871</ele>
        <time>2018-11-13T10:50:04.000Z</time>
      </trkpt>
      <trkpt lat="42.16566" lon="1.88499">
        <ele>872</ele>
        <time>2018-11-13T10:50:06.000Z</time>
      </trkpt>
      <trkpt lat="42.16568" lon="1.885">
        <ele>872</ele>
        <time>2018-11-13T10:50:08.000Z</time>
      </trkpt>
      <trkpt lat="42.1657" lon="1.88501">
        <ele>872</ele>
        <time>2018-11-13T10:50:10.000Z</time>
      </trkpt>
      <trkpt lat="42.16573" lon="1.88503">
        <ele>873</ele>
        <time>2018-11-13T10:50:12.000Z</time>
      </trkpt>
      <trkpt lat="42.16575" lon="1.88504">
        <ele>873</ele>
        <time>2018-11-13T10:50:14.000Z</time>
      </trkpt>
      <trkpt lat="42.16577" lon="1.88505">
        <ele>873</ele>
        <time>2018-11-13T10:50:16.000Z</time>
      </trkpt>
      <trkpt lat="42.16579" lon="1.88507">
        <ele>873</ele>
        <time>2018-11-13T10:50:18.000Z</time>
      </trkpt>
      <trkpt lat="42.16581" lon="1.88508">
        <ele>874</ele>
        <time>2018-11-13T10:50:20.000Z</time>
      </trkpt>
      <trkpt lat="42.16583" lon="1.8851">
        <ele>874.96938468973</ele>
        <time>2018-11-13T10:50:22.000Z</time>
      </trkpt>
      <trkpt lat="42.16586" lon="1.88511">
        <ele>876</ele>
        <time>2018-11-13T10:50:24.000Z</time>
      </trkpt>
      <trkpt lat="42.16588" lon="1.88512">
        <ele>876</ele>
        <time>2018-11-13T10:50:26.000Z</time>
      </trkpt>
      <trkpt lat="42.1659" lon="1.88514">
        <ele>876</ele>
        <time>2018-11-13T10:50:29.000Z</time>
      </trkpt>
      <trkpt lat="42.16592" lon="1.88515">
        <ele>876.03093123606</ele>
        <time>2018-11-13T10:50:31.000Z</time>
      </trkpt>
      <trkpt lat="42.16595" lon="1.88515">
        <ele>876</ele>
        <time>2018-11-13T10:50:38.000Z</time>
      </trkpt>
      <trkpt lat="42.16596" lon="1.88514">
        <ele>876.9690691721</ele>
        <time>2018-11-13T10:50:40.000Z</time>
      </trkpt>
      <trkpt lat="42.16598" lon="1.88512">
        <ele>877</ele>
        <time>2018-11-13T10:50:42.000Z</time>
      </trkpt>
      <trkpt lat="42.16599" lon="1.88508">
        <ele>877</ele>
        <time>2018-11-13T10:50:44.000Z</time>
      </trkpt>
      <trkpt lat="42.16601" lon="1.88505">
        <ele>877</ele>
        <time>2018-11-13T10:50:46.000Z</time>
      </trkpt>
      <trkpt lat="42.16602" lon="1.88501">
        <ele>877</ele>
        <time>2018-11-13T10:50:48.000Z</time>
      </trkpt>
      <trkpt lat="42.16603" lon="1.88498">
        <ele>877</ele>
        <time>2018-11-13T10:50:50.000Z</time>
      </trkpt>
      <trkpt lat="42.16605" lon="1.88495">
        <ele>877</ele>
        <time>2018-11-13T10:50:52.000Z</time>
      </trkpt>
      <trkpt lat="42.16607" lon="1.88493">
        <ele>878</ele>
        <time>2018-11-13T10:50:54.000Z</time>
      </trkpt>
      <trkpt lat="42.1661" lon="1.88491">
        <ele>878</ele>
        <time>2018-11-13T10:50:56.000Z</time>
      </trkpt>
      <trkpt lat="42.16613" lon="1.8849">
        <ele>878</ele>
        <time>2018-11-13T10:50:58.000Z</time>
      </trkpt>
      <trkpt lat="42.16615" lon="1.8849">
        <ele>878</ele>
        <time>2018-11-13T10:51:00.000Z</time>
      </trkpt>
      <trkpt lat="42.16618" lon="1.88489">
        <ele>878</ele>
        <time>2018-11-13T10:51:02.000Z</time>
      </trkpt>
      <trkpt lat="42.1662" lon="1.88488">
        <ele>878</ele>
        <time>2018-11-13T10:51:04.000Z</time>
      </trkpt>
      <trkpt lat="42.16623" lon="1.88488">
        <ele>878</ele>
        <time>2018-11-13T10:51:06.000Z</time>
      </trkpt>
      <trkpt lat="42.16624" lon="1.88486">
        <ele>878</ele>
        <time>2018-11-13T10:51:08.000Z</time>
      </trkpt>
      <trkpt lat="42.16625" lon="1.88483">
        <ele>878</ele>
        <time>2018-11-13T10:51:11.000Z</time>
      </trkpt>
      <trkpt lat="42.16627" lon="1.8848">
        <ele>878</ele>
        <time>2018-11-13T10:51:13.000Z</time>
      </trkpt>
      <trkpt lat="42.16629" lon="1.88477">
        <ele>878</ele>
        <time>2018-11-13T10:51:15.000Z</time>
      </trkpt>
      <trkpt lat="42.16631" lon="1.88475">
        <ele>878</ele>
        <time>2018-11-13T10:51:17.000Z</time>
      </trkpt>
      <trkpt lat="42.16633" lon="1.88473">
        <ele>878</ele>
        <time>2018-11-13T10:51:19.000Z</time>
      </trkpt>
      <trkpt lat="42.16635" lon="1.88471">
        <ele>878</ele>
        <time>2018-11-13T10:51:21.000Z</time>
      </trkpt>
      <trkpt lat="42.16637" lon="1.88468">
        <ele>878</ele>
        <time>2018-11-13T10:51:23.000Z</time>
      </trkpt>
      <trkpt lat="42.16639" lon="1.88465">
        <ele>878</ele>
        <time>2018-11-13T10:51:25.000Z</time>
      </trkpt>
      <trkpt lat="42.1664" lon="1.88462">
        <ele>878</ele>
        <time>2018-11-13T10:51:27.000Z</time>
      </trkpt>
      <trkpt lat="42.16642" lon="1.88459">
        <ele>877.9699968</ele>
        <time>2018-11-13T10:51:29.000Z</time>
      </trkpt>
      <trkpt lat="42.16644" lon="1.88456">
        <ele>878</ele>
        <time>2018-11-13T10:51:31.000Z</time>
      </trkpt>
      <trkpt lat="42.16646" lon="1.88453">
        <ele>878</ele>
        <time>2018-11-13T10:51:33.000Z</time>
      </trkpt>
      <trkpt lat="42.16648" lon="1.8845">
        <ele>878</ele>
        <time>2018-11-13T10:51:35.000Z</time>
      </trkpt>
      <trkpt lat="42.16649" lon="1.88447">
        <ele>878</ele>
        <time>2018-11-13T10:51:37.000Z</time>
      </trkpt>
      <trkpt lat="42.16651" lon="1.88444">
        <ele>878</ele>
        <time>2018-11-13T10:51:39.000Z</time>
      </trkpt>
      <trkpt lat="42.16651" lon="1.88443">
        <ele>872.2</ele>
        <time>2018-11-13T10:51:40.000Z</time>
      </trkpt>
    </trkseg>
  </trk>
</gpx>